<?xml version="1.0" encoding="UTF-8" standalone="no" ?>
<gpx xmlns="http://www.topografix.com/GPX/1/1" xmlns:xsi="http://www.w3.org/2001/XMLSchema-instance" xsi:schemaLocation="http://www.topografix.com/GPX/1/1 http://www.topografix.com/GPX/1/1/gpx.xsd" version="1.1" creator="VisuGPX - https://www.visugpx.com">
  <metadata>
    <name>Tour de l\'Arcalod</name>
    <desc><![CDATA[Tour de l\'Arcalod.
Départ de Nant Fourchu, passage par la pointe de Chaurionde (vue superbe !), col d\'Orgeval, Pas de l\'Ours, col de Chérel, bivouak sous le bois de Forette. Retour au Nant Fourchu par Précherel, Jarsy, Carlet et Rière Bellevaux.]]></desc>
  </metadata>
  <trk>
    <name><![CDATA[20110910 Tour de l Arcalod]]></name>
    <trkseg>
      <trkpt lat="45.64574" lon="6.23674">
        <ele>999.285156</ele>
      </trkpt>
      <trkpt lat="45.64585" lon="6.23723">
        <ele>1004.426941</ele>
      </trkpt>
      <trkpt lat="45.64603" lon="6.23755">
        <ele>1007.807739</ele>
      </trkpt>
      <trkpt lat="45.64628" lon="6.2379">
        <ele>1013.994751</ele>
      </trkpt>
      <trkpt lat="45.64661" lon="6.23823">
        <ele>1016.342896</ele>
      </trkpt>
      <trkpt lat="45.64689" lon="6.23851">
        <ele>1024.767456</ele>
      </trkpt>
      <trkpt lat="45.64719" lon="6.23885">
        <ele>1021.520691</ele>
      </trkpt>
      <trkpt lat="45.64744" lon="6.2392">
        <ele>1027.358521</ele>
      </trkpt>
      <trkpt lat="45.64763" lon="6.23962">
        <ele>1032.306396</ele>
      </trkpt>
      <trkpt lat="45.64781" lon="6.23987">
        <ele>1035.437378</ele>
      </trkpt>
      <trkpt lat="45.64812" lon="6.24017">
        <ele>1042.001831</ele>
      </trkpt>
      <trkpt lat="45.64847" lon="6.24037">
        <ele>1059.439331</ele>
      </trkpt>
      <trkpt lat="45.64886" lon="6.24065">
        <ele>1076.685547</ele>
      </trkpt>
      <trkpt lat="45.64928" lon="6.24079">
        <ele>1091.539795</ele>
      </trkpt>
      <trkpt lat="45.64961" lon="6.24093">
        <ele>1099.566528</ele>
      </trkpt>
      <trkpt lat="45.64999" lon="6.24097">
        <ele>1107.133789</ele>
      </trkpt>
      <trkpt lat="45.65046" lon="6.24097">
        <ele>1116.125</ele>
      </trkpt>
      <trkpt lat="45.65065" lon="6.24091">
        <ele>1122.110962</ele>
      </trkpt>
      <trkpt lat="45.6508" lon="6.24095">
        <ele>1122.886963</ele>
      </trkpt>
      <trkpt lat="45.65103" lon="6.24116">
        <ele>1116.594482</ele>
      </trkpt>
      <trkpt lat="45.65121" lon="6.24133">
        <ele>1109.482544</ele>
      </trkpt>
      <trkpt lat="45.65148" lon="6.24132">
        <ele>1113.193481</ele>
      </trkpt>
      <trkpt lat="45.65188" lon="6.24135">
        <ele>1111.571289</ele>
      </trkpt>
      <trkpt lat="45.65213" lon="6.24114">
        <ele>1124.702759</ele>
      </trkpt>
      <trkpt lat="45.65239" lon="6.241">
        <ele>1130.757935</ele>
      </trkpt>
      <trkpt lat="45.65267" lon="6.24086">
        <ele>1136.945801</ele>
      </trkpt>
      <trkpt lat="45.65301" lon="6.24088">
        <ele>1142.877319</ele>
      </trkpt>
      <trkpt lat="45.65336" lon="6.24096">
        <ele>1152.877441</ele>
      </trkpt>
      <trkpt lat="45.65368" lon="6.24107">
        <ele>1162.519409</ele>
      </trkpt>
      <trkpt lat="45.65402" lon="6.24115">
        <ele>1174.596558</ele>
      </trkpt>
      <trkpt lat="45.65427" lon="6.24116">
        <ele>1184.556885</ele>
      </trkpt>
      <trkpt lat="45.65457" lon="6.24109">
        <ele>1200.563965</ele>
      </trkpt>
      <trkpt lat="45.65485" lon="6.241">
        <ele>1210.727661</ele>
      </trkpt>
      <trkpt lat="45.65515" lon="6.24086">
        <ele>1221.030518</ele>
      </trkpt>
      <trkpt lat="45.6554" lon="6.24057">
        <ele>1233.803101</ele>
      </trkpt>
      <trkpt lat="45.65576" lon="6.24047">
        <ele>1236.727417</ele>
      </trkpt>
      <trkpt lat="45.65616" lon="6.24051">
        <ele>1240.750366</ele>
      </trkpt>
      <trkpt lat="45.65651" lon="6.2406">
        <ele>1248.057617</ele>
      </trkpt>
      <trkpt lat="45.65688" lon="6.24067">
        <ele>1256.191162</ele>
      </trkpt>
      <trkpt lat="45.65724" lon="6.24073">
        <ele>1263.775391</ele>
      </trkpt>
      <trkpt lat="45.6576" lon="6.24068">
        <ele>1274.646851</ele>
      </trkpt>
      <trkpt lat="45.65799" lon="6.2407">
        <ele>1280.419067</ele>
      </trkpt>
      <trkpt lat="45.65829" lon="6.24068">
        <ele>1287.446655</ele>
      </trkpt>
      <trkpt lat="45.65868" lon="6.24069">
        <ele>1295.00769</ele>
      </trkpt>
      <trkpt lat="45.65901" lon="6.24086">
        <ele>1295.26001</ele>
      </trkpt>
      <trkpt lat="45.65927" lon="6.241">
        <ele>1296.61499</ele>
      </trkpt>
      <trkpt lat="45.65927" lon="6.241">
        <ele>1296.61499</ele>
      </trkpt>
      <trkpt lat="45.65927" lon="6.241">
        <ele>1296.61499</ele>
      </trkpt>
      <trkpt lat="45.6593" lon="6.241">
        <ele>1297.86438</ele>
        <time>2011-09-10T11:27:16Z</time>
      </trkpt>
      <trkpt lat="45.65962" lon="6.24119">
        <ele>1302.848022</ele>
        <time>2011-09-10T11:27:21Z</time>
      </trkpt>
      <trkpt lat="45.65974" lon="6.24128">
        <ele>1304.578491</ele>
        <time>2011-09-10T11:27:26Z</time>
      </trkpt>
      <trkpt lat="45.65973" lon="6.24129">
        <ele>1303.744019</ele>
        <time>2011-09-10T11:27:31Z</time>
      </trkpt>
      <trkpt lat="45.65975" lon="6.24131">
        <ele>1304.247681</ele>
        <time>2011-09-10T11:27:36Z</time>
      </trkpt>
      <trkpt lat="45.65977" lon="6.24131">
        <ele>1304.624634</ele>
        <time>2011-09-10T11:27:41Z</time>
      </trkpt>
      <trkpt lat="45.65975" lon="6.2413">
        <ele>1304.520874</ele>
        <time>2011-09-10T11:27:46Z</time>
      </trkpt>
      <trkpt lat="45.65971" lon="6.24126">
        <ele>1304.476196</ele>
        <time>2011-09-10T11:27:51Z</time>
      </trkpt>
      <trkpt lat="45.65965" lon="6.24121">
        <ele>1303.718994</ele>
        <time>2011-09-10T11:27:56Z</time>
      </trkpt>
      <trkpt lat="45.66045" lon="6.24155">
        <ele>1317.720215</ele>
        <time>2011-09-10T11:28:01Z</time>
      </trkpt>
      <trkpt lat="45.66088" lon="6.24174">
        <ele>1316.268433</ele>
        <time>2011-09-10T11:28:06Z</time>
      </trkpt>
      <trkpt lat="45.66118" lon="6.24188">
        <ele>1314.98999</ele>
        <time>2011-09-10T11:28:11Z</time>
      </trkpt>
      <trkpt lat="45.6613" lon="6.24195">
        <ele>1314.383789</ele>
        <time>2011-09-10T11:28:16Z</time>
      </trkpt>
      <trkpt lat="45.66136" lon="6.24198">
        <ele>1314.331299</ele>
        <time>2011-09-10T11:28:21Z</time>
      </trkpt>
      <trkpt lat="45.6614" lon="6.24201">
        <ele>1314.4375</ele>
        <time>2011-09-10T11:28:26Z</time>
      </trkpt>
      <trkpt lat="45.66148" lon="6.24204">
        <ele>1315.006226</ele>
        <time>2011-09-10T11:28:31Z</time>
      </trkpt>
      <trkpt lat="45.66153" lon="6.24208">
        <ele>1314.71875</ele>
        <time>2011-09-10T11:28:36Z</time>
      </trkpt>
      <trkpt lat="45.66159" lon="6.24209">
        <ele>1315.724976</ele>
        <time>2011-09-10T11:28:41Z</time>
      </trkpt>
      <trkpt lat="45.66164" lon="6.24212">
        <ele>1316.099976</ele>
        <time>2011-09-10T11:28:46Z</time>
      </trkpt>
      <trkpt lat="45.66166" lon="6.24213">
        <ele>1315.925049</ele>
        <time>2011-09-10T11:28:51Z</time>
      </trkpt>
      <trkpt lat="45.66169" lon="6.24215">
        <ele>1316.268799</ele>
        <time>2011-09-10T11:28:56Z</time>
      </trkpt>
      <trkpt lat="45.66173" lon="6.24216">
        <ele>1316.699951</ele>
        <time>2011-09-10T11:29:01Z</time>
      </trkpt>
      <trkpt lat="45.6618" lon="6.24219">
        <ele>1317.65332</ele>
        <time>2011-09-10T11:29:06Z</time>
      </trkpt>
      <trkpt lat="45.66186" lon="6.24222">
        <ele>1318.641602</ele>
        <time>2011-09-10T11:29:11Z</time>
      </trkpt>
      <trkpt lat="45.66189" lon="6.24225">
        <ele>1318.662476</ele>
        <time>2011-09-10T11:29:16Z</time>
      </trkpt>
      <trkpt lat="45.66192" lon="6.24227">
        <ele>1319.065186</ele>
        <time>2011-09-10T11:29:21Z</time>
      </trkpt>
      <trkpt lat="45.662" lon="6.24231">
        <ele>1320.481201</ele>
        <time>2011-09-10T11:29:26Z</time>
      </trkpt>
      <trkpt lat="45.66207" lon="6.24235">
        <ele>1322.010254</ele>
        <time>2011-09-10T11:29:31Z</time>
      </trkpt>
      <trkpt lat="45.66213" lon="6.24238">
        <ele>1323.525269</ele>
        <time>2011-09-10T11:29:36Z</time>
      </trkpt>
      <trkpt lat="45.6622" lon="6.24241">
        <ele>1325.223022</ele>
        <time>2011-09-10T11:29:41Z</time>
      </trkpt>
      <trkpt lat="45.66226" lon="6.24243">
        <ele>1326.141602</ele>
        <time>2011-09-10T11:29:46Z</time>
      </trkpt>
      <trkpt lat="45.66231" lon="6.24245">
        <ele>1326.700073</ele>
        <time>2011-09-10T11:29:51Z</time>
      </trkpt>
      <trkpt lat="45.66237" lon="6.24247">
        <ele>1327.356323</ele>
        <time>2011-09-10T11:29:56Z</time>
      </trkpt>
      <trkpt lat="45.66242" lon="6.24247">
        <ele>1328.29834</ele>
        <time>2011-09-10T11:30:01Z</time>
      </trkpt>
      <trkpt lat="45.66247" lon="6.2425">
        <ele>1328.740967</ele>
        <time>2011-09-10T11:30:06Z</time>
      </trkpt>
      <trkpt lat="45.66252" lon="6.24251">
        <ele>1329.646606</ele>
        <time>2011-09-10T11:30:11Z</time>
      </trkpt>
      <trkpt lat="45.66258" lon="6.24252">
        <ele>1330.642456</ele>
        <time>2011-09-10T11:30:16Z</time>
      </trkpt>
      <trkpt lat="45.66262" lon="6.24252">
        <ele>1331.680298</ele>
        <time>2011-09-10T11:30:21Z</time>
      </trkpt>
      <trkpt lat="45.66267" lon="6.24252">
        <ele>1332.582397</ele>
        <time>2011-09-10T11:30:26Z</time>
      </trkpt>
      <trkpt lat="45.66272" lon="6.24252">
        <ele>1333.085693</ele>
        <time>2011-09-10T11:30:31Z</time>
      </trkpt>
      <trkpt lat="45.66277" lon="6.24251">
        <ele>1333.591431</ele>
        <time>2011-09-10T11:30:36Z</time>
      </trkpt>
      <trkpt lat="45.66282" lon="6.24251">
        <ele>1334.064941</ele>
        <time>2011-09-10T11:30:41Z</time>
      </trkpt>
      <trkpt lat="45.66287" lon="6.2425">
        <ele>1334.586792</ele>
        <time>2011-09-10T11:30:46Z</time>
      </trkpt>
      <trkpt lat="45.66291" lon="6.2425">
        <ele>1335.008789</ele>
        <time>2011-09-10T11:30:51Z</time>
      </trkpt>
      <trkpt lat="45.66295" lon="6.2425">
        <ele>1335.366211</ele>
        <time>2011-09-10T11:30:56Z</time>
      </trkpt>
      <trkpt lat="45.66299" lon="6.2425">
        <ele>1335.720703</ele>
        <time>2011-09-10T11:31:01Z</time>
      </trkpt>
      <trkpt lat="45.66304" lon="6.24251">
        <ele>1336.049316</ele>
        <time>2011-09-10T11:31:06Z</time>
      </trkpt>
      <trkpt lat="45.66309" lon="6.24251">
        <ele>1336.441406</ele>
        <time>2011-09-10T11:31:11Z</time>
      </trkpt>
      <trkpt lat="45.66314" lon="6.2425">
        <ele>1336.992432</ele>
        <time>2011-09-10T11:31:16Z</time>
      </trkpt>
      <trkpt lat="45.66318" lon="6.24249">
        <ele>1337.402588</ele>
        <time>2011-09-10T11:31:21Z</time>
      </trkpt>
      <trkpt lat="45.66324" lon="6.24248">
        <ele>1337.911011</ele>
        <time>2011-09-10T11:31:26Z</time>
      </trkpt>
      <trkpt lat="45.66329" lon="6.24248">
        <ele>1338.302002</ele>
        <time>2011-09-10T11:31:31Z</time>
      </trkpt>
      <trkpt lat="45.66332" lon="6.24248">
        <ele>1338.475586</ele>
        <time>2011-09-10T11:31:36Z</time>
      </trkpt>
      <trkpt lat="45.66332" lon="6.24248">
        <ele>1338.513306</ele>
        <time>2011-09-10T11:31:41Z</time>
      </trkpt>
      <trkpt lat="45.66332" lon="6.24248">
        <ele>1338.513306</ele>
        <time>2011-09-10T11:31:46Z</time>
      </trkpt>
      <trkpt lat="45.66332" lon="6.24248">
        <ele>1338.513306</ele>
        <time>2011-09-10T11:31:51Z</time>
      </trkpt>
      <trkpt lat="45.66332" lon="6.24247">
        <ele>1338.551025</ele>
        <time>2011-09-10T11:31:56Z</time>
      </trkpt>
      <trkpt lat="45.66331" lon="6.24247">
        <ele>1338.575439</ele>
        <time>2011-09-10T11:32:01Z</time>
      </trkpt>
      <trkpt lat="45.66336" lon="6.24246">
        <ele>1339.082886</ele>
        <time>2011-09-10T11:32:06Z</time>
      </trkpt>
      <trkpt lat="45.66341" lon="6.24245">
        <ele>1339.598145</ele>
        <time>2011-09-10T11:32:11Z</time>
      </trkpt>
      <trkpt lat="45.66347" lon="6.24243">
        <ele>1340.301758</ele>
        <time>2011-09-10T11:32:16Z</time>
      </trkpt>
      <trkpt lat="45.66353" lon="6.24241">
        <ele>1341.086792</ele>
        <time>2011-09-10T11:32:21Z</time>
      </trkpt>
      <trkpt lat="45.66358" lon="6.24238">
        <ele>1342.09082</ele>
        <time>2011-09-10T11:32:26Z</time>
      </trkpt>
      <trkpt lat="45.66362" lon="6.24235">
        <ele>1343.308594</ele>
        <time>2011-09-10T11:32:31Z</time>
      </trkpt>
      <trkpt lat="45.66366" lon="6.24232">
        <ele>1344.531372</ele>
        <time>2011-09-10T11:32:36Z</time>
      </trkpt>
      <trkpt lat="45.6637" lon="6.24229">
        <ele>1345.594482</ele>
        <time>2011-09-10T11:32:41Z</time>
      </trkpt>
      <trkpt lat="45.66374" lon="6.24227">
        <ele>1346.56897</ele>
        <time>2011-09-10T11:32:46Z</time>
      </trkpt>
      <trkpt lat="45.66378" lon="6.24226">
        <ele>1347.362549</ele>
        <time>2011-09-10T11:32:51Z</time>
      </trkpt>
      <trkpt lat="45.66383" lon="6.24224">
        <ele>1348.21228</ele>
        <time>2011-09-10T11:32:56Z</time>
      </trkpt>
      <trkpt lat="45.66388" lon="6.24222">
        <ele>1349.158447</ele>
        <time>2011-09-10T11:33:01Z</time>
      </trkpt>
      <trkpt lat="45.66392" lon="6.2422">
        <ele>1350.166748</ele>
        <time>2011-09-10T11:33:06Z</time>
      </trkpt>
      <trkpt lat="45.66396" lon="6.24217">
        <ele>1351.134766</ele>
        <time>2011-09-10T11:33:11Z</time>
      </trkpt>
      <trkpt lat="45.664" lon="6.24215">
        <ele>1352.007202</ele>
        <time>2011-09-10T11:33:16Z</time>
      </trkpt>
      <trkpt lat="45.66404" lon="6.24213">
        <ele>1353.202393</ele>
        <time>2011-09-10T11:33:21Z</time>
      </trkpt>
      <trkpt lat="45.66409" lon="6.24212">
        <ele>1354.507446</ele>
        <time>2011-09-10T11:33:26Z</time>
      </trkpt>
      <trkpt lat="45.66413" lon="6.24211">
        <ele>1355.575928</ele>
        <time>2011-09-10T11:33:31Z</time>
      </trkpt>
      <trkpt lat="45.66417" lon="6.24211">
        <ele>1356.83606</ele>
        <time>2011-09-10T11:33:36Z</time>
      </trkpt>
      <trkpt lat="45.66422" lon="6.24211">
        <ele>1357.793945</ele>
        <time>2011-09-10T11:33:41Z</time>
      </trkpt>
      <trkpt lat="45.66426" lon="6.24211">
        <ele>1358.92749</ele>
        <time>2011-09-10T11:33:46Z</time>
      </trkpt>
      <trkpt lat="45.6643" lon="6.2421">
        <ele>1360.295044</ele>
        <time>2011-09-10T11:33:51Z</time>
      </trkpt>
      <trkpt lat="45.66433" lon="6.24209">
        <ele>1361.61084</ele>
        <time>2011-09-10T11:33:56Z</time>
      </trkpt>
      <trkpt lat="45.66437" lon="6.24207">
        <ele>1363.030396</ele>
        <time>2011-09-10T11:34:01Z</time>
      </trkpt>
      <trkpt lat="45.66441" lon="6.24206">
        <ele>1364.326538</ele>
        <time>2011-09-10T11:34:06Z</time>
      </trkpt>
      <trkpt lat="45.66444" lon="6.24205">
        <ele>1365.734009</ele>
        <time>2011-09-10T11:34:11Z</time>
      </trkpt>
      <trkpt lat="45.66448" lon="6.24204">
        <ele>1367.272949</ele>
        <time>2011-09-10T11:34:16Z</time>
      </trkpt>
      <trkpt lat="45.66451" lon="6.24203">
        <ele>1368.092651</ele>
        <time>2011-09-10T11:34:21Z</time>
      </trkpt>
      <trkpt lat="45.66455" lon="6.24203">
        <ele>1368.564331</ele>
        <time>2011-09-10T11:34:26Z</time>
      </trkpt>
      <trkpt lat="45.66459" lon="6.24203">
        <ele>1369.23877</ele>
        <time>2011-09-10T11:34:31Z</time>
      </trkpt>
      <trkpt lat="45.66462" lon="6.24202">
        <ele>1370.131592</ele>
        <time>2011-09-10T11:34:36Z</time>
      </trkpt>
      <trkpt lat="45.66466" lon="6.24202">
        <ele>1370.947021</ele>
        <time>2011-09-10T11:34:41Z</time>
      </trkpt>
      <trkpt lat="45.6647" lon="6.24202">
        <ele>1371.935303</ele>
        <time>2011-09-10T11:34:46Z</time>
      </trkpt>
      <trkpt lat="45.66475" lon="6.24201">
        <ele>1372.821655</ele>
        <time>2011-09-10T11:34:51Z</time>
      </trkpt>
      <trkpt lat="45.66479" lon="6.24201">
        <ele>1373.850586</ele>
        <time>2011-09-10T11:34:56Z</time>
      </trkpt>
      <trkpt lat="45.66484" lon="6.242">
        <ele>1374.74707</ele>
        <time>2011-09-10T11:35:01Z</time>
      </trkpt>
      <trkpt lat="45.66488" lon="6.24199">
        <ele>1375.897949</ele>
        <time>2011-09-10T11:35:06Z</time>
      </trkpt>
      <trkpt lat="45.66493" lon="6.24198">
        <ele>1377.089233</ele>
        <time>2011-09-10T11:35:11Z</time>
      </trkpt>
      <trkpt lat="45.66497" lon="6.24197">
        <ele>1377.908447</ele>
        <time>2011-09-10T11:35:16Z</time>
      </trkpt>
      <trkpt lat="45.66502" lon="6.24196">
        <ele>1378.728394</ele>
        <time>2011-09-10T11:35:21Z</time>
      </trkpt>
      <trkpt lat="45.66506" lon="6.24194">
        <ele>1379.522583</ele>
        <time>2011-09-10T11:35:26Z</time>
      </trkpt>
      <trkpt lat="45.6651" lon="6.24195">
        <ele>1379.838013</ele>
        <time>2011-09-10T11:35:31Z</time>
      </trkpt>
      <trkpt lat="45.66515" lon="6.24196">
        <ele>1380.197021</ele>
        <time>2011-09-10T11:35:36Z</time>
      </trkpt>
      <trkpt lat="45.66518" lon="6.24197">
        <ele>1380.412598</ele>
        <time>2011-09-10T11:35:41Z</time>
      </trkpt>
      <trkpt lat="45.66523" lon="6.24199">
        <ele>1380.308594</ele>
        <time>2011-09-10T11:35:46Z</time>
      </trkpt>
      <trkpt lat="45.66528" lon="6.242">
        <ele>1380.555542</ele>
        <time>2011-09-10T11:35:51Z</time>
      </trkpt>
      <trkpt lat="45.66532" lon="6.242">
        <ele>1380.897461</ele>
        <time>2011-09-10T11:35:56Z</time>
      </trkpt>
      <trkpt lat="45.66536" lon="6.24201">
        <ele>1381.068481</ele>
        <time>2011-09-10T11:36:01Z</time>
      </trkpt>
      <trkpt lat="45.66541" lon="6.24201">
        <ele>1381.83606</ele>
        <time>2011-09-10T11:36:06Z</time>
      </trkpt>
      <trkpt lat="45.66545" lon="6.24202">
        <ele>1382.731812</ele>
        <time>2011-09-10T11:36:11Z</time>
      </trkpt>
      <trkpt lat="45.66551" lon="6.24203">
        <ele>1383.484253</ele>
        <time>2011-09-10T11:36:16Z</time>
      </trkpt>
      <trkpt lat="45.66556" lon="6.24204">
        <ele>1384.43457</ele>
        <time>2011-09-10T11:36:21Z</time>
      </trkpt>
      <trkpt lat="45.66561" lon="6.24204">
        <ele>1385.434448</ele>
        <time>2011-09-10T11:36:26Z</time>
      </trkpt>
      <trkpt lat="45.66566" lon="6.24206">
        <ele>1386.167725</ele>
        <time>2011-09-10T11:36:31Z</time>
      </trkpt>
      <trkpt lat="45.6657" lon="6.24205">
        <ele>1387.235107</ele>
        <time>2011-09-10T11:36:36Z</time>
      </trkpt>
      <trkpt lat="45.66575" lon="6.24205">
        <ele>1388.138306</ele>
        <time>2011-09-10T11:36:41Z</time>
      </trkpt>
      <trkpt lat="45.6658" lon="6.24206">
        <ele>1388.8573</ele>
        <time>2011-09-10T11:36:46Z</time>
      </trkpt>
      <trkpt lat="45.66584" lon="6.24206">
        <ele>1389.9729</ele>
        <time>2011-09-10T11:36:51Z</time>
      </trkpt>
      <trkpt lat="45.66589" lon="6.24207">
        <ele>1390.932495</ele>
        <time>2011-09-10T11:36:56Z</time>
      </trkpt>
      <trkpt lat="45.66593" lon="6.24208">
        <ele>1391.565918</ele>
        <time>2011-09-10T11:37:01Z</time>
      </trkpt>
      <trkpt lat="45.66598" lon="6.2421">
        <ele>1391.918701</ele>
        <time>2011-09-10T11:37:06Z</time>
      </trkpt>
      <trkpt lat="45.66602" lon="6.24213">
        <ele>1391.883911</ele>
        <time>2011-09-10T11:37:11Z</time>
      </trkpt>
      <trkpt lat="45.66606" lon="6.24216">
        <ele>1392.031006</ele>
        <time>2011-09-10T11:37:16Z</time>
      </trkpt>
      <trkpt lat="45.6661" lon="6.2422">
        <ele>1391.482422</ele>
        <time>2011-09-10T11:37:21Z</time>
      </trkpt>
      <trkpt lat="45.66614" lon="6.24223">
        <ele>1391.05896</ele>
        <time>2011-09-10T11:37:26Z</time>
      </trkpt>
      <trkpt lat="45.66619" lon="6.24227">
        <ele>1390.884155</ele>
        <time>2011-09-10T11:37:31Z</time>
      </trkpt>
      <trkpt lat="45.66623" lon="6.2423">
        <ele>1390.768921</ele>
        <time>2011-09-10T11:37:36Z</time>
      </trkpt>
      <trkpt lat="45.66627" lon="6.24232">
        <ele>1390.979858</ele>
        <time>2011-09-10T11:37:41Z</time>
      </trkpt>
      <trkpt lat="45.66631" lon="6.24233">
        <ele>1390.527466</ele>
        <time>2011-09-10T11:37:46Z</time>
      </trkpt>
      <trkpt lat="45.66636" lon="6.24234">
        <ele>1389.8573</ele>
        <time>2011-09-10T11:37:51Z</time>
      </trkpt>
      <trkpt lat="45.66641" lon="6.24234">
        <ele>1389.750488</ele>
        <time>2011-09-10T11:37:56Z</time>
      </trkpt>
      <trkpt lat="45.66644" lon="6.24232">
        <ele>1390.200928</ele>
        <time>2011-09-10T11:38:01Z</time>
      </trkpt>
      <trkpt lat="45.66649" lon="6.24229">
        <ele>1391.225586</ele>
        <time>2011-09-10T11:38:06Z</time>
      </trkpt>
      <trkpt lat="45.66653" lon="6.24225">
        <ele>1392.657715</ele>
        <time>2011-09-10T11:38:11Z</time>
      </trkpt>
      <trkpt lat="45.66657" lon="6.2422">
        <ele>1394.283325</ele>
        <time>2011-09-10T11:38:16Z</time>
      </trkpt>
      <trkpt lat="45.66661" lon="6.24215">
        <ele>1396.242188</ele>
        <time>2011-09-10T11:38:21Z</time>
      </trkpt>
      <trkpt lat="45.66665" lon="6.24211">
        <ele>1397.268921</ele>
        <time>2011-09-10T11:38:26Z</time>
      </trkpt>
      <trkpt lat="45.66668" lon="6.2421">
        <ele>1397.5448</ele>
        <time>2011-09-10T11:38:31Z</time>
      </trkpt>
      <trkpt lat="45.66668" lon="6.2421">
        <ele>1397.5448</ele>
        <time>2011-09-10T11:38:36Z</time>
      </trkpt>
      <trkpt lat="45.66667" lon="6.2421">
        <ele>1397.688721</ele>
        <time>2011-09-10T11:38:41Z</time>
      </trkpt>
      <trkpt lat="45.66667" lon="6.2421">
        <ele>1397.73999</ele>
        <time>2011-09-10T11:38:46Z</time>
      </trkpt>
      <trkpt lat="45.66666" lon="6.2421">
        <ele>1397.748657</ele>
        <time>2011-09-10T11:38:51Z</time>
      </trkpt>
      <trkpt lat="45.66666" lon="6.2421">
        <ele>1397.799683</ele>
        <time>2011-09-10T11:38:56Z</time>
      </trkpt>
      <trkpt lat="45.66666" lon="6.24209">
        <ele>1397.85083</ele>
        <time>2011-09-10T11:39:01Z</time>
      </trkpt>
      <trkpt lat="45.66666" lon="6.2421">
        <ele>1397.799683</ele>
        <time>2011-09-10T11:39:06Z</time>
      </trkpt>
      <trkpt lat="45.66666" lon="6.2421">
        <ele>1397.799683</ele>
        <time>2011-09-10T11:39:11Z</time>
      </trkpt>
      <trkpt lat="45.66666" lon="6.2421">
        <ele>1397.748657</ele>
        <time>2011-09-10T11:39:16Z</time>
      </trkpt>
      <trkpt lat="45.66666" lon="6.2421">
        <ele>1397.82019</ele>
        <time>2011-09-10T11:39:21Z</time>
      </trkpt>
      <trkpt lat="45.66666" lon="6.24209">
        <ele>1397.871216</ele>
        <time>2011-09-10T11:39:26Z</time>
      </trkpt>
      <trkpt lat="45.66666" lon="6.24209">
        <ele>1397.942505</ele>
        <time>2011-09-10T11:39:31Z</time>
      </trkpt>
      <trkpt lat="45.66666" lon="6.24209">
        <ele>1397.891602</ele>
        <time>2011-09-10T11:39:36Z</time>
      </trkpt>
      <trkpt lat="45.66666" lon="6.24209">
        <ele>1397.942505</ele>
        <time>2011-09-10T11:39:41Z</time>
      </trkpt>
      <trkpt lat="45.66666" lon="6.24209">
        <ele>1397.942505</ele>
        <time>2011-09-10T11:39:46Z</time>
      </trkpt>
      <trkpt lat="45.66666" lon="6.24209">
        <ele>1397.891602</ele>
        <time>2011-09-10T11:39:51Z</time>
      </trkpt>
      <trkpt lat="45.6667" lon="6.2421">
        <ele>1397.378906</ele>
        <time>2011-09-10T11:39:56Z</time>
      </trkpt>
      <trkpt lat="45.66676" lon="6.2421">
        <ele>1397.662231</ele>
        <time>2011-09-10T11:40:01Z</time>
      </trkpt>
      <trkpt lat="45.66681" lon="6.2421">
        <ele>1398.089844</ele>
        <time>2011-09-10T11:40:06Z</time>
      </trkpt>
      <trkpt lat="45.66686" lon="6.2421">
        <ele>1398.521973</ele>
        <time>2011-09-10T11:40:11Z</time>
      </trkpt>
      <trkpt lat="45.66692" lon="6.2421">
        <ele>1398.843872</ele>
        <time>2011-09-10T11:40:16Z</time>
      </trkpt>
      <trkpt lat="45.66698" lon="6.24211">
        <ele>1399.013794</ele>
        <time>2011-09-10T11:40:21Z</time>
      </trkpt>
      <trkpt lat="45.66703" lon="6.24212">
        <ele>1399.041504</ele>
        <time>2011-09-10T11:40:26Z</time>
      </trkpt>
      <trkpt lat="45.66709" lon="6.24212">
        <ele>1399.283813</ele>
        <time>2011-09-10T11:40:31Z</time>
      </trkpt>
      <trkpt lat="45.66715" lon="6.24213">
        <ele>1399.322632</ele>
        <time>2011-09-10T11:40:36Z</time>
      </trkpt>
      <trkpt lat="45.6672" lon="6.24214">
        <ele>1399.214478</ele>
        <time>2011-09-10T11:40:41Z</time>
      </trkpt>
      <trkpt lat="45.66727" lon="6.24214">
        <ele>1398.610962</ele>
        <time>2011-09-10T11:40:46Z</time>
      </trkpt>
      <trkpt lat="45.66732" lon="6.24212">
        <ele>1398.506104</ele>
        <time>2011-09-10T11:40:51Z</time>
      </trkpt>
      <trkpt lat="45.66737" lon="6.2421">
        <ele>1398.736084</ele>
        <time>2011-09-10T11:40:56Z</time>
      </trkpt>
      <trkpt lat="45.66741" lon="6.24209">
        <ele>1398.489746</ele>
        <time>2011-09-10T11:41:01Z</time>
      </trkpt>
      <trkpt lat="45.66747" lon="6.2421">
        <ele>1397.752319</ele>
        <time>2011-09-10T11:41:06Z</time>
      </trkpt>
      <trkpt lat="45.66754" lon="6.2421">
        <ele>1396.890503</ele>
        <time>2011-09-10T11:41:11Z</time>
      </trkpt>
      <trkpt lat="45.6676" lon="6.24209">
        <ele>1396.607544</ele>
        <time>2011-09-10T11:41:16Z</time>
      </trkpt>
      <trkpt lat="45.66765" lon="6.24204">
        <ele>1396.966919</ele>
        <time>2011-09-10T11:41:21Z</time>
      </trkpt>
      <trkpt lat="45.66768" lon="6.24197">
        <ele>1397.981812</ele>
        <time>2011-09-10T11:41:26Z</time>
      </trkpt>
      <trkpt lat="45.66771" lon="6.24191">
        <ele>1399.225586</ele>
        <time>2011-09-10T11:41:31Z</time>
      </trkpt>
      <trkpt lat="45.66774" lon="6.24187">
        <ele>1399.423828</ele>
        <time>2011-09-10T11:41:36Z</time>
      </trkpt>
      <trkpt lat="45.66779" lon="6.24185">
        <ele>1398.634033</ele>
        <time>2011-09-10T11:41:41Z</time>
      </trkpt>
      <trkpt lat="45.66789" lon="6.24187">
        <ele>1395.543701</ele>
        <time>2011-09-10T11:41:46Z</time>
      </trkpt>
      <trkpt lat="45.66796" lon="6.24192">
        <ele>1392.448608</ele>
        <time>2011-09-10T11:41:51Z</time>
      </trkpt>
      <trkpt lat="45.668" lon="6.24198">
        <ele>1390.027954</ele>
        <time>2011-09-10T11:41:56Z</time>
      </trkpt>
      <trkpt lat="45.66804" lon="6.242">
        <ele>1388.618652</ele>
        <time>2011-09-10T11:42:01Z</time>
      </trkpt>
      <trkpt lat="45.66803" lon="6.242">
        <ele>1388.858765</ele>
        <time>2011-09-10T11:42:06Z</time>
      </trkpt>
      <trkpt lat="45.66803" lon="6.242">
        <ele>1388.649658</ele>
        <time>2011-09-10T11:42:11Z</time>
      </trkpt>
      <trkpt lat="45.66805" lon="6.24199">
        <ele>1388.443359</ele>
        <time>2011-09-10T11:42:16Z</time>
      </trkpt>
      <trkpt lat="45.66811" lon="6.24197">
        <ele>1389.055176</ele>
        <time>2011-09-10T11:42:21Z</time>
      </trkpt>
      <trkpt lat="45.66816" lon="6.24195">
        <ele>1390.749023</ele>
        <time>2011-09-10T11:42:26Z</time>
      </trkpt>
      <trkpt lat="45.6682" lon="6.24196">
        <ele>1391.322632</ele>
        <time>2011-09-10T11:42:31Z</time>
      </trkpt>
      <trkpt lat="45.66823" lon="6.24198">
        <ele>1391.857178</ele>
        <time>2011-09-10T11:42:36Z</time>
      </trkpt>
      <trkpt lat="45.66824" lon="6.24199">
        <ele>1391.852905</ele>
        <time>2011-09-10T11:42:41Z</time>
      </trkpt>
      <trkpt lat="45.66826" lon="6.24203">
        <ele>1391.244873</ele>
        <time>2011-09-10T11:42:46Z</time>
      </trkpt>
      <trkpt lat="45.66826" lon="6.24209">
        <ele>1389.540527</ele>
        <time>2011-09-10T11:42:51Z</time>
      </trkpt>
      <trkpt lat="45.66826" lon="6.24218">
        <ele>1387.414429</ele>
        <time>2011-09-10T11:42:56Z</time>
      </trkpt>
      <trkpt lat="45.66824" lon="6.24226">
        <ele>1385.582886</ele>
        <time>2011-09-10T11:43:01Z</time>
      </trkpt>
      <trkpt lat="45.66822" lon="6.24231">
        <ele>1385.984375</ele>
        <time>2011-09-10T11:43:06Z</time>
      </trkpt>
      <trkpt lat="45.66819" lon="6.24234">
        <ele>1386.091675</ele>
        <time>2011-09-10T11:43:11Z</time>
      </trkpt>
      <trkpt lat="45.66815" lon="6.24238">
        <ele>1386.085205</ele>
        <time>2011-09-10T11:43:16Z</time>
      </trkpt>
      <trkpt lat="45.66811" lon="6.24242">
        <ele>1386.187256</ele>
        <time>2011-09-10T11:43:21Z</time>
      </trkpt>
      <trkpt lat="45.66806" lon="6.24246">
        <ele>1386.095215</ele>
        <time>2011-09-10T11:43:26Z</time>
      </trkpt>
      <trkpt lat="45.66804" lon="6.24251">
        <ele>1386.937256</ele>
        <time>2011-09-10T11:43:31Z</time>
      </trkpt>
      <trkpt lat="45.668" lon="6.24255">
        <ele>1387.267456</ele>
        <time>2011-09-10T11:43:36Z</time>
      </trkpt>
      <trkpt lat="45.66794" lon="6.24256">
        <ele>1386.710205</ele>
        <time>2011-09-10T11:43:41Z</time>
      </trkpt>
      <trkpt lat="45.6679" lon="6.24258">
        <ele>1386.205933</ele>
        <time>2011-09-10T11:43:46Z</time>
      </trkpt>
      <trkpt lat="45.66786" lon="6.24262">
        <ele>1385.517334</ele>
        <time>2011-09-10T11:43:51Z</time>
      </trkpt>
      <trkpt lat="45.66783" lon="6.2427">
        <ele>1384.581543</ele>
        <time>2011-09-10T11:43:56Z</time>
      </trkpt>
      <trkpt lat="45.66781" lon="6.24276">
        <ele>1383.270752</ele>
        <time>2011-09-10T11:44:01Z</time>
      </trkpt>
      <trkpt lat="45.66777" lon="6.24282">
        <ele>1381.344971</ele>
        <time>2011-09-10T11:44:06Z</time>
      </trkpt>
      <trkpt lat="45.66773" lon="6.24288">
        <ele>1379.939087</ele>
        <time>2011-09-10T11:44:11Z</time>
      </trkpt>
      <trkpt lat="45.66769" lon="6.24294">
        <ele>1380.315308</ele>
        <time>2011-09-10T11:44:16Z</time>
      </trkpt>
      <trkpt lat="45.66767" lon="6.24302">
        <ele>1382.144653</ele>
        <time>2011-09-10T11:44:21Z</time>
      </trkpt>
      <trkpt lat="45.66764" lon="6.24309">
        <ele>1383.386475</ele>
        <time>2011-09-10T11:44:26Z</time>
      </trkpt>
      <trkpt lat="45.66762" lon="6.24316">
        <ele>1384.931519</ele>
        <time>2011-09-10T11:44:31Z</time>
      </trkpt>
      <trkpt lat="45.66758" lon="6.24322">
        <ele>1385.696655</ele>
        <time>2011-09-10T11:44:36Z</time>
      </trkpt>
      <trkpt lat="45.66753" lon="6.24327">
        <ele>1385.786987</ele>
        <time>2011-09-10T11:44:41Z</time>
      </trkpt>
      <trkpt lat="45.66749" lon="6.24333">
        <ele>1386.742554</ele>
        <time>2011-09-10T11:44:46Z</time>
      </trkpt>
      <trkpt lat="45.66745" lon="6.24339">
        <ele>1387.261963</ele>
        <time>2011-09-10T11:44:51Z</time>
      </trkpt>
      <trkpt lat="45.66743" lon="6.24348">
        <ele>1389.011353</ele>
        <time>2011-09-10T11:44:56Z</time>
      </trkpt>
      <trkpt lat="45.66739" lon="6.24355">
        <ele>1390.310791</ele>
        <time>2011-09-10T11:45:01Z</time>
      </trkpt>
      <trkpt lat="45.6674" lon="6.24361">
        <ele>1392.909668</ele>
        <time>2011-09-10T11:45:06Z</time>
      </trkpt>
      <trkpt lat="45.66745" lon="6.2436">
        <ele>1394.095459</ele>
        <time>2011-09-10T11:45:11Z</time>
      </trkpt>
      <trkpt lat="45.66749" lon="6.24356">
        <ele>1394.405151</ele>
        <time>2011-09-10T11:45:16Z</time>
      </trkpt>
      <trkpt lat="45.66752" lon="6.24353">
        <ele>1394.298584</ele>
        <time>2011-09-10T11:45:21Z</time>
      </trkpt>
      <trkpt lat="45.66755" lon="6.2435">
        <ele>1394.343018</ele>
        <time>2011-09-10T11:45:26Z</time>
      </trkpt>
      <trkpt lat="45.66759" lon="6.24345">
        <ele>1393.924561</ele>
        <time>2011-09-10T11:45:31Z</time>
      </trkpt>
      <trkpt lat="45.66761" lon="6.24342">
        <ele>1393.72583</ele>
        <time>2011-09-10T11:45:36Z</time>
      </trkpt>
      <trkpt lat="45.66764" lon="6.24339">
        <ele>1393.717407</ele>
        <time>2011-09-10T11:45:41Z</time>
      </trkpt>
      <trkpt lat="45.66765" lon="6.24338">
        <ele>1393.579956</ele>
        <time>2011-09-10T11:45:46Z</time>
      </trkpt>
      <trkpt lat="45.6677" lon="6.24336">
        <ele>1394.718628</ele>
        <time>2011-09-10T11:45:51Z</time>
      </trkpt>
      <trkpt lat="45.66774" lon="6.24335">
        <ele>1395.942505</ele>
        <time>2011-09-10T11:45:56Z</time>
      </trkpt>
      <trkpt lat="45.66778" lon="6.24335">
        <ele>1397.072998</ele>
        <time>2011-09-10T11:46:01Z</time>
      </trkpt>
      <trkpt lat="45.66781" lon="6.24334">
        <ele>1397.873535</ele>
        <time>2011-09-10T11:46:06Z</time>
      </trkpt>
      <trkpt lat="45.66784" lon="6.24334">
        <ele>1399.169678</ele>
        <time>2011-09-10T11:46:11Z</time>
      </trkpt>
      <trkpt lat="45.66788" lon="6.24336">
        <ele>1401.036621</ele>
        <time>2011-09-10T11:46:16Z</time>
      </trkpt>
      <trkpt lat="45.66792" lon="6.2434">
        <ele>1403.748291</ele>
        <time>2011-09-10T11:46:21Z</time>
      </trkpt>
      <trkpt lat="45.66794" lon="6.24345">
        <ele>1406.08252</ele>
        <time>2011-09-10T11:46:26Z</time>
      </trkpt>
      <trkpt lat="45.66798" lon="6.24351">
        <ele>1408.980469</ele>
        <time>2011-09-10T11:46:31Z</time>
      </trkpt>
      <trkpt lat="45.66801" lon="6.24358">
        <ele>1411.766235</ele>
        <time>2011-09-10T11:46:36Z</time>
      </trkpt>
      <trkpt lat="45.66803" lon="6.24366">
        <ele>1414.084351</ele>
        <time>2011-09-10T11:46:41Z</time>
      </trkpt>
      <trkpt lat="45.66803" lon="6.24373">
        <ele>1415.761963</ele>
        <time>2011-09-10T11:46:46Z</time>
      </trkpt>
      <trkpt lat="45.66803" lon="6.24381">
        <ele>1417.53479</ele>
        <time>2011-09-10T11:46:51Z</time>
      </trkpt>
      <trkpt lat="45.66801" lon="6.24389">
        <ele>1418.889404</ele>
        <time>2011-09-10T11:46:56Z</time>
      </trkpt>
      <trkpt lat="45.66797" lon="6.24395">
        <ele>1419.266602</ele>
        <time>2011-09-10T11:47:01Z</time>
      </trkpt>
      <trkpt lat="45.6679" lon="6.24399">
        <ele>1418.73999</ele>
        <time>2011-09-10T11:47:06Z</time>
      </trkpt>
      <trkpt lat="45.66784" lon="6.24404">
        <ele>1418.529663</ele>
        <time>2011-09-10T11:47:11Z</time>
      </trkpt>
      <trkpt lat="45.6678" lon="6.24407">
        <ele>1418.478394</ele>
        <time>2011-09-10T11:47:16Z</time>
      </trkpt>
      <trkpt lat="45.66773" lon="6.24409">
        <ele>1417.414795</ele>
        <time>2011-09-10T11:47:21Z</time>
      </trkpt>
      <trkpt lat="45.66765" lon="6.2441">
        <ele>1415.86731</ele>
        <time>2011-09-10T11:47:26Z</time>
      </trkpt>
      <trkpt lat="45.66756" lon="6.24411">
        <ele>1414.5</ele>
        <time>2011-09-10T11:47:31Z</time>
      </trkpt>
      <trkpt lat="45.66748" lon="6.24417">
        <ele>1414.943604</ele>
        <time>2011-09-10T11:47:36Z</time>
      </trkpt>
      <trkpt lat="45.66744" lon="6.24417">
        <ele>1414.156738</ele>
        <time>2011-09-10T11:47:41Z</time>
      </trkpt>
      <trkpt lat="45.66738" lon="6.2442">
        <ele>1414.252441</ele>
        <time>2011-09-10T11:47:46Z</time>
      </trkpt>
      <trkpt lat="45.66735" lon="6.24422">
        <ele>1414.530273</ele>
        <time>2011-09-10T11:47:51Z</time>
      </trkpt>
      <trkpt lat="45.66729" lon="6.24425">
        <ele>1414.48877</ele>
        <time>2011-09-10T11:47:56Z</time>
      </trkpt>
      <trkpt lat="45.66724" lon="6.24429">
        <ele>1414.928589</ele>
        <time>2011-09-10T11:48:01Z</time>
      </trkpt>
      <trkpt lat="45.6672" lon="6.24432">
        <ele>1415.314087</ele>
        <time>2011-09-10T11:48:06Z</time>
      </trkpt>
      <trkpt lat="45.66715" lon="6.24434">
        <ele>1415.192993</ele>
        <time>2011-09-10T11:48:11Z</time>
      </trkpt>
      <trkpt lat="45.6671" lon="6.24439">
        <ele>1416.110718</ele>
        <time>2011-09-10T11:48:16Z</time>
      </trkpt>
      <trkpt lat="45.66705" lon="6.24444">
        <ele>1416.870728</ele>
        <time>2011-09-10T11:48:21Z</time>
      </trkpt>
      <trkpt lat="45.66698" lon="6.24447">
        <ele>1416.223145</ele>
        <time>2011-09-10T11:48:26Z</time>
      </trkpt>
      <trkpt lat="45.66691" lon="6.24449">
        <ele>1415.428101</ele>
        <time>2011-09-10T11:48:31Z</time>
      </trkpt>
      <trkpt lat="45.66683" lon="6.2445">
        <ele>1414.325562</ele>
        <time>2011-09-10T11:48:36Z</time>
      </trkpt>
      <trkpt lat="45.66678" lon="6.24453">
        <ele>1414.129028</ele>
        <time>2011-09-10T11:48:41Z</time>
      </trkpt>
      <trkpt lat="45.66673" lon="6.24456">
        <ele>1414.224609</ele>
        <time>2011-09-10T11:48:46Z</time>
      </trkpt>
      <trkpt lat="45.66666" lon="6.24458">
        <ele>1413.895386</ele>
        <time>2011-09-10T11:48:51Z</time>
      </trkpt>
      <trkpt lat="45.6666" lon="6.24461">
        <ele>1413.741577</ele>
        <time>2011-09-10T11:48:56Z</time>
      </trkpt>
      <trkpt lat="45.66655" lon="6.24464">
        <ele>1413.786011</ele>
        <time>2011-09-10T11:49:01Z</time>
      </trkpt>
      <trkpt lat="45.66649" lon="6.24469">
        <ele>1414.319092</ele>
        <time>2011-09-10T11:49:06Z</time>
      </trkpt>
      <trkpt lat="45.66643" lon="6.24473">
        <ele>1414.880493</ele>
        <time>2011-09-10T11:49:11Z</time>
      </trkpt>
      <trkpt lat="45.66638" lon="6.24477">
        <ele>1415.537231</ele>
        <time>2011-09-10T11:49:16Z</time>
      </trkpt>
      <trkpt lat="45.66632" lon="6.24481">
        <ele>1415.931641</ele>
        <time>2011-09-10T11:49:21Z</time>
      </trkpt>
      <trkpt lat="45.66629" lon="6.24484">
        <ele>1416.37561</ele>
        <time>2011-09-10T11:49:26Z</time>
      </trkpt>
      <trkpt lat="45.66629" lon="6.24484">
        <ele>1416.43689</ele>
        <time>2011-09-10T11:49:31Z</time>
      </trkpt>
      <trkpt lat="45.66629" lon="6.24484">
        <ele>1416.310181</ele>
        <time>2011-09-10T11:49:36Z</time>
      </trkpt>
      <trkpt lat="45.66626" lon="6.24485">
        <ele>1416.395386</ele>
        <time>2011-09-10T11:49:41Z</time>
      </trkpt>
      <trkpt lat="45.66621" lon="6.24489">
        <ele>1416.817017</ele>
        <time>2011-09-10T11:49:46Z</time>
      </trkpt>
      <trkpt lat="45.66621" lon="6.24496">
        <ele>1419.584351</ele>
        <time>2011-09-10T11:49:51Z</time>
      </trkpt>
      <trkpt lat="45.66626" lon="6.24498">
        <ele>1421.501587</ele>
        <time>2011-09-10T11:49:56Z</time>
      </trkpt>
      <trkpt lat="45.66631" lon="6.24498">
        <ele>1422.254517</ele>
        <time>2011-09-10T11:50:01Z</time>
      </trkpt>
      <trkpt lat="45.66636" lon="6.24497">
        <ele>1422.81897</ele>
        <time>2011-09-10T11:50:06Z</time>
      </trkpt>
      <trkpt lat="45.6664" lon="6.24495">
        <ele>1422.860718</ele>
        <time>2011-09-10T11:50:11Z</time>
      </trkpt>
      <trkpt lat="45.66644" lon="6.24493">
        <ele>1423.306396</ele>
        <time>2011-09-10T11:50:16Z</time>
      </trkpt>
      <trkpt lat="45.66649" lon="6.24492">
        <ele>1423.768066</ele>
        <time>2011-09-10T11:50:21Z</time>
      </trkpt>
      <trkpt lat="45.66654" lon="6.24491">
        <ele>1424.34668</ele>
        <time>2011-09-10T11:50:26Z</time>
      </trkpt>
      <trkpt lat="45.66659" lon="6.2449">
        <ele>1425.130737</ele>
        <time>2011-09-10T11:50:31Z</time>
      </trkpt>
      <trkpt lat="45.66663" lon="6.2449">
        <ele>1425.921265</ele>
        <time>2011-09-10T11:50:36Z</time>
      </trkpt>
      <trkpt lat="45.66668" lon="6.2449">
        <ele>1426.697144</ele>
        <time>2011-09-10T11:50:41Z</time>
      </trkpt>
      <trkpt lat="45.66672" lon="6.24489">
        <ele>1426.966064</ele>
        <time>2011-09-10T11:50:46Z</time>
      </trkpt>
      <trkpt lat="45.66678" lon="6.24488">
        <ele>1427.73291</ele>
        <time>2011-09-10T11:50:51Z</time>
      </trkpt>
      <trkpt lat="45.66683" lon="6.24486">
        <ele>1428.143433</ele>
        <time>2011-09-10T11:50:56Z</time>
      </trkpt>
      <trkpt lat="45.66687" lon="6.24486">
        <ele>1428.592407</ele>
        <time>2011-09-10T11:51:01Z</time>
      </trkpt>
      <trkpt lat="45.66692" lon="6.24484">
        <ele>1428.78894</ele>
        <time>2011-09-10T11:51:06Z</time>
      </trkpt>
      <trkpt lat="45.66696" lon="6.24483">
        <ele>1429.381836</ele>
        <time>2011-09-10T11:51:11Z</time>
      </trkpt>
      <trkpt lat="45.66699" lon="6.24481">
        <ele>1429.150024</ele>
        <time>2011-09-10T11:51:16Z</time>
      </trkpt>
      <trkpt lat="45.66704" lon="6.2448">
        <ele>1429.566162</ele>
        <time>2011-09-10T11:51:21Z</time>
      </trkpt>
      <trkpt lat="45.66708" lon="6.24479">
        <ele>1430.063599</ele>
        <time>2011-09-10T11:51:26Z</time>
      </trkpt>
      <trkpt lat="45.66713" lon="6.24481">
        <ele>1431.332275</ele>
        <time>2011-09-10T11:51:31Z</time>
      </trkpt>
      <trkpt lat="45.66717" lon="6.2448">
        <ele>1431.805054</ele>
        <time>2011-09-10T11:51:36Z</time>
      </trkpt>
      <trkpt lat="45.66722" lon="6.24481">
        <ele>1432.930054</ele>
        <time>2011-09-10T11:51:41Z</time>
      </trkpt>
      <trkpt lat="45.66726" lon="6.24481">
        <ele>1433.506226</ele>
        <time>2011-09-10T11:51:46Z</time>
      </trkpt>
      <trkpt lat="45.66731" lon="6.24481">
        <ele>1434.251465</ele>
        <time>2011-09-10T11:51:51Z</time>
      </trkpt>
      <trkpt lat="45.66734" lon="6.24481">
        <ele>1434.718384</ele>
        <time>2011-09-10T11:51:56Z</time>
      </trkpt>
      <trkpt lat="45.66738" lon="6.2448">
        <ele>1434.956177</ele>
        <time>2011-09-10T11:52:01Z</time>
      </trkpt>
      <trkpt lat="45.66742" lon="6.2448">
        <ele>1435.673706</ele>
        <time>2011-09-10T11:52:06Z</time>
      </trkpt>
      <trkpt lat="45.66745" lon="6.2448">
        <ele>1435.992188</ele>
        <time>2011-09-10T11:52:11Z</time>
      </trkpt>
      <trkpt lat="45.66749" lon="6.2448">
        <ele>1436.515137</ele>
        <time>2011-09-10T11:52:16Z</time>
      </trkpt>
      <trkpt lat="45.66753" lon="6.24481">
        <ele>1437.714966</ele>
        <time>2011-09-10T11:52:21Z</time>
      </trkpt>
      <trkpt lat="45.66758" lon="6.24482">
        <ele>1438.852539</ele>
        <time>2011-09-10T11:52:26Z</time>
      </trkpt>
      <trkpt lat="45.66761" lon="6.24482">
        <ele>1439.625</ele>
        <time>2011-09-10T11:52:31Z</time>
      </trkpt>
      <trkpt lat="45.66765" lon="6.24484">
        <ele>1441.125</ele>
        <time>2011-09-10T11:52:36Z</time>
      </trkpt>
      <trkpt lat="45.66769" lon="6.24485">
        <ele>1442.410034</ele>
        <time>2011-09-10T11:52:41Z</time>
      </trkpt>
      <trkpt lat="45.66773" lon="6.24485">
        <ele>1443.140015</ele>
        <time>2011-09-10T11:52:46Z</time>
      </trkpt>
      <trkpt lat="45.66777" lon="6.24485">
        <ele>1443.762451</ele>
        <time>2011-09-10T11:52:51Z</time>
      </trkpt>
      <trkpt lat="45.66781" lon="6.24484">
        <ele>1444.19751</ele>
        <time>2011-09-10T11:52:56Z</time>
      </trkpt>
      <trkpt lat="45.66785" lon="6.24482">
        <ele>1444.137451</ele>
        <time>2011-09-10T11:53:01Z</time>
      </trkpt>
      <trkpt lat="45.6679" lon="6.24479">
        <ele>1443.996216</ele>
        <time>2011-09-10T11:53:06Z</time>
      </trkpt>
      <trkpt lat="45.66794" lon="6.2448">
        <ele>1445</ele>
        <time>2011-09-10T11:53:11Z</time>
      </trkpt>
      <trkpt lat="45.66798" lon="6.2448">
        <ele>1445.717529</ele>
        <time>2011-09-10T11:53:16Z</time>
      </trkpt>
      <trkpt lat="45.66802" lon="6.2448">
        <ele>1446.698608</ele>
        <time>2011-09-10T11:53:21Z</time>
      </trkpt>
      <trkpt lat="45.66806" lon="6.24481">
        <ele>1447.597046</ele>
        <time>2011-09-10T11:53:26Z</time>
      </trkpt>
      <trkpt lat="45.6681" lon="6.2448">
        <ele>1448.021851</ele>
        <time>2011-09-10T11:53:31Z</time>
      </trkpt>
      <trkpt lat="45.66813" lon="6.2448">
        <ele>1448.843262</ele>
        <time>2011-09-10T11:53:36Z</time>
      </trkpt>
      <trkpt lat="45.66818" lon="6.24482">
        <ele>1450.398193</ele>
        <time>2011-09-10T11:53:41Z</time>
      </trkpt>
      <trkpt lat="45.66823" lon="6.24482">
        <ele>1451.507446</ele>
        <time>2011-09-10T11:53:46Z</time>
      </trkpt>
      <trkpt lat="45.66828" lon="6.2448">
        <ele>1451.925293</ele>
        <time>2011-09-10T11:53:51Z</time>
      </trkpt>
      <trkpt lat="45.66832" lon="6.24479">
        <ele>1452.333252</ele>
        <time>2011-09-10T11:53:56Z</time>
      </trkpt>
      <trkpt lat="45.66836" lon="6.24478">
        <ele>1452.796753</ele>
        <time>2011-09-10T11:54:01Z</time>
      </trkpt>
      <trkpt lat="45.6684" lon="6.24477">
        <ele>1453.07959</ele>
        <time>2011-09-10T11:54:06Z</time>
      </trkpt>
      <trkpt lat="45.66845" lon="6.24475">
        <ele>1453.493652</ele>
        <time>2011-09-10T11:54:11Z</time>
      </trkpt>
      <trkpt lat="45.66849" lon="6.24474">
        <ele>1453.55127</ele>
        <time>2011-09-10T11:54:16Z</time>
      </trkpt>
      <trkpt lat="45.66852" lon="6.24473">
        <ele>1453.762573</ele>
        <time>2011-09-10T11:54:21Z</time>
      </trkpt>
      <trkpt lat="45.66856" lon="6.24473">
        <ele>1454.38562</ele>
        <time>2011-09-10T11:54:26Z</time>
      </trkpt>
      <trkpt lat="45.66861" lon="6.24474">
        <ele>1455.399048</ele>
        <time>2011-09-10T11:54:31Z</time>
      </trkpt>
      <trkpt lat="45.66865" lon="6.24474">
        <ele>1455.994141</ele>
        <time>2011-09-10T11:54:36Z</time>
      </trkpt>
      <trkpt lat="45.66869" lon="6.24473">
        <ele>1455.952515</ele>
        <time>2011-09-10T11:54:41Z</time>
      </trkpt>
      <trkpt lat="45.66872" lon="6.24472">
        <ele>1456.241333</ele>
        <time>2011-09-10T11:54:46Z</time>
      </trkpt>
      <trkpt lat="45.66877" lon="6.24473">
        <ele>1457.272339</ele>
        <time>2011-09-10T11:54:51Z</time>
      </trkpt>
      <trkpt lat="45.66882" lon="6.24474">
        <ele>1458.239868</ele>
        <time>2011-09-10T11:54:56Z</time>
      </trkpt>
      <trkpt lat="45.66887" lon="6.24476">
        <ele>1459.575317</ele>
        <time>2011-09-10T11:55:01Z</time>
      </trkpt>
      <trkpt lat="45.66892" lon="6.24475">
        <ele>1460.421143</ele>
        <time>2011-09-10T11:55:06Z</time>
      </trkpt>
      <trkpt lat="45.66895" lon="6.24476">
        <ele>1461.405029</ele>
        <time>2011-09-10T11:55:11Z</time>
      </trkpt>
      <trkpt lat="45.66901" lon="6.24478">
        <ele>1463.383911</ele>
        <time>2011-09-10T11:55:16Z</time>
      </trkpt>
      <trkpt lat="45.66906" lon="6.24479">
        <ele>1464.851563</ele>
        <time>2011-09-10T11:55:21Z</time>
      </trkpt>
      <trkpt lat="45.6691" lon="6.2448">
        <ele>1466.116455</ele>
        <time>2011-09-10T11:55:26Z</time>
      </trkpt>
      <trkpt lat="45.66914" lon="6.24481">
        <ele>1467.214233</ele>
        <time>2011-09-10T11:55:31Z</time>
      </trkpt>
      <trkpt lat="45.66918" lon="6.24481">
        <ele>1467.983521</ele>
        <time>2011-09-10T11:55:36Z</time>
      </trkpt>
      <trkpt lat="45.66922" lon="6.2448">
        <ele>1468.323608</ele>
        <time>2011-09-10T11:55:41Z</time>
      </trkpt>
      <trkpt lat="45.66926" lon="6.24481">
        <ele>1469.475952</ele>
        <time>2011-09-10T11:55:46Z</time>
      </trkpt>
      <trkpt lat="45.6693" lon="6.24479">
        <ele>1469.880493</ele>
        <time>2011-09-10T11:55:51Z</time>
      </trkpt>
      <trkpt lat="45.66934" lon="6.24477">
        <ele>1469.773804</ele>
        <time>2011-09-10T11:55:56Z</time>
      </trkpt>
      <trkpt lat="45.66937" lon="6.24475">
        <ele>1470.022949</ele>
        <time>2011-09-10T11:56:01Z</time>
      </trkpt>
      <trkpt lat="45.66941" lon="6.24474">
        <ele>1470.878662</ele>
        <time>2011-09-10T11:56:06Z</time>
      </trkpt>
      <trkpt lat="45.66944" lon="6.24474">
        <ele>1471.739136</ele>
        <time>2011-09-10T11:56:11Z</time>
      </trkpt>
      <trkpt lat="45.66948" lon="6.24472">
        <ele>1472.561279</ele>
        <time>2011-09-10T11:56:16Z</time>
      </trkpt>
      <trkpt lat="45.66953" lon="6.2447">
        <ele>1473.121094</ele>
        <time>2011-09-10T11:56:21Z</time>
      </trkpt>
      <trkpt lat="45.66955" lon="6.24468">
        <ele>1473.203491</ele>
        <time>2011-09-10T11:56:26Z</time>
      </trkpt>
      <trkpt lat="45.66959" lon="6.24466">
        <ele>1473.770996</ele>
        <time>2011-09-10T11:56:31Z</time>
      </trkpt>
      <trkpt lat="45.66963" lon="6.24465">
        <ele>1474.750122</ele>
        <time>2011-09-10T11:56:36Z</time>
      </trkpt>
      <trkpt lat="45.66968" lon="6.24466">
        <ele>1476.361572</ele>
        <time>2011-09-10T11:56:41Z</time>
      </trkpt>
      <trkpt lat="45.66972" lon="6.24466">
        <ele>1477.584595</ele>
        <time>2011-09-10T11:56:46Z</time>
      </trkpt>
      <trkpt lat="45.66976" lon="6.24466">
        <ele>1478.936157</ele>
        <time>2011-09-10T11:56:51Z</time>
      </trkpt>
      <trkpt lat="45.6698" lon="6.24465">
        <ele>1479.876465</ele>
        <time>2011-09-10T11:56:56Z</time>
      </trkpt>
      <trkpt lat="45.66981" lon="6.24461">
        <ele>1479.154541</ele>
        <time>2011-09-10T11:57:01Z</time>
      </trkpt>
      <trkpt lat="45.66985" lon="6.24461">
        <ele>1480.180054</ele>
        <time>2011-09-10T11:57:06Z</time>
      </trkpt>
      <trkpt lat="45.6699" lon="6.2446">
        <ele>1480.805176</ele>
        <time>2011-09-10T11:57:11Z</time>
      </trkpt>
      <trkpt lat="45.66995" lon="6.24458">
        <ele>1481.580444</ele>
        <time>2011-09-10T11:57:16Z</time>
      </trkpt>
      <trkpt lat="45.66999" lon="6.24456">
        <ele>1482.005615</ele>
        <time>2011-09-10T11:57:21Z</time>
      </trkpt>
      <trkpt lat="45.66999" lon="6.24451">
        <ele>1480.796387</ele>
        <time>2011-09-10T11:57:26Z</time>
      </trkpt>
      <trkpt lat="45.67001" lon="6.24447">
        <ele>1480.182983</ele>
        <time>2011-09-10T11:57:31Z</time>
      </trkpt>
      <trkpt lat="45.67002" lon="6.24444">
        <ele>1479.742798</ele>
        <time>2011-09-10T11:57:36Z</time>
      </trkpt>
      <trkpt lat="45.67005" lon="6.24444">
        <ele>1480.523804</ele>
        <time>2011-09-10T11:57:41Z</time>
      </trkpt>
      <trkpt lat="45.67008" lon="6.24445">
        <ele>1481.644897</ele>
        <time>2011-09-10T11:57:46Z</time>
      </trkpt>
      <trkpt lat="45.6701" lon="6.24444">
        <ele>1481.858276</ele>
        <time>2011-09-10T11:57:51Z</time>
      </trkpt>
      <trkpt lat="45.67014" lon="6.24443">
        <ele>1482.588989</ele>
        <time>2011-09-10T11:57:56Z</time>
      </trkpt>
      <trkpt lat="45.67018" lon="6.2444">
        <ele>1482.988159</ele>
        <time>2011-09-10T11:58:01Z</time>
      </trkpt>
      <trkpt lat="45.67022" lon="6.24437">
        <ele>1483.299561</ele>
        <time>2011-09-10T11:58:06Z</time>
      </trkpt>
      <trkpt lat="45.67027" lon="6.24435">
        <ele>1484.499634</ele>
        <time>2011-09-10T11:58:11Z</time>
      </trkpt>
      <trkpt lat="45.67032" lon="6.24432">
        <ele>1485.645752</ele>
        <time>2011-09-10T11:58:16Z</time>
      </trkpt>
      <trkpt lat="45.67037" lon="6.24428">
        <ele>1486.375</ele>
        <time>2011-09-10T11:58:21Z</time>
      </trkpt>
      <trkpt lat="45.67039" lon="6.24424">
        <ele>1486.450439</ele>
        <time>2011-09-10T11:58:26Z</time>
      </trkpt>
      <trkpt lat="45.67043" lon="6.24422">
        <ele>1487.471436</ele>
        <time>2011-09-10T11:58:31Z</time>
      </trkpt>
      <trkpt lat="45.67048" lon="6.2442">
        <ele>1488.772827</ele>
        <time>2011-09-10T11:58:36Z</time>
      </trkpt>
      <trkpt lat="45.67052" lon="6.24418">
        <ele>1489.913574</ele>
        <time>2011-09-10T11:58:41Z</time>
      </trkpt>
      <trkpt lat="45.67055" lon="6.24415">
        <ele>1490.378662</ele>
        <time>2011-09-10T11:58:46Z</time>
      </trkpt>
      <trkpt lat="45.67057" lon="6.24411">
        <ele>1490.429077</ele>
        <time>2011-09-10T11:58:51Z</time>
      </trkpt>
      <trkpt lat="45.67059" lon="6.24407">
        <ele>1490.357178</ele>
        <time>2011-09-10T11:58:56Z</time>
      </trkpt>
      <trkpt lat="45.67061" lon="6.24403">
        <ele>1490.354126</ele>
        <time>2011-09-10T11:59:01Z</time>
      </trkpt>
      <trkpt lat="45.67064" lon="6.244">
        <ele>1491.243408</ele>
        <time>2011-09-10T11:59:06Z</time>
      </trkpt>
      <trkpt lat="45.6707" lon="6.24398">
        <ele>1493.183838</ele>
        <time>2011-09-10T11:59:11Z</time>
      </trkpt>
      <trkpt lat="45.67074" lon="6.24395">
        <ele>1493.603027</ele>
        <time>2011-09-10T11:59:16Z</time>
      </trkpt>
      <trkpt lat="45.67078" lon="6.24392">
        <ele>1493.992798</ele>
        <time>2011-09-10T11:59:21Z</time>
      </trkpt>
      <trkpt lat="45.6708" lon="6.24387">
        <ele>1493.77771</ele>
        <time>2011-09-10T11:59:26Z</time>
      </trkpt>
      <trkpt lat="45.67084" lon="6.24384">
        <ele>1494.106079</ele>
        <time>2011-09-10T11:59:31Z</time>
      </trkpt>
      <trkpt lat="45.67088" lon="6.24381">
        <ele>1494.431641</ele>
        <time>2011-09-10T11:59:36Z</time>
      </trkpt>
      <trkpt lat="45.67091" lon="6.24378">
        <ele>1494.665771</ele>
        <time>2011-09-10T11:59:41Z</time>
      </trkpt>
      <trkpt lat="45.67097" lon="6.24375">
        <ele>1495.372803</ele>
        <time>2011-09-10T11:59:46Z</time>
      </trkpt>
      <trkpt lat="45.671" lon="6.24371">
        <ele>1494.823975</ele>
        <time>2011-09-10T11:59:51Z</time>
      </trkpt>
      <trkpt lat="45.67103" lon="6.24367">
        <ele>1494.156372</ele>
        <time>2011-09-10T11:59:56Z</time>
      </trkpt>
      <trkpt lat="45.67106" lon="6.24364">
        <ele>1493.459351</ele>
        <time>2011-09-10T12:00:01Z</time>
      </trkpt>
      <trkpt lat="45.67112" lon="6.24363">
        <ele>1494.250488</ele>
        <time>2011-09-10T12:00:06Z</time>
      </trkpt>
      <trkpt lat="45.67117" lon="6.24367">
        <ele>1496.651978</ele>
        <time>2011-09-10T12:00:11Z</time>
      </trkpt>
      <trkpt lat="45.6712" lon="6.24372">
        <ele>1499.268921</ele>
        <time>2011-09-10T12:00:16Z</time>
      </trkpt>
      <trkpt lat="45.6712" lon="6.24377">
        <ele>1500.718262</ele>
        <time>2011-09-10T12:00:21Z</time>
      </trkpt>
      <trkpt lat="45.67117" lon="6.24381">
        <ele>1501.37439</ele>
        <time>2011-09-10T12:00:26Z</time>
      </trkpt>
      <trkpt lat="45.67116" lon="6.24385">
        <ele>1501.942627</ele>
        <time>2011-09-10T12:00:31Z</time>
      </trkpt>
      <trkpt lat="45.67116" lon="6.24391">
        <ele>1503.129761</ele>
        <time>2011-09-10T12:00:36Z</time>
      </trkpt>
      <trkpt lat="45.67117" lon="6.24397">
        <ele>1504.674805</ele>
        <time>2011-09-10T12:00:41Z</time>
      </trkpt>
      <trkpt lat="45.67116" lon="6.24404">
        <ele>1505.97998</ele>
        <time>2011-09-10T12:00:46Z</time>
      </trkpt>
      <trkpt lat="45.67115" lon="6.24409">
        <ele>1506.822632</ele>
        <time>2011-09-10T12:00:51Z</time>
      </trkpt>
      <trkpt lat="45.67115" lon="6.24416">
        <ele>1508.250977</ele>
        <time>2011-09-10T12:00:56Z</time>
      </trkpt>
      <trkpt lat="45.67114" lon="6.24423">
        <ele>1509.584229</ele>
        <time>2011-09-10T12:01:01Z</time>
      </trkpt>
      <trkpt lat="45.67115" lon="6.2443">
        <ele>1511.165771</ele>
        <time>2011-09-10T12:01:06Z</time>
      </trkpt>
      <trkpt lat="45.67114" lon="6.24435">
        <ele>1511.947021</ele>
        <time>2011-09-10T12:01:11Z</time>
      </trkpt>
      <trkpt lat="45.67112" lon="6.24441">
        <ele>1512.741211</ele>
        <time>2011-09-10T12:01:16Z</time>
      </trkpt>
      <trkpt lat="45.6711" lon="6.24447">
        <ele>1513.553589</ele>
        <time>2011-09-10T12:01:21Z</time>
      </trkpt>
      <trkpt lat="45.67109" lon="6.24453">
        <ele>1514.581299</ele>
        <time>2011-09-10T12:01:26Z</time>
      </trkpt>
      <trkpt lat="45.67107" lon="6.24458">
        <ele>1515.227539</ele>
        <time>2011-09-10T12:01:31Z</time>
      </trkpt>
      <trkpt lat="45.67107" lon="6.24463">
        <ele>1516.636353</ele>
        <time>2011-09-10T12:01:36Z</time>
      </trkpt>
      <trkpt lat="45.67106" lon="6.24468">
        <ele>1517.654785</ele>
        <time>2011-09-10T12:01:41Z</time>
      </trkpt>
      <trkpt lat="45.67102" lon="6.24473">
        <ele>1517.383179</ele>
        <time>2011-09-10T12:01:46Z</time>
      </trkpt>
      <trkpt lat="45.671" lon="6.24479">
        <ele>1518.243042</ele>
        <time>2011-09-10T12:01:51Z</time>
      </trkpt>
      <trkpt lat="45.67095" lon="6.24486">
        <ele>1518.100708</ele>
        <time>2011-09-10T12:01:56Z</time>
      </trkpt>
      <trkpt lat="45.67091" lon="6.24492">
        <ele>1518.165771</ele>
        <time>2011-09-10T12:02:01Z</time>
      </trkpt>
      <trkpt lat="45.67088" lon="6.24497">
        <ele>1518.459473</ele>
        <time>2011-09-10T12:02:06Z</time>
      </trkpt>
      <trkpt lat="45.67087" lon="6.24503">
        <ele>1519.26001</ele>
        <time>2011-09-10T12:02:11Z</time>
      </trkpt>
      <trkpt lat="45.67085" lon="6.24508">
        <ele>1520.219971</ele>
        <time>2011-09-10T12:02:16Z</time>
      </trkpt>
      <trkpt lat="45.67086" lon="6.24515">
        <ele>1522.300049</ele>
        <time>2011-09-10T12:02:21Z</time>
      </trkpt>
      <trkpt lat="45.67088" lon="6.24519">
        <ele>1523.800049</ele>
        <time>2011-09-10T12:02:26Z</time>
      </trkpt>
      <trkpt lat="45.67093" lon="6.24518">
        <ele>1525.420044</ele>
        <time>2011-09-10T12:02:31Z</time>
      </trkpt>
      <trkpt lat="45.67094" lon="6.24512">
        <ele>1523.97998</ele>
        <time>2011-09-10T12:02:36Z</time>
      </trkpt>
      <trkpt lat="45.67096" lon="6.24506">
        <ele>1523.140015</ele>
        <time>2011-09-10T12:02:41Z</time>
      </trkpt>
      <trkpt lat="45.67098" lon="6.24502">
        <ele>1522.780029</ele>
        <time>2011-09-10T12:02:46Z</time>
      </trkpt>
      <trkpt lat="45.67101" lon="6.24498">
        <ele>1523.133057</ele>
        <time>2011-09-10T12:02:51Z</time>
      </trkpt>
      <trkpt lat="45.67106" lon="6.24495">
        <ele>1523.933594</ele>
        <time>2011-09-10T12:02:56Z</time>
      </trkpt>
      <trkpt lat="45.67112" lon="6.24497">
        <ele>1526.236084</ele>
        <time>2011-09-10T12:03:01Z</time>
      </trkpt>
      <trkpt lat="45.67113" lon="6.24502">
        <ele>1527.879761</ele>
        <time>2011-09-10T12:03:06Z</time>
      </trkpt>
      <trkpt lat="45.67111" lon="6.24507">
        <ele>1528.280029</ele>
        <time>2011-09-10T12:03:11Z</time>
      </trkpt>
      <trkpt lat="45.6711" lon="6.24512">
        <ele>1529.5</ele>
        <time>2011-09-10T12:03:16Z</time>
      </trkpt>
      <trkpt lat="45.67109" lon="6.24517">
        <ele>1530.380005</ele>
        <time>2011-09-10T12:03:21Z</time>
      </trkpt>
      <trkpt lat="45.67106" lon="6.24521">
        <ele>1530.699951</ele>
        <time>2011-09-10T12:03:26Z</time>
      </trkpt>
      <trkpt lat="45.67104" lon="6.24526">
        <ele>1531.26001</ele>
        <time>2011-09-10T12:03:31Z</time>
      </trkpt>
      <trkpt lat="45.67103" lon="6.24532">
        <ele>1532.359985</ele>
        <time>2011-09-10T12:03:36Z</time>
      </trkpt>
      <trkpt lat="45.67101" lon="6.24538">
        <ele>1533.180054</ele>
        <time>2011-09-10T12:03:41Z</time>
      </trkpt>
      <trkpt lat="45.67096" lon="6.24544">
        <ele>1533.359985</ele>
        <time>2011-09-10T12:03:46Z</time>
      </trkpt>
      <trkpt lat="45.67093" lon="6.24549">
        <ele>1533.380005</ele>
        <time>2011-09-10T12:03:51Z</time>
      </trkpt>
      <trkpt lat="45.67094" lon="6.24555">
        <ele>1535.300049</ele>
        <time>2011-09-10T12:03:56Z</time>
      </trkpt>
      <trkpt lat="45.67096" lon="6.24556">
        <ele>1536.199951</ele>
        <time>2011-09-10T12:04:01Z</time>
      </trkpt>
      <trkpt lat="45.67098" lon="6.24553">
        <ele>1536.280029</ele>
        <time>2011-09-10T12:04:06Z</time>
      </trkpt>
      <trkpt lat="45.671" lon="6.2455">
        <ele>1536.180054</ele>
        <time>2011-09-10T12:04:11Z</time>
      </trkpt>
      <trkpt lat="45.67104" lon="6.24548">
        <ele>1536.920044</ele>
        <time>2011-09-10T12:04:16Z</time>
      </trkpt>
      <trkpt lat="45.6711" lon="6.24547">
        <ele>1538.619995</ele>
        <time>2011-09-10T12:04:21Z</time>
      </trkpt>
      <trkpt lat="45.67114" lon="6.24545">
        <ele>1539.29248</ele>
        <time>2011-09-10T12:04:26Z</time>
      </trkpt>
      <trkpt lat="45.67116" lon="6.24542">
        <ele>1538.904053</ele>
        <time>2011-09-10T12:04:31Z</time>
      </trkpt>
      <trkpt lat="45.67119" lon="6.24541">
        <ele>1539.21521</ele>
        <time>2011-09-10T12:04:36Z</time>
      </trkpt>
      <trkpt lat="45.67124" lon="6.2454">
        <ele>1540.20874</ele>
        <time>2011-09-10T12:04:41Z</time>
      </trkpt>
      <trkpt lat="45.67129" lon="6.24539">
        <ele>1540.937134</ele>
        <time>2011-09-10T12:04:46Z</time>
      </trkpt>
      <trkpt lat="45.67133" lon="6.24537">
        <ele>1541.099976</ele>
        <time>2011-09-10T12:04:51Z</time>
      </trkpt>
      <trkpt lat="45.67137" lon="6.24536">
        <ele>1541.914429</ele>
        <time>2011-09-10T12:04:56Z</time>
      </trkpt>
      <trkpt lat="45.67142" lon="6.24536">
        <ele>1542.820679</ele>
        <time>2011-09-10T12:05:01Z</time>
      </trkpt>
      <trkpt lat="45.67148" lon="6.24536">
        <ele>1544.208618</ele>
        <time>2011-09-10T12:05:06Z</time>
      </trkpt>
      <trkpt lat="45.67154" lon="6.24537">
        <ele>1545.483154</ele>
        <time>2011-09-10T12:05:11Z</time>
      </trkpt>
      <trkpt lat="45.67158" lon="6.24537">
        <ele>1546.356445</ele>
        <time>2011-09-10T12:05:16Z</time>
      </trkpt>
      <trkpt lat="45.67164" lon="6.24538">
        <ele>1547.596924</ele>
        <time>2011-09-10T12:05:21Z</time>
      </trkpt>
      <trkpt lat="45.67169" lon="6.24539">
        <ele>1548.611206</ele>
        <time>2011-09-10T12:05:26Z</time>
      </trkpt>
      <trkpt lat="45.67174" lon="6.2454">
        <ele>1549.714966</ele>
        <time>2011-09-10T12:05:31Z</time>
      </trkpt>
      <trkpt lat="45.67179" lon="6.24541">
        <ele>1550.577637</ele>
        <time>2011-09-10T12:05:36Z</time>
      </trkpt>
      <trkpt lat="45.67185" lon="6.24542">
        <ele>1551.956177</ele>
        <time>2011-09-10T12:05:41Z</time>
      </trkpt>
      <trkpt lat="45.67189" lon="6.24546">
        <ele>1553.883789</ele>
        <time>2011-09-10T12:05:46Z</time>
      </trkpt>
      <trkpt lat="45.67188" lon="6.24553">
        <ele>1556.111816</ele>
        <time>2011-09-10T12:05:51Z</time>
      </trkpt>
      <trkpt lat="45.67186" lon="6.24557">
        <ele>1557.29187</ele>
        <time>2011-09-10T12:05:56Z</time>
      </trkpt>
      <trkpt lat="45.67184" lon="6.24561">
        <ele>1558.033813</ele>
        <time>2011-09-10T12:06:01Z</time>
      </trkpt>
      <trkpt lat="45.6718" lon="6.24564">
        <ele>1558.605225</ele>
        <time>2011-09-10T12:06:06Z</time>
      </trkpt>
      <trkpt lat="45.67177" lon="6.24568">
        <ele>1559.037842</ele>
        <time>2011-09-10T12:06:11Z</time>
      </trkpt>
      <trkpt lat="45.67173" lon="6.24572">
        <ele>1559.824585</ele>
        <time>2011-09-10T12:06:16Z</time>
      </trkpt>
      <trkpt lat="45.67169" lon="6.24576">
        <ele>1560.799561</ele>
        <time>2011-09-10T12:06:21Z</time>
      </trkpt>
      <trkpt lat="45.67166" lon="6.2458">
        <ele>1562.026489</ele>
        <time>2011-09-10T12:06:26Z</time>
      </trkpt>
      <trkpt lat="45.67162" lon="6.24585">
        <ele>1563.157593</ele>
        <time>2011-09-10T12:06:31Z</time>
      </trkpt>
      <trkpt lat="45.67159" lon="6.24589">
        <ele>1564.169922</ele>
        <time>2011-09-10T12:06:36Z</time>
      </trkpt>
      <trkpt lat="45.67156" lon="6.24593">
        <ele>1565.24585</ele>
        <time>2011-09-10T12:06:41Z</time>
      </trkpt>
      <trkpt lat="45.67152" lon="6.24597">
        <ele>1565.952393</ele>
        <time>2011-09-10T12:06:46Z</time>
      </trkpt>
      <trkpt lat="45.67149" lon="6.24601">
        <ele>1566.723389</ele>
        <time>2011-09-10T12:06:51Z</time>
      </trkpt>
      <trkpt lat="45.67146" lon="6.24605">
        <ele>1567.412842</ele>
        <time>2011-09-10T12:06:56Z</time>
      </trkpt>
      <trkpt lat="45.67143" lon="6.24608">
        <ele>1567.968262</ele>
        <time>2011-09-10T12:07:01Z</time>
      </trkpt>
      <trkpt lat="45.6714" lon="6.24612">
        <ele>1568.447876</ele>
        <time>2011-09-10T12:07:06Z</time>
      </trkpt>
      <trkpt lat="45.67137" lon="6.24615">
        <ele>1569.108276</ele>
        <time>2011-09-10T12:07:11Z</time>
      </trkpt>
      <trkpt lat="45.67134" lon="6.24618">
        <ele>1569.541016</ele>
        <time>2011-09-10T12:07:16Z</time>
      </trkpt>
      <trkpt lat="45.67132" lon="6.24621">
        <ele>1569.992432</ele>
        <time>2011-09-10T12:07:21Z</time>
      </trkpt>
      <trkpt lat="45.67128" lon="6.24625">
        <ele>1570.473511</ele>
        <time>2011-09-10T12:07:26Z</time>
      </trkpt>
      <trkpt lat="45.67121" lon="6.24627">
        <ele>1569.158203</ele>
        <time>2011-09-10T12:07:31Z</time>
      </trkpt>
      <trkpt lat="45.67115" lon="6.24629">
        <ele>1568.028809</ele>
        <time>2011-09-10T12:07:36Z</time>
      </trkpt>
      <trkpt lat="45.67111" lon="6.24632">
        <ele>1568.313354</ele>
        <time>2011-09-10T12:07:41Z</time>
      </trkpt>
      <trkpt lat="45.67109" lon="6.24636">
        <ele>1569.01001</ele>
        <time>2011-09-10T12:07:46Z</time>
      </trkpt>
      <trkpt lat="45.67107" lon="6.24641">
        <ele>1570.174927</ele>
        <time>2011-09-10T12:07:51Z</time>
      </trkpt>
      <trkpt lat="45.67107" lon="6.24647">
        <ele>1571.955688</ele>
        <time>2011-09-10T12:07:56Z</time>
      </trkpt>
      <trkpt lat="45.67105" lon="6.24652">
        <ele>1573.098877</ele>
        <time>2011-09-10T12:08:01Z</time>
      </trkpt>
      <trkpt lat="45.67103" lon="6.24657">
        <ele>1574.469238</ele>
        <time>2011-09-10T12:08:06Z</time>
      </trkpt>
      <trkpt lat="45.67103" lon="6.24663">
        <ele>1576.364746</ele>
        <time>2011-09-10T12:08:11Z</time>
      </trkpt>
      <trkpt lat="45.67103" lon="6.24668">
        <ele>1578.21936</ele>
        <time>2011-09-10T12:08:16Z</time>
      </trkpt>
      <trkpt lat="45.67103" lon="6.24674">
        <ele>1580.128662</ele>
        <time>2011-09-10T12:08:21Z</time>
      </trkpt>
      <trkpt lat="45.67102" lon="6.2468">
        <ele>1581.922485</ele>
        <time>2011-09-10T12:08:26Z</time>
      </trkpt>
      <trkpt lat="45.67101" lon="6.24685">
        <ele>1583.476074</ele>
        <time>2011-09-10T12:08:31Z</time>
      </trkpt>
      <trkpt lat="45.67099" lon="6.24689">
        <ele>1584.442139</ele>
        <time>2011-09-10T12:08:36Z</time>
      </trkpt>
      <trkpt lat="45.67095" lon="6.24693">
        <ele>1584.818359</ele>
        <time>2011-09-10T12:08:41Z</time>
      </trkpt>
      <trkpt lat="45.67091" lon="6.24696">
        <ele>1584.957275</ele>
        <time>2011-09-10T12:08:46Z</time>
      </trkpt>
      <trkpt lat="45.67086" lon="6.24697">
        <ele>1583.795044</ele>
        <time>2011-09-10T12:08:51Z</time>
      </trkpt>
      <trkpt lat="45.67082" lon="6.24696">
        <ele>1582.783813</ele>
        <time>2011-09-10T12:08:56Z</time>
      </trkpt>
      <trkpt lat="45.67075" lon="6.24698">
        <ele>1581.727905</ele>
        <time>2011-09-10T12:09:01Z</time>
      </trkpt>
      <trkpt lat="45.67071" lon="6.24701">
        <ele>1582.164917</ele>
        <time>2011-09-10T12:09:06Z</time>
      </trkpt>
      <trkpt lat="45.67067" lon="6.24704">
        <ele>1582.19873</ele>
        <time>2011-09-10T12:09:11Z</time>
      </trkpt>
      <trkpt lat="45.6706" lon="6.24707">
        <ele>1581.870728</ele>
        <time>2011-09-10T12:09:16Z</time>
      </trkpt>
      <trkpt lat="45.67054" lon="6.24709">
        <ele>1581.744263</ele>
        <time>2011-09-10T12:09:21Z</time>
      </trkpt>
      <trkpt lat="45.67051" lon="6.24712">
        <ele>1582.0625</ele>
        <time>2011-09-10T12:09:26Z</time>
      </trkpt>
      <trkpt lat="45.67048" lon="6.24715">
        <ele>1582.840454</ele>
        <time>2011-09-10T12:09:31Z</time>
      </trkpt>
      <trkpt lat="45.67044" lon="6.24718">
        <ele>1583.363037</ele>
        <time>2011-09-10T12:09:36Z</time>
      </trkpt>
      <trkpt lat="45.6704" lon="6.24721">
        <ele>1584.133667</ele>
        <time>2011-09-10T12:09:41Z</time>
      </trkpt>
      <trkpt lat="45.67037" lon="6.24725">
        <ele>1585.494507</ele>
        <time>2011-09-10T12:09:46Z</time>
      </trkpt>
      <trkpt lat="45.67034" lon="6.24729">
        <ele>1586.902832</ele>
        <time>2011-09-10T12:09:51Z</time>
      </trkpt>
      <trkpt lat="45.6703" lon="6.24733">
        <ele>1587.978882</ele>
        <time>2011-09-10T12:09:56Z</time>
      </trkpt>
      <trkpt lat="45.67025" lon="6.24737">
        <ele>1589.041382</ele>
        <time>2011-09-10T12:10:01Z</time>
      </trkpt>
      <trkpt lat="45.67022" lon="6.2474">
        <ele>1590.315308</ele>
        <time>2011-09-10T12:10:06Z</time>
      </trkpt>
      <trkpt lat="45.6702" lon="6.24743">
        <ele>1591.199707</ele>
        <time>2011-09-10T12:10:11Z</time>
      </trkpt>
      <trkpt lat="45.67015" lon="6.24745">
        <ele>1591.59021</ele>
        <time>2011-09-10T12:10:16Z</time>
      </trkpt>
      <trkpt lat="45.67009" lon="6.24747">
        <ele>1592.323608</ele>
        <time>2011-09-10T12:10:21Z</time>
      </trkpt>
      <trkpt lat="45.67003" lon="6.2475">
        <ele>1593.351563</ele>
        <time>2011-09-10T12:10:26Z</time>
      </trkpt>
      <trkpt lat="45.66998" lon="6.24753">
        <ele>1594.534912</ele>
        <time>2011-09-10T12:10:31Z</time>
      </trkpt>
      <trkpt lat="45.66994" lon="6.24757">
        <ele>1595.724976</ele>
        <time>2011-09-10T12:10:36Z</time>
      </trkpt>
      <trkpt lat="45.6699" lon="6.2476">
        <ele>1596.745605</ele>
        <time>2011-09-10T12:10:41Z</time>
      </trkpt>
      <trkpt lat="45.66986" lon="6.24764">
        <ele>1597.706421</ele>
        <time>2011-09-10T12:10:46Z</time>
      </trkpt>
      <trkpt lat="45.66981" lon="6.24767">
        <ele>1598.571899</ele>
        <time>2011-09-10T12:10:51Z</time>
      </trkpt>
      <trkpt lat="45.66977" lon="6.24771">
        <ele>1599.550415</ele>
        <time>2011-09-10T12:10:56Z</time>
      </trkpt>
      <trkpt lat="45.66974" lon="6.24775">
        <ele>1600.663696</ele>
        <time>2011-09-10T12:11:01Z</time>
      </trkpt>
      <trkpt lat="45.6697" lon="6.24778">
        <ele>1601.502808</ele>
        <time>2011-09-10T12:11:06Z</time>
      </trkpt>
      <trkpt lat="45.66966" lon="6.24782">
        <ele>1602.434937</ele>
        <time>2011-09-10T12:11:11Z</time>
      </trkpt>
      <trkpt lat="45.66962" lon="6.24786">
        <ele>1603.484619</ele>
        <time>2011-09-10T12:11:16Z</time>
      </trkpt>
      <trkpt lat="45.66958" lon="6.24791">
        <ele>1604.637695</ele>
        <time>2011-09-10T12:11:21Z</time>
      </trkpt>
      <trkpt lat="45.66955" lon="6.24796">
        <ele>1606.023071</ele>
        <time>2011-09-10T12:11:26Z</time>
      </trkpt>
      <trkpt lat="45.66952" lon="6.24802">
        <ele>1607.352417</ele>
        <time>2011-09-10T12:11:31Z</time>
      </trkpt>
      <trkpt lat="45.6695" lon="6.24808">
        <ele>1608.83667</ele>
        <time>2011-09-10T12:11:36Z</time>
      </trkpt>
      <trkpt lat="45.66948" lon="6.24815">
        <ele>1609.460815</ele>
        <time>2011-09-10T12:11:41Z</time>
      </trkpt>
      <trkpt lat="45.6695" lon="6.2482">
        <ele>1609.331177</ele>
        <time>2011-09-10T12:11:46Z</time>
      </trkpt>
      <trkpt lat="45.66953" lon="6.24823">
        <ele>1609.704956</ele>
        <time>2011-09-10T12:11:51Z</time>
      </trkpt>
      <trkpt lat="45.66955" lon="6.24827">
        <ele>1609.806152</ele>
        <time>2011-09-10T12:11:56Z</time>
      </trkpt>
      <trkpt lat="45.66956" lon="6.24832">
        <ele>1609.535156</ele>
        <time>2011-09-10T12:12:01Z</time>
      </trkpt>
      <trkpt lat="45.66959" lon="6.24832">
        <ele>1610.291748</ele>
        <time>2011-09-10T12:12:06Z</time>
      </trkpt>
      <trkpt lat="45.66962" lon="6.24831">
        <ele>1611.032837</ele>
        <time>2011-09-10T12:12:11Z</time>
      </trkpt>
      <trkpt lat="45.66965" lon="6.24828">
        <ele>1611.882202</ele>
        <time>2011-09-10T12:12:16Z</time>
      </trkpt>
      <trkpt lat="45.66968" lon="6.24825">
        <ele>1612.558472</ele>
        <time>2011-09-10T12:12:21Z</time>
      </trkpt>
      <trkpt lat="45.66969" lon="6.24823">
        <ele>1612.819702</ele>
        <time>2011-09-10T12:12:26Z</time>
      </trkpt>
      <trkpt lat="45.66971" lon="6.24823">
        <ele>1613.034912</ele>
        <time>2011-09-10T12:12:31Z</time>
      </trkpt>
      <trkpt lat="45.66973" lon="6.24824">
        <ele>1613.303223</ele>
        <time>2011-09-10T12:12:36Z</time>
      </trkpt>
      <trkpt lat="45.66975" lon="6.24824">
        <ele>1613.596313</ele>
        <time>2011-09-10T12:12:41Z</time>
      </trkpt>
      <trkpt lat="45.66977" lon="6.24825">
        <ele>1613.826904</ele>
        <time>2011-09-10T12:12:46Z</time>
      </trkpt>
      <trkpt lat="45.6698" lon="6.24825">
        <ele>1614.290527</ele>
        <time>2011-09-10T12:12:51Z</time>
      </trkpt>
      <trkpt lat="45.66982" lon="6.24826">
        <ele>1614.684937</ele>
        <time>2011-09-10T12:12:56Z</time>
      </trkpt>
      <trkpt lat="45.66985" lon="6.24828">
        <ele>1615.061523</ele>
        <time>2011-09-10T12:13:01Z</time>
      </trkpt>
      <trkpt lat="45.66988" lon="6.24829">
        <ele>1615.431885</ele>
        <time>2011-09-10T12:13:06Z</time>
      </trkpt>
      <trkpt lat="45.66991" lon="6.24831">
        <ele>1615.812744</ele>
        <time>2011-09-10T12:13:11Z</time>
      </trkpt>
      <trkpt lat="45.66993" lon="6.24831">
        <ele>1616.105347</ele>
        <time>2011-09-10T12:13:16Z</time>
      </trkpt>
      <trkpt lat="45.66995" lon="6.24834">
        <ele>1616.356323</ele>
        <time>2011-09-10T12:13:21Z</time>
      </trkpt>
      <trkpt lat="45.66997" lon="6.24836">
        <ele>1616.762939</ele>
        <time>2011-09-10T12:13:26Z</time>
      </trkpt>
      <trkpt lat="45.66998" lon="6.24838">
        <ele>1616.776978</ele>
        <time>2011-09-10T12:13:31Z</time>
      </trkpt>
      <trkpt lat="45.67005" lon="6.24845">
        <ele>1617.986694</ele>
        <time>2011-09-10T12:27:06Z</time>
      </trkpt>
      <trkpt lat="45.67007" lon="6.24845">
        <ele>1618.296631</ele>
        <time>2011-09-10T12:27:11Z</time>
      </trkpt>
      <trkpt lat="45.67009" lon="6.24847">
        <ele>1618.644897</ele>
        <time>2011-09-10T12:27:16Z</time>
      </trkpt>
      <trkpt lat="45.67012" lon="6.24848">
        <ele>1619.235107</ele>
        <time>2011-09-10T12:27:21Z</time>
      </trkpt>
      <trkpt lat="45.67014" lon="6.2485">
        <ele>1619.686157</ele>
        <time>2011-09-10T12:27:26Z</time>
      </trkpt>
      <trkpt lat="45.67016" lon="6.24851">
        <ele>1620.254272</ele>
        <time>2011-09-10T12:27:31Z</time>
      </trkpt>
      <trkpt lat="45.67019" lon="6.24852">
        <ele>1620.901489</ele>
        <time>2011-09-10T12:27:36Z</time>
      </trkpt>
      <trkpt lat="45.67022" lon="6.24852">
        <ele>1621.813721</ele>
        <time>2011-09-10T12:27:41Z</time>
      </trkpt>
      <trkpt lat="45.67025" lon="6.24855">
        <ele>1622.468628</ele>
        <time>2011-09-10T12:27:46Z</time>
      </trkpt>
      <trkpt lat="45.67028" lon="6.24858">
        <ele>1623.356689</ele>
        <time>2011-09-10T12:27:51Z</time>
      </trkpt>
      <trkpt lat="45.67032" lon="6.24861">
        <ele>1624.351074</ele>
        <time>2011-09-10T12:27:56Z</time>
      </trkpt>
      <trkpt lat="45.67035" lon="6.24861">
        <ele>1625.310181</ele>
        <time>2011-09-10T12:28:01Z</time>
      </trkpt>
      <trkpt lat="45.67039" lon="6.24861">
        <ele>1626.163086</ele>
        <time>2011-09-10T12:28:06Z</time>
      </trkpt>
      <trkpt lat="45.67042" lon="6.24863">
        <ele>1627.166992</ele>
        <time>2011-09-10T12:28:11Z</time>
      </trkpt>
      <trkpt lat="45.67046" lon="6.24862">
        <ele>1627.976318</ele>
        <time>2011-09-10T12:28:16Z</time>
      </trkpt>
      <trkpt lat="45.67049" lon="6.24862">
        <ele>1628.836426</ele>
        <time>2011-09-10T12:28:21Z</time>
      </trkpt>
      <trkpt lat="45.67054" lon="6.24861">
        <ele>1629.802002</ele>
        <time>2011-09-10T12:28:26Z</time>
      </trkpt>
      <trkpt lat="45.67058" lon="6.2486">
        <ele>1630.784546</ele>
        <time>2011-09-10T12:28:31Z</time>
      </trkpt>
      <trkpt lat="45.67061" lon="6.24861">
        <ele>1631.571899</ele>
        <time>2011-09-10T12:28:36Z</time>
      </trkpt>
      <trkpt lat="45.67064" lon="6.24861">
        <ele>1632.468018</ele>
        <time>2011-09-10T12:28:41Z</time>
      </trkpt>
      <trkpt lat="45.67068" lon="6.24862">
        <ele>1633.436157</ele>
        <time>2011-09-10T12:28:46Z</time>
      </trkpt>
      <trkpt lat="45.67072" lon="6.24862">
        <ele>1634.335449</ele>
        <time>2011-09-10T12:28:51Z</time>
      </trkpt>
      <trkpt lat="45.67075" lon="6.24861">
        <ele>1635.12146</ele>
        <time>2011-09-10T12:28:56Z</time>
      </trkpt>
      <trkpt lat="45.67079" lon="6.24861">
        <ele>1635.937012</ele>
        <time>2011-09-10T12:29:01Z</time>
      </trkpt>
      <trkpt lat="45.67082" lon="6.24861">
        <ele>1636.676758</ele>
        <time>2011-09-10T12:29:06Z</time>
      </trkpt>
      <trkpt lat="45.67085" lon="6.24863">
        <ele>1637.466675</ele>
        <time>2011-09-10T12:29:11Z</time>
      </trkpt>
      <trkpt lat="45.67088" lon="6.24863">
        <ele>1638.235962</ele>
        <time>2011-09-10T12:29:16Z</time>
      </trkpt>
      <trkpt lat="45.67091" lon="6.24865">
        <ele>1639.271729</ele>
        <time>2011-09-10T12:29:21Z</time>
      </trkpt>
      <trkpt lat="45.67095" lon="6.24866">
        <ele>1640.391724</ele>
        <time>2011-09-10T12:29:26Z</time>
      </trkpt>
      <trkpt lat="45.67098" lon="6.24868">
        <ele>1641.452637</ele>
        <time>2011-09-10T12:29:31Z</time>
      </trkpt>
      <trkpt lat="45.67101" lon="6.24869">
        <ele>1642.397827</ele>
        <time>2011-09-10T12:29:36Z</time>
      </trkpt>
      <trkpt lat="45.67103" lon="6.2487">
        <ele>1643.216431</ele>
        <time>2011-09-10T12:29:41Z</time>
      </trkpt>
      <trkpt lat="45.67106" lon="6.24872">
        <ele>1644.201416</ele>
        <time>2011-09-10T12:29:46Z</time>
      </trkpt>
      <trkpt lat="45.67107" lon="6.24874">
        <ele>1644.849976</ele>
        <time>2011-09-10T12:29:51Z</time>
      </trkpt>
      <trkpt lat="45.6711" lon="6.24876">
        <ele>1645.982178</ele>
        <time>2011-09-10T12:29:56Z</time>
      </trkpt>
      <trkpt lat="45.67113" lon="6.24878">
        <ele>1647.189453</ele>
        <time>2011-09-10T12:30:01Z</time>
      </trkpt>
      <trkpt lat="45.67114" lon="6.24878">
        <ele>1647.535034</ele>
        <time>2011-09-10T12:30:06Z</time>
      </trkpt>
      <trkpt lat="45.67115" lon="6.24878">
        <ele>1647.583374</ele>
        <time>2011-09-10T12:30:11Z</time>
      </trkpt>
      <trkpt lat="45.67119" lon="6.24881">
        <ele>1648.96936</ele>
        <time>2011-09-10T12:30:16Z</time>
      </trkpt>
      <trkpt lat="45.67123" lon="6.24883">
        <ele>1650.397949</ele>
        <time>2011-09-10T12:30:21Z</time>
      </trkpt>
      <trkpt lat="45.67125" lon="6.24884">
        <ele>1651.258667</ele>
        <time>2011-09-10T12:30:26Z</time>
      </trkpt>
      <trkpt lat="45.67128" lon="6.24884">
        <ele>1651.860352</ele>
        <time>2011-09-10T12:30:31Z</time>
      </trkpt>
      <trkpt lat="45.6713" lon="6.24884">
        <ele>1652.624146</ele>
        <time>2011-09-10T12:30:36Z</time>
      </trkpt>
      <trkpt lat="45.67133" lon="6.24886">
        <ele>1653.439941</ele>
        <time>2011-09-10T12:30:41Z</time>
      </trkpt>
      <trkpt lat="45.67135" lon="6.24887">
        <ele>1654.024902</ele>
        <time>2011-09-10T12:30:46Z</time>
      </trkpt>
      <trkpt lat="45.67137" lon="6.24888">
        <ele>1654.821167</ele>
        <time>2011-09-10T12:30:51Z</time>
      </trkpt>
      <trkpt lat="45.67139" lon="6.2489">
        <ele>1655.571655</ele>
        <time>2011-09-10T12:30:56Z</time>
      </trkpt>
      <trkpt lat="45.67141" lon="6.2489">
        <ele>1656.074585</ele>
        <time>2011-09-10T12:31:01Z</time>
      </trkpt>
      <trkpt lat="45.67143" lon="6.24891">
        <ele>1656.497925</ele>
        <time>2011-09-10T12:31:06Z</time>
      </trkpt>
      <trkpt lat="45.67146" lon="6.24892">
        <ele>1657.297485</ele>
        <time>2011-09-10T12:31:11Z</time>
      </trkpt>
      <trkpt lat="45.67149" lon="6.24892">
        <ele>1658.608643</ele>
        <time>2011-09-10T12:31:16Z</time>
      </trkpt>
      <trkpt lat="45.67152" lon="6.24893">
        <ele>1659.652222</ele>
        <time>2011-09-10T12:31:21Z</time>
      </trkpt>
      <trkpt lat="45.67155" lon="6.24893">
        <ele>1661.05481</ele>
        <time>2011-09-10T12:31:26Z</time>
      </trkpt>
      <trkpt lat="45.67158" lon="6.24894">
        <ele>1662.427979</ele>
        <time>2011-09-10T12:31:31Z</time>
      </trkpt>
      <trkpt lat="45.67161" lon="6.24893">
        <ele>1664.497681</ele>
        <time>2011-09-10T12:31:36Z</time>
      </trkpt>
      <trkpt lat="45.67164" lon="6.24891">
        <ele>1665.952881</ele>
        <time>2011-09-10T12:31:41Z</time>
      </trkpt>
      <trkpt lat="45.67166" lon="6.2489">
        <ele>1666.925171</ele>
        <time>2011-09-10T12:31:46Z</time>
      </trkpt>
      <trkpt lat="45.67169" lon="6.24889">
        <ele>1668.012817</ele>
        <time>2011-09-10T12:31:51Z</time>
      </trkpt>
      <trkpt lat="45.6717" lon="6.24889">
        <ele>1668.806396</ele>
        <time>2011-09-10T12:31:56Z</time>
      </trkpt>
      <trkpt lat="45.67173" lon="6.24887">
        <ele>1669.65979</ele>
        <time>2011-09-10T12:32:01Z</time>
      </trkpt>
      <trkpt lat="45.67175" lon="6.24884">
        <ele>1670.595581</ele>
        <time>2011-09-10T12:32:06Z</time>
      </trkpt>
      <trkpt lat="45.67178" lon="6.24883">
        <ele>1671.765625</ele>
        <time>2011-09-10T12:32:11Z</time>
      </trkpt>
      <trkpt lat="45.6718" lon="6.24881">
        <ele>1672.494141</ele>
        <time>2011-09-10T12:32:16Z</time>
      </trkpt>
      <trkpt lat="45.67181" lon="6.24879">
        <ele>1672.816162</ele>
        <time>2011-09-10T12:32:21Z</time>
      </trkpt>
      <trkpt lat="45.67184" lon="6.24879">
        <ele>1673.959106</ele>
        <time>2011-09-10T12:32:26Z</time>
      </trkpt>
      <trkpt lat="45.67187" lon="6.24878">
        <ele>1675.179443</ele>
        <time>2011-09-10T12:32:31Z</time>
      </trkpt>
      <trkpt lat="45.67189" lon="6.24879">
        <ele>1676.52832</ele>
        <time>2011-09-10T12:32:36Z</time>
      </trkpt>
      <trkpt lat="45.67192" lon="6.2488">
        <ele>1678.03772</ele>
        <time>2011-09-10T12:32:41Z</time>
      </trkpt>
      <trkpt lat="45.67195" lon="6.24877">
        <ele>1679.23999</ele>
        <time>2011-09-10T12:32:46Z</time>
      </trkpt>
      <trkpt lat="45.67198" lon="6.24875">
        <ele>1680.786377</ele>
        <time>2011-09-10T12:32:51Z</time>
      </trkpt>
      <trkpt lat="45.672" lon="6.24876">
        <ele>1681.887573</ele>
        <time>2011-09-10T12:32:56Z</time>
      </trkpt>
      <trkpt lat="45.67202" lon="6.24875">
        <ele>1682.933716</ele>
        <time>2011-09-10T12:33:01Z</time>
      </trkpt>
      <trkpt lat="45.67202" lon="6.24874">
        <ele>1683.009644</ele>
        <time>2011-09-10T12:33:06Z</time>
      </trkpt>
      <trkpt lat="45.67204" lon="6.24873">
        <ele>1684.170898</ele>
        <time>2011-09-10T12:33:11Z</time>
      </trkpt>
      <trkpt lat="45.67206" lon="6.24874">
        <ele>1684.989868</ele>
        <time>2011-09-10T12:33:16Z</time>
      </trkpt>
      <trkpt lat="45.67207" lon="6.24875">
        <ele>1685.645752</ele>
        <time>2011-09-10T12:33:21Z</time>
      </trkpt>
      <trkpt lat="45.67209" lon="6.24875">
        <ele>1686.798218</ele>
        <time>2011-09-10T12:33:26Z</time>
      </trkpt>
      <trkpt lat="45.67212" lon="6.24875">
        <ele>1688.437622</ele>
        <time>2011-09-10T12:33:31Z</time>
      </trkpt>
      <trkpt lat="45.67214" lon="6.24874">
        <ele>1689.4729</ele>
        <time>2011-09-10T12:33:36Z</time>
      </trkpt>
      <trkpt lat="45.67215" lon="6.24872">
        <ele>1690.365723</ele>
        <time>2011-09-10T12:33:41Z</time>
      </trkpt>
      <trkpt lat="45.67218" lon="6.24872">
        <ele>1691.815063</ele>
        <time>2011-09-10T12:33:46Z</time>
      </trkpt>
      <trkpt lat="45.6722" lon="6.24875">
        <ele>1692.926636</ele>
        <time>2011-09-10T12:33:51Z</time>
      </trkpt>
      <trkpt lat="45.67222" lon="6.24877">
        <ele>1694.30542</ele>
        <time>2011-09-10T12:33:56Z</time>
      </trkpt>
      <trkpt lat="45.67222" lon="6.2488">
        <ele>1694.96936</ele>
        <time>2011-09-10T12:34:01Z</time>
      </trkpt>
      <trkpt lat="45.67224" lon="6.24882">
        <ele>1696.227539</ele>
        <time>2011-09-10T12:34:06Z</time>
      </trkpt>
      <trkpt lat="45.67226" lon="6.24883">
        <ele>1697.352051</ele>
        <time>2011-09-10T12:34:11Z</time>
      </trkpt>
      <trkpt lat="45.67227" lon="6.24884">
        <ele>1698.041504</ele>
        <time>2011-09-10T12:34:16Z</time>
      </trkpt>
      <trkpt lat="45.67228" lon="6.24883">
        <ele>1698.622559</ele>
        <time>2011-09-10T12:34:21Z</time>
      </trkpt>
      <trkpt lat="45.6723" lon="6.24881">
        <ele>1699.290405</ele>
        <time>2011-09-10T12:34:26Z</time>
      </trkpt>
      <trkpt lat="45.67232" lon="6.24879">
        <ele>1700.415405</ele>
        <time>2011-09-10T12:34:31Z</time>
      </trkpt>
      <trkpt lat="45.67233" lon="6.2488">
        <ele>1701.20459</ele>
        <time>2011-09-10T12:34:36Z</time>
      </trkpt>
      <trkpt lat="45.67234" lon="6.24883">
        <ele>1701.837158</ele>
        <time>2011-09-10T12:34:41Z</time>
      </trkpt>
      <trkpt lat="45.67235" lon="6.24887">
        <ele>1702.629272</ele>
        <time>2011-09-10T12:34:46Z</time>
      </trkpt>
      <trkpt lat="45.67235" lon="6.24892">
        <ele>1703.00647</ele>
        <time>2011-09-10T12:34:51Z</time>
      </trkpt>
      <trkpt lat="45.67236" lon="6.24894">
        <ele>1703.339355</ele>
        <time>2011-09-10T12:34:56Z</time>
      </trkpt>
      <trkpt lat="45.67237" lon="6.24895">
        <ele>1703.776001</ele>
        <time>2011-09-10T12:35:01Z</time>
      </trkpt>
      <trkpt lat="45.67236" lon="6.24896">
        <ele>1703.766724</ele>
        <time>2011-09-10T12:35:06Z</time>
      </trkpt>
      <trkpt lat="45.67238" lon="6.24895">
        <ele>1704.223633</ele>
        <time>2011-09-10T12:35:11Z</time>
      </trkpt>
      <trkpt lat="45.67239" lon="6.24895">
        <ele>1704.733765</ele>
        <time>2011-09-10T12:35:16Z</time>
      </trkpt>
      <trkpt lat="45.67241" lon="6.24899">
        <ele>1704.887451</ele>
        <time>2011-09-10T12:35:21Z</time>
      </trkpt>
      <trkpt lat="45.67242" lon="6.24902">
        <ele>1704.294067</ele>
        <time>2011-09-10T12:35:26Z</time>
      </trkpt>
      <trkpt lat="45.67244" lon="6.24904">
        <ele>1704.324951</ele>
        <time>2011-09-10T12:35:31Z</time>
      </trkpt>
      <trkpt lat="45.67246" lon="6.24906">
        <ele>1704.324951</ele>
        <time>2011-09-10T12:35:36Z</time>
      </trkpt>
      <trkpt lat="45.67247" lon="6.2491">
        <ele>1703.424316</ele>
        <time>2011-09-10T12:35:41Z</time>
      </trkpt>
      <trkpt lat="45.67248" lon="6.2491">
        <ele>1703.637695</ele>
        <time>2011-09-10T12:35:46Z</time>
      </trkpt>
      <trkpt lat="45.67249" lon="6.24911">
        <ele>1703.931274</ele>
        <time>2011-09-10T12:35:51Z</time>
      </trkpt>
      <trkpt lat="45.67251" lon="6.2491">
        <ele>1704.918945</ele>
        <time>2011-09-10T12:35:56Z</time>
      </trkpt>
      <trkpt lat="45.67252" lon="6.24908">
        <ele>1705.842163</ele>
        <time>2011-09-10T12:36:01Z</time>
      </trkpt>
      <trkpt lat="45.67254" lon="6.24906">
        <ele>1707.078125</ele>
        <time>2011-09-10T12:36:06Z</time>
      </trkpt>
      <trkpt lat="45.67255" lon="6.24904">
        <ele>1708.268433</ele>
        <time>2011-09-10T12:36:11Z</time>
      </trkpt>
      <trkpt lat="45.67257" lon="6.24904">
        <ele>1708.847656</ele>
        <time>2011-09-10T12:36:16Z</time>
      </trkpt>
      <trkpt lat="45.6726" lon="6.24905">
        <ele>1709.749268</ele>
        <time>2011-09-10T12:36:21Z</time>
      </trkpt>
      <trkpt lat="45.67262" lon="6.24906">
        <ele>1709.790527</ele>
        <time>2011-09-10T12:36:26Z</time>
      </trkpt>
      <trkpt lat="45.67263" lon="6.24906">
        <ele>1710.229004</ele>
        <time>2011-09-10T12:36:31Z</time>
      </trkpt>
      <trkpt lat="45.67264" lon="6.24905">
        <ele>1711.128418</ele>
        <time>2011-09-10T12:36:36Z</time>
      </trkpt>
      <trkpt lat="45.67265" lon="6.24903">
        <ele>1712.170776</ele>
        <time>2011-09-10T12:36:41Z</time>
      </trkpt>
      <trkpt lat="45.67266" lon="6.24901">
        <ele>1713.400757</ele>
        <time>2011-09-10T12:36:46Z</time>
      </trkpt>
      <trkpt lat="45.67266" lon="6.24898">
        <ele>1714.299561</ele>
        <time>2011-09-10T12:36:51Z</time>
      </trkpt>
      <trkpt lat="45.67267" lon="6.24895">
        <ele>1714.417847</ele>
        <time>2011-09-10T12:36:56Z</time>
      </trkpt>
      <trkpt lat="45.67268" lon="6.24893">
        <ele>1714.910034</ele>
        <time>2011-09-10T12:37:01Z</time>
      </trkpt>
      <trkpt lat="45.6727" lon="6.24893">
        <ele>1715.432983</ele>
        <time>2011-09-10T12:37:06Z</time>
      </trkpt>
      <trkpt lat="45.6727" lon="6.24891">
        <ele>1715.694946</ele>
        <time>2011-09-10T12:37:11Z</time>
      </trkpt>
      <trkpt lat="45.67273" lon="6.2489">
        <ele>1716.473022</ele>
        <time>2011-09-10T12:37:16Z</time>
      </trkpt>
      <trkpt lat="45.67273" lon="6.2489">
        <ele>1716.756958</ele>
        <time>2011-09-10T12:37:21Z</time>
      </trkpt>
      <trkpt lat="45.67275" lon="6.24888">
        <ele>1717.164063</ele>
        <time>2011-09-10T12:37:26Z</time>
      </trkpt>
      <trkpt lat="45.67276" lon="6.24889">
        <ele>1717.832397</ele>
        <time>2011-09-10T12:37:31Z</time>
      </trkpt>
      <trkpt lat="45.67278" lon="6.2489">
        <ele>1718.584106</ele>
        <time>2011-09-10T12:37:36Z</time>
      </trkpt>
      <trkpt lat="45.6728" lon="6.24888">
        <ele>1718.961426</ele>
        <time>2011-09-10T12:37:41Z</time>
      </trkpt>
      <trkpt lat="45.67282" lon="6.24887">
        <ele>1718.855347</ele>
        <time>2011-09-10T12:37:46Z</time>
      </trkpt>
      <trkpt lat="45.67283" lon="6.24886">
        <ele>1718.818359</ele>
        <time>2011-09-10T12:37:51Z</time>
      </trkpt>
      <trkpt lat="45.67285" lon="6.24885">
        <ele>1718.743774</ele>
        <time>2011-09-10T12:37:56Z</time>
      </trkpt>
      <trkpt lat="45.67286" lon="6.24883">
        <ele>1718.736328</ele>
        <time>2011-09-10T12:38:01Z</time>
      </trkpt>
      <trkpt lat="45.67288" lon="6.24881">
        <ele>1718.720947</ele>
        <time>2011-09-10T12:38:06Z</time>
      </trkpt>
      <trkpt lat="45.6729" lon="6.2488">
        <ele>1718.676636</ele>
        <time>2011-09-10T12:38:11Z</time>
      </trkpt>
      <trkpt lat="45.6729" lon="6.2488">
        <ele>1718.68103</ele>
        <time>2011-09-10T12:38:16Z</time>
      </trkpt>
      <trkpt lat="45.6729" lon="6.2488">
        <ele>1718.696411</ele>
        <time>2011-09-10T12:38:21Z</time>
      </trkpt>
      <trkpt lat="45.6729" lon="6.24879">
        <ele>1718.691772</ele>
        <time>2011-09-10T12:38:26Z</time>
      </trkpt>
      <trkpt lat="45.67292" lon="6.24879">
        <ele>1718.644775</ele>
        <time>2011-09-10T12:38:31Z</time>
      </trkpt>
      <trkpt lat="45.67294" lon="6.24877">
        <ele>1718.691406</ele>
        <time>2011-09-10T12:38:36Z</time>
      </trkpt>
      <trkpt lat="45.67295" lon="6.24875">
        <ele>1718.75769</ele>
        <time>2011-09-10T12:38:41Z</time>
      </trkpt>
      <trkpt lat="45.67297" lon="6.24874">
        <ele>1718.777954</ele>
        <time>2011-09-10T12:38:46Z</time>
      </trkpt>
      <trkpt lat="45.67299" lon="6.24872">
        <ele>1718.845215</ele>
        <time>2011-09-10T12:38:51Z</time>
      </trkpt>
      <trkpt lat="45.67302" lon="6.2487">
        <ele>1718.952515</ele>
        <time>2011-09-10T12:38:56Z</time>
      </trkpt>
      <trkpt lat="45.67304" lon="6.2487">
        <ele>1718.973633</ele>
        <time>2011-09-10T12:39:01Z</time>
      </trkpt>
      <trkpt lat="45.67307" lon="6.24868">
        <ele>1719.105347</ele>
        <time>2011-09-10T12:39:06Z</time>
      </trkpt>
      <trkpt lat="45.67309" lon="6.24865">
        <ele>1719.374634</ele>
        <time>2011-09-10T12:39:11Z</time>
      </trkpt>
      <trkpt lat="45.67312" lon="6.24863">
        <ele>1719.651001</ele>
        <time>2011-09-10T12:39:16Z</time>
      </trkpt>
      <trkpt lat="45.67315" lon="6.24861">
        <ele>1719.937744</ele>
        <time>2011-09-10T12:39:21Z</time>
      </trkpt>
      <trkpt lat="45.67318" lon="6.24856">
        <ele>1720.507446</ele>
        <time>2011-09-10T12:39:26Z</time>
      </trkpt>
      <trkpt lat="45.67323" lon="6.24854">
        <ele>1720.9646</ele>
        <time>2011-09-10T12:39:31Z</time>
      </trkpt>
      <trkpt lat="45.67327" lon="6.2485">
        <ele>1721.568237</ele>
        <time>2011-09-10T12:39:36Z</time>
      </trkpt>
      <trkpt lat="45.67331" lon="6.24847">
        <ele>1721.884521</ele>
        <time>2011-09-10T12:39:41Z</time>
      </trkpt>
      <trkpt lat="45.67334" lon="6.24848">
        <ele>1721.640259</ele>
        <time>2011-09-10T12:39:46Z</time>
      </trkpt>
      <trkpt lat="45.67337" lon="6.24848">
        <ele>1721.583008</ele>
        <time>2011-09-10T12:39:51Z</time>
      </trkpt>
      <trkpt lat="45.67341" lon="6.24848">
        <ele>1721.607788</ele>
        <time>2011-09-10T12:39:56Z</time>
      </trkpt>
      <trkpt lat="45.67345" lon="6.24844">
        <ele>1722.210205</ele>
        <time>2011-09-10T12:40:01Z</time>
      </trkpt>
      <trkpt lat="45.67348" lon="6.24845">
        <ele>1722.079102</ele>
        <time>2011-09-10T12:40:06Z</time>
      </trkpt>
      <trkpt lat="45.67354" lon="6.24843">
        <ele>1722.436035</ele>
        <time>2011-09-10T12:40:11Z</time>
      </trkpt>
      <trkpt lat="45.67358" lon="6.24841">
        <ele>1722.980713</ele>
        <time>2011-09-10T12:40:16Z</time>
      </trkpt>
      <trkpt lat="45.67363" lon="6.24841">
        <ele>1722.911865</ele>
        <time>2011-09-10T12:40:21Z</time>
      </trkpt>
      <trkpt lat="45.67368" lon="6.24838">
        <ele>1722.650879</ele>
        <time>2011-09-10T12:40:26Z</time>
      </trkpt>
      <trkpt lat="45.67372" lon="6.24839">
        <ele>1722.746582</ele>
        <time>2011-09-10T12:40:31Z</time>
      </trkpt>
      <trkpt lat="45.67377" lon="6.24838">
        <ele>1722.861572</ele>
        <time>2011-09-10T12:40:36Z</time>
      </trkpt>
      <trkpt lat="45.67381" lon="6.24836">
        <ele>1722.822754</ele>
        <time>2011-09-10T12:40:41Z</time>
      </trkpt>
      <trkpt lat="45.67386" lon="6.24837">
        <ele>1723.028564</ele>
        <time>2011-09-10T12:40:46Z</time>
      </trkpt>
      <trkpt lat="45.67388" lon="6.24836">
        <ele>1723.059937</ele>
        <time>2011-09-10T12:40:51Z</time>
      </trkpt>
      <trkpt lat="45.6739" lon="6.24835">
        <ele>1722.991333</ele>
        <time>2011-09-10T12:40:56Z</time>
      </trkpt>
      <trkpt lat="45.67395" lon="6.24834">
        <ele>1723.064209</ele>
        <time>2011-09-10T12:41:01Z</time>
      </trkpt>
      <trkpt lat="45.674" lon="6.24838">
        <ele>1723.646729</ele>
        <time>2011-09-10T12:41:06Z</time>
      </trkpt>
      <trkpt lat="45.67405" lon="6.2484">
        <ele>1724.035889</ele>
        <time>2011-09-10T12:41:11Z</time>
      </trkpt>
      <trkpt lat="45.6741" lon="6.24841">
        <ele>1724.277832</ele>
        <time>2011-09-10T12:41:16Z</time>
      </trkpt>
      <trkpt lat="45.67414" lon="6.24839">
        <ele>1724.227173</ele>
        <time>2011-09-10T12:41:21Z</time>
      </trkpt>
      <trkpt lat="45.67419" lon="6.24838">
        <ele>1724.410034</ele>
        <time>2011-09-10T12:41:26Z</time>
      </trkpt>
      <trkpt lat="45.67423" lon="6.24837">
        <ele>1724.480957</ele>
        <time>2011-09-10T12:41:31Z</time>
      </trkpt>
      <trkpt lat="45.67427" lon="6.24836">
        <ele>1724.677368</ele>
        <time>2011-09-10T12:41:36Z</time>
      </trkpt>
      <trkpt lat="45.67428" lon="6.24842">
        <ele>1725.604004</ele>
        <time>2011-09-10T12:41:41Z</time>
      </trkpt>
      <trkpt lat="45.67432" lon="6.24843">
        <ele>1726.191406</ele>
        <time>2011-09-10T12:41:46Z</time>
      </trkpt>
      <trkpt lat="45.67436" lon="6.24845">
        <ele>1726.984131</ele>
        <time>2011-09-10T12:41:51Z</time>
      </trkpt>
      <trkpt lat="45.6744" lon="6.24846">
        <ele>1727.570557</ele>
        <time>2011-09-10T12:41:56Z</time>
      </trkpt>
      <trkpt lat="45.67444" lon="6.24847">
        <ele>1728.107666</ele>
        <time>2011-09-10T12:42:01Z</time>
      </trkpt>
      <trkpt lat="45.67446" lon="6.24848">
        <ele>1728.166992</ele>
        <time>2011-09-10T12:42:06Z</time>
      </trkpt>
      <trkpt lat="45.67449" lon="6.2485">
        <ele>1728.245483</ele>
        <time>2011-09-10T12:42:11Z</time>
      </trkpt>
      <trkpt lat="45.67446" lon="6.24849">
        <ele>1728.094238</ele>
        <time>2011-09-10T12:42:16Z</time>
      </trkpt>
      <trkpt lat="45.67446" lon="6.24849">
        <ele>1728.083008</ele>
        <time>2011-09-10T12:42:21Z</time>
      </trkpt>
      <trkpt lat="45.67446" lon="6.24849">
        <ele>1728.083008</ele>
        <time>2011-09-10T12:42:26Z</time>
      </trkpt>
      <trkpt lat="45.67446" lon="6.24849">
        <ele>1728.11853</ele>
        <time>2011-09-10T12:42:31Z</time>
      </trkpt>
      <trkpt lat="45.67446" lon="6.24849">
        <ele>1728.094238</ele>
        <time>2011-09-10T12:42:36Z</time>
      </trkpt>
      <trkpt lat="45.67446" lon="6.24849">
        <ele>1728.11853</ele>
        <time>2011-09-10T12:42:41Z</time>
      </trkpt>
      <trkpt lat="45.67446" lon="6.24849">
        <ele>1728.094238</ele>
        <time>2011-09-10T12:42:46Z</time>
      </trkpt>
      <trkpt lat="45.67447" lon="6.2485">
        <ele>1728.145996</ele>
        <time>2011-09-10T12:42:51Z</time>
      </trkpt>
      <trkpt lat="45.67451" lon="6.24851">
        <ele>1728.388428</ele>
        <time>2011-09-10T12:42:56Z</time>
      </trkpt>
      <trkpt lat="45.67455" lon="6.24854">
        <ele>1728.579346</ele>
        <time>2011-09-10T12:43:01Z</time>
      </trkpt>
      <trkpt lat="45.67458" lon="6.24856">
        <ele>1728.680542</ele>
        <time>2011-09-10T12:43:06Z</time>
      </trkpt>
      <trkpt lat="45.6746" lon="6.24861">
        <ele>1728.564819</ele>
        <time>2011-09-10T12:43:11Z</time>
      </trkpt>
      <trkpt lat="45.67464" lon="6.24862">
        <ele>1728.390259</ele>
        <time>2011-09-10T12:43:16Z</time>
      </trkpt>
      <trkpt lat="45.67467" lon="6.24866">
        <ele>1727.90979</ele>
        <time>2011-09-10T12:43:21Z</time>
      </trkpt>
      <trkpt lat="45.6747" lon="6.24864">
        <ele>1727.949707</ele>
        <time>2011-09-10T12:43:26Z</time>
      </trkpt>
      <trkpt lat="45.67474" lon="6.24864">
        <ele>1727.843262</ele>
        <time>2011-09-10T12:43:31Z</time>
      </trkpt>
      <trkpt lat="45.67478" lon="6.24865">
        <ele>1727.589478</ele>
        <time>2011-09-10T12:43:36Z</time>
      </trkpt>
      <trkpt lat="45.67478" lon="6.2487">
        <ele>1727.362427</ele>
        <time>2011-09-10T12:43:41Z</time>
      </trkpt>
      <trkpt lat="45.6748" lon="6.24872">
        <ele>1727.178467</ele>
        <time>2011-09-10T12:43:46Z</time>
      </trkpt>
      <trkpt lat="45.67483" lon="6.24873">
        <ele>1727.116455</ele>
        <time>2011-09-10T12:43:51Z</time>
      </trkpt>
      <trkpt lat="45.67486" lon="6.24875">
        <ele>1726.995605</ele>
        <time>2011-09-10T12:43:56Z</time>
      </trkpt>
      <trkpt lat="45.6749" lon="6.24876">
        <ele>1726.934326</ele>
        <time>2011-09-10T12:44:01Z</time>
      </trkpt>
      <trkpt lat="45.6749" lon="6.24876">
        <ele>1726.94165</ele>
        <time>2011-09-10T12:44:06Z</time>
      </trkpt>
      <trkpt lat="45.67492" lon="6.24874">
        <ele>1726.947144</ele>
        <time>2011-09-10T12:44:11Z</time>
      </trkpt>
      <trkpt lat="45.67492" lon="6.24874">
        <ele>1726.941772</ele>
        <time>2011-09-10T12:44:16Z</time>
      </trkpt>
      <trkpt lat="45.67493" lon="6.24874">
        <ele>1726.928345</ele>
        <time>2011-09-10T12:44:21Z</time>
      </trkpt>
      <trkpt lat="45.67495" lon="6.24877">
        <ele>1726.886719</ele>
        <time>2011-09-10T12:44:26Z</time>
      </trkpt>
      <trkpt lat="45.67499" lon="6.24883">
        <ele>1726.926514</ele>
        <time>2011-09-10T12:44:31Z</time>
      </trkpt>
      <trkpt lat="45.67502" lon="6.2489">
        <ele>1727.123291</ele>
        <time>2011-09-10T12:44:36Z</time>
      </trkpt>
      <trkpt lat="45.67506" lon="6.24895">
        <ele>1727.202026</ele>
        <time>2011-09-10T12:44:41Z</time>
      </trkpt>
      <trkpt lat="45.67508" lon="6.24899">
        <ele>1727.23877</ele>
        <time>2011-09-10T12:44:46Z</time>
      </trkpt>
      <trkpt lat="45.67511" lon="6.24904">
        <ele>1727.402588</ele>
        <time>2011-09-10T12:44:51Z</time>
      </trkpt>
      <trkpt lat="45.67514" lon="6.24907">
        <ele>1727.51416</ele>
        <time>2011-09-10T12:44:56Z</time>
      </trkpt>
      <trkpt lat="45.67518" lon="6.24909">
        <ele>1727.680298</ele>
        <time>2011-09-10T12:45:01Z</time>
      </trkpt>
      <trkpt lat="45.67523" lon="6.24912">
        <ele>1728.056396</ele>
        <time>2011-09-10T12:45:06Z</time>
      </trkpt>
      <trkpt lat="45.67526" lon="6.24917">
        <ele>1728.963501</ele>
        <time>2011-09-10T12:45:11Z</time>
      </trkpt>
      <trkpt lat="45.67528" lon="6.24923">
        <ele>1727.833252</ele>
        <time>2011-09-10T12:45:16Z</time>
      </trkpt>
      <trkpt lat="45.67531" lon="6.24927">
        <ele>1727.275757</ele>
        <time>2011-09-10T12:45:21Z</time>
      </trkpt>
      <trkpt lat="45.67534" lon="6.2493">
        <ele>1727.003784</ele>
        <time>2011-09-10T12:45:26Z</time>
      </trkpt>
      <trkpt lat="45.67539" lon="6.24933">
        <ele>1727.412231</ele>
        <time>2011-09-10T12:45:31Z</time>
      </trkpt>
      <trkpt lat="45.67542" lon="6.24936">
        <ele>1727.729004</ele>
        <time>2011-09-10T12:45:36Z</time>
      </trkpt>
      <trkpt lat="45.67545" lon="6.24941">
        <ele>1728.003052</ele>
        <time>2011-09-10T12:45:41Z</time>
      </trkpt>
      <trkpt lat="45.67549" lon="6.24946">
        <ele>1728.388916</ele>
        <time>2011-09-10T12:45:46Z</time>
      </trkpt>
      <trkpt lat="45.67552" lon="6.2495">
        <ele>1728.388916</ele>
        <time>2011-09-10T12:45:51Z</time>
      </trkpt>
      <trkpt lat="45.67555" lon="6.24953">
        <ele>1728.614624</ele>
        <time>2011-09-10T12:45:56Z</time>
      </trkpt>
      <trkpt lat="45.67558" lon="6.24957">
        <ele>1728.987915</ele>
        <time>2011-09-10T12:46:01Z</time>
      </trkpt>
      <trkpt lat="45.67561" lon="6.24959">
        <ele>1729.469482</ele>
        <time>2011-09-10T12:46:06Z</time>
      </trkpt>
      <trkpt lat="45.67563" lon="6.24964">
        <ele>1730.070679</ele>
        <time>2011-09-10T12:46:11Z</time>
      </trkpt>
      <trkpt lat="45.67566" lon="6.24967">
        <ele>1730.901245</ele>
        <time>2011-09-10T12:46:16Z</time>
      </trkpt>
      <trkpt lat="45.67569" lon="6.24968">
        <ele>1731.682861</ele>
        <time>2011-09-10T12:46:21Z</time>
      </trkpt>
      <trkpt lat="45.67573" lon="6.24972">
        <ele>1732.947998</ele>
        <time>2011-09-10T12:46:26Z</time>
      </trkpt>
      <trkpt lat="45.67576" lon="6.24976">
        <ele>1734.320923</ele>
        <time>2011-09-10T12:46:31Z</time>
      </trkpt>
      <trkpt lat="45.67579" lon="6.24979">
        <ele>1735.819336</ele>
        <time>2011-09-10T12:46:36Z</time>
      </trkpt>
      <trkpt lat="45.67582" lon="6.24982">
        <ele>1737.285278</ele>
        <time>2011-09-10T12:46:41Z</time>
      </trkpt>
      <trkpt lat="45.67586" lon="6.24983">
        <ele>1738.381592</ele>
        <time>2011-09-10T12:46:46Z</time>
      </trkpt>
      <trkpt lat="45.67588" lon="6.24984">
        <ele>1739.343628</ele>
        <time>2011-09-10T12:46:51Z</time>
      </trkpt>
      <trkpt lat="45.67591" lon="6.24985">
        <ele>1740.5896</ele>
        <time>2011-09-10T12:46:56Z</time>
      </trkpt>
      <trkpt lat="45.67594" lon="6.24987">
        <ele>1741.69519</ele>
        <time>2011-09-10T12:47:01Z</time>
      </trkpt>
      <trkpt lat="45.67596" lon="6.24988">
        <ele>1742.064941</ele>
        <time>2011-09-10T12:47:06Z</time>
      </trkpt>
      <trkpt lat="45.67598" lon="6.2499">
        <ele>1742.108276</ele>
        <time>2011-09-10T12:47:11Z</time>
      </trkpt>
      <trkpt lat="45.67601" lon="6.24991">
        <ele>1742.639893</ele>
        <time>2011-09-10T12:47:16Z</time>
      </trkpt>
      <trkpt lat="45.67603" lon="6.24992">
        <ele>1743.172607</ele>
        <time>2011-09-10T12:47:21Z</time>
      </trkpt>
      <trkpt lat="45.67605" lon="6.24993">
        <ele>1743.556641</ele>
        <time>2011-09-10T12:47:26Z</time>
      </trkpt>
      <trkpt lat="45.67608" lon="6.24995">
        <ele>1744.031738</ele>
        <time>2011-09-10T12:47:31Z</time>
      </trkpt>
      <trkpt lat="45.6761" lon="6.24996">
        <ele>1744.567261</ele>
        <time>2011-09-10T12:47:36Z</time>
      </trkpt>
      <trkpt lat="45.67612" lon="6.24997">
        <ele>1745.007568</ele>
        <time>2011-09-10T12:47:41Z</time>
      </trkpt>
      <trkpt lat="45.67614" lon="6.24998">
        <ele>1745.805664</ele>
        <time>2011-09-10T12:47:46Z</time>
      </trkpt>
      <trkpt lat="45.67617" lon="6.24999">
        <ele>1746.604736</ele>
        <time>2011-09-10T12:47:51Z</time>
      </trkpt>
      <trkpt lat="45.6762" lon="6.25001">
        <ele>1747.40625</ele>
        <time>2011-09-10T12:47:56Z</time>
      </trkpt>
      <trkpt lat="45.67622" lon="6.25002">
        <ele>1748.283813</ele>
        <time>2011-09-10T12:48:01Z</time>
      </trkpt>
      <trkpt lat="45.67625" lon="6.25005">
        <ele>1749.015625</ele>
        <time>2011-09-10T12:48:06Z</time>
      </trkpt>
      <trkpt lat="45.67628" lon="6.25007">
        <ele>1750.098877</ele>
        <time>2011-09-10T12:48:11Z</time>
      </trkpt>
      <trkpt lat="45.67631" lon="6.25008">
        <ele>1751.130249</ele>
        <time>2011-09-10T12:48:16Z</time>
      </trkpt>
      <trkpt lat="45.67634" lon="6.2501">
        <ele>1752.310547</ele>
        <time>2011-09-10T12:48:21Z</time>
      </trkpt>
      <trkpt lat="45.67637" lon="6.25013">
        <ele>1752.815063</ele>
        <time>2011-09-10T12:48:26Z</time>
      </trkpt>
      <trkpt lat="45.6764" lon="6.25014">
        <ele>1752.490723</ele>
        <time>2011-09-10T12:48:31Z</time>
      </trkpt>
      <trkpt lat="45.67644" lon="6.25016">
        <ele>1752.267334</ele>
        <time>2011-09-10T12:48:36Z</time>
      </trkpt>
      <trkpt lat="45.67647" lon="6.25018">
        <ele>1752.196777</ele>
        <time>2011-09-10T12:48:41Z</time>
      </trkpt>
      <trkpt lat="45.67649" lon="6.25022">
        <ele>1752.477173</ele>
        <time>2011-09-10T12:48:46Z</time>
      </trkpt>
      <trkpt lat="45.67649" lon="6.25025">
        <ele>1752.784424</ele>
        <time>2011-09-10T12:48:51Z</time>
      </trkpt>
      <trkpt lat="45.67651" lon="6.25031">
        <ele>1753.46521</ele>
        <time>2011-09-10T12:48:56Z</time>
      </trkpt>
      <trkpt lat="45.67654" lon="6.25036">
        <ele>1754.51709</ele>
        <time>2011-09-10T12:49:01Z</time>
      </trkpt>
      <trkpt lat="45.67657" lon="6.2504">
        <ele>1755.750122</ele>
        <time>2011-09-10T12:49:06Z</time>
      </trkpt>
      <trkpt lat="45.67658" lon="6.25042">
        <ele>1756.119751</ele>
        <time>2011-09-10T12:49:11Z</time>
      </trkpt>
      <trkpt lat="45.67661" lon="6.25049">
        <ele>1758.410889</ele>
        <time>2011-09-10T12:49:16Z</time>
      </trkpt>
      <trkpt lat="45.67664" lon="6.25053">
        <ele>1760.200684</ele>
        <time>2011-09-10T12:49:21Z</time>
      </trkpt>
      <trkpt lat="45.67666" lon="6.25058">
        <ele>1761.183838</ele>
        <time>2011-09-10T12:49:26Z</time>
      </trkpt>
      <trkpt lat="45.67669" lon="6.25061">
        <ele>1761.491699</ele>
        <time>2011-09-10T12:49:31Z</time>
      </trkpt>
      <trkpt lat="45.67671" lon="6.25065">
        <ele>1761.649048</ele>
        <time>2011-09-10T12:49:36Z</time>
      </trkpt>
      <trkpt lat="45.67674" lon="6.25069">
        <ele>1762.286621</ele>
        <time>2011-09-10T12:49:41Z</time>
      </trkpt>
      <trkpt lat="45.67676" lon="6.25072">
        <ele>1763.052856</ele>
        <time>2011-09-10T12:49:46Z</time>
      </trkpt>
      <trkpt lat="45.67679" lon="6.25075">
        <ele>1763.729004</ele>
        <time>2011-09-10T12:49:51Z</time>
      </trkpt>
      <trkpt lat="45.67681" lon="6.25078">
        <ele>1763.443359</ele>
        <time>2011-09-10T12:49:56Z</time>
      </trkpt>
      <trkpt lat="45.67683" lon="6.25082">
        <ele>1763.24292</ele>
        <time>2011-09-10T12:50:01Z</time>
      </trkpt>
      <trkpt lat="45.67685" lon="6.25085">
        <ele>1763.270874</ele>
        <time>2011-09-10T12:50:06Z</time>
      </trkpt>
      <trkpt lat="45.67688" lon="6.25088">
        <ele>1763.490723</ele>
        <time>2011-09-10T12:50:11Z</time>
      </trkpt>
      <trkpt lat="45.6769" lon="6.2509">
        <ele>1763.740601</ele>
        <time>2011-09-10T12:50:16Z</time>
      </trkpt>
      <trkpt lat="45.67693" lon="6.25092">
        <ele>1764.29895</ele>
        <time>2011-09-10T12:50:21Z</time>
      </trkpt>
      <trkpt lat="45.67695" lon="6.25095">
        <ele>1764.704834</ele>
        <time>2011-09-10T12:50:26Z</time>
      </trkpt>
      <trkpt lat="45.67697" lon="6.25097">
        <ele>1765.303955</ele>
        <time>2011-09-10T12:50:31Z</time>
      </trkpt>
      <trkpt lat="45.67698" lon="6.25098">
        <ele>1765.814331</ele>
        <time>2011-09-10T12:50:36Z</time>
      </trkpt>
      <trkpt lat="45.67698" lon="6.25099">
        <ele>1765.830078</ele>
        <time>2011-09-10T12:50:41Z</time>
      </trkpt>
      <trkpt lat="45.67699" lon="6.25099">
        <ele>1766.01355</ele>
        <time>2011-09-10T12:50:46Z</time>
      </trkpt>
      <trkpt lat="45.67699" lon="6.25099">
        <ele>1765.968628</ele>
        <time>2011-09-10T12:50:51Z</time>
      </trkpt>
      <trkpt lat="45.67699" lon="6.25099">
        <ele>1765.968628</ele>
        <time>2011-09-10T12:50:56Z</time>
      </trkpt>
      <trkpt lat="45.67699" lon="6.25099">
        <ele>1765.925537</ele>
        <time>2011-09-10T12:51:01Z</time>
      </trkpt>
      <trkpt lat="45.67699" lon="6.25098">
        <ele>1765.884399</ele>
        <time>2011-09-10T12:51:06Z</time>
      </trkpt>
      <trkpt lat="45.67698" lon="6.25098">
        <ele>1765.798462</ele>
        <time>2011-09-10T12:51:11Z</time>
      </trkpt>
      <trkpt lat="45.67698" lon="6.25098">
        <ele>1765.798462</ele>
        <time>2011-09-10T12:51:16Z</time>
      </trkpt>
      <trkpt lat="45.67698" lon="6.25098">
        <ele>1765.798462</ele>
        <time>2011-09-10T12:51:21Z</time>
      </trkpt>
      <trkpt lat="45.67701" lon="6.251">
        <ele>1766.543945</ele>
        <time>2011-09-10T12:51:26Z</time>
      </trkpt>
      <trkpt lat="45.67703" lon="6.25104">
        <ele>1767.776123</ele>
        <time>2011-09-10T12:51:31Z</time>
      </trkpt>
      <trkpt lat="45.67706" lon="6.25107">
        <ele>1768.991943</ele>
        <time>2011-09-10T12:51:36Z</time>
      </trkpt>
      <trkpt lat="45.67708" lon="6.25109">
        <ele>1770.00647</ele>
        <time>2011-09-10T12:51:41Z</time>
      </trkpt>
      <trkpt lat="45.6771" lon="6.25111">
        <ele>1771.290161</ele>
        <time>2011-09-10T12:51:46Z</time>
      </trkpt>
      <trkpt lat="45.67712" lon="6.25114">
        <ele>1772.782227</ele>
        <time>2011-09-10T12:51:51Z</time>
      </trkpt>
      <trkpt lat="45.67713" lon="6.25117">
        <ele>1773.899048</ele>
        <time>2011-09-10T12:51:56Z</time>
      </trkpt>
      <trkpt lat="45.67713" lon="6.25117">
        <ele>1773.857056</ele>
        <time>2011-09-10T12:52:01Z</time>
      </trkpt>
      <trkpt lat="45.67713" lon="6.25117">
        <ele>1773.857056</ele>
        <time>2011-09-10T12:52:06Z</time>
      </trkpt>
      <trkpt lat="45.67713" lon="6.25117">
        <ele>1773.857056</ele>
        <time>2011-09-10T12:52:11Z</time>
      </trkpt>
      <trkpt lat="45.67713" lon="6.25117">
        <ele>1773.814941</ele>
        <time>2011-09-10T12:52:16Z</time>
      </trkpt>
      <trkpt lat="45.67713" lon="6.25117">
        <ele>1773.857056</ele>
        <time>2011-09-10T12:52:21Z</time>
      </trkpt>
      <trkpt lat="45.67713" lon="6.25117">
        <ele>1773.814941</ele>
        <time>2011-09-10T12:52:26Z</time>
      </trkpt>
      <trkpt lat="45.67713" lon="6.25119">
        <ele>1774.381958</ele>
        <time>2011-09-10T12:52:31Z</time>
      </trkpt>
      <trkpt lat="45.67715" lon="6.25121">
        <ele>1775.884888</ele>
        <time>2011-09-10T12:52:36Z</time>
      </trkpt>
      <trkpt lat="45.67717" lon="6.25122">
        <ele>1777.09021</ele>
        <time>2011-09-10T12:52:41Z</time>
      </trkpt>
      <trkpt lat="45.67719" lon="6.25124">
        <ele>1778.43396</ele>
        <time>2011-09-10T12:52:46Z</time>
      </trkpt>
      <trkpt lat="45.6772" lon="6.25125">
        <ele>1779.177612</ele>
        <time>2011-09-10T12:52:51Z</time>
      </trkpt>
      <trkpt lat="45.67722" lon="6.25127">
        <ele>1780.042603</ele>
        <time>2011-09-10T12:52:56Z</time>
      </trkpt>
      <trkpt lat="45.67723" lon="6.25129">
        <ele>1780.454346</ele>
        <time>2011-09-10T12:53:01Z</time>
      </trkpt>
      <trkpt lat="45.67724" lon="6.25131">
        <ele>1780.844482</ele>
        <time>2011-09-10T12:53:06Z</time>
      </trkpt>
      <trkpt lat="45.67726" lon="6.25133">
        <ele>1781.519653</ele>
        <time>2011-09-10T12:53:11Z</time>
      </trkpt>
      <trkpt lat="45.67727" lon="6.25135">
        <ele>1781.833374</ele>
        <time>2011-09-10T12:53:16Z</time>
      </trkpt>
      <trkpt lat="45.67728" lon="6.25137">
        <ele>1782.362671</ele>
        <time>2011-09-10T12:53:21Z</time>
      </trkpt>
      <trkpt lat="45.67729" lon="6.25138">
        <ele>1783.072388</ele>
        <time>2011-09-10T12:53:26Z</time>
      </trkpt>
      <trkpt lat="45.6773" lon="6.2514">
        <ele>1783.440674</ele>
        <time>2011-09-10T12:53:31Z</time>
      </trkpt>
      <trkpt lat="45.67732" lon="6.25141">
        <ele>1784.187012</ele>
        <time>2011-09-10T12:53:36Z</time>
      </trkpt>
      <trkpt lat="45.67733" lon="6.25141">
        <ele>1784.783813</ele>
        <time>2011-09-10T12:53:41Z</time>
      </trkpt>
      <trkpt lat="45.67734" lon="6.25143">
        <ele>1785.352417</ele>
        <time>2011-09-10T12:53:46Z</time>
      </trkpt>
      <trkpt lat="45.67735" lon="6.25144">
        <ele>1785.95105</ele>
        <time>2011-09-10T12:53:51Z</time>
      </trkpt>
      <trkpt lat="45.67736" lon="6.25145">
        <ele>1786.438721</ele>
        <time>2011-09-10T12:53:56Z</time>
      </trkpt>
      <trkpt lat="45.67737" lon="6.25147">
        <ele>1787.241699</ele>
        <time>2011-09-10T12:54:01Z</time>
      </trkpt>
      <trkpt lat="45.67739" lon="6.25147">
        <ele>1788.228516</ele>
        <time>2011-09-10T12:54:06Z</time>
      </trkpt>
      <trkpt lat="45.67741" lon="6.25146">
        <ele>1788.936035</ele>
        <time>2011-09-10T12:54:11Z</time>
      </trkpt>
      <trkpt lat="45.67742" lon="6.25147">
        <ele>1789.743408</ele>
        <time>2011-09-10T12:54:16Z</time>
      </trkpt>
      <trkpt lat="45.67744" lon="6.25148">
        <ele>1790.554932</ele>
        <time>2011-09-10T12:54:21Z</time>
      </trkpt>
      <trkpt lat="45.67745" lon="6.25149">
        <ele>1791.296875</ele>
        <time>2011-09-10T12:54:26Z</time>
      </trkpt>
      <trkpt lat="45.67746" lon="6.2515">
        <ele>1791.888306</ele>
        <time>2011-09-10T12:54:31Z</time>
      </trkpt>
      <trkpt lat="45.67747" lon="6.25151">
        <ele>1792.806885</ele>
        <time>2011-09-10T12:54:36Z</time>
      </trkpt>
      <trkpt lat="45.67749" lon="6.25151">
        <ele>1793.530151</ele>
        <time>2011-09-10T12:54:41Z</time>
      </trkpt>
      <trkpt lat="45.6775" lon="6.25151">
        <ele>1794.23645</ele>
        <time>2011-09-10T12:54:46Z</time>
      </trkpt>
      <trkpt lat="45.67751" lon="6.25153">
        <ele>1794.970947</ele>
        <time>2011-09-10T12:54:51Z</time>
      </trkpt>
      <trkpt lat="45.67751" lon="6.25155">
        <ele>1795.318481</ele>
        <time>2011-09-10T12:54:56Z</time>
      </trkpt>
      <trkpt lat="45.67752" lon="6.25157">
        <ele>1795.928467</ele>
        <time>2011-09-10T12:55:01Z</time>
      </trkpt>
      <trkpt lat="45.67752" lon="6.25159">
        <ele>1796.332642</ele>
        <time>2011-09-10T12:55:06Z</time>
      </trkpt>
      <trkpt lat="45.67752" lon="6.25161">
        <ele>1796.726685</ele>
        <time>2011-09-10T12:55:11Z</time>
      </trkpt>
      <trkpt lat="45.67753" lon="6.25162">
        <ele>1797.316162</ele>
        <time>2011-09-10T12:55:16Z</time>
      </trkpt>
      <trkpt lat="45.67754" lon="6.25163">
        <ele>1798.295288</ele>
        <time>2011-09-10T12:55:21Z</time>
      </trkpt>
      <trkpt lat="45.67755" lon="6.25163">
        <ele>1798.923828</ele>
        <time>2011-09-10T12:55:26Z</time>
      </trkpt>
      <trkpt lat="45.67756" lon="6.25164">
        <ele>1799.841797</ele>
        <time>2011-09-10T12:55:31Z</time>
      </trkpt>
      <trkpt lat="45.67757" lon="6.25165">
        <ele>1800.38147</ele>
        <time>2011-09-10T12:55:36Z</time>
      </trkpt>
      <trkpt lat="45.67758" lon="6.25165">
        <ele>1801.226563</ele>
        <time>2011-09-10T12:55:41Z</time>
      </trkpt>
      <trkpt lat="45.67759" lon="6.25166">
        <ele>1801.922974</ele>
        <time>2011-09-10T12:55:46Z</time>
      </trkpt>
      <trkpt lat="45.67762" lon="6.25165">
        <ele>1803.228638</ele>
        <time>2011-09-10T12:55:51Z</time>
      </trkpt>
      <trkpt lat="45.67763" lon="6.25166">
        <ele>1804.021118</ele>
        <time>2011-09-10T12:55:56Z</time>
      </trkpt>
      <trkpt lat="45.67765" lon="6.25165">
        <ele>1804.870361</ele>
        <time>2011-09-10T12:56:01Z</time>
      </trkpt>
      <trkpt lat="45.67767" lon="6.25164">
        <ele>1805.432739</ele>
        <time>2011-09-10T12:56:06Z</time>
      </trkpt>
      <trkpt lat="45.67769" lon="6.25164">
        <ele>1806.240234</ele>
        <time>2011-09-10T12:56:11Z</time>
      </trkpt>
      <trkpt lat="45.67769" lon="6.25165">
        <ele>1806.805176</ele>
        <time>2011-09-10T12:56:16Z</time>
      </trkpt>
      <trkpt lat="45.67771" lon="6.25166">
        <ele>1807.52002</ele>
        <time>2011-09-10T12:56:21Z</time>
      </trkpt>
      <trkpt lat="45.67772" lon="6.25166">
        <ele>1808.016479</ele>
        <time>2011-09-10T12:56:26Z</time>
      </trkpt>
      <trkpt lat="45.67773" lon="6.25168">
        <ele>1808.785889</ele>
        <time>2011-09-10T12:56:31Z</time>
      </trkpt>
      <trkpt lat="45.67774" lon="6.2517">
        <ele>1809.571289</ele>
        <time>2011-09-10T12:56:36Z</time>
      </trkpt>
      <trkpt lat="45.67775" lon="6.25171">
        <ele>1810.523315</ele>
        <time>2011-09-10T12:56:41Z</time>
      </trkpt>
      <trkpt lat="45.67777" lon="6.25171">
        <ele>1811.040649</ele>
        <time>2011-09-10T12:56:46Z</time>
      </trkpt>
      <trkpt lat="45.67778" lon="6.25172">
        <ele>1811.948608</ele>
        <time>2011-09-10T12:56:51Z</time>
      </trkpt>
      <trkpt lat="45.67779" lon="6.25173">
        <ele>1812.609375</ele>
        <time>2011-09-10T12:56:56Z</time>
      </trkpt>
      <trkpt lat="45.6778" lon="6.25174">
        <ele>1813.595215</ele>
        <time>2011-09-10T12:57:01Z</time>
      </trkpt>
      <trkpt lat="45.67782" lon="6.25175">
        <ele>1814.526489</ele>
        <time>2011-09-10T12:57:06Z</time>
      </trkpt>
      <trkpt lat="45.67783" lon="6.25177">
        <ele>1815.449951</ele>
        <time>2011-09-10T12:57:11Z</time>
      </trkpt>
      <trkpt lat="45.67784" lon="6.25176">
        <ele>1815.760742</ele>
        <time>2011-09-10T12:57:16Z</time>
      </trkpt>
      <trkpt lat="45.67785" lon="6.25177">
        <ele>1816.426392</ele>
        <time>2011-09-10T12:57:21Z</time>
      </trkpt>
      <trkpt lat="45.67785" lon="6.25178">
        <ele>1817.209717</ele>
        <time>2011-09-10T12:57:26Z</time>
      </trkpt>
      <trkpt lat="45.67785" lon="6.25182">
        <ele>1818.302002</ele>
        <time>2011-09-10T12:57:31Z</time>
      </trkpt>
      <trkpt lat="45.67785" lon="6.25185">
        <ele>1819.37146</ele>
        <time>2011-09-10T12:57:36Z</time>
      </trkpt>
      <trkpt lat="45.67786" lon="6.25187">
        <ele>1820.181763</ele>
        <time>2011-09-10T12:57:41Z</time>
      </trkpt>
      <trkpt lat="45.67788" lon="6.25187">
        <ele>1821.163208</ele>
        <time>2011-09-10T12:57:46Z</time>
      </trkpt>
      <trkpt lat="45.67788" lon="6.25189">
        <ele>1822.288086</ele>
        <time>2011-09-10T12:57:51Z</time>
      </trkpt>
      <trkpt lat="45.6779" lon="6.2519">
        <ele>1823.464233</ele>
        <time>2011-09-10T12:57:56Z</time>
      </trkpt>
      <trkpt lat="45.6779" lon="6.25193">
        <ele>1824.533447</ele>
        <time>2011-09-10T12:58:01Z</time>
      </trkpt>
      <trkpt lat="45.67791" lon="6.25196">
        <ele>1825.035156</ele>
        <time>2011-09-10T12:58:06Z</time>
      </trkpt>
      <trkpt lat="45.67792" lon="6.25197">
        <ele>1825.544312</ele>
        <time>2011-09-10T12:58:11Z</time>
      </trkpt>
      <trkpt lat="45.67793" lon="6.25198">
        <ele>1826.421509</ele>
        <time>2011-09-10T12:58:16Z</time>
      </trkpt>
      <trkpt lat="45.67794" lon="6.25199">
        <ele>1826.765747</ele>
        <time>2011-09-10T12:58:21Z</time>
      </trkpt>
      <trkpt lat="45.67795" lon="6.25199">
        <ele>1827.435181</ele>
        <time>2011-09-10T12:58:26Z</time>
      </trkpt>
      <trkpt lat="45.67796" lon="6.25201">
        <ele>1828.081177</ele>
        <time>2011-09-10T12:58:31Z</time>
      </trkpt>
      <trkpt lat="45.67798" lon="6.25203">
        <ele>1828.755615</ele>
        <time>2011-09-10T12:58:36Z</time>
      </trkpt>
      <trkpt lat="45.67799" lon="6.25205">
        <ele>1829.432373</ele>
        <time>2011-09-10T12:58:41Z</time>
      </trkpt>
      <trkpt lat="45.678" lon="6.25207">
        <ele>1830.340698</ele>
        <time>2011-09-10T12:58:46Z</time>
      </trkpt>
      <trkpt lat="45.67801" lon="6.2521">
        <ele>1830.731567</ele>
        <time>2011-09-10T12:58:51Z</time>
      </trkpt>
      <trkpt lat="45.67802" lon="6.25212">
        <ele>1831.275757</ele>
        <time>2011-09-10T12:58:56Z</time>
      </trkpt>
      <trkpt lat="45.67803" lon="6.25214">
        <ele>1832.253662</ele>
        <time>2011-09-10T12:59:01Z</time>
      </trkpt>
      <trkpt lat="45.67804" lon="6.25213">
        <ele>1832.947632</ele>
        <time>2011-09-10T12:59:06Z</time>
      </trkpt>
      <trkpt lat="45.67806" lon="6.25213">
        <ele>1833.712524</ele>
        <time>2011-09-10T12:59:11Z</time>
      </trkpt>
      <trkpt lat="45.67807" lon="6.25213">
        <ele>1834.810181</ele>
        <time>2011-09-10T12:59:16Z</time>
      </trkpt>
      <trkpt lat="45.67809" lon="6.25213">
        <ele>1835.505615</ele>
        <time>2011-09-10T12:59:21Z</time>
      </trkpt>
      <trkpt lat="45.67811" lon="6.25213">
        <ele>1835.134155</ele>
        <time>2011-09-10T12:59:26Z</time>
      </trkpt>
      <trkpt lat="45.67812" lon="6.25215">
        <ele>1834.845215</ele>
        <time>2011-09-10T12:59:31Z</time>
      </trkpt>
      <trkpt lat="45.67814" lon="6.25216">
        <ele>1834.481689</ele>
        <time>2011-09-10T12:59:36Z</time>
      </trkpt>
      <trkpt lat="45.67815" lon="6.25218">
        <ele>1834.466797</ele>
        <time>2011-09-10T12:59:41Z</time>
      </trkpt>
      <trkpt lat="45.67817" lon="6.2522">
        <ele>1834.239624</ele>
        <time>2011-09-10T12:59:46Z</time>
      </trkpt>
      <trkpt lat="45.67817" lon="6.25223">
        <ele>1834.311035</ele>
        <time>2011-09-10T12:59:51Z</time>
      </trkpt>
      <trkpt lat="45.67819" lon="6.25226">
        <ele>1834.35376</ele>
        <time>2011-09-10T12:59:56Z</time>
      </trkpt>
      <trkpt lat="45.6782" lon="6.25228">
        <ele>1834.300537</ele>
        <time>2011-09-10T13:00:01Z</time>
      </trkpt>
      <trkpt lat="45.67822" lon="6.25231">
        <ele>1834.483154</ele>
        <time>2011-09-10T13:00:06Z</time>
      </trkpt>
      <trkpt lat="45.67823" lon="6.25234">
        <ele>1834.634399</ele>
        <time>2011-09-10T13:00:11Z</time>
      </trkpt>
      <trkpt lat="45.67825" lon="6.25237">
        <ele>1834.857544</ele>
        <time>2011-09-10T13:00:16Z</time>
      </trkpt>
      <trkpt lat="45.67828" lon="6.2524">
        <ele>1835.107056</ele>
        <time>2011-09-10T13:00:21Z</time>
      </trkpt>
      <trkpt lat="45.67829" lon="6.25243">
        <ele>1835.50708</ele>
        <time>2011-09-10T13:00:26Z</time>
      </trkpt>
      <trkpt lat="45.67831" lon="6.25247">
        <ele>1836.156372</ele>
        <time>2011-09-10T13:00:31Z</time>
      </trkpt>
      <trkpt lat="45.67833" lon="6.25251">
        <ele>1836.878784</ele>
        <time>2011-09-10T13:00:36Z</time>
      </trkpt>
      <trkpt lat="45.67834" lon="6.25256">
        <ele>1837.828857</ele>
        <time>2011-09-10T13:00:41Z</time>
      </trkpt>
      <trkpt lat="45.67836" lon="6.2526">
        <ele>1838.739014</ele>
        <time>2011-09-10T13:00:46Z</time>
      </trkpt>
      <trkpt lat="45.67837" lon="6.25264">
        <ele>1839.095459</ele>
        <time>2011-09-10T13:00:51Z</time>
      </trkpt>
      <trkpt lat="45.67838" lon="6.25269">
        <ele>1839.391235</ele>
        <time>2011-09-10T13:00:56Z</time>
      </trkpt>
      <trkpt lat="45.6784" lon="6.25275">
        <ele>1840.032837</ele>
        <time>2011-09-10T13:01:01Z</time>
      </trkpt>
      <trkpt lat="45.67841" lon="6.25279">
        <ele>1840.650269</ele>
        <time>2011-09-10T13:01:06Z</time>
      </trkpt>
      <trkpt lat="45.67843" lon="6.25283">
        <ele>1841.47998</ele>
        <time>2011-09-10T13:01:11Z</time>
      </trkpt>
      <trkpt lat="45.67846" lon="6.25287">
        <ele>1842.688843</ele>
        <time>2011-09-10T13:01:16Z</time>
      </trkpt>
      <trkpt lat="45.67847" lon="6.2529">
        <ele>1843.436768</ele>
        <time>2011-09-10T13:01:21Z</time>
      </trkpt>
      <trkpt lat="45.67849" lon="6.25292">
        <ele>1844.474976</ele>
        <time>2011-09-10T13:01:26Z</time>
      </trkpt>
      <trkpt lat="45.6785" lon="6.25297">
        <ele>1845.674927</ele>
        <time>2011-09-10T13:01:31Z</time>
      </trkpt>
      <trkpt lat="45.67851" lon="6.25303">
        <ele>1846.934692</ele>
        <time>2011-09-10T13:01:36Z</time>
      </trkpt>
      <trkpt lat="45.67853" lon="6.25307">
        <ele>1847.397949</ele>
        <time>2011-09-10T13:01:41Z</time>
      </trkpt>
      <trkpt lat="45.67853" lon="6.25313">
        <ele>1848.345581</ele>
        <time>2011-09-10T13:01:46Z</time>
      </trkpt>
      <trkpt lat="45.67855" lon="6.25316">
        <ele>1848.723755</ele>
        <time>2011-09-10T13:01:51Z</time>
      </trkpt>
      <trkpt lat="45.67856" lon="6.25319">
        <ele>1849.262695</ele>
        <time>2011-09-10T13:01:56Z</time>
      </trkpt>
      <trkpt lat="45.67857" lon="6.25322">
        <ele>1849.613892</ele>
        <time>2011-09-10T13:02:01Z</time>
      </trkpt>
      <trkpt lat="45.67859" lon="6.25325">
        <ele>1850.174683</ele>
        <time>2011-09-10T13:02:06Z</time>
      </trkpt>
      <trkpt lat="45.67859" lon="6.25327">
        <ele>1850.613281</ele>
        <time>2011-09-10T13:02:11Z</time>
      </trkpt>
      <trkpt lat="45.6786" lon="6.2533">
        <ele>1850.960815</ele>
        <time>2011-09-10T13:02:16Z</time>
      </trkpt>
      <trkpt lat="45.67862" lon="6.25331">
        <ele>1851.211182</ele>
        <time>2011-09-10T13:02:21Z</time>
      </trkpt>
      <trkpt lat="45.67863" lon="6.25333">
        <ele>1851.46875</ele>
        <time>2011-09-10T13:02:26Z</time>
      </trkpt>
      <trkpt lat="45.67864" lon="6.25334">
        <ele>1851.605835</ele>
        <time>2011-09-10T13:02:31Z</time>
      </trkpt>
      <trkpt lat="45.67865" lon="6.25336">
        <ele>1852.159424</ele>
        <time>2011-09-10T13:02:36Z</time>
      </trkpt>
      <trkpt lat="45.67866" lon="6.2534">
        <ele>1852.916992</ele>
        <time>2011-09-10T13:02:41Z</time>
      </trkpt>
      <trkpt lat="45.67867" lon="6.25343">
        <ele>1853.755981</ele>
        <time>2011-09-10T13:02:46Z</time>
      </trkpt>
      <trkpt lat="45.67869" lon="6.25346">
        <ele>1854.583862</ele>
        <time>2011-09-10T13:02:51Z</time>
      </trkpt>
      <trkpt lat="45.6787" lon="6.25348">
        <ele>1855.202759</ele>
        <time>2011-09-10T13:02:56Z</time>
      </trkpt>
      <trkpt lat="45.6787" lon="6.2535">
        <ele>1855.862915</ele>
        <time>2011-09-10T13:03:01Z</time>
      </trkpt>
      <trkpt lat="45.67872" lon="6.2535">
        <ele>1856.301636</ele>
        <time>2011-09-10T13:03:06Z</time>
      </trkpt>
      <trkpt lat="45.67873" lon="6.25352">
        <ele>1856.989502</ele>
        <time>2011-09-10T13:03:11Z</time>
      </trkpt>
      <trkpt lat="45.67874" lon="6.25354">
        <ele>1857.944336</ele>
        <time>2011-09-10T13:03:16Z</time>
      </trkpt>
      <trkpt lat="45.67875" lon="6.25357">
        <ele>1858.870361</ele>
        <time>2011-09-10T13:03:21Z</time>
      </trkpt>
      <trkpt lat="45.67876" lon="6.25361">
        <ele>1860.556641</ele>
        <time>2011-09-10T13:03:26Z</time>
      </trkpt>
      <trkpt lat="45.67877" lon="6.25364">
        <ele>1861.997314</ele>
        <time>2011-09-10T13:03:31Z</time>
      </trkpt>
      <trkpt lat="45.67878" lon="6.25366">
        <ele>1863.252075</ele>
        <time>2011-09-10T13:03:36Z</time>
      </trkpt>
      <trkpt lat="45.67879" lon="6.25369">
        <ele>1864.428467</ele>
        <time>2011-09-10T13:03:41Z</time>
      </trkpt>
      <trkpt lat="45.6788" lon="6.2537">
        <ele>1865.201782</ele>
        <time>2011-09-10T13:03:46Z</time>
      </trkpt>
      <trkpt lat="45.67881" lon="6.25371">
        <ele>1866.072876</ele>
        <time>2011-09-10T13:03:51Z</time>
      </trkpt>
      <trkpt lat="45.67882" lon="6.25371">
        <ele>1866.494507</ele>
        <time>2011-09-10T13:03:56Z</time>
      </trkpt>
      <trkpt lat="45.67883" lon="6.25373">
        <ele>1867.666992</ele>
        <time>2011-09-10T13:04:01Z</time>
      </trkpt>
      <trkpt lat="45.67885" lon="6.25374">
        <ele>1868.661987</ele>
        <time>2011-09-10T13:04:06Z</time>
      </trkpt>
      <trkpt lat="45.67886" lon="6.25376">
        <ele>1870.052246</ele>
        <time>2011-09-10T13:04:11Z</time>
      </trkpt>
      <trkpt lat="45.67887" lon="6.25378">
        <ele>1871.366943</ele>
        <time>2011-09-10T13:04:16Z</time>
      </trkpt>
      <trkpt lat="45.67888" lon="6.2538">
        <ele>1873.232178</ele>
        <time>2011-09-10T13:04:21Z</time>
      </trkpt>
      <trkpt lat="45.6789" lon="6.25382">
        <ele>1874.615112</ele>
        <time>2011-09-10T13:04:26Z</time>
      </trkpt>
      <trkpt lat="45.67891" lon="6.25384">
        <ele>1876.560059</ele>
        <time>2011-09-10T13:04:31Z</time>
      </trkpt>
      <trkpt lat="45.67892" lon="6.25385">
        <ele>1877.660767</ele>
        <time>2011-09-10T13:04:36Z</time>
      </trkpt>
      <trkpt lat="45.67894" lon="6.25387">
        <ele>1878.263306</ele>
        <time>2011-09-10T13:04:41Z</time>
      </trkpt>
      <trkpt lat="45.67896" lon="6.25389">
        <ele>1878.856323</ele>
        <time>2011-09-10T13:04:46Z</time>
      </trkpt>
      <trkpt lat="45.67897" lon="6.25391">
        <ele>1879.437378</ele>
        <time>2011-09-10T13:04:51Z</time>
      </trkpt>
      <trkpt lat="45.67898" lon="6.25392">
        <ele>1879.803955</ele>
        <time>2011-09-10T13:04:56Z</time>
      </trkpt>
      <trkpt lat="45.67899" lon="6.25395">
        <ele>1880.57373</ele>
        <time>2011-09-10T13:05:01Z</time>
      </trkpt>
      <trkpt lat="45.67899" lon="6.254">
        <ele>1881.214478</ele>
        <time>2011-09-10T13:05:06Z</time>
      </trkpt>
      <trkpt lat="45.67899" lon="6.25405">
        <ele>1881.759521</ele>
        <time>2011-09-10T13:05:11Z</time>
      </trkpt>
      <trkpt lat="45.67901" lon="6.25407">
        <ele>1881.92395</ele>
        <time>2011-09-10T13:05:16Z</time>
      </trkpt>
      <trkpt lat="45.67902" lon="6.25408">
        <ele>1882.007324</ele>
        <time>2011-09-10T13:05:21Z</time>
      </trkpt>
      <trkpt lat="45.67903" lon="6.2541">
        <ele>1882.345093</ele>
        <time>2011-09-10T13:05:26Z</time>
      </trkpt>
      <trkpt lat="45.67904" lon="6.25412">
        <ele>1882.599976</ele>
        <time>2011-09-10T13:05:31Z</time>
      </trkpt>
      <trkpt lat="45.67906" lon="6.25414">
        <ele>1883.075928</ele>
        <time>2011-09-10T13:05:36Z</time>
      </trkpt>
      <trkpt lat="45.67906" lon="6.25417">
        <ele>1883.653931</ele>
        <time>2011-09-10T13:05:41Z</time>
      </trkpt>
      <trkpt lat="45.67908" lon="6.25419">
        <ele>1884.098267</ele>
        <time>2011-09-10T13:05:46Z</time>
      </trkpt>
      <trkpt lat="45.67909" lon="6.2542">
        <ele>1884.639038</ele>
        <time>2011-09-10T13:05:51Z</time>
      </trkpt>
      <trkpt lat="45.67911" lon="6.25422">
        <ele>1885.274048</ele>
        <time>2011-09-10T13:05:56Z</time>
      </trkpt>
      <trkpt lat="45.67912" lon="6.25424">
        <ele>1885.787354</ele>
        <time>2011-09-10T13:06:01Z</time>
      </trkpt>
      <trkpt lat="45.67913" lon="6.25426">
        <ele>1886.614868</ele>
        <time>2011-09-10T13:06:06Z</time>
      </trkpt>
      <trkpt lat="45.67913" lon="6.25429">
        <ele>1887.526978</ele>
        <time>2011-09-10T13:06:11Z</time>
      </trkpt>
      <trkpt lat="45.67915" lon="6.2543">
        <ele>1888.085571</ele>
        <time>2011-09-10T13:06:16Z</time>
      </trkpt>
      <trkpt lat="45.67915" lon="6.25432">
        <ele>1889.056641</ele>
        <time>2011-09-10T13:06:21Z</time>
      </trkpt>
      <trkpt lat="45.67916" lon="6.25434">
        <ele>1890.066772</ele>
        <time>2011-09-10T13:06:26Z</time>
      </trkpt>
      <trkpt lat="45.67917" lon="6.25436">
        <ele>1890.873657</ele>
        <time>2011-09-10T13:06:31Z</time>
      </trkpt>
      <trkpt lat="45.67918" lon="6.25437">
        <ele>1891.754761</ele>
        <time>2011-09-10T13:06:36Z</time>
      </trkpt>
      <trkpt lat="45.67919" lon="6.25439">
        <ele>1892.785034</ele>
        <time>2011-09-10T13:06:41Z</time>
      </trkpt>
      <trkpt lat="45.67919" lon="6.25442">
        <ele>1893.985596</ele>
        <time>2011-09-10T13:06:46Z</time>
      </trkpt>
      <trkpt lat="45.6792" lon="6.25444">
        <ele>1894.908813</ele>
        <time>2011-09-10T13:06:51Z</time>
      </trkpt>
      <trkpt lat="45.6792" lon="6.25445">
        <ele>1895.842651</ele>
        <time>2011-09-10T13:06:56Z</time>
      </trkpt>
      <trkpt lat="45.67921" lon="6.25446">
        <ele>1896.31543</ele>
        <time>2011-09-10T13:07:01Z</time>
      </trkpt>
      <trkpt lat="45.67921" lon="6.25447">
        <ele>1896.807495</ele>
        <time>2011-09-10T13:07:06Z</time>
      </trkpt>
      <trkpt lat="45.67922" lon="6.25448">
        <ele>1897.368774</ele>
        <time>2011-09-10T13:07:11Z</time>
      </trkpt>
      <trkpt lat="45.67922" lon="6.25449">
        <ele>1898.082397</ele>
        <time>2011-09-10T13:07:16Z</time>
      </trkpt>
      <trkpt lat="45.67923" lon="6.2545">
        <ele>1898.894653</ele>
        <time>2011-09-10T13:07:21Z</time>
      </trkpt>
      <trkpt lat="45.67923" lon="6.25452">
        <ele>1900.213257</ele>
        <time>2011-09-10T13:07:26Z</time>
      </trkpt>
      <trkpt lat="45.67924" lon="6.25453">
        <ele>1900.516479</ele>
        <time>2011-09-10T13:07:31Z</time>
      </trkpt>
      <trkpt lat="45.67925" lon="6.25453">
        <ele>1901.138428</ele>
        <time>2011-09-10T13:07:36Z</time>
      </trkpt>
      <trkpt lat="45.67926" lon="6.25453">
        <ele>1901.67395</ele>
        <time>2011-09-10T13:07:41Z</time>
      </trkpt>
      <trkpt lat="45.67928" lon="6.25455">
        <ele>1903.463623</ele>
        <time>2011-09-10T13:07:46Z</time>
      </trkpt>
      <trkpt lat="45.67928" lon="6.25457">
        <ele>1904.447998</ele>
        <time>2011-09-10T13:07:51Z</time>
      </trkpt>
      <trkpt lat="45.67928" lon="6.25458">
        <ele>1905.115356</ele>
        <time>2011-09-10T13:07:56Z</time>
      </trkpt>
      <trkpt lat="45.67928" lon="6.25461">
        <ele>1906.099854</ele>
        <time>2011-09-10T13:08:01Z</time>
      </trkpt>
      <trkpt lat="45.67927" lon="6.25463">
        <ele>1906.411743</ele>
        <time>2011-09-10T13:08:06Z</time>
      </trkpt>
      <trkpt lat="45.67928" lon="6.25465">
        <ele>1907.313599</ele>
        <time>2011-09-10T13:08:11Z</time>
      </trkpt>
      <trkpt lat="45.67928" lon="6.25467">
        <ele>1907.962646</ele>
        <time>2011-09-10T13:08:16Z</time>
      </trkpt>
      <trkpt lat="45.6793" lon="6.25469">
        <ele>1909.071777</ele>
        <time>2011-09-10T13:08:21Z</time>
      </trkpt>
      <trkpt lat="45.67931" lon="6.25472">
        <ele>1910.230957</ele>
        <time>2011-09-10T13:08:26Z</time>
      </trkpt>
      <trkpt lat="45.67931" lon="6.25474">
        <ele>1911.099365</ele>
        <time>2011-09-10T13:08:31Z</time>
      </trkpt>
      <trkpt lat="45.67933" lon="6.25475">
        <ele>1912.015747</ele>
        <time>2011-09-10T13:08:36Z</time>
      </trkpt>
      <trkpt lat="45.67935" lon="6.25478">
        <ele>1913.718506</ele>
        <time>2011-09-10T13:08:41Z</time>
      </trkpt>
      <trkpt lat="45.67935" lon="6.2548">
        <ele>1914.16748</ele>
        <time>2011-09-10T13:08:46Z</time>
      </trkpt>
      <trkpt lat="45.67937" lon="6.25482">
        <ele>1914.095703</ele>
        <time>2011-09-10T13:08:51Z</time>
      </trkpt>
      <trkpt lat="45.67938" lon="6.25486">
        <ele>1914.640259</ele>
        <time>2011-09-10T13:08:56Z</time>
      </trkpt>
      <trkpt lat="45.67938" lon="6.25489">
        <ele>1915.317749</ele>
        <time>2011-09-10T13:09:01Z</time>
      </trkpt>
      <trkpt lat="45.67938" lon="6.25491">
        <ele>1915.86145</ele>
        <time>2011-09-10T13:09:06Z</time>
      </trkpt>
      <trkpt lat="45.67939" lon="6.25494">
        <ele>1916.266846</ele>
        <time>2011-09-10T13:09:11Z</time>
      </trkpt>
      <trkpt lat="45.67939" lon="6.25497">
        <ele>1916.962158</ele>
        <time>2011-09-10T13:09:16Z</time>
      </trkpt>
      <trkpt lat="45.67939" lon="6.25497">
        <ele>1917.074097</ele>
        <time>2011-09-10T13:09:21Z</time>
      </trkpt>
      <trkpt lat="45.67939" lon="6.25498">
        <ele>1917.111694</ele>
        <time>2011-09-10T13:09:26Z</time>
      </trkpt>
      <trkpt lat="45.67939" lon="6.25497">
        <ele>1916.996216</ele>
        <time>2011-09-10T13:09:31Z</time>
      </trkpt>
      <trkpt lat="45.67939" lon="6.25497">
        <ele>1917.074097</ele>
        <time>2011-09-10T13:09:36Z</time>
      </trkpt>
      <trkpt lat="45.67939" lon="6.25498">
        <ele>1917.111694</ele>
        <time>2011-09-10T13:09:41Z</time>
      </trkpt>
      <trkpt lat="45.67939" lon="6.255">
        <ele>1917.506714</ele>
        <time>2011-09-10T13:09:46Z</time>
      </trkpt>
      <trkpt lat="45.6794" lon="6.25503">
        <ele>1918.175293</ele>
        <time>2011-09-10T13:09:51Z</time>
      </trkpt>
      <trkpt lat="45.6794" lon="6.25503">
        <ele>1918.308838</ele>
        <time>2011-09-10T13:09:56Z</time>
      </trkpt>
      <trkpt lat="45.6794" lon="6.25504">
        <ele>1918.385132</ele>
        <time>2011-09-10T13:10:01Z</time>
      </trkpt>
      <trkpt lat="45.6794" lon="6.25504">
        <ele>1918.385132</ele>
        <time>2011-09-10T13:10:06Z</time>
      </trkpt>
      <trkpt lat="45.6794" lon="6.25504">
        <ele>1918.346924</ele>
        <time>2011-09-10T13:10:11Z</time>
      </trkpt>
      <trkpt lat="45.6794" lon="6.25506">
        <ele>1918.948486</ele>
        <time>2011-09-10T13:10:16Z</time>
      </trkpt>
      <trkpt lat="45.67941" lon="6.2551">
        <ele>1919.569458</ele>
        <time>2011-09-10T13:10:21Z</time>
      </trkpt>
      <trkpt lat="45.67941" lon="6.25513">
        <ele>1920.253662</ele>
        <time>2011-09-10T13:10:26Z</time>
      </trkpt>
      <trkpt lat="45.67943" lon="6.25516">
        <ele>1920.935425</ele>
        <time>2011-09-10T13:10:31Z</time>
      </trkpt>
      <trkpt lat="45.67943" lon="6.2552">
        <ele>1921.665771</ele>
        <time>2011-09-10T13:10:36Z</time>
      </trkpt>
      <trkpt lat="45.67945" lon="6.25522">
        <ele>1922.193237</ele>
        <time>2011-09-10T13:10:41Z</time>
      </trkpt>
      <trkpt lat="45.67946" lon="6.25525">
        <ele>1922.77771</ele>
        <time>2011-09-10T13:10:46Z</time>
      </trkpt>
      <trkpt lat="45.67947" lon="6.25529">
        <ele>1923.421875</ele>
        <time>2011-09-10T13:10:51Z</time>
      </trkpt>
      <trkpt lat="45.67947" lon="6.25532">
        <ele>1924.126221</ele>
        <time>2011-09-10T13:10:56Z</time>
      </trkpt>
      <trkpt lat="45.67948" lon="6.25536">
        <ele>1924.94812</ele>
        <time>2011-09-10T13:11:01Z</time>
      </trkpt>
      <trkpt lat="45.67949" lon="6.25539">
        <ele>1925.642456</ele>
        <time>2011-09-10T13:11:06Z</time>
      </trkpt>
      <trkpt lat="45.6795" lon="6.25542">
        <ele>1926.412231</ele>
        <time>2011-09-10T13:11:11Z</time>
      </trkpt>
      <trkpt lat="45.67951" lon="6.25545">
        <ele>1927.050781</ele>
        <time>2011-09-10T13:11:16Z</time>
      </trkpt>
      <trkpt lat="45.67952" lon="6.25548">
        <ele>1927.924194</ele>
        <time>2011-09-10T13:11:21Z</time>
      </trkpt>
      <trkpt lat="45.67953" lon="6.25551">
        <ele>1928.946655</ele>
        <time>2011-09-10T13:11:26Z</time>
      </trkpt>
      <trkpt lat="45.67954" lon="6.25554">
        <ele>1930.038452</ele>
        <time>2011-09-10T13:11:31Z</time>
      </trkpt>
      <trkpt lat="45.67955" lon="6.25558">
        <ele>1931.439941</ele>
        <time>2011-09-10T13:11:36Z</time>
      </trkpt>
      <trkpt lat="45.67955" lon="6.25561">
        <ele>1932.256836</ele>
        <time>2011-09-10T13:11:41Z</time>
      </trkpt>
      <trkpt lat="45.67957" lon="6.25565">
        <ele>1933.901733</ele>
        <time>2011-09-10T13:11:46Z</time>
      </trkpt>
      <trkpt lat="45.67958" lon="6.25569">
        <ele>1935.575684</ele>
        <time>2011-09-10T13:11:51Z</time>
      </trkpt>
      <trkpt lat="45.67959" lon="6.25574">
        <ele>1937.446655</ele>
        <time>2011-09-10T13:11:56Z</time>
      </trkpt>
      <trkpt lat="45.6796" lon="6.25578">
        <ele>1939.192261</ele>
        <time>2011-09-10T13:12:01Z</time>
      </trkpt>
      <trkpt lat="45.6796" lon="6.25582">
        <ele>1940.945801</ele>
        <time>2011-09-10T13:12:06Z</time>
      </trkpt>
      <trkpt lat="45.67961" lon="6.25586">
        <ele>1942.922974</ele>
        <time>2011-09-10T13:12:11Z</time>
      </trkpt>
      <trkpt lat="45.67962" lon="6.2559">
        <ele>1944.806763</ele>
        <time>2011-09-10T13:12:16Z</time>
      </trkpt>
      <trkpt lat="45.67962" lon="6.25594">
        <ele>1945.67981</ele>
        <time>2011-09-10T13:12:21Z</time>
      </trkpt>
      <trkpt lat="45.67963" lon="6.25597">
        <ele>1946.1875</ele>
        <time>2011-09-10T13:12:26Z</time>
      </trkpt>
      <trkpt lat="45.67963" lon="6.25601">
        <ele>1946.999512</ele>
        <time>2011-09-10T13:12:31Z</time>
      </trkpt>
      <trkpt lat="45.67965" lon="6.25603">
        <ele>1947.91626</ele>
        <time>2011-09-10T13:12:36Z</time>
      </trkpt>
      <trkpt lat="45.67966" lon="6.25603">
        <ele>1948.816895</ele>
        <time>2011-09-10T13:12:41Z</time>
      </trkpt>
      <trkpt lat="45.67967" lon="6.25606">
        <ele>1949.799438</ele>
        <time>2011-09-10T13:12:46Z</time>
      </trkpt>
      <trkpt lat="45.67968" lon="6.25608">
        <ele>1950.72876</ele>
        <time>2011-09-10T13:12:51Z</time>
      </trkpt>
      <trkpt lat="45.67969" lon="6.2561">
        <ele>1951.583252</ele>
        <time>2011-09-10T13:12:56Z</time>
      </trkpt>
      <trkpt lat="45.6797" lon="6.25612">
        <ele>1952.204468</ele>
        <time>2011-09-10T13:13:01Z</time>
      </trkpt>
      <trkpt lat="45.6797" lon="6.25614">
        <ele>1953.026123</ele>
        <time>2011-09-10T13:13:06Z</time>
      </trkpt>
      <trkpt lat="45.6797" lon="6.25614">
        <ele>1953.026123</ele>
        <time>2011-09-10T13:13:11Z</time>
      </trkpt>
      <trkpt lat="45.67973" lon="6.25616">
        <ele>1954.747559</ele>
        <time>2011-09-10T13:13:16Z</time>
      </trkpt>
      <trkpt lat="45.67974" lon="6.25617">
        <ele>1955.785278</ele>
        <time>2011-09-10T13:13:21Z</time>
      </trkpt>
      <trkpt lat="45.67975" lon="6.25618">
        <ele>1956.469116</ele>
        <time>2011-09-10T13:13:26Z</time>
      </trkpt>
      <trkpt lat="45.67976" lon="6.2562">
        <ele>1956.605225</ele>
        <time>2011-09-10T13:13:31Z</time>
      </trkpt>
      <trkpt lat="45.67977" lon="6.25622">
        <ele>1956.876221</ele>
        <time>2011-09-10T13:13:36Z</time>
      </trkpt>
      <trkpt lat="45.67978" lon="6.25624">
        <ele>1957.14563</ele>
        <time>2011-09-10T13:13:41Z</time>
      </trkpt>
      <trkpt lat="45.6798" lon="6.25625">
        <ele>1957.332275</ele>
        <time>2011-09-10T13:13:46Z</time>
      </trkpt>
      <trkpt lat="45.6798" lon="6.25627">
        <ele>1957.587524</ele>
        <time>2011-09-10T13:13:51Z</time>
      </trkpt>
      <trkpt lat="45.67981" lon="6.2563">
        <ele>1958.229736</ele>
        <time>2011-09-10T13:13:56Z</time>
      </trkpt>
      <trkpt lat="45.67981" lon="6.25633">
        <ele>1958.768799</ele>
        <time>2011-09-10T13:14:01Z</time>
      </trkpt>
      <trkpt lat="45.67983" lon="6.25634">
        <ele>1959.121704</ele>
        <time>2011-09-10T13:14:06Z</time>
      </trkpt>
      <trkpt lat="45.67983" lon="6.25636">
        <ele>1959.57312</ele>
        <time>2011-09-10T13:14:11Z</time>
      </trkpt>
      <trkpt lat="45.67984" lon="6.25639">
        <ele>1960.222046</ele>
        <time>2011-09-10T13:14:16Z</time>
      </trkpt>
      <trkpt lat="45.67984" lon="6.25642">
        <ele>1960.884766</ele>
        <time>2011-09-10T13:14:21Z</time>
      </trkpt>
      <trkpt lat="45.67985" lon="6.25644">
        <ele>1961.595825</ele>
        <time>2011-09-10T13:14:26Z</time>
      </trkpt>
      <trkpt lat="45.67986" lon="6.25646">
        <ele>1962.098999</ele>
        <time>2011-09-10T13:14:31Z</time>
      </trkpt>
      <trkpt lat="45.67987" lon="6.25648">
        <ele>1962.733276</ele>
        <time>2011-09-10T13:14:36Z</time>
      </trkpt>
      <trkpt lat="45.67988" lon="6.2565">
        <ele>1963.409302</ele>
        <time>2011-09-10T13:14:41Z</time>
      </trkpt>
      <trkpt lat="45.67989" lon="6.25652">
        <ele>1964.014404</ele>
        <time>2011-09-10T13:14:46Z</time>
      </trkpt>
      <trkpt lat="45.67989" lon="6.25654">
        <ele>1964.723755</ele>
        <time>2011-09-10T13:14:51Z</time>
      </trkpt>
      <trkpt lat="45.6799" lon="6.25655">
        <ele>1965.058716</ele>
        <time>2011-09-10T13:14:56Z</time>
      </trkpt>
      <trkpt lat="45.6799" lon="6.25655">
        <ele>1965.058716</ele>
        <time>2011-09-10T13:15:01Z</time>
      </trkpt>
      <trkpt lat="45.6799" lon="6.25655">
        <ele>1965.058716</ele>
        <time>2011-09-10T13:15:06Z</time>
      </trkpt>
      <trkpt lat="45.6799" lon="6.25656">
        <ele>1965.223877</ele>
        <time>2011-09-10T13:15:11Z</time>
      </trkpt>
      <trkpt lat="45.67991" lon="6.25658">
        <ele>1965.836426</ele>
        <time>2011-09-10T13:15:16Z</time>
      </trkpt>
      <trkpt lat="45.67992" lon="6.2566">
        <ele>1966.456665</ele>
        <time>2011-09-10T13:15:21Z</time>
      </trkpt>
      <trkpt lat="45.67993" lon="6.25661">
        <ele>1966.874512</ele>
        <time>2011-09-10T13:15:26Z</time>
      </trkpt>
      <trkpt lat="45.67995" lon="6.25663">
        <ele>1967.445068</ele>
        <time>2011-09-10T13:15:31Z</time>
      </trkpt>
      <trkpt lat="45.67996" lon="6.25664">
        <ele>1968.088745</ele>
        <time>2011-09-10T13:15:36Z</time>
      </trkpt>
      <trkpt lat="45.67997" lon="6.25666">
        <ele>1968.504517</ele>
        <time>2011-09-10T13:15:41Z</time>
      </trkpt>
      <trkpt lat="45.67999" lon="6.25666">
        <ele>1969.066284</ele>
        <time>2011-09-10T13:15:46Z</time>
      </trkpt>
      <trkpt lat="45.68" lon="6.25667">
        <ele>1969.698242</ele>
        <time>2011-09-10T13:15:51Z</time>
      </trkpt>
      <trkpt lat="45.68" lon="6.2567">
        <ele>1970.292847</ele>
        <time>2011-09-10T13:15:56Z</time>
      </trkpt>
      <trkpt lat="45.68001" lon="6.25671">
        <ele>1970.93689</ele>
        <time>2011-09-10T13:16:01Z</time>
      </trkpt>
      <trkpt lat="45.68002" lon="6.25673">
        <ele>1971.759888</ele>
        <time>2011-09-10T13:16:06Z</time>
      </trkpt>
      <trkpt lat="45.68003" lon="6.25675">
        <ele>1972.48584</ele>
        <time>2011-09-10T13:16:11Z</time>
      </trkpt>
      <trkpt lat="45.68004" lon="6.25676">
        <ele>1973.337646</ele>
        <time>2011-09-10T13:16:16Z</time>
      </trkpt>
      <trkpt lat="45.68005" lon="6.25677">
        <ele>1973.998291</ele>
        <time>2011-09-10T13:16:21Z</time>
      </trkpt>
      <trkpt lat="45.68006" lon="6.25676">
        <ele>1974.10791</ele>
        <time>2011-09-10T13:16:26Z</time>
      </trkpt>
      <trkpt lat="45.68008" lon="6.25676">
        <ele>1974.787964</ele>
        <time>2011-09-10T13:16:31Z</time>
      </trkpt>
      <trkpt lat="45.6801" lon="6.25677">
        <ele>1975.601196</ele>
        <time>2011-09-10T13:16:36Z</time>
      </trkpt>
      <trkpt lat="45.68012" lon="6.25678">
        <ele>1976.540283</ele>
        <time>2011-09-10T13:16:41Z</time>
      </trkpt>
      <trkpt lat="45.68013" lon="6.2568">
        <ele>1977.696533</ele>
        <time>2011-09-10T13:16:46Z</time>
      </trkpt>
      <trkpt lat="45.68013" lon="6.25682">
        <ele>1978.604492</ele>
        <time>2011-09-10T13:16:51Z</time>
      </trkpt>
      <trkpt lat="45.68014" lon="6.25684">
        <ele>1979.996704</ele>
        <time>2011-09-10T13:16:56Z</time>
      </trkpt>
      <trkpt lat="45.68015" lon="6.25686">
        <ele>1981.080566</ele>
        <time>2011-09-10T13:17:01Z</time>
      </trkpt>
      <trkpt lat="45.68015" lon="6.25686">
        <ele>1981.216309</ele>
        <time>2011-09-10T13:17:06Z</time>
      </trkpt>
      <trkpt lat="45.68015" lon="6.25686">
        <ele>1981.148438</ele>
        <time>2011-09-10T13:17:11Z</time>
      </trkpt>
      <trkpt lat="45.68015" lon="6.25686">
        <ele>1981.148438</ele>
        <time>2011-09-10T13:17:16Z</time>
      </trkpt>
      <trkpt lat="45.68015" lon="6.25686">
        <ele>1981.148438</ele>
        <time>2011-09-10T13:17:21Z</time>
      </trkpt>
      <trkpt lat="45.68014" lon="6.25686">
        <ele>1980.795044</ele>
        <time>2011-09-10T13:17:26Z</time>
      </trkpt>
      <trkpt lat="45.68014" lon="6.25686">
        <ele>1980.727783</ele>
        <time>2011-09-10T13:17:31Z</time>
      </trkpt>
      <trkpt lat="45.68015" lon="6.25686">
        <ele>1981.012695</ele>
        <time>2011-09-10T13:17:36Z</time>
      </trkpt>
      <trkpt lat="45.68017" lon="6.25687">
        <ele>1982.281616</ele>
        <time>2011-09-10T13:17:41Z</time>
      </trkpt>
      <trkpt lat="45.68019" lon="6.2569">
        <ele>1984.017334</ele>
        <time>2011-09-10T13:17:46Z</time>
      </trkpt>
      <trkpt lat="45.68021" lon="6.25692">
        <ele>1985.277344</ele>
        <time>2011-09-10T13:17:51Z</time>
      </trkpt>
      <trkpt lat="45.68022" lon="6.25695">
        <ele>1986.705078</ele>
        <time>2011-09-10T13:17:56Z</time>
      </trkpt>
      <trkpt lat="45.68023" lon="6.25697">
        <ele>1987.744385</ele>
        <time>2011-09-10T13:18:01Z</time>
      </trkpt>
      <trkpt lat="45.68026" lon="6.257">
        <ele>1989.045654</ele>
        <time>2011-09-10T13:18:06Z</time>
      </trkpt>
      <trkpt lat="45.68027" lon="6.25702">
        <ele>1990.112793</ele>
        <time>2011-09-10T13:18:11Z</time>
      </trkpt>
      <trkpt lat="45.68028" lon="6.25703">
        <ele>1991.069946</ele>
        <time>2011-09-10T13:18:16Z</time>
      </trkpt>
      <trkpt lat="45.68029" lon="6.25706">
        <ele>1992.401855</ele>
        <time>2011-09-10T13:18:21Z</time>
      </trkpt>
      <trkpt lat="45.68029" lon="6.25708">
        <ele>1993.633179</ele>
        <time>2011-09-10T13:18:26Z</time>
      </trkpt>
      <trkpt lat="45.6803" lon="6.2571">
        <ele>1994.7229</ele>
        <time>2011-09-10T13:18:31Z</time>
      </trkpt>
      <trkpt lat="45.68031" lon="6.25711">
        <ele>1995.325439</ele>
        <time>2011-09-10T13:18:36Z</time>
      </trkpt>
      <trkpt lat="45.68033" lon="6.25712">
        <ele>1995.98877</ele>
        <time>2011-09-10T13:18:41Z</time>
      </trkpt>
      <trkpt lat="45.68034" lon="6.25714">
        <ele>1997.118286</ele>
        <time>2011-09-10T13:18:46Z</time>
      </trkpt>
      <trkpt lat="45.68036" lon="6.25716">
        <ele>1998.147461</ele>
        <time>2011-09-10T13:18:51Z</time>
      </trkpt>
      <trkpt lat="45.68037" lon="6.25717">
        <ele>1999.253662</ele>
        <time>2011-09-10T13:18:56Z</time>
      </trkpt>
      <trkpt lat="45.68039" lon="6.25719">
        <ele>2000.606201</ele>
        <time>2011-09-10T13:19:01Z</time>
      </trkpt>
      <trkpt lat="45.68041" lon="6.25722">
        <ele>2002.354736</ele>
        <time>2011-09-10T13:19:06Z</time>
      </trkpt>
      <trkpt lat="45.68041" lon="6.25724">
        <ele>2003.716187</ele>
        <time>2011-09-10T13:19:11Z</time>
      </trkpt>
      <trkpt lat="45.68042" lon="6.25727">
        <ele>2004.630005</ele>
        <time>2011-09-10T13:19:16Z</time>
      </trkpt>
      <trkpt lat="45.68044" lon="6.25729">
        <ele>2005.571289</ele>
        <time>2011-09-10T13:19:21Z</time>
      </trkpt>
      <trkpt lat="45.68046" lon="6.25731">
        <ele>2006.316284</ele>
        <time>2011-09-10T13:19:26Z</time>
      </trkpt>
      <trkpt lat="45.68047" lon="6.25734">
        <ele>2007.239624</ele>
        <time>2011-09-10T13:19:31Z</time>
      </trkpt>
      <trkpt lat="45.68048" lon="6.25736">
        <ele>2008.160034</ele>
        <time>2011-09-10T13:19:36Z</time>
      </trkpt>
      <trkpt lat="45.68049" lon="6.25739">
        <ele>2008.931763</ele>
        <time>2011-09-10T13:19:41Z</time>
      </trkpt>
      <trkpt lat="45.6805" lon="6.25741">
        <ele>2009.947998</ele>
        <time>2011-09-10T13:19:46Z</time>
      </trkpt>
      <trkpt lat="45.68052" lon="6.25744">
        <ele>2011.161255</ele>
        <time>2011-09-10T13:19:51Z</time>
      </trkpt>
      <trkpt lat="45.68052" lon="6.25748">
        <ele>2012.238647</ele>
        <time>2011-09-10T13:19:56Z</time>
      </trkpt>
      <trkpt lat="45.68053" lon="6.25751">
        <ele>2013.49646</ele>
        <time>2011-09-10T13:20:01Z</time>
      </trkpt>
      <trkpt lat="45.68054" lon="6.25753">
        <ele>2014.608276</ele>
        <time>2011-09-10T13:20:06Z</time>
      </trkpt>
      <trkpt lat="45.68055" lon="6.25756">
        <ele>2015.935059</ele>
        <time>2011-09-10T13:20:11Z</time>
      </trkpt>
      <trkpt lat="45.68056" lon="6.25758">
        <ele>2017.028442</ele>
        <time>2011-09-10T13:20:16Z</time>
      </trkpt>
      <trkpt lat="45.68057" lon="6.25761">
        <ele>2018.474976</ele>
        <time>2011-09-10T13:20:21Z</time>
      </trkpt>
      <trkpt lat="45.68058" lon="6.25764">
        <ele>2019.636597</ele>
        <time>2011-09-10T13:20:26Z</time>
      </trkpt>
      <trkpt lat="45.68059" lon="6.25767">
        <ele>2021.011841</ele>
        <time>2011-09-10T13:20:31Z</time>
      </trkpt>
      <trkpt lat="45.6806" lon="6.25769">
        <ele>2022.061035</ele>
        <time>2011-09-10T13:20:36Z</time>
      </trkpt>
      <trkpt lat="45.68062" lon="6.25771">
        <ele>2022.908569</ele>
        <time>2011-09-10T13:20:41Z</time>
      </trkpt>
      <trkpt lat="45.68062" lon="6.25773">
        <ele>2023.824585</ele>
        <time>2011-09-10T13:20:46Z</time>
      </trkpt>
      <trkpt lat="45.68062" lon="6.25775">
        <ele>2024.757935</ele>
        <time>2011-09-10T13:20:51Z</time>
      </trkpt>
      <trkpt lat="45.68064" lon="6.25777">
        <ele>2025.801147</ele>
        <time>2011-09-10T13:20:56Z</time>
      </trkpt>
      <trkpt lat="45.68065" lon="6.25778">
        <ele>2026.483032</ele>
        <time>2011-09-10T13:21:01Z</time>
      </trkpt>
      <trkpt lat="45.68066" lon="6.25779">
        <ele>2027.062256</ele>
        <time>2011-09-10T13:21:06Z</time>
      </trkpt>
      <trkpt lat="45.68067" lon="6.2578">
        <ele>2027.843506</ele>
        <time>2011-09-10T13:21:11Z</time>
      </trkpt>
      <trkpt lat="45.68068" lon="6.25782">
        <ele>2028.939087</ele>
        <time>2011-09-10T13:21:16Z</time>
      </trkpt>
      <trkpt lat="45.68069" lon="6.25784">
        <ele>2029.947998</ele>
        <time>2011-09-10T13:21:21Z</time>
      </trkpt>
      <trkpt lat="45.6807" lon="6.25786">
        <ele>2030.972168</ele>
        <time>2011-09-10T13:21:26Z</time>
      </trkpt>
      <trkpt lat="45.6807" lon="6.25788">
        <ele>2032.064453</ele>
        <time>2011-09-10T13:21:31Z</time>
      </trkpt>
      <trkpt lat="45.68071" lon="6.25789">
        <ele>2033.018555</ele>
        <time>2011-09-10T13:21:36Z</time>
      </trkpt>
      <trkpt lat="45.68071" lon="6.25791">
        <ele>2034.015503</ele>
        <time>2011-09-10T13:21:41Z</time>
      </trkpt>
      <trkpt lat="45.68071" lon="6.25794">
        <ele>2033.777954</ele>
        <time>2011-09-10T13:21:46Z</time>
      </trkpt>
      <trkpt lat="45.68072" lon="6.25795">
        <ele>2033.931519</ele>
        <time>2011-09-10T13:21:51Z</time>
      </trkpt>
      <trkpt lat="45.68073" lon="6.25797">
        <ele>2033.678223</ele>
        <time>2011-09-10T13:21:56Z</time>
      </trkpt>
      <trkpt lat="45.68073" lon="6.25799">
        <ele>2033.744873</ele>
        <time>2011-09-10T13:22:01Z</time>
      </trkpt>
      <trkpt lat="45.68074" lon="6.258">
        <ele>2033.896606</ele>
        <time>2011-09-10T13:22:06Z</time>
      </trkpt>
      <trkpt lat="45.68075" lon="6.25802">
        <ele>2033.941406</ele>
        <time>2011-09-10T13:22:11Z</time>
      </trkpt>
      <trkpt lat="45.68076" lon="6.25804">
        <ele>2033.909546</ele>
        <time>2011-09-10T13:22:16Z</time>
      </trkpt>
      <trkpt lat="45.68076" lon="6.25806">
        <ele>2034.07373</ele>
        <time>2011-09-10T13:22:21Z</time>
      </trkpt>
      <trkpt lat="45.68077" lon="6.25806">
        <ele>2034.378906</ele>
        <time>2011-09-10T13:22:26Z</time>
      </trkpt>
      <trkpt lat="45.68078" lon="6.25807">
        <ele>2034.478516</ele>
        <time>2011-09-10T13:22:31Z</time>
      </trkpt>
      <trkpt lat="45.68079" lon="6.25809">
        <ele>2034.760376</ele>
        <time>2011-09-10T13:22:36Z</time>
      </trkpt>
      <trkpt lat="45.6808" lon="6.2581">
        <ele>2035.057129</ele>
        <time>2011-09-10T13:22:41Z</time>
      </trkpt>
      <trkpt lat="45.68081" lon="6.25811">
        <ele>2035.083984</ele>
        <time>2011-09-10T13:22:46Z</time>
      </trkpt>
      <trkpt lat="45.68081" lon="6.25813">
        <ele>2035.244263</ele>
        <time>2011-09-10T13:22:51Z</time>
      </trkpt>
      <trkpt lat="45.68083" lon="6.25814">
        <ele>2035.509277</ele>
        <time>2011-09-10T13:22:56Z</time>
      </trkpt>
      <trkpt lat="45.68084" lon="6.25816">
        <ele>2035.707886</ele>
        <time>2011-09-10T13:23:01Z</time>
      </trkpt>
      <trkpt lat="45.68085" lon="6.25817">
        <ele>2035.978027</ele>
        <time>2011-09-10T13:23:06Z</time>
      </trkpt>
      <trkpt lat="45.68085" lon="6.25819">
        <ele>2035.992798</ele>
        <time>2011-09-10T13:23:11Z</time>
      </trkpt>
      <trkpt lat="45.68086" lon="6.2582">
        <ele>2036.221802</ele>
        <time>2011-09-10T13:23:16Z</time>
      </trkpt>
      <trkpt lat="45.68087" lon="6.25821">
        <ele>2036.583374</ele>
        <time>2011-09-10T13:23:21Z</time>
      </trkpt>
      <trkpt lat="45.68088" lon="6.25822">
        <ele>2036.769409</ele>
        <time>2011-09-10T13:23:26Z</time>
      </trkpt>
      <trkpt lat="45.68089" lon="6.25823">
        <ele>2037.254028</ele>
        <time>2011-09-10T13:23:31Z</time>
      </trkpt>
      <trkpt lat="45.68091" lon="6.25823">
        <ele>2037.83374</ele>
        <time>2011-09-10T13:23:36Z</time>
      </trkpt>
      <trkpt lat="45.68092" lon="6.25824">
        <ele>2037.999268</ele>
        <time>2011-09-10T13:23:41Z</time>
      </trkpt>
      <trkpt lat="45.68092" lon="6.25824">
        <ele>2038.366699</ele>
        <time>2011-09-10T13:23:46Z</time>
      </trkpt>
      <trkpt lat="45.68094" lon="6.25824">
        <ele>2038.876221</ele>
        <time>2011-09-10T13:23:51Z</time>
      </trkpt>
      <trkpt lat="45.68096" lon="6.25823">
        <ele>2040.022827</ele>
        <time>2011-09-10T13:23:56Z</time>
      </trkpt>
      <trkpt lat="45.68097" lon="6.25823">
        <ele>2040.71875</ele>
        <time>2011-09-10T13:24:01Z</time>
      </trkpt>
      <trkpt lat="45.68098" lon="6.25823">
        <ele>2040.944946</ele>
        <time>2011-09-10T13:24:06Z</time>
      </trkpt>
      <trkpt lat="45.68098" lon="6.25823">
        <ele>2040.968018</ele>
        <time>2011-09-10T13:24:11Z</time>
      </trkpt>
      <trkpt lat="45.68098" lon="6.25823">
        <ele>2040.990967</ele>
        <time>2011-09-10T13:24:16Z</time>
      </trkpt>
      <trkpt lat="45.68099" lon="6.25823">
        <ele>2041.203125</ele>
        <time>2011-09-10T13:24:21Z</time>
      </trkpt>
      <trkpt lat="45.68102" lon="6.25822">
        <ele>2042.7229</ele>
        <time>2011-09-10T13:24:26Z</time>
      </trkpt>
      <trkpt lat="45.68106" lon="6.25823">
        <ele>2044.148804</ele>
        <time>2011-09-10T13:24:31Z</time>
      </trkpt>
      <trkpt lat="45.68109" lon="6.25824">
        <ele>2045.100342</ele>
        <time>2011-09-10T13:24:36Z</time>
      </trkpt>
      <trkpt lat="45.6811" lon="6.25825">
        <ele>2045.581909</ele>
        <time>2011-09-10T13:24:41Z</time>
      </trkpt>
      <trkpt lat="45.68112" lon="6.25826">
        <ele>2046.154175</ele>
        <time>2011-09-10T13:24:46Z</time>
      </trkpt>
      <trkpt lat="45.68114" lon="6.25827">
        <ele>2046.813354</ele>
        <time>2011-09-10T13:24:51Z</time>
      </trkpt>
      <trkpt lat="45.68117" lon="6.25829">
        <ele>2047.619019</ele>
        <time>2011-09-10T13:24:56Z</time>
      </trkpt>
      <trkpt lat="45.68119" lon="6.2583">
        <ele>2048.208252</ele>
        <time>2011-09-10T13:25:01Z</time>
      </trkpt>
      <trkpt lat="45.68122" lon="6.25832">
        <ele>2049.195801</ele>
        <time>2011-09-10T13:25:06Z</time>
      </trkpt>
      <trkpt lat="45.68124" lon="6.25833">
        <ele>2050.098877</ele>
        <time>2011-09-10T13:25:11Z</time>
      </trkpt>
      <trkpt lat="45.68127" lon="6.25835">
        <ele>2051.013184</ele>
        <time>2011-09-10T13:25:16Z</time>
      </trkpt>
      <trkpt lat="45.6813" lon="6.25836">
        <ele>2052.188232</ele>
        <time>2011-09-10T13:25:21Z</time>
      </trkpt>
      <trkpt lat="45.68133" lon="6.25837">
        <ele>2053.324219</ele>
        <time>2011-09-10T13:25:26Z</time>
      </trkpt>
      <trkpt lat="45.68136" lon="6.25837">
        <ele>2054.494873</ele>
        <time>2011-09-10T13:25:31Z</time>
      </trkpt>
      <trkpt lat="45.68139" lon="6.25837">
        <ele>2055.427979</ele>
        <time>2011-09-10T13:25:36Z</time>
      </trkpt>
      <trkpt lat="45.68141" lon="6.25836">
        <ele>2056.324951</ele>
        <time>2011-09-10T13:25:41Z</time>
      </trkpt>
      <trkpt lat="45.68143" lon="6.25837">
        <ele>2057.189453</ele>
        <time>2011-09-10T13:25:46Z</time>
      </trkpt>
      <trkpt lat="45.68145" lon="6.25837">
        <ele>2057.965332</ele>
        <time>2011-09-10T13:25:51Z</time>
      </trkpt>
      <trkpt lat="45.68147" lon="6.25837">
        <ele>2058.51709</ele>
        <time>2011-09-10T13:25:56Z</time>
      </trkpt>
      <trkpt lat="45.68149" lon="6.25838">
        <ele>2059.313965</ele>
        <time>2011-09-10T13:26:01Z</time>
      </trkpt>
      <trkpt lat="45.68151" lon="6.25838">
        <ele>2060.196533</ele>
        <time>2011-09-10T13:26:06Z</time>
      </trkpt>
      <trkpt lat="45.68153" lon="6.25838">
        <ele>2061.167236</ele>
        <time>2011-09-10T13:26:11Z</time>
      </trkpt>
      <trkpt lat="45.68155" lon="6.25839">
        <ele>2061.814453</ele>
        <time>2011-09-10T13:26:16Z</time>
      </trkpt>
      <trkpt lat="45.68157" lon="6.25839">
        <ele>2062.73999</ele>
        <time>2011-09-10T13:26:21Z</time>
      </trkpt>
      <trkpt lat="45.6816" lon="6.2584">
        <ele>2063.846924</ele>
        <time>2011-09-10T13:26:26Z</time>
      </trkpt>
      <trkpt lat="45.68161" lon="6.2584">
        <ele>2064.637939</ele>
        <time>2011-09-10T13:26:31Z</time>
      </trkpt>
      <trkpt lat="45.68163" lon="6.25841">
        <ele>2065.342285</ele>
        <time>2011-09-10T13:26:36Z</time>
      </trkpt>
      <trkpt lat="45.68165" lon="6.25842">
        <ele>2066.103027</ele>
        <time>2011-09-10T13:26:41Z</time>
      </trkpt>
      <trkpt lat="45.68167" lon="6.25843">
        <ele>2067.099365</ele>
        <time>2011-09-10T13:26:46Z</time>
      </trkpt>
      <trkpt lat="45.68169" lon="6.25844">
        <ele>2068.059326</ele>
        <time>2011-09-10T13:26:51Z</time>
      </trkpt>
      <trkpt lat="45.68171" lon="6.25844">
        <ele>2068.916504</ele>
        <time>2011-09-10T13:26:56Z</time>
      </trkpt>
      <trkpt lat="45.68173" lon="6.25845">
        <ele>2069.560791</ele>
        <time>2011-09-10T13:27:01Z</time>
      </trkpt>
      <trkpt lat="45.68175" lon="6.25845">
        <ele>2070.376465</ele>
        <time>2011-09-10T13:27:06Z</time>
      </trkpt>
      <trkpt lat="45.68177" lon="6.25846">
        <ele>2071.388184</ele>
        <time>2011-09-10T13:27:11Z</time>
      </trkpt>
      <trkpt lat="45.68179" lon="6.25846">
        <ele>2072.20752</ele>
        <time>2011-09-10T13:27:16Z</time>
      </trkpt>
      <trkpt lat="45.6818" lon="6.25846">
        <ele>2072.745117</ele>
        <time>2011-09-10T13:27:21Z</time>
      </trkpt>
      <trkpt lat="45.68182" lon="6.25847">
        <ele>2073.606934</ele>
        <time>2011-09-10T13:27:26Z</time>
      </trkpt>
      <trkpt lat="45.68184" lon="6.25848">
        <ele>2074.255371</ele>
        <time>2011-09-10T13:27:31Z</time>
      </trkpt>
      <trkpt lat="45.68186" lon="6.25848">
        <ele>2075.123291</ele>
        <time>2011-09-10T13:27:36Z</time>
      </trkpt>
      <trkpt lat="45.68188" lon="6.25848">
        <ele>2076.050293</ele>
        <time>2011-09-10T13:27:41Z</time>
      </trkpt>
      <trkpt lat="45.6819" lon="6.25849">
        <ele>2076.936523</ele>
        <time>2011-09-10T13:27:46Z</time>
      </trkpt>
      <trkpt lat="45.68192" lon="6.25849">
        <ele>2077.709717</ele>
        <time>2011-09-10T13:27:51Z</time>
      </trkpt>
      <trkpt lat="45.68194" lon="6.25849">
        <ele>2078.910889</ele>
        <time>2011-09-10T13:27:56Z</time>
      </trkpt>
      <trkpt lat="45.68196" lon="6.25849">
        <ele>2079.834961</ele>
        <time>2011-09-10T13:28:01Z</time>
      </trkpt>
      <trkpt lat="45.68198" lon="6.25849">
        <ele>2080.925049</ele>
        <time>2011-09-10T13:28:06Z</time>
      </trkpt>
      <trkpt lat="45.68199" lon="6.25849">
        <ele>2081.68335</ele>
        <time>2011-09-10T13:28:11Z</time>
      </trkpt>
      <trkpt lat="45.682" lon="6.25849">
        <ele>2082.344238</ele>
        <time>2011-09-10T13:28:16Z</time>
      </trkpt>
      <trkpt lat="45.68202" lon="6.2585">
        <ele>2083.185547</ele>
        <time>2011-09-10T13:28:21Z</time>
      </trkpt>
      <trkpt lat="45.68203" lon="6.25849">
        <ele>2083.964355</ele>
        <time>2011-09-10T13:28:26Z</time>
      </trkpt>
      <trkpt lat="45.68205" lon="6.2585">
        <ele>2085.067139</ele>
        <time>2011-09-10T13:28:31Z</time>
      </trkpt>
      <trkpt lat="45.68206" lon="6.2585">
        <ele>2085.348145</ele>
        <time>2011-09-10T13:28:36Z</time>
      </trkpt>
      <trkpt lat="45.68207" lon="6.25851">
        <ele>2086.145508</ele>
        <time>2011-09-10T13:28:41Z</time>
      </trkpt>
      <trkpt lat="45.68208" lon="6.25853">
        <ele>2086.957031</ele>
        <time>2011-09-10T13:28:46Z</time>
      </trkpt>
      <trkpt lat="45.6821" lon="6.25853">
        <ele>2087.548828</ele>
        <time>2011-09-10T13:28:51Z</time>
      </trkpt>
      <trkpt lat="45.68211" lon="6.25854">
        <ele>2088.487305</ele>
        <time>2011-09-10T13:28:56Z</time>
      </trkpt>
      <trkpt lat="45.68212" lon="6.25854">
        <ele>2089.195068</ele>
        <time>2011-09-10T13:29:01Z</time>
      </trkpt>
      <trkpt lat="45.68213" lon="6.25855">
        <ele>2089.890625</ele>
        <time>2011-09-10T13:29:06Z</time>
      </trkpt>
      <trkpt lat="45.68214" lon="6.25856">
        <ele>2090.556885</ele>
        <time>2011-09-10T13:29:11Z</time>
      </trkpt>
      <trkpt lat="45.68216" lon="6.25856">
        <ele>2091.47583</ele>
        <time>2011-09-10T13:29:16Z</time>
      </trkpt>
      <trkpt lat="45.68218" lon="6.25856">
        <ele>2092.2854</ele>
        <time>2011-09-10T13:29:21Z</time>
      </trkpt>
      <trkpt lat="45.68219" lon="6.25856">
        <ele>2093.042725</ele>
        <time>2011-09-10T13:29:26Z</time>
      </trkpt>
      <trkpt lat="45.6822" lon="6.25857">
        <ele>2093.73999</ele>
        <time>2011-09-10T13:29:31Z</time>
      </trkpt>
      <trkpt lat="45.68222" lon="6.25857">
        <ele>2094.537109</ele>
        <time>2011-09-10T13:29:36Z</time>
      </trkpt>
      <trkpt lat="45.68223" lon="6.25857">
        <ele>2095.378174</ele>
        <time>2011-09-10T13:29:41Z</time>
      </trkpt>
      <trkpt lat="45.68224" lon="6.25857">
        <ele>2095.974121</ele>
        <time>2011-09-10T13:29:46Z</time>
      </trkpt>
      <trkpt lat="45.68226" lon="6.25857">
        <ele>2096.674316</ele>
        <time>2011-09-10T13:29:51Z</time>
      </trkpt>
      <trkpt lat="45.68227" lon="6.25858">
        <ele>2097.314697</ele>
        <time>2011-09-10T13:29:56Z</time>
      </trkpt>
      <trkpt lat="45.68228" lon="6.25858">
        <ele>2098.244873</ele>
        <time>2011-09-10T13:30:01Z</time>
      </trkpt>
      <trkpt lat="45.68229" lon="6.25858">
        <ele>2098.575439</ele>
        <time>2011-09-10T13:30:06Z</time>
      </trkpt>
      <trkpt lat="45.6823" lon="6.25859">
        <ele>2099.241699</ele>
        <time>2011-09-10T13:30:11Z</time>
      </trkpt>
      <trkpt lat="45.68231" lon="6.25859">
        <ele>2099.899658</ele>
        <time>2011-09-10T13:30:16Z</time>
      </trkpt>
      <trkpt lat="45.68233" lon="6.25859">
        <ele>2101.031738</ele>
        <time>2011-09-10T13:30:21Z</time>
      </trkpt>
      <trkpt lat="45.68235" lon="6.25859">
        <ele>2101.75</ele>
        <time>2011-09-10T13:30:26Z</time>
      </trkpt>
      <trkpt lat="45.68236" lon="6.25859">
        <ele>2102.578369</ele>
        <time>2011-09-10T13:30:31Z</time>
      </trkpt>
      <trkpt lat="45.68237" lon="6.25861">
        <ele>2103.260254</ele>
        <time>2011-09-10T13:30:36Z</time>
      </trkpt>
      <trkpt lat="45.68238" lon="6.25863">
        <ele>2103.864502</ele>
        <time>2011-09-10T13:30:41Z</time>
      </trkpt>
      <trkpt lat="45.68239" lon="6.25865">
        <ele>2104.390137</ele>
        <time>2011-09-10T13:30:46Z</time>
      </trkpt>
      <trkpt lat="45.6824" lon="6.25866">
        <ele>2104.902344</ele>
        <time>2011-09-10T13:30:51Z</time>
      </trkpt>
      <trkpt lat="45.68241" lon="6.25867">
        <ele>2105.44458</ele>
        <time>2011-09-10T13:30:56Z</time>
      </trkpt>
      <trkpt lat="45.68242" lon="6.25868">
        <ele>2105.878418</ele>
        <time>2011-09-10T13:31:01Z</time>
      </trkpt>
      <trkpt lat="45.68244" lon="6.25867">
        <ele>2106.525146</ele>
        <time>2011-09-10T13:31:06Z</time>
      </trkpt>
      <trkpt lat="45.68246" lon="6.25866">
        <ele>2106.857666</ele>
        <time>2011-09-10T13:31:11Z</time>
      </trkpt>
      <trkpt lat="45.68248" lon="6.25865">
        <ele>2107.424561</ele>
        <time>2011-09-10T13:31:16Z</time>
      </trkpt>
      <trkpt lat="45.6825" lon="6.25864">
        <ele>2107.98584</ele>
        <time>2011-09-10T13:31:21Z</time>
      </trkpt>
      <trkpt lat="45.68252" lon="6.25863">
        <ele>2108.686279</ele>
        <time>2011-09-10T13:31:26Z</time>
      </trkpt>
      <trkpt lat="45.68254" lon="6.25862">
        <ele>2109.240723</ele>
        <time>2011-09-10T13:31:31Z</time>
      </trkpt>
      <trkpt lat="45.68257" lon="6.25861">
        <ele>2110.032715</ele>
        <time>2011-09-10T13:31:36Z</time>
      </trkpt>
      <trkpt lat="45.68259" lon="6.25861">
        <ele>2110.742676</ele>
        <time>2011-09-10T13:31:41Z</time>
      </trkpt>
      <trkpt lat="45.68261" lon="6.25859">
        <ele>2111.392578</ele>
        <time>2011-09-10T13:31:46Z</time>
      </trkpt>
      <trkpt lat="45.68264" lon="6.2586">
        <ele>2112.236084</ele>
        <time>2011-09-10T13:31:51Z</time>
      </trkpt>
      <trkpt lat="45.68266" lon="6.25859">
        <ele>2112.917969</ele>
        <time>2011-09-10T13:31:56Z</time>
      </trkpt>
      <trkpt lat="45.68269" lon="6.25859">
        <ele>2113.910156</ele>
        <time>2011-09-10T13:32:01Z</time>
      </trkpt>
      <trkpt lat="45.68271" lon="6.25858">
        <ele>2114.76709</ele>
        <time>2011-09-10T13:32:06Z</time>
      </trkpt>
      <trkpt lat="45.68274" lon="6.25857">
        <ele>2115.446533</ele>
        <time>2011-09-10T13:32:11Z</time>
      </trkpt>
      <trkpt lat="45.68276" lon="6.25856">
        <ele>2116.331299</ele>
        <time>2011-09-10T13:32:16Z</time>
      </trkpt>
      <trkpt lat="45.68279" lon="6.25855">
        <ele>2117.167236</ele>
        <time>2011-09-10T13:32:21Z</time>
      </trkpt>
      <trkpt lat="45.6828" lon="6.25854">
        <ele>2117.659668</ele>
        <time>2011-09-10T13:32:26Z</time>
      </trkpt>
      <trkpt lat="45.68282" lon="6.25854">
        <ele>2118.279785</ele>
        <time>2011-09-10T13:32:31Z</time>
      </trkpt>
      <trkpt lat="45.68285" lon="6.25852">
        <ele>2118.430908</ele>
        <time>2011-09-10T13:32:36Z</time>
      </trkpt>
      <trkpt lat="45.68287" lon="6.25849">
        <ele>2118.63623</ele>
        <time>2011-09-10T13:32:41Z</time>
      </trkpt>
      <trkpt lat="45.6829" lon="6.25847">
        <ele>2119.004639</ele>
        <time>2011-09-10T13:32:46Z</time>
      </trkpt>
      <trkpt lat="45.68292" lon="6.25845">
        <ele>2119.471436</ele>
        <time>2011-09-10T13:32:51Z</time>
      </trkpt>
      <trkpt lat="45.68295" lon="6.25843">
        <ele>2119.954346</ele>
        <time>2011-09-10T13:32:56Z</time>
      </trkpt>
      <trkpt lat="45.68298" lon="6.25841">
        <ele>2120.686768</ele>
        <time>2011-09-10T13:33:01Z</time>
      </trkpt>
      <trkpt lat="45.683" lon="6.25839">
        <ele>2121.424072</ele>
        <time>2011-09-10T13:33:06Z</time>
      </trkpt>
      <trkpt lat="45.68303" lon="6.25836">
        <ele>2122.342529</ele>
        <time>2011-09-10T13:33:11Z</time>
      </trkpt>
      <trkpt lat="45.68306" lon="6.25834">
        <ele>2123.280029</ele>
        <time>2011-09-10T13:33:16Z</time>
      </trkpt>
      <trkpt lat="45.68308" lon="6.25833">
        <ele>2124.130127</ele>
        <time>2011-09-10T13:33:21Z</time>
      </trkpt>
      <trkpt lat="45.68311" lon="6.25831">
        <ele>2125.086914</ele>
        <time>2011-09-10T13:33:26Z</time>
      </trkpt>
      <trkpt lat="45.68313" lon="6.2583">
        <ele>2126.158203</ele>
        <time>2011-09-10T13:33:31Z</time>
      </trkpt>
      <trkpt lat="45.68316" lon="6.25828">
        <ele>2127.421631</ele>
        <time>2011-09-10T13:33:36Z</time>
      </trkpt>
      <trkpt lat="45.68319" lon="6.25826">
        <ele>2128.720215</ele>
        <time>2011-09-10T13:33:41Z</time>
      </trkpt>
      <trkpt lat="45.68321" lon="6.25825">
        <ele>2129.798096</ele>
        <time>2011-09-10T13:33:46Z</time>
      </trkpt>
      <trkpt lat="45.68322" lon="6.25824">
        <ele>2130.553955</ele>
        <time>2011-09-10T13:33:51Z</time>
      </trkpt>
      <trkpt lat="45.68326" lon="6.25823">
        <ele>2131.968018</ele>
        <time>2011-09-10T13:33:56Z</time>
      </trkpt>
      <trkpt lat="45.68328" lon="6.25822">
        <ele>2133.008789</ele>
        <time>2011-09-10T13:34:01Z</time>
      </trkpt>
      <trkpt lat="45.68329" lon="6.25821">
        <ele>2134.010742</ele>
        <time>2011-09-10T13:34:06Z</time>
      </trkpt>
      <trkpt lat="45.68332" lon="6.2582">
        <ele>2135.585205</ele>
        <time>2011-09-10T13:34:11Z</time>
      </trkpt>
      <trkpt lat="45.68333" lon="6.25821">
        <ele>2136.148438</ele>
        <time>2011-09-10T13:34:16Z</time>
      </trkpt>
      <trkpt lat="45.68335" lon="6.25821">
        <ele>2137.058105</ele>
        <time>2011-09-10T13:34:21Z</time>
      </trkpt>
      <trkpt lat="45.68337" lon="6.2582">
        <ele>2138.296387</ele>
        <time>2011-09-10T13:34:26Z</time>
      </trkpt>
      <trkpt lat="45.68338" lon="6.25819">
        <ele>2139.348877</ele>
        <time>2011-09-10T13:34:31Z</time>
      </trkpt>
      <trkpt lat="45.6834" lon="6.25818">
        <ele>2140.515625</ele>
        <time>2011-09-10T13:34:36Z</time>
      </trkpt>
      <trkpt lat="45.68341" lon="6.25817">
        <ele>2141.575684</ele>
        <time>2011-09-10T13:34:41Z</time>
      </trkpt>
      <trkpt lat="45.68343" lon="6.25817">
        <ele>2142.667725</ele>
        <time>2011-09-10T13:34:46Z</time>
      </trkpt>
      <trkpt lat="45.68344" lon="6.25818">
        <ele>2142.886963</ele>
        <time>2011-09-10T13:34:51Z</time>
      </trkpt>
      <trkpt lat="45.68344" lon="6.25821">
        <ele>2141.88623</ele>
        <time>2011-09-10T13:34:56Z</time>
      </trkpt>
      <trkpt lat="45.68345" lon="6.2582">
        <ele>2142.592041</ele>
        <time>2011-09-10T13:35:01Z</time>
      </trkpt>
      <trkpt lat="45.68346" lon="6.2582">
        <ele>2143.280273</ele>
        <time>2011-09-10T13:35:06Z</time>
      </trkpt>
      <trkpt lat="45.68348" lon="6.25819">
        <ele>2144.865234</ele>
        <time>2011-09-10T13:35:11Z</time>
      </trkpt>
      <trkpt lat="45.6835" lon="6.25819">
        <ele>2145.23999</ele>
        <time>2011-09-10T13:35:16Z</time>
      </trkpt>
      <trkpt lat="45.68351" lon="6.25818">
        <ele>2146.736328</ele>
        <time>2011-09-10T13:35:21Z</time>
      </trkpt>
      <trkpt lat="45.68352" lon="6.25819">
        <ele>2146.514404</ele>
        <time>2011-09-10T13:35:26Z</time>
      </trkpt>
      <trkpt lat="45.68352" lon="6.25821">
        <ele>2145.853516</ele>
        <time>2011-09-10T13:35:31Z</time>
      </trkpt>
      <trkpt lat="45.68354" lon="6.2582">
        <ele>2147.044922</ele>
        <time>2011-09-10T13:35:36Z</time>
      </trkpt>
      <trkpt lat="45.68355" lon="6.25821">
        <ele>2147.273926</ele>
        <time>2011-09-10T13:35:41Z</time>
      </trkpt>
      <trkpt lat="45.68356" lon="6.25822">
        <ele>2147.080322</ele>
        <time>2011-09-10T13:35:46Z</time>
      </trkpt>
      <trkpt lat="45.68357" lon="6.25822">
        <ele>2147.578125</ele>
        <time>2011-09-10T13:35:51Z</time>
      </trkpt>
      <trkpt lat="45.68358" lon="6.25821">
        <ele>2148.505615</ele>
        <time>2011-09-10T13:35:56Z</time>
      </trkpt>
      <trkpt lat="45.68359" lon="6.25821">
        <ele>2149.476563</ele>
        <time>2011-09-10T13:36:01Z</time>
      </trkpt>
      <trkpt lat="45.6836" lon="6.25822">
        <ele>2149.480713</ele>
        <time>2011-09-10T13:36:06Z</time>
      </trkpt>
      <trkpt lat="45.68362" lon="6.25821">
        <ele>2150.710693</ele>
        <time>2011-09-10T13:36:11Z</time>
      </trkpt>
      <trkpt lat="45.68362" lon="6.25823">
        <ele>2149.645264</ele>
        <time>2011-09-10T13:36:16Z</time>
      </trkpt>
      <trkpt lat="45.68364" lon="6.25823">
        <ele>2150.682617</ele>
        <time>2011-09-10T13:36:21Z</time>
      </trkpt>
      <trkpt lat="45.68365" lon="6.25822">
        <ele>2152.182373</ele>
        <time>2011-09-10T13:36:26Z</time>
      </trkpt>
      <trkpt lat="45.68366" lon="6.25822">
        <ele>2152.227295</ele>
        <time>2011-09-10T13:36:31Z</time>
      </trkpt>
      <trkpt lat="45.68368" lon="6.25822">
        <ele>2153.688232</ele>
        <time>2011-09-10T13:36:36Z</time>
      </trkpt>
      <trkpt lat="45.68369" lon="6.25821">
        <ele>2154.574463</ele>
        <time>2011-09-10T13:36:41Z</time>
      </trkpt>
      <trkpt lat="45.6837" lon="6.25823">
        <ele>2154.335449</ele>
        <time>2011-09-10T13:36:46Z</time>
      </trkpt>
      <trkpt lat="45.68371" lon="6.25823">
        <ele>2154.582031</ele>
        <time>2011-09-10T13:36:51Z</time>
      </trkpt>
      <trkpt lat="45.68372" lon="6.25824">
        <ele>2154.818115</ele>
        <time>2011-09-10T13:36:56Z</time>
      </trkpt>
      <trkpt lat="45.68374" lon="6.25824">
        <ele>2154.98291</ele>
        <time>2011-09-10T13:37:01Z</time>
      </trkpt>
      <trkpt lat="45.68376" lon="6.25823">
        <ele>2155.087402</ele>
        <time>2011-09-10T13:37:06Z</time>
      </trkpt>
      <trkpt lat="45.68378" lon="6.25823">
        <ele>2155.058594</ele>
        <time>2011-09-10T13:37:11Z</time>
      </trkpt>
      <trkpt lat="45.6838" lon="6.25823">
        <ele>2154.64209</ele>
        <time>2011-09-10T13:37:16Z</time>
      </trkpt>
      <trkpt lat="45.68381" lon="6.25824">
        <ele>2153.79248</ele>
        <time>2011-09-10T13:37:21Z</time>
      </trkpt>
      <trkpt lat="45.68384" lon="6.25825">
        <ele>2153.098633</ele>
        <time>2011-09-10T13:37:26Z</time>
      </trkpt>
      <trkpt lat="45.68387" lon="6.25825">
        <ele>2152.892334</ele>
        <time>2011-09-10T13:37:31Z</time>
      </trkpt>
      <trkpt lat="45.68388" lon="6.25825">
        <ele>2152.672607</ele>
        <time>2011-09-10T13:37:36Z</time>
      </trkpt>
      <trkpt lat="45.68388" lon="6.25825">
        <ele>2152.839355</ele>
        <time>2011-09-10T13:37:41Z</time>
      </trkpt>
      <trkpt lat="45.68388" lon="6.25825">
        <ele>2152.589111</ele>
        <time>2011-09-10T13:37:46Z</time>
      </trkpt>
      <trkpt lat="45.68388" lon="6.25825">
        <ele>2152.589111</ele>
        <time>2011-09-10T13:37:51Z</time>
      </trkpt>
      <trkpt lat="45.68387" lon="6.25827">
        <ele>2151.832031</ele>
        <time>2011-09-10T13:56:46Z</time>
      </trkpt>
      <trkpt lat="45.6839" lon="6.25825">
        <ele>2152.591553</ele>
        <time>2011-09-10T13:56:51Z</time>
      </trkpt>
      <trkpt lat="45.68391" lon="6.2582">
        <ele>2154.834717</ele>
        <time>2011-09-10T13:56:56Z</time>
      </trkpt>
      <trkpt lat="45.68391" lon="6.25815">
        <ele>2157.003662</ele>
        <time>2011-09-10T13:57:01Z</time>
      </trkpt>
      <trkpt lat="45.68392" lon="6.25811">
        <ele>2155.86084</ele>
        <time>2011-09-10T13:57:06Z</time>
      </trkpt>
      <trkpt lat="45.68393" lon="6.25808">
        <ele>2153.594238</ele>
        <time>2011-09-10T13:57:11Z</time>
      </trkpt>
      <trkpt lat="45.68394" lon="6.25804">
        <ele>2151.051025</ele>
        <time>2011-09-10T13:57:16Z</time>
      </trkpt>
      <trkpt lat="45.68395" lon="6.258">
        <ele>2148.883057</ele>
        <time>2011-09-10T13:57:21Z</time>
      </trkpt>
      <trkpt lat="45.68396" lon="6.25795">
        <ele>2145.409912</ele>
        <time>2011-09-10T13:57:26Z</time>
      </trkpt>
      <trkpt lat="45.68397" lon="6.25791">
        <ele>2142.586426</ele>
        <time>2011-09-10T13:57:31Z</time>
      </trkpt>
      <trkpt lat="45.68398" lon="6.2579">
        <ele>2141.77124</ele>
        <time>2011-09-10T13:57:36Z</time>
      </trkpt>
      <trkpt lat="45.68398" lon="6.2579">
        <ele>2141.77124</ele>
        <time>2011-09-10T13:57:41Z</time>
      </trkpt>
      <trkpt lat="45.68398" lon="6.25789">
        <ele>2141.624023</ele>
        <time>2011-09-10T13:57:46Z</time>
      </trkpt>
      <trkpt lat="45.68398" lon="6.25789">
        <ele>2141.624023</ele>
        <time>2011-09-10T13:57:51Z</time>
      </trkpt>
      <trkpt lat="45.68398" lon="6.25789">
        <ele>2141.459473</ele>
        <time>2011-09-10T13:57:56Z</time>
      </trkpt>
      <trkpt lat="45.68398" lon="6.25789">
        <ele>2141.459473</ele>
        <time>2011-09-10T13:58:01Z</time>
      </trkpt>
      <trkpt lat="45.68398" lon="6.2579">
        <ele>2141.717285</ele>
        <time>2011-09-10T13:58:06Z</time>
      </trkpt>
      <trkpt lat="45.684" lon="6.25785">
        <ele>2138.217285</ele>
        <time>2011-09-10T13:58:11Z</time>
      </trkpt>
      <trkpt lat="45.68395" lon="6.25783">
        <ele>2138.689697</ele>
        <time>2011-09-10T13:58:16Z</time>
      </trkpt>
      <trkpt lat="45.6839" lon="6.25784">
        <ele>2141.994141</ele>
        <time>2011-09-10T13:58:21Z</time>
      </trkpt>
      <trkpt lat="45.68383" lon="6.25786">
        <ele>2145.358643</ele>
        <time>2011-09-10T13:58:26Z</time>
      </trkpt>
      <trkpt lat="45.68377" lon="6.25788">
        <ele>2148.770508</ele>
        <time>2011-09-10T13:58:31Z</time>
      </trkpt>
      <trkpt lat="45.68371" lon="6.25789">
        <ele>2149.232666</ele>
        <time>2011-09-10T13:58:36Z</time>
      </trkpt>
      <trkpt lat="45.68366" lon="6.25791">
        <ele>2147.596436</ele>
        <time>2011-09-10T13:58:41Z</time>
      </trkpt>
      <trkpt lat="45.68364" lon="6.25792">
        <ele>2147.455322</ele>
        <time>2011-09-10T13:58:46Z</time>
      </trkpt>
      <trkpt lat="45.68361" lon="6.25792">
        <ele>2145.818115</ele>
        <time>2011-09-10T13:58:51Z</time>
      </trkpt>
      <trkpt lat="45.68363" lon="6.25786">
        <ele>2143.89624</ele>
        <time>2011-09-10T13:58:56Z</time>
      </trkpt>
      <trkpt lat="45.68367" lon="6.25777">
        <ele>2141.719727</ele>
        <time>2011-09-10T13:59:01Z</time>
      </trkpt>
      <trkpt lat="45.68371" lon="6.25769">
        <ele>2139.328125</ele>
        <time>2011-09-10T13:59:06Z</time>
      </trkpt>
      <trkpt lat="45.68372" lon="6.25765">
        <ele>2137.895996</ele>
        <time>2011-09-10T13:59:11Z</time>
      </trkpt>
      <trkpt lat="45.68375" lon="6.2576">
        <ele>2136.526611</ele>
        <time>2011-09-10T13:59:16Z</time>
      </trkpt>
      <trkpt lat="45.68377" lon="6.25756">
        <ele>2133.720459</ele>
        <time>2011-09-10T13:59:21Z</time>
      </trkpt>
      <trkpt lat="45.68379" lon="6.25751">
        <ele>2130.318604</ele>
        <time>2011-09-10T13:59:26Z</time>
      </trkpt>
      <trkpt lat="45.68381" lon="6.25747">
        <ele>2126.952881</ele>
        <time>2011-09-10T13:59:31Z</time>
      </trkpt>
      <trkpt lat="45.68379" lon="6.25747">
        <ele>2128.429443</ele>
        <time>2011-09-10T13:59:36Z</time>
      </trkpt>
      <trkpt lat="45.68375" lon="6.25749">
        <ele>2130.899414</ele>
        <time>2011-09-10T13:59:41Z</time>
      </trkpt>
      <trkpt lat="45.68371" lon="6.25751">
        <ele>2130.529785</ele>
        <time>2011-09-10T13:59:46Z</time>
      </trkpt>
      <trkpt lat="45.68368" lon="6.25752">
        <ele>2129.938721</ele>
        <time>2011-09-10T13:59:51Z</time>
      </trkpt>
      <trkpt lat="45.68365" lon="6.25753">
        <ele>2129.481934</ele>
        <time>2011-09-10T13:59:56Z</time>
      </trkpt>
      <trkpt lat="45.68362" lon="6.25754">
        <ele>2128.509766</ele>
        <time>2011-09-10T14:00:01Z</time>
      </trkpt>
      <trkpt lat="45.68358" lon="6.25755">
        <ele>2127.695313</ele>
        <time>2011-09-10T14:00:06Z</time>
      </trkpt>
      <trkpt lat="45.68354" lon="6.25756">
        <ele>2126.970703</ele>
        <time>2011-09-10T14:00:11Z</time>
      </trkpt>
      <trkpt lat="45.68351" lon="6.25758">
        <ele>2126.255615</ele>
        <time>2011-09-10T14:00:16Z</time>
      </trkpt>
      <trkpt lat="45.68348" lon="6.25758">
        <ele>2125.331543</ele>
        <time>2011-09-10T14:00:21Z</time>
      </trkpt>
      <trkpt lat="45.68344" lon="6.2576">
        <ele>2124.400146</ele>
        <time>2011-09-10T14:00:26Z</time>
      </trkpt>
      <trkpt lat="45.6834" lon="6.25761">
        <ele>2123.794678</ele>
        <time>2011-09-10T14:00:31Z</time>
      </trkpt>
      <trkpt lat="45.68337" lon="6.25763">
        <ele>2122.989502</ele>
        <time>2011-09-10T14:00:36Z</time>
      </trkpt>
      <trkpt lat="45.68333" lon="6.25763">
        <ele>2121.639404</ele>
        <time>2011-09-10T14:00:41Z</time>
      </trkpt>
      <trkpt lat="45.68329" lon="6.25765">
        <ele>2120.61377</ele>
        <time>2011-09-10T14:00:46Z</time>
      </trkpt>
      <trkpt lat="45.68326" lon="6.25766">
        <ele>2119.375244</ele>
        <time>2011-09-10T14:00:51Z</time>
      </trkpt>
      <trkpt lat="45.68322" lon="6.25768">
        <ele>2118.273438</ele>
        <time>2011-09-10T14:00:56Z</time>
      </trkpt>
      <trkpt lat="45.68321" lon="6.25767">
        <ele>2116.987061</ele>
        <time>2011-09-10T14:01:01Z</time>
      </trkpt>
      <trkpt lat="45.68323" lon="6.25762">
        <ele>2116.197754</ele>
        <time>2011-09-10T14:01:06Z</time>
      </trkpt>
      <trkpt lat="45.68326" lon="6.25757">
        <ele>2115.624512</ele>
        <time>2011-09-10T14:01:11Z</time>
      </trkpt>
      <trkpt lat="45.68328" lon="6.25751">
        <ele>2114.548584</ele>
        <time>2011-09-10T14:01:16Z</time>
      </trkpt>
      <trkpt lat="45.68331" lon="6.25746">
        <ele>2114.256592</ele>
        <time>2011-09-10T14:01:21Z</time>
      </trkpt>
      <trkpt lat="45.68333" lon="6.25741">
        <ele>2112.637207</ele>
        <time>2011-09-10T14:01:26Z</time>
      </trkpt>
      <trkpt lat="45.68335" lon="6.25737">
        <ele>2111.366455</ele>
        <time>2011-09-10T14:01:31Z</time>
      </trkpt>
      <trkpt lat="45.68338" lon="6.25732">
        <ele>2110.022217</ele>
        <time>2011-09-10T14:01:36Z</time>
      </trkpt>
      <trkpt lat="45.6834" lon="6.25728">
        <ele>2108.583496</ele>
        <time>2011-09-10T14:01:41Z</time>
      </trkpt>
      <trkpt lat="45.68342" lon="6.25723">
        <ele>2106.52124</ele>
        <time>2011-09-10T14:01:46Z</time>
      </trkpt>
      <trkpt lat="45.68344" lon="6.25718">
        <ele>2104.838135</ele>
        <time>2011-09-10T14:01:51Z</time>
      </trkpt>
      <trkpt lat="45.68346" lon="6.25713">
        <ele>2102.74292</ele>
        <time>2011-09-10T14:01:56Z</time>
      </trkpt>
      <trkpt lat="45.68348" lon="6.25708">
        <ele>2100.845215</ele>
        <time>2011-09-10T14:02:01Z</time>
      </trkpt>
      <trkpt lat="45.6835" lon="6.25703">
        <ele>2098.401367</ele>
        <time>2011-09-10T14:02:06Z</time>
      </trkpt>
      <trkpt lat="45.68352" lon="6.25699">
        <ele>2096.630371</ele>
        <time>2011-09-10T14:02:11Z</time>
      </trkpt>
      <trkpt lat="45.68354" lon="6.25694">
        <ele>2094.474365</ele>
        <time>2011-09-10T14:02:16Z</time>
      </trkpt>
      <trkpt lat="45.68356" lon="6.2569">
        <ele>2092.596924</ele>
        <time>2011-09-10T14:02:21Z</time>
      </trkpt>
      <trkpt lat="45.68359" lon="6.25684">
        <ele>2090.196045</ele>
        <time>2011-09-10T14:02:26Z</time>
      </trkpt>
      <trkpt lat="45.68361" lon="6.2568">
        <ele>2088.622559</ele>
        <time>2011-09-10T14:02:31Z</time>
      </trkpt>
      <trkpt lat="45.68362" lon="6.25675">
        <ele>2086.909912</ele>
        <time>2011-09-10T14:02:36Z</time>
      </trkpt>
      <trkpt lat="45.68364" lon="6.25671">
        <ele>2085.555176</ele>
        <time>2011-09-10T14:02:41Z</time>
      </trkpt>
      <trkpt lat="45.68367" lon="6.25668">
        <ele>2084.68457</ele>
        <time>2011-09-10T14:02:46Z</time>
      </trkpt>
      <trkpt lat="45.68369" lon="6.25666">
        <ele>2083.976563</ele>
        <time>2011-09-10T14:02:51Z</time>
      </trkpt>
      <trkpt lat="45.68371" lon="6.25664">
        <ele>2083.452148</ele>
        <time>2011-09-10T14:02:56Z</time>
      </trkpt>
      <trkpt lat="45.68373" lon="6.25663">
        <ele>2083.408447</ele>
        <time>2011-09-10T14:03:01Z</time>
      </trkpt>
      <trkpt lat="45.68375" lon="6.2566">
        <ele>2082.49707</ele>
        <time>2011-09-10T14:03:06Z</time>
      </trkpt>
      <trkpt lat="45.68375" lon="6.25657">
        <ele>2081.028076</ele>
        <time>2011-09-10T14:03:11Z</time>
      </trkpt>
      <trkpt lat="45.68373" lon="6.25653">
        <ele>2079.116943</ele>
        <time>2011-09-10T14:03:16Z</time>
      </trkpt>
      <trkpt lat="45.68374" lon="6.25652">
        <ele>2078.948486</ele>
        <time>2011-09-10T14:03:21Z</time>
      </trkpt>
      <trkpt lat="45.68375" lon="6.25652">
        <ele>2079.065918</ele>
        <time>2011-09-10T14:03:26Z</time>
      </trkpt>
      <trkpt lat="45.68377" lon="6.25649">
        <ele>2078.490234</ele>
        <time>2011-09-10T14:03:31Z</time>
      </trkpt>
      <trkpt lat="45.68379" lon="6.25648">
        <ele>2078.22168</ele>
        <time>2011-09-10T14:03:36Z</time>
      </trkpt>
      <trkpt lat="45.68379" lon="6.25645">
        <ele>2076.57251</ele>
        <time>2011-09-10T14:03:41Z</time>
      </trkpt>
      <trkpt lat="45.68378" lon="6.25639">
        <ele>2074.390137</ele>
        <time>2011-09-10T14:03:46Z</time>
      </trkpt>
      <trkpt lat="45.6838" lon="6.25637">
        <ele>2073.284912</ele>
        <time>2011-09-10T14:03:51Z</time>
      </trkpt>
      <trkpt lat="45.6838" lon="6.25634">
        <ele>2071.92749</ele>
        <time>2011-09-10T14:03:56Z</time>
      </trkpt>
      <trkpt lat="45.68379" lon="6.2563">
        <ele>2070.586426</ele>
        <time>2011-09-10T14:04:01Z</time>
      </trkpt>
      <trkpt lat="45.68378" lon="6.25623">
        <ele>2067.905762</ele>
        <time>2011-09-10T14:04:06Z</time>
      </trkpt>
      <trkpt lat="45.68377" lon="6.25618">
        <ele>2065.509766</ele>
        <time>2011-09-10T14:04:11Z</time>
      </trkpt>
      <trkpt lat="45.68376" lon="6.25613">
        <ele>2062.61377</ele>
        <time>2011-09-10T14:04:16Z</time>
      </trkpt>
      <trkpt lat="45.68374" lon="6.25608">
        <ele>2059.959961</ele>
        <time>2011-09-10T14:04:21Z</time>
      </trkpt>
      <trkpt lat="45.68374" lon="6.25608">
        <ele>2059.793701</ele>
        <time>2011-09-10T14:04:26Z</time>
      </trkpt>
      <trkpt lat="45.68374" lon="6.25607">
        <ele>2059.331543</ele>
        <time>2011-09-10T14:04:31Z</time>
      </trkpt>
      <trkpt lat="45.6837" lon="6.25608">
        <ele>2059.218262</ele>
        <time>2011-09-10T14:04:36Z</time>
      </trkpt>
      <trkpt lat="45.68367" lon="6.25609">
        <ele>2059.494873</ele>
        <time>2011-09-10T14:04:41Z</time>
      </trkpt>
      <trkpt lat="45.68363" lon="6.2561">
        <ele>2059.631836</ele>
        <time>2011-09-10T14:04:46Z</time>
      </trkpt>
      <trkpt lat="45.6836" lon="6.25611">
        <ele>2059.552002</ele>
        <time>2011-09-10T14:04:51Z</time>
      </trkpt>
      <trkpt lat="45.68357" lon="6.25611">
        <ele>2059.171875</ele>
        <time>2011-09-10T14:04:56Z</time>
      </trkpt>
      <trkpt lat="45.68358" lon="6.25607">
        <ele>2056.997559</ele>
        <time>2011-09-10T14:05:01Z</time>
      </trkpt>
      <trkpt lat="45.68359" lon="6.25601">
        <ele>2054.277344</ele>
        <time>2011-09-10T14:05:06Z</time>
      </trkpt>
      <trkpt lat="45.68361" lon="6.25596">
        <ele>2051.368652</ele>
        <time>2011-09-10T14:05:11Z</time>
      </trkpt>
      <trkpt lat="45.68362" lon="6.25591">
        <ele>2048.942139</ele>
        <time>2011-09-10T14:05:16Z</time>
      </trkpt>
      <trkpt lat="45.68363" lon="6.25585">
        <ele>2045.96814</ele>
        <time>2011-09-10T14:05:21Z</time>
      </trkpt>
      <trkpt lat="45.68365" lon="6.2558">
        <ele>2043.594238</ele>
        <time>2011-09-10T14:05:26Z</time>
      </trkpt>
      <trkpt lat="45.68366" lon="6.25574">
        <ele>2040.833496</ele>
        <time>2011-09-10T14:05:31Z</time>
      </trkpt>
      <trkpt lat="45.68366" lon="6.25571">
        <ele>2039.275024</ele>
        <time>2011-09-10T14:05:36Z</time>
      </trkpt>
      <trkpt lat="45.68363" lon="6.25574">
        <ele>2040.033447</ele>
        <time>2011-09-10T14:05:41Z</time>
      </trkpt>
      <trkpt lat="45.6836" lon="6.25576">
        <ele>2040.737183</ele>
        <time>2011-09-10T14:05:46Z</time>
      </trkpt>
      <trkpt lat="45.68358" lon="6.25578">
        <ele>2041.576782</ele>
        <time>2011-09-10T14:05:51Z</time>
      </trkpt>
      <trkpt lat="45.68355" lon="6.2558">
        <ele>2042.145142</ele>
        <time>2011-09-10T14:05:56Z</time>
      </trkpt>
      <trkpt lat="45.68353" lon="6.25581">
        <ele>2042.547852</ele>
        <time>2011-09-10T14:06:01Z</time>
      </trkpt>
      <trkpt lat="45.6835" lon="6.25584">
        <ele>2043.607422</ele>
        <time>2011-09-10T14:06:06Z</time>
      </trkpt>
      <trkpt lat="45.68347" lon="6.25587">
        <ele>2044.722046</ele>
        <time>2011-09-10T14:06:11Z</time>
      </trkpt>
      <trkpt lat="45.68345" lon="6.2559">
        <ele>2046.003052</ele>
        <time>2011-09-10T14:06:16Z</time>
      </trkpt>
      <trkpt lat="45.68345" lon="6.25586">
        <ele>2044.14978</ele>
        <time>2011-09-10T14:06:21Z</time>
      </trkpt>
      <trkpt lat="45.68345" lon="6.2558">
        <ele>2040.833496</ele>
        <time>2011-09-10T14:06:26Z</time>
      </trkpt>
      <trkpt lat="45.68348" lon="6.25574">
        <ele>2038.032471</ele>
        <time>2011-09-10T14:06:31Z</time>
      </trkpt>
      <trkpt lat="45.68349" lon="6.25569">
        <ele>2035.334473</ele>
        <time>2011-09-10T14:06:36Z</time>
      </trkpt>
      <trkpt lat="45.68349" lon="6.25565">
        <ele>2032.986328</ele>
        <time>2011-09-10T14:06:41Z</time>
      </trkpt>
      <trkpt lat="45.68349" lon="6.2556">
        <ele>2030.681641</ele>
        <time>2011-09-10T14:06:46Z</time>
      </trkpt>
      <trkpt lat="45.6835" lon="6.2556">
        <ele>2030.880981</ele>
        <time>2011-09-10T14:06:51Z</time>
      </trkpt>
      <trkpt lat="45.68351" lon="6.25559">
        <ele>2030.195313</ele>
        <time>2011-09-10T14:06:56Z</time>
      </trkpt>
      <trkpt lat="45.68351" lon="6.25554">
        <ele>2027.805298</ele>
        <time>2011-09-10T14:07:01Z</time>
      </trkpt>
      <trkpt lat="45.68352" lon="6.2555">
        <ele>2026.181396</ele>
        <time>2011-09-10T14:07:06Z</time>
      </trkpt>
      <trkpt lat="45.68353" lon="6.25546">
        <ele>2024.827637</ele>
        <time>2011-09-10T14:07:11Z</time>
      </trkpt>
      <trkpt lat="45.68355" lon="6.25542">
        <ele>2023.787231</ele>
        <time>2011-09-10T14:07:16Z</time>
      </trkpt>
      <trkpt lat="45.68357" lon="6.25539">
        <ele>2022.752441</ele>
        <time>2011-09-10T14:07:21Z</time>
      </trkpt>
      <trkpt lat="45.68359" lon="6.25535">
        <ele>2021.121338</ele>
        <time>2011-09-10T14:07:26Z</time>
      </trkpt>
      <trkpt lat="45.68362" lon="6.2553">
        <ele>2019.577515</ele>
        <time>2011-09-10T14:07:31Z</time>
      </trkpt>
      <trkpt lat="45.68362" lon="6.25527">
        <ele>2018.213867</ele>
        <time>2011-09-10T14:07:36Z</time>
      </trkpt>
      <trkpt lat="45.68364" lon="6.25523">
        <ele>2016.851807</ele>
        <time>2011-09-10T14:07:41Z</time>
      </trkpt>
      <trkpt lat="45.68363" lon="6.25521">
        <ele>2015.620605</ele>
        <time>2011-09-10T14:07:46Z</time>
      </trkpt>
      <trkpt lat="45.68359" lon="6.25521">
        <ele>2015.562866</ele>
        <time>2011-09-10T14:07:51Z</time>
      </trkpt>
      <trkpt lat="45.68359" lon="6.25515">
        <ele>2013.25769</ele>
        <time>2011-09-10T14:07:56Z</time>
      </trkpt>
      <trkpt lat="45.68361" lon="6.25511">
        <ele>2011.498413</ele>
        <time>2011-09-10T14:08:01Z</time>
      </trkpt>
      <trkpt lat="45.68361" lon="6.25505">
        <ele>2009.451904</ele>
        <time>2011-09-10T14:08:06Z</time>
      </trkpt>
      <trkpt lat="45.68361" lon="6.255">
        <ele>2007.29834</ele>
        <time>2011-09-10T14:08:11Z</time>
      </trkpt>
      <trkpt lat="45.6836" lon="6.25498">
        <ele>2006.478638</ele>
        <time>2011-09-10T14:08:16Z</time>
      </trkpt>
      <trkpt lat="45.68359" lon="6.25491">
        <ele>2003.950073</ele>
        <time>2011-09-10T14:08:21Z</time>
      </trkpt>
      <trkpt lat="45.68358" lon="6.25485">
        <ele>2002.492554</ele>
        <time>2011-09-10T14:08:26Z</time>
      </trkpt>
      <trkpt lat="45.68358" lon="6.25477">
        <ele>2000.884399</ele>
        <time>2011-09-10T14:08:31Z</time>
      </trkpt>
      <trkpt lat="45.68358" lon="6.2547">
        <ele>1999.247925</ele>
        <time>2011-09-10T14:08:36Z</time>
      </trkpt>
      <trkpt lat="45.68358" lon="6.25463">
        <ele>1997.768677</ele>
        <time>2011-09-10T14:08:41Z</time>
      </trkpt>
      <trkpt lat="45.68358" lon="6.25457">
        <ele>1996.630371</ele>
        <time>2011-09-10T14:08:46Z</time>
      </trkpt>
      <trkpt lat="45.68356" lon="6.25451">
        <ele>1995.798828</ele>
        <time>2011-09-10T14:08:51Z</time>
      </trkpt>
      <trkpt lat="45.68354" lon="6.25446">
        <ele>1995.677979</ele>
        <time>2011-09-10T14:08:56Z</time>
      </trkpt>
      <trkpt lat="45.68352" lon="6.25441">
        <ele>1995.435181</ele>
        <time>2011-09-10T14:09:01Z</time>
      </trkpt>
      <trkpt lat="45.6835" lon="6.25436">
        <ele>1995.419556</ele>
        <time>2011-09-10T14:09:06Z</time>
      </trkpt>
      <trkpt lat="45.68348" lon="6.2543">
        <ele>1994.936523</ele>
        <time>2011-09-10T14:09:11Z</time>
      </trkpt>
      <trkpt lat="45.68345" lon="6.25425">
        <ele>1995.48999</ele>
        <time>2011-09-10T14:09:16Z</time>
      </trkpt>
      <trkpt lat="45.68342" lon="6.25418">
        <ele>1994.48999</ele>
        <time>2011-09-10T14:09:21Z</time>
      </trkpt>
      <trkpt lat="45.68342" lon="6.25409">
        <ele>1991.879028</ele>
        <time>2011-09-10T14:09:26Z</time>
      </trkpt>
      <trkpt lat="45.6834" lon="6.25402">
        <ele>1988.856201</ele>
        <time>2011-09-10T14:09:31Z</time>
      </trkpt>
      <trkpt lat="45.6834" lon="6.25394">
        <ele>1986.151733</ele>
        <time>2011-09-10T14:09:36Z</time>
      </trkpt>
      <trkpt lat="45.6834" lon="6.25387">
        <ele>1983.838135</ele>
        <time>2011-09-10T14:09:41Z</time>
      </trkpt>
      <trkpt lat="45.6834" lon="6.25379">
        <ele>1981.717529</ele>
        <time>2011-09-10T14:09:46Z</time>
      </trkpt>
      <trkpt lat="45.68341" lon="6.25372">
        <ele>1979.783691</ele>
        <time>2011-09-10T14:09:51Z</time>
      </trkpt>
      <trkpt lat="45.68341" lon="6.25365">
        <ele>1977.752319</ele>
        <time>2011-09-10T14:09:56Z</time>
      </trkpt>
      <trkpt lat="45.68339" lon="6.2536">
        <ele>1975.729492</ele>
        <time>2011-09-10T14:10:01Z</time>
      </trkpt>
      <trkpt lat="45.68338" lon="6.25354">
        <ele>1974.167358</ele>
        <time>2011-09-10T14:10:06Z</time>
      </trkpt>
      <trkpt lat="45.68338" lon="6.25348">
        <ele>1972.856445</ele>
        <time>2011-09-10T14:10:11Z</time>
      </trkpt>
      <trkpt lat="45.68339" lon="6.25343">
        <ele>1971.816895</ele>
        <time>2011-09-10T14:10:16Z</time>
      </trkpt>
      <trkpt lat="45.68339" lon="6.25339">
        <ele>1970.722534</ele>
        <time>2011-09-10T14:10:21Z</time>
      </trkpt>
      <trkpt lat="45.68339" lon="6.25334">
        <ele>1969.687988</ele>
        <time>2011-09-10T14:10:26Z</time>
      </trkpt>
      <trkpt lat="45.68338" lon="6.2533">
        <ele>1968.655396</ele>
        <time>2011-09-10T14:10:31Z</time>
      </trkpt>
      <trkpt lat="45.68338" lon="6.25326">
        <ele>1967.642212</ele>
        <time>2011-09-10T14:10:36Z</time>
      </trkpt>
      <trkpt lat="45.68338" lon="6.25322">
        <ele>1966.691162</ele>
        <time>2011-09-10T14:10:41Z</time>
      </trkpt>
      <trkpt lat="45.68337" lon="6.25317">
        <ele>1965.400024</ele>
        <time>2011-09-10T14:10:46Z</time>
      </trkpt>
      <trkpt lat="45.68337" lon="6.25311">
        <ele>1964.081299</ele>
        <time>2011-09-10T14:10:51Z</time>
      </trkpt>
      <trkpt lat="45.68337" lon="6.25304">
        <ele>1962.415283</ele>
        <time>2011-09-10T14:10:56Z</time>
      </trkpt>
      <trkpt lat="45.68337" lon="6.25296">
        <ele>1960.755005</ele>
        <time>2011-09-10T14:11:01Z</time>
      </trkpt>
      <trkpt lat="45.68337" lon="6.25288">
        <ele>1960.172974</ele>
        <time>2011-09-10T14:11:06Z</time>
      </trkpt>
      <trkpt lat="45.68337" lon="6.25279">
        <ele>1959.601807</ele>
        <time>2011-09-10T14:11:11Z</time>
      </trkpt>
      <trkpt lat="45.68336" lon="6.25271">
        <ele>1958.994629</ele>
        <time>2011-09-10T14:11:16Z</time>
      </trkpt>
      <trkpt lat="45.68336" lon="6.25262">
        <ele>1958.492065</ele>
        <time>2011-09-10T14:11:21Z</time>
      </trkpt>
      <trkpt lat="45.68335" lon="6.25254">
        <ele>1957.97998</ele>
        <time>2011-09-10T14:11:26Z</time>
      </trkpt>
      <trkpt lat="45.68334" lon="6.25247">
        <ele>1957.51001</ele>
        <time>2011-09-10T14:11:31Z</time>
      </trkpt>
      <trkpt lat="45.68332" lon="6.2524">
        <ele>1957.039917</ele>
        <time>2011-09-10T14:11:36Z</time>
      </trkpt>
      <trkpt lat="45.6833" lon="6.25232">
        <ele>1956.607544</ele>
        <time>2011-09-10T14:11:41Z</time>
      </trkpt>
      <trkpt lat="45.6833" lon="6.25225">
        <ele>1955.82373</ele>
        <time>2011-09-10T14:11:46Z</time>
      </trkpt>
      <trkpt lat="45.68329" lon="6.25218">
        <ele>1954.859497</ele>
        <time>2011-09-10T14:11:51Z</time>
      </trkpt>
      <trkpt lat="45.68329" lon="6.25211">
        <ele>1954.034302</ele>
        <time>2011-09-10T14:11:56Z</time>
      </trkpt>
      <trkpt lat="45.6833" lon="6.25206">
        <ele>1953.401001</ele>
        <time>2011-09-10T14:12:01Z</time>
      </trkpt>
      <trkpt lat="45.6833" lon="6.252">
        <ele>1952.713623</ele>
        <time>2011-09-10T14:12:06Z</time>
      </trkpt>
      <trkpt lat="45.6833" lon="6.25196">
        <ele>1952.157837</ele>
        <time>2011-09-10T14:12:11Z</time>
      </trkpt>
      <trkpt lat="45.68331" lon="6.2519">
        <ele>1951.527344</ele>
        <time>2011-09-10T14:12:16Z</time>
      </trkpt>
      <trkpt lat="45.68331" lon="6.25185">
        <ele>1950.85437</ele>
        <time>2011-09-10T14:12:21Z</time>
      </trkpt>
      <trkpt lat="45.6833" lon="6.25181">
        <ele>1950.276367</ele>
        <time>2011-09-10T14:12:26Z</time>
      </trkpt>
      <trkpt lat="45.68329" lon="6.25177">
        <ele>1949.750854</ele>
        <time>2011-09-10T14:12:31Z</time>
      </trkpt>
      <trkpt lat="45.68329" lon="6.25172">
        <ele>1949.206787</ele>
        <time>2011-09-10T14:12:36Z</time>
      </trkpt>
      <trkpt lat="45.68329" lon="6.25167">
        <ele>1948.512451</ele>
        <time>2011-09-10T14:12:41Z</time>
      </trkpt>
      <trkpt lat="45.68328" lon="6.25162">
        <ele>1947.46875</ele>
        <time>2011-09-10T14:12:46Z</time>
      </trkpt>
      <trkpt lat="45.68329" lon="6.25156">
        <ele>1946.188721</ele>
        <time>2011-09-10T14:12:51Z</time>
      </trkpt>
      <trkpt lat="45.6833" lon="6.25148">
        <ele>1944.753784</ele>
        <time>2011-09-10T14:12:56Z</time>
      </trkpt>
      <trkpt lat="45.68331" lon="6.25141">
        <ele>1943.306274</ele>
        <time>2011-09-10T14:13:01Z</time>
      </trkpt>
      <trkpt lat="45.68332" lon="6.25134">
        <ele>1941.831177</ele>
        <time>2011-09-10T14:13:06Z</time>
      </trkpt>
      <trkpt lat="45.68333" lon="6.25128">
        <ele>1940.747437</ele>
        <time>2011-09-10T14:13:11Z</time>
      </trkpt>
      <trkpt lat="45.68333" lon="6.25124">
        <ele>1939.982544</ele>
        <time>2011-09-10T14:13:16Z</time>
      </trkpt>
      <trkpt lat="45.68333" lon="6.2512">
        <ele>1939.065063</ele>
        <time>2011-09-10T14:13:21Z</time>
      </trkpt>
      <trkpt lat="45.68334" lon="6.25112">
        <ele>1937.61377</ele>
        <time>2011-09-10T14:13:26Z</time>
      </trkpt>
      <trkpt lat="45.68335" lon="6.25105">
        <ele>1936.13501</ele>
        <time>2011-09-10T14:13:31Z</time>
      </trkpt>
      <trkpt lat="45.68334" lon="6.25097">
        <ele>1934.985352</ele>
        <time>2011-09-10T14:13:36Z</time>
      </trkpt>
      <trkpt lat="45.68335" lon="6.25089">
        <ele>1933.998535</ele>
        <time>2011-09-10T14:13:41Z</time>
      </trkpt>
      <trkpt lat="45.68335" lon="6.25081">
        <ele>1933.088867</ele>
        <time>2011-09-10T14:13:46Z</time>
      </trkpt>
      <trkpt lat="45.68334" lon="6.25074">
        <ele>1932.208862</ele>
        <time>2011-09-10T14:13:51Z</time>
      </trkpt>
      <trkpt lat="45.68334" lon="6.25066">
        <ele>1931.238525</ele>
        <time>2011-09-10T14:13:56Z</time>
      </trkpt>
      <trkpt lat="45.68333" lon="6.25058">
        <ele>1930.232422</ele>
        <time>2011-09-10T14:14:01Z</time>
      </trkpt>
      <trkpt lat="45.68332" lon="6.2505">
        <ele>1929.304443</ele>
        <time>2011-09-10T14:14:06Z</time>
      </trkpt>
      <trkpt lat="45.68333" lon="6.25043">
        <ele>1928.46167</ele>
        <time>2011-09-10T14:14:11Z</time>
      </trkpt>
      <trkpt lat="45.68335" lon="6.25037">
        <ele>1927.874634</ele>
        <time>2011-09-10T14:14:16Z</time>
      </trkpt>
      <trkpt lat="45.68336" lon="6.25029">
        <ele>1927.522583</ele>
        <time>2011-09-10T14:14:21Z</time>
      </trkpt>
      <trkpt lat="45.68337" lon="6.25022">
        <ele>1927.205933</ele>
        <time>2011-09-10T14:14:26Z</time>
      </trkpt>
      <trkpt lat="45.68339" lon="6.25015">
        <ele>1926.979248</ele>
        <time>2011-09-10T14:14:31Z</time>
      </trkpt>
      <trkpt lat="45.6834" lon="6.25009">
        <ele>1926.823853</ele>
        <time>2011-09-10T14:14:36Z</time>
      </trkpt>
      <trkpt lat="45.68342" lon="6.25004">
        <ele>1926.773438</ele>
        <time>2011-09-10T14:14:41Z</time>
      </trkpt>
      <trkpt lat="45.68345" lon="6.24997">
        <ele>1926.838379</ele>
        <time>2011-09-10T14:14:46Z</time>
      </trkpt>
      <trkpt lat="45.68348" lon="6.2499">
        <ele>1926.867065</ele>
        <time>2011-09-10T14:14:51Z</time>
      </trkpt>
      <trkpt lat="45.6835" lon="6.24983">
        <ele>1926.954956</ele>
        <time>2011-09-10T14:14:56Z</time>
      </trkpt>
      <trkpt lat="45.68351" lon="6.24977">
        <ele>1927.028564</ele>
        <time>2011-09-10T14:15:01Z</time>
      </trkpt>
      <trkpt lat="45.68354" lon="6.24971">
        <ele>1926.979858</ele>
        <time>2011-09-10T14:15:06Z</time>
      </trkpt>
      <trkpt lat="45.68355" lon="6.24964">
        <ele>1926.498291</ele>
        <time>2011-09-10T14:15:11Z</time>
      </trkpt>
      <trkpt lat="45.68356" lon="6.24957">
        <ele>1926.082642</ele>
        <time>2011-09-10T14:15:16Z</time>
      </trkpt>
      <trkpt lat="45.68359" lon="6.24951">
        <ele>1925.848022</ele>
        <time>2011-09-10T14:15:21Z</time>
      </trkpt>
      <trkpt lat="45.68362" lon="6.24945">
        <ele>1924.480347</ele>
        <time>2011-09-10T14:15:26Z</time>
      </trkpt>
      <trkpt lat="45.68363" lon="6.24937">
        <ele>1923.825684</ele>
        <time>2011-09-10T14:15:31Z</time>
      </trkpt>
      <trkpt lat="45.68367" lon="6.24932">
        <ele>1922.616943</ele>
        <time>2011-09-10T14:15:36Z</time>
      </trkpt>
      <trkpt lat="45.68369" lon="6.24925">
        <ele>1922.024292</ele>
        <time>2011-09-10T14:15:41Z</time>
      </trkpt>
      <trkpt lat="45.68372" lon="6.24917">
        <ele>1921.657715</ele>
        <time>2011-09-10T14:15:46Z</time>
      </trkpt>
      <trkpt lat="45.68375" lon="6.24909">
        <ele>1921.128296</ele>
        <time>2011-09-10T14:15:51Z</time>
      </trkpt>
      <trkpt lat="45.68378" lon="6.24903">
        <ele>1920.620728</ele>
        <time>2011-09-10T14:15:56Z</time>
      </trkpt>
      <trkpt lat="45.68381" lon="6.24897">
        <ele>1920.39624</ele>
        <time>2011-09-10T14:16:01Z</time>
      </trkpt>
      <trkpt lat="45.68384" lon="6.24894">
        <ele>1920.351685</ele>
        <time>2011-09-10T14:16:06Z</time>
      </trkpt>
      <trkpt lat="45.68386" lon="6.24887">
        <ele>1920.439331</ele>
        <time>2011-09-10T14:16:11Z</time>
      </trkpt>
      <trkpt lat="45.68391" lon="6.24882">
        <ele>1920.842163</ele>
        <time>2011-09-10T14:16:16Z</time>
      </trkpt>
      <trkpt lat="45.68393" lon="6.24877">
        <ele>1921.290405</ele>
        <time>2011-09-10T14:16:21Z</time>
      </trkpt>
      <trkpt lat="45.68394" lon="6.24875">
        <ele>1921.541992</ele>
        <time>2011-09-10T14:16:26Z</time>
      </trkpt>
      <trkpt lat="45.68396" lon="6.2487">
        <ele>1922.002808</ele>
        <time>2011-09-10T14:16:31Z</time>
      </trkpt>
      <trkpt lat="45.68399" lon="6.24864">
        <ele>1922.946655</ele>
        <time>2011-09-10T14:16:36Z</time>
      </trkpt>
      <trkpt lat="45.68403" lon="6.24859">
        <ele>1924.276367</ele>
        <time>2011-09-10T14:16:41Z</time>
      </trkpt>
      <trkpt lat="45.68407" lon="6.24853">
        <ele>1925.749756</ele>
        <time>2011-09-10T14:16:46Z</time>
      </trkpt>
      <trkpt lat="45.68412" lon="6.2485">
        <ele>1924.726807</ele>
        <time>2011-09-10T14:16:51Z</time>
      </trkpt>
      <trkpt lat="45.68416" lon="6.24846">
        <ele>1923.325806</ele>
        <time>2011-09-10T14:16:56Z</time>
      </trkpt>
      <trkpt lat="45.68417" lon="6.24846">
        <ele>1923.153809</ele>
        <time>2011-09-10T14:17:01Z</time>
      </trkpt>
      <trkpt lat="45.68417" lon="6.24846">
        <ele>1923.153809</ele>
        <time>2011-09-10T14:17:06Z</time>
      </trkpt>
      <trkpt lat="45.68417" lon="6.24846">
        <ele>1923.177856</ele>
        <time>2011-09-10T14:17:11Z</time>
      </trkpt>
      <trkpt lat="45.68417" lon="6.24846">
        <ele>1923.105713</ele>
        <time>2011-09-10T14:17:16Z</time>
      </trkpt>
      <trkpt lat="45.68416" lon="6.24845">
        <ele>1923.16272</ele>
        <time>2011-09-10T14:17:21Z</time>
      </trkpt>
      <trkpt lat="45.68414" lon="6.24842">
        <ele>1923.047852</ele>
        <time>2011-09-10T14:17:26Z</time>
      </trkpt>
      <trkpt lat="45.68412" lon="6.24843">
        <ele>1923.541748</ele>
        <time>2011-09-10T14:17:31Z</time>
      </trkpt>
      <trkpt lat="45.68411" lon="6.24845">
        <ele>1924.070679</ele>
        <time>2011-09-10T14:17:36Z</time>
      </trkpt>
      <trkpt lat="45.68412" lon="6.24845">
        <ele>1923.943359</ele>
        <time>2011-09-10T14:17:41Z</time>
      </trkpt>
      <trkpt lat="45.68413" lon="6.24846">
        <ele>1923.832275</ele>
        <time>2011-09-10T14:17:46Z</time>
      </trkpt>
      <trkpt lat="45.68414" lon="6.24846">
        <ele>1923.619873</ele>
        <time>2011-09-10T14:17:51Z</time>
      </trkpt>
      <trkpt lat="45.68414" lon="6.24846">
        <ele>1923.623779</ele>
        <time>2011-09-10T14:17:56Z</time>
      </trkpt>
      <trkpt lat="45.68415" lon="6.24845">
        <ele>1923.411987</ele>
        <time>2011-09-10T14:18:01Z</time>
      </trkpt>
      <trkpt lat="45.68416" lon="6.24845">
        <ele>1923.153687</ele>
        <time>2011-09-10T14:18:06Z</time>
      </trkpt>
      <trkpt lat="45.68416" lon="6.24844">
        <ele>1923.018677</ele>
        <time>2011-09-10T14:18:11Z</time>
      </trkpt>
      <trkpt lat="45.68414" lon="6.24846">
        <ele>1923.594238</ele>
        <time>2011-09-10T14:18:16Z</time>
      </trkpt>
      <trkpt lat="45.68416" lon="6.24843">
        <ele>1922.865234</ele>
        <time>2011-09-10T14:18:21Z</time>
      </trkpt>
      <trkpt lat="45.68417" lon="6.24842">
        <ele>1922.462158</ele>
        <time>2011-09-10T14:18:26Z</time>
      </trkpt>
      <trkpt lat="45.68418" lon="6.24842">
        <ele>1922.407471</ele>
        <time>2011-09-10T14:18:31Z</time>
      </trkpt>
      <trkpt lat="45.68418" lon="6.24842">
        <ele>1922.299683</ele>
        <time>2011-09-10T14:18:36Z</time>
      </trkpt>
      <trkpt lat="45.68419" lon="6.24842">
        <ele>1922.268311</ele>
        <time>2011-09-10T14:18:41Z</time>
      </trkpt>
      <trkpt lat="45.68419" lon="6.24842">
        <ele>1922.29126</ele>
        <time>2011-09-10T14:18:46Z</time>
      </trkpt>
      <trkpt lat="45.68419" lon="6.24843">
        <ele>1922.259277</ele>
        <time>2011-09-10T14:18:51Z</time>
      </trkpt>
      <trkpt lat="45.68419" lon="6.24844">
        <ele>1922.324585</ele>
        <time>2011-09-10T14:18:56Z</time>
      </trkpt>
      <trkpt lat="45.68419" lon="6.24844">
        <ele>1922.418701</ele>
        <time>2011-09-10T14:19:01Z</time>
      </trkpt>
      <trkpt lat="45.68419" lon="6.24843">
        <ele>1922.350342</ele>
        <time>2011-09-10T14:19:06Z</time>
      </trkpt>
      <trkpt lat="45.68418" lon="6.24842">
        <ele>1922.299683</ele>
        <time>2011-09-10T14:19:11Z</time>
      </trkpt>
      <trkpt lat="45.68417" lon="6.24842">
        <ele>1922.463257</ele>
        <time>2011-09-10T14:19:16Z</time>
      </trkpt>
      <trkpt lat="45.68417" lon="6.24842">
        <ele>1922.439331</ele>
        <time>2011-09-10T14:19:21Z</time>
      </trkpt>
      <trkpt lat="45.68417" lon="6.24842">
        <ele>1922.439331</ele>
        <time>2011-09-10T14:19:26Z</time>
      </trkpt>
      <trkpt lat="45.68417" lon="6.24841">
        <ele>1922.254761</ele>
        <time>2011-09-10T14:19:31Z</time>
      </trkpt>
      <trkpt lat="45.68422" lon="6.2484">
        <ele>1921.477051</ele>
        <time>2011-09-10T14:19:36Z</time>
      </trkpt>
      <trkpt lat="45.68427" lon="6.24837">
        <ele>1920.34436</ele>
        <time>2011-09-10T14:19:41Z</time>
      </trkpt>
      <trkpt lat="45.68432" lon="6.24837">
        <ele>1919.555664</ele>
        <time>2011-09-10T14:19:46Z</time>
      </trkpt>
      <trkpt lat="45.68437" lon="6.24837">
        <ele>1918.785156</ele>
        <time>2011-09-10T14:19:51Z</time>
      </trkpt>
      <trkpt lat="45.68442" lon="6.24835">
        <ele>1918.021606</ele>
        <time>2011-09-10T14:19:56Z</time>
      </trkpt>
      <trkpt lat="45.68446" lon="6.24837">
        <ele>1917.526001</ele>
        <time>2011-09-10T14:20:01Z</time>
      </trkpt>
      <trkpt lat="45.6845" lon="6.24833">
        <ele>1916.968628</ele>
        <time>2011-09-10T14:20:06Z</time>
      </trkpt>
      <trkpt lat="45.68453" lon="6.24829">
        <ele>1916.407959</ele>
        <time>2011-09-10T14:20:11Z</time>
      </trkpt>
      <trkpt lat="45.68457" lon="6.24824">
        <ele>1915.525269</ele>
        <time>2011-09-10T14:20:16Z</time>
      </trkpt>
      <trkpt lat="45.68459" lon="6.2482">
        <ele>1914.983521</ele>
        <time>2011-09-10T14:20:21Z</time>
      </trkpt>
      <trkpt lat="45.68464" lon="6.24818">
        <ele>1913.973267</ele>
        <time>2011-09-10T14:20:26Z</time>
      </trkpt>
      <trkpt lat="45.6847" lon="6.24816">
        <ele>1913.095093</ele>
        <time>2011-09-10T14:20:31Z</time>
      </trkpt>
      <trkpt lat="45.68475" lon="6.24809">
        <ele>1912.967285</ele>
        <time>2011-09-10T14:20:36Z</time>
      </trkpt>
      <trkpt lat="45.6848" lon="6.24805">
        <ele>1912.857788</ele>
        <time>2011-09-10T14:20:41Z</time>
      </trkpt>
      <trkpt lat="45.68486" lon="6.24802">
        <ele>1912.863647</ele>
        <time>2011-09-10T14:20:46Z</time>
      </trkpt>
      <trkpt lat="45.6849" lon="6.24794">
        <ele>1914.249146</ele>
        <time>2011-09-10T14:20:51Z</time>
      </trkpt>
      <trkpt lat="45.68493" lon="6.24786">
        <ele>1911.913208</ele>
        <time>2011-09-10T14:20:56Z</time>
      </trkpt>
      <trkpt lat="45.68499" lon="6.2478">
        <ele>1909.918457</ele>
        <time>2011-09-10T14:21:01Z</time>
      </trkpt>
      <trkpt lat="45.68503" lon="6.24774">
        <ele>1906.709961</ele>
        <time>2011-09-10T14:21:06Z</time>
      </trkpt>
      <trkpt lat="45.68507" lon="6.24767">
        <ele>1903.295044</ele>
        <time>2011-09-10T14:21:11Z</time>
      </trkpt>
      <trkpt lat="45.68507" lon="6.2476">
        <ele>1901.575806</ele>
        <time>2011-09-10T14:21:16Z</time>
      </trkpt>
      <trkpt lat="45.68511" lon="6.24753">
        <ele>1898.514038</ele>
        <time>2011-09-10T14:21:21Z</time>
      </trkpt>
      <trkpt lat="45.68506" lon="6.24751">
        <ele>1899.541748</ele>
        <time>2011-09-10T14:21:26Z</time>
      </trkpt>
      <trkpt lat="45.68499" lon="6.24752">
        <ele>1901.513916</ele>
        <time>2011-09-10T14:21:31Z</time>
      </trkpt>
      <trkpt lat="45.68492" lon="6.24752">
        <ele>1901.195923</ele>
        <time>2011-09-10T14:21:36Z</time>
      </trkpt>
      <trkpt lat="45.68486" lon="6.24751">
        <ele>1900.447998</ele>
        <time>2011-09-10T14:21:41Z</time>
      </trkpt>
      <trkpt lat="45.68479" lon="6.24751">
        <ele>1900.259766</ele>
        <time>2011-09-10T14:21:46Z</time>
      </trkpt>
      <trkpt lat="45.68481" lon="6.24745">
        <ele>1898.188477</ele>
        <time>2011-09-10T14:21:51Z</time>
      </trkpt>
      <trkpt lat="45.68486" lon="6.24739">
        <ele>1896.540161</ele>
        <time>2011-09-10T14:21:56Z</time>
      </trkpt>
      <trkpt lat="45.68492" lon="6.24734">
        <ele>1895.565186</ele>
        <time>2011-09-10T14:22:01Z</time>
      </trkpt>
      <trkpt lat="45.68498" lon="6.24728">
        <ele>1894.191406</ele>
        <time>2011-09-10T14:22:06Z</time>
      </trkpt>
      <trkpt lat="45.68504" lon="6.24723">
        <ele>1892.066528</ele>
        <time>2011-09-10T14:22:11Z</time>
      </trkpt>
      <trkpt lat="45.68509" lon="6.24717">
        <ele>1888.743042</ele>
        <time>2011-09-10T14:22:16Z</time>
      </trkpt>
      <trkpt lat="45.68511" lon="6.24712">
        <ele>1886.303955</ele>
        <time>2011-09-10T14:22:21Z</time>
      </trkpt>
      <trkpt lat="45.68509" lon="6.24708">
        <ele>1885.376099</ele>
        <time>2011-09-10T14:22:26Z</time>
      </trkpt>
      <trkpt lat="45.68506" lon="6.24703">
        <ele>1884.782104</ele>
        <time>2011-09-10T14:22:31Z</time>
      </trkpt>
      <trkpt lat="45.68499" lon="6.24706">
        <ele>1886.425171</ele>
        <time>2011-09-10T14:22:36Z</time>
      </trkpt>
      <trkpt lat="45.68494" lon="6.24708">
        <ele>1886.477539</ele>
        <time>2011-09-10T14:22:41Z</time>
      </trkpt>
      <trkpt lat="45.68489" lon="6.2471">
        <ele>1886.369019</ele>
        <time>2011-09-10T14:22:46Z</time>
      </trkpt>
      <trkpt lat="45.68484" lon="6.24712">
        <ele>1886.570923</ele>
        <time>2011-09-10T14:22:51Z</time>
      </trkpt>
      <trkpt lat="45.6848" lon="6.24712">
        <ele>1885.868164</ele>
        <time>2011-09-10T14:22:56Z</time>
      </trkpt>
      <trkpt lat="45.68482" lon="6.24708">
        <ele>1884.869385</ele>
        <time>2011-09-10T14:23:01Z</time>
      </trkpt>
      <trkpt lat="45.68484" lon="6.24702">
        <ele>1882.699585</ele>
        <time>2011-09-10T14:23:06Z</time>
      </trkpt>
      <trkpt lat="45.68486" lon="6.24696">
        <ele>1880.973999</ele>
        <time>2011-09-10T14:23:11Z</time>
      </trkpt>
      <trkpt lat="45.6849" lon="6.24691">
        <ele>1879.527832</ele>
        <time>2011-09-10T14:23:16Z</time>
      </trkpt>
      <trkpt lat="45.68493" lon="6.24687">
        <ele>1878.468506</ele>
        <time>2011-09-10T14:23:21Z</time>
      </trkpt>
      <trkpt lat="45.68496" lon="6.24681">
        <ele>1876.769043</ele>
        <time>2011-09-10T14:23:26Z</time>
      </trkpt>
      <trkpt lat="45.68499" lon="6.24675">
        <ele>1875.536011</ele>
        <time>2011-09-10T14:23:31Z</time>
      </trkpt>
      <trkpt lat="45.68503" lon="6.2467">
        <ele>1874.24231</ele>
        <time>2011-09-10T14:23:36Z</time>
      </trkpt>
      <trkpt lat="45.68506" lon="6.24665">
        <ele>1871.646729</ele>
        <time>2011-09-10T14:23:41Z</time>
      </trkpt>
      <trkpt lat="45.6851" lon="6.24659">
        <ele>1867.523438</ele>
        <time>2011-09-10T14:23:46Z</time>
      </trkpt>
      <trkpt lat="45.68512" lon="6.24655">
        <ele>1864.242432</ele>
        <time>2011-09-10T14:23:51Z</time>
      </trkpt>
      <trkpt lat="45.68518" lon="6.24653">
        <ele>1861.078003</ele>
        <time>2011-09-10T14:23:56Z</time>
      </trkpt>
      <trkpt lat="45.68515" lon="6.24653">
        <ele>1861.967896</ele>
        <time>2011-09-10T14:24:01Z</time>
      </trkpt>
      <trkpt lat="45.6851" lon="6.24654">
        <ele>1864.906494</ele>
        <time>2011-09-10T14:24:06Z</time>
      </trkpt>
      <trkpt lat="45.68505" lon="6.24655">
        <ele>1867.113403</ele>
        <time>2011-09-10T14:24:11Z</time>
      </trkpt>
      <trkpt lat="45.685" lon="6.24656">
        <ele>1867.679443</ele>
        <time>2011-09-10T14:24:16Z</time>
      </trkpt>
      <trkpt lat="45.68495" lon="6.24658">
        <ele>1867.57666</ele>
        <time>2011-09-10T14:24:21Z</time>
      </trkpt>
      <trkpt lat="45.68491" lon="6.24659">
        <ele>1867.369629</ele>
        <time>2011-09-10T14:24:26Z</time>
      </trkpt>
      <trkpt lat="45.68493" lon="6.24655">
        <ele>1865.740845</ele>
        <time>2011-09-10T14:24:31Z</time>
      </trkpt>
      <trkpt lat="45.68496" lon="6.2465">
        <ele>1863.908936</ele>
        <time>2011-09-10T14:24:36Z</time>
      </trkpt>
      <trkpt lat="45.68499" lon="6.24646">
        <ele>1862.097778</ele>
        <time>2011-09-10T14:24:41Z</time>
      </trkpt>
      <trkpt lat="45.68501" lon="6.24644">
        <ele>1861.403198</ele>
        <time>2011-09-10T14:24:46Z</time>
      </trkpt>
      <trkpt lat="45.68504" lon="6.24639">
        <ele>1859.107544</ele>
        <time>2011-09-10T14:24:51Z</time>
      </trkpt>
      <trkpt lat="45.68508" lon="6.24635">
        <ele>1855.977295</ele>
        <time>2011-09-10T14:24:56Z</time>
      </trkpt>
      <trkpt lat="45.68511" lon="6.24634">
        <ele>1854.035889</ele>
        <time>2011-09-10T14:25:01Z</time>
      </trkpt>
      <trkpt lat="45.68513" lon="6.24631">
        <ele>1851.991089</ele>
        <time>2011-09-10T14:25:06Z</time>
      </trkpt>
      <trkpt lat="45.68513" lon="6.24631">
        <ele>1851.434326</ele>
        <time>2011-09-10T14:25:11Z</time>
      </trkpt>
      <trkpt lat="45.68514" lon="6.24631">
        <ele>1851.086914</ele>
        <time>2011-09-10T14:25:16Z</time>
      </trkpt>
      <trkpt lat="45.68512" lon="6.24631">
        <ele>1852.422974</ele>
        <time>2011-09-10T14:25:21Z</time>
      </trkpt>
      <trkpt lat="45.68509" lon="6.24632">
        <ele>1853.747314</ele>
        <time>2011-09-10T14:25:26Z</time>
      </trkpt>
      <trkpt lat="45.68504" lon="6.24634">
        <ele>1856.612183</ele>
        <time>2011-09-10T14:25:31Z</time>
      </trkpt>
      <trkpt lat="45.68497" lon="6.24635">
        <ele>1856.331543</ele>
        <time>2011-09-10T14:25:36Z</time>
      </trkpt>
      <trkpt lat="45.68492" lon="6.24636">
        <ele>1856.193359</ele>
        <time>2011-09-10T14:25:41Z</time>
      </trkpt>
      <trkpt lat="45.68486" lon="6.24638">
        <ele>1856.211304</ele>
        <time>2011-09-10T14:25:46Z</time>
      </trkpt>
      <trkpt lat="45.6848" lon="6.24639">
        <ele>1855.93042</ele>
        <time>2011-09-10T14:25:51Z</time>
      </trkpt>
      <trkpt lat="45.68475" lon="6.2464">
        <ele>1855.792725</ele>
        <time>2011-09-10T14:25:56Z</time>
      </trkpt>
      <trkpt lat="45.68469" lon="6.24642">
        <ele>1855.563965</ele>
        <time>2011-09-10T14:26:01Z</time>
      </trkpt>
      <trkpt lat="45.68463" lon="6.24645">
        <ele>1855.90686</ele>
        <time>2011-09-10T14:26:06Z</time>
      </trkpt>
      <trkpt lat="45.68457" lon="6.24647">
        <ele>1855.934326</ele>
        <time>2011-09-10T14:26:11Z</time>
      </trkpt>
      <trkpt lat="45.68452" lon="6.24648">
        <ele>1855.561768</ele>
        <time>2011-09-10T14:26:16Z</time>
      </trkpt>
      <trkpt lat="45.68447" lon="6.24646">
        <ele>1854.285034</ele>
        <time>2011-09-10T14:26:21Z</time>
      </trkpt>
      <trkpt lat="45.68441" lon="6.24645">
        <ele>1852.904297</ele>
        <time>2011-09-10T14:26:26Z</time>
      </trkpt>
      <trkpt lat="45.68435" lon="6.24644">
        <ele>1851.84082</ele>
        <time>2011-09-10T14:26:31Z</time>
      </trkpt>
      <trkpt lat="45.68429" lon="6.24643">
        <ele>1850.552246</ele>
        <time>2011-09-10T14:26:36Z</time>
      </trkpt>
      <trkpt lat="45.68423" lon="6.2464">
        <ele>1848.825684</ele>
        <time>2011-09-10T14:26:41Z</time>
      </trkpt>
      <trkpt lat="45.68417" lon="6.24639">
        <ele>1847.335815</ele>
        <time>2011-09-10T14:26:46Z</time>
      </trkpt>
      <trkpt lat="45.68412" lon="6.24636">
        <ele>1845.719238</ele>
        <time>2011-09-10T14:26:51Z</time>
      </trkpt>
      <trkpt lat="45.68408" lon="6.24633">
        <ele>1844.32605</ele>
        <time>2011-09-10T14:26:56Z</time>
      </trkpt>
      <trkpt lat="45.68408" lon="6.24631">
        <ele>1843.391357</ele>
        <time>2011-09-10T14:27:01Z</time>
      </trkpt>
      <trkpt lat="45.68405" lon="6.24626">
        <ele>1841.269775</ele>
        <time>2011-09-10T14:27:06Z</time>
      </trkpt>
      <trkpt lat="45.684" lon="6.24624">
        <ele>1840.646729</ele>
        <time>2011-09-10T14:27:11Z</time>
      </trkpt>
      <trkpt lat="45.68394" lon="6.24622">
        <ele>1839.44104</ele>
        <time>2011-09-10T14:27:16Z</time>
      </trkpt>
      <trkpt lat="45.68387" lon="6.24619">
        <ele>1838.29834</ele>
        <time>2011-09-10T14:27:21Z</time>
      </trkpt>
      <trkpt lat="45.68381" lon="6.24618">
        <ele>1837.755127</ele>
        <time>2011-09-10T14:27:26Z</time>
      </trkpt>
      <trkpt lat="45.68377" lon="6.24614">
        <ele>1836.150146</ele>
        <time>2011-09-10T14:27:31Z</time>
      </trkpt>
      <trkpt lat="45.68372" lon="6.24612">
        <ele>1835.132935</ele>
        <time>2011-09-10T14:27:36Z</time>
      </trkpt>
      <trkpt lat="45.68366" lon="6.24612">
        <ele>1834.396851</ele>
        <time>2011-09-10T14:27:41Z</time>
      </trkpt>
      <trkpt lat="45.6836" lon="6.24611">
        <ele>1832.99231</ele>
        <time>2011-09-10T14:27:46Z</time>
      </trkpt>
      <trkpt lat="45.68354" lon="6.24609">
        <ele>1831.552124</ele>
        <time>2011-09-10T14:27:51Z</time>
      </trkpt>
      <trkpt lat="45.68349" lon="6.24608">
        <ele>1830.12146</ele>
        <time>2011-09-10T14:27:56Z</time>
      </trkpt>
      <trkpt lat="45.68343" lon="6.24606">
        <ele>1828.618896</ele>
        <time>2011-09-10T14:28:01Z</time>
      </trkpt>
      <trkpt lat="45.68337" lon="6.24604">
        <ele>1826.738647</ele>
        <time>2011-09-10T14:28:06Z</time>
      </trkpt>
      <trkpt lat="45.68331" lon="6.24602">
        <ele>1825.185913</ele>
        <time>2011-09-10T14:28:11Z</time>
      </trkpt>
      <trkpt lat="45.68328" lon="6.24601">
        <ele>1824.360962</ele>
        <time>2011-09-10T14:28:16Z</time>
      </trkpt>
      <trkpt lat="45.68323" lon="6.246">
        <ele>1822.438721</ele>
        <time>2011-09-10T14:28:21Z</time>
      </trkpt>
      <trkpt lat="45.68317" lon="6.24598">
        <ele>1819.512207</ele>
        <time>2011-09-10T14:28:26Z</time>
      </trkpt>
      <trkpt lat="45.68311" lon="6.24598">
        <ele>1816.852661</ele>
        <time>2011-09-10T14:28:31Z</time>
      </trkpt>
      <trkpt lat="45.68308" lon="6.24597">
        <ele>1815.106201</ele>
        <time>2011-09-10T14:28:36Z</time>
      </trkpt>
      <trkpt lat="45.68309" lon="6.24597">
        <ele>1815.879517</ele>
        <time>2011-09-10T14:28:41Z</time>
      </trkpt>
      <trkpt lat="45.68304" lon="6.24598">
        <ele>1813.688232</ele>
        <time>2011-09-10T14:28:46Z</time>
      </trkpt>
      <trkpt lat="45.683" lon="6.24596">
        <ele>1811.591919</ele>
        <time>2011-09-10T14:28:51Z</time>
      </trkpt>
      <trkpt lat="45.68303" lon="6.24589">
        <ele>1811.320557</ele>
        <time>2011-09-10T14:28:56Z</time>
      </trkpt>
      <trkpt lat="45.68308" lon="6.24582">
        <ele>1810.580688</ele>
        <time>2011-09-10T14:29:01Z</time>
      </trkpt>
      <trkpt lat="45.68312" lon="6.24574">
        <ele>1809.169067</ele>
        <time>2011-09-10T14:29:06Z</time>
      </trkpt>
      <trkpt lat="45.68317" lon="6.24568">
        <ele>1808.210693</ele>
        <time>2011-09-10T14:29:11Z</time>
      </trkpt>
      <trkpt lat="45.68322" lon="6.24563">
        <ele>1807.405518</ele>
        <time>2011-09-10T14:29:16Z</time>
      </trkpt>
      <trkpt lat="45.68325" lon="6.24559">
        <ele>1806.533447</ele>
        <time>2011-09-10T14:29:21Z</time>
      </trkpt>
      <trkpt lat="45.68329" lon="6.24555">
        <ele>1805.477295</ele>
        <time>2011-09-10T14:29:26Z</time>
      </trkpt>
      <trkpt lat="45.68335" lon="6.24551">
        <ele>1804.071655</ele>
        <time>2011-09-10T14:29:31Z</time>
      </trkpt>
      <trkpt lat="45.6834" lon="6.24546">
        <ele>1802.568237</ele>
        <time>2011-09-10T14:29:36Z</time>
      </trkpt>
      <trkpt lat="45.68345" lon="6.24543">
        <ele>1801.521362</ele>
        <time>2011-09-10T14:29:41Z</time>
      </trkpt>
      <trkpt lat="45.68349" lon="6.24538">
        <ele>1799.762817</ele>
        <time>2011-09-10T14:29:46Z</time>
      </trkpt>
      <trkpt lat="45.68355" lon="6.24534">
        <ele>1798.553589</ele>
        <time>2011-09-10T14:29:51Z</time>
      </trkpt>
      <trkpt lat="45.68361" lon="6.24531">
        <ele>1797.725098</ele>
        <time>2011-09-10T14:29:56Z</time>
      </trkpt>
      <trkpt lat="45.68365" lon="6.24526">
        <ele>1795.36853</ele>
        <time>2011-09-10T14:30:01Z</time>
      </trkpt>
      <trkpt lat="45.68369" lon="6.24521">
        <ele>1793.65271</ele>
        <time>2011-09-10T14:30:06Z</time>
      </trkpt>
      <trkpt lat="45.68374" lon="6.24516">
        <ele>1791.781128</ele>
        <time>2011-09-10T14:30:11Z</time>
      </trkpt>
      <trkpt lat="45.68379" lon="6.24511">
        <ele>1790.251221</ele>
        <time>2011-09-10T14:30:16Z</time>
      </trkpt>
      <trkpt lat="45.68383" lon="6.24507">
        <ele>1788.769287</ele>
        <time>2011-09-10T14:30:21Z</time>
      </trkpt>
      <trkpt lat="45.68387" lon="6.24503">
        <ele>1787.720459</ele>
        <time>2011-09-10T14:30:26Z</time>
      </trkpt>
      <trkpt lat="45.68392" lon="6.24498">
        <ele>1785.952881</ele>
        <time>2011-09-10T14:30:31Z</time>
      </trkpt>
      <trkpt lat="45.68398" lon="6.24495">
        <ele>1785.506592</ele>
        <time>2011-09-10T14:30:36Z</time>
      </trkpt>
      <trkpt lat="45.68402" lon="6.24492">
        <ele>1784.961548</ele>
        <time>2011-09-10T14:30:41Z</time>
      </trkpt>
      <trkpt lat="45.68407" lon="6.24488">
        <ele>1784.036377</ele>
        <time>2011-09-10T14:30:46Z</time>
      </trkpt>
      <trkpt lat="45.68411" lon="6.24485">
        <ele>1783.293335</ele>
        <time>2011-09-10T14:30:51Z</time>
      </trkpt>
      <trkpt lat="45.68416" lon="6.24481">
        <ele>1782.182129</ele>
        <time>2011-09-10T14:30:56Z</time>
      </trkpt>
      <trkpt lat="45.68419" lon="6.24474">
        <ele>1779.860229</ele>
        <time>2011-09-10T14:31:01Z</time>
      </trkpt>
      <trkpt lat="45.68423" lon="6.24469">
        <ele>1778.158691</ele>
        <time>2011-09-10T14:31:06Z</time>
      </trkpt>
      <trkpt lat="45.68427" lon="6.24463">
        <ele>1776.572144</ele>
        <time>2011-09-10T14:31:11Z</time>
      </trkpt>
      <trkpt lat="45.6843" lon="6.24458">
        <ele>1775.130615</ele>
        <time>2011-09-10T14:31:16Z</time>
      </trkpt>
      <trkpt lat="45.68434" lon="6.24452">
        <ele>1773.309326</ele>
        <time>2011-09-10T14:31:21Z</time>
      </trkpt>
      <trkpt lat="45.68438" lon="6.24447">
        <ele>1772.194824</ele>
        <time>2011-09-10T14:31:26Z</time>
      </trkpt>
      <trkpt lat="45.68441" lon="6.24443">
        <ele>1770.859741</ele>
        <time>2011-09-10T14:31:31Z</time>
      </trkpt>
      <trkpt lat="45.68443" lon="6.24438">
        <ele>1769.419189</ele>
        <time>2011-09-10T14:31:36Z</time>
      </trkpt>
      <trkpt lat="45.68447" lon="6.24434">
        <ele>1768.375732</ele>
        <time>2011-09-10T14:31:41Z</time>
      </trkpt>
      <trkpt lat="45.68452" lon="6.24431">
        <ele>1767.873657</ele>
        <time>2011-09-10T14:31:46Z</time>
      </trkpt>
      <trkpt lat="45.68456" lon="6.24427">
        <ele>1766.845947</ele>
        <time>2011-09-10T14:31:51Z</time>
      </trkpt>
      <trkpt lat="45.68459" lon="6.24424">
        <ele>1766.289795</ele>
        <time>2011-09-10T14:31:56Z</time>
      </trkpt>
      <trkpt lat="45.68462" lon="6.24423">
        <ele>1766.148926</ele>
        <time>2011-09-10T14:32:01Z</time>
      </trkpt>
      <trkpt lat="45.68463" lon="6.24422">
        <ele>1765.713379</ele>
        <time>2011-09-10T14:32:06Z</time>
      </trkpt>
      <trkpt lat="45.68463" lon="6.24421">
        <ele>1765.519043</ele>
        <time>2011-09-10T14:32:11Z</time>
      </trkpt>
      <trkpt lat="45.68466" lon="6.24419">
        <ele>1765.012085</ele>
        <time>2011-09-10T14:32:16Z</time>
      </trkpt>
      <trkpt lat="45.68472" lon="6.24417">
        <ele>1763.915649</ele>
        <time>2011-09-10T14:32:21Z</time>
      </trkpt>
      <trkpt lat="45.68478" lon="6.24416">
        <ele>1763.21582</ele>
        <time>2011-09-10T14:32:26Z</time>
      </trkpt>
      <trkpt lat="45.6849" lon="6.24413">
        <ele>1760.974121</ele>
        <time>2011-09-10T14:32:31Z</time>
      </trkpt>
      <trkpt lat="45.68486" lon="6.24411">
        <ele>1760.401855</ele>
        <time>2011-09-10T14:32:36Z</time>
      </trkpt>
      <trkpt lat="45.68483" lon="6.24407">
        <ele>1759.406128</ele>
        <time>2011-09-10T14:32:41Z</time>
      </trkpt>
      <trkpt lat="45.68479" lon="6.24406">
        <ele>1759.134521</ele>
        <time>2011-09-10T14:32:46Z</time>
      </trkpt>
      <trkpt lat="45.68481" lon="6.24402">
        <ele>1757.835693</ele>
        <time>2011-09-10T14:32:51Z</time>
      </trkpt>
      <trkpt lat="45.68485" lon="6.24399">
        <ele>1756.69812</ele>
        <time>2011-09-10T14:32:56Z</time>
      </trkpt>
      <trkpt lat="45.6849" lon="6.24397">
        <ele>1755.584839</ele>
        <time>2011-09-10T14:33:01Z</time>
      </trkpt>
      <trkpt lat="45.68492" lon="6.24395">
        <ele>1754.849854</ele>
        <time>2011-09-10T14:33:06Z</time>
      </trkpt>
      <trkpt lat="45.68494" lon="6.24392">
        <ele>1754.057251</ele>
        <time>2011-09-10T14:33:11Z</time>
      </trkpt>
      <trkpt lat="45.68498" lon="6.2439">
        <ele>1753.224121</ele>
        <time>2011-09-10T14:33:16Z</time>
      </trkpt>
      <trkpt lat="45.68499" lon="6.24386">
        <ele>1752.1073</ele>
        <time>2011-09-10T14:33:21Z</time>
      </trkpt>
      <trkpt lat="45.68502" lon="6.24384">
        <ele>1751.207642</ele>
        <time>2011-09-10T14:33:26Z</time>
      </trkpt>
      <trkpt lat="45.68507" lon="6.24381">
        <ele>1750.273193</ele>
        <time>2011-09-10T14:33:31Z</time>
      </trkpt>
      <trkpt lat="45.6851" lon="6.24376">
        <ele>1748.817017</ele>
        <time>2011-09-10T14:33:36Z</time>
      </trkpt>
      <trkpt lat="45.68512" lon="6.2437">
        <ele>1747.000244</ele>
        <time>2011-09-10T14:33:41Z</time>
      </trkpt>
      <trkpt lat="45.68513" lon="6.24362">
        <ele>1744.789429</ele>
        <time>2011-09-10T14:33:46Z</time>
      </trkpt>
      <trkpt lat="45.68515" lon="6.24355">
        <ele>1742.665283</ele>
        <time>2011-09-10T14:33:51Z</time>
      </trkpt>
      <trkpt lat="45.68517" lon="6.24348">
        <ele>1740.365601</ele>
        <time>2011-09-10T14:33:56Z</time>
      </trkpt>
      <trkpt lat="45.68519" lon="6.24343">
        <ele>1738.618286</ele>
        <time>2011-09-10T14:34:01Z</time>
      </trkpt>
      <trkpt lat="45.68522" lon="6.24337">
        <ele>1737.207397</ele>
        <time>2011-09-10T14:34:06Z</time>
      </trkpt>
      <trkpt lat="45.68525" lon="6.24332">
        <ele>1735.737305</ele>
        <time>2011-09-10T14:34:11Z</time>
      </trkpt>
      <trkpt lat="45.68528" lon="6.24324">
        <ele>1734.393799</ele>
        <time>2011-09-10T14:34:16Z</time>
      </trkpt>
      <trkpt lat="45.68531" lon="6.24317">
        <ele>1733.199951</ele>
        <time>2011-09-10T14:34:21Z</time>
      </trkpt>
      <trkpt lat="45.68535" lon="6.24309">
        <ele>1732.133667</ele>
        <time>2011-09-10T14:34:26Z</time>
      </trkpt>
      <trkpt lat="45.68538" lon="6.24301">
        <ele>1731.320923</ele>
        <time>2011-09-10T14:34:31Z</time>
      </trkpt>
      <trkpt lat="45.6854" lon="6.24294">
        <ele>1730.785889</ele>
        <time>2011-09-10T14:34:36Z</time>
      </trkpt>
      <trkpt lat="45.68542" lon="6.24287">
        <ele>1730.361816</ele>
        <time>2011-09-10T14:34:41Z</time>
      </trkpt>
      <trkpt lat="45.68543" lon="6.24285">
        <ele>1730.260132</ele>
        <time>2011-09-10T14:34:46Z</time>
      </trkpt>
      <trkpt lat="45.68543" lon="6.24285">
        <ele>1730.276367</ele>
        <time>2011-09-10T14:34:51Z</time>
      </trkpt>
      <trkpt lat="45.68543" lon="6.24285">
        <ele>1730.288208</ele>
        <time>2011-09-10T14:34:56Z</time>
      </trkpt>
      <trkpt lat="45.68543" lon="6.24285">
        <ele>1730.310059</ele>
        <time>2011-09-10T14:35:01Z</time>
      </trkpt>
      <trkpt lat="45.68543" lon="6.24286">
        <ele>1730.318481</ele>
        <time>2011-09-10T14:35:06Z</time>
      </trkpt>
      <trkpt lat="45.68543" lon="6.24286">
        <ele>1730.327026</ele>
        <time>2011-09-10T14:35:11Z</time>
      </trkpt>
      <trkpt lat="45.68543" lon="6.24285">
        <ele>1730.301514</ele>
        <time>2011-09-10T14:35:16Z</time>
      </trkpt>
      <trkpt lat="45.68543" lon="6.24284">
        <ele>1730.250732</ele>
        <time>2011-09-10T14:35:21Z</time>
      </trkpt>
      <trkpt lat="45.68543" lon="6.24283">
        <ele>1730.209106</ele>
        <time>2011-09-10T14:35:26Z</time>
      </trkpt>
      <trkpt lat="45.68543" lon="6.24283">
        <ele>1730.187622</ele>
        <time>2011-09-10T14:35:31Z</time>
      </trkpt>
      <trkpt lat="45.68543" lon="6.24282">
        <ele>1730.264282</ele>
        <time>2011-09-10T14:35:36Z</time>
      </trkpt>
      <trkpt lat="45.68544" lon="6.24279">
        <ele>1730.607422</ele>
        <time>2011-09-10T14:35:41Z</time>
      </trkpt>
      <trkpt lat="45.68545" lon="6.24271">
        <ele>1731.397461</ele>
        <time>2011-09-10T14:35:46Z</time>
      </trkpt>
      <trkpt lat="45.68546" lon="6.24263">
        <ele>1732.225342</ele>
        <time>2011-09-10T14:35:51Z</time>
      </trkpt>
      <trkpt lat="45.68545" lon="6.24257">
        <ele>1732.750732</ele>
        <time>2011-09-10T14:35:56Z</time>
      </trkpt>
      <trkpt lat="45.68543" lon="6.2425">
        <ele>1733.105469</ele>
        <time>2011-09-10T14:36:01Z</time>
      </trkpt>
      <trkpt lat="45.68541" lon="6.24243">
        <ele>1733.480347</ele>
        <time>2011-09-10T14:36:06Z</time>
      </trkpt>
      <trkpt lat="45.68539" lon="6.24235">
        <ele>1733.750122</ele>
        <time>2011-09-10T14:36:11Z</time>
      </trkpt>
      <trkpt lat="45.68538" lon="6.24229">
        <ele>1733.972168</ele>
        <time>2011-09-10T14:36:16Z</time>
      </trkpt>
      <trkpt lat="45.68535" lon="6.24222">
        <ele>1733.953003</ele>
        <time>2011-09-10T14:36:21Z</time>
      </trkpt>
      <trkpt lat="45.68533" lon="6.24215">
        <ele>1734.030762</ele>
        <time>2011-09-10T14:36:26Z</time>
      </trkpt>
      <trkpt lat="45.68532" lon="6.24207">
        <ele>1734.248291</ele>
        <time>2011-09-10T14:36:31Z</time>
      </trkpt>
      <trkpt lat="45.68532" lon="6.24198">
        <ele>1734.713257</ele>
        <time>2011-09-10T14:36:36Z</time>
      </trkpt>
      <trkpt lat="45.68531" lon="6.24191">
        <ele>1735.114624</ele>
        <time>2011-09-10T14:36:41Z</time>
      </trkpt>
      <trkpt lat="45.68528" lon="6.24183">
        <ele>1735.544312</ele>
        <time>2011-09-10T14:36:46Z</time>
      </trkpt>
      <trkpt lat="45.68525" lon="6.24176">
        <ele>1736.09021</ele>
        <time>2011-09-10T14:36:51Z</time>
      </trkpt>
      <trkpt lat="45.68522" lon="6.2417">
        <ele>1736.815918</ele>
        <time>2011-09-10T14:36:56Z</time>
      </trkpt>
      <trkpt lat="45.68518" lon="6.24165">
        <ele>1736.442505</ele>
        <time>2011-09-10T14:37:01Z</time>
      </trkpt>
      <trkpt lat="45.68515" lon="6.24158">
        <ele>1735.899536</ele>
        <time>2011-09-10T14:37:06Z</time>
      </trkpt>
      <trkpt lat="45.68513" lon="6.24151">
        <ele>1735.64502</ele>
        <time>2011-09-10T14:37:11Z</time>
      </trkpt>
      <trkpt lat="45.68512" lon="6.24144">
        <ele>1735.88501</ele>
        <time>2011-09-10T14:37:16Z</time>
      </trkpt>
      <trkpt lat="45.68512" lon="6.24136">
        <ele>1735.880005</ele>
        <time>2011-09-10T14:37:21Z</time>
      </trkpt>
      <trkpt lat="45.68511" lon="6.24129">
        <ele>1735.984985</ele>
        <time>2011-09-10T14:37:26Z</time>
      </trkpt>
      <trkpt lat="45.68509" lon="6.24124">
        <ele>1735.625</ele>
        <time>2011-09-10T14:37:31Z</time>
      </trkpt>
      <trkpt lat="45.68511" lon="6.24118">
        <ele>1736.375</ele>
        <time>2011-09-10T14:37:36Z</time>
      </trkpt>
      <trkpt lat="45.68509" lon="6.24114">
        <ele>1735.77002</ele>
        <time>2011-09-10T14:37:41Z</time>
      </trkpt>
      <trkpt lat="45.68509" lon="6.24107">
        <ele>1736.089966</ele>
        <time>2011-09-10T14:37:46Z</time>
      </trkpt>
      <trkpt lat="45.68509" lon="6.24097">
        <ele>1736.589966</ele>
        <time>2011-09-10T14:37:51Z</time>
      </trkpt>
      <trkpt lat="45.68508" lon="6.24089">
        <ele>1736.849976</ele>
        <time>2011-09-10T14:37:56Z</time>
      </trkpt>
      <trkpt lat="45.68509" lon="6.24083">
        <ele>1737.015259</ele>
        <time>2011-09-10T14:38:01Z</time>
      </trkpt>
      <trkpt lat="45.68509" lon="6.24077">
        <ele>1737.347168</ele>
        <time>2011-09-10T14:38:06Z</time>
      </trkpt>
      <trkpt lat="45.68509" lon="6.2407">
        <ele>1737.285889</ele>
        <time>2011-09-10T14:38:11Z</time>
      </trkpt>
      <trkpt lat="45.68509" lon="6.24062">
        <ele>1736.97998</ele>
        <time>2011-09-10T14:38:16Z</time>
      </trkpt>
      <trkpt lat="45.68506" lon="6.24054">
        <ele>1735.918091</ele>
        <time>2011-09-10T14:38:21Z</time>
      </trkpt>
      <trkpt lat="45.68506" lon="6.24047">
        <ele>1736.057007</ele>
        <time>2011-09-10T14:38:26Z</time>
      </trkpt>
      <trkpt lat="45.68505" lon="6.24039">
        <ele>1735.706543</ele>
        <time>2011-09-10T14:38:31Z</time>
      </trkpt>
      <trkpt lat="45.68505" lon="6.24032">
        <ele>1735.716919</ele>
        <time>2011-09-10T14:38:36Z</time>
      </trkpt>
      <trkpt lat="45.68505" lon="6.24024">
        <ele>1735.710938</ele>
        <time>2011-09-10T14:38:41Z</time>
      </trkpt>
      <trkpt lat="45.68506" lon="6.24016">
        <ele>1736.292358</ele>
        <time>2011-09-10T14:38:46Z</time>
      </trkpt>
      <trkpt lat="45.68509" lon="6.24008">
        <ele>1737.646973</ele>
        <time>2011-09-10T14:38:51Z</time>
      </trkpt>
      <trkpt lat="45.68511" lon="6.24">
        <ele>1738.770996</ele>
        <time>2011-09-10T14:38:56Z</time>
      </trkpt>
      <trkpt lat="45.68513" lon="6.23992">
        <ele>1740.17041</ele>
        <time>2011-09-10T14:39:01Z</time>
      </trkpt>
      <trkpt lat="45.68515" lon="6.23984">
        <ele>1741.46167</ele>
        <time>2011-09-10T14:39:06Z</time>
      </trkpt>
      <trkpt lat="45.68519" lon="6.23976">
        <ele>1743.174683</ele>
        <time>2011-09-10T14:39:11Z</time>
      </trkpt>
      <trkpt lat="45.68522" lon="6.23969">
        <ele>1744.925293</ele>
        <time>2011-09-10T14:39:16Z</time>
      </trkpt>
      <trkpt lat="45.68525" lon="6.23964">
        <ele>1746.546753</ele>
        <time>2011-09-10T14:39:21Z</time>
      </trkpt>
      <trkpt lat="45.68525" lon="6.23963">
        <ele>1746.766479</ele>
        <time>2011-09-10T14:39:26Z</time>
      </trkpt>
      <trkpt lat="45.68526" lon="6.23963">
        <ele>1746.920044</ele>
        <time>2011-09-10T14:39:31Z</time>
      </trkpt>
      <trkpt lat="45.68526" lon="6.23963">
        <ele>1746.897095</ele>
        <time>2011-09-10T14:39:36Z</time>
      </trkpt>
      <trkpt lat="45.68525" lon="6.23961">
        <ele>1746.882446</ele>
        <time>2011-09-10T14:39:41Z</time>
      </trkpt>
      <trkpt lat="45.68525" lon="6.2396">
        <ele>1746.759521</ele>
        <time>2011-09-10T14:39:46Z</time>
      </trkpt>
      <trkpt lat="45.68528" lon="6.23962">
        <ele>1747.865112</ele>
        <time>2011-09-10T14:39:51Z</time>
      </trkpt>
      <trkpt lat="45.6853" lon="6.23971">
        <ele>1746.0271</ele>
        <time>2011-09-10T14:47:36Z</time>
      </trkpt>
      <trkpt lat="45.68531" lon="6.23972">
        <ele>1745.491455</ele>
        <time>2011-09-10T14:47:41Z</time>
      </trkpt>
      <trkpt lat="45.68535" lon="6.23974">
        <ele>1743.225464</ele>
        <time>2011-09-10T14:47:46Z</time>
      </trkpt>
      <trkpt lat="45.68538" lon="6.23971">
        <ele>1742.225098</ele>
        <time>2011-09-10T14:47:51Z</time>
      </trkpt>
      <trkpt lat="45.6854" lon="6.23967">
        <ele>1740.950562</ele>
        <time>2011-09-10T14:47:56Z</time>
      </trkpt>
      <trkpt lat="45.68541" lon="6.23972">
        <ele>1740.467773</ele>
        <time>2011-09-10T14:48:01Z</time>
      </trkpt>
      <trkpt lat="45.68542" lon="6.23974">
        <ele>1740.078491</ele>
        <time>2011-09-10T14:48:06Z</time>
      </trkpt>
      <trkpt lat="45.68544" lon="6.23968">
        <ele>1739.133545</ele>
        <time>2011-09-10T14:48:11Z</time>
      </trkpt>
      <trkpt lat="45.68546" lon="6.23962">
        <ele>1738.195557</ele>
        <time>2011-09-10T14:48:16Z</time>
      </trkpt>
      <trkpt lat="45.68549" lon="6.23959">
        <ele>1736.664795</ele>
        <time>2011-09-10T14:48:21Z</time>
      </trkpt>
      <trkpt lat="45.68551" lon="6.23951">
        <ele>1735.747437</ele>
        <time>2011-09-10T14:48:26Z</time>
      </trkpt>
      <trkpt lat="45.68554" lon="6.23944">
        <ele>1735.232544</ele>
        <time>2011-09-10T14:48:31Z</time>
      </trkpt>
      <trkpt lat="45.68552" lon="6.23937">
        <ele>1736.498047</ele>
        <time>2011-09-10T14:48:36Z</time>
      </trkpt>
      <trkpt lat="45.68552" lon="6.2393">
        <ele>1736.849243</ele>
        <time>2011-09-10T14:48:41Z</time>
      </trkpt>
      <trkpt lat="45.68555" lon="6.23924">
        <ele>1736.124756</ele>
        <time>2011-09-10T14:48:46Z</time>
      </trkpt>
      <trkpt lat="45.68557" lon="6.2392">
        <ele>1735.640747</ele>
        <time>2011-09-10T14:48:51Z</time>
      </trkpt>
      <trkpt lat="45.6856" lon="6.23916">
        <ele>1734.605835</ele>
        <time>2011-09-10T14:48:56Z</time>
      </trkpt>
      <trkpt lat="45.68564" lon="6.23908">
        <ele>1734.144653</ele>
        <time>2011-09-10T14:49:01Z</time>
      </trkpt>
      <trkpt lat="45.68565" lon="6.23904">
        <ele>1734.07605</ele>
        <time>2011-09-10T14:49:06Z</time>
      </trkpt>
      <trkpt lat="45.68568" lon="6.239">
        <ele>1733.542847</ele>
        <time>2011-09-10T14:49:11Z</time>
      </trkpt>
      <trkpt lat="45.6857" lon="6.23894">
        <ele>1734.581299</ele>
        <time>2011-09-10T14:49:16Z</time>
      </trkpt>
      <trkpt lat="45.68573" lon="6.23895">
        <ele>1733.493042</ele>
        <time>2011-09-10T14:49:21Z</time>
      </trkpt>
      <trkpt lat="45.68573" lon="6.23902">
        <ele>1731.403809</ele>
        <time>2011-09-10T14:49:26Z</time>
      </trkpt>
      <trkpt lat="45.68573" lon="6.23908">
        <ele>1730.565552</ele>
        <time>2011-09-10T14:49:31Z</time>
      </trkpt>
      <trkpt lat="45.68574" lon="6.23912">
        <ele>1729.721313</ele>
        <time>2011-09-10T14:49:36Z</time>
      </trkpt>
      <trkpt lat="45.68573" lon="6.23918">
        <ele>1729.137695</ele>
        <time>2011-09-10T14:49:41Z</time>
      </trkpt>
      <trkpt lat="45.68575" lon="6.23919">
        <ele>1728.509399</ele>
        <time>2011-09-10T14:49:46Z</time>
      </trkpt>
      <trkpt lat="45.68579" lon="6.23913">
        <ele>1726.540039</ele>
        <time>2011-09-10T14:49:51Z</time>
      </trkpt>
      <trkpt lat="45.68582" lon="6.23909">
        <ele>1725.231201</ele>
        <time>2011-09-10T14:49:56Z</time>
      </trkpt>
      <trkpt lat="45.68585" lon="6.23904">
        <ele>1724.59375</ele>
        <time>2011-09-10T14:50:01Z</time>
      </trkpt>
      <trkpt lat="45.68588" lon="6.23898">
        <ele>1724.421753</ele>
        <time>2011-09-10T14:50:06Z</time>
      </trkpt>
      <trkpt lat="45.68591" lon="6.23894">
        <ele>1724.065674</ele>
        <time>2011-09-10T14:50:11Z</time>
      </trkpt>
      <trkpt lat="45.68595" lon="6.23894">
        <ele>1721.867432</ele>
        <time>2011-09-10T14:50:16Z</time>
      </trkpt>
      <trkpt lat="45.68593" lon="6.23901">
        <ele>1720.195557</ele>
        <time>2011-09-10T14:50:21Z</time>
      </trkpt>
      <trkpt lat="45.68592" lon="6.23908">
        <ele>1719.690063</ele>
        <time>2011-09-10T14:50:26Z</time>
      </trkpt>
      <trkpt lat="45.68591" lon="6.23917">
        <ele>1719.001831</ele>
        <time>2011-09-10T14:50:31Z</time>
      </trkpt>
      <trkpt lat="45.68589" lon="6.23923">
        <ele>1719.075806</ele>
        <time>2011-09-10T14:50:36Z</time>
      </trkpt>
      <trkpt lat="45.68587" lon="6.23929">
        <ele>1719.366699</ele>
        <time>2011-09-10T14:50:41Z</time>
      </trkpt>
      <trkpt lat="45.68588" lon="6.2393">
        <ele>1718.509399</ele>
        <time>2011-09-10T14:50:46Z</time>
      </trkpt>
      <trkpt lat="45.68592" lon="6.23923">
        <ele>1717.206909</ele>
        <time>2011-09-10T14:50:51Z</time>
      </trkpt>
      <trkpt lat="45.68596" lon="6.2392">
        <ele>1715.444824</ele>
        <time>2011-09-10T14:50:56Z</time>
      </trkpt>
      <trkpt lat="45.68599" lon="6.23915">
        <ele>1713.938354</ele>
        <time>2011-09-10T14:51:01Z</time>
      </trkpt>
      <trkpt lat="45.68603" lon="6.23909">
        <ele>1712.838745</ele>
        <time>2011-09-10T14:51:06Z</time>
      </trkpt>
      <trkpt lat="45.68606" lon="6.23904">
        <ele>1712.101563</ele>
        <time>2011-09-10T14:51:11Z</time>
      </trkpt>
      <trkpt lat="45.6861" lon="6.23897">
        <ele>1712.265259</ele>
        <time>2011-09-10T14:51:16Z</time>
      </trkpt>
      <trkpt lat="45.68614" lon="6.23895">
        <ele>1710.557373</ele>
        <time>2011-09-10T14:51:21Z</time>
      </trkpt>
      <trkpt lat="45.68613" lon="6.23901">
        <ele>1708.874023</ele>
        <time>2011-09-10T14:51:26Z</time>
      </trkpt>
      <trkpt lat="45.68612" lon="6.23909">
        <ele>1707.758301</ele>
        <time>2011-09-10T14:51:31Z</time>
      </trkpt>
      <trkpt lat="45.6861" lon="6.23917">
        <ele>1706.907837</ele>
        <time>2011-09-10T14:51:36Z</time>
      </trkpt>
      <trkpt lat="45.6861" lon="6.23924">
        <ele>1705.747803</ele>
        <time>2011-09-10T14:51:41Z</time>
      </trkpt>
      <trkpt lat="45.68607" lon="6.2393">
        <ele>1706.070801</ele>
        <time>2011-09-10T14:51:46Z</time>
      </trkpt>
      <trkpt lat="45.68606" lon="6.23937">
        <ele>1705.822144</ele>
        <time>2011-09-10T14:51:51Z</time>
      </trkpt>
      <trkpt lat="45.68609" lon="6.23934">
        <ele>1704.452515</ele>
        <time>2011-09-10T14:51:56Z</time>
      </trkpt>
      <trkpt lat="45.68613" lon="6.23929">
        <ele>1703.018066</ele>
        <time>2011-09-10T14:52:01Z</time>
      </trkpt>
      <trkpt lat="45.68617" lon="6.23924">
        <ele>1701.512085</ele>
        <time>2011-09-10T14:52:06Z</time>
      </trkpt>
      <trkpt lat="45.68618" lon="6.23915">
        <ele>1702.324707</ele>
        <time>2011-09-10T14:52:11Z</time>
      </trkpt>
      <trkpt lat="45.68622" lon="6.23909">
        <ele>1701.477783</ele>
        <time>2011-09-10T14:52:16Z</time>
      </trkpt>
      <trkpt lat="45.68626" lon="6.23907">
        <ele>1699.677734</ele>
        <time>2011-09-10T14:52:21Z</time>
      </trkpt>
      <trkpt lat="45.68629" lon="6.23902">
        <ele>1699.095947</ele>
        <time>2011-09-10T14:52:26Z</time>
      </trkpt>
      <trkpt lat="45.68633" lon="6.23899">
        <ele>1697.89209</ele>
        <time>2011-09-10T14:52:31Z</time>
      </trkpt>
      <trkpt lat="45.68637" lon="6.23895">
        <ele>1697.50647</ele>
        <time>2011-09-10T14:52:36Z</time>
      </trkpt>
      <trkpt lat="45.68641" lon="6.23889">
        <ele>1698.172241</ele>
        <time>2011-09-10T14:52:41Z</time>
      </trkpt>
      <trkpt lat="45.68646" lon="6.23885">
        <ele>1697.207642</ele>
        <time>2011-09-10T14:52:46Z</time>
      </trkpt>
      <trkpt lat="45.68649" lon="6.23882">
        <ele>1696.856689</ele>
        <time>2011-09-10T14:52:51Z</time>
      </trkpt>
      <trkpt lat="45.68649" lon="6.23888">
        <ele>1694.017822</ele>
        <time>2011-09-10T14:52:56Z</time>
      </trkpt>
      <trkpt lat="45.68647" lon="6.23895">
        <ele>1692.057007</ele>
        <time>2011-09-10T14:53:01Z</time>
      </trkpt>
      <trkpt lat="45.68644" lon="6.23903">
        <ele>1690.104858</ele>
        <time>2011-09-10T14:53:06Z</time>
      </trkpt>
      <trkpt lat="45.68643" lon="6.2391">
        <ele>1689.104248</ele>
        <time>2011-09-10T14:53:11Z</time>
      </trkpt>
      <trkpt lat="45.68646" lon="6.23912">
        <ele>1687.028564</ele>
        <time>2011-09-10T14:53:16Z</time>
      </trkpt>
      <trkpt lat="45.68648" lon="6.23907">
        <ele>1686.426392</ele>
        <time>2011-09-10T14:53:21Z</time>
      </trkpt>
      <trkpt lat="45.68652" lon="6.23903">
        <ele>1685.366455</ele>
        <time>2011-09-10T14:53:26Z</time>
      </trkpt>
      <trkpt lat="45.68657" lon="6.23897">
        <ele>1685.601196</ele>
        <time>2011-09-10T14:53:31Z</time>
      </trkpt>
      <trkpt lat="45.68662" lon="6.23894">
        <ele>1684.342896</ele>
        <time>2011-09-10T14:53:36Z</time>
      </trkpt>
      <trkpt lat="45.68667" lon="6.2389">
        <ele>1683.122559</ele>
        <time>2011-09-10T14:53:41Z</time>
      </trkpt>
      <trkpt lat="45.68672" lon="6.23887">
        <ele>1681.876953</ele>
        <time>2011-09-10T14:53:46Z</time>
      </trkpt>
      <trkpt lat="45.68677" lon="6.23883">
        <ele>1680.400146</ele>
        <time>2011-09-10T14:53:51Z</time>
      </trkpt>
      <trkpt lat="45.68681" lon="6.2388">
        <ele>1679.120728</ele>
        <time>2011-09-10T14:53:56Z</time>
      </trkpt>
      <trkpt lat="45.68685" lon="6.23878">
        <ele>1677.706665</ele>
        <time>2011-09-10T14:54:01Z</time>
      </trkpt>
      <trkpt lat="45.68685" lon="6.23879">
        <ele>1677.245605</ele>
        <time>2011-09-10T14:54:06Z</time>
      </trkpt>
      <trkpt lat="45.68687" lon="6.23878">
        <ele>1676.493042</ele>
        <time>2011-09-10T14:54:11Z</time>
      </trkpt>
      <trkpt lat="45.68688" lon="6.23878">
        <ele>1676.395996</ele>
        <time>2011-09-10T14:54:16Z</time>
      </trkpt>
      <trkpt lat="45.68691" lon="6.2388">
        <ele>1673.544922</ele>
        <time>2011-09-10T14:54:21Z</time>
      </trkpt>
      <trkpt lat="45.68697" lon="6.23879">
        <ele>1670.106079</ele>
        <time>2011-09-10T14:54:26Z</time>
      </trkpt>
      <trkpt lat="45.68703" lon="6.2388">
        <ele>1666.167114</ele>
        <time>2011-09-10T14:54:31Z</time>
      </trkpt>
      <trkpt lat="45.68706" lon="6.2388">
        <ele>1664.42627</ele>
        <time>2011-09-10T14:54:36Z</time>
      </trkpt>
      <trkpt lat="45.6871" lon="6.23883">
        <ele>1660.871704</ele>
        <time>2011-09-10T14:54:41Z</time>
      </trkpt>
      <trkpt lat="45.68715" lon="6.23878">
        <ele>1659.855469</ele>
        <time>2011-09-10T14:54:46Z</time>
      </trkpt>
      <trkpt lat="45.6872" lon="6.23877">
        <ele>1658.477417</ele>
        <time>2011-09-10T14:54:51Z</time>
      </trkpt>
      <trkpt lat="45.68724" lon="6.23874">
        <ele>1657.407471</ele>
        <time>2011-09-10T14:54:56Z</time>
      </trkpt>
      <trkpt lat="45.68728" lon="6.23872">
        <ele>1655.688599</ele>
        <time>2011-09-10T14:55:01Z</time>
      </trkpt>
      <trkpt lat="45.68731" lon="6.23869">
        <ele>1655.891113</ele>
        <time>2011-09-10T14:55:06Z</time>
      </trkpt>
      <trkpt lat="45.68733" lon="6.23866">
        <ele>1655.853638</ele>
        <time>2011-09-10T14:55:11Z</time>
      </trkpt>
      <trkpt lat="45.68735" lon="6.23862">
        <ele>1655.963989</ele>
        <time>2011-09-10T14:55:16Z</time>
      </trkpt>
      <trkpt lat="45.68735" lon="6.23856">
        <ele>1658.421265</ele>
        <time>2011-09-10T14:55:21Z</time>
      </trkpt>
      <trkpt lat="45.68734" lon="6.23851">
        <ele>1660.790894</ele>
        <time>2011-09-10T14:55:26Z</time>
      </trkpt>
      <trkpt lat="45.68735" lon="6.23844">
        <ele>1660.943481</ele>
        <time>2011-09-10T14:55:31Z</time>
      </trkpt>
      <trkpt lat="45.68737" lon="6.23843">
        <ele>1660.082642</ele>
        <time>2011-09-10T14:55:36Z</time>
      </trkpt>
      <trkpt lat="45.68737" lon="6.23844">
        <ele>1660.209473</ele>
        <time>2011-09-10T14:55:41Z</time>
      </trkpt>
      <trkpt lat="45.68737" lon="6.23845">
        <ele>1660.345093</ele>
        <time>2011-09-10T14:55:46Z</time>
      </trkpt>
      <trkpt lat="45.68736" lon="6.23845">
        <ele>1660.757202</ele>
        <time>2011-09-10T14:55:51Z</time>
      </trkpt>
      <trkpt lat="45.68739" lon="6.23848">
        <ele>1659.328613</ele>
        <time>2011-09-10T14:55:56Z</time>
      </trkpt>
      <trkpt lat="45.68744" lon="6.23851">
        <ele>1656.203003</ele>
        <time>2011-09-10T14:56:01Z</time>
      </trkpt>
      <trkpt lat="45.68751" lon="6.23854">
        <ele>1651.840454</ele>
        <time>2011-09-10T14:56:06Z</time>
      </trkpt>
      <trkpt lat="45.68757" lon="6.23856">
        <ele>1648.226318</ele>
        <time>2011-09-10T14:56:11Z</time>
      </trkpt>
      <trkpt lat="45.68763" lon="6.23858">
        <ele>1645.3125</ele>
        <time>2011-09-10T14:56:16Z</time>
      </trkpt>
      <trkpt lat="45.68766" lon="6.23859">
        <ele>1643.507446</ele>
        <time>2011-09-10T14:56:21Z</time>
      </trkpt>
      <trkpt lat="45.68771" lon="6.23858">
        <ele>1642.553711</ele>
        <time>2011-09-10T14:56:26Z</time>
      </trkpt>
      <trkpt lat="45.68776" lon="6.23857">
        <ele>1640.930054</ele>
        <time>2011-09-10T14:56:31Z</time>
      </trkpt>
      <trkpt lat="45.68781" lon="6.23856">
        <ele>1639.59375</ele>
        <time>2011-09-10T14:56:36Z</time>
      </trkpt>
      <trkpt lat="45.68786" lon="6.23855">
        <ele>1638.025024</ele>
        <time>2011-09-10T14:56:41Z</time>
      </trkpt>
      <trkpt lat="45.68792" lon="6.23856">
        <ele>1635.699951</ele>
        <time>2011-09-10T14:56:46Z</time>
      </trkpt>
      <trkpt lat="45.68798" lon="6.23859">
        <ele>1632.670044</ele>
        <time>2011-09-10T14:56:51Z</time>
      </trkpt>
      <trkpt lat="45.68803" lon="6.23861">
        <ele>1630.218018</ele>
        <time>2011-09-10T14:56:56Z</time>
      </trkpt>
      <trkpt lat="45.6881" lon="6.2386">
        <ele>1629.338013</ele>
        <time>2011-09-10T14:57:01Z</time>
      </trkpt>
      <trkpt lat="45.68816" lon="6.23859">
        <ele>1628.792603</ele>
        <time>2011-09-10T14:57:06Z</time>
      </trkpt>
      <trkpt lat="45.68819" lon="6.2386">
        <ele>1627.654297</ele>
        <time>2011-09-10T14:57:11Z</time>
      </trkpt>
      <trkpt lat="45.6882" lon="6.23865">
        <ele>1625.331299</ele>
        <time>2011-09-10T14:57:16Z</time>
      </trkpt>
      <trkpt lat="45.68821" lon="6.23869">
        <ele>1623.513794</ele>
        <time>2011-09-10T14:57:21Z</time>
      </trkpt>
      <trkpt lat="45.68825" lon="6.23869">
        <ele>1622.79834</ele>
        <time>2011-09-10T14:57:26Z</time>
      </trkpt>
      <trkpt lat="45.6883" lon="6.23867">
        <ele>1622.508789</ele>
        <time>2011-09-10T14:57:31Z</time>
      </trkpt>
      <trkpt lat="45.68835" lon="6.23864">
        <ele>1622.985596</ele>
        <time>2011-09-10T14:57:36Z</time>
      </trkpt>
      <trkpt lat="45.68839" lon="6.23863">
        <ele>1622.462036</ele>
        <time>2011-09-10T14:57:41Z</time>
      </trkpt>
      <trkpt lat="45.68844" lon="6.23864">
        <ele>1621.152832</ele>
        <time>2011-09-10T14:57:46Z</time>
      </trkpt>
      <trkpt lat="45.68847" lon="6.23865">
        <ele>1620.02832</ele>
        <time>2011-09-10T14:57:51Z</time>
      </trkpt>
      <trkpt lat="45.68852" lon="6.23866">
        <ele>1618.05481</ele>
        <time>2011-09-10T14:57:56Z</time>
      </trkpt>
      <trkpt lat="45.68854" lon="6.23867">
        <ele>1617.295776</ele>
        <time>2011-09-10T14:58:01Z</time>
      </trkpt>
      <trkpt lat="45.68854" lon="6.23867">
        <ele>1617.295776</ele>
        <time>2011-09-10T14:58:06Z</time>
      </trkpt>
      <trkpt lat="45.68854" lon="6.23867">
        <ele>1617.177856</ele>
        <time>2011-09-10T14:58:11Z</time>
      </trkpt>
      <trkpt lat="45.6886" lon="6.23867">
        <ele>1615.193848</ele>
        <time>2011-09-10T14:58:16Z</time>
      </trkpt>
      <trkpt lat="45.68865" lon="6.23867">
        <ele>1613.506592</ele>
        <time>2011-09-10T14:58:21Z</time>
      </trkpt>
      <trkpt lat="45.68871" lon="6.23867">
        <ele>1611.493408</ele>
        <time>2011-09-10T14:58:26Z</time>
      </trkpt>
      <trkpt lat="45.68874" lon="6.23867">
        <ele>1610.615234</ele>
        <time>2011-09-10T14:58:31Z</time>
      </trkpt>
      <trkpt lat="45.68875" lon="6.23867">
        <ele>1610.38623</ele>
        <time>2011-09-10T14:58:36Z</time>
      </trkpt>
      <trkpt lat="45.6888" lon="6.23866">
        <ele>1609.002686</ele>
        <time>2011-09-10T14:58:41Z</time>
      </trkpt>
      <trkpt lat="45.68885" lon="6.23866">
        <ele>1607.397827</ele>
        <time>2011-09-10T14:58:46Z</time>
      </trkpt>
      <trkpt lat="45.68891" lon="6.23865">
        <ele>1605.696045</ele>
        <time>2011-09-10T14:58:51Z</time>
      </trkpt>
      <trkpt lat="45.68895" lon="6.23864">
        <ele>1604.675415</ele>
        <time>2011-09-10T14:58:56Z</time>
      </trkpt>
      <trkpt lat="45.68898" lon="6.23862">
        <ele>1604.685547</ele>
        <time>2011-09-10T14:59:01Z</time>
      </trkpt>
      <trkpt lat="45.68897" lon="6.23856">
        <ele>1606.131592</ele>
        <time>2011-09-10T14:59:06Z</time>
      </trkpt>
      <trkpt lat="45.68894" lon="6.23848">
        <ele>1607.192261</ele>
        <time>2011-09-10T14:59:11Z</time>
      </trkpt>
      <trkpt lat="45.6889" lon="6.23841">
        <ele>1608.385132</ele>
        <time>2011-09-10T14:59:16Z</time>
      </trkpt>
      <trkpt lat="45.68886" lon="6.23835">
        <ele>1609.866211</ele>
        <time>2011-09-10T14:59:21Z</time>
      </trkpt>
      <trkpt lat="45.68883" lon="6.23828">
        <ele>1611.001099</ele>
        <time>2011-09-10T14:59:26Z</time>
      </trkpt>
      <trkpt lat="45.68884" lon="6.23822">
        <ele>1610.681885</ele>
        <time>2011-09-10T14:59:31Z</time>
      </trkpt>
      <trkpt lat="45.68888" lon="6.23819">
        <ele>1608.880493</ele>
        <time>2011-09-10T14:59:36Z</time>
      </trkpt>
      <trkpt lat="45.68892" lon="6.23814">
        <ele>1607.020752</ele>
        <time>2011-09-10T14:59:41Z</time>
      </trkpt>
      <trkpt lat="45.68897" lon="6.2381">
        <ele>1605.34668</ele>
        <time>2011-09-10T14:59:46Z</time>
      </trkpt>
      <trkpt lat="45.68903" lon="6.23806">
        <ele>1603.178955</ele>
        <time>2011-09-10T14:59:51Z</time>
      </trkpt>
      <trkpt lat="45.6891" lon="6.23805">
        <ele>1600.969971</ele>
        <time>2011-09-10T14:59:56Z</time>
      </trkpt>
      <trkpt lat="45.68914" lon="6.23803">
        <ele>1599.281006</ele>
        <time>2011-09-10T15:00:01Z</time>
      </trkpt>
      <trkpt lat="45.68919" lon="6.23801">
        <ele>1597.686523</ele>
        <time>2011-09-10T15:00:06Z</time>
      </trkpt>
      <trkpt lat="45.68925" lon="6.238">
        <ele>1595.620483</ele>
        <time>2011-09-10T15:00:11Z</time>
      </trkpt>
      <trkpt lat="45.6893" lon="6.23801">
        <ele>1594.12915</ele>
        <time>2011-09-10T15:00:16Z</time>
      </trkpt>
      <trkpt lat="45.68935" lon="6.23802">
        <ele>1592.441284</ele>
        <time>2011-09-10T15:00:21Z</time>
      </trkpt>
      <trkpt lat="45.6894" lon="6.23802">
        <ele>1590.648193</ele>
        <time>2011-09-10T15:00:26Z</time>
      </trkpt>
      <trkpt lat="45.68945" lon="6.23801">
        <ele>1589.237427</ele>
        <time>2011-09-10T15:00:31Z</time>
      </trkpt>
      <trkpt lat="45.68947" lon="6.23795">
        <ele>1588.995117</ele>
        <time>2011-09-10T15:00:36Z</time>
      </trkpt>
      <trkpt lat="45.68945" lon="6.23787">
        <ele>1589.453613</ele>
        <time>2011-09-10T15:00:41Z</time>
      </trkpt>
      <trkpt lat="45.68946" lon="6.23782">
        <ele>1589.237793</ele>
        <time>2011-09-10T15:00:46Z</time>
      </trkpt>
      <trkpt lat="45.68948" lon="6.23775">
        <ele>1588.810303</ele>
        <time>2011-09-10T15:00:51Z</time>
      </trkpt>
      <trkpt lat="45.68952" lon="6.23771">
        <ele>1588.086182</ele>
        <time>2011-09-10T15:00:56Z</time>
      </trkpt>
      <trkpt lat="45.68958" lon="6.23766">
        <ele>1587.029297</ele>
        <time>2011-09-10T15:01:01Z</time>
      </trkpt>
      <trkpt lat="45.68961" lon="6.23766">
        <ele>1586.648926</ele>
        <time>2011-09-10T15:01:06Z</time>
      </trkpt>
      <trkpt lat="45.68963" lon="6.23765">
        <ele>1586.293701</ele>
        <time>2011-09-10T15:01:11Z</time>
      </trkpt>
      <trkpt lat="45.68964" lon="6.23766">
        <ele>1586.022949</ele>
        <time>2011-09-10T15:01:16Z</time>
      </trkpt>
      <trkpt lat="45.68964" lon="6.23766">
        <ele>1585.990845</ele>
        <time>2011-09-10T15:01:21Z</time>
      </trkpt>
      <trkpt lat="45.68965" lon="6.23766">
        <ele>1585.821655</ele>
        <time>2011-09-10T15:01:26Z</time>
      </trkpt>
      <trkpt lat="45.68965" lon="6.23766">
        <ele>1585.821655</ele>
        <time>2011-09-10T15:01:31Z</time>
      </trkpt>
      <trkpt lat="45.68965" lon="6.23766">
        <ele>1585.769165</ele>
        <time>2011-09-10T15:01:36Z</time>
      </trkpt>
      <trkpt lat="45.68966" lon="6.23766">
        <ele>1585.713379</ele>
        <time>2011-09-10T15:01:41Z</time>
      </trkpt>
      <trkpt lat="45.68966" lon="6.23766">
        <ele>1585.657837</ele>
        <time>2011-09-10T15:01:46Z</time>
      </trkpt>
      <trkpt lat="45.68966" lon="6.23766">
        <ele>1585.657837</ele>
        <time>2011-09-10T15:01:51Z</time>
      </trkpt>
      <trkpt lat="45.68965" lon="6.23764">
        <ele>1585.946167</ele>
        <time>2011-09-10T15:01:56Z</time>
      </trkpt>
      <trkpt lat="45.68966" lon="6.23763">
        <ele>1585.787842</ele>
        <time>2011-09-10T15:02:01Z</time>
      </trkpt>
      <trkpt lat="45.68971" lon="6.23763">
        <ele>1584.906494</ele>
        <time>2011-09-10T15:02:06Z</time>
      </trkpt>
      <trkpt lat="45.68972" lon="6.23763">
        <ele>1584.728027</ele>
        <time>2011-09-10T15:02:11Z</time>
      </trkpt>
      <trkpt lat="45.68976" lon="6.23762">
        <ele>1584.07373</ele>
        <time>2011-09-10T15:02:16Z</time>
      </trkpt>
      <trkpt lat="45.68981" lon="6.23763">
        <ele>1583.167969</ele>
        <time>2011-09-10T15:02:21Z</time>
      </trkpt>
      <trkpt lat="45.68986" lon="6.2376">
        <ele>1582.362427</ele>
        <time>2011-09-10T15:02:26Z</time>
      </trkpt>
      <trkpt lat="45.6899" lon="6.23755">
        <ele>1581.747192</ele>
        <time>2011-09-10T15:02:31Z</time>
      </trkpt>
      <trkpt lat="45.68993" lon="6.23749">
        <ele>1581.490479</ele>
        <time>2011-09-10T15:02:36Z</time>
      </trkpt>
      <trkpt lat="45.68995" lon="6.23742">
        <ele>1581.847534</ele>
        <time>2011-09-10T15:02:41Z</time>
      </trkpt>
      <trkpt lat="45.68995" lon="6.23737">
        <ele>1582.455688</ele>
        <time>2011-09-10T15:02:46Z</time>
      </trkpt>
      <trkpt lat="45.68999" lon="6.23735">
        <ele>1581.253906</ele>
        <time>2011-09-10T15:02:51Z</time>
      </trkpt>
      <trkpt lat="45.69001" lon="6.23737">
        <ele>1580.905884</ele>
        <time>2011-09-10T15:02:56Z</time>
      </trkpt>
      <trkpt lat="45.69003" lon="6.23732">
        <ele>1579.631104</ele>
        <time>2011-09-10T15:03:01Z</time>
      </trkpt>
      <trkpt lat="45.69002" lon="6.23734">
        <ele>1580.264771</ele>
        <time>2011-09-10T15:03:06Z</time>
      </trkpt>
      <trkpt lat="45.68998" lon="6.23736">
        <ele>1581.738892</ele>
        <time>2011-09-10T15:03:11Z</time>
      </trkpt>
      <trkpt lat="45.68999" lon="6.23736">
        <ele>1581.333008</ele>
        <time>2011-09-10T15:03:16Z</time>
      </trkpt>
      <trkpt lat="45.69003" lon="6.23731">
        <ele>1579.663452</ele>
        <time>2011-09-10T15:03:21Z</time>
      </trkpt>
      <trkpt lat="45.69003" lon="6.23738">
        <ele>1580.418457</ele>
        <time>2011-09-10T15:03:26Z</time>
      </trkpt>
      <trkpt lat="45.69001" lon="6.23737">
        <ele>1580.86792</ele>
        <time>2011-09-10T15:03:31Z</time>
      </trkpt>
      <trkpt lat="45.69" lon="6.23734">
        <ele>1580.752319</ele>
        <time>2011-09-10T15:03:36Z</time>
      </trkpt>
      <trkpt lat="45.69" lon="6.2373">
        <ele>1580.204956</ele>
        <time>2011-09-10T15:03:41Z</time>
      </trkpt>
      <trkpt lat="45.68998" lon="6.23722">
        <ele>1579.225098</ele>
        <time>2011-09-10T15:03:46Z</time>
      </trkpt>
      <trkpt lat="45.68997" lon="6.23714">
        <ele>1578.300171</ele>
        <time>2011-09-10T15:03:51Z</time>
      </trkpt>
      <trkpt lat="45.68995" lon="6.23707">
        <ele>1577.568726</ele>
        <time>2011-09-10T15:03:56Z</time>
      </trkpt>
      <trkpt lat="45.68994" lon="6.23699">
        <ele>1576.401489</ele>
        <time>2011-09-10T15:04:01Z</time>
      </trkpt>
      <trkpt lat="45.68993" lon="6.23691">
        <ele>1575.298584</ele>
        <time>2011-09-10T15:04:06Z</time>
      </trkpt>
      <trkpt lat="45.68992" lon="6.23684">
        <ele>1574.25354</ele>
        <time>2011-09-10T15:04:11Z</time>
      </trkpt>
      <trkpt lat="45.6899" lon="6.23676">
        <ele>1573.269043</ele>
        <time>2011-09-10T15:04:16Z</time>
      </trkpt>
      <trkpt lat="45.68989" lon="6.23668">
        <ele>1573.683838</ele>
        <time>2011-09-10T15:04:21Z</time>
      </trkpt>
      <trkpt lat="45.68989" lon="6.23662">
        <ele>1575.325684</ele>
        <time>2011-09-10T15:04:26Z</time>
      </trkpt>
      <trkpt lat="45.68989" lon="6.23656">
        <ele>1576.76123</ele>
        <time>2011-09-10T15:04:31Z</time>
      </trkpt>
      <trkpt lat="45.68989" lon="6.2365">
        <ele>1578.253906</ele>
        <time>2011-09-10T15:04:36Z</time>
      </trkpt>
      <trkpt lat="45.68991" lon="6.23643">
        <ele>1579.337036</ele>
        <time>2011-09-10T15:04:41Z</time>
      </trkpt>
      <trkpt lat="45.68995" lon="6.2364">
        <ele>1578.880005</ele>
        <time>2011-09-10T15:04:46Z</time>
      </trkpt>
      <trkpt lat="45.69" lon="6.23637">
        <ele>1578.235596</ele>
        <time>2011-09-10T15:04:51Z</time>
      </trkpt>
      <trkpt lat="45.69004" lon="6.23635">
        <ele>1577.232666</ele>
        <time>2011-09-10T15:04:56Z</time>
      </trkpt>
      <trkpt lat="45.69009" lon="6.23632">
        <ele>1576.373535</ele>
        <time>2011-09-10T15:05:01Z</time>
      </trkpt>
      <trkpt lat="45.69014" lon="6.23629">
        <ele>1575.35083</ele>
        <time>2011-09-10T15:05:06Z</time>
      </trkpt>
      <trkpt lat="45.69017" lon="6.23625">
        <ele>1575.183228</ele>
        <time>2011-09-10T15:05:11Z</time>
      </trkpt>
      <trkpt lat="45.69019" lon="6.2363">
        <ele>1573.521362</ele>
        <time>2011-09-10T15:05:16Z</time>
      </trkpt>
      <trkpt lat="45.69018" lon="6.23638">
        <ele>1572.499634</ele>
        <time>2011-09-10T15:05:21Z</time>
      </trkpt>
      <trkpt lat="45.6902" lon="6.23645">
        <ele>1570.851807</ele>
        <time>2011-09-10T15:05:26Z</time>
      </trkpt>
      <trkpt lat="45.69025" lon="6.23647">
        <ele>1569.130615</ele>
        <time>2011-09-10T15:05:31Z</time>
      </trkpt>
      <trkpt lat="45.6903" lon="6.23648">
        <ele>1567.513672</ele>
        <time>2011-09-10T15:05:36Z</time>
      </trkpt>
      <trkpt lat="45.69035" lon="6.2365">
        <ele>1565.959106</ele>
        <time>2011-09-10T15:05:41Z</time>
      </trkpt>
      <trkpt lat="45.6904" lon="6.23652">
        <ele>1564.647217</ele>
        <time>2011-09-10T15:05:46Z</time>
      </trkpt>
      <trkpt lat="45.69044" lon="6.23658">
        <ele>1563.265503</ele>
        <time>2011-09-10T15:05:51Z</time>
      </trkpt>
      <trkpt lat="45.69047" lon="6.23664">
        <ele>1562.220215</ele>
        <time>2011-09-10T15:05:56Z</time>
      </trkpt>
      <trkpt lat="45.69051" lon="6.23669">
        <ele>1561.193115</ele>
        <time>2011-09-10T15:06:01Z</time>
      </trkpt>
      <trkpt lat="45.69056" lon="6.23673">
        <ele>1560.177246</ele>
        <time>2011-09-10T15:06:06Z</time>
      </trkpt>
      <trkpt lat="45.69061" lon="6.23676">
        <ele>1559.392944</ele>
        <time>2011-09-10T15:06:11Z</time>
      </trkpt>
      <trkpt lat="45.69063" lon="6.23684">
        <ele>1558.607056</ele>
        <time>2011-09-10T15:06:16Z</time>
      </trkpt>
      <trkpt lat="45.69066" lon="6.23688">
        <ele>1557.855835</ele>
        <time>2011-09-10T15:06:21Z</time>
      </trkpt>
      <trkpt lat="45.69068" lon="6.23681">
        <ele>1558.032959</ele>
        <time>2011-09-10T15:06:26Z</time>
      </trkpt>
      <trkpt lat="45.69069" lon="6.23671">
        <ele>1558.281982</ele>
        <time>2011-09-10T15:06:31Z</time>
      </trkpt>
      <trkpt lat="45.69071" lon="6.2366">
        <ele>1558.230835</ele>
        <time>2011-09-10T15:06:36Z</time>
      </trkpt>
      <trkpt lat="45.69072" lon="6.23652">
        <ele>1558.114624</ele>
        <time>2011-09-10T15:06:41Z</time>
      </trkpt>
      <trkpt lat="45.69076" lon="6.23658">
        <ele>1557.280396</ele>
        <time>2011-09-10T15:06:46Z</time>
      </trkpt>
      <trkpt lat="45.69079" lon="6.23665">
        <ele>1556.813354</ele>
        <time>2011-09-10T15:06:51Z</time>
      </trkpt>
      <trkpt lat="45.69082" lon="6.23671">
        <ele>1555.881226</ele>
        <time>2011-09-10T15:06:56Z</time>
      </trkpt>
      <trkpt lat="45.69085" lon="6.23678">
        <ele>1555.21521</ele>
        <time>2011-09-10T15:07:01Z</time>
      </trkpt>
      <trkpt lat="45.69089" lon="6.23684">
        <ele>1553.518799</ele>
        <time>2011-09-10T15:07:06Z</time>
      </trkpt>
      <trkpt lat="45.69095" lon="6.23687">
        <ele>1551.635254</ele>
        <time>2011-09-10T15:07:11Z</time>
      </trkpt>
      <trkpt lat="45.691" lon="6.23691">
        <ele>1549.976074</ele>
        <time>2011-09-10T15:07:16Z</time>
      </trkpt>
      <trkpt lat="45.69104" lon="6.23693">
        <ele>1548.612793</ele>
        <time>2011-09-10T15:07:21Z</time>
      </trkpt>
      <trkpt lat="45.69108" lon="6.23697">
        <ele>1547.035034</ele>
        <time>2011-09-10T15:07:26Z</time>
      </trkpt>
      <trkpt lat="45.69112" lon="6.23703">
        <ele>1545.390869</ele>
        <time>2011-09-10T15:07:31Z</time>
      </trkpt>
      <trkpt lat="45.69115" lon="6.23708">
        <ele>1543.886353</ele>
        <time>2011-09-10T15:07:36Z</time>
      </trkpt>
      <trkpt lat="45.69122" lon="6.2371">
        <ele>1541.880005</ele>
        <time>2011-09-10T15:07:41Z</time>
      </trkpt>
      <trkpt lat="45.69128" lon="6.23712">
        <ele>1540.261353</ele>
        <time>2011-09-10T15:07:46Z</time>
      </trkpt>
      <trkpt lat="45.6913" lon="6.23706">
        <ele>1540.533447</ele>
        <time>2011-09-10T15:07:51Z</time>
      </trkpt>
      <trkpt lat="45.69129" lon="6.23698">
        <ele>1541.881958</ele>
        <time>2011-09-10T15:07:56Z</time>
      </trkpt>
      <trkpt lat="45.69127" lon="6.2369">
        <ele>1543.707153</ele>
        <time>2011-09-10T15:08:01Z</time>
      </trkpt>
      <trkpt lat="45.69128" lon="6.23683">
        <ele>1544.352783</ele>
        <time>2011-09-10T15:08:06Z</time>
      </trkpt>
      <trkpt lat="45.69133" lon="6.23683">
        <ele>1542.900879</ele>
        <time>2011-09-10T15:08:11Z</time>
      </trkpt>
      <trkpt lat="45.69138" lon="6.23681">
        <ele>1541.150024</ele>
        <time>2011-09-10T15:08:16Z</time>
      </trkpt>
      <trkpt lat="45.69144" lon="6.23681">
        <ele>1539.392456</ele>
        <time>2011-09-10T15:08:21Z</time>
      </trkpt>
      <trkpt lat="45.69151" lon="6.23677">
        <ele>1536.79248</ele>
        <time>2011-09-10T15:08:26Z</time>
      </trkpt>
      <trkpt lat="45.69157" lon="6.23673">
        <ele>1534.650024</ele>
        <time>2011-09-10T15:08:31Z</time>
      </trkpt>
      <trkpt lat="45.69161" lon="6.23671">
        <ele>1533.097534</ele>
        <time>2011-09-10T15:08:36Z</time>
      </trkpt>
      <trkpt lat="45.69166" lon="6.23668">
        <ele>1531.19751</ele>
        <time>2011-09-10T15:08:41Z</time>
      </trkpt>
      <trkpt lat="45.6917" lon="6.23664">
        <ele>1529.676514</ele>
        <time>2011-09-10T15:08:46Z</time>
      </trkpt>
      <trkpt lat="45.69174" lon="6.23659">
        <ele>1528.106201</ele>
        <time>2011-09-10T15:08:51Z</time>
      </trkpt>
      <trkpt lat="45.69174" lon="6.23651">
        <ele>1527.536865</ele>
        <time>2011-09-10T15:08:56Z</time>
      </trkpt>
      <trkpt lat="45.69175" lon="6.23643">
        <ele>1526.713867</ele>
        <time>2011-09-10T15:09:01Z</time>
      </trkpt>
      <trkpt lat="45.69175" lon="6.23635">
        <ele>1526.094238</ele>
        <time>2011-09-10T15:09:06Z</time>
      </trkpt>
      <trkpt lat="45.69177" lon="6.23627">
        <ele>1525.104248</ele>
        <time>2011-09-10T15:09:11Z</time>
      </trkpt>
      <trkpt lat="45.6918" lon="6.2362">
        <ele>1524.25354</ele>
        <time>2011-09-10T15:09:16Z</time>
      </trkpt>
      <trkpt lat="45.69181" lon="6.23617">
        <ele>1525.092773</ele>
        <time>2011-09-10T15:09:21Z</time>
      </trkpt>
      <trkpt lat="45.69179" lon="6.23616">
        <ele>1525.595337</ele>
        <time>2011-09-10T15:09:26Z</time>
      </trkpt>
      <trkpt lat="45.69178" lon="6.23615">
        <ele>1525.951538</ele>
        <time>2011-09-10T15:09:31Z</time>
      </trkpt>
      <trkpt lat="45.69179" lon="6.23613">
        <ele>1526.443726</ele>
        <time>2011-09-10T15:09:36Z</time>
      </trkpt>
      <trkpt lat="45.69179" lon="6.23608">
        <ele>1527.660767</ele>
        <time>2011-09-10T15:09:41Z</time>
      </trkpt>
      <trkpt lat="45.69183" lon="6.23605">
        <ele>1527.515137</ele>
        <time>2011-09-10T15:09:46Z</time>
      </trkpt>
      <trkpt lat="45.69188" lon="6.23604">
        <ele>1526.461304</ele>
        <time>2011-09-10T15:09:51Z</time>
      </trkpt>
      <trkpt lat="45.69192" lon="6.23606">
        <ele>1524.855957</ele>
        <time>2011-09-10T15:09:56Z</time>
      </trkpt>
      <trkpt lat="45.69191" lon="6.23606">
        <ele>1525.197998</ele>
        <time>2011-09-10T15:10:01Z</time>
      </trkpt>
      <trkpt lat="45.69186" lon="6.23606">
        <ele>1526.494019</ele>
        <time>2011-09-10T15:10:06Z</time>
      </trkpt>
      <trkpt lat="45.69182" lon="6.23611">
        <ele>1526.390015</ele>
        <time>2011-09-10T15:10:11Z</time>
      </trkpt>
      <trkpt lat="45.6918" lon="6.23613">
        <ele>1526.194946</ele>
        <time>2011-09-10T15:10:16Z</time>
      </trkpt>
      <trkpt lat="45.69183" lon="6.23611">
        <ele>1526.050415</ele>
        <time>2011-09-10T15:10:21Z</time>
      </trkpt>
      <trkpt lat="45.6919" lon="6.2361">
        <ele>1524.587036</ele>
        <time>2011-09-10T15:10:26Z</time>
      </trkpt>
      <trkpt lat="45.69196" lon="6.2361">
        <ele>1523.189697</ele>
        <time>2011-09-10T15:10:31Z</time>
      </trkpt>
      <trkpt lat="45.69197" lon="6.23609">
        <ele>1523.035156</ele>
        <time>2011-09-10T15:10:36Z</time>
      </trkpt>
      <trkpt lat="45.69198" lon="6.23608">
        <ele>1522.963745</ele>
        <time>2011-09-10T15:10:41Z</time>
      </trkpt>
      <trkpt lat="45.69202" lon="6.23608">
        <ele>1521.709717</ele>
        <time>2011-09-10T15:10:46Z</time>
      </trkpt>
      <trkpt lat="45.69206" lon="6.23611">
        <ele>1520.440552</ele>
        <time>2011-09-10T15:10:51Z</time>
      </trkpt>
      <trkpt lat="45.69208" lon="6.23613">
        <ele>1519.588379</ele>
        <time>2011-09-10T15:10:56Z</time>
      </trkpt>
      <trkpt lat="45.69215" lon="6.23612">
        <ele>1517.941406</ele>
        <time>2011-09-10T15:11:01Z</time>
      </trkpt>
      <trkpt lat="45.69219" lon="6.23611">
        <ele>1516.137939</ele>
        <time>2011-09-10T15:11:06Z</time>
      </trkpt>
      <trkpt lat="45.6922" lon="6.23609">
        <ele>1515.675293</ele>
        <time>2011-09-10T15:11:11Z</time>
      </trkpt>
      <trkpt lat="45.69222" lon="6.23607">
        <ele>1514.715454</ele>
        <time>2011-09-10T15:11:16Z</time>
      </trkpt>
      <trkpt lat="45.69223" lon="6.23608">
        <ele>1514.509521</ele>
        <time>2011-09-10T15:11:21Z</time>
      </trkpt>
      <trkpt lat="45.69223" lon="6.23607">
        <ele>1514.363281</ele>
        <time>2011-09-10T15:11:26Z</time>
      </trkpt>
      <trkpt lat="45.69223" lon="6.23607">
        <ele>1514.455933</ele>
        <time>2011-09-10T15:11:31Z</time>
      </trkpt>
      <trkpt lat="45.69223" lon="6.23607">
        <ele>1514.455933</ele>
        <time>2011-09-10T15:11:36Z</time>
      </trkpt>
      <trkpt lat="45.69223" lon="6.23607">
        <ele>1514.375366</ele>
        <time>2011-09-10T15:11:41Z</time>
      </trkpt>
      <trkpt lat="45.69223" lon="6.23606">
        <ele>1514.316406</ele>
        <time>2011-09-10T15:11:46Z</time>
      </trkpt>
      <trkpt lat="45.69224" lon="6.23606">
        <ele>1514.045898</ele>
        <time>2011-09-10T15:11:51Z</time>
      </trkpt>
      <trkpt lat="45.69223" lon="6.23607">
        <ele>1514.292114</ele>
        <time>2011-09-10T15:11:56Z</time>
      </trkpt>
      <trkpt lat="45.69222" lon="6.23608">
        <ele>1514.614746</ele>
        <time>2011-09-10T15:12:01Z</time>
      </trkpt>
      <trkpt lat="45.69221" lon="6.2361">
        <ele>1515.286621</ele>
        <time>2011-09-10T15:12:06Z</time>
      </trkpt>
      <trkpt lat="45.69221" lon="6.2361">
        <ele>1515.06897</ele>
        <time>2011-09-10T15:12:11Z</time>
      </trkpt>
      <trkpt lat="45.69222" lon="6.23609">
        <ele>1514.591064</ele>
        <time>2011-09-10T15:12:16Z</time>
      </trkpt>
      <trkpt lat="45.69224" lon="6.23607">
        <ele>1514.009155</ele>
        <time>2011-09-10T15:12:21Z</time>
      </trkpt>
      <trkpt lat="45.69227" lon="6.23607">
        <ele>1512.304199</ele>
        <time>2011-09-10T15:12:26Z</time>
      </trkpt>
      <trkpt lat="45.69231" lon="6.23611">
        <ele>1509.821899</ele>
        <time>2011-09-10T15:12:31Z</time>
      </trkpt>
      <trkpt lat="45.69235" lon="6.23616">
        <ele>1507.389404</ele>
        <time>2011-09-10T15:12:36Z</time>
      </trkpt>
      <trkpt lat="45.69236" lon="6.23617">
        <ele>1506.606934</ele>
        <time>2011-09-10T15:12:41Z</time>
      </trkpt>
      <trkpt lat="45.69241" lon="6.23619">
        <ele>1504.223022</ele>
        <time>2011-09-10T15:12:46Z</time>
      </trkpt>
      <trkpt lat="45.69244" lon="6.23621">
        <ele>1502.248047</ele>
        <time>2011-09-10T15:12:51Z</time>
      </trkpt>
      <trkpt lat="45.69242" lon="6.23614">
        <ele>1504.221069</ele>
        <time>2011-09-10T15:12:56Z</time>
      </trkpt>
      <trkpt lat="45.69242" lon="6.23606">
        <ele>1505.28833</ele>
        <time>2011-09-10T15:13:01Z</time>
      </trkpt>
      <trkpt lat="45.69241" lon="6.23597">
        <ele>1506.740845</ele>
        <time>2011-09-10T15:13:06Z</time>
      </trkpt>
      <trkpt lat="45.69242" lon="6.23587">
        <ele>1507.34314</ele>
        <time>2011-09-10T15:13:11Z</time>
      </trkpt>
      <trkpt lat="45.69246" lon="6.23582">
        <ele>1506.49353</ele>
        <time>2011-09-10T15:13:16Z</time>
      </trkpt>
      <trkpt lat="45.69249" lon="6.23577">
        <ele>1505.606445</ele>
        <time>2011-09-10T15:13:21Z</time>
      </trkpt>
      <trkpt lat="45.69254" lon="6.23575">
        <ele>1503.550049</ele>
        <time>2011-09-10T15:13:26Z</time>
      </trkpt>
      <trkpt lat="45.6926" lon="6.23573">
        <ele>1501.506226</ele>
        <time>2011-09-10T15:13:31Z</time>
      </trkpt>
      <trkpt lat="45.69265" lon="6.23571">
        <ele>1499.8573</ele>
        <time>2011-09-10T15:13:36Z</time>
      </trkpt>
      <trkpt lat="45.69272" lon="6.23567">
        <ele>1498.480469</ele>
        <time>2011-09-10T15:13:41Z</time>
      </trkpt>
      <trkpt lat="45.69278" lon="6.23564">
        <ele>1497.501221</ele>
        <time>2011-09-10T15:13:46Z</time>
      </trkpt>
      <trkpt lat="45.69284" lon="6.2356">
        <ele>1498.383545</ele>
        <time>2011-09-10T15:13:51Z</time>
      </trkpt>
      <trkpt lat="45.69289" lon="6.23555">
        <ele>1499.677734</ele>
        <time>2011-09-10T15:13:56Z</time>
      </trkpt>
      <trkpt lat="45.69294" lon="6.23553">
        <ele>1499.934204</ele>
        <time>2011-09-10T15:14:01Z</time>
      </trkpt>
      <trkpt lat="45.69298" lon="6.23547">
        <ele>1501.662598</ele>
        <time>2011-09-10T15:14:06Z</time>
      </trkpt>
      <trkpt lat="45.69303" lon="6.23541">
        <ele>1503.670044</ele>
        <time>2011-09-10T15:14:11Z</time>
      </trkpt>
      <trkpt lat="45.69308" lon="6.23538">
        <ele>1503.825439</ele>
        <time>2011-09-10T15:14:16Z</time>
      </trkpt>
      <trkpt lat="45.69315" lon="6.23537">
        <ele>1502.752808</ele>
        <time>2011-09-10T15:14:21Z</time>
      </trkpt>
      <trkpt lat="45.69321" lon="6.23534">
        <ele>1502.564819</ele>
        <time>2011-09-10T15:14:26Z</time>
      </trkpt>
      <trkpt lat="45.69328" lon="6.23532">
        <ele>1502.558716</ele>
        <time>2011-09-10T15:14:31Z</time>
      </trkpt>
      <trkpt lat="45.69333" lon="6.23528">
        <ele>1503.772705</ele>
        <time>2011-09-10T15:14:36Z</time>
      </trkpt>
      <trkpt lat="45.6934" lon="6.23524">
        <ele>1505.221802</ele>
        <time>2011-09-10T15:14:41Z</time>
      </trkpt>
      <trkpt lat="45.69343" lon="6.2352">
        <ele>1506.713135</ele>
        <time>2011-09-10T15:14:46Z</time>
      </trkpt>
      <trkpt lat="45.69346" lon="6.23519">
        <ele>1507.103638</ele>
        <time>2011-09-10T15:14:51Z</time>
      </trkpt>
      <trkpt lat="45.6935" lon="6.23516">
        <ele>1508.421997</ele>
        <time>2011-09-10T15:14:56Z</time>
      </trkpt>
      <trkpt lat="45.69353" lon="6.23514">
        <ele>1509.333252</ele>
        <time>2011-09-10T15:15:01Z</time>
      </trkpt>
      <trkpt lat="45.69358" lon="6.23512">
        <ele>1511.161987</ele>
        <time>2011-09-10T15:15:06Z</time>
      </trkpt>
      <trkpt lat="45.69362" lon="6.2351">
        <ele>1512.259888</ele>
        <time>2011-09-10T15:15:11Z</time>
      </trkpt>
      <trkpt lat="45.69366" lon="6.23506">
        <ele>1514.954834</ele>
        <time>2011-09-10T15:15:16Z</time>
      </trkpt>
      <trkpt lat="45.6937" lon="6.23505">
        <ele>1516.769653</ele>
        <time>2011-09-10T15:15:21Z</time>
      </trkpt>
      <trkpt lat="45.69373" lon="6.23506">
        <ele>1516.108276</ele>
        <time>2011-09-10T15:15:26Z</time>
      </trkpt>
      <trkpt lat="45.69377" lon="6.23505">
        <ele>1517.349609</ele>
        <time>2011-09-10T15:15:31Z</time>
      </trkpt>
      <trkpt lat="45.69381" lon="6.23506">
        <ele>1515.457764</ele>
        <time>2011-09-10T15:15:36Z</time>
      </trkpt>
      <trkpt lat="45.69385" lon="6.23506">
        <ele>1516.167603</ele>
        <time>2011-09-10T15:15:41Z</time>
      </trkpt>
      <trkpt lat="45.69389" lon="6.23507">
        <ele>1514.414917</ele>
        <time>2011-09-10T15:15:46Z</time>
      </trkpt>
      <trkpt lat="45.69393" lon="6.23508">
        <ele>1513.629517</ele>
        <time>2011-09-10T15:15:51Z</time>
      </trkpt>
      <trkpt lat="45.69397" lon="6.23508">
        <ele>1513.986206</ele>
        <time>2011-09-10T15:15:56Z</time>
      </trkpt>
      <trkpt lat="45.69401" lon="6.23508">
        <ele>1514.529663</ele>
        <time>2011-09-10T15:16:01Z</time>
      </trkpt>
      <trkpt lat="45.69405" lon="6.23508">
        <ele>1515.183594</ele>
        <time>2011-09-10T15:16:06Z</time>
      </trkpt>
      <trkpt lat="45.69409" lon="6.23507">
        <ele>1517.711548</ele>
        <time>2011-09-10T15:16:11Z</time>
      </trkpt>
      <trkpt lat="45.69412" lon="6.23508">
        <ele>1517.725098</ele>
        <time>2011-09-10T15:16:16Z</time>
      </trkpt>
      <trkpt lat="45.69415" lon="6.23509">
        <ele>1517.031128</ele>
        <time>2011-09-10T15:16:21Z</time>
      </trkpt>
      <trkpt lat="45.69416" lon="6.23508">
        <ele>1518.948608</ele>
        <time>2011-09-10T15:16:26Z</time>
      </trkpt>
      <trkpt lat="45.69419" lon="6.23509">
        <ele>1516.79834</ele>
        <time>2011-09-10T15:16:31Z</time>
      </trkpt>
      <trkpt lat="45.69422" lon="6.2351">
        <ele>1516.732056</ele>
        <time>2011-09-10T15:16:36Z</time>
      </trkpt>
      <trkpt lat="45.69426" lon="6.2351">
        <ele>1517.103149</ele>
        <time>2011-09-10T15:16:41Z</time>
      </trkpt>
      <trkpt lat="45.6943" lon="6.2351">
        <ele>1517.950073</ele>
        <time>2011-09-10T15:16:46Z</time>
      </trkpt>
      <trkpt lat="45.69434" lon="6.23511">
        <ele>1518.396118</ele>
        <time>2011-09-10T15:16:51Z</time>
      </trkpt>
      <trkpt lat="45.69434" lon="6.23511">
        <ele>1518.421753</ele>
        <time>2011-09-10T15:16:56Z</time>
      </trkpt>
      <trkpt lat="45.69434" lon="6.23511">
        <ele>1518.421753</ele>
        <time>2011-09-10T15:17:01Z</time>
      </trkpt>
      <trkpt lat="45.69434" lon="6.2351">
        <ele>1519.532471</ele>
        <time>2011-09-10T15:17:06Z</time>
      </trkpt>
      <trkpt lat="45.69435" lon="6.23511">
        <ele>1518.595947</ele>
        <time>2011-09-10T15:17:11Z</time>
      </trkpt>
      <trkpt lat="45.69435" lon="6.23511">
        <ele>1518.079468</ele>
        <time>2011-09-10T15:17:16Z</time>
      </trkpt>
      <trkpt lat="45.69435" lon="6.23512">
        <ele>1517.950439</ele>
        <time>2011-09-10T15:17:21Z</time>
      </trkpt>
      <trkpt lat="45.69435" lon="6.23513">
        <ele>1517.111328</ele>
        <time>2011-09-10T15:17:26Z</time>
      </trkpt>
      <trkpt lat="45.69436" lon="6.23515">
        <ele>1515.087769</ele>
        <time>2011-09-10T15:17:31Z</time>
      </trkpt>
      <trkpt lat="45.69437" lon="6.23517">
        <ele>1513.890625</ele>
        <time>2011-09-10T15:17:36Z</time>
      </trkpt>
      <trkpt lat="45.6944" lon="6.23519">
        <ele>1513.083496</ele>
        <time>2011-09-10T15:17:41Z</time>
      </trkpt>
      <trkpt lat="45.69442" lon="6.23517">
        <ele>1514.633179</ele>
        <time>2011-09-10T15:17:46Z</time>
      </trkpt>
      <trkpt lat="45.69443" lon="6.23516">
        <ele>1516.241943</ele>
        <time>2011-09-10T15:17:51Z</time>
      </trkpt>
      <trkpt lat="45.69446" lon="6.23514">
        <ele>1518.120972</ele>
        <time>2011-09-10T15:17:56Z</time>
      </trkpt>
      <trkpt lat="45.69447" lon="6.23515">
        <ele>1518.005981</ele>
        <time>2011-09-10T15:18:01Z</time>
      </trkpt>
      <trkpt lat="45.69451" lon="6.2352">
        <ele>1515.702759</ele>
        <time>2011-09-10T15:18:06Z</time>
      </trkpt>
      <trkpt lat="45.69455" lon="6.23523">
        <ele>1514.533813</ele>
        <time>2011-09-10T15:18:11Z</time>
      </trkpt>
      <trkpt lat="45.69458" lon="6.23525">
        <ele>1514.280762</ele>
        <time>2011-09-10T15:18:16Z</time>
      </trkpt>
      <trkpt lat="45.69462" lon="6.23526">
        <ele>1514.244995</ele>
        <time>2011-09-10T15:18:21Z</time>
      </trkpt>
      <trkpt lat="45.69465" lon="6.23528">
        <ele>1513.936157</ele>
        <time>2011-09-10T15:18:26Z</time>
      </trkpt>
      <trkpt lat="45.6947" lon="6.23529">
        <ele>1514.605103</ele>
        <time>2011-09-10T15:18:31Z</time>
      </trkpt>
      <trkpt lat="45.69473" lon="6.23525">
        <ele>1519.63623</ele>
        <time>2011-09-10T15:18:36Z</time>
      </trkpt>
      <trkpt lat="45.69477" lon="6.23526">
        <ele>1519.716064</ele>
        <time>2011-09-10T15:18:41Z</time>
      </trkpt>
      <trkpt lat="45.69481" lon="6.23527">
        <ele>1521.122803</ele>
        <time>2011-09-10T15:18:46Z</time>
      </trkpt>
      <trkpt lat="45.69485" lon="6.23526">
        <ele>1522.967773</ele>
        <time>2011-09-10T15:18:51Z</time>
      </trkpt>
      <trkpt lat="45.69489" lon="6.23525">
        <ele>1524.887451</ele>
        <time>2011-09-10T15:18:56Z</time>
      </trkpt>
      <trkpt lat="45.69493" lon="6.23525">
        <ele>1526.890015</ele>
        <time>2011-09-10T15:19:01Z</time>
      </trkpt>
      <trkpt lat="45.69497" lon="6.2353">
        <ele>1524.148071</ele>
        <time>2011-09-10T15:19:06Z</time>
      </trkpt>
      <trkpt lat="45.69501" lon="6.23534">
        <ele>1522.599854</ele>
        <time>2011-09-10T15:19:11Z</time>
      </trkpt>
      <trkpt lat="45.69506" lon="6.23535">
        <ele>1523.831665</ele>
        <time>2011-09-10T15:19:16Z</time>
      </trkpt>
      <trkpt lat="45.6951" lon="6.23537">
        <ele>1523.938965</ele>
        <time>2011-09-10T15:19:21Z</time>
      </trkpt>
      <trkpt lat="45.69515" lon="6.2354">
        <ele>1523.498535</ele>
        <time>2011-09-10T15:19:26Z</time>
      </trkpt>
      <trkpt lat="45.69518" lon="6.23543">
        <ele>1522.044678</ele>
        <time>2011-09-10T15:19:31Z</time>
      </trkpt>
      <trkpt lat="45.69523" lon="6.23544">
        <ele>1523.010132</ele>
        <time>2011-09-10T15:19:36Z</time>
      </trkpt>
      <trkpt lat="45.69527" lon="6.23548">
        <ele>1521.792725</ele>
        <time>2011-09-10T15:19:41Z</time>
      </trkpt>
      <trkpt lat="45.69532" lon="6.23551">
        <ele>1521.043701</ele>
        <time>2011-09-10T15:19:46Z</time>
      </trkpt>
      <trkpt lat="45.69536" lon="6.23554">
        <ele>1520.240112</ele>
        <time>2011-09-10T15:19:51Z</time>
      </trkpt>
      <trkpt lat="45.6954" lon="6.23558">
        <ele>1518.427734</ele>
        <time>2011-09-10T15:19:56Z</time>
      </trkpt>
      <trkpt lat="45.69544" lon="6.23563">
        <ele>1515.050903</ele>
        <time>2011-09-10T15:20:01Z</time>
      </trkpt>
      <trkpt lat="45.69548" lon="6.23566">
        <ele>1513.760864</ele>
        <time>2011-09-10T15:20:06Z</time>
      </trkpt>
      <trkpt lat="45.69552" lon="6.23566">
        <ele>1515.089111</ele>
        <time>2011-09-10T15:20:11Z</time>
      </trkpt>
      <trkpt lat="45.69552" lon="6.23563">
        <ele>1518.451904</ele>
        <time>2011-09-10T15:20:16Z</time>
      </trkpt>
      <trkpt lat="45.69555" lon="6.23561">
        <ele>1521.662231</ele>
        <time>2011-09-10T15:20:21Z</time>
      </trkpt>
      <trkpt lat="45.69561" lon="6.23561">
        <ele>1524.087036</ele>
        <time>2011-09-10T15:20:26Z</time>
      </trkpt>
      <trkpt lat="45.69565" lon="6.23563">
        <ele>1524.496094</ele>
        <time>2011-09-10T15:20:31Z</time>
      </trkpt>
      <trkpt lat="45.69566" lon="6.23561">
        <ele>1526.150391</ele>
        <time>2011-09-10T15:20:36Z</time>
      </trkpt>
      <trkpt lat="45.69571" lon="6.23565">
        <ele>1524.717773</ele>
        <time>2011-09-10T15:20:41Z</time>
      </trkpt>
      <trkpt lat="45.69575" lon="6.23568">
        <ele>1522.833008</ele>
        <time>2011-09-10T15:20:46Z</time>
      </trkpt>
      <trkpt lat="45.6958" lon="6.23574">
        <ele>1517.753052</ele>
        <time>2011-09-10T15:20:51Z</time>
      </trkpt>
      <trkpt lat="45.69584" lon="6.23577">
        <ele>1515.325195</ele>
        <time>2011-09-10T15:20:56Z</time>
      </trkpt>
      <trkpt lat="45.69588" lon="6.23586">
        <ele>1506.682861</ele>
        <time>2011-09-10T15:21:01Z</time>
      </trkpt>
      <trkpt lat="45.69593" lon="6.23591">
        <ele>1504.231812</ele>
        <time>2011-09-10T15:21:06Z</time>
      </trkpt>
      <trkpt lat="45.69598" lon="6.23594">
        <ele>1503.359375</ele>
        <time>2011-09-10T15:21:11Z</time>
      </trkpt>
      <trkpt lat="45.69602" lon="6.23595">
        <ele>1503.029419</ele>
        <time>2011-09-10T15:21:16Z</time>
      </trkpt>
      <trkpt lat="45.69606" lon="6.23594">
        <ele>1503.991211</ele>
        <time>2011-09-10T15:21:21Z</time>
      </trkpt>
      <trkpt lat="45.69609" lon="6.23593">
        <ele>1504.934326</ele>
        <time>2011-09-10T15:21:26Z</time>
      </trkpt>
      <trkpt lat="45.69611" lon="6.23589">
        <ele>1507.401855</ele>
        <time>2011-09-10T15:21:31Z</time>
      </trkpt>
      <trkpt lat="45.69617" lon="6.23586">
        <ele>1510.326904</ele>
        <time>2011-09-10T15:21:36Z</time>
      </trkpt>
      <trkpt lat="45.69622" lon="6.23582">
        <ele>1515.203247</ele>
        <time>2011-09-10T15:21:41Z</time>
      </trkpt>
      <trkpt lat="45.69626" lon="6.23578">
        <ele>1517.532104</ele>
        <time>2011-09-10T15:21:46Z</time>
      </trkpt>
      <trkpt lat="45.6963" lon="6.23575">
        <ele>1519.666504</ele>
        <time>2011-09-10T15:21:51Z</time>
      </trkpt>
      <trkpt lat="45.69635" lon="6.23572">
        <ele>1521.242798</ele>
        <time>2011-09-10T15:21:56Z</time>
      </trkpt>
      <trkpt lat="45.69642" lon="6.23574">
        <ele>1517.452148</ele>
        <time>2011-09-10T15:22:01Z</time>
      </trkpt>
      <trkpt lat="45.69646" lon="6.23575">
        <ele>1514.615479</ele>
        <time>2011-09-10T15:22:06Z</time>
      </trkpt>
      <trkpt lat="45.6965" lon="6.23576">
        <ele>1512.683594</ele>
        <time>2011-09-10T15:22:11Z</time>
      </trkpt>
      <trkpt lat="45.69653" lon="6.23575">
        <ele>1512.818359</ele>
        <time>2011-09-10T15:22:16Z</time>
      </trkpt>
      <trkpt lat="45.69656" lon="6.23573">
        <ele>1513.352051</ele>
        <time>2011-09-10T15:22:21Z</time>
      </trkpt>
      <trkpt lat="45.69658" lon="6.23572">
        <ele>1513.62854</ele>
        <time>2011-09-10T15:22:26Z</time>
      </trkpt>
      <trkpt lat="45.69659" lon="6.23567">
        <ele>1517.336914</ele>
        <time>2011-09-10T15:22:31Z</time>
      </trkpt>
      <trkpt lat="45.69661" lon="6.23562">
        <ele>1519.502075</ele>
        <time>2011-09-10T15:22:36Z</time>
      </trkpt>
      <trkpt lat="45.69663" lon="6.2356">
        <ele>1520.744263</ele>
        <time>2011-09-10T15:22:41Z</time>
      </trkpt>
      <trkpt lat="45.69666" lon="6.23557">
        <ele>1520.981445</ele>
        <time>2011-09-10T15:22:46Z</time>
      </trkpt>
      <trkpt lat="45.6967" lon="6.23556">
        <ele>1521.100342</ele>
        <time>2011-09-10T15:22:51Z</time>
      </trkpt>
      <trkpt lat="45.69674" lon="6.23555">
        <ele>1520.605103</ele>
        <time>2011-09-10T15:22:56Z</time>
      </trkpt>
      <trkpt lat="45.69678" lon="6.23557">
        <ele>1518.677246</ele>
        <time>2011-09-10T15:23:01Z</time>
      </trkpt>
      <trkpt lat="45.69682" lon="6.23556">
        <ele>1517.960938</ele>
        <time>2011-09-10T15:23:06Z</time>
      </trkpt>
      <trkpt lat="45.69685" lon="6.23556">
        <ele>1517.213623</ele>
        <time>2011-09-10T15:23:11Z</time>
      </trkpt>
      <trkpt lat="45.69687" lon="6.23554">
        <ele>1518.369751</ele>
        <time>2011-09-10T15:23:16Z</time>
      </trkpt>
      <trkpt lat="45.6969" lon="6.23553">
        <ele>1518.597534</ele>
        <time>2011-09-10T15:23:21Z</time>
      </trkpt>
      <trkpt lat="45.69693" lon="6.23549">
        <ele>1520.773804</ele>
        <time>2011-09-10T15:23:26Z</time>
      </trkpt>
      <trkpt lat="45.69695" lon="6.23546">
        <ele>1521.612793</ele>
        <time>2011-09-10T15:23:31Z</time>
      </trkpt>
      <trkpt lat="45.69698" lon="6.23544">
        <ele>1522.82959</ele>
        <time>2011-09-10T15:23:36Z</time>
      </trkpt>
      <trkpt lat="45.69702" lon="6.23542">
        <ele>1522.897705</ele>
        <time>2011-09-10T15:23:41Z</time>
      </trkpt>
      <trkpt lat="45.69705" lon="6.2354">
        <ele>1523.943604</ele>
        <time>2011-09-10T15:23:46Z</time>
      </trkpt>
      <trkpt lat="45.69708" lon="6.23537">
        <ele>1524.881592</ele>
        <time>2011-09-10T15:23:51Z</time>
      </trkpt>
      <trkpt lat="45.69713" lon="6.23535">
        <ele>1525.074829</ele>
        <time>2011-09-10T15:23:56Z</time>
      </trkpt>
      <trkpt lat="45.69716" lon="6.23533">
        <ele>1526.009155</ele>
        <time>2011-09-10T15:24:01Z</time>
      </trkpt>
      <trkpt lat="45.6972" lon="6.23531">
        <ele>1526.85376</ele>
        <time>2011-09-10T15:24:06Z</time>
      </trkpt>
      <trkpt lat="45.69723" lon="6.23529">
        <ele>1527.744629</ele>
        <time>2011-09-10T15:24:11Z</time>
      </trkpt>
      <trkpt lat="45.69726" lon="6.23527">
        <ele>1528.815063</ele>
        <time>2011-09-10T15:24:16Z</time>
      </trkpt>
      <trkpt lat="45.69729" lon="6.23525">
        <ele>1530.1698</ele>
        <time>2011-09-10T15:24:21Z</time>
      </trkpt>
      <trkpt lat="45.69732" lon="6.23523">
        <ele>1530.994751</ele>
        <time>2011-09-10T15:24:26Z</time>
      </trkpt>
      <trkpt lat="45.69736" lon="6.23522">
        <ele>1531.182861</ele>
        <time>2011-09-10T15:24:31Z</time>
      </trkpt>
      <trkpt lat="45.69738" lon="6.23521">
        <ele>1531.578369</ele>
        <time>2011-09-10T15:24:36Z</time>
      </trkpt>
      <trkpt lat="45.69741" lon="6.2352">
        <ele>1531.977417</ele>
        <time>2011-09-10T15:24:41Z</time>
      </trkpt>
      <trkpt lat="45.69744" lon="6.23519">
        <ele>1531.785522</ele>
        <time>2011-09-10T15:24:46Z</time>
      </trkpt>
      <trkpt lat="45.69747" lon="6.2352">
        <ele>1530.875854</ele>
        <time>2011-09-10T15:24:51Z</time>
      </trkpt>
      <trkpt lat="45.69751" lon="6.2352">
        <ele>1530.395996</ele>
        <time>2011-09-10T15:24:56Z</time>
      </trkpt>
      <trkpt lat="45.69754" lon="6.2352">
        <ele>1529.638428</ele>
        <time>2011-09-10T15:25:01Z</time>
      </trkpt>
      <trkpt lat="45.69757" lon="6.23518">
        <ele>1530.254883</ele>
        <time>2011-09-10T15:25:06Z</time>
      </trkpt>
      <trkpt lat="45.69759" lon="6.23516">
        <ele>1531.248901</ele>
        <time>2011-09-10T15:25:11Z</time>
      </trkpt>
      <trkpt lat="45.69761" lon="6.23513">
        <ele>1533.014282</ele>
        <time>2011-09-10T15:25:16Z</time>
      </trkpt>
      <trkpt lat="45.69762" lon="6.23511">
        <ele>1534.287231</ele>
        <time>2011-09-10T15:25:21Z</time>
      </trkpt>
      <trkpt lat="45.69764" lon="6.23509">
        <ele>1535.088135</ele>
        <time>2011-09-10T15:25:26Z</time>
      </trkpt>
      <trkpt lat="45.69764" lon="6.23507">
        <ele>1536.452881</ele>
        <time>2011-09-10T15:25:31Z</time>
      </trkpt>
      <trkpt lat="45.69765" lon="6.23506">
        <ele>1536.780273</ele>
        <time>2011-09-10T15:25:36Z</time>
      </trkpt>
      <trkpt lat="45.69766" lon="6.23505">
        <ele>1537.430176</ele>
        <time>2011-09-10T15:25:41Z</time>
      </trkpt>
      <trkpt lat="45.69768" lon="6.23503">
        <ele>1538.188965</ele>
        <time>2011-09-10T15:25:46Z</time>
      </trkpt>
      <trkpt lat="45.69769" lon="6.23501">
        <ele>1538.845581</ele>
        <time>2011-09-10T15:25:51Z</time>
      </trkpt>
      <trkpt lat="45.69769" lon="6.235">
        <ele>1539.777344</ele>
        <time>2011-09-10T15:25:56Z</time>
      </trkpt>
      <trkpt lat="45.6977" lon="6.23497">
        <ele>1541.220581</ele>
        <time>2011-09-10T15:26:01Z</time>
      </trkpt>
      <trkpt lat="45.6977" lon="6.23495">
        <ele>1542.382568</ele>
        <time>2011-09-10T15:26:06Z</time>
      </trkpt>
      <trkpt lat="45.69772" lon="6.23491">
        <ele>1544.64563</ele>
        <time>2011-09-10T15:26:11Z</time>
      </trkpt>
      <trkpt lat="45.69775" lon="6.23488">
        <ele>1546.091064</ele>
        <time>2011-09-10T15:26:16Z</time>
      </trkpt>
      <trkpt lat="45.69779" lon="6.23487">
        <ele>1545.914795</ele>
        <time>2011-09-10T15:26:21Z</time>
      </trkpt>
      <trkpt lat="45.69782" lon="6.23485">
        <ele>1546.107788</ele>
        <time>2011-09-10T15:26:26Z</time>
      </trkpt>
      <trkpt lat="45.69785" lon="6.23483">
        <ele>1546.537231</ele>
        <time>2011-09-10T15:26:31Z</time>
      </trkpt>
      <trkpt lat="45.69788" lon="6.23481">
        <ele>1547.088257</ele>
        <time>2011-09-10T15:26:36Z</time>
      </trkpt>
      <trkpt lat="45.69791" lon="6.23477">
        <ele>1548.646118</ele>
        <time>2011-09-10T15:26:41Z</time>
      </trkpt>
      <trkpt lat="45.69793" lon="6.23473">
        <ele>1550.529785</ele>
        <time>2011-09-10T15:26:46Z</time>
      </trkpt>
      <trkpt lat="45.69795" lon="6.23469">
        <ele>1551.342285</ele>
        <time>2011-09-10T15:26:51Z</time>
      </trkpt>
      <trkpt lat="45.69797" lon="6.23465">
        <ele>1551.837036</ele>
        <time>2011-09-10T15:26:56Z</time>
      </trkpt>
      <trkpt lat="45.698" lon="6.23462">
        <ele>1552.284546</ele>
        <time>2011-09-10T15:27:01Z</time>
      </trkpt>
      <trkpt lat="45.69802" lon="6.23458">
        <ele>1552.672241</ele>
        <time>2011-09-10T15:27:06Z</time>
      </trkpt>
      <trkpt lat="45.69805" lon="6.23454">
        <ele>1552.961426</ele>
        <time>2011-09-10T15:27:11Z</time>
      </trkpt>
      <trkpt lat="45.69808" lon="6.23451">
        <ele>1553.04126</ele>
        <time>2011-09-10T15:27:16Z</time>
      </trkpt>
      <trkpt lat="45.6981" lon="6.23448">
        <ele>1552.877808</ele>
        <time>2011-09-10T15:27:21Z</time>
      </trkpt>
      <trkpt lat="45.69812" lon="6.23445">
        <ele>1552.807373</ele>
        <time>2011-09-10T15:27:26Z</time>
      </trkpt>
      <trkpt lat="45.69816" lon="6.23444">
        <ele>1551.803589</ele>
        <time>2011-09-10T15:27:31Z</time>
      </trkpt>
      <trkpt lat="45.69818" lon="6.23442">
        <ele>1551.609619</ele>
        <time>2011-09-10T15:27:36Z</time>
      </trkpt>
      <trkpt lat="45.69819" lon="6.23439">
        <ele>1552.109985</ele>
        <time>2011-09-10T15:27:41Z</time>
      </trkpt>
      <trkpt lat="45.69819" lon="6.23434">
        <ele>1554.115601</ele>
        <time>2011-09-10T15:27:46Z</time>
      </trkpt>
      <trkpt lat="45.69818" lon="6.23428">
        <ele>1556.289185</ele>
        <time>2011-09-10T15:27:51Z</time>
      </trkpt>
      <trkpt lat="45.69818" lon="6.23422">
        <ele>1558.533325</ele>
        <time>2011-09-10T15:27:56Z</time>
      </trkpt>
      <trkpt lat="45.69819" lon="6.23416">
        <ele>1560.601685</ele>
        <time>2011-09-10T15:28:01Z</time>
      </trkpt>
      <trkpt lat="45.69819" lon="6.23411">
        <ele>1561.908813</ele>
        <time>2011-09-10T15:28:06Z</time>
      </trkpt>
      <trkpt lat="45.69821" lon="6.23408">
        <ele>1562.698242</ele>
        <time>2011-09-10T15:28:11Z</time>
      </trkpt>
      <trkpt lat="45.69822" lon="6.23407">
        <ele>1562.806274</ele>
        <time>2011-09-10T15:28:16Z</time>
      </trkpt>
      <trkpt lat="45.69825" lon="6.2341">
        <ele>1560.711304</ele>
        <time>2011-09-10T15:38:01Z</time>
      </trkpt>
      <trkpt lat="45.69828" lon="6.23412">
        <ele>1559.072998</ele>
        <time>2011-09-10T15:38:06Z</time>
      </trkpt>
      <trkpt lat="45.69831" lon="6.23413">
        <ele>1557.673096</ele>
        <time>2011-09-10T15:38:11Z</time>
      </trkpt>
      <trkpt lat="45.69834" lon="6.23412">
        <ele>1557.181396</ele>
        <time>2011-09-10T15:38:16Z</time>
      </trkpt>
      <trkpt lat="45.69838" lon="6.23412">
        <ele>1556.199097</ele>
        <time>2011-09-10T15:38:21Z</time>
      </trkpt>
      <trkpt lat="45.69843" lon="6.23407">
        <ele>1556.732056</ele>
        <time>2011-09-10T15:38:26Z</time>
      </trkpt>
      <trkpt lat="45.69848" lon="6.2341">
        <ele>1554.355591</ele>
        <time>2011-09-10T15:38:31Z</time>
      </trkpt>
      <trkpt lat="45.69851" lon="6.2341">
        <ele>1553.064697</ele>
        <time>2011-09-10T15:38:36Z</time>
      </trkpt>
      <trkpt lat="45.69854" lon="6.23406">
        <ele>1554.440308</ele>
        <time>2011-09-10T15:38:41Z</time>
      </trkpt>
      <trkpt lat="45.69856" lon="6.23406">
        <ele>1554.300171</ele>
        <time>2011-09-10T15:38:46Z</time>
      </trkpt>
      <trkpt lat="45.69857" lon="6.23406">
        <ele>1554.002197</ele>
        <time>2011-09-10T15:38:51Z</time>
      </trkpt>
      <trkpt lat="45.69859" lon="6.23405">
        <ele>1554.28125</ele>
        <time>2011-09-10T15:38:56Z</time>
      </trkpt>
      <trkpt lat="45.69863" lon="6.23398">
        <ele>1556.771606</ele>
        <time>2011-09-10T15:39:01Z</time>
      </trkpt>
      <trkpt lat="45.69867" lon="6.23394">
        <ele>1557.712524</ele>
        <time>2011-09-10T15:39:06Z</time>
      </trkpt>
      <trkpt lat="45.6987" lon="6.2339">
        <ele>1559.084229</ele>
        <time>2011-09-10T15:39:11Z</time>
      </trkpt>
      <trkpt lat="45.69872" lon="6.23385">
        <ele>1560.843994</ele>
        <time>2011-09-10T15:39:16Z</time>
      </trkpt>
      <trkpt lat="45.69874" lon="6.23382">
        <ele>1561.40686</ele>
        <time>2011-09-10T15:39:21Z</time>
      </trkpt>
      <trkpt lat="45.69877" lon="6.23379">
        <ele>1562.066895</ele>
        <time>2011-09-10T15:39:26Z</time>
      </trkpt>
      <trkpt lat="45.6988" lon="6.23375">
        <ele>1563.312866</ele>
        <time>2011-09-10T15:39:31Z</time>
      </trkpt>
      <trkpt lat="45.69882" lon="6.2337">
        <ele>1564.549316</ele>
        <time>2011-09-10T15:39:36Z</time>
      </trkpt>
      <trkpt lat="45.69885" lon="6.23365">
        <ele>1565.907104</ele>
        <time>2011-09-10T15:39:41Z</time>
      </trkpt>
      <trkpt lat="45.69888" lon="6.23365">
        <ele>1565.346191</ele>
        <time>2011-09-10T15:39:46Z</time>
      </trkpt>
      <trkpt lat="45.69892" lon="6.23362">
        <ele>1565.071533</ele>
        <time>2011-09-10T15:39:51Z</time>
      </trkpt>
      <trkpt lat="45.69895" lon="6.23357">
        <ele>1566.215454</ele>
        <time>2011-09-10T15:39:56Z</time>
      </trkpt>
      <trkpt lat="45.69898" lon="6.23354">
        <ele>1566.285034</ele>
        <time>2011-09-10T15:40:01Z</time>
      </trkpt>
      <trkpt lat="45.69901" lon="6.23352">
        <ele>1566.251221</ele>
        <time>2011-09-10T15:40:06Z</time>
      </trkpt>
      <trkpt lat="45.69904" lon="6.23349">
        <ele>1567.462891</ele>
        <time>2011-09-10T15:40:11Z</time>
      </trkpt>
      <trkpt lat="45.69907" lon="6.23344">
        <ele>1569.49646</ele>
        <time>2011-09-10T15:40:16Z</time>
      </trkpt>
      <trkpt lat="45.6991" lon="6.23341">
        <ele>1570.814209</ele>
        <time>2011-09-10T15:40:21Z</time>
      </trkpt>
      <trkpt lat="45.69912" lon="6.23341">
        <ele>1570.021606</ele>
        <time>2011-09-10T15:40:26Z</time>
      </trkpt>
      <trkpt lat="45.69915" lon="6.23343">
        <ele>1569.084961</ele>
        <time>2011-09-10T15:40:31Z</time>
      </trkpt>
      <trkpt lat="45.69919" lon="6.23343">
        <ele>1568.21814</ele>
        <time>2011-09-10T15:40:36Z</time>
      </trkpt>
      <trkpt lat="45.69923" lon="6.23342">
        <ele>1568.141235</ele>
        <time>2011-09-10T15:40:41Z</time>
      </trkpt>
      <trkpt lat="45.69928" lon="6.2334">
        <ele>1568.842285</ele>
        <time>2011-09-10T15:40:46Z</time>
      </trkpt>
      <trkpt lat="45.69932" lon="6.23338">
        <ele>1569.224487</ele>
        <time>2011-09-10T15:40:51Z</time>
      </trkpt>
      <trkpt lat="45.69936" lon="6.23336">
        <ele>1569.403442</ele>
        <time>2011-09-10T15:40:56Z</time>
      </trkpt>
      <trkpt lat="45.69938" lon="6.23337">
        <ele>1568.565186</ele>
        <time>2011-09-10T15:41:01Z</time>
      </trkpt>
      <trkpt lat="45.69941" lon="6.23332">
        <ele>1570.714478</ele>
        <time>2011-09-10T15:41:06Z</time>
      </trkpt>
      <trkpt lat="45.69944" lon="6.23335">
        <ele>1568.820557</ele>
        <time>2011-09-10T15:41:11Z</time>
      </trkpt>
      <trkpt lat="45.69948" lon="6.2333">
        <ele>1571.053711</ele>
        <time>2011-09-10T15:41:16Z</time>
      </trkpt>
      <trkpt lat="45.6995" lon="6.23329">
        <ele>1571.086182</ele>
        <time>2011-09-10T15:41:21Z</time>
      </trkpt>
      <trkpt lat="45.69952" lon="6.23326">
        <ele>1572.626221</ele>
        <time>2011-09-10T15:41:26Z</time>
      </trkpt>
      <trkpt lat="45.69956" lon="6.23324">
        <ele>1573.056274</ele>
        <time>2011-09-10T15:41:31Z</time>
      </trkpt>
      <trkpt lat="45.69958" lon="6.23323">
        <ele>1573.091309</ele>
        <time>2011-09-10T15:41:36Z</time>
      </trkpt>
      <trkpt lat="45.6996" lon="6.23321">
        <ele>1573.967529</ele>
        <time>2011-09-10T15:41:41Z</time>
      </trkpt>
      <trkpt lat="45.69963" lon="6.2332">
        <ele>1574.20874</ele>
        <time>2011-09-10T15:41:46Z</time>
      </trkpt>
      <trkpt lat="45.69965" lon="6.23317">
        <ele>1575.3125</ele>
        <time>2011-09-10T15:41:51Z</time>
      </trkpt>
      <trkpt lat="45.69967" lon="6.23317">
        <ele>1575.079956</ele>
        <time>2011-09-10T15:41:56Z</time>
      </trkpt>
      <trkpt lat="45.69972" lon="6.23315">
        <ele>1575.308716</ele>
        <time>2011-09-10T15:42:01Z</time>
      </trkpt>
      <trkpt lat="45.69975" lon="6.23311">
        <ele>1576.834961</ele>
        <time>2011-09-10T15:42:06Z</time>
      </trkpt>
      <trkpt lat="45.69979" lon="6.23308">
        <ele>1578.03125</ele>
        <time>2011-09-10T15:42:11Z</time>
      </trkpt>
      <trkpt lat="45.6998" lon="6.23305">
        <ele>1579.599976</ele>
        <time>2011-09-10T15:42:16Z</time>
      </trkpt>
      <trkpt lat="45.69981" lon="6.23304">
        <ele>1579.857544</ele>
        <time>2011-09-10T15:42:21Z</time>
      </trkpt>
      <trkpt lat="45.69984" lon="6.23299">
        <ele>1581.952515</ele>
        <time>2011-09-10T15:42:26Z</time>
      </trkpt>
      <trkpt lat="45.69986" lon="6.23296">
        <ele>1583.36499</ele>
        <time>2011-09-10T15:42:31Z</time>
      </trkpt>
      <trkpt lat="45.6999" lon="6.23296">
        <ele>1582.95752</ele>
        <time>2011-09-10T15:42:36Z</time>
      </trkpt>
      <trkpt lat="45.69995" lon="6.23291">
        <ele>1585.229004</ele>
        <time>2011-09-10T15:42:41Z</time>
      </trkpt>
      <trkpt lat="45.69998" lon="6.23291">
        <ele>1585.363281</ele>
        <time>2011-09-10T15:42:46Z</time>
      </trkpt>
      <trkpt lat="45.70002" lon="6.23291">
        <ele>1585.281738</ele>
        <time>2011-09-10T15:42:51Z</time>
      </trkpt>
      <trkpt lat="45.70002" lon="6.23292">
        <ele>1584.575073</ele>
        <time>2011-09-10T15:42:56Z</time>
      </trkpt>
      <trkpt lat="45.70005" lon="6.2329">
        <ele>1586.352173</ele>
        <time>2011-09-10T15:43:01Z</time>
      </trkpt>
      <trkpt lat="45.70009" lon="6.23289">
        <ele>1587.188721</ele>
        <time>2011-09-10T15:43:06Z</time>
      </trkpt>
      <trkpt lat="45.70012" lon="6.23289">
        <ele>1587.080688</ele>
        <time>2011-09-10T15:43:11Z</time>
      </trkpt>
      <trkpt lat="45.70016" lon="6.2329">
        <ele>1586.305542</ele>
        <time>2011-09-10T15:43:16Z</time>
      </trkpt>
      <trkpt lat="45.70018" lon="6.23291">
        <ele>1585.99353</ele>
        <time>2011-09-10T15:43:21Z</time>
      </trkpt>
      <trkpt lat="45.7002" lon="6.23293">
        <ele>1584.545044</ele>
        <time>2011-09-10T15:43:26Z</time>
      </trkpt>
      <trkpt lat="45.70023" lon="6.23299">
        <ele>1580.344116</ele>
        <time>2011-09-10T15:43:31Z</time>
      </trkpt>
      <trkpt lat="45.70028" lon="6.23301">
        <ele>1579.055176</ele>
        <time>2011-09-10T15:43:36Z</time>
      </trkpt>
      <trkpt lat="45.70031" lon="6.23299">
        <ele>1580.006348</ele>
        <time>2011-09-10T15:43:41Z</time>
      </trkpt>
      <trkpt lat="45.70034" lon="6.23303">
        <ele>1577.716675</ele>
        <time>2011-09-10T15:43:46Z</time>
      </trkpt>
      <trkpt lat="45.70039" lon="6.23303">
        <ele>1577.688354</ele>
        <time>2011-09-10T15:43:51Z</time>
      </trkpt>
      <trkpt lat="45.70043" lon="6.23302">
        <ele>1578.666748</ele>
        <time>2011-09-10T15:43:56Z</time>
      </trkpt>
      <trkpt lat="45.70046" lon="6.23302">
        <ele>1579.320557</ele>
        <time>2011-09-10T15:44:01Z</time>
      </trkpt>
      <trkpt lat="45.70048" lon="6.233">
        <ele>1580.643555</ele>
        <time>2011-09-10T15:44:06Z</time>
      </trkpt>
      <trkpt lat="45.70046" lon="6.23297">
        <ele>1582.347778</ele>
        <time>2011-09-10T15:44:11Z</time>
      </trkpt>
      <trkpt lat="45.70045" lon="6.23293">
        <ele>1585.08374</ele>
        <time>2011-09-10T15:44:16Z</time>
      </trkpt>
      <trkpt lat="45.70051" lon="6.23289">
        <ele>1588.897583</ele>
        <time>2011-09-10T15:44:21Z</time>
      </trkpt>
      <trkpt lat="45.70055" lon="6.23287">
        <ele>1590.567139</ele>
        <time>2011-09-10T15:44:26Z</time>
      </trkpt>
      <trkpt lat="45.70059" lon="6.23285">
        <ele>1592.358643</ele>
        <time>2011-09-10T15:44:31Z</time>
      </trkpt>
      <trkpt lat="45.70062" lon="6.23285">
        <ele>1592.105957</ele>
        <time>2011-09-10T15:44:36Z</time>
      </trkpt>
      <trkpt lat="45.70064" lon="6.23286">
        <ele>1591.500244</ele>
        <time>2011-09-10T15:44:41Z</time>
      </trkpt>
      <trkpt lat="45.70064" lon="6.23283">
        <ele>1593.47937</ele>
        <time>2011-09-10T15:44:46Z</time>
      </trkpt>
      <trkpt lat="45.70068" lon="6.23286">
        <ele>1592.211182</ele>
        <time>2011-09-10T15:44:51Z</time>
      </trkpt>
      <trkpt lat="45.70071" lon="6.23285">
        <ele>1592.849243</ele>
        <time>2011-09-10T15:44:56Z</time>
      </trkpt>
      <trkpt lat="45.70075" lon="6.23281">
        <ele>1595.532593</ele>
        <time>2011-09-10T15:45:01Z</time>
      </trkpt>
      <trkpt lat="45.70076" lon="6.2328">
        <ele>1596.606934</ele>
        <time>2011-09-10T15:45:06Z</time>
      </trkpt>
      <trkpt lat="45.70078" lon="6.23278">
        <ele>1597.985596</ele>
        <time>2011-09-10T15:45:11Z</time>
      </trkpt>
      <trkpt lat="45.7008" lon="6.23276">
        <ele>1599.02832</ele>
        <time>2011-09-10T15:45:16Z</time>
      </trkpt>
      <trkpt lat="45.70081" lon="6.23274">
        <ele>1600.642212</ele>
        <time>2011-09-10T15:45:21Z</time>
      </trkpt>
      <trkpt lat="45.70083" lon="6.23273">
        <ele>1601.305542</ele>
        <time>2011-09-10T15:45:26Z</time>
      </trkpt>
      <trkpt lat="45.70086" lon="6.2327">
        <ele>1602.656494</ele>
        <time>2011-09-10T15:45:31Z</time>
      </trkpt>
      <trkpt lat="45.70089" lon="6.23267">
        <ele>1604.361572</ele>
        <time>2011-09-10T15:45:36Z</time>
      </trkpt>
      <trkpt lat="45.70093" lon="6.23264">
        <ele>1605.982788</ele>
        <time>2011-09-10T15:45:41Z</time>
      </trkpt>
      <trkpt lat="45.70096" lon="6.23263">
        <ele>1606.578491</ele>
        <time>2011-09-10T15:45:46Z</time>
      </trkpt>
      <trkpt lat="45.70097" lon="6.23262">
        <ele>1606.82605</ele>
        <time>2011-09-10T15:45:51Z</time>
      </trkpt>
      <trkpt lat="45.70099" lon="6.23262">
        <ele>1606.572998</ele>
        <time>2011-09-10T15:45:56Z</time>
      </trkpt>
      <trkpt lat="45.70101" lon="6.23261">
        <ele>1607.021362</ele>
        <time>2011-09-10T15:46:01Z</time>
      </trkpt>
      <trkpt lat="45.70103" lon="6.23257">
        <ele>1609.51123</ele>
        <time>2011-09-10T15:46:06Z</time>
      </trkpt>
      <trkpt lat="45.70102" lon="6.23254">
        <ele>1612.013062</ele>
        <time>2011-09-10T15:46:11Z</time>
      </trkpt>
      <trkpt lat="45.701" lon="6.2326">
        <ele>1607.973267</ele>
        <time>2011-09-10T15:46:16Z</time>
      </trkpt>
      <trkpt lat="45.70099" lon="6.23257">
        <ele>1609.834595</ele>
        <time>2011-09-10T15:46:21Z</time>
      </trkpt>
      <trkpt lat="45.70098" lon="6.23254">
        <ele>1612.495239</ele>
        <time>2011-09-10T15:46:26Z</time>
      </trkpt>
      <trkpt lat="45.70099" lon="6.23252">
        <ele>1613.29248</ele>
        <time>2011-09-10T15:46:31Z</time>
      </trkpt>
      <trkpt lat="45.70101" lon="6.23251">
        <ele>1613.976318</ele>
        <time>2011-09-10T15:46:36Z</time>
      </trkpt>
      <trkpt lat="45.70101" lon="6.23249">
        <ele>1615.453003</ele>
        <time>2011-09-10T15:46:41Z</time>
      </trkpt>
      <trkpt lat="45.70102" lon="6.23245">
        <ele>1617.740112</ele>
        <time>2011-09-10T15:46:46Z</time>
      </trkpt>
      <trkpt lat="45.70104" lon="6.23244">
        <ele>1618.231567</ele>
        <time>2011-09-10T15:46:51Z</time>
      </trkpt>
      <trkpt lat="45.70106" lon="6.23246">
        <ele>1616.63208</ele>
        <time>2011-09-10T15:46:56Z</time>
      </trkpt>
      <trkpt lat="45.70109" lon="6.23248">
        <ele>1614.990356</ele>
        <time>2011-09-10T15:47:01Z</time>
      </trkpt>
      <trkpt lat="45.70111" lon="6.23246">
        <ele>1616.41626</ele>
        <time>2011-09-10T15:47:06Z</time>
      </trkpt>
      <trkpt lat="45.70115" lon="6.23248">
        <ele>1614.614624</ele>
        <time>2011-09-10T15:47:11Z</time>
      </trkpt>
      <trkpt lat="45.70119" lon="6.23245">
        <ele>1616.173584</ele>
        <time>2011-09-10T15:47:16Z</time>
      </trkpt>
      <trkpt lat="45.70122" lon="6.23244">
        <ele>1616.420776</ele>
        <time>2011-09-10T15:47:21Z</time>
      </trkpt>
      <trkpt lat="45.70126" lon="6.23248">
        <ele>1613.741333</ele>
        <time>2011-09-10T15:47:26Z</time>
      </trkpt>
      <trkpt lat="45.70129" lon="6.2325">
        <ele>1611.82019</ele>
        <time>2011-09-10T15:47:31Z</time>
      </trkpt>
      <trkpt lat="45.70129" lon="6.2325">
        <ele>1611.767578</ele>
        <time>2011-09-10T15:47:36Z</time>
      </trkpt>
      <trkpt lat="45.70132" lon="6.23249">
        <ele>1613.759033</ele>
        <time>2011-09-10T15:47:41Z</time>
      </trkpt>
      <trkpt lat="45.70134" lon="6.23248">
        <ele>1615.291382</ele>
        <time>2011-09-10T15:47:46Z</time>
      </trkpt>
      <trkpt lat="45.70137" lon="6.23252">
        <ele>1613.412964</ele>
        <time>2011-09-10T15:47:51Z</time>
      </trkpt>
      <trkpt lat="45.70139" lon="6.23246">
        <ele>1618.251099</ele>
        <time>2011-09-10T15:47:56Z</time>
      </trkpt>
      <trkpt lat="45.70139" lon="6.23242">
        <ele>1621.340454</ele>
        <time>2011-09-10T15:48:01Z</time>
      </trkpt>
      <trkpt lat="45.70143" lon="6.23238">
        <ele>1625.697754</ele>
        <time>2011-09-10T15:48:06Z</time>
      </trkpt>
      <trkpt lat="45.70146" lon="6.23234">
        <ele>1630.537231</ele>
        <time>2011-09-10T15:48:11Z</time>
      </trkpt>
      <trkpt lat="45.70148" lon="6.23236">
        <ele>1629.162109</ele>
        <time>2011-09-10T15:48:16Z</time>
      </trkpt>
      <trkpt lat="45.70148" lon="6.23238">
        <ele>1628.107422</ele>
        <time>2011-09-10T15:48:21Z</time>
      </trkpt>
      <trkpt lat="45.70149" lon="6.23238">
        <ele>1628.515991</ele>
        <time>2011-09-10T15:48:26Z</time>
      </trkpt>
      <trkpt lat="45.70152" lon="6.23238">
        <ele>1630.012207</ele>
        <time>2011-09-10T15:48:31Z</time>
      </trkpt>
      <trkpt lat="45.70153" lon="6.23241">
        <ele>1627.597168</ele>
        <time>2011-09-10T15:48:36Z</time>
      </trkpt>
      <trkpt lat="45.70154" lon="6.23243">
        <ele>1626.406128</ele>
        <time>2011-09-10T15:48:41Z</time>
      </trkpt>
      <trkpt lat="45.70155" lon="6.23245">
        <ele>1625.682861</ele>
        <time>2011-09-10T15:48:46Z</time>
      </trkpt>
      <trkpt lat="45.70155" lon="6.23245">
        <ele>1625.566284</ele>
        <time>2011-09-10T15:48:51Z</time>
      </trkpt>
      <trkpt lat="45.70158" lon="6.23246">
        <ele>1626.24353</ele>
        <time>2011-09-10T15:48:56Z</time>
      </trkpt>
      <trkpt lat="45.70159" lon="6.23249">
        <ele>1624.049561</ele>
        <time>2011-09-10T15:49:01Z</time>
      </trkpt>
      <trkpt lat="45.70162" lon="6.23251">
        <ele>1623.642334</ele>
        <time>2011-09-10T15:49:06Z</time>
      </trkpt>
      <trkpt lat="45.70163" lon="6.23254">
        <ele>1622.062134</ele>
        <time>2011-09-10T15:49:11Z</time>
      </trkpt>
      <trkpt lat="45.70163" lon="6.23258">
        <ele>1619.108643</ele>
        <time>2011-09-10T15:49:16Z</time>
      </trkpt>
      <trkpt lat="45.70166" lon="6.23257">
        <ele>1620.426636</ele>
        <time>2011-09-10T15:49:21Z</time>
      </trkpt>
      <trkpt lat="45.7017" lon="6.23258">
        <ele>1621.026001</ele>
        <time>2011-09-10T15:49:26Z</time>
      </trkpt>
      <trkpt lat="45.70173" lon="6.23261">
        <ele>1620.344971</ele>
        <time>2011-09-10T15:49:31Z</time>
      </trkpt>
      <trkpt lat="45.70176" lon="6.23261">
        <ele>1621.032959</ele>
        <time>2011-09-10T15:49:36Z</time>
      </trkpt>
      <trkpt lat="45.70178" lon="6.23259">
        <ele>1622.819336</ele>
        <time>2011-09-10T15:49:41Z</time>
      </trkpt>
      <trkpt lat="45.70181" lon="6.23256">
        <ele>1625.186646</ele>
        <time>2011-09-10T15:49:46Z</time>
      </trkpt>
      <trkpt lat="45.70183" lon="6.23255">
        <ele>1626.386353</ele>
        <time>2011-09-10T15:49:51Z</time>
      </trkpt>
      <trkpt lat="45.70181" lon="6.23253">
        <ele>1628.39563</ele>
        <time>2011-09-10T15:49:56Z</time>
      </trkpt>
      <trkpt lat="45.7018" lon="6.2325">
        <ele>1629.968872</ele>
        <time>2011-09-10T15:50:01Z</time>
      </trkpt>
      <trkpt lat="45.7018" lon="6.23248">
        <ele>1632.189087</ele>
        <time>2011-09-10T15:50:06Z</time>
      </trkpt>
      <trkpt lat="45.70182" lon="6.23248">
        <ele>1632.292358</ele>
        <time>2011-09-10T15:50:11Z</time>
      </trkpt>
      <trkpt lat="45.70183" lon="6.23248">
        <ele>1632.394897</ele>
        <time>2011-09-10T15:50:16Z</time>
      </trkpt>
      <trkpt lat="45.70186" lon="6.23248">
        <ele>1632.677734</ele>
        <time>2011-09-10T15:50:21Z</time>
      </trkpt>
      <trkpt lat="45.70188" lon="6.23244">
        <ele>1636.716919</ele>
        <time>2011-09-10T15:51:06Z</time>
      </trkpt>
      <trkpt lat="45.70186" lon="6.23241">
        <ele>1638.463135</ele>
        <time>2011-09-10T15:51:11Z</time>
      </trkpt>
      <trkpt lat="45.70186" lon="6.23241">
        <ele>1638.213013</ele>
        <time>2011-09-10T15:51:16Z</time>
      </trkpt>
      <trkpt lat="45.70189" lon="6.23244">
        <ele>1637.141113</ele>
        <time>2011-09-10T15:51:21Z</time>
      </trkpt>
      <trkpt lat="45.70192" lon="6.23242">
        <ele>1638.833374</ele>
        <time>2011-09-10T15:51:26Z</time>
      </trkpt>
      <trkpt lat="45.70194" lon="6.23241">
        <ele>1639.587769</ele>
        <time>2011-09-10T15:51:31Z</time>
      </trkpt>
      <trkpt lat="45.70191" lon="6.2324">
        <ele>1639.342651</ele>
        <time>2011-09-10T15:51:36Z</time>
      </trkpt>
      <trkpt lat="45.70188" lon="6.23235">
        <ele>1641.893799</ele>
        <time>2011-09-10T15:51:41Z</time>
      </trkpt>
      <trkpt lat="45.70187" lon="6.23232">
        <ele>1642.961426</ele>
        <time>2011-09-10T15:51:46Z</time>
      </trkpt>
      <trkpt lat="45.7019" lon="6.23232">
        <ele>1643.125244</ele>
        <time>2011-09-10T15:51:51Z</time>
      </trkpt>
      <trkpt lat="45.70191" lon="6.2323">
        <ele>1644.325073</ele>
        <time>2011-09-10T15:51:56Z</time>
      </trkpt>
      <trkpt lat="45.70193" lon="6.23227">
        <ele>1646.15332</ele>
        <time>2011-09-10T15:52:01Z</time>
      </trkpt>
      <trkpt lat="45.70195" lon="6.23225">
        <ele>1647.22583</ele>
        <time>2011-09-10T15:52:06Z</time>
      </trkpt>
      <trkpt lat="45.70197" lon="6.23226">
        <ele>1646.974976</ele>
        <time>2011-09-10T15:52:11Z</time>
      </trkpt>
      <trkpt lat="45.70196" lon="6.23226">
        <ele>1646.506958</ele>
        <time>2011-09-10T15:52:16Z</time>
      </trkpt>
      <trkpt lat="45.70195" lon="6.23226">
        <ele>1646.483887</ele>
        <time>2011-09-10T15:52:21Z</time>
      </trkpt>
      <trkpt lat="45.70194" lon="6.23226">
        <ele>1646.513672</ele>
        <time>2011-09-10T15:52:26Z</time>
      </trkpt>
      <trkpt lat="45.70197" lon="6.23223">
        <ele>1648.128418</ele>
        <time>2011-09-10T15:52:31Z</time>
      </trkpt>
      <trkpt lat="45.70194" lon="6.2322">
        <ele>1649.627808</ele>
        <time>2011-09-10T15:52:36Z</time>
      </trkpt>
      <trkpt lat="45.70191" lon="6.23218">
        <ele>1650.455322</ele>
        <time>2011-09-10T15:52:41Z</time>
      </trkpt>
      <trkpt lat="45.70189" lon="6.23216">
        <ele>1651.49585</ele>
        <time>2011-09-10T15:52:46Z</time>
      </trkpt>
      <trkpt lat="45.70187" lon="6.23213">
        <ele>1652.803955</ele>
        <time>2011-09-10T15:52:51Z</time>
      </trkpt>
      <trkpt lat="45.70189" lon="6.23213">
        <ele>1652.686523</ele>
        <time>2011-09-10T15:52:56Z</time>
      </trkpt>
      <trkpt lat="45.70192" lon="6.23211">
        <ele>1653.789551</ele>
        <time>2011-09-10T15:53:01Z</time>
      </trkpt>
      <trkpt lat="45.70195" lon="6.23211">
        <ele>1653.861328</ele>
        <time>2011-09-10T15:53:06Z</time>
      </trkpt>
      <trkpt lat="45.70197" lon="6.23211">
        <ele>1653.602905</ele>
        <time>2011-09-10T15:53:11Z</time>
      </trkpt>
      <trkpt lat="45.70199" lon="6.23211">
        <ele>1653.718506</ele>
        <time>2011-09-10T15:53:16Z</time>
      </trkpt>
      <trkpt lat="45.702" lon="6.2321">
        <ele>1654.096313</ele>
        <time>2011-09-10T15:53:21Z</time>
      </trkpt>
      <trkpt lat="45.70197" lon="6.23207">
        <ele>1655.37439</ele>
        <time>2011-09-10T15:53:26Z</time>
      </trkpt>
      <trkpt lat="45.70195" lon="6.23204">
        <ele>1656.83728</ele>
        <time>2011-09-10T15:53:31Z</time>
      </trkpt>
      <trkpt lat="45.70194" lon="6.23201">
        <ele>1658.55957</ele>
        <time>2011-09-10T15:53:36Z</time>
      </trkpt>
      <trkpt lat="45.70192" lon="6.23199">
        <ele>1659.735229</ele>
        <time>2011-09-10T15:53:41Z</time>
      </trkpt>
      <trkpt lat="45.70189" lon="6.23197">
        <ele>1661.18811</ele>
        <time>2011-09-10T15:53:46Z</time>
      </trkpt>
      <trkpt lat="45.70186" lon="6.23195">
        <ele>1662.637207</ele>
        <time>2011-09-10T15:53:51Z</time>
      </trkpt>
      <trkpt lat="45.70185" lon="6.23195">
        <ele>1662.729614</ele>
        <time>2011-09-10T15:53:56Z</time>
      </trkpt>
      <trkpt lat="45.70187" lon="6.23194">
        <ele>1662.615845</ele>
        <time>2011-09-10T15:54:01Z</time>
      </trkpt>
      <trkpt lat="45.7019" lon="6.23193">
        <ele>1663.065918</ele>
        <time>2011-09-10T15:54:06Z</time>
      </trkpt>
      <trkpt lat="45.70191" lon="6.23195">
        <ele>1661.710938</ele>
        <time>2011-09-10T15:54:11Z</time>
      </trkpt>
      <trkpt lat="45.70194" lon="6.23194">
        <ele>1662.155884</ele>
        <time>2011-09-10T15:54:16Z</time>
      </trkpt>
      <trkpt lat="45.70197" lon="6.23191">
        <ele>1662.950684</ele>
        <time>2011-09-10T15:54:21Z</time>
      </trkpt>
      <trkpt lat="45.702" lon="6.23194">
        <ele>1661.172485</ele>
        <time>2011-09-10T15:54:26Z</time>
      </trkpt>
      <trkpt lat="45.70203" lon="6.23195">
        <ele>1660.093872</ele>
        <time>2011-09-10T15:54:31Z</time>
      </trkpt>
      <trkpt lat="45.70207" lon="6.23197">
        <ele>1658.738403</ele>
        <time>2011-09-10T15:54:36Z</time>
      </trkpt>
      <trkpt lat="45.70208" lon="6.23194">
        <ele>1659.75415</ele>
        <time>2011-09-10T15:54:41Z</time>
      </trkpt>
      <trkpt lat="45.70209" lon="6.23191">
        <ele>1660.946777</ele>
        <time>2011-09-10T15:54:46Z</time>
      </trkpt>
      <trkpt lat="45.70209" lon="6.23189">
        <ele>1661.619873</ele>
        <time>2011-09-10T15:54:51Z</time>
      </trkpt>
      <trkpt lat="45.7021" lon="6.23187">
        <ele>1662.268677</ele>
        <time>2011-09-10T15:54:56Z</time>
      </trkpt>
      <trkpt lat="45.7021" lon="6.23186">
        <ele>1662.686646</ele>
        <time>2011-09-10T15:55:01Z</time>
      </trkpt>
      <trkpt lat="45.70211" lon="6.23184">
        <ele>1663.366211</ele>
        <time>2011-09-10T15:55:06Z</time>
      </trkpt>
      <trkpt lat="45.7021" lon="6.23179">
        <ele>1664.880249</ele>
        <time>2011-09-10T15:55:11Z</time>
      </trkpt>
      <trkpt lat="45.7021" lon="6.23172">
        <ele>1664.010986</ele>
        <time>2011-09-10T15:55:16Z</time>
      </trkpt>
      <trkpt lat="45.70207" lon="6.23167">
        <ele>1663.933472</ele>
        <time>2011-09-10T15:55:21Z</time>
      </trkpt>
      <trkpt lat="45.70206" lon="6.23161">
        <ele>1663.333008</ele>
        <time>2011-09-10T15:55:26Z</time>
      </trkpt>
      <trkpt lat="45.70204" lon="6.23155">
        <ele>1663.064331</ele>
        <time>2011-09-10T15:55:31Z</time>
      </trkpt>
      <trkpt lat="45.702" lon="6.2315">
        <ele>1663.303101</ele>
        <time>2011-09-10T15:55:36Z</time>
      </trkpt>
      <trkpt lat="45.70195" lon="6.23149">
        <ele>1664.723389</ele>
        <time>2011-09-10T15:55:41Z</time>
      </trkpt>
      <trkpt lat="45.70196" lon="6.23143">
        <ele>1663.691406</ele>
        <time>2011-09-10T15:55:46Z</time>
      </trkpt>
      <trkpt lat="45.70198" lon="6.23141">
        <ele>1662.808472</ele>
        <time>2011-09-10T15:55:51Z</time>
      </trkpt>
      <trkpt lat="45.702" lon="6.2314">
        <ele>1661.974976</ele>
        <time>2011-09-10T15:55:56Z</time>
      </trkpt>
      <trkpt lat="45.70201" lon="6.23137">
        <ele>1661.333374</ele>
        <time>2011-09-10T15:56:01Z</time>
      </trkpt>
      <trkpt lat="45.702" lon="6.23129">
        <ele>1660.364136</ele>
        <time>2011-09-10T15:56:06Z</time>
      </trkpt>
      <trkpt lat="45.70197" lon="6.23124">
        <ele>1660.52478</ele>
        <time>2011-09-10T15:56:11Z</time>
      </trkpt>
      <trkpt lat="45.70197" lon="6.23119">
        <ele>1659.831177</ele>
        <time>2011-09-10T15:56:16Z</time>
      </trkpt>
      <trkpt lat="45.70194" lon="6.23115">
        <ele>1660.323364</ele>
        <time>2011-09-10T15:56:21Z</time>
      </trkpt>
      <trkpt lat="45.70187" lon="6.23115">
        <ele>1662.398804</ele>
        <time>2011-09-10T15:56:26Z</time>
      </trkpt>
      <trkpt lat="45.70182" lon="6.23114">
        <ele>1664.123535</ele>
        <time>2011-09-10T15:56:31Z</time>
      </trkpt>
      <trkpt lat="45.70174" lon="6.23114">
        <ele>1667.646362</ele>
        <time>2011-09-10T15:56:36Z</time>
      </trkpt>
      <trkpt lat="45.70168" lon="6.23113">
        <ele>1671.222168</ele>
        <time>2011-09-10T15:56:41Z</time>
      </trkpt>
      <trkpt lat="45.70168" lon="6.23106">
        <ele>1668.557251</ele>
        <time>2011-09-10T15:56:46Z</time>
      </trkpt>
      <trkpt lat="45.70156" lon="6.23032">
        <ele>1645.128784</ele>
        <time>2011-09-10T15:57:36Z</time>
      </trkpt>
      <trkpt lat="45.70156" lon="6.23033">
        <ele>1645.349731</ele>
        <time>2011-09-10T15:57:41Z</time>
      </trkpt>
      <trkpt lat="45.70163" lon="6.23025">
        <ele>1638.915405</ele>
        <time>2011-09-10T15:57:46Z</time>
      </trkpt>
      <trkpt lat="45.7016" lon="6.23022">
        <ele>1639.472778</ele>
        <time>2011-09-10T15:57:51Z</time>
      </trkpt>
      <trkpt lat="45.70158" lon="6.23016">
        <ele>1637.836426</ele>
        <time>2011-09-10T15:57:56Z</time>
      </trkpt>
      <trkpt lat="45.70156" lon="6.23012">
        <ele>1637.422119</ele>
        <time>2011-09-10T15:58:01Z</time>
      </trkpt>
      <trkpt lat="45.70152" lon="6.23007">
        <ele>1637.965088</ele>
        <time>2011-09-10T15:58:06Z</time>
      </trkpt>
      <trkpt lat="45.70147" lon="6.23004">
        <ele>1639.130249</ele>
        <time>2011-09-10T15:58:11Z</time>
      </trkpt>
      <trkpt lat="45.70145" lon="6.22998">
        <ele>1638.175171</ele>
        <time>2011-09-10T15:58:16Z</time>
      </trkpt>
      <trkpt lat="45.70136" lon="6.23001">
        <ele>1643.99707</ele>
        <time>2011-09-10T15:58:21Z</time>
      </trkpt>
      <trkpt lat="45.70132" lon="6.22996">
        <ele>1644.073608</ele>
        <time>2011-09-10T15:58:26Z</time>
      </trkpt>
      <trkpt lat="45.70131" lon="6.22991">
        <ele>1642.510254</ele>
        <time>2011-09-10T15:58:31Z</time>
      </trkpt>
      <trkpt lat="45.70129" lon="6.22985">
        <ele>1640.906372</ele>
        <time>2011-09-10T15:58:36Z</time>
      </trkpt>
      <trkpt lat="45.70125" lon="6.22979">
        <ele>1640.504028</ele>
        <time>2011-09-10T15:58:41Z</time>
      </trkpt>
      <trkpt lat="45.7012" lon="6.22976">
        <ele>1641.885742</ele>
        <time>2011-09-10T15:58:46Z</time>
      </trkpt>
      <trkpt lat="45.70115" lon="6.22973">
        <ele>1642.945068</ele>
        <time>2011-09-10T15:58:51Z</time>
      </trkpt>
      <trkpt lat="45.70112" lon="6.22968">
        <ele>1643.059814</ele>
        <time>2011-09-10T15:58:56Z</time>
      </trkpt>
      <trkpt lat="45.70109" lon="6.22963">
        <ele>1642.658203</ele>
        <time>2011-09-10T15:59:01Z</time>
      </trkpt>
      <trkpt lat="45.70106" lon="6.22957">
        <ele>1642.128296</ele>
        <time>2011-09-10T15:59:06Z</time>
      </trkpt>
      <trkpt lat="45.70105" lon="6.22953">
        <ele>1641.390015</ele>
        <time>2011-09-10T15:59:11Z</time>
      </trkpt>
      <trkpt lat="45.70105" lon="6.22954">
        <ele>1641.563965</ele>
        <time>2011-09-10T15:59:16Z</time>
      </trkpt>
      <trkpt lat="45.70105" lon="6.22954">
        <ele>1641.824951</ele>
        <time>2011-09-10T15:59:21Z</time>
      </trkpt>
      <trkpt lat="45.70105" lon="6.22952">
        <ele>1641.331299</ele>
        <time>2011-09-10T15:59:26Z</time>
      </trkpt>
      <trkpt lat="45.70103" lon="6.22946">
        <ele>1640.219482</ele>
        <time>2011-09-10T15:59:31Z</time>
      </trkpt>
      <trkpt lat="45.70101" lon="6.22942">
        <ele>1639.922363</ele>
        <time>2011-09-10T15:59:36Z</time>
      </trkpt>
      <trkpt lat="45.70101" lon="6.22942">
        <ele>1639.601074</ele>
        <time>2011-09-10T15:59:41Z</time>
      </trkpt>
      <trkpt lat="45.70104" lon="6.22938">
        <ele>1636.780396</ele>
        <time>2011-09-10T16:03:01Z</time>
      </trkpt>
      <trkpt lat="45.70102" lon="6.22933">
        <ele>1635.901245</ele>
        <time>2011-09-10T16:03:06Z</time>
      </trkpt>
      <trkpt lat="45.70103" lon="6.22931">
        <ele>1635.287842</ele>
        <time>2011-09-10T16:03:11Z</time>
      </trkpt>
      <trkpt lat="45.70101" lon="6.22929">
        <ele>1635.518066</ele>
        <time>2011-09-10T16:03:16Z</time>
      </trkpt>
      <trkpt lat="45.70097" lon="6.22925">
        <ele>1636.15625</ele>
        <time>2011-09-10T16:03:21Z</time>
      </trkpt>
      <trkpt lat="45.70096" lon="6.22923">
        <ele>1636.705688</ele>
        <time>2011-09-10T16:03:26Z</time>
      </trkpt>
      <trkpt lat="45.70091" lon="6.22917">
        <ele>1638.312378</ele>
        <time>2011-09-10T16:03:31Z</time>
      </trkpt>
      <trkpt lat="45.70087" lon="6.22913">
        <ele>1639.637085</ele>
        <time>2011-09-10T16:03:36Z</time>
      </trkpt>
      <trkpt lat="45.70084" lon="6.22908">
        <ele>1640.734985</ele>
        <time>2011-09-10T16:03:41Z</time>
      </trkpt>
      <trkpt lat="45.70083" lon="6.22901">
        <ele>1640.207764</ele>
        <time>2011-09-10T16:03:46Z</time>
      </trkpt>
      <trkpt lat="45.70082" lon="6.22896">
        <ele>1639.26123</ele>
        <time>2011-09-10T16:03:51Z</time>
      </trkpt>
      <trkpt lat="45.70085" lon="6.22889">
        <ele>1636.11853</ele>
        <time>2011-09-10T16:03:56Z</time>
      </trkpt>
      <trkpt lat="45.70083" lon="6.22883">
        <ele>1636.209839</ele>
        <time>2011-09-10T16:04:01Z</time>
      </trkpt>
      <trkpt lat="45.7008" lon="6.22877">
        <ele>1636.840942</ele>
        <time>2011-09-10T16:04:06Z</time>
      </trkpt>
      <trkpt lat="45.70078" lon="6.22871">
        <ele>1636.606567</ele>
        <time>2011-09-10T16:04:11Z</time>
      </trkpt>
      <trkpt lat="45.70075" lon="6.22865">
        <ele>1637.753662</ele>
        <time>2011-09-10T16:04:16Z</time>
      </trkpt>
      <trkpt lat="45.70073" lon="6.22857">
        <ele>1637.028564</ele>
        <time>2011-09-10T16:04:21Z</time>
      </trkpt>
      <trkpt lat="45.70071" lon="6.22852">
        <ele>1637.541016</ele>
        <time>2011-09-10T16:04:26Z</time>
      </trkpt>
      <trkpt lat="45.70069" lon="6.22847">
        <ele>1638.071167</ele>
        <time>2011-09-10T16:04:31Z</time>
      </trkpt>
      <trkpt lat="45.70068" lon="6.22841">
        <ele>1638.347656</ele>
        <time>2011-09-10T16:04:36Z</time>
      </trkpt>
      <trkpt lat="45.70066" lon="6.22836">
        <ele>1639.537231</ele>
        <time>2011-09-10T16:04:41Z</time>
      </trkpt>
      <trkpt lat="45.70063" lon="6.22832">
        <ele>1641.034302</ele>
        <time>2011-09-10T16:04:46Z</time>
      </trkpt>
      <trkpt lat="45.70059" lon="6.22827">
        <ele>1642.879272</ele>
        <time>2011-09-10T16:04:51Z</time>
      </trkpt>
      <trkpt lat="45.70055" lon="6.22822">
        <ele>1644.363281</ele>
        <time>2011-09-10T16:04:56Z</time>
      </trkpt>
      <trkpt lat="45.70053" lon="6.22817">
        <ele>1645.525269</ele>
        <time>2011-09-10T16:05:01Z</time>
      </trkpt>
      <trkpt lat="45.70052" lon="6.22812">
        <ele>1645.922729</ele>
        <time>2011-09-10T16:05:06Z</time>
      </trkpt>
      <trkpt lat="45.70052" lon="6.2281">
        <ele>1645.346436</ele>
        <time>2011-09-10T16:05:11Z</time>
      </trkpt>
      <trkpt lat="45.70052" lon="6.22809">
        <ele>1645.224976</ele>
        <time>2011-09-10T16:05:16Z</time>
      </trkpt>
      <trkpt lat="45.70052" lon="6.22808">
        <ele>1645.505005</ele>
        <time>2011-09-10T16:05:21Z</time>
      </trkpt>
      <trkpt lat="45.70053" lon="6.22807">
        <ele>1644.675415</ele>
        <time>2011-09-10T16:05:26Z</time>
      </trkpt>
      <trkpt lat="45.70055" lon="6.22807">
        <ele>1643.053833</ele>
        <time>2011-09-10T16:05:31Z</time>
      </trkpt>
      <trkpt lat="45.70058" lon="6.22807">
        <ele>1641.858643</ele>
        <time>2011-09-10T16:05:36Z</time>
      </trkpt>
      <trkpt lat="45.7006" lon="6.22803">
        <ele>1640.516602</ele>
        <time>2011-09-10T16:05:41Z</time>
      </trkpt>
      <trkpt lat="45.70062" lon="6.22807">
        <ele>1640.109009</ele>
        <time>2011-09-10T16:05:46Z</time>
      </trkpt>
      <trkpt lat="45.7006" lon="6.22811">
        <ele>1641.330688</ele>
        <time>2011-09-10T16:05:51Z</time>
      </trkpt>
      <trkpt lat="45.7006" lon="6.22812">
        <ele>1641.440552</ele>
        <time>2011-09-10T16:05:56Z</time>
      </trkpt>
      <trkpt lat="45.7006" lon="6.22815">
        <ele>1641.612915</ele>
        <time>2011-09-10T16:06:01Z</time>
      </trkpt>
      <trkpt lat="45.70062" lon="6.22814">
        <ele>1640.640381</ele>
        <time>2011-09-10T16:06:06Z</time>
      </trkpt>
      <trkpt lat="45.70063" lon="6.22814">
        <ele>1639.827881</ele>
        <time>2011-09-10T16:06:11Z</time>
      </trkpt>
      <trkpt lat="45.70068" lon="6.22813">
        <ele>1637.532471</ele>
        <time>2011-09-10T16:06:16Z</time>
      </trkpt>
      <trkpt lat="45.70073" lon="6.22811">
        <ele>1634.924316</ele>
        <time>2011-09-10T16:06:21Z</time>
      </trkpt>
      <trkpt lat="45.70078" lon="6.2281">
        <ele>1632.618652</ele>
        <time>2011-09-10T16:06:26Z</time>
      </trkpt>
      <trkpt lat="45.70083" lon="6.22811">
        <ele>1630.385864</ele>
        <time>2011-09-10T16:06:31Z</time>
      </trkpt>
      <trkpt lat="45.70089" lon="6.2281">
        <ele>1627.974976</ele>
        <time>2011-09-10T16:06:36Z</time>
      </trkpt>
      <trkpt lat="45.70093" lon="6.2281">
        <ele>1625.845459</ele>
        <time>2011-09-10T16:06:41Z</time>
      </trkpt>
      <trkpt lat="45.70095" lon="6.22813">
        <ele>1624.956177</ele>
        <time>2011-09-10T16:06:46Z</time>
      </trkpt>
      <trkpt lat="45.70102" lon="6.22812">
        <ele>1621.477539</ele>
        <time>2011-09-10T16:06:53Z</time>
      </trkpt>
      <trkpt lat="45.70108" lon="6.22814">
        <ele>1617.306519</ele>
        <time>2011-09-10T16:06:58Z</time>
      </trkpt>
      <trkpt lat="45.70115" lon="6.22815">
        <ele>1612.913086</ele>
        <time>2011-09-10T16:07:03Z</time>
      </trkpt>
      <trkpt lat="45.70121" lon="6.22817">
        <ele>1608.431152</ele>
        <time>2011-09-10T16:07:12Z</time>
      </trkpt>
      <trkpt lat="45.70131" lon="6.22817">
        <ele>1602.057007</ele>
        <time>2011-09-10T16:07:17Z</time>
      </trkpt>
      <trkpt lat="45.70129" lon="6.22818">
        <ele>1603.335571</ele>
        <time>2011-09-10T16:07:22Z</time>
      </trkpt>
      <trkpt lat="45.70131" lon="6.22819">
        <ele>1602.519653</ele>
        <time>2011-09-10T16:07:27Z</time>
      </trkpt>
      <trkpt lat="45.7013" lon="6.22818">
        <ele>1602.766846</ele>
        <time>2011-09-10T16:07:32Z</time>
      </trkpt>
      <trkpt lat="45.70134" lon="6.22816">
        <ele>1600.434448</ele>
        <time>2011-09-10T16:07:37Z</time>
      </trkpt>
      <trkpt lat="45.70136" lon="6.22817">
        <ele>1598.900269</ele>
        <time>2011-09-10T16:07:42Z</time>
      </trkpt>
      <trkpt lat="45.70139" lon="6.22817">
        <ele>1597.458984</ele>
        <time>2011-09-10T16:07:47Z</time>
      </trkpt>
      <trkpt lat="45.70141" lon="6.22817">
        <ele>1596.23291</ele>
        <time>2011-09-10T16:07:52Z</time>
      </trkpt>
      <trkpt lat="45.70139" lon="6.2282">
        <ele>1597.356812</ele>
        <time>2011-09-10T16:07:57Z</time>
      </trkpt>
      <trkpt lat="45.70139" lon="6.22821">
        <ele>1596.851929</ele>
        <time>2011-09-10T16:08:02Z</time>
      </trkpt>
      <trkpt lat="45.70149" lon="6.2282">
        <ele>1590.854248</ele>
        <time>2011-09-10T16:08:09Z</time>
      </trkpt>
      <trkpt lat="45.70158" lon="6.2282">
        <ele>1584.984741</ele>
        <time>2011-09-10T16:08:16Z</time>
      </trkpt>
      <trkpt lat="45.70165" lon="6.2282">
        <ele>1580.88916</ele>
        <time>2011-09-10T16:08:21Z</time>
      </trkpt>
      <trkpt lat="45.70176" lon="6.22822">
        <ele>1573.566162</ele>
        <time>2011-09-10T16:08:26Z</time>
      </trkpt>
      <trkpt lat="45.70181" lon="6.22824">
        <ele>1570.205688</ele>
        <time>2011-09-10T16:08:31Z</time>
      </trkpt>
      <trkpt lat="45.70185" lon="6.22823">
        <ele>1567.693726</ele>
        <time>2011-09-10T16:08:36Z</time>
      </trkpt>
      <trkpt lat="45.70187" lon="6.22824">
        <ele>1566.340454</ele>
        <time>2011-09-10T16:08:41Z</time>
      </trkpt>
      <trkpt lat="45.70192" lon="6.22829">
        <ele>1564.205688</ele>
        <time>2011-09-10T16:08:46Z</time>
      </trkpt>
      <trkpt lat="45.70197" lon="6.2283">
        <ele>1562.222168</ele>
        <time>2011-09-10T16:08:52Z</time>
      </trkpt>
      <trkpt lat="45.70199" lon="6.22829">
        <ele>1561.083374</ele>
        <time>2011-09-10T16:08:57Z</time>
      </trkpt>
      <trkpt lat="45.70208" lon="6.22829">
        <ele>1557.35791</ele>
        <time>2011-09-10T16:09:04Z</time>
      </trkpt>
      <trkpt lat="45.70213" lon="6.22836">
        <ele>1555.38501</ele>
        <time>2011-09-10T16:09:11Z</time>
      </trkpt>
      <trkpt lat="45.70214" lon="6.22835">
        <ele>1554.835938</ele>
        <time>2011-09-10T16:09:16Z</time>
      </trkpt>
      <trkpt lat="45.70213" lon="6.22836">
        <ele>1555.200806</ele>
        <time>2011-09-10T16:09:21Z</time>
      </trkpt>
      <trkpt lat="45.70216" lon="6.22837">
        <ele>1553.741699</ele>
        <time>2011-09-10T16:09:26Z</time>
      </trkpt>
      <trkpt lat="45.70216" lon="6.22834">
        <ele>1553.956909</ele>
        <time>2011-09-10T16:09:33Z</time>
      </trkpt>
      <trkpt lat="45.70223" lon="6.22837">
        <ele>1551.018799</ele>
        <time>2011-09-10T16:09:42Z</time>
      </trkpt>
      <trkpt lat="45.70223" lon="6.22841">
        <ele>1550.978394</ele>
        <time>2011-09-10T16:09:47Z</time>
      </trkpt>
      <trkpt lat="45.70236" lon="6.22842">
        <ele>1545.659912</ele>
        <time>2011-09-10T16:09:52Z</time>
      </trkpt>
      <trkpt lat="45.70234" lon="6.22838">
        <ele>1546.26001</ele>
        <time>2011-09-10T16:09:57Z</time>
      </trkpt>
      <trkpt lat="45.70236" lon="6.22836">
        <ele>1545.42749</ele>
        <time>2011-09-10T16:10:02Z</time>
      </trkpt>
      <trkpt lat="45.70235" lon="6.22831">
        <ele>1545.757568</ele>
        <time>2011-09-10T16:10:43Z</time>
      </trkpt>
      <trkpt lat="45.7023" lon="6.22826">
        <ele>1547.467163</ele>
        <time>2011-09-10T16:10:48Z</time>
      </trkpt>
      <trkpt lat="45.7023" lon="6.22824">
        <ele>1547.6427</ele>
        <time>2011-09-10T16:10:53Z</time>
      </trkpt>
      <trkpt lat="45.70231" lon="6.22821">
        <ele>1547.083618</ele>
        <time>2011-09-10T16:10:58Z</time>
      </trkpt>
      <trkpt lat="45.70229" lon="6.22821">
        <ele>1548.106812</ele>
        <time>2011-09-10T16:11:03Z</time>
      </trkpt>
      <trkpt lat="45.70229" lon="6.22821">
        <ele>1547.880249</ele>
        <time>2011-09-10T16:11:08Z</time>
      </trkpt>
      <trkpt lat="45.70231" lon="6.22818">
        <ele>1547.191772</ele>
        <time>2011-09-10T16:11:13Z</time>
      </trkpt>
      <trkpt lat="45.70231" lon="6.22818">
        <ele>1546.901611</ele>
        <time>2011-09-10T16:11:18Z</time>
      </trkpt>
      <trkpt lat="45.70232" lon="6.2282">
        <ele>1546.565796</ele>
        <time>2011-09-10T16:11:25Z</time>
      </trkpt>
      <trkpt lat="45.70238" lon="6.2282">
        <ele>1544.492554</ele>
        <time>2011-09-10T16:11:32Z</time>
      </trkpt>
      <trkpt lat="45.70242" lon="6.22821">
        <ele>1543.557495</ele>
        <time>2011-09-10T16:11:37Z</time>
      </trkpt>
      <trkpt lat="45.70242" lon="6.22818">
        <ele>1543.272461</ele>
        <time>2011-09-10T16:11:42Z</time>
      </trkpt>
      <trkpt lat="45.70243" lon="6.22819">
        <ele>1543.199951</ele>
        <time>2011-09-10T16:11:47Z</time>
      </trkpt>
      <trkpt lat="45.70247" lon="6.22822">
        <ele>1542.137451</ele>
        <time>2011-09-10T16:12:39Z</time>
      </trkpt>
      <trkpt lat="45.7025" lon="6.22821">
        <ele>1541.227539</ele>
        <time>2011-09-10T16:12:44Z</time>
      </trkpt>
      <trkpt lat="45.70252" lon="6.22819">
        <ele>1540.402466</ele>
        <time>2011-09-10T16:12:49Z</time>
      </trkpt>
      <trkpt lat="45.70255" lon="6.22819">
        <ele>1539.657471</ele>
        <time>2011-09-10T16:12:54Z</time>
      </trkpt>
      <trkpt lat="45.7026" lon="6.22818">
        <ele>1538.184937</ele>
        <time>2011-09-10T16:12:59Z</time>
      </trkpt>
      <trkpt lat="45.70268" lon="6.22821">
        <ele>1535.80249</ele>
        <time>2011-09-10T16:13:04Z</time>
      </trkpt>
      <trkpt lat="45.70273" lon="6.22821">
        <ele>1534.459961</ele>
        <time>2011-09-10T16:13:09Z</time>
      </trkpt>
      <trkpt lat="45.70274" lon="6.2282">
        <ele>1533.987549</ele>
        <time>2011-09-10T16:13:14Z</time>
      </trkpt>
      <trkpt lat="45.70274" lon="6.22819">
        <ele>1533.974976</ele>
        <time>2011-09-10T16:13:19Z</time>
      </trkpt>
      <trkpt lat="45.70277" lon="6.22818">
        <ele>1533.067505</ele>
        <time>2011-09-10T16:13:24Z</time>
      </trkpt>
      <trkpt lat="45.70282" lon="6.22817">
        <ele>1532.377686</ele>
        <time>2011-09-10T16:13:29Z</time>
      </trkpt>
      <trkpt lat="45.70285" lon="6.2282">
        <ele>1532.24646</ele>
        <time>2011-09-10T16:13:34Z</time>
      </trkpt>
      <trkpt lat="45.70292" lon="6.2282">
        <ele>1531.817749</ele>
        <time>2011-09-10T16:13:39Z</time>
      </trkpt>
      <trkpt lat="45.70297" lon="6.22824">
        <ele>1531.722168</ele>
        <time>2011-09-10T16:13:44Z</time>
      </trkpt>
      <trkpt lat="45.703" lon="6.22827">
        <ele>1531.667603</ele>
        <time>2011-09-10T16:13:49Z</time>
      </trkpt>
      <trkpt lat="45.70303" lon="6.22826">
        <ele>1531.476318</ele>
        <time>2011-09-10T16:13:54Z</time>
      </trkpt>
      <trkpt lat="45.70307" lon="6.22828">
        <ele>1531.384399</ele>
        <time>2011-09-10T16:13:59Z</time>
      </trkpt>
      <trkpt lat="45.70311" lon="6.22828">
        <ele>1531.174683</ele>
        <time>2011-09-10T16:14:04Z</time>
      </trkpt>
      <trkpt lat="45.70318" lon="6.22831">
        <ele>1530.980469</ele>
        <time>2011-09-10T16:14:09Z</time>
      </trkpt>
      <trkpt lat="45.70329" lon="6.22831">
        <ele>1530.781616</ele>
        <time>2011-09-10T16:14:14Z</time>
      </trkpt>
      <trkpt lat="45.70335" lon="6.22828">
        <ele>1530.528931</ele>
        <time>2011-09-10T16:14:19Z</time>
      </trkpt>
      <trkpt lat="45.70343" lon="6.22829">
        <ele>1530.796143</ele>
        <time>2011-09-10T16:14:24Z</time>
      </trkpt>
      <trkpt lat="45.70344" lon="6.2283">
        <ele>1530.894531</ele>
        <time>2011-09-10T16:14:30Z</time>
      </trkpt>
      <trkpt lat="45.70355" lon="6.22834">
        <ele>1531.924438</ele>
        <time>2011-09-10T16:14:35Z</time>
      </trkpt>
      <trkpt lat="45.70358" lon="6.22835">
        <ele>1532.065186</ele>
        <time>2011-09-10T16:14:40Z</time>
      </trkpt>
      <trkpt lat="45.7036" lon="6.22836">
        <ele>1532.439087</ele>
        <time>2011-09-10T16:14:45Z</time>
      </trkpt>
      <trkpt lat="45.70364" lon="6.22835">
        <ele>1532.262573</ele>
        <time>2011-09-10T16:14:50Z</time>
      </trkpt>
      <trkpt lat="45.70367" lon="6.22835">
        <ele>1532.245361</ele>
        <time>2011-09-10T16:14:55Z</time>
      </trkpt>
      <trkpt lat="45.70369" lon="6.22831">
        <ele>1531.357544</ele>
        <time>2011-09-10T16:15:00Z</time>
      </trkpt>
      <trkpt lat="45.70371" lon="6.2283">
        <ele>1531.95459</ele>
        <time>2011-09-10T16:15:05Z</time>
      </trkpt>
      <trkpt lat="45.70374" lon="6.22828">
        <ele>1532.573608</ele>
        <time>2011-09-10T16:15:10Z</time>
      </trkpt>
      <trkpt lat="45.70376" lon="6.22826">
        <ele>1532.957397</ele>
        <time>2011-09-10T16:15:15Z</time>
      </trkpt>
      <trkpt lat="45.70379" lon="6.22829">
        <ele>1535.077881</ele>
        <time>2011-09-10T16:15:20Z</time>
      </trkpt>
      <trkpt lat="45.7038" lon="6.22832">
        <ele>1536.030396</ele>
        <time>2011-09-10T16:15:25Z</time>
      </trkpt>
      <trkpt lat="45.7038" lon="6.22829">
        <ele>1535.360474</ele>
        <time>2011-09-10T16:15:30Z</time>
      </trkpt>
      <trkpt lat="45.7038" lon="6.22826">
        <ele>1534.725586</ele>
        <time>2011-09-10T16:15:35Z</time>
      </trkpt>
      <trkpt lat="45.70382" lon="6.22816">
        <ele>1533.468628</ele>
        <time>2011-09-10T16:15:40Z</time>
      </trkpt>
      <trkpt lat="45.70385" lon="6.22816">
        <ele>1534.97229</ele>
        <time>2011-09-10T16:15:45Z</time>
      </trkpt>
      <trkpt lat="45.70386" lon="6.22818">
        <ele>1535.726196</ele>
        <time>2011-09-10T16:15:50Z</time>
      </trkpt>
      <trkpt lat="45.7039" lon="6.22817">
        <ele>1537.488647</ele>
        <time>2011-09-10T16:15:57Z</time>
      </trkpt>
      <trkpt lat="45.70389" lon="6.22814">
        <ele>1536.322754</ele>
        <time>2011-09-10T16:16:02Z</time>
      </trkpt>
      <trkpt lat="45.70384" lon="6.22808">
        <ele>1532.734375</ele>
        <time>2011-09-10T16:16:07Z</time>
      </trkpt>
      <trkpt lat="45.70388" lon="6.228">
        <ele>1532.409546</ele>
        <time>2011-09-10T16:16:12Z</time>
      </trkpt>
      <trkpt lat="45.7039" lon="6.22793">
        <ele>1531.315063</ele>
        <time>2011-09-10T16:16:17Z</time>
      </trkpt>
      <trkpt lat="45.70391" lon="6.22789">
        <ele>1530.392212</ele>
        <time>2011-09-10T16:16:22Z</time>
      </trkpt>
      <trkpt lat="45.70388" lon="6.22783">
        <ele>1527.966919</ele>
        <time>2011-09-10T16:16:27Z</time>
      </trkpt>
      <trkpt lat="45.70382" lon="6.22777">
        <ele>1525.88501</ele>
        <time>2011-09-10T16:16:32Z</time>
      </trkpt>
      <trkpt lat="45.70373" lon="6.22772">
        <ele>1524.150635</ele>
        <time>2011-09-10T16:16:37Z</time>
      </trkpt>
      <trkpt lat="45.70367" lon="6.22768">
        <ele>1525.327393</ele>
        <time>2011-09-10T16:16:42Z</time>
      </trkpt>
      <trkpt lat="45.7037" lon="6.22764">
        <ele>1524.044678</ele>
        <time>2011-09-10T16:16:47Z</time>
      </trkpt>
      <trkpt lat="45.7037" lon="6.22761">
        <ele>1524.233765</ele>
        <time>2011-09-10T16:16:52Z</time>
      </trkpt>
      <trkpt lat="45.70368" lon="6.22757">
        <ele>1524.968506</ele>
        <time>2011-09-10T16:16:57Z</time>
      </trkpt>
      <trkpt lat="45.70367" lon="6.22752">
        <ele>1525.836914</ele>
        <time>2011-09-10T16:17:02Z</time>
      </trkpt>
      <trkpt lat="45.70365" lon="6.22748">
        <ele>1527.007446</ele>
        <time>2011-09-10T16:17:07Z</time>
      </trkpt>
      <trkpt lat="45.70362" lon="6.22743">
        <ele>1528.842285</ele>
        <time>2011-09-10T16:17:12Z</time>
      </trkpt>
      <trkpt lat="45.7036" lon="6.22738">
        <ele>1529.022949</ele>
        <time>2011-09-10T16:17:17Z</time>
      </trkpt>
      <trkpt lat="45.70356" lon="6.22735">
        <ele>1530.140015</ele>
        <time>2011-09-10T16:17:22Z</time>
      </trkpt>
      <trkpt lat="45.70354" lon="6.2273">
        <ele>1528.376099</ele>
        <time>2011-09-10T16:17:27Z</time>
      </trkpt>
      <trkpt lat="45.70349" lon="6.22727">
        <ele>1529.525024</ele>
        <time>2011-09-10T16:17:32Z</time>
      </trkpt>
      <trkpt lat="45.70347" lon="6.22725">
        <ele>1529.755127</ele>
        <time>2011-09-10T16:17:37Z</time>
      </trkpt>
      <trkpt lat="45.70346" lon="6.22721">
        <ele>1528.235107</ele>
        <time>2011-09-10T16:17:42Z</time>
      </trkpt>
      <trkpt lat="45.70345" lon="6.22718">
        <ele>1526.607788</ele>
        <time>2011-09-10T16:17:47Z</time>
      </trkpt>
      <trkpt lat="45.70341" lon="6.22715">
        <ele>1527.122559</ele>
        <time>2011-09-10T16:17:52Z</time>
      </trkpt>
      <trkpt lat="45.70336" lon="6.22713">
        <ele>1528.763428</ele>
        <time>2011-09-10T16:17:57Z</time>
      </trkpt>
      <trkpt lat="45.70333" lon="6.22712">
        <ele>1530.009277</ele>
        <time>2011-09-10T16:18:02Z</time>
      </trkpt>
      <trkpt lat="45.70332" lon="6.22711">
        <ele>1529.672363</ele>
        <time>2011-09-10T16:18:07Z</time>
      </trkpt>
      <trkpt lat="45.70331" lon="6.2271">
        <ele>1530.386719</ele>
        <time>2011-09-10T16:18:12Z</time>
      </trkpt>
      <trkpt lat="45.70328" lon="6.22708">
        <ele>1530.594971</ele>
        <time>2011-09-10T16:18:17Z</time>
      </trkpt>
      <trkpt lat="45.7033" lon="6.22708">
        <ele>1529.333496</ele>
        <time>2011-09-10T16:18:22Z</time>
      </trkpt>
      <trkpt lat="45.70331" lon="6.22705">
        <ele>1526.307495</ele>
        <time>2011-09-10T16:18:27Z</time>
      </trkpt>
      <trkpt lat="45.70336" lon="6.22701">
        <ele>1521.11731</ele>
        <time>2011-09-10T16:18:32Z</time>
      </trkpt>
      <trkpt lat="45.70337" lon="6.22701">
        <ele>1520.247314</ele>
        <time>2011-09-10T16:18:37Z</time>
      </trkpt>
      <trkpt lat="45.70333" lon="6.22698">
        <ele>1521.271851</ele>
        <time>2011-09-10T16:18:42Z</time>
      </trkpt>
      <trkpt lat="45.70331" lon="6.22696">
        <ele>1520.511475</ele>
        <time>2011-09-10T16:19:07Z</time>
      </trkpt>
      <trkpt lat="45.70326" lon="6.22689">
        <ele>1520.204346</ele>
        <time>2011-09-10T16:19:12Z</time>
      </trkpt>
      <trkpt lat="45.70324" lon="6.22682">
        <ele>1517.393799</ele>
        <time>2011-09-10T16:19:17Z</time>
      </trkpt>
      <trkpt lat="45.70322" lon="6.22676">
        <ele>1516.311646</ele>
        <time>2011-09-10T16:19:22Z</time>
      </trkpt>
      <trkpt lat="45.70319" lon="6.22672">
        <ele>1517.732544</ele>
        <time>2011-09-10T16:19:27Z</time>
      </trkpt>
      <trkpt lat="45.70318" lon="6.22666">
        <ele>1517.35437</ele>
        <time>2011-09-10T16:19:32Z</time>
      </trkpt>
      <trkpt lat="45.70319" lon="6.22658">
        <ele>1513.805298</ele>
        <time>2011-09-10T16:19:37Z</time>
      </trkpt>
      <trkpt lat="45.70314" lon="6.2265">
        <ele>1516.473389</ele>
        <time>2011-09-10T16:19:42Z</time>
      </trkpt>
      <trkpt lat="45.70316" lon="6.22648">
        <ele>1514.564331</ele>
        <time>2011-09-10T16:19:47Z</time>
      </trkpt>
      <trkpt lat="45.70314" lon="6.22641">
        <ele>1513.648926</ele>
        <time>2011-09-10T16:19:52Z</time>
      </trkpt>
      <trkpt lat="45.7031" lon="6.22633">
        <ele>1515.196777</ele>
        <time>2011-09-10T16:19:57Z</time>
      </trkpt>
      <trkpt lat="45.70309" lon="6.22627">
        <ele>1514.382813</ele>
        <time>2011-09-10T16:20:02Z</time>
      </trkpt>
      <trkpt lat="45.70302" lon="6.22593">
        <ele>1510.538818</ele>
        <time>2011-09-10T16:20:42Z</time>
      </trkpt>
      <trkpt lat="45.703" lon="6.22596">
        <ele>1512.476196</ele>
        <time>2011-09-10T16:20:47Z</time>
      </trkpt>
      <trkpt lat="45.70291" lon="6.22598">
        <ele>1520.531982</ele>
        <time>2011-09-10T16:21:07Z</time>
      </trkpt>
      <trkpt lat="45.70286" lon="6.22598">
        <ele>1525.558228</ele>
        <time>2011-09-10T16:21:12Z</time>
      </trkpt>
      <trkpt lat="45.70282" lon="6.22591">
        <ele>1529.794556</ele>
        <time>2011-09-10T16:21:18Z</time>
      </trkpt>
      <trkpt lat="45.70289" lon="6.22584">
        <ele>1518.862915</ele>
        <time>2011-09-10T16:21:23Z</time>
      </trkpt>
      <trkpt lat="45.70292" lon="6.22577">
        <ele>1514.954224</ele>
        <time>2011-09-10T16:21:28Z</time>
      </trkpt>
      <trkpt lat="45.70288" lon="6.22569">
        <ele>1515.492798</ele>
        <time>2011-09-10T16:21:33Z</time>
      </trkpt>
      <trkpt lat="45.70287" lon="6.2256">
        <ele>1514.130615</ele>
        <time>2011-09-10T16:21:38Z</time>
      </trkpt>
      <trkpt lat="45.70284" lon="6.22552">
        <ele>1516.223877</ele>
        <time>2011-09-10T16:21:43Z</time>
      </trkpt>
      <trkpt lat="45.70279" lon="6.22544">
        <ele>1520.795898</ele>
        <time>2011-09-10T16:21:48Z</time>
      </trkpt>
      <trkpt lat="45.70273" lon="6.22534">
        <ele>1526.415894</ele>
        <time>2011-09-10T16:21:53Z</time>
      </trkpt>
      <trkpt lat="45.70271" lon="6.22523">
        <ele>1524.455078</ele>
        <time>2011-09-10T16:21:58Z</time>
      </trkpt>
      <trkpt lat="45.7027" lon="6.22515">
        <ele>1523.081787</ele>
        <time>2011-09-10T16:22:03Z</time>
      </trkpt>
      <trkpt lat="45.70273" lon="6.22507">
        <ele>1516.943848</ele>
        <time>2011-09-10T16:22:08Z</time>
      </trkpt>
      <trkpt lat="45.70274" lon="6.22499">
        <ele>1513.070557</ele>
        <time>2011-09-10T16:22:13Z</time>
      </trkpt>
      <trkpt lat="45.70271" lon="6.2249">
        <ele>1513.422729</ele>
        <time>2011-09-10T16:22:18Z</time>
      </trkpt>
      <trkpt lat="45.7027" lon="6.22486">
        <ele>1512.491699</ele>
        <time>2011-09-10T16:22:23Z</time>
      </trkpt>
      <trkpt lat="45.7027" lon="6.22477">
        <ele>1509.644531</ele>
        <time>2011-09-10T16:22:28Z</time>
      </trkpt>
      <trkpt lat="45.7027" lon="6.2247">
        <ele>1508.636475</ele>
        <time>2011-09-10T16:22:33Z</time>
      </trkpt>
      <trkpt lat="45.70267" lon="6.22462">
        <ele>1510.797852</ele>
        <time>2011-09-10T16:22:38Z</time>
      </trkpt>
      <trkpt lat="45.70268" lon="6.22454">
        <ele>1508.673096</ele>
        <time>2011-09-10T16:22:43Z</time>
      </trkpt>
      <trkpt lat="45.70266" lon="6.22454">
        <ele>1510.285645</ele>
        <time>2011-09-10T16:22:48Z</time>
      </trkpt>
      <trkpt lat="45.7027" lon="6.22456">
        <ele>1507.05188</ele>
        <time>2011-09-10T16:22:53Z</time>
      </trkpt>
      <trkpt lat="45.70273" lon="6.22453">
        <ele>1504.192383</ele>
        <time>2011-09-10T16:22:58Z</time>
      </trkpt>
      <trkpt lat="45.70273" lon="6.22448">
        <ele>1504.199707</ele>
        <time>2011-09-10T16:23:03Z</time>
      </trkpt>
      <trkpt lat="45.70274" lon="6.22442">
        <ele>1502.334473</ele>
        <time>2011-09-10T16:23:08Z</time>
      </trkpt>
      <trkpt lat="45.70271" lon="6.22438">
        <ele>1504.405396</ele>
        <time>2011-09-10T16:23:13Z</time>
      </trkpt>
      <trkpt lat="45.70271" lon="6.22432">
        <ele>1504.279785</ele>
        <time>2011-09-10T16:23:18Z</time>
      </trkpt>
      <trkpt lat="45.70269" lon="6.22429">
        <ele>1505.17334</ele>
        <time>2011-09-10T16:23:23Z</time>
      </trkpt>
      <trkpt lat="45.70265" lon="6.22424">
        <ele>1507.71814</ele>
        <time>2011-09-10T16:23:28Z</time>
      </trkpt>
      <trkpt lat="45.70262" lon="6.22416">
        <ele>1509.244385</ele>
        <time>2011-09-10T16:23:33Z</time>
      </trkpt>
      <trkpt lat="45.70262" lon="6.22408">
        <ele>1508.039429</ele>
        <time>2011-09-10T16:23:38Z</time>
      </trkpt>
      <trkpt lat="45.70261" lon="6.22402">
        <ele>1507.587524</ele>
        <time>2011-09-10T16:23:43Z</time>
      </trkpt>
      <trkpt lat="45.70258" lon="6.22393">
        <ele>1508.671387</ele>
        <time>2011-09-10T16:23:48Z</time>
      </trkpt>
      <trkpt lat="45.70258" lon="6.22386">
        <ele>1507.145508</ele>
        <time>2011-09-10T16:23:53Z</time>
      </trkpt>
      <trkpt lat="45.70259" lon="6.22379">
        <ele>1505.604614</ele>
        <time>2011-09-10T16:23:58Z</time>
      </trkpt>
      <trkpt lat="45.70256" lon="6.2237">
        <ele>1506.32019</ele>
        <time>2011-09-10T16:24:03Z</time>
      </trkpt>
      <trkpt lat="45.70255" lon="6.22363">
        <ele>1505.515259</ele>
        <time>2011-09-10T16:24:08Z</time>
      </trkpt>
      <trkpt lat="45.70254" lon="6.22357">
        <ele>1505.273926</ele>
        <time>2011-09-10T16:24:13Z</time>
      </trkpt>
      <trkpt lat="45.70255" lon="6.22353">
        <ele>1503.930542</ele>
        <time>2011-09-10T16:24:18Z</time>
      </trkpt>
      <trkpt lat="45.70256" lon="6.22347">
        <ele>1501.998657</ele>
        <time>2011-09-10T16:24:23Z</time>
      </trkpt>
      <trkpt lat="45.70253" lon="6.22342">
        <ele>1502.739136</ele>
        <time>2011-09-10T16:24:28Z</time>
      </trkpt>
      <trkpt lat="45.70252" lon="6.22337">
        <ele>1501.619507</ele>
        <time>2011-09-10T16:24:33Z</time>
      </trkpt>
      <trkpt lat="45.7025" lon="6.22332">
        <ele>1501.772583</ele>
        <time>2011-09-10T16:24:38Z</time>
      </trkpt>
      <trkpt lat="45.70245" lon="6.22326">
        <ele>1502.087769</ele>
        <time>2011-09-10T16:24:43Z</time>
      </trkpt>
      <trkpt lat="45.70241" lon="6.2232">
        <ele>1502.316284</ele>
        <time>2011-09-10T16:24:48Z</time>
      </trkpt>
      <trkpt lat="45.70238" lon="6.22318">
        <ele>1502.991333</ele>
        <time>2011-09-10T16:24:53Z</time>
      </trkpt>
      <trkpt lat="45.70233" lon="6.22314">
        <ele>1503.968994</ele>
        <time>2011-09-10T16:24:58Z</time>
      </trkpt>
      <trkpt lat="45.70229" lon="6.2231">
        <ele>1504.239014</ele>
        <time>2011-09-10T16:25:03Z</time>
      </trkpt>
      <trkpt lat="45.70227" lon="6.22304">
        <ele>1503.598511</ele>
        <time>2011-09-10T16:25:08Z</time>
      </trkpt>
      <trkpt lat="45.70224" lon="6.22298">
        <ele>1502.64917</ele>
        <time>2011-09-10T16:25:13Z</time>
      </trkpt>
      <trkpt lat="45.7022" lon="6.22293">
        <ele>1502.628662</ele>
        <time>2011-09-10T16:25:18Z</time>
      </trkpt>
      <trkpt lat="45.70218" lon="6.2229">
        <ele>1502.52478</ele>
        <time>2011-09-10T16:25:23Z</time>
      </trkpt>
      <trkpt lat="45.70215" lon="6.22287">
        <ele>1502.547485</ele>
        <time>2011-09-10T16:25:28Z</time>
      </trkpt>
      <trkpt lat="45.7021" lon="6.2228">
        <ele>1502.080566</ele>
        <time>2011-09-10T16:25:33Z</time>
      </trkpt>
      <trkpt lat="45.70207" lon="6.22272">
        <ele>1501.022949</ele>
        <time>2011-09-10T16:25:38Z</time>
      </trkpt>
      <trkpt lat="45.70202" lon="6.22263">
        <ele>1500.12561</ele>
        <time>2011-09-10T16:25:43Z</time>
      </trkpt>
      <trkpt lat="45.70197" lon="6.22254">
        <ele>1499.332397</ele>
        <time>2011-09-10T16:25:48Z</time>
      </trkpt>
      <trkpt lat="45.70194" lon="6.22249">
        <ele>1499.552856</ele>
        <time>2011-09-10T16:25:53Z</time>
      </trkpt>
      <trkpt lat="45.70192" lon="6.22242">
        <ele>1498.615356</ele>
        <time>2011-09-10T16:25:58Z</time>
      </trkpt>
      <trkpt lat="45.70189" lon="6.22236">
        <ele>1498.207275</ele>
        <time>2011-09-10T16:26:03Z</time>
      </trkpt>
      <trkpt lat="45.70187" lon="6.2223">
        <ele>1496.943726</ele>
        <time>2011-09-10T16:26:08Z</time>
      </trkpt>
      <trkpt lat="45.70183" lon="6.22221">
        <ele>1496.227051</ele>
        <time>2011-09-10T16:26:13Z</time>
      </trkpt>
      <trkpt lat="45.70181" lon="6.22213">
        <ele>1495.300659</ele>
        <time>2011-09-10T16:26:18Z</time>
      </trkpt>
      <trkpt lat="45.70176" lon="6.22208">
        <ele>1496.192017</ele>
        <time>2011-09-10T16:26:23Z</time>
      </trkpt>
      <trkpt lat="45.70171" lon="6.22202">
        <ele>1496.437744</ele>
        <time>2011-09-10T16:26:28Z</time>
      </trkpt>
      <trkpt lat="45.70168" lon="6.22196">
        <ele>1496.726196</ele>
        <time>2011-09-10T16:26:33Z</time>
      </trkpt>
      <trkpt lat="45.70164" lon="6.22191">
        <ele>1496.859741</ele>
        <time>2011-09-10T16:26:38Z</time>
      </trkpt>
      <trkpt lat="45.7016" lon="6.22185">
        <ele>1496.411255</ele>
        <time>2011-09-10T16:26:43Z</time>
      </trkpt>
      <trkpt lat="45.70158" lon="6.2218">
        <ele>1495.55957</ele>
        <time>2011-09-10T16:26:48Z</time>
      </trkpt>
      <trkpt lat="45.70154" lon="6.22174">
        <ele>1495.270874</ele>
        <time>2011-09-10T16:26:53Z</time>
      </trkpt>
      <trkpt lat="45.70148" lon="6.22168">
        <ele>1495.352661</ele>
        <time>2011-09-10T16:26:58Z</time>
      </trkpt>
      <trkpt lat="45.70144" lon="6.22163">
        <ele>1495.257568</ele>
        <time>2011-09-10T16:27:05Z</time>
      </trkpt>
      <trkpt lat="45.7014" lon="6.22156">
        <ele>1494.663818</ele>
        <time>2011-09-10T16:27:10Z</time>
      </trkpt>
      <trkpt lat="45.70136" lon="6.22153">
        <ele>1494.7948</ele>
        <time>2011-09-10T16:27:15Z</time>
      </trkpt>
      <trkpt lat="45.70131" lon="6.22147">
        <ele>1494.398926</ele>
        <time>2011-09-10T16:27:20Z</time>
      </trkpt>
      <trkpt lat="45.70127" lon="6.22142">
        <ele>1494.014893</ele>
        <time>2011-09-10T16:27:25Z</time>
      </trkpt>
      <trkpt lat="45.70123" lon="6.22138">
        <ele>1493.928711</ele>
        <time>2011-09-10T16:27:30Z</time>
      </trkpt>
      <trkpt lat="45.70117" lon="6.22131">
        <ele>1492.394897</ele>
        <time>2011-09-10T16:27:35Z</time>
      </trkpt>
      <trkpt lat="45.70113" lon="6.22126">
        <ele>1491.124023</ele>
        <time>2011-09-10T16:27:40Z</time>
      </trkpt>
      <trkpt lat="45.70109" lon="6.22122">
        <ele>1490.423096</ele>
        <time>2011-09-10T16:27:45Z</time>
      </trkpt>
      <trkpt lat="45.70105" lon="6.22119">
        <ele>1489.872925</ele>
        <time>2011-09-10T16:27:50Z</time>
      </trkpt>
      <trkpt lat="45.701" lon="6.22115">
        <ele>1489.583862</ele>
        <time>2011-09-10T16:27:55Z</time>
      </trkpt>
      <trkpt lat="45.70096" lon="6.22112">
        <ele>1489.138428</ele>
        <time>2011-09-10T16:28:00Z</time>
      </trkpt>
      <trkpt lat="45.70092" lon="6.22109">
        <ele>1488.835938</ele>
        <time>2011-09-10T16:28:05Z</time>
      </trkpt>
      <trkpt lat="45.70089" lon="6.22106">
        <ele>1488.556396</ele>
        <time>2011-09-10T16:28:10Z</time>
      </trkpt>
      <trkpt lat="45.70084" lon="6.22104">
        <ele>1488.7323</ele>
        <time>2011-09-10T16:28:15Z</time>
      </trkpt>
      <trkpt lat="45.70081" lon="6.22101">
        <ele>1488.630127</ele>
        <time>2011-09-10T16:28:20Z</time>
      </trkpt>
      <trkpt lat="45.70078" lon="6.22096">
        <ele>1487.142456</ele>
        <time>2011-09-10T16:28:25Z</time>
      </trkpt>
      <trkpt lat="45.70074" lon="6.22093">
        <ele>1486.82251</ele>
        <time>2011-09-10T16:28:30Z</time>
      </trkpt>
      <trkpt lat="45.7007" lon="6.2209">
        <ele>1486.474976</ele>
        <time>2011-09-10T16:28:35Z</time>
      </trkpt>
      <trkpt lat="45.70067" lon="6.22088">
        <ele>1486.338379</ele>
        <time>2011-09-10T16:28:40Z</time>
      </trkpt>
      <trkpt lat="45.70063" lon="6.22086">
        <ele>1486.51709</ele>
        <time>2011-09-10T16:28:45Z</time>
      </trkpt>
      <trkpt lat="45.70059" lon="6.22084">
        <ele>1486.554688</ele>
        <time>2011-09-10T16:28:50Z</time>
      </trkpt>
      <trkpt lat="45.70055" lon="6.22081">
        <ele>1486.327148</ele>
        <time>2011-09-10T16:28:55Z</time>
      </trkpt>
      <trkpt lat="45.70052" lon="6.22078">
        <ele>1485.672729</ele>
        <time>2011-09-10T16:29:00Z</time>
      </trkpt>
      <trkpt lat="45.70048" lon="6.22076">
        <ele>1485.79187</ele>
        <time>2011-09-10T16:29:05Z</time>
      </trkpt>
      <trkpt lat="45.70043" lon="6.22072">
        <ele>1484.885132</ele>
        <time>2011-09-10T16:29:10Z</time>
      </trkpt>
      <trkpt lat="45.70038" lon="6.22065">
        <ele>1482.843506</ele>
        <time>2011-09-10T16:29:15Z</time>
      </trkpt>
      <trkpt lat="45.70031" lon="6.22057">
        <ele>1480.517334</ele>
        <time>2011-09-10T16:29:20Z</time>
      </trkpt>
      <trkpt lat="45.70026" lon="6.22051">
        <ele>1478.376221</ele>
        <time>2011-09-10T16:29:25Z</time>
      </trkpt>
      <trkpt lat="45.70022" lon="6.22047">
        <ele>1477.543701</ele>
        <time>2011-09-10T16:29:30Z</time>
      </trkpt>
      <trkpt lat="45.70018" lon="6.22043">
        <ele>1476.390991</ele>
        <time>2011-09-10T16:29:35Z</time>
      </trkpt>
      <trkpt lat="45.70017" lon="6.22041">
        <ele>1475.446045</ele>
        <time>2011-09-10T16:29:40Z</time>
      </trkpt>
      <trkpt lat="45.70012" lon="6.22037">
        <ele>1474.832397</ele>
        <time>2011-09-10T16:29:45Z</time>
      </trkpt>
      <trkpt lat="45.70006" lon="6.22033">
        <ele>1473.688721</ele>
        <time>2011-09-10T16:29:50Z</time>
      </trkpt>
      <trkpt lat="45.70002" lon="6.22028">
        <ele>1472.407349</ele>
        <time>2011-09-10T16:29:55Z</time>
      </trkpt>
      <trkpt lat="45.69997" lon="6.22023">
        <ele>1470.96936</ele>
        <time>2011-09-10T16:30:00Z</time>
      </trkpt>
      <trkpt lat="45.69994" lon="6.22022">
        <ele>1471.186279</ele>
        <time>2011-09-10T16:30:05Z</time>
      </trkpt>
      <trkpt lat="45.69991" lon="6.22019">
        <ele>1470.564087</ele>
        <time>2011-09-10T16:30:10Z</time>
      </trkpt>
      <trkpt lat="45.69985" lon="6.22015">
        <ele>1469.408447</ele>
        <time>2011-09-10T16:30:15Z</time>
      </trkpt>
      <trkpt lat="45.69981" lon="6.22011">
        <ele>1468.230957</ele>
        <time>2011-09-10T16:30:20Z</time>
      </trkpt>
      <trkpt lat="45.69976" lon="6.22005">
        <ele>1466.767456</ele>
        <time>2011-09-10T16:30:25Z</time>
      </trkpt>
      <trkpt lat="45.69971" lon="6.22004">
        <ele>1466.667358</ele>
        <time>2011-09-10T16:30:30Z</time>
      </trkpt>
      <trkpt lat="45.69967" lon="6.22003">
        <ele>1467.006958</ele>
        <time>2011-09-10T16:30:35Z</time>
      </trkpt>
      <trkpt lat="45.69962" lon="6.22001">
        <ele>1466.915039</ele>
        <time>2011-09-10T16:30:40Z</time>
      </trkpt>
      <trkpt lat="45.69957" lon="6.21997">
        <ele>1465.860229</ele>
        <time>2011-09-10T16:30:45Z</time>
      </trkpt>
      <trkpt lat="45.69954" lon="6.21996">
        <ele>1466.091797</ele>
        <time>2011-09-10T16:30:50Z</time>
      </trkpt>
      <trkpt lat="45.69952" lon="6.21998">
        <ele>1467.398438</ele>
        <time>2011-09-10T16:30:55Z</time>
      </trkpt>
      <trkpt lat="45.69946" lon="6.21989">
        <ele>1464.158447</ele>
        <time>2011-09-10T16:31:00Z</time>
      </trkpt>
      <trkpt lat="45.69941" lon="6.21986">
        <ele>1463.479248</ele>
        <time>2011-09-10T16:31:05Z</time>
      </trkpt>
      <trkpt lat="45.69934" lon="6.21985">
        <ele>1464.099243</ele>
        <time>2011-09-10T16:31:10Z</time>
      </trkpt>
      <trkpt lat="45.69926" lon="6.21979">
        <ele>1462.282471</ele>
        <time>2011-09-10T16:31:15Z</time>
      </trkpt>
      <trkpt lat="45.69916" lon="6.2197">
        <ele>1459.588867</ele>
        <time>2011-09-10T16:31:20Z</time>
      </trkpt>
      <trkpt lat="45.69911" lon="6.21968">
        <ele>1459.636353</ele>
        <time>2011-09-10T16:31:25Z</time>
      </trkpt>
      <trkpt lat="45.69909" lon="6.2197">
        <ele>1460.811523</ele>
        <time>2011-09-10T16:31:30Z</time>
      </trkpt>
      <trkpt lat="45.69906" lon="6.21973">
        <ele>1462.57605</ele>
        <time>2011-09-10T16:31:35Z</time>
      </trkpt>
      <trkpt lat="45.69899" lon="6.21972">
        <ele>1462.355469</ele>
        <time>2011-09-10T16:31:40Z</time>
      </trkpt>
      <trkpt lat="45.69893" lon="6.21969">
        <ele>1461.344116</ele>
        <time>2011-09-10T16:31:45Z</time>
      </trkpt>
      <trkpt lat="45.69887" lon="6.21968">
        <ele>1461</ele>
        <time>2011-09-10T16:31:50Z</time>
      </trkpt>
      <trkpt lat="45.6988" lon="6.21964">
        <ele>1459.651001</ele>
        <time>2011-09-10T16:31:55Z</time>
      </trkpt>
      <trkpt lat="45.69875" lon="6.2196">
        <ele>1458.092529</ele>
        <time>2011-09-10T16:32:00Z</time>
      </trkpt>
      <trkpt lat="45.69872" lon="6.21958">
        <ele>1457.444946</ele>
        <time>2011-09-10T16:32:05Z</time>
      </trkpt>
      <trkpt lat="45.69868" lon="6.21957">
        <ele>1457.101563</ele>
        <time>2011-09-10T16:32:10Z</time>
      </trkpt>
      <trkpt lat="45.69863" lon="6.21955">
        <ele>1456.577881</ele>
        <time>2011-09-10T16:32:15Z</time>
      </trkpt>
      <trkpt lat="45.69857" lon="6.21951">
        <ele>1454.750732</ele>
        <time>2011-09-10T16:32:20Z</time>
      </trkpt>
      <trkpt lat="45.69854" lon="6.21951">
        <ele>1455.009399</ele>
        <time>2011-09-10T16:32:25Z</time>
      </trkpt>
      <trkpt lat="45.69849" lon="6.21946">
        <ele>1452.661011</ele>
        <time>2011-09-10T16:32:30Z</time>
      </trkpt>
      <trkpt lat="45.69845" lon="6.21943">
        <ele>1451.182617</ele>
        <time>2011-09-10T16:32:37Z</time>
      </trkpt>
      <trkpt lat="45.69835" lon="6.21935">
        <ele>1447.489746</ele>
        <time>2011-09-10T16:32:42Z</time>
      </trkpt>
      <trkpt lat="45.69825" lon="6.21929">
        <ele>1444.697632</ele>
        <time>2011-09-10T16:32:47Z</time>
      </trkpt>
      <trkpt lat="45.69819" lon="6.21925">
        <ele>1442.372681</ele>
        <time>2011-09-10T16:32:52Z</time>
      </trkpt>
      <trkpt lat="45.69815" lon="6.21915">
        <ele>1437.352417</ele>
        <time>2011-09-10T16:32:57Z</time>
      </trkpt>
      <trkpt lat="45.69809" lon="6.2191">
        <ele>1433.950317</ele>
        <time>2011-09-10T16:33:02Z</time>
      </trkpt>
      <trkpt lat="45.69807" lon="6.21907">
        <ele>1431.695435</ele>
        <time>2011-09-10T16:33:07Z</time>
      </trkpt>
      <trkpt lat="45.69806" lon="6.21908">
        <ele>1432.165649</ele>
        <time>2011-09-10T16:33:12Z</time>
      </trkpt>
      <trkpt lat="45.69806" lon="6.21916">
        <ele>1436.135376</ele>
        <time>2011-09-10T16:33:17Z</time>
      </trkpt>
      <trkpt lat="45.69807" lon="6.21921">
        <ele>1438.718872</ele>
        <time>2011-09-10T16:33:22Z</time>
      </trkpt>
      <trkpt lat="45.69809" lon="6.21929">
        <ele>1442.872559</ele>
        <time>2011-09-10T16:33:27Z</time>
      </trkpt>
      <trkpt lat="45.69806" lon="6.21929">
        <ele>1442.60376</ele>
        <time>2011-09-10T16:33:32Z</time>
      </trkpt>
      <trkpt lat="45.69805" lon="6.21929">
        <ele>1442.209717</ele>
        <time>2011-09-10T16:33:37Z</time>
      </trkpt>
      <trkpt lat="45.69805" lon="6.21935">
        <ele>1445.09729</ele>
        <time>2011-09-10T16:33:42Z</time>
      </trkpt>
      <trkpt lat="45.69803" lon="6.21935">
        <ele>1444.564209</ele>
        <time>2011-09-10T16:33:47Z</time>
      </trkpt>
      <trkpt lat="45.698" lon="6.21934">
        <ele>1443.448975</ele>
        <time>2011-09-10T16:33:52Z</time>
      </trkpt>
      <trkpt lat="45.69795" lon="6.21937">
        <ele>1443.849976</ele>
        <time>2011-09-10T16:34:03Z</time>
      </trkpt>
      <trkpt lat="45.69791" lon="6.21938">
        <ele>1443.164063</ele>
        <time>2011-09-10T16:34:10Z</time>
      </trkpt>
      <trkpt lat="45.69786" lon="6.21929">
        <ele>1438.39917</ele>
        <time>2011-09-10T16:34:15Z</time>
      </trkpt>
      <trkpt lat="45.69785" lon="6.21929">
        <ele>1437.94165</ele>
        <time>2011-09-10T16:34:20Z</time>
      </trkpt>
      <trkpt lat="45.69774" lon="6.21925">
        <ele>1433.88623</ele>
        <time>2011-09-10T16:34:25Z</time>
      </trkpt>
      <trkpt lat="45.69767" lon="6.21922">
        <ele>1430.619629</ele>
        <time>2011-09-10T16:34:30Z</time>
      </trkpt>
      <trkpt lat="45.69754" lon="6.21919">
        <ele>1425.033447</ele>
        <time>2011-09-10T16:34:37Z</time>
      </trkpt>
      <trkpt lat="45.6975" lon="6.21922">
        <ele>1425.106201</ele>
        <time>2011-09-10T16:34:44Z</time>
      </trkpt>
      <trkpt lat="45.69746" lon="6.21928">
        <ele>1426.480835</ele>
        <time>2011-09-10T16:34:49Z</time>
      </trkpt>
      <trkpt lat="45.69743" lon="6.21927">
        <ele>1425.31189</ele>
        <time>2011-09-10T16:34:54Z</time>
      </trkpt>
      <trkpt lat="45.69742" lon="6.21932">
        <ele>1427.099365</ele>
        <time>2011-09-10T16:34:59Z</time>
      </trkpt>
      <trkpt lat="45.6974" lon="6.21934">
        <ele>1427.003418</ele>
        <time>2011-09-10T16:35:04Z</time>
      </trkpt>
      <trkpt lat="45.69739" lon="6.2194">
        <ele>1428.943115</ele>
        <time>2011-09-10T16:35:09Z</time>
      </trkpt>
      <trkpt lat="45.69736" lon="6.21937">
        <ele>1426.974731</ele>
        <time>2011-09-10T16:35:14Z</time>
      </trkpt>
      <trkpt lat="45.69733" lon="6.21936">
        <ele>1425.518311</ele>
        <time>2011-09-10T16:35:19Z</time>
      </trkpt>
      <trkpt lat="45.69729" lon="6.21934">
        <ele>1423.058105</ele>
        <time>2011-09-10T16:35:24Z</time>
      </trkpt>
      <trkpt lat="45.69727" lon="6.21934">
        <ele>1422.672852</ele>
        <time>2011-09-10T16:35:29Z</time>
      </trkpt>
      <trkpt lat="45.69726" lon="6.21937">
        <ele>1423.165527</ele>
        <time>2011-09-10T16:35:34Z</time>
      </trkpt>
      <trkpt lat="45.69723" lon="6.21935">
        <ele>1421.47998</ele>
        <time>2011-09-10T16:35:39Z</time>
      </trkpt>
      <trkpt lat="45.69719" lon="6.21935">
        <ele>1420.006226</ele>
        <time>2011-09-10T16:35:44Z</time>
      </trkpt>
      <trkpt lat="45.69715" lon="6.21939">
        <ele>1420.61499</ele>
        <time>2011-09-10T16:35:49Z</time>
      </trkpt>
      <trkpt lat="45.69709" lon="6.21941">
        <ele>1419.449951</ele>
        <time>2011-09-10T16:35:54Z</time>
      </trkpt>
      <trkpt lat="45.69704" lon="6.21935">
        <ele>1415.545044</ele>
        <time>2011-09-10T16:35:59Z</time>
      </trkpt>
      <trkpt lat="45.69698" lon="6.21929">
        <ele>1411.695068</ele>
        <time>2011-09-10T16:36:04Z</time>
      </trkpt>
      <trkpt lat="45.69694" lon="6.21929">
        <ele>1410.25</ele>
        <time>2011-09-10T16:36:09Z</time>
      </trkpt>
      <trkpt lat="45.69693" lon="6.21932">
        <ele>1410.85498</ele>
        <time>2011-09-10T16:36:14Z</time>
      </trkpt>
      <trkpt lat="45.69688" lon="6.21933">
        <ele>1410.206177</ele>
        <time>2011-09-10T16:36:19Z</time>
      </trkpt>
      <trkpt lat="45.69682" lon="6.21929">
        <ele>1406.772461</ele>
        <time>2011-09-10T16:36:24Z</time>
      </trkpt>
      <trkpt lat="45.69678" lon="6.21926">
        <ele>1404.616821</ele>
        <time>2011-09-10T16:36:29Z</time>
      </trkpt>
      <trkpt lat="45.69673" lon="6.21921">
        <ele>1401.848633</ele>
        <time>2011-09-10T16:36:34Z</time>
      </trkpt>
      <trkpt lat="45.69671" lon="6.21921">
        <ele>1401.262207</ele>
        <time>2011-09-10T16:36:39Z</time>
      </trkpt>
      <trkpt lat="45.69669" lon="6.2192">
        <ele>1400.519287</ele>
        <time>2011-09-10T16:36:44Z</time>
      </trkpt>
      <trkpt lat="45.69666" lon="6.21917">
        <ele>1399.212402</ele>
        <time>2011-09-10T16:36:49Z</time>
      </trkpt>
      <trkpt lat="45.69663" lon="6.21917">
        <ele>1398.697632</ele>
        <time>2011-09-10T16:36:54Z</time>
      </trkpt>
      <trkpt lat="45.69661" lon="6.21918">
        <ele>1398.511719</ele>
        <time>2011-09-10T16:36:59Z</time>
      </trkpt>
      <trkpt lat="45.69656" lon="6.21914">
        <ele>1396.43457</ele>
        <time>2011-09-10T16:37:04Z</time>
      </trkpt>
      <trkpt lat="45.69652" lon="6.2191">
        <ele>1394.554077</ele>
        <time>2011-09-10T16:37:09Z</time>
      </trkpt>
      <trkpt lat="45.69648" lon="6.21907">
        <ele>1393.010986</ele>
        <time>2011-09-10T16:37:14Z</time>
      </trkpt>
      <trkpt lat="45.69644" lon="6.21906">
        <ele>1392.124268</ele>
        <time>2011-09-10T16:37:19Z</time>
      </trkpt>
      <trkpt lat="45.69645" lon="6.21899">
        <ele>1390.147217</ele>
        <time>2011-09-10T16:37:24Z</time>
      </trkpt>
      <trkpt lat="45.69644" lon="6.21896">
        <ele>1389.260254</ele>
        <time>2011-09-10T16:37:29Z</time>
      </trkpt>
      <trkpt lat="45.69647" lon="6.21895">
        <ele>1389.37915</ele>
        <time>2011-09-10T16:37:34Z</time>
      </trkpt>
      <trkpt lat="45.69642" lon="6.21889">
        <ele>1386.9823</ele>
        <time>2011-09-10T16:37:39Z</time>
      </trkpt>
      <trkpt lat="45.69645" lon="6.21887">
        <ele>1386.640381</ele>
        <time>2011-09-10T16:37:44Z</time>
      </trkpt>
      <trkpt lat="45.69642" lon="6.21877">
        <ele>1383.40564</ele>
        <time>2011-09-10T16:37:49Z</time>
      </trkpt>
      <trkpt lat="45.69644" lon="6.21874">
        <ele>1382.758057</ele>
        <time>2011-09-10T16:37:54Z</time>
      </trkpt>
      <trkpt lat="45.69644" lon="6.21871">
        <ele>1381.82019</ele>
        <time>2011-09-10T16:37:59Z</time>
      </trkpt>
      <trkpt lat="45.69644" lon="6.21867">
        <ele>1380.504028</ele>
        <time>2011-09-10T16:38:04Z</time>
      </trkpt>
      <trkpt lat="45.69643" lon="6.21861">
        <ele>1378.881958</ele>
        <time>2011-09-10T16:38:09Z</time>
      </trkpt>
      <trkpt lat="45.69637" lon="6.21857">
        <ele>1376.934692</ele>
        <time>2011-09-10T16:38:14Z</time>
      </trkpt>
      <trkpt lat="45.69634" lon="6.21857">
        <ele>1376.737305</ele>
        <time>2011-09-10T16:38:19Z</time>
      </trkpt>
      <trkpt lat="45.69625" lon="6.21851">
        <ele>1374.937866</ele>
        <time>2011-09-10T16:38:24Z</time>
      </trkpt>
      <trkpt lat="45.69618" lon="6.21842">
        <ele>1372.605347</ele>
        <time>2011-09-10T16:38:29Z</time>
      </trkpt>
      <trkpt lat="45.69611" lon="6.21828">
        <ele>1369.312988</ele>
        <time>2011-09-10T16:38:34Z</time>
      </trkpt>
      <trkpt lat="45.69609" lon="6.21822">
        <ele>1367.986694</ele>
        <time>2011-09-10T16:38:39Z</time>
      </trkpt>
      <trkpt lat="45.69609" lon="6.21816">
        <ele>1366.599365</ele>
        <time>2011-09-10T16:38:44Z</time>
      </trkpt>
      <trkpt lat="45.69606" lon="6.2181">
        <ele>1365.421753</ele>
        <time>2011-09-10T16:38:49Z</time>
      </trkpt>
      <trkpt lat="45.69606" lon="6.21807">
        <ele>1364.636719</ele>
        <time>2011-09-10T16:38:54Z</time>
      </trkpt>
      <trkpt lat="45.69611" lon="6.21805">
        <ele>1364.019043</ele>
        <time>2011-09-10T16:38:59Z</time>
      </trkpt>
      <trkpt lat="45.69613" lon="6.21799">
        <ele>1362.633911</ele>
        <time>2011-09-10T16:39:04Z</time>
      </trkpt>
      <trkpt lat="45.69613" lon="6.21797">
        <ele>1362.350708</ele>
        <time>2011-09-10T16:39:09Z</time>
      </trkpt>
      <trkpt lat="45.69611" lon="6.2179">
        <ele>1360.634644</ele>
        <time>2011-09-10T16:39:16Z</time>
      </trkpt>
      <trkpt lat="45.69617" lon="6.21784">
        <ele>1359.108765</ele>
        <time>2011-09-10T16:39:22Z</time>
      </trkpt>
      <trkpt lat="45.69605" lon="6.21774">
        <ele>1357.337524</ele>
        <time>2011-09-10T16:39:27Z</time>
      </trkpt>
      <trkpt lat="45.69596" lon="6.21769">
        <ele>1356.816284</ele>
        <time>2011-09-10T16:39:32Z</time>
      </trkpt>
      <trkpt lat="45.69606" lon="6.21766">
        <ele>1355.464966</ele>
        <time>2011-09-10T16:39:37Z</time>
      </trkpt>
      <trkpt lat="45.69619" lon="6.21766">
        <ele>1354.773804</ele>
        <time>2011-09-10T16:39:42Z</time>
      </trkpt>
      <trkpt lat="45.6962" lon="6.21759">
        <ele>1353.046265</ele>
        <time>2011-09-10T16:39:47Z</time>
      </trkpt>
      <trkpt lat="45.69619" lon="6.21755">
        <ele>1352.122437</ele>
        <time>2011-09-10T16:39:52Z</time>
      </trkpt>
      <trkpt lat="45.69612" lon="6.21744">
        <ele>1350.046265</ele>
        <time>2011-09-10T16:39:57Z</time>
      </trkpt>
      <trkpt lat="45.69605" lon="6.21734">
        <ele>1348.066284</ele>
        <time>2011-09-10T16:40:02Z</time>
      </trkpt>
      <trkpt lat="45.69602" lon="6.21726">
        <ele>1346.527466</ele>
        <time>2011-09-10T16:40:07Z</time>
      </trkpt>
      <trkpt lat="45.69605" lon="6.21722">
        <ele>1345.455444</ele>
        <time>2011-09-10T16:40:12Z</time>
      </trkpt>
      <trkpt lat="45.69601" lon="6.21717">
        <ele>1344.691772</ele>
        <time>2011-09-10T16:40:17Z</time>
      </trkpt>
      <trkpt lat="45.696" lon="6.2171">
        <ele>1343.208008</ele>
        <time>2011-09-10T16:40:22Z</time>
      </trkpt>
      <trkpt lat="45.69595" lon="6.21703">
        <ele>1342.276001</ele>
        <time>2011-09-10T16:40:27Z</time>
      </trkpt>
      <trkpt lat="45.69595" lon="6.21696">
        <ele>1340.897949</ele>
        <time>2011-09-10T16:40:32Z</time>
      </trkpt>
      <trkpt lat="45.69597" lon="6.21695">
        <ele>1340.363647</ele>
        <time>2011-09-10T16:40:37Z</time>
      </trkpt>
      <trkpt lat="45.69593" lon="6.21691">
        <ele>1339.994507</ele>
        <time>2011-09-10T16:40:42Z</time>
      </trkpt>
      <trkpt lat="45.69591" lon="6.21685">
        <ele>1339.072388</ele>
        <time>2011-09-10T16:40:47Z</time>
      </trkpt>
      <trkpt lat="45.69587" lon="6.21676">
        <ele>1337.889404</ele>
        <time>2011-09-10T16:41:46Z</time>
      </trkpt>
      <trkpt lat="45.69564" lon="6.21672">
        <ele>1340.087402</ele>
        <time>2011-09-10T16:41:51Z</time>
      </trkpt>
      <trkpt lat="45.69555" lon="6.21672">
        <ele>1341.211182</ele>
        <time>2011-09-10T16:41:56Z</time>
      </trkpt>
      <trkpt lat="45.69553" lon="6.21674">
        <ele>1341.574585</ele>
        <time>2011-09-10T16:42:01Z</time>
      </trkpt>
      <trkpt lat="45.69548" lon="6.21672">
        <ele>1342.177002</ele>
        <time>2011-09-10T16:42:06Z</time>
      </trkpt>
      <trkpt lat="45.69539" lon="6.21669">
        <ele>1343.581055</ele>
        <time>2011-09-10T16:42:11Z</time>
      </trkpt>
      <trkpt lat="45.69524" lon="6.21662">
        <ele>1345.355347</ele>
        <time>2011-09-10T16:42:16Z</time>
      </trkpt>
      <trkpt lat="45.69523" lon="6.21661">
        <ele>1345.279419</ele>
        <time>2011-09-10T16:42:21Z</time>
      </trkpt>
      <trkpt lat="45.69531" lon="6.21654">
        <ele>1343.119995</ele>
        <time>2011-09-10T16:42:26Z</time>
      </trkpt>
      <trkpt lat="45.69532" lon="6.21646">
        <ele>1342.109619</ele>
        <time>2011-09-10T16:42:31Z</time>
      </trkpt>
      <trkpt lat="45.69532" lon="6.21646">
        <ele>1342.171387</ele>
      </trkpt>
      <trkpt lat="45.69521" lon="6.21617">
        <ele>1341.493286</ele>
      </trkpt>
      <trkpt lat="45.69517" lon="6.21579">
        <ele>1338.126465</ele>
      </trkpt>
      <trkpt lat="45.69501" lon="6.21545">
        <ele>1336.560425</ele>
      </trkpt>
      <trkpt lat="45.69478" lon="6.21527">
        <ele>1339.645386</ele>
      </trkpt>
      <trkpt lat="45.69448" lon="6.21505">
        <ele>1344.868652</ele>
      </trkpt>
      <trkpt lat="45.69426" lon="6.21482">
        <ele>1347.089478</ele>
      </trkpt>
      <trkpt lat="45.69412" lon="6.21463">
        <ele>1348.90564</ele>
      </trkpt>
      <trkpt lat="45.69392" lon="6.21445">
        <ele>1352.656616</ele>
      </trkpt>
      <trkpt lat="45.69371" lon="6.21426">
        <ele>1356.310425</ele>
      </trkpt>
      <trkpt lat="45.6936" lon="6.21422">
        <ele>1360.401367</ele>
      </trkpt>
      <trkpt lat="45.69338" lon="6.21387">
        <ele>1356.653809</ele>
      </trkpt>
      <trkpt lat="45.69326" lon="6.21362">
        <ele>1354.459961</ele>
      </trkpt>
      <trkpt lat="45.69313" lon="6.21351">
        <ele>1356.709961</ele>
      </trkpt>
      <trkpt lat="45.69291" lon="6.21332">
        <ele>1361.188354</ele>
      </trkpt>
      <trkpt lat="45.6928" lon="6.21316">
        <ele>1361.651367</ele>
      </trkpt>
      <trkpt lat="45.6927" lon="6.21291">
        <ele>1360.442383</ele>
      </trkpt>
      <trkpt lat="45.69264" lon="6.2127">
        <ele>1359.543335</ele>
      </trkpt>
      <trkpt lat="45.69248" lon="6.21242">
        <ele>1361.709961</ele>
      </trkpt>
      <trkpt lat="45.6923" lon="6.21223">
        <ele>1365.109985</ele>
      </trkpt>
      <trkpt lat="45.69216" lon="6.21206">
        <ele>1367.410034</ele>
      </trkpt>
      <trkpt lat="45.69202" lon="6.21198">
        <ele>1371.863281</ele>
      </trkpt>
      <trkpt lat="45.69196" lon="6.21202">
        <ele>1374.935425</ele>
      </trkpt>
      <trkpt lat="45.69192" lon="6.21212">
        <ele>1378.474976</ele>
      </trkpt>
      <trkpt lat="45.69195" lon="6.2123">
        <ele>1380.716064</ele>
      </trkpt>
      <trkpt lat="45.69205" lon="6.21241">
        <ele>1379.319336</ele>
      </trkpt>
      <trkpt lat="45.69215" lon="6.21254">
        <ele>1377.589111</ele>
      </trkpt>
      <trkpt lat="45.69228" lon="6.21278">
        <ele>1376.69458</ele>
      </trkpt>
      <trkpt lat="45.69233" lon="6.21294">
        <ele>1377.251343</ele>
      </trkpt>
      <trkpt lat="45.6924" lon="6.21313">
        <ele>1377.392456</ele>
      </trkpt>
      <trkpt lat="45.69252" lon="6.21337">
        <ele>1378.40564</ele>
      </trkpt>
      <trkpt lat="45.69263" lon="6.2135">
        <ele>1377.460327</ele>
      </trkpt>
      <trkpt lat="45.69271" lon="6.21363">
        <ele>1377.257568</ele>
      </trkpt>
      <trkpt lat="45.69275" lon="6.21381">
        <ele>1380.6604</ele>
      </trkpt>
      <trkpt lat="45.69273" lon="6.2139">
        <ele>1384.751099</ele>
      </trkpt>
      <trkpt lat="45.69266" lon="6.21391">
        <ele>1388.387085</ele>
      </trkpt>
      <trkpt lat="45.6925" lon="6.21385">
        <ele>1392.078735</ele>
      </trkpt>
      <trkpt lat="45.69232" lon="6.21352">
        <ele>1390.867554</ele>
      </trkpt>
      <trkpt lat="45.69213" lon="6.21328">
        <ele>1393.22998</ele>
      </trkpt>
      <trkpt lat="45.69198" lon="6.2131">
        <ele>1395.100342</ele>
      </trkpt>
      <trkpt lat="45.69179" lon="6.21287">
        <ele>1398.05249</ele>
      </trkpt>
      <trkpt lat="45.69164" lon="6.21269">
        <ele>1400.42749</ele>
      </trkpt>
      <trkpt lat="45.69145" lon="6.21253">
        <ele>1402.856567</ele>
      </trkpt>
      <trkpt lat="45.69132" lon="6.21238">
        <ele>1403.250732</ele>
      </trkpt>
      <trkpt lat="45.69112" lon="6.21222">
        <ele>1405.84314</ele>
      </trkpt>
      <trkpt lat="45.69098" lon="6.21211">
        <ele>1407.241333</ele>
      </trkpt>
      <trkpt lat="45.69077" lon="6.21195">
        <ele>1409.424927</ele>
      </trkpt>
      <trkpt lat="45.69064" lon="6.21182">
        <ele>1410.617188</ele>
      </trkpt>
      <trkpt lat="45.69053" lon="6.21177">
        <ele>1412.085693</ele>
      </trkpt>
      <trkpt lat="45.69041" lon="6.21178">
        <ele>1414.784912</ele>
      </trkpt>
      <trkpt lat="45.69032" lon="6.21187">
        <ele>1418.490112</ele>
      </trkpt>
      <trkpt lat="45.69033" lon="6.212">
        <ele>1420.814453</ele>
      </trkpt>
      <trkpt lat="45.69041" lon="6.21209">
        <ele>1420.606934</ele>
      </trkpt>
      <trkpt lat="45.6905" lon="6.21219">
        <ele>1419.639038</ele>
      </trkpt>
      <trkpt lat="45.69057" lon="6.21231">
        <ele>1419.200684</ele>
      </trkpt>
      <trkpt lat="45.69069" lon="6.21243">
        <ele>1417.861084</ele>
      </trkpt>
      <trkpt lat="45.69074" lon="6.21253">
        <ele>1418.773315</ele>
      </trkpt>
      <trkpt lat="45.69075" lon="6.21268">
        <ele>1421.92627</ele>
      </trkpt>
      <trkpt lat="45.69072" lon="6.21275">
        <ele>1424.144409</ele>
      </trkpt>
      <trkpt lat="45.69063" lon="6.21274">
        <ele>1426.966064</ele>
      </trkpt>
      <trkpt lat="45.69048" lon="6.21255">
        <ele>1427.676147</ele>
      </trkpt>
      <trkpt lat="45.69035" lon="6.21237">
        <ele>1427.696533</ele>
      </trkpt>
      <trkpt lat="45.69018" lon="6.21221">
        <ele>1429.591553</ele>
      </trkpt>
      <trkpt lat="45.69009" lon="6.21217">
        <ele>1431.807739</ele>
      </trkpt>
      <trkpt lat="45.68998" lon="6.21203">
        <ele>1432.484619</ele>
      </trkpt>
      <trkpt lat="45.68979" lon="6.21184">
        <ele>1433.55603</ele>
      </trkpt>
      <trkpt lat="45.68969" lon="6.21173">
        <ele>1433.322754</ele>
      </trkpt>
      <trkpt lat="45.68958" lon="6.21164">
        <ele>1434.232056</ele>
      </trkpt>
      <trkpt lat="45.68943" lon="6.21156">
        <ele>1436.594971</ele>
      </trkpt>
      <trkpt lat="45.68933" lon="6.21156">
        <ele>1438.379517</ele>
      </trkpt>
      <trkpt lat="45.68925" lon="6.21163">
        <ele>1440.27832</ele>
      </trkpt>
      <trkpt lat="45.68924" lon="6.21172">
        <ele>1442.132568</ele>
      </trkpt>
      <trkpt lat="45.68923" lon="6.21183">
        <ele>1444.120117</ele>
      </trkpt>
      <trkpt lat="45.6893" lon="6.21198">
        <ele>1445.467163</ele>
      </trkpt>
      <trkpt lat="45.68939" lon="6.21209">
        <ele>1445.850708</ele>
      </trkpt>
      <trkpt lat="45.68949" lon="6.2123">
        <ele>1448.146484</ele>
      </trkpt>
      <trkpt lat="45.68952" lon="6.21238">
        <ele>1449.52832</ele>
      </trkpt>
      <trkpt lat="45.6895" lon="6.21243">
        <ele>1450.73999</ele>
      </trkpt>
      <trkpt lat="45.68944" lon="6.21247">
        <ele>1452.162231</ele>
      </trkpt>
      <trkpt lat="45.68931" lon="6.21245">
        <ele>1454.004517</ele>
      </trkpt>
      <trkpt lat="45.68916" lon="6.21232">
        <ele>1454.483276</ele>
      </trkpt>
      <trkpt lat="45.68898" lon="6.21219">
        <ele>1454.521606</ele>
      </trkpt>
      <trkpt lat="45.68887" lon="6.21214">
        <ele>1455.404907</ele>
      </trkpt>
      <trkpt lat="45.68877" lon="6.21212">
        <ele>1456.809692</ele>
      </trkpt>
      <trkpt lat="45.68863" lon="6.21202">
        <ele>1457.719971</ele>
      </trkpt>
      <trkpt lat="45.68845" lon="6.21191">
        <ele>1459.50647</ele>
      </trkpt>
      <trkpt lat="45.68832" lon="6.21179">
        <ele>1461.29248</ele>
      </trkpt>
      <trkpt lat="45.68818" lon="6.21166">
        <ele>1462.776001</ele>
      </trkpt>
      <trkpt lat="45.68802" lon="6.21153">
        <ele>1463.808472</ele>
      </trkpt>
      <trkpt lat="45.68793" lon="6.21142">
        <ele>1464.492554</ele>
      </trkpt>
      <trkpt lat="45.68787" lon="6.21132">
        <ele>1464.79248</ele>
      </trkpt>
      <trkpt lat="45.68787" lon="6.21132">
        <ele>1464.79248</ele>
      </trkpt>
      <trkpt lat="45.68787" lon="6.21132">
        <ele>1464.79248</ele>
      </trkpt>
      <trkpt lat="45.68787" lon="6.21128">
        <ele>1464.336304</ele>
        <time>2011-09-10T17:08:08Z</time>
      </trkpt>
      <trkpt lat="45.68784" lon="6.21124">
        <ele>1464.443726</ele>
        <time>2011-09-10T17:08:13Z</time>
      </trkpt>
      <trkpt lat="45.68782" lon="6.2112">
        <ele>1464.630005</ele>
        <time>2011-09-10T17:08:18Z</time>
      </trkpt>
      <trkpt lat="45.68779" lon="6.21117">
        <ele>1464.903809</ele>
        <time>2011-09-10T17:08:23Z</time>
      </trkpt>
      <trkpt lat="45.68778" lon="6.21114">
        <ele>1464.88623</ele>
        <time>2011-09-10T17:08:28Z</time>
      </trkpt>
      <trkpt lat="45.6877" lon="6.21108">
        <ele>1465.866211</ele>
        <time>2011-09-10T17:08:33Z</time>
      </trkpt>
      <trkpt lat="45.68763" lon="6.211">
        <ele>1466.349976</ele>
        <time>2011-09-10T17:08:38Z</time>
      </trkpt>
      <trkpt lat="45.68762" lon="6.21095">
        <ele>1466.227051</ele>
        <time>2011-09-10T17:08:43Z</time>
      </trkpt>
      <trkpt lat="45.6876" lon="6.21091">
        <ele>1466.283447</ele>
        <time>2011-09-10T17:08:48Z</time>
      </trkpt>
      <trkpt lat="45.68754" lon="6.2109">
        <ele>1467.33667</ele>
        <time>2011-09-10T17:08:53Z</time>
      </trkpt>
      <trkpt lat="45.6875" lon="6.21092">
        <ele>1468.245972</ele>
        <time>2011-09-10T17:08:58Z</time>
      </trkpt>
      <trkpt lat="45.68747" lon="6.21092">
        <ele>1468.922974</ele>
        <time>2011-09-10T17:09:03Z</time>
      </trkpt>
      <trkpt lat="45.68747" lon="6.21096">
        <ele>1469.26709</ele>
        <time>2011-09-10T17:09:08Z</time>
      </trkpt>
      <trkpt lat="45.68743" lon="6.21095">
        <ele>1470.063843</ele>
        <time>2011-09-10T17:09:13Z</time>
      </trkpt>
      <trkpt lat="45.68737" lon="6.21093">
        <ele>1471.108521</ele>
        <time>2011-09-10T17:09:18Z</time>
      </trkpt>
      <trkpt lat="45.68733" lon="6.21091">
        <ele>1471.64209</ele>
        <time>2011-09-10T17:09:23Z</time>
      </trkpt>
      <trkpt lat="45.68729" lon="6.21092">
        <ele>1472.632813</ele>
        <time>2011-09-10T17:09:28Z</time>
      </trkpt>
      <trkpt lat="45.68727" lon="6.21092">
        <ele>1473.031494</ele>
        <time>2011-09-10T17:09:33Z</time>
      </trkpt>
      <trkpt lat="45.68724" lon="6.21092">
        <ele>1473.637085</ele>
        <time>2011-09-10T17:09:38Z</time>
      </trkpt>
      <trkpt lat="45.68722" lon="6.21089">
        <ele>1473.754517</ele>
        <time>2011-09-10T17:09:43Z</time>
      </trkpt>
      <trkpt lat="45.68719" lon="6.21091">
        <ele>1474.550659</ele>
        <time>2011-09-10T17:09:48Z</time>
      </trkpt>
      <trkpt lat="45.68715" lon="6.21091">
        <ele>1475.223877</ele>
        <time>2011-09-10T17:09:53Z</time>
      </trkpt>
      <trkpt lat="45.68711" lon="6.21091">
        <ele>1475.621216</ele>
        <time>2011-09-10T17:09:58Z</time>
      </trkpt>
      <trkpt lat="45.68708" lon="6.2109">
        <ele>1476.007568</ele>
        <time>2011-09-10T17:10:03Z</time>
      </trkpt>
      <trkpt lat="45.68704" lon="6.21087">
        <ele>1476.233521</ele>
        <time>2011-09-10T17:10:08Z</time>
      </trkpt>
      <trkpt lat="45.687" lon="6.21084">
        <ele>1476.55835</ele>
        <time>2011-09-10T17:10:13Z</time>
      </trkpt>
      <trkpt lat="45.68697" lon="6.21083">
        <ele>1476.915894</ele>
        <time>2011-09-10T17:10:18Z</time>
      </trkpt>
      <trkpt lat="45.6869" lon="6.2108">
        <ele>1477.78186</ele>
        <time>2011-09-10T17:10:23Z</time>
      </trkpt>
      <trkpt lat="45.68684" lon="6.21074">
        <ele>1478.814575</ele>
        <time>2011-09-10T17:10:28Z</time>
      </trkpt>
      <trkpt lat="45.68678" lon="6.21066">
        <ele>1479.994995</ele>
        <time>2011-09-10T17:10:33Z</time>
      </trkpt>
      <trkpt lat="45.68674" lon="6.21059">
        <ele>1480.902222</ele>
        <time>2011-09-10T17:10:38Z</time>
      </trkpt>
      <trkpt lat="45.68668" lon="6.21054">
        <ele>1482.2146</ele>
        <time>2011-09-10T17:10:43Z</time>
      </trkpt>
      <trkpt lat="45.68663" lon="6.21048">
        <ele>1483.428101</ele>
        <time>2011-09-10T17:10:48Z</time>
      </trkpt>
      <trkpt lat="45.68659" lon="6.21044">
        <ele>1484.247559</ele>
        <time>2011-09-10T17:10:53Z</time>
      </trkpt>
      <trkpt lat="45.68657" lon="6.2104">
        <ele>1484.763916</ele>
        <time>2011-09-10T17:10:58Z</time>
      </trkpt>
      <trkpt lat="45.68659" lon="6.21038">
        <ele>1484.517822</ele>
        <time>2011-09-10T17:11:03Z</time>
      </trkpt>
      <trkpt lat="45.68659" lon="6.21038">
        <ele>1484.598999</ele>
        <time>2011-09-10T17:11:08Z</time>
      </trkpt>
      <trkpt lat="45.68656" lon="6.21032">
        <ele>1485.213379</ele>
        <time>2011-09-10T17:11:13Z</time>
      </trkpt>
      <trkpt lat="45.68655" lon="6.21027">
        <ele>1485.613525</ele>
        <time>2011-09-10T17:11:18Z</time>
      </trkpt>
      <trkpt lat="45.68653" lon="6.21023">
        <ele>1486.11438</ele>
        <time>2011-09-10T17:11:23Z</time>
      </trkpt>
      <trkpt lat="45.68652" lon="6.21022">
        <ele>1486.291992</ele>
        <time>2011-09-10T17:11:28Z</time>
      </trkpt>
      <trkpt lat="45.6865" lon="6.21017">
        <ele>1486.817993</ele>
        <time>2011-09-10T17:11:33Z</time>
      </trkpt>
      <trkpt lat="45.68646" lon="6.21017">
        <ele>1487.413208</ele>
        <time>2011-09-10T17:11:38Z</time>
      </trkpt>
      <trkpt lat="45.68641" lon="6.21018">
        <ele>1488.110229</ele>
        <time>2011-09-10T17:11:43Z</time>
      </trkpt>
      <trkpt lat="45.68635" lon="6.21014">
        <ele>1489.175781</ele>
        <time>2011-09-10T17:11:48Z</time>
      </trkpt>
      <trkpt lat="45.6863" lon="6.21013">
        <ele>1490.057007</ele>
        <time>2011-09-10T17:11:53Z</time>
      </trkpt>
      <trkpt lat="45.68625" lon="6.2101">
        <ele>1490.768555</ele>
        <time>2011-09-10T17:11:58Z</time>
      </trkpt>
      <trkpt lat="45.6862" lon="6.2101">
        <ele>1491.358643</ele>
        <time>2011-09-10T17:12:03Z</time>
      </trkpt>
      <trkpt lat="45.6862" lon="6.21013">
        <ele>1491.401489</ele>
        <time>2011-09-10T17:12:08Z</time>
      </trkpt>
      <trkpt lat="45.68618" lon="6.21012">
        <ele>1491.617188</ele>
        <time>2011-09-10T17:12:13Z</time>
      </trkpt>
      <trkpt lat="45.68616" lon="6.2101">
        <ele>1491.858643</ele>
        <time>2011-09-10T17:12:18Z</time>
      </trkpt>
      <trkpt lat="45.68615" lon="6.21008">
        <ele>1492.002319</ele>
        <time>2011-09-10T17:12:23Z</time>
      </trkpt>
      <trkpt lat="45.68613" lon="6.21003">
        <ele>1492.170898</ele>
        <time>2011-09-10T17:12:28Z</time>
      </trkpt>
      <trkpt lat="45.68609" lon="6.20997">
        <ele>1492.527954</ele>
        <time>2011-09-10T17:12:33Z</time>
      </trkpt>
      <trkpt lat="45.68603" lon="6.20991">
        <ele>1492.928223</ele>
        <time>2011-09-10T17:12:38Z</time>
      </trkpt>
      <trkpt lat="45.68597" lon="6.20984">
        <ele>1493.144775</ele>
        <time>2011-09-10T17:12:43Z</time>
      </trkpt>
      <trkpt lat="45.68594" lon="6.20978">
        <ele>1493.026489</ele>
        <time>2011-09-10T17:12:48Z</time>
      </trkpt>
      <trkpt lat="45.68592" lon="6.20972">
        <ele>1492.817993</ele>
        <time>2011-09-10T17:12:53Z</time>
      </trkpt>
      <trkpt lat="45.68591" lon="6.20965">
        <ele>1492.378906</ele>
        <time>2011-09-10T17:12:58Z</time>
      </trkpt>
      <trkpt lat="45.68588" lon="6.20965">
        <ele>1492.529663</ele>
        <time>2011-09-10T17:13:03Z</time>
      </trkpt>
      <trkpt lat="45.68583" lon="6.20963">
        <ele>1492.51416</ele>
        <time>2011-09-10T17:13:08Z</time>
      </trkpt>
      <trkpt lat="45.68583" lon="6.20964">
        <ele>1492.596191</ele>
        <time>2011-09-10T17:13:13Z</time>
      </trkpt>
      <trkpt lat="45.68585" lon="6.20959">
        <ele>1492.181274</ele>
        <time>2011-09-10T17:13:18Z</time>
      </trkpt>
      <trkpt lat="45.6856" lon="6.20953">
        <ele>1491.808228</ele>
        <time>2011-09-10T17:22:36Z</time>
      </trkpt>
      <trkpt lat="45.68556" lon="6.2095">
        <ele>1491.391113</ele>
        <time>2011-09-10T17:22:41Z</time>
      </trkpt>
      <trkpt lat="45.6855" lon="6.2095">
        <ele>1491.394531</ele>
        <time>2011-09-10T17:22:46Z</time>
      </trkpt>
      <trkpt lat="45.68545" lon="6.2095">
        <ele>1491.416016</ele>
        <time>2011-09-10T17:22:51Z</time>
      </trkpt>
      <trkpt lat="45.6854" lon="6.20949">
        <ele>1491.120117</ele>
        <time>2011-09-10T17:22:56Z</time>
      </trkpt>
      <trkpt lat="45.68533" lon="6.2095">
        <ele>1490.65686</ele>
        <time>2011-09-10T17:23:01Z</time>
      </trkpt>
      <trkpt lat="45.68528" lon="6.2095">
        <ele>1490.008179</ele>
        <time>2011-09-10T17:23:06Z</time>
      </trkpt>
      <trkpt lat="45.68524" lon="6.20949">
        <ele>1489.533813</ele>
        <time>2011-09-10T17:23:11Z</time>
      </trkpt>
      <trkpt lat="45.68518" lon="6.20949">
        <ele>1489.026245</ele>
        <time>2011-09-10T17:23:16Z</time>
      </trkpt>
      <trkpt lat="45.68513" lon="6.2095">
        <ele>1488.777832</ele>
        <time>2011-09-10T17:23:21Z</time>
      </trkpt>
      <trkpt lat="45.68508" lon="6.20952">
        <ele>1488.692505</ele>
        <time>2011-09-10T17:23:26Z</time>
      </trkpt>
      <trkpt lat="45.68503" lon="6.20955">
        <ele>1489.105713</ele>
        <time>2011-09-10T17:23:31Z</time>
      </trkpt>
      <trkpt lat="45.68499" lon="6.20958">
        <ele>1489.799683</ele>
        <time>2011-09-10T17:23:36Z</time>
      </trkpt>
      <trkpt lat="45.68494" lon="6.20962">
        <ele>1490.287476</ele>
        <time>2011-09-10T17:23:41Z</time>
      </trkpt>
      <trkpt lat="45.68489" lon="6.20965">
        <ele>1490.844971</ele>
        <time>2011-09-10T17:23:46Z</time>
      </trkpt>
      <trkpt lat="45.68485" lon="6.20968">
        <ele>1491.407471</ele>
        <time>2011-09-10T17:23:51Z</time>
      </trkpt>
      <trkpt lat="45.6848" lon="6.20971">
        <ele>1491.827515</ele>
        <time>2011-09-10T17:23:56Z</time>
      </trkpt>
      <trkpt lat="45.68476" lon="6.20974">
        <ele>1492.050049</ele>
        <time>2011-09-10T17:24:01Z</time>
      </trkpt>
      <trkpt lat="45.6847" lon="6.20976">
        <ele>1492.329956</ele>
        <time>2011-09-10T17:24:06Z</time>
      </trkpt>
      <trkpt lat="45.68466" lon="6.20978">
        <ele>1492.35498</ele>
        <time>2011-09-10T17:24:11Z</time>
      </trkpt>
      <trkpt lat="45.68459" lon="6.2098">
        <ele>1492.444946</ele>
        <time>2011-09-10T17:24:16Z</time>
      </trkpt>
      <trkpt lat="45.68453" lon="6.20982">
        <ele>1492.272461</ele>
        <time>2011-09-10T17:24:21Z</time>
      </trkpt>
      <trkpt lat="45.68449" lon="6.20981">
        <ele>1491.810059</ele>
        <time>2011-09-10T17:24:26Z</time>
      </trkpt>
      <trkpt lat="45.68445" lon="6.20982">
        <ele>1491.670044</ele>
        <time>2011-09-10T17:24:31Z</time>
      </trkpt>
      <trkpt lat="45.68444" lon="6.20982">
        <ele>1491.597534</ele>
        <time>2011-09-10T17:24:36Z</time>
      </trkpt>
      <trkpt lat="45.68438" lon="6.20982">
        <ele>1490.952515</ele>
        <time>2011-09-10T17:24:41Z</time>
      </trkpt>
      <trkpt lat="45.68433" lon="6.2098">
        <ele>1490.074951</ele>
        <time>2011-09-10T17:24:46Z</time>
      </trkpt>
      <trkpt lat="45.68428" lon="6.20979">
        <ele>1489.262451</ele>
        <time>2011-09-10T17:24:51Z</time>
      </trkpt>
      <trkpt lat="45.68424" lon="6.20979">
        <ele>1488.719971</ele>
        <time>2011-09-10T17:24:56Z</time>
      </trkpt>
      <trkpt lat="45.68419" lon="6.20977">
        <ele>1487.70752</ele>
        <time>2011-09-10T17:25:01Z</time>
      </trkpt>
      <trkpt lat="45.68413" lon="6.20975">
        <ele>1486.842529</ele>
        <time>2011-09-10T17:25:06Z</time>
      </trkpt>
      <trkpt lat="45.6841" lon="6.20976">
        <ele>1486.58252</ele>
        <time>2011-09-10T17:25:11Z</time>
      </trkpt>
      <trkpt lat="45.68403" lon="6.20975">
        <ele>1485.980835</ele>
        <time>2011-09-10T17:25:16Z</time>
      </trkpt>
      <trkpt lat="45.68397" lon="6.20974">
        <ele>1485.792847</ele>
        <time>2011-09-10T17:25:21Z</time>
      </trkpt>
      <trkpt lat="45.68393" lon="6.20975">
        <ele>1485.872437</ele>
        <time>2011-09-10T17:25:26Z</time>
      </trkpt>
      <trkpt lat="45.68388" lon="6.20973">
        <ele>1485.348999</ele>
        <time>2011-09-10T17:25:31Z</time>
      </trkpt>
      <trkpt lat="45.68383" lon="6.20972">
        <ele>1484.772705</ele>
        <time>2011-09-10T17:25:36Z</time>
      </trkpt>
      <trkpt lat="45.68376" lon="6.2097">
        <ele>1484.14563</ele>
        <time>2011-09-10T17:25:41Z</time>
      </trkpt>
      <trkpt lat="45.6837" lon="6.2097">
        <ele>1483.897339</ele>
        <time>2011-09-10T17:25:46Z</time>
      </trkpt>
      <trkpt lat="45.68365" lon="6.20969">
        <ele>1483.594727</ele>
        <time>2011-09-10T17:25:51Z</time>
      </trkpt>
      <trkpt lat="45.68361" lon="6.20969">
        <ele>1483.63501</ele>
        <time>2011-09-10T17:25:56Z</time>
      </trkpt>
      <trkpt lat="45.68356" lon="6.20968">
        <ele>1483.209961</ele>
        <time>2011-09-10T17:26:01Z</time>
      </trkpt>
      <trkpt lat="45.6835" lon="6.20967">
        <ele>1482.824951</ele>
        <time>2011-09-10T17:26:06Z</time>
      </trkpt>
      <trkpt lat="45.68345" lon="6.20966">
        <ele>1482.405029</ele>
        <time>2011-09-10T17:26:11Z</time>
      </trkpt>
      <trkpt lat="45.68339" lon="6.20965">
        <ele>1481.954956</ele>
        <time>2011-09-10T17:26:16Z</time>
      </trkpt>
      <trkpt lat="45.68334" lon="6.20963">
        <ele>1481.190063</ele>
        <time>2011-09-10T17:26:21Z</time>
      </trkpt>
      <trkpt lat="45.68328" lon="6.20961">
        <ele>1480.38501</ele>
        <time>2011-09-10T17:26:26Z</time>
      </trkpt>
      <trkpt lat="45.68322" lon="6.20959">
        <ele>1479.425049</ele>
        <time>2011-09-10T17:26:31Z</time>
      </trkpt>
      <trkpt lat="45.68316" lon="6.20957">
        <ele>1478.676514</ele>
        <time>2011-09-10T17:26:36Z</time>
      </trkpt>
      <trkpt lat="45.6831" lon="6.20955">
        <ele>1477.59314</ele>
        <time>2011-09-10T17:26:41Z</time>
      </trkpt>
      <trkpt lat="45.68305" lon="6.20954">
        <ele>1476.681763</ele>
        <time>2011-09-10T17:26:46Z</time>
      </trkpt>
      <trkpt lat="45.683" lon="6.20952">
        <ele>1475.544922</ele>
        <time>2011-09-10T17:26:51Z</time>
      </trkpt>
      <trkpt lat="45.68294" lon="6.20951">
        <ele>1474.633057</ele>
        <time>2011-09-10T17:26:56Z</time>
      </trkpt>
      <trkpt lat="45.68288" lon="6.2095">
        <ele>1473.686401</ele>
        <time>2011-09-10T17:27:01Z</time>
      </trkpt>
      <trkpt lat="45.68282" lon="6.20949">
        <ele>1472.828491</ele>
        <time>2011-09-10T17:27:06Z</time>
      </trkpt>
      <trkpt lat="45.68277" lon="6.20949">
        <ele>1472.241699</ele>
        <time>2011-09-10T17:27:11Z</time>
      </trkpt>
      <trkpt lat="45.68272" lon="6.20949">
        <ele>1471.740112</ele>
        <time>2011-09-10T17:27:16Z</time>
      </trkpt>
      <trkpt lat="45.68266" lon="6.20949">
        <ele>1470.626953</ele>
        <time>2011-09-10T17:27:21Z</time>
      </trkpt>
      <trkpt lat="45.68261" lon="6.20949">
        <ele>1469.632568</ele>
        <time>2011-09-10T17:27:26Z</time>
      </trkpt>
      <trkpt lat="45.68256" lon="6.20949">
        <ele>1468.755615</ele>
        <time>2011-09-10T17:27:31Z</time>
      </trkpt>
      <trkpt lat="45.68251" lon="6.2095">
        <ele>1467.827148</ele>
        <time>2011-09-10T17:27:36Z</time>
      </trkpt>
      <trkpt lat="45.68245" lon="6.2095">
        <ele>1466.929199</ele>
        <time>2011-09-10T17:27:41Z</time>
      </trkpt>
      <trkpt lat="45.6824" lon="6.20951">
        <ele>1466.079102</ele>
        <time>2011-09-10T17:27:46Z</time>
      </trkpt>
      <trkpt lat="45.68235" lon="6.20951">
        <ele>1464.996216</ele>
        <time>2011-09-10T17:27:51Z</time>
      </trkpt>
      <trkpt lat="45.6823" lon="6.2095">
        <ele>1463.875122</ele>
        <time>2011-09-10T17:27:56Z</time>
      </trkpt>
      <trkpt lat="45.68225" lon="6.2095">
        <ele>1462.820557</ele>
        <time>2011-09-10T17:28:01Z</time>
      </trkpt>
      <trkpt lat="45.6822" lon="6.2095">
        <ele>1461.953491</ele>
        <time>2011-09-10T17:28:06Z</time>
      </trkpt>
      <trkpt lat="45.68215" lon="6.20951">
        <ele>1461.465088</ele>
        <time>2011-09-10T17:28:11Z</time>
      </trkpt>
      <trkpt lat="45.68211" lon="6.20953">
        <ele>1461.403687</ele>
        <time>2011-09-10T17:28:16Z</time>
      </trkpt>
      <trkpt lat="45.68206" lon="6.20956">
        <ele>1461.552612</ele>
        <time>2011-09-10T17:28:21Z</time>
      </trkpt>
      <trkpt lat="45.68201" lon="6.20959">
        <ele>1461.832031</ele>
        <time>2011-09-10T17:28:26Z</time>
      </trkpt>
      <trkpt lat="45.68196" lon="6.20962">
        <ele>1462.163086</ele>
        <time>2011-09-10T17:28:31Z</time>
      </trkpt>
      <trkpt lat="45.68191" lon="6.20965">
        <ele>1462.398315</ele>
        <time>2011-09-10T17:28:36Z</time>
      </trkpt>
      <trkpt lat="45.68186" lon="6.20966">
        <ele>1461.913208</ele>
        <time>2011-09-10T17:28:41Z</time>
      </trkpt>
      <trkpt lat="45.6818" lon="6.20965">
        <ele>1461.067383</ele>
        <time>2011-09-10T17:28:46Z</time>
      </trkpt>
      <trkpt lat="45.68175" lon="6.20963">
        <ele>1459.849854</ele>
        <time>2011-09-10T17:28:51Z</time>
      </trkpt>
      <trkpt lat="45.6817" lon="6.2096">
        <ele>1458.426025</ele>
        <time>2011-09-10T17:28:56Z</time>
      </trkpt>
      <trkpt lat="45.68165" lon="6.20958">
        <ele>1457.201416</ele>
        <time>2011-09-10T17:29:01Z</time>
      </trkpt>
      <trkpt lat="45.6816" lon="6.20956">
        <ele>1456.078613</ele>
        <time>2011-09-10T17:29:06Z</time>
      </trkpt>
      <trkpt lat="45.68154" lon="6.20954">
        <ele>1454.976074</ele>
        <time>2011-09-10T17:29:11Z</time>
      </trkpt>
      <trkpt lat="45.68149" lon="6.20953">
        <ele>1454.109985</ele>
        <time>2011-09-10T17:29:16Z</time>
      </trkpt>
      <trkpt lat="45.68145" lon="6.20952">
        <ele>1453.358765</ele>
        <time>2011-09-10T17:29:21Z</time>
      </trkpt>
      <trkpt lat="45.68143" lon="6.20951">
        <ele>1452.928467</ele>
        <time>2011-09-10T17:29:26Z</time>
      </trkpt>
      <trkpt lat="45.6814" lon="6.20951">
        <ele>1452.486938</ele>
        <time>2011-09-10T17:29:31Z</time>
      </trkpt>
      <trkpt lat="45.6814" lon="6.20951">
        <ele>1452.486938</ele>
        <time>2011-09-10T17:29:36Z</time>
      </trkpt>
      <trkpt lat="45.6814" lon="6.2095">
        <ele>1452.308228</ele>
        <time>2011-09-10T17:29:41Z</time>
      </trkpt>
      <trkpt lat="45.6814" lon="6.2095">
        <ele>1452.159424</ele>
        <time>2011-09-10T17:29:46Z</time>
      </trkpt>
      <trkpt lat="45.68139" lon="6.20952">
        <ele>1452.745605</ele>
        <time>2011-09-10T17:29:51Z</time>
      </trkpt>
      <trkpt lat="45.68134" lon="6.20954">
        <ele>1453.112183</ele>
        <time>2011-09-10T17:29:56Z</time>
      </trkpt>
      <trkpt lat="45.68129" lon="6.20954">
        <ele>1452.702881</ele>
        <time>2011-09-10T17:30:01Z</time>
      </trkpt>
      <trkpt lat="45.68124" lon="6.20954">
        <ele>1452.338135</ele>
        <time>2011-09-10T17:30:06Z</time>
      </trkpt>
      <trkpt lat="45.6812" lon="6.20953">
        <ele>1451.837524</ele>
        <time>2011-09-10T17:30:11Z</time>
      </trkpt>
      <trkpt lat="45.68115" lon="6.20955">
        <ele>1451.97229</ele>
        <time>2011-09-10T17:30:16Z</time>
      </trkpt>
      <trkpt lat="45.6811" lon="6.20955">
        <ele>1451.574097</ele>
        <time>2011-09-10T17:30:21Z</time>
      </trkpt>
      <trkpt lat="45.68105" lon="6.20955">
        <ele>1451.401001</ele>
        <time>2011-09-10T17:30:26Z</time>
      </trkpt>
      <trkpt lat="45.681" lon="6.20955">
        <ele>1451.085449</ele>
        <time>2011-09-10T17:30:31Z</time>
      </trkpt>
      <trkpt lat="45.68095" lon="6.20956">
        <ele>1450.900391</ele>
        <time>2011-09-10T17:30:36Z</time>
      </trkpt>
      <trkpt lat="45.68091" lon="6.20955">
        <ele>1450.237549</ele>
        <time>2011-09-10T17:30:41Z</time>
      </trkpt>
      <trkpt lat="45.68085" lon="6.20954">
        <ele>1449.507446</ele>
        <time>2011-09-10T17:30:46Z</time>
      </trkpt>
      <trkpt lat="45.6808" lon="6.20954">
        <ele>1448.952515</ele>
        <time>2011-09-10T17:30:51Z</time>
      </trkpt>
      <trkpt lat="45.68075" lon="6.20952">
        <ele>1447.902466</ele>
        <time>2011-09-10T17:30:56Z</time>
      </trkpt>
      <trkpt lat="45.6807" lon="6.20951">
        <ele>1446.755005</ele>
        <time>2011-09-10T17:31:01Z</time>
      </trkpt>
      <trkpt lat="45.68065" lon="6.2095">
        <ele>1446.255005</ele>
        <time>2011-09-10T17:31:06Z</time>
      </trkpt>
      <trkpt lat="45.68061" lon="6.20949">
        <ele>1445.214966</ele>
        <time>2011-09-10T17:31:11Z</time>
      </trkpt>
      <trkpt lat="45.68055" lon="6.20948">
        <ele>1444.642456</ele>
        <time>2011-09-10T17:31:16Z</time>
      </trkpt>
      <trkpt lat="45.6805" lon="6.20947">
        <ele>1443.762451</ele>
        <time>2011-09-10T17:31:21Z</time>
      </trkpt>
      <trkpt lat="45.68045" lon="6.20946">
        <ele>1442.694702</ele>
        <time>2011-09-10T17:31:26Z</time>
      </trkpt>
      <trkpt lat="45.68039" lon="6.20946">
        <ele>1441.661133</ele>
        <time>2011-09-10T17:31:31Z</time>
      </trkpt>
      <trkpt lat="45.68034" lon="6.20945">
        <ele>1440.738525</ele>
        <time>2011-09-10T17:31:36Z</time>
      </trkpt>
      <trkpt lat="45.68029" lon="6.20944">
        <ele>1439.6073</ele>
        <time>2011-09-10T17:31:41Z</time>
      </trkpt>
      <trkpt lat="45.68023" lon="6.20946">
        <ele>1439.451538</ele>
        <time>2011-09-10T17:31:46Z</time>
      </trkpt>
      <trkpt lat="45.68018" lon="6.20946">
        <ele>1438.671021</ele>
        <time>2011-09-10T17:31:51Z</time>
      </trkpt>
      <trkpt lat="45.68013" lon="6.20946">
        <ele>1437.838379</ele>
        <time>2011-09-10T17:31:56Z</time>
      </trkpt>
      <trkpt lat="45.68008" lon="6.20946">
        <ele>1437.168213</ele>
        <time>2011-09-10T17:32:01Z</time>
      </trkpt>
      <trkpt lat="45.68003" lon="6.20947">
        <ele>1436.895996</ele>
        <time>2011-09-10T17:32:06Z</time>
      </trkpt>
      <trkpt lat="45.67997" lon="6.2095">
        <ele>1437.126465</ele>
        <time>2011-09-10T17:32:11Z</time>
      </trkpt>
      <trkpt lat="45.67993" lon="6.20954">
        <ele>1437.824463</ele>
        <time>2011-09-10T17:32:16Z</time>
      </trkpt>
      <trkpt lat="45.67988" lon="6.20957">
        <ele>1438.071533</ele>
        <time>2011-09-10T17:32:21Z</time>
      </trkpt>
      <trkpt lat="45.67982" lon="6.20957">
        <ele>1437.164185</ele>
        <time>2011-09-10T17:32:26Z</time>
      </trkpt>
      <trkpt lat="45.67977" lon="6.20953">
        <ele>1435.075073</ele>
        <time>2011-09-10T17:32:31Z</time>
      </trkpt>
      <trkpt lat="45.67974" lon="6.20948">
        <ele>1432.984985</ele>
        <time>2011-09-10T17:32:36Z</time>
      </trkpt>
      <trkpt lat="45.67972" lon="6.20945">
        <ele>1432.009033</ele>
        <time>2011-09-10T17:32:41Z</time>
      </trkpt>
      <trkpt lat="45.67967" lon="6.20941">
        <ele>1430.212524</ele>
        <time>2011-09-10T17:32:46Z</time>
      </trkpt>
      <trkpt lat="45.67963" lon="6.20941">
        <ele>1429.64624</ele>
        <time>2011-09-10T17:32:51Z</time>
      </trkpt>
      <trkpt lat="45.67958" lon="6.20944">
        <ele>1429.769409</ele>
        <time>2011-09-10T17:32:56Z</time>
      </trkpt>
      <trkpt lat="45.67953" lon="6.20947">
        <ele>1430.121582</ele>
        <time>2011-09-10T17:33:01Z</time>
      </trkpt>
      <trkpt lat="45.67948" lon="6.20949">
        <ele>1430.276367</ele>
        <time>2011-09-10T17:33:06Z</time>
      </trkpt>
      <trkpt lat="45.67943" lon="6.20953">
        <ele>1430.837646</ele>
        <time>2011-09-10T17:33:11Z</time>
      </trkpt>
      <trkpt lat="45.67938" lon="6.20957">
        <ele>1431.077148</ele>
        <time>2011-09-10T17:33:16Z</time>
      </trkpt>
      <trkpt lat="45.67932" lon="6.20958">
        <ele>1430.710815</ele>
        <time>2011-09-10T17:33:21Z</time>
      </trkpt>
      <trkpt lat="45.67927" lon="6.20957">
        <ele>1430.05957</ele>
        <time>2011-09-10T17:33:26Z</time>
      </trkpt>
      <trkpt lat="45.67922" lon="6.20956">
        <ele>1429.178589</ele>
        <time>2011-09-10T17:33:31Z</time>
      </trkpt>
      <trkpt lat="45.67917" lon="6.20953">
        <ele>1428.11499</ele>
        <time>2011-09-10T17:33:36Z</time>
      </trkpt>
      <trkpt lat="45.67911" lon="6.20951">
        <ele>1427.153809</ele>
        <time>2011-09-10T17:33:41Z</time>
      </trkpt>
      <trkpt lat="45.67906" lon="6.20948">
        <ele>1425.733398</ele>
        <time>2011-09-10T17:33:46Z</time>
      </trkpt>
      <trkpt lat="45.67901" lon="6.20945">
        <ele>1424.415527</ele>
        <time>2011-09-10T17:33:51Z</time>
      </trkpt>
      <trkpt lat="45.67896" lon="6.20942">
        <ele>1423.270264</ele>
        <time>2011-09-10T17:33:56Z</time>
      </trkpt>
      <trkpt lat="45.6789" lon="6.20941">
        <ele>1422.234497</ele>
        <time>2011-09-10T17:34:01Z</time>
      </trkpt>
      <trkpt lat="45.67885" lon="6.20942">
        <ele>1421.4823</ele>
        <time>2011-09-10T17:34:06Z</time>
      </trkpt>
      <trkpt lat="45.67879" lon="6.20942">
        <ele>1420.744019</ele>
        <time>2011-09-10T17:34:11Z</time>
      </trkpt>
      <trkpt lat="45.67874" lon="6.20945">
        <ele>1420.120117</ele>
        <time>2011-09-10T17:34:16Z</time>
      </trkpt>
      <trkpt lat="45.67869" lon="6.20947">
        <ele>1419.535767</ele>
        <time>2011-09-10T17:34:21Z</time>
      </trkpt>
      <trkpt lat="45.67864" lon="6.2095">
        <ele>1418.218872</ele>
        <time>2011-09-10T17:34:26Z</time>
      </trkpt>
      <trkpt lat="45.6786" lon="6.20955">
        <ele>1416.640625</ele>
        <time>2011-09-10T17:34:31Z</time>
      </trkpt>
      <trkpt lat="45.67856" lon="6.20959">
        <ele>1414.786987</ele>
        <time>2011-09-10T17:34:36Z</time>
      </trkpt>
      <trkpt lat="45.6785" lon="6.2096">
        <ele>1412.030518</ele>
        <time>2011-09-10T17:34:41Z</time>
      </trkpt>
      <trkpt lat="45.67846" lon="6.20962">
        <ele>1410.265015</ele>
        <time>2011-09-10T17:34:46Z</time>
      </trkpt>
      <trkpt lat="45.67843" lon="6.20963">
        <ele>1408.952515</ele>
        <time>2011-09-10T17:34:51Z</time>
      </trkpt>
      <trkpt lat="45.67843" lon="6.20963">
        <ele>1408.870117</ele>
        <time>2011-09-10T17:34:56Z</time>
      </trkpt>
      <trkpt lat="45.67843" lon="6.20962">
        <ele>1408.834961</ele>
        <time>2011-09-10T17:35:01Z</time>
      </trkpt>
      <trkpt lat="45.67842" lon="6.2096">
        <ele>1408.263062</ele>
        <time>2011-09-10T17:35:06Z</time>
      </trkpt>
      <trkpt lat="45.67841" lon="6.20959">
        <ele>1407.624023</ele>
        <time>2011-09-10T17:35:11Z</time>
      </trkpt>
      <trkpt lat="45.6784" lon="6.20959">
        <ele>1407.455078</ele>
        <time>2011-09-10T17:35:16Z</time>
      </trkpt>
      <trkpt lat="45.67841" lon="6.20952">
        <ele>1407.609741</ele>
        <time>2011-09-10T17:35:21Z</time>
      </trkpt>
      <trkpt lat="45.67843" lon="6.20944">
        <ele>1407.889648</ele>
        <time>2011-09-10T17:35:26Z</time>
      </trkpt>
      <trkpt lat="45.67845" lon="6.20937">
        <ele>1408.641846</ele>
        <time>2011-09-10T17:35:31Z</time>
      </trkpt>
      <trkpt lat="45.67848" lon="6.20931">
        <ele>1409.69104</ele>
        <time>2011-09-10T17:35:36Z</time>
      </trkpt>
      <trkpt lat="45.67851" lon="6.20924">
        <ele>1410.432007</ele>
        <time>2011-09-10T17:35:41Z</time>
      </trkpt>
      <trkpt lat="45.67851" lon="6.20916">
        <ele>1410.414307</ele>
        <time>2011-09-10T17:35:46Z</time>
      </trkpt>
      <trkpt lat="45.67851" lon="6.20908">
        <ele>1409.706177</ele>
        <time>2011-09-10T17:35:51Z</time>
      </trkpt>
      <trkpt lat="45.67848" lon="6.20901">
        <ele>1408.541992</ele>
        <time>2011-09-10T17:35:56Z</time>
      </trkpt>
      <trkpt lat="45.67846" lon="6.20894">
        <ele>1407.546875</ele>
        <time>2011-09-10T17:36:01Z</time>
      </trkpt>
      <trkpt lat="45.67844" lon="6.20887">
        <ele>1405.984497</ele>
        <time>2011-09-10T17:36:06Z</time>
      </trkpt>
      <trkpt lat="45.67842" lon="6.2088">
        <ele>1404.472656</ele>
        <time>2011-09-10T17:36:11Z</time>
      </trkpt>
      <trkpt lat="45.67843" lon="6.20872">
        <ele>1403.559326</ele>
        <time>2011-09-10T17:36:16Z</time>
      </trkpt>
      <trkpt lat="45.67844" lon="6.20866">
        <ele>1403.095093</ele>
        <time>2011-09-10T17:36:21Z</time>
      </trkpt>
      <trkpt lat="45.67848" lon="6.20861">
        <ele>1403.182007</ele>
        <time>2011-09-10T17:36:26Z</time>
      </trkpt>
      <trkpt lat="45.67852" lon="6.20855">
        <ele>1403.042114</ele>
        <time>2011-09-10T17:36:31Z</time>
      </trkpt>
      <trkpt lat="45.67853" lon="6.20848">
        <ele>1402.119995</ele>
        <time>2011-09-10T17:36:36Z</time>
      </trkpt>
      <trkpt lat="45.67851" lon="6.20841">
        <ele>1400.76709</ele>
        <time>2011-09-10T17:36:41Z</time>
      </trkpt>
      <trkpt lat="45.67848" lon="6.20835">
        <ele>1399.425903</ele>
        <time>2011-09-10T17:36:46Z</time>
      </trkpt>
      <trkpt lat="45.67846" lon="6.20828">
        <ele>1398.233887</ele>
        <time>2011-09-10T17:36:51Z</time>
      </trkpt>
      <trkpt lat="45.67846" lon="6.20821">
        <ele>1394.713257</ele>
        <time>2011-09-10T17:36:56Z</time>
      </trkpt>
      <trkpt lat="45.67847" lon="6.20816">
        <ele>1392.168701</ele>
        <time>2011-09-10T17:37:01Z</time>
      </trkpt>
      <trkpt lat="45.67848" lon="6.20812">
        <ele>1389.924072</ele>
        <time>2011-09-10T17:37:06Z</time>
      </trkpt>
      <trkpt lat="45.67852" lon="6.20803">
        <ele>1385.769531</ele>
        <time>2011-09-10T17:51:04Z</time>
      </trkpt>
      <trkpt lat="45.67857" lon="6.20803">
        <ele>1385.784668</ele>
        <time>2011-09-10T17:51:09Z</time>
      </trkpt>
      <trkpt lat="45.67862" lon="6.20803">
        <ele>1386.318726</ele>
        <time>2011-09-10T17:51:14Z</time>
      </trkpt>
      <trkpt lat="45.67866" lon="6.20804">
        <ele>1386.843262</ele>
        <time>2011-09-10T17:51:19Z</time>
      </trkpt>
      <trkpt lat="45.67871" lon="6.20805">
        <ele>1387.984619</ele>
        <time>2011-09-10T17:51:24Z</time>
      </trkpt>
      <trkpt lat="45.67875" lon="6.20808">
        <ele>1388.963379</ele>
        <time>2011-09-10T17:51:29Z</time>
      </trkpt>
      <trkpt lat="45.67879" lon="6.2081">
        <ele>1390.057129</ele>
        <time>2011-09-10T17:51:34Z</time>
      </trkpt>
      <trkpt lat="45.67885" lon="6.20812">
        <ele>1390.686401</ele>
        <time>2011-09-10T17:51:39Z</time>
      </trkpt>
      <trkpt lat="45.6789" lon="6.20813">
        <ele>1390.640747</ele>
        <time>2011-09-10T17:51:44Z</time>
      </trkpt>
      <trkpt lat="45.67894" lon="6.20814">
        <ele>1390.869263</ele>
        <time>2011-09-10T17:51:49Z</time>
      </trkpt>
      <trkpt lat="45.679" lon="6.20813">
        <ele>1390.248901</ele>
        <time>2011-09-10T17:51:54Z</time>
      </trkpt>
      <trkpt lat="45.67906" lon="6.20813">
        <ele>1389.942505</ele>
        <time>2011-09-10T17:51:59Z</time>
      </trkpt>
      <trkpt lat="45.67911" lon="6.20813">
        <ele>1389.574951</ele>
        <time>2011-09-10T17:52:04Z</time>
      </trkpt>
      <trkpt lat="45.67916" lon="6.20813">
        <ele>1389.046875</ele>
        <time>2011-09-10T17:52:09Z</time>
      </trkpt>
      <trkpt lat="45.67922" lon="6.20814">
        <ele>1388.739502</ele>
        <time>2011-09-10T17:52:14Z</time>
      </trkpt>
      <trkpt lat="45.67927" lon="6.20814">
        <ele>1388.111206</ele>
        <time>2011-09-10T17:52:19Z</time>
      </trkpt>
      <trkpt lat="45.67932" lon="6.20814">
        <ele>1387.818726</ele>
        <time>2011-09-10T17:52:24Z</time>
      </trkpt>
      <trkpt lat="45.67938" lon="6.20814">
        <ele>1387.072754</ele>
        <time>2011-09-10T17:52:29Z</time>
      </trkpt>
      <trkpt lat="45.67943" lon="6.20813">
        <ele>1386.323608</ele>
        <time>2011-09-10T17:52:34Z</time>
      </trkpt>
      <trkpt lat="45.67948" lon="6.20813">
        <ele>1385.435303</ele>
        <time>2011-09-10T17:52:39Z</time>
      </trkpt>
      <trkpt lat="45.67954" lon="6.20812">
        <ele>1384.459473</ele>
        <time>2011-09-10T17:52:44Z</time>
      </trkpt>
      <trkpt lat="45.6796" lon="6.20811">
        <ele>1383.428833</ele>
        <time>2011-09-10T17:52:49Z</time>
      </trkpt>
      <trkpt lat="45.67965" lon="6.20811">
        <ele>1382.831055</ele>
        <time>2011-09-10T17:52:54Z</time>
      </trkpt>
      <trkpt lat="45.6797" lon="6.20811">
        <ele>1382.306763</ele>
        <time>2011-09-10T17:52:59Z</time>
      </trkpt>
      <trkpt lat="45.67976" lon="6.2081">
        <ele>1381.667969</ele>
        <time>2011-09-10T17:53:04Z</time>
      </trkpt>
      <trkpt lat="45.67981" lon="6.2081">
        <ele>1381.242432</ele>
        <time>2011-09-10T17:53:09Z</time>
      </trkpt>
      <trkpt lat="45.67986" lon="6.20811">
        <ele>1380.870605</ele>
        <time>2011-09-10T17:53:14Z</time>
      </trkpt>
      <trkpt lat="45.67992" lon="6.20811">
        <ele>1380.378052</ele>
        <time>2011-09-10T17:53:19Z</time>
      </trkpt>
      <trkpt lat="45.67997" lon="6.20811">
        <ele>1379.930054</ele>
        <time>2011-09-10T17:53:24Z</time>
      </trkpt>
      <trkpt lat="45.68002" lon="6.20811">
        <ele>1379.446777</ele>
        <time>2011-09-10T17:53:29Z</time>
      </trkpt>
      <trkpt lat="45.68007" lon="6.20812">
        <ele>1379.506714</ele>
        <time>2011-09-10T17:53:34Z</time>
      </trkpt>
      <trkpt lat="45.68012" lon="6.20814">
        <ele>1380.461548</ele>
        <time>2011-09-10T17:53:39Z</time>
      </trkpt>
      <trkpt lat="45.68017" lon="6.20816">
        <ele>1381.286865</ele>
        <time>2011-09-10T17:53:44Z</time>
      </trkpt>
      <trkpt lat="45.68021" lon="6.20815">
        <ele>1381.158447</ele>
        <time>2011-09-10T17:53:49Z</time>
      </trkpt>
      <trkpt lat="45.68026" lon="6.20815">
        <ele>1381.164185</ele>
        <time>2011-09-10T17:53:54Z</time>
      </trkpt>
      <trkpt lat="45.68031" lon="6.20816">
        <ele>1381.32312</ele>
        <time>2011-09-10T17:53:59Z</time>
      </trkpt>
      <trkpt lat="45.68036" lon="6.20815">
        <ele>1381.246094</ele>
        <time>2011-09-10T17:54:04Z</time>
      </trkpt>
      <trkpt lat="45.68041" lon="6.20813">
        <ele>1380.206421</ele>
        <time>2011-09-10T17:54:09Z</time>
      </trkpt>
      <trkpt lat="45.68046" lon="6.20809">
        <ele>1378.857178</ele>
        <time>2011-09-10T17:54:14Z</time>
      </trkpt>
      <trkpt lat="45.68051" lon="6.20806">
        <ele>1377.909424</ele>
        <time>2011-09-10T17:54:19Z</time>
      </trkpt>
      <trkpt lat="45.68055" lon="6.20802">
        <ele>1376.576294</ele>
        <time>2011-09-10T17:54:24Z</time>
      </trkpt>
      <trkpt lat="45.68058" lon="6.20797">
        <ele>1375.237549</ele>
        <time>2011-09-10T17:54:29Z</time>
      </trkpt>
      <trkpt lat="45.68062" lon="6.20791">
        <ele>1373.599976</ele>
        <time>2011-09-10T17:54:34Z</time>
      </trkpt>
      <trkpt lat="45.68065" lon="6.20786">
        <ele>1372.002441</ele>
        <time>2011-09-10T17:54:39Z</time>
      </trkpt>
      <trkpt lat="45.68069" lon="6.2078">
        <ele>1370.226196</ele>
        <time>2011-09-10T17:54:44Z</time>
      </trkpt>
      <trkpt lat="45.68073" lon="6.20775">
        <ele>1369.507446</ele>
        <time>2011-09-10T17:54:49Z</time>
      </trkpt>
      <trkpt lat="45.68078" lon="6.20772">
        <ele>1369.280029</ele>
        <time>2011-09-10T17:54:54Z</time>
      </trkpt>
      <trkpt lat="45.68081" lon="6.2077">
        <ele>1369.32251</ele>
        <time>2011-09-10T17:54:59Z</time>
      </trkpt>
      <trkpt lat="45.68085" lon="6.20768">
        <ele>1369.487549</ele>
        <time>2011-09-10T17:55:04Z</time>
      </trkpt>
      <trkpt lat="45.68089" lon="6.20765">
        <ele>1369.122559</ele>
        <time>2011-09-10T17:55:09Z</time>
      </trkpt>
      <trkpt lat="45.68094" lon="6.20761">
        <ele>1368.682495</ele>
        <time>2011-09-10T17:55:14Z</time>
      </trkpt>
      <trkpt lat="45.68097" lon="6.20754">
        <ele>1367.147461</ele>
        <time>2011-09-10T17:55:19Z</time>
      </trkpt>
      <trkpt lat="45.681" lon="6.20749">
        <ele>1365.879395</ele>
        <time>2011-09-10T17:55:24Z</time>
      </trkpt>
      <trkpt lat="45.68103" lon="6.20742">
        <ele>1364.366455</ele>
        <time>2011-09-10T17:55:29Z</time>
      </trkpt>
      <trkpt lat="45.68106" lon="6.20736">
        <ele>1362.934814</ele>
        <time>2011-09-10T17:55:34Z</time>
      </trkpt>
      <trkpt lat="45.6811" lon="6.2073">
        <ele>1361.690063</ele>
        <time>2011-09-10T17:55:39Z</time>
      </trkpt>
      <trkpt lat="45.68111" lon="6.20724">
        <ele>1359.880981</ele>
        <time>2011-09-10T17:55:44Z</time>
      </trkpt>
      <trkpt lat="45.68114" lon="6.20719">
        <ele>1358.769287</ele>
        <time>2011-09-10T17:55:49Z</time>
      </trkpt>
      <trkpt lat="45.68119" lon="6.20716">
        <ele>1358.550171</ele>
        <time>2011-09-10T17:55:54Z</time>
      </trkpt>
      <trkpt lat="45.68124" lon="6.20713">
        <ele>1358.208984</ele>
        <time>2011-09-10T17:55:59Z</time>
      </trkpt>
      <trkpt lat="45.68129" lon="6.20709">
        <ele>1358.019531</ele>
        <time>2011-09-10T17:56:04Z</time>
      </trkpt>
      <trkpt lat="45.68134" lon="6.20705">
        <ele>1357.572021</ele>
        <time>2011-09-10T17:56:09Z</time>
      </trkpt>
      <trkpt lat="45.68139" lon="6.207">
        <ele>1356.897339</ele>
        <time>2011-09-10T17:56:14Z</time>
      </trkpt>
      <trkpt lat="45.68142" lon="6.20695">
        <ele>1356.08667</ele>
        <time>2011-09-10T17:56:19Z</time>
      </trkpt>
      <trkpt lat="45.68144" lon="6.20694">
        <ele>1356.135864</ele>
        <time>2011-09-10T17:56:24Z</time>
      </trkpt>
      <trkpt lat="45.68144" lon="6.20695">
        <ele>1356.500977</ele>
        <time>2011-09-10T17:56:29Z</time>
      </trkpt>
      <trkpt lat="45.68144" lon="6.20693">
        <ele>1355.980103</ele>
        <time>2011-09-10T17:56:34Z</time>
      </trkpt>
      <trkpt lat="45.68145" lon="6.20689">
        <ele>1355.013184</ele>
        <time>2011-09-10T17:56:39Z</time>
      </trkpt>
      <trkpt lat="45.68147" lon="6.20684">
        <ele>1353.793213</ele>
        <time>2011-09-10T17:56:44Z</time>
      </trkpt>
      <trkpt lat="45.68149" lon="6.20677">
        <ele>1352.80249</ele>
        <time>2011-09-10T17:56:49Z</time>
      </trkpt>
      <trkpt lat="45.6815" lon="6.20671">
        <ele>1351.341553</ele>
        <time>2011-09-10T17:56:54Z</time>
      </trkpt>
      <trkpt lat="45.68151" lon="6.20664">
        <ele>1349.435547</ele>
        <time>2011-09-10T17:56:59Z</time>
      </trkpt>
      <trkpt lat="45.6815" lon="6.20657">
        <ele>1347.364624</ele>
        <time>2011-09-10T17:57:04Z</time>
      </trkpt>
      <trkpt lat="45.68147" lon="6.20652">
        <ele>1344.678955</ele>
        <time>2011-09-10T17:57:09Z</time>
      </trkpt>
      <trkpt lat="45.68142" lon="6.20652">
        <ele>1343.527222</ele>
        <time>2011-09-10T17:57:14Z</time>
      </trkpt>
      <trkpt lat="45.68138" lon="6.20656">
        <ele>1343.966919</ele>
        <time>2011-09-10T17:57:19Z</time>
      </trkpt>
      <trkpt lat="45.68136" lon="6.20663">
        <ele>1345.369141</ele>
        <time>2011-09-10T17:57:24Z</time>
      </trkpt>
      <trkpt lat="45.68132" lon="6.20668">
        <ele>1346.321655</ele>
        <time>2011-09-10T17:57:29Z</time>
      </trkpt>
      <trkpt lat="45.68129" lon="6.20675">
        <ele>1347.635132</ele>
        <time>2011-09-10T17:57:34Z</time>
      </trkpt>
      <trkpt lat="45.68125" lon="6.20678">
        <ele>1347.818115</ele>
        <time>2011-09-10T17:57:39Z</time>
      </trkpt>
      <trkpt lat="45.68121" lon="6.20678">
        <ele>1346.825439</ele>
        <time>2011-09-10T17:57:44Z</time>
      </trkpt>
      <trkpt lat="45.68116" lon="6.20676">
        <ele>1345.483276</ele>
        <time>2011-09-10T17:57:49Z</time>
      </trkpt>
      <trkpt lat="45.68112" lon="6.20675">
        <ele>1344.155762</ele>
        <time>2011-09-10T17:57:54Z</time>
      </trkpt>
      <trkpt lat="45.68107" lon="6.20674">
        <ele>1343.025146</ele>
        <time>2011-09-10T17:57:59Z</time>
      </trkpt>
      <trkpt lat="45.68103" lon="6.20674">
        <ele>1342.174805</ele>
        <time>2011-09-10T17:58:04Z</time>
      </trkpt>
      <trkpt lat="45.68098" lon="6.20675">
        <ele>1341.718628</ele>
        <time>2011-09-10T17:58:09Z</time>
      </trkpt>
      <trkpt lat="45.68094" lon="6.20676">
        <ele>1341.497437</ele>
        <time>2011-09-10T17:58:14Z</time>
      </trkpt>
      <trkpt lat="45.68089" lon="6.20677">
        <ele>1341.162964</ele>
        <time>2011-09-10T17:58:19Z</time>
      </trkpt>
      <trkpt lat="45.68085" lon="6.2068">
        <ele>1341.674927</ele>
        <time>2011-09-10T17:58:24Z</time>
      </trkpt>
      <trkpt lat="45.68082" lon="6.2068">
        <ele>1341.123657</ele>
        <time>2011-09-10T17:58:29Z</time>
      </trkpt>
      <trkpt lat="45.68078" lon="6.20678">
        <ele>1340.178223</ele>
        <time>2011-09-10T17:58:34Z</time>
      </trkpt>
      <trkpt lat="45.68073" lon="6.20675">
        <ele>1338.57666</ele>
        <time>2011-09-10T17:58:39Z</time>
      </trkpt>
      <trkpt lat="45.6807" lon="6.20673">
        <ele>1337.626587</ele>
        <time>2011-09-10T17:58:44Z</time>
      </trkpt>
      <trkpt lat="45.68069" lon="6.20668">
        <ele>1336.050781</ele>
        <time>2011-09-10T17:58:49Z</time>
      </trkpt>
      <trkpt lat="45.68067" lon="6.20663">
        <ele>1334.412354</ele>
        <time>2011-09-10T17:58:54Z</time>
      </trkpt>
      <trkpt lat="45.68065" lon="6.20657">
        <ele>1332.626587</ele>
        <time>2011-09-10T17:58:59Z</time>
      </trkpt>
      <trkpt lat="45.68062" lon="6.20652">
        <ele>1330.851563</ele>
        <time>2011-09-10T17:59:04Z</time>
      </trkpt>
      <trkpt lat="45.68058" lon="6.20648">
        <ele>1329.375</ele>
        <time>2011-09-10T17:59:09Z</time>
      </trkpt>
      <trkpt lat="45.68058" lon="6.20644">
        <ele>1328.0625</ele>
        <time>2011-09-10T17:59:14Z</time>
      </trkpt>
      <trkpt lat="45.68057" lon="6.20641">
        <ele>1327.046387</ele>
        <time>2011-09-10T17:59:19Z</time>
      </trkpt>
      <trkpt lat="45.68055" lon="6.20637">
        <ele>1325.467407</ele>
        <time>2011-09-10T17:59:24Z</time>
      </trkpt>
      <trkpt lat="45.68051" lon="6.20633">
        <ele>1323.644165</ele>
        <time>2011-09-10T17:59:29Z</time>
      </trkpt>
      <trkpt lat="45.68046" lon="6.2063">
        <ele>1321.966064</ele>
        <time>2011-09-10T17:59:34Z</time>
      </trkpt>
      <trkpt lat="45.68042" lon="6.20626">
        <ele>1319.858032</ele>
        <time>2011-09-10T17:59:39Z</time>
      </trkpt>
      <trkpt lat="45.68037" lon="6.20621">
        <ele>1317.788086</ele>
        <time>2011-09-10T17:59:44Z</time>
      </trkpt>
      <trkpt lat="45.68033" lon="6.2062">
        <ele>1316.639526</ele>
        <time>2011-09-10T17:59:49Z</time>
      </trkpt>
      <trkpt lat="45.68027" lon="6.20616">
        <ele>1314.731201</ele>
        <time>2011-09-10T17:59:54Z</time>
      </trkpt>
      <trkpt lat="45.68022" lon="6.20612">
        <ele>1312.845215</ele>
        <time>2011-09-10T17:59:59Z</time>
      </trkpt>
      <trkpt lat="45.68017" lon="6.20611">
        <ele>1311.974121</ele>
        <time>2011-09-10T18:00:04Z</time>
      </trkpt>
      <trkpt lat="45.68013" lon="6.20607">
        <ele>1310.087158</ele>
        <time>2011-09-10T18:00:09Z</time>
      </trkpt>
      <trkpt lat="45.68011" lon="6.20604">
        <ele>1308.758667</ele>
        <time>2011-09-10T18:00:14Z</time>
      </trkpt>
      <trkpt lat="45.6801" lon="6.20601">
        <ele>1307.87915</ele>
        <time>2011-09-10T18:00:19Z</time>
      </trkpt>
      <trkpt lat="45.68007" lon="6.20596">
        <ele>1305.750488</ele>
        <time>2011-09-10T18:00:24Z</time>
      </trkpt>
      <trkpt lat="45.68005" lon="6.20591">
        <ele>1303.940918</ele>
        <time>2011-09-10T18:00:29Z</time>
      </trkpt>
      <trkpt lat="45.68003" lon="6.20584">
        <ele>1301.750366</ele>
        <time>2011-09-10T18:00:34Z</time>
      </trkpt>
      <trkpt lat="45.68003" lon="6.20578">
        <ele>1300.031738</ele>
        <time>2011-09-10T18:00:39Z</time>
      </trkpt>
      <trkpt lat="45.68003" lon="6.20571">
        <ele>1298.369751</ele>
        <time>2011-09-10T18:00:44Z</time>
      </trkpt>
      <trkpt lat="45.68003" lon="6.20566">
        <ele>1297.013184</ele>
        <time>2011-09-10T18:00:49Z</time>
      </trkpt>
      <trkpt lat="45.68002" lon="6.2056">
        <ele>1295.381714</ele>
        <time>2011-09-10T18:00:54Z</time>
      </trkpt>
      <trkpt lat="45.68002" lon="6.20554">
        <ele>1293.722412</ele>
        <time>2011-09-10T18:00:59Z</time>
      </trkpt>
      <trkpt lat="45.68002" lon="6.20547">
        <ele>1292.020996</ele>
        <time>2011-09-10T18:01:04Z</time>
      </trkpt>
      <trkpt lat="45.68001" lon="6.2054">
        <ele>1290.242065</ele>
        <time>2011-09-10T18:01:09Z</time>
      </trkpt>
      <trkpt lat="45.68" lon="6.20537">
        <ele>1289.504517</ele>
        <time>2011-09-10T18:01:14Z</time>
      </trkpt>
      <trkpt lat="45.67997" lon="6.20533">
        <ele>1288.302002</ele>
        <time>2011-09-10T18:01:19Z</time>
      </trkpt>
      <trkpt lat="45.67992" lon="6.20532">
        <ele>1287.505981</ele>
        <time>2011-09-10T18:01:24Z</time>
      </trkpt>
      <trkpt lat="45.67988" lon="6.20533">
        <ele>1287.3125</ele>
        <time>2011-09-10T18:01:29Z</time>
      </trkpt>
      <trkpt lat="45.67982" lon="6.20533">
        <ele>1286.764038</ele>
        <time>2011-09-10T18:01:34Z</time>
      </trkpt>
      <trkpt lat="45.67976" lon="6.20534">
        <ele>1286.429321</ele>
        <time>2011-09-10T18:01:39Z</time>
      </trkpt>
      <trkpt lat="45.67973" lon="6.20537">
        <ele>1286.534546</ele>
        <time>2011-09-10T18:01:44Z</time>
      </trkpt>
      <trkpt lat="45.67967" lon="6.20538">
        <ele>1285.250488</ele>
        <time>2011-09-10T18:01:49Z</time>
      </trkpt>
      <trkpt lat="45.67965" lon="6.20536">
        <ele>1284.150024</ele>
        <time>2011-09-10T18:01:54Z</time>
      </trkpt>
      <trkpt lat="45.67962" lon="6.20538">
        <ele>1283.4729</ele>
        <time>2011-09-10T18:01:59Z</time>
      </trkpt>
      <trkpt lat="45.6796" lon="6.20538">
        <ele>1282.955688</ele>
        <time>2011-09-10T18:02:04Z</time>
      </trkpt>
      <trkpt lat="45.67957" lon="6.20538">
        <ele>1282.048584</ele>
        <time>2011-09-10T18:02:09Z</time>
      </trkpt>
      <trkpt lat="45.67953" lon="6.20538">
        <ele>1280.695801</ele>
        <time>2011-09-10T18:02:14Z</time>
      </trkpt>
      <trkpt lat="45.67949" lon="6.20538">
        <ele>1279.318726</ele>
        <time>2011-09-10T18:02:19Z</time>
      </trkpt>
      <trkpt lat="45.67944" lon="6.20535">
        <ele>1277.669067</ele>
        <time>2011-09-10T18:02:24Z</time>
      </trkpt>
      <trkpt lat="45.67943" lon="6.20529">
        <ele>1276.263184</ele>
        <time>2011-09-10T18:02:29Z</time>
      </trkpt>
      <trkpt lat="45.67942" lon="6.20524">
        <ele>1275.19873</ele>
        <time>2011-09-10T18:02:34Z</time>
      </trkpt>
      <trkpt lat="45.67943" lon="6.2052">
        <ele>1275.097656</ele>
        <time>2011-09-10T18:02:39Z</time>
      </trkpt>
      <trkpt lat="45.67943" lon="6.20516">
        <ele>1274.288208</ele>
        <time>2011-09-10T18:02:44Z</time>
      </trkpt>
      <trkpt lat="45.67943" lon="6.20512">
        <ele>1273.395996</ele>
        <time>2011-09-10T18:02:49Z</time>
      </trkpt>
      <trkpt lat="45.67942" lon="6.20506">
        <ele>1271.935669</ele>
        <time>2011-09-10T18:02:54Z</time>
      </trkpt>
      <trkpt lat="45.67941" lon="6.20501">
        <ele>1270.640015</ele>
        <time>2011-09-10T18:02:59Z</time>
      </trkpt>
      <trkpt lat="45.67941" lon="6.20494">
        <ele>1268.905029</ele>
        <time>2011-09-10T18:03:04Z</time>
      </trkpt>
      <trkpt lat="45.67942" lon="6.20486">
        <ele>1267.353149</ele>
        <time>2011-09-10T18:03:09Z</time>
      </trkpt>
      <trkpt lat="45.67941" lon="6.2048">
        <ele>1265.894897</ele>
        <time>2011-09-10T18:03:14Z</time>
      </trkpt>
      <trkpt lat="45.67941" lon="6.20474">
        <ele>1264.303589</ele>
        <time>2011-09-10T18:03:19Z</time>
      </trkpt>
      <trkpt lat="45.67939" lon="6.2047">
        <ele>1262.982178</ele>
        <time>2011-09-10T18:03:24Z</time>
      </trkpt>
      <trkpt lat="45.67936" lon="6.20467">
        <ele>1261.836792</ele>
        <time>2011-09-10T18:03:29Z</time>
      </trkpt>
      <trkpt lat="45.67933" lon="6.20465">
        <ele>1260.97998</ele>
        <time>2011-09-10T18:03:34Z</time>
      </trkpt>
      <trkpt lat="45.67927" lon="6.20464">
        <ele>1259.478882</ele>
        <time>2011-09-10T18:03:39Z</time>
      </trkpt>
      <trkpt lat="45.67921" lon="6.20464">
        <ele>1257.665894</ele>
        <time>2011-09-10T18:03:44Z</time>
      </trkpt>
      <trkpt lat="45.67917" lon="6.20461">
        <ele>1255.901489</ele>
        <time>2011-09-10T18:03:49Z</time>
      </trkpt>
      <trkpt lat="45.67913" lon="6.20462">
        <ele>1255.059692</ele>
        <time>2011-09-10T18:03:54Z</time>
      </trkpt>
      <trkpt lat="45.67909" lon="6.20465">
        <ele>1254.37793</ele>
        <time>2011-09-10T18:03:59Z</time>
      </trkpt>
      <trkpt lat="45.67904" lon="6.20466">
        <ele>1253.392334</ele>
        <time>2011-09-10T18:04:04Z</time>
      </trkpt>
      <trkpt lat="45.67899" lon="6.2047">
        <ele>1252.398315</ele>
        <time>2011-09-10T18:04:09Z</time>
      </trkpt>
      <trkpt lat="45.67894" lon="6.20473">
        <ele>1251.621704</ele>
        <time>2011-09-10T18:04:14Z</time>
      </trkpt>
      <trkpt lat="45.67891" lon="6.20478">
        <ele>1251.589966</ele>
        <time>2011-09-10T18:04:19Z</time>
      </trkpt>
      <trkpt lat="45.67887" lon="6.20484">
        <ele>1251.384521</ele>
        <time>2011-09-10T18:04:24Z</time>
      </trkpt>
      <trkpt lat="45.67884" lon="6.20488">
        <ele>1251.042236</ele>
        <time>2011-09-10T18:04:29Z</time>
      </trkpt>
      <trkpt lat="45.67881" lon="6.20492">
        <ele>1250.894165</ele>
        <time>2011-09-10T18:04:34Z</time>
      </trkpt>
      <trkpt lat="45.67877" lon="6.20495">
        <ele>1249.919678</ele>
        <time>2011-09-10T18:04:39Z</time>
      </trkpt>
      <trkpt lat="45.67874" lon="6.20501">
        <ele>1249.615845</ele>
        <time>2011-09-10T18:04:44Z</time>
      </trkpt>
      <trkpt lat="45.6787" lon="6.20504">
        <ele>1248.922485</ele>
        <time>2011-09-10T18:04:49Z</time>
      </trkpt>
      <trkpt lat="45.67867" lon="6.20509">
        <ele>1248.5802</ele>
        <time>2011-09-10T18:04:54Z</time>
      </trkpt>
      <trkpt lat="45.67864" lon="6.20512">
        <ele>1248.605713</ele>
        <time>2011-09-10T18:04:59Z</time>
      </trkpt>
      <trkpt lat="45.6786" lon="6.20514">
        <ele>1247.596924</ele>
        <time>2011-09-10T18:05:04Z</time>
      </trkpt>
      <trkpt lat="45.67855" lon="6.20514">
        <ele>1246.208008</ele>
        <time>2011-09-10T18:05:09Z</time>
      </trkpt>
      <trkpt lat="45.6785" lon="6.20514">
        <ele>1244.429932</ele>
        <time>2011-09-10T18:05:14Z</time>
      </trkpt>
      <trkpt lat="45.67847" lon="6.20512">
        <ele>1242.541504</ele>
        <time>2011-09-10T18:05:19Z</time>
      </trkpt>
      <trkpt lat="45.67842" lon="6.2051">
        <ele>1240.141724</ele>
        <time>2011-09-10T18:05:24Z</time>
      </trkpt>
      <trkpt lat="45.67836" lon="6.20508">
        <ele>1237.507446</ele>
        <time>2011-09-10T18:05:29Z</time>
      </trkpt>
      <trkpt lat="45.67829" lon="6.20509">
        <ele>1237.1073</ele>
        <time>2011-09-10T18:05:34Z</time>
      </trkpt>
      <trkpt lat="45.67824" lon="6.20512">
        <ele>1237.689331</ele>
        <time>2011-09-10T18:05:39Z</time>
      </trkpt>
      <trkpt lat="45.67819" lon="6.20515">
        <ele>1238.137451</ele>
        <time>2011-09-10T18:05:44Z</time>
      </trkpt>
      <trkpt lat="45.67814" lon="6.20521">
        <ele>1239.442505</ele>
        <time>2011-09-10T18:05:49Z</time>
      </trkpt>
      <trkpt lat="45.6781" lon="6.20522">
        <ele>1239.085571</ele>
        <time>2011-09-10T18:05:54Z</time>
      </trkpt>
      <trkpt lat="45.67804" lon="6.2052">
        <ele>1237.706055</ele>
        <time>2011-09-10T18:05:59Z</time>
      </trkpt>
      <trkpt lat="45.67798" lon="6.20519">
        <ele>1236.146973</ele>
        <time>2011-09-10T18:06:04Z</time>
      </trkpt>
      <trkpt lat="45.67791" lon="6.20518">
        <ele>1234.939697</ele>
        <time>2011-09-10T18:06:09Z</time>
      </trkpt>
      <trkpt lat="45.67786" lon="6.20515">
        <ele>1232.865356</ele>
        <time>2011-09-10T18:06:14Z</time>
      </trkpt>
      <trkpt lat="45.67781" lon="6.20511">
        <ele>1230.689209</ele>
        <time>2011-09-10T18:06:19Z</time>
      </trkpt>
      <trkpt lat="45.67777" lon="6.20509">
        <ele>1228.883057</ele>
        <time>2011-09-10T18:06:24Z</time>
      </trkpt>
      <trkpt lat="45.67772" lon="6.20505">
        <ele>1226.355713</ele>
        <time>2011-09-10T18:06:29Z</time>
      </trkpt>
      <trkpt lat="45.67773" lon="6.205">
        <ele>1224.857544</ele>
        <time>2011-09-10T18:06:34Z</time>
      </trkpt>
      <trkpt lat="45.67775" lon="6.20495">
        <ele>1224.138062</ele>
        <time>2011-09-10T18:06:39Z</time>
      </trkpt>
      <trkpt lat="45.67777" lon="6.2049">
        <ele>1223.55835</ele>
        <time>2011-09-10T18:06:44Z</time>
      </trkpt>
      <trkpt lat="45.67779" lon="6.20486">
        <ele>1223.242554</ele>
        <time>2011-09-10T18:06:49Z</time>
      </trkpt>
      <trkpt lat="45.6778" lon="6.20481">
        <ele>1222.571289</ele>
        <time>2011-09-10T18:06:54Z</time>
      </trkpt>
      <trkpt lat="45.67781" lon="6.20475">
        <ele>1221.351685</ele>
        <time>2011-09-10T18:06:59Z</time>
      </trkpt>
      <trkpt lat="45.67783" lon="6.20469">
        <ele>1220.524902</ele>
        <time>2011-09-10T18:07:04Z</time>
      </trkpt>
      <trkpt lat="45.67782" lon="6.20468">
        <ele>1220.104736</ele>
        <time>2011-09-10T18:07:09Z</time>
      </trkpt>
      <trkpt lat="45.67783" lon="6.20462">
        <ele>1218.783325</ele>
        <time>2011-09-10T18:07:14Z</time>
      </trkpt>
      <trkpt lat="45.67782" lon="6.20455">
        <ele>1217.146973</ele>
        <time>2011-09-10T18:07:19Z</time>
      </trkpt>
      <trkpt lat="45.67782" lon="6.2045">
        <ele>1216.205688</ele>
        <time>2011-09-10T18:07:24Z</time>
      </trkpt>
      <trkpt lat="45.67782" lon="6.20448">
        <ele>1215.68811</ele>
        <time>2011-09-10T18:07:29Z</time>
      </trkpt>
      <trkpt lat="45.6778" lon="6.20447">
        <ele>1214.749634</ele>
        <time>2011-09-10T18:07:34Z</time>
      </trkpt>
      <trkpt lat="45.67775" lon="6.20444">
        <ele>1212.822754</ele>
        <time>2011-09-10T18:07:39Z</time>
      </trkpt>
      <trkpt lat="45.6777" lon="6.20444">
        <ele>1211.41687</ele>
        <time>2011-09-10T18:07:44Z</time>
      </trkpt>
      <trkpt lat="45.67765" lon="6.20444">
        <ele>1210.133301</ele>
        <time>2011-09-10T18:07:49Z</time>
      </trkpt>
      <trkpt lat="45.6776" lon="6.20445">
        <ele>1208.975708</ele>
        <time>2011-09-10T18:07:54Z</time>
      </trkpt>
      <trkpt lat="45.67755" lon="6.20444">
        <ele>1207.505615</ele>
        <time>2011-09-10T18:07:59Z</time>
      </trkpt>
      <trkpt lat="45.6775" lon="6.20448">
        <ele>1207.122314</ele>
        <time>2011-09-10T18:08:04Z</time>
      </trkpt>
      <trkpt lat="45.67748" lon="6.20452">
        <ele>1207.822266</ele>
        <time>2011-09-10T18:08:09Z</time>
      </trkpt>
      <trkpt lat="45.67746" lon="6.20458">
        <ele>1209.060913</ele>
        <time>2011-09-10T18:08:14Z</time>
      </trkpt>
      <trkpt lat="45.67744" lon="6.20466">
        <ele>1210.791382</ele>
        <time>2011-09-10T18:08:19Z</time>
      </trkpt>
      <trkpt lat="45.67742" lon="6.20475">
        <ele>1212.94397</ele>
        <time>2011-09-10T18:08:24Z</time>
      </trkpt>
      <trkpt lat="45.67739" lon="6.20477">
        <ele>1213.519043</ele>
        <time>2011-09-10T18:08:29Z</time>
      </trkpt>
      <trkpt lat="45.67735" lon="6.20479">
        <ele>1214.11438</ele>
        <time>2011-09-10T18:08:34Z</time>
      </trkpt>
      <trkpt lat="45.67729" lon="6.20475">
        <ele>1212.948853</ele>
        <time>2011-09-10T18:08:39Z</time>
      </trkpt>
      <trkpt lat="45.67724" lon="6.20469">
        <ele>1210.909058</ele>
        <time>2011-09-10T18:08:44Z</time>
      </trkpt>
      <trkpt lat="45.67722" lon="6.20463">
        <ele>1208.671509</ele>
        <time>2011-09-10T18:08:49Z</time>
      </trkpt>
      <trkpt lat="45.6772" lon="6.20462">
        <ele>1208.313477</ele>
        <time>2011-09-10T18:08:54Z</time>
      </trkpt>
      <trkpt lat="45.67715" lon="6.20459">
        <ele>1206.849976</ele>
        <time>2011-09-10T18:08:59Z</time>
      </trkpt>
      <trkpt lat="45.67712" lon="6.20455">
        <ele>1205.139404</ele>
        <time>2011-09-10T18:09:04Z</time>
      </trkpt>
      <trkpt lat="45.67705" lon="6.2045">
        <ele>1202.462769</ele>
        <time>2011-09-10T18:09:09Z</time>
      </trkpt>
      <trkpt lat="45.67702" lon="6.20446">
        <ele>1200.73938</ele>
        <time>2011-09-10T18:09:14Z</time>
      </trkpt>
      <trkpt lat="45.67697" lon="6.20441">
        <ele>1199.177856</ele>
        <time>2011-09-10T18:09:19Z</time>
      </trkpt>
      <trkpt lat="45.67691" lon="6.20439">
        <ele>1198.867065</ele>
        <time>2011-09-10T18:09:24Z</time>
      </trkpt>
      <trkpt lat="45.67686" lon="6.20437">
        <ele>1198.498291</ele>
        <time>2011-09-10T18:09:29Z</time>
      </trkpt>
      <trkpt lat="45.6768" lon="6.20432">
        <ele>1197.166382</ele>
        <time>2011-09-10T18:09:34Z</time>
      </trkpt>
      <trkpt lat="45.67674" lon="6.20426">
        <ele>1195.115356</ele>
        <time>2011-09-10T18:09:39Z</time>
      </trkpt>
      <trkpt lat="45.67667" lon="6.20425">
        <ele>1195.522217</ele>
        <time>2011-09-10T18:09:44Z</time>
      </trkpt>
      <trkpt lat="45.67663" lon="6.20424">
        <ele>1195.537598</ele>
        <time>2011-09-10T18:09:49Z</time>
      </trkpt>
      <trkpt lat="45.67661" lon="6.20422">
        <ele>1194.650757</ele>
        <time>2011-09-10T18:09:54Z</time>
      </trkpt>
      <trkpt lat="45.67658" lon="6.20418">
        <ele>1193.359253</ele>
        <time>2011-09-10T18:09:59Z</time>
      </trkpt>
      <trkpt lat="45.67655" lon="6.20415">
        <ele>1192.345093</ele>
        <time>2011-09-10T18:10:04Z</time>
      </trkpt>
      <trkpt lat="45.6765" lon="6.20413">
        <ele>1191.532471</ele>
        <time>2011-09-10T18:10:09Z</time>
      </trkpt>
      <trkpt lat="45.67643" lon="6.2041">
        <ele>1191.021118</ele>
        <time>2011-09-10T18:10:14Z</time>
      </trkpt>
      <trkpt lat="45.67638" lon="6.20406">
        <ele>1189.736572</ele>
        <time>2011-09-10T18:10:19Z</time>
      </trkpt>
      <trkpt lat="45.67632" lon="6.20402">
        <ele>1188.452881</ele>
        <time>2011-09-10T18:10:24Z</time>
      </trkpt>
      <trkpt lat="45.67627" lon="6.20399">
        <ele>1187.547852</ele>
        <time>2011-09-10T18:10:29Z</time>
      </trkpt>
      <trkpt lat="45.67624" lon="6.20397">
        <ele>1187.095825</ele>
        <time>2011-09-10T18:10:34Z</time>
      </trkpt>
      <trkpt lat="45.67618" lon="6.20394">
        <ele>1186.044678</ele>
        <time>2011-09-10T18:10:39Z</time>
      </trkpt>
      <trkpt lat="45.67616" lon="6.20392">
        <ele>1185.539795</ele>
        <time>2011-09-10T18:10:44Z</time>
      </trkpt>
      <trkpt lat="45.67608" lon="6.20388">
        <ele>1183.466797</ele>
        <time>2011-09-10T18:10:49Z</time>
      </trkpt>
      <trkpt lat="45.67602" lon="6.20387">
        <ele>1182.533691</ele>
        <time>2011-09-10T18:10:54Z</time>
      </trkpt>
      <trkpt lat="45.67597" lon="6.20384">
        <ele>1180.872192</ele>
        <time>2011-09-10T18:10:59Z</time>
      </trkpt>
      <trkpt lat="45.67591" lon="6.2038">
        <ele>1179.094849</ele>
        <time>2011-09-10T18:11:04Z</time>
      </trkpt>
      <trkpt lat="45.67585" lon="6.20379">
        <ele>1178.312622</ele>
        <time>2011-09-10T18:11:09Z</time>
      </trkpt>
      <trkpt lat="45.6758" lon="6.20381">
        <ele>1178.578491</ele>
        <time>2011-09-10T18:11:14Z</time>
      </trkpt>
      <trkpt lat="45.67576" lon="6.20382">
        <ele>1178.435547</ele>
        <time>2011-09-10T18:11:19Z</time>
      </trkpt>
      <trkpt lat="45.67571" lon="6.20378">
        <ele>1176.62854</ele>
        <time>2011-09-10T18:11:24Z</time>
      </trkpt>
      <trkpt lat="45.67569" lon="6.20377">
        <ele>1176.009766</ele>
        <time>2011-09-10T18:11:29Z</time>
      </trkpt>
      <trkpt lat="45.67564" lon="6.20377">
        <ele>1175.125244</ele>
        <time>2011-09-10T18:11:34Z</time>
      </trkpt>
      <trkpt lat="45.67562" lon="6.20377">
        <ele>1174.557373</ele>
        <time>2011-09-10T18:11:39Z</time>
      </trkpt>
      <trkpt lat="45.67557" lon="6.20373">
        <ele>1172.443237</ele>
        <time>2011-09-10T18:11:44Z</time>
      </trkpt>
      <trkpt lat="45.67556" lon="6.2037">
        <ele>1171.095703</ele>
        <time>2011-09-10T18:11:49Z</time>
      </trkpt>
      <trkpt lat="45.67552" lon="6.20364">
        <ele>1168.445679</ele>
        <time>2011-09-10T18:11:54Z</time>
      </trkpt>
      <trkpt lat="45.67551" lon="6.2036">
        <ele>1166.609497</ele>
        <time>2011-09-10T18:11:59Z</time>
      </trkpt>
      <trkpt lat="45.67549" lon="6.20354">
        <ele>1164.286255</ele>
        <time>2011-09-10T18:12:04Z</time>
      </trkpt>
      <trkpt lat="45.67544" lon="6.20347">
        <ele>1161.301758</ele>
        <time>2011-09-10T18:12:09Z</time>
      </trkpt>
      <trkpt lat="45.6754" lon="6.20343">
        <ele>1159.341064</ele>
        <time>2011-09-10T18:12:14Z</time>
      </trkpt>
      <trkpt lat="45.67537" lon="6.20339">
        <ele>1157.648682</ele>
        <time>2011-09-10T18:12:19Z</time>
      </trkpt>
      <trkpt lat="45.67535" lon="6.20337">
        <ele>1156.563843</ele>
        <time>2011-09-10T18:12:24Z</time>
      </trkpt>
      <trkpt lat="45.67532" lon="6.20335">
        <ele>1155.481689</ele>
        <time>2011-09-10T18:12:29Z</time>
      </trkpt>
      <trkpt lat="45.67528" lon="6.2033">
        <ele>1153.688232</ele>
        <time>2011-09-10T18:12:34Z</time>
      </trkpt>
      <trkpt lat="45.67526" lon="6.20327">
        <ele>1151.639526</ele>
        <time>2011-09-10T18:12:39Z</time>
      </trkpt>
      <trkpt lat="45.67523" lon="6.20321">
        <ele>1148.74939</ele>
        <time>2011-09-10T18:12:44Z</time>
      </trkpt>
      <trkpt lat="45.67521" lon="6.20318">
        <ele>1147.264526</ele>
        <time>2011-09-10T18:12:49Z</time>
      </trkpt>
      <trkpt lat="45.67521" lon="6.20312">
        <ele>1145.127197</ele>
        <time>2011-09-10T18:12:54Z</time>
      </trkpt>
      <trkpt lat="45.67521" lon="6.20311">
        <ele>1144.880005</ele>
        <time>2011-09-10T18:12:59Z</time>
      </trkpt>
      <trkpt lat="45.67521" lon="6.20307">
        <ele>1143.730347</ele>
        <time>2011-09-10T18:13:04Z</time>
      </trkpt>
      <trkpt lat="45.67521" lon="6.20303">
        <ele>1142.152832</ele>
        <time>2011-09-10T18:13:09Z</time>
      </trkpt>
      <trkpt lat="45.6752" lon="6.20296">
        <ele>1139.88855</ele>
        <time>2011-09-10T18:13:14Z</time>
      </trkpt>
      <trkpt lat="45.67521" lon="6.2029">
        <ele>1138.249878</ele>
        <time>2011-09-10T18:13:19Z</time>
      </trkpt>
      <trkpt lat="45.6752" lon="6.2029">
        <ele>1138.153564</ele>
        <time>2011-09-10T18:13:24Z</time>
      </trkpt>
      <trkpt lat="45.67521" lon="6.20291">
        <ele>1138.366455</ele>
        <time>2011-09-10T18:13:29Z</time>
      </trkpt>
      <trkpt lat="45.67522" lon="6.20289">
        <ele>1138.349365</ele>
        <time>2011-09-10T18:13:34Z</time>
      </trkpt>
      <trkpt lat="45.67521" lon="6.20288">
        <ele>1138.062622</ele>
        <time>2011-09-10T18:13:39Z</time>
      </trkpt>
      <trkpt lat="45.67521" lon="6.20287">
        <ele>1137.802856</ele>
        <time>2011-09-10T18:13:44Z</time>
      </trkpt>
      <trkpt lat="45.67521" lon="6.20284">
        <ele>1137.311035</ele>
        <time>2011-09-10T18:13:49Z</time>
      </trkpt>
      <trkpt lat="45.67521" lon="6.20282">
        <ele>1136.881592</ele>
        <time>2011-09-10T18:13:54Z</time>
      </trkpt>
      <trkpt lat="45.67519" lon="6.20281">
        <ele>1136.246948</ele>
        <time>2011-09-10T18:13:59Z</time>
      </trkpt>
      <trkpt lat="45.67519" lon="6.20274">
        <ele>1134.893921</ele>
        <time>2011-09-10T18:14:04Z</time>
      </trkpt>
      <trkpt lat="45.67517" lon="6.20267">
        <ele>1133.22168</ele>
        <time>2011-09-10T18:14:09Z</time>
      </trkpt>
      <trkpt lat="45.67512" lon="6.20264">
        <ele>1131.529297</ele>
        <time>2011-09-10T18:14:14Z</time>
      </trkpt>
      <trkpt lat="45.67507" lon="6.20261">
        <ele>1130.055786</ele>
        <time>2011-09-10T18:14:19Z</time>
      </trkpt>
      <trkpt lat="45.67508" lon="6.20257">
        <ele>1129.489502</ele>
        <time>2011-09-10T18:14:24Z</time>
      </trkpt>
      <trkpt lat="45.67503" lon="6.20255">
        <ele>1128.255371</ele>
        <time>2011-09-10T18:15:44Z</time>
      </trkpt>
      <trkpt lat="45.67499" lon="6.20257">
        <ele>1127.741821</ele>
        <time>2011-09-10T18:15:49Z</time>
      </trkpt>
      <trkpt lat="45.67495" lon="6.20259">
        <ele>1127.120239</ele>
        <time>2011-09-10T18:15:54Z</time>
      </trkpt>
      <trkpt lat="45.67491" lon="6.20262">
        <ele>1126.77124</ele>
        <time>2011-09-10T18:15:59Z</time>
      </trkpt>
      <trkpt lat="45.67487" lon="6.20265">
        <ele>1126.318604</ele>
        <time>2011-09-10T18:16:04Z</time>
      </trkpt>
      <trkpt lat="45.67486" lon="6.20267">
        <ele>1126.134033</ele>
        <time>2011-09-10T18:16:09Z</time>
      </trkpt>
      <trkpt lat="45.67485" lon="6.20272">
        <ele>1126.49585</ele>
        <time>2011-09-10T18:16:14Z</time>
      </trkpt>
      <trkpt lat="45.67482" lon="6.20277">
        <ele>1125.907471</ele>
        <time>2011-09-10T18:16:19Z</time>
      </trkpt>
      <trkpt lat="45.67479" lon="6.20282">
        <ele>1124.910034</ele>
        <time>2011-09-10T18:16:24Z</time>
      </trkpt>
      <trkpt lat="45.67473" lon="6.20286">
        <ele>1122.682495</ele>
        <time>2011-09-10T18:16:29Z</time>
      </trkpt>
      <trkpt lat="45.67469" lon="6.20288">
        <ele>1120.857056</ele>
        <time>2011-09-10T18:16:34Z</time>
      </trkpt>
      <trkpt lat="45.67465" lon="6.20292">
        <ele>1119.731445</ele>
        <time>2011-09-10T18:16:39Z</time>
      </trkpt>
      <trkpt lat="45.67462" lon="6.20297">
        <ele>1119.160522</ele>
        <time>2011-09-10T18:16:44Z</time>
      </trkpt>
      <trkpt lat="45.6746" lon="6.20303">
        <ele>1119.167847</ele>
        <time>2011-09-10T18:16:49Z</time>
      </trkpt>
      <trkpt lat="45.67459" lon="6.20309">
        <ele>1119.133057</ele>
        <time>2011-09-10T18:16:54Z</time>
      </trkpt>
      <trkpt lat="45.67457" lon="6.20315">
        <ele>1118.849731</ele>
        <time>2011-09-10T18:16:59Z</time>
      </trkpt>
      <trkpt lat="45.67455" lon="6.20318">
        <ele>1118.190186</ele>
        <time>2011-09-10T18:17:04Z</time>
      </trkpt>
      <trkpt lat="45.67452" lon="6.20322">
        <ele>1117.146484</ele>
        <time>2011-09-10T18:17:09Z</time>
      </trkpt>
      <trkpt lat="45.67452" lon="6.20328">
        <ele>1117.55957</ele>
        <time>2011-09-10T18:17:14Z</time>
      </trkpt>
      <trkpt lat="45.67449" lon="6.20334">
        <ele>1116.548096</ele>
        <time>2011-09-10T18:17:19Z</time>
      </trkpt>
      <trkpt lat="45.67446" lon="6.20339">
        <ele>1115.095093</ele>
        <time>2011-09-10T18:17:24Z</time>
      </trkpt>
      <trkpt lat="45.67442" lon="6.20343">
        <ele>1112.902954</ele>
        <time>2011-09-10T18:17:29Z</time>
      </trkpt>
      <trkpt lat="45.67442" lon="6.20344">
        <ele>1113.296143</ele>
        <time>2011-09-10T18:17:34Z</time>
      </trkpt>
      <trkpt lat="45.67442" lon="6.20343">
        <ele>1113.12854</ele>
        <time>2011-09-10T18:17:39Z</time>
      </trkpt>
      <trkpt lat="45.67439" lon="6.20338">
        <ele>1110.744507</ele>
        <time>2011-09-10T18:17:44Z</time>
      </trkpt>
      <trkpt lat="45.67438" lon="6.20331">
        <ele>1109.505859</ele>
        <time>2011-09-10T18:17:49Z</time>
      </trkpt>
      <trkpt lat="45.67437" lon="6.20324">
        <ele>1108.902222</ele>
        <time>2011-09-10T18:17:54Z</time>
      </trkpt>
      <trkpt lat="45.67435" lon="6.20318">
        <ele>1108.657227</ele>
        <time>2011-09-10T18:17:59Z</time>
      </trkpt>
      <trkpt lat="45.67436" lon="6.2031">
        <ele>1108.145752</ele>
        <time>2011-09-10T18:18:04Z</time>
      </trkpt>
      <trkpt lat="45.67436" lon="6.20301">
        <ele>1107.625854</ele>
        <time>2011-09-10T18:18:09Z</time>
      </trkpt>
      <trkpt lat="45.67438" lon="6.20293">
        <ele>1107.244141</ele>
        <time>2011-09-10T18:18:14Z</time>
      </trkpt>
      <trkpt lat="45.67439" lon="6.20286">
        <ele>1106.997314</ele>
        <time>2011-09-10T18:18:19Z</time>
      </trkpt>
      <trkpt lat="45.67441" lon="6.2028">
        <ele>1107.1875</ele>
        <time>2011-09-10T18:18:24Z</time>
      </trkpt>
      <trkpt lat="45.67438" lon="6.20273">
        <ele>1105.501099</ele>
        <time>2011-09-10T18:18:29Z</time>
      </trkpt>
      <trkpt lat="45.67436" lon="6.20269">
        <ele>1104.809326</ele>
        <time>2011-09-10T18:18:34Z</time>
      </trkpt>
      <trkpt lat="45.67437" lon="6.20262">
        <ele>1104.242798</ele>
        <time>2011-09-10T18:18:39Z</time>
      </trkpt>
      <trkpt lat="45.67438" lon="6.20256">
        <ele>1103.687988</ele>
        <time>2011-09-10T18:18:44Z</time>
      </trkpt>
      <trkpt lat="45.67438" lon="6.20255">
        <ele>1103.572998</ele>
        <time>2011-09-10T18:18:49Z</time>
      </trkpt>
      <trkpt lat="45.67436" lon="6.20249">
        <ele>1102.5271</ele>
        <time>2011-09-10T18:18:54Z</time>
      </trkpt>
      <trkpt lat="45.67435" lon="6.20243">
        <ele>1101.55188</ele>
        <time>2011-09-10T18:18:59Z</time>
      </trkpt>
      <trkpt lat="45.67434" lon="6.20234">
        <ele>1100.241577</ele>
        <time>2011-09-10T18:19:04Z</time>
      </trkpt>
      <trkpt lat="45.67432" lon="6.20226">
        <ele>1098.421875</ele>
        <time>2011-09-10T18:19:09Z</time>
      </trkpt>
      <trkpt lat="45.67433" lon="6.20219">
        <ele>1097.829468</ele>
        <time>2011-09-10T18:19:14Z</time>
      </trkpt>
      <trkpt lat="45.67432" lon="6.20217">
        <ele>1097.467041</ele>
        <time>2011-09-10T18:19:19Z</time>
      </trkpt>
      <trkpt lat="45.67433" lon="6.20211">
        <ele>1096.863281</ele>
        <time>2011-09-10T18:19:24Z</time>
      </trkpt>
      <trkpt lat="45.67432" lon="6.20201">
        <ele>1095.273071</ele>
        <time>2011-09-10T18:19:29Z</time>
      </trkpt>
      <trkpt lat="45.6743" lon="6.20193">
        <ele>1093.609009</ele>
        <time>2011-09-10T18:19:34Z</time>
      </trkpt>
      <trkpt lat="45.67428" lon="6.20186">
        <ele>1091.975342</ele>
        <time>2011-09-10T18:19:39Z</time>
      </trkpt>
      <trkpt lat="45.67426" lon="6.2018">
        <ele>1090.590332</ele>
        <time>2011-09-10T18:19:44Z</time>
      </trkpt>
      <trkpt lat="45.67423" lon="6.20173">
        <ele>1088.612671</ele>
        <time>2011-09-10T18:19:49Z</time>
      </trkpt>
      <trkpt lat="45.67422" lon="6.20166">
        <ele>1087.520752</ele>
        <time>2011-09-10T18:19:54Z</time>
      </trkpt>
      <trkpt lat="45.67423" lon="6.20159">
        <ele>1086.831665</ele>
        <time>2011-09-10T18:19:59Z</time>
      </trkpt>
      <trkpt lat="45.6742" lon="6.20154">
        <ele>1085.519775</ele>
        <time>2011-09-10T18:20:04Z</time>
      </trkpt>
      <trkpt lat="45.67419" lon="6.20147">
        <ele>1084.188232</ele>
        <time>2011-09-10T18:20:09Z</time>
      </trkpt>
      <trkpt lat="45.67417" lon="6.2014">
        <ele>1082.781982</ele>
        <time>2011-09-10T18:20:14Z</time>
      </trkpt>
      <trkpt lat="45.67415" lon="6.20135">
        <ele>1081.730835</ele>
        <time>2011-09-10T18:20:19Z</time>
      </trkpt>
      <trkpt lat="45.67413" lon="6.20128">
        <ele>1080.181396</ele>
        <time>2011-09-10T18:20:24Z</time>
      </trkpt>
      <trkpt lat="45.67411" lon="6.20121">
        <ele>1078.901245</ele>
        <time>2011-09-10T18:20:29Z</time>
      </trkpt>
      <trkpt lat="45.67412" lon="6.20117">
        <ele>1078.841553</ele>
        <time>2011-09-10T18:20:34Z</time>
      </trkpt>
      <trkpt lat="45.67413" lon="6.20116">
        <ele>1079.143066</ele>
        <time>2011-09-10T18:20:39Z</time>
      </trkpt>
      <trkpt lat="45.67414" lon="6.20116">
        <ele>1079.172974</ele>
        <time>2011-09-10T18:20:44Z</time>
      </trkpt>
      <trkpt lat="45.67414" lon="6.20115">
        <ele>1079.176392</ele>
        <time>2011-09-10T18:20:49Z</time>
      </trkpt>
      <trkpt lat="45.67414" lon="6.20113">
        <ele>1079.019043</ele>
        <time>2011-09-10T18:20:54Z</time>
      </trkpt>
      <trkpt lat="45.67413" lon="6.20111">
        <ele>1078.486938</ele>
        <time>2011-09-10T18:20:59Z</time>
      </trkpt>
      <trkpt lat="45.67414" lon="6.20109">
        <ele>1078.606689</ele>
        <time>2011-09-10T18:21:04Z</time>
      </trkpt>
      <trkpt lat="45.67415" lon="6.20109">
        <ele>1078.619873</ele>
        <time>2011-09-10T18:21:09Z</time>
      </trkpt>
      <trkpt lat="45.67415" lon="6.20109">
        <ele>1078.697388</ele>
        <time>2011-09-10T18:21:14Z</time>
      </trkpt>
      <trkpt lat="45.67415" lon="6.20109">
        <ele>1078.747192</ele>
        <time>2011-09-10T18:21:19Z</time>
      </trkpt>
      <trkpt lat="45.67412" lon="6.20107">
        <ele>1077.822021</ele>
        <time>2011-09-10T18:21:24Z</time>
      </trkpt>
      <trkpt lat="45.6741" lon="6.20101">
        <ele>1076.447998</ele>
        <time>2011-09-10T18:21:29Z</time>
      </trkpt>
      <trkpt lat="45.67408" lon="6.20094">
        <ele>1075.137329</ele>
        <time>2011-09-10T18:21:34Z</time>
      </trkpt>
      <trkpt lat="45.67406" lon="6.20087">
        <ele>1074.493774</ele>
        <time>2011-09-10T18:21:39Z</time>
      </trkpt>
      <trkpt lat="45.67404" lon="6.2008">
        <ele>1074.336792</ele>
        <time>2011-09-10T18:21:44Z</time>
      </trkpt>
      <trkpt lat="45.67402" lon="6.20072">
        <ele>1074.206177</ele>
        <time>2011-09-10T18:21:49Z</time>
      </trkpt>
      <trkpt lat="45.67398" lon="6.20065">
        <ele>1074.308472</ele>
        <time>2011-09-10T18:21:54Z</time>
      </trkpt>
      <trkpt lat="45.67394" lon="6.20058">
        <ele>1074.216309</ele>
        <time>2011-09-10T18:21:59Z</time>
      </trkpt>
      <trkpt lat="45.6739" lon="6.20052">
        <ele>1073.968384</ele>
        <time>2011-09-10T18:22:04Z</time>
      </trkpt>
      <trkpt lat="45.67387" lon="6.20046">
        <ele>1073.611206</ele>
        <time>2011-09-10T18:22:09Z</time>
      </trkpt>
      <trkpt lat="45.67383" lon="6.20041">
        <ele>1072.98291</ele>
        <time>2011-09-10T18:22:14Z</time>
      </trkpt>
      <trkpt lat="45.6738" lon="6.20035">
        <ele>1072.263062</ele>
        <time>2011-09-10T18:22:19Z</time>
      </trkpt>
      <trkpt lat="45.67378" lon="6.20029">
        <ele>1071.583618</ele>
        <time>2011-09-10T18:22:24Z</time>
      </trkpt>
      <trkpt lat="45.67374" lon="6.2002">
        <ele>1070.444092</ele>
        <time>2011-09-10T18:22:29Z</time>
      </trkpt>
      <trkpt lat="45.67369" lon="6.20012">
        <ele>1069.214966</ele>
        <time>2011-09-10T18:22:34Z</time>
      </trkpt>
      <trkpt lat="45.67364" lon="6.20008">
        <ele>1067.955566</ele>
        <time>2011-09-10T18:22:39Z</time>
      </trkpt>
      <trkpt lat="45.67358" lon="6.20006">
        <ele>1066.518433</ele>
        <time>2011-09-10T18:22:44Z</time>
      </trkpt>
      <trkpt lat="45.67352" lon="6.20007">
        <ele>1066.867188</ele>
        <time>2011-09-10T18:22:49Z</time>
      </trkpt>
      <trkpt lat="45.67347" lon="6.20011">
        <ele>1067.428589</ele>
        <time>2011-09-10T18:22:54Z</time>
      </trkpt>
      <trkpt lat="45.67342" lon="6.20015">
        <ele>1068.158936</ele>
        <time>2011-09-10T18:22:59Z</time>
      </trkpt>
      <trkpt lat="45.67339" lon="6.20016">
        <ele>1068.569336</ele>
        <time>2011-09-10T18:23:04Z</time>
      </trkpt>
      <trkpt lat="45.67337" lon="6.20017">
        <ele>1068.855225</ele>
        <time>2011-09-10T18:23:09Z</time>
      </trkpt>
      <trkpt lat="45.67336" lon="6.20018">
        <ele>1069.026489</ele>
        <time>2011-09-10T18:23:14Z</time>
      </trkpt>
      <trkpt lat="45.67334" lon="6.20018">
        <ele>1069.264526</ele>
        <time>2011-09-10T18:23:19Z</time>
      </trkpt>
      <trkpt lat="45.67331" lon="6.20012">
        <ele>1068.735596</ele>
        <time>2011-09-10T18:23:24Z</time>
      </trkpt>
      <trkpt lat="45.67327" lon="6.20003">
        <ele>1067.700806</ele>
        <time>2011-09-10T18:23:29Z</time>
      </trkpt>
      <trkpt lat="45.67324" lon="6.19997">
        <ele>1066.744019</ele>
        <time>2011-09-10T18:23:34Z</time>
      </trkpt>
      <trkpt lat="45.67321" lon="6.19991">
        <ele>1065.641968</ele>
        <time>2011-09-10T18:23:39Z</time>
      </trkpt>
      <trkpt lat="45.67318" lon="6.19985">
        <ele>1064.533325</ele>
        <time>2011-09-10T18:23:44Z</time>
      </trkpt>
      <trkpt lat="45.67316" lon="6.19981">
        <ele>1063.580811</ele>
        <time>2011-09-10T18:23:49Z</time>
      </trkpt>
      <trkpt lat="45.67312" lon="6.19976">
        <ele>1062.875854</ele>
        <time>2011-09-10T18:23:54Z</time>
      </trkpt>
      <trkpt lat="45.67308" lon="6.1997">
        <ele>1062.181885</ele>
        <time>2011-09-10T18:23:59Z</time>
      </trkpt>
      <trkpt lat="45.67303" lon="6.19963">
        <ele>1061.502319</ele>
        <time>2011-09-10T18:24:04Z</time>
      </trkpt>
      <trkpt lat="45.67297" lon="6.19957">
        <ele>1060.566528</ele>
        <time>2011-09-10T18:24:09Z</time>
      </trkpt>
      <trkpt lat="45.67293" lon="6.19949">
        <ele>1059.443726</ele>
        <time>2011-09-10T18:24:14Z</time>
      </trkpt>
      <trkpt lat="45.6729" lon="6.19942">
        <ele>1058.246582</ele>
        <time>2011-09-10T18:24:19Z</time>
      </trkpt>
      <trkpt lat="45.67286" lon="6.19934">
        <ele>1056.564575</ele>
        <time>2011-09-10T18:24:24Z</time>
      </trkpt>
      <trkpt lat="45.67281" lon="6.19928">
        <ele>1055.31897</ele>
        <time>2011-09-10T18:24:29Z</time>
      </trkpt>
      <trkpt lat="45.67275" lon="6.19924">
        <ele>1054.056763</ele>
        <time>2011-09-10T18:24:34Z</time>
      </trkpt>
      <trkpt lat="45.6727" lon="6.1992">
        <ele>1053.204956</ele>
        <time>2011-09-10T18:24:39Z</time>
      </trkpt>
      <trkpt lat="45.67265" lon="6.19918">
        <ele>1053.420044</ele>
        <time>2011-09-10T18:24:44Z</time>
      </trkpt>
      <trkpt lat="45.67259" lon="6.19914">
        <ele>1053.252563</ele>
        <time>2011-09-10T18:24:49Z</time>
      </trkpt>
      <trkpt lat="45.67253" lon="6.19911">
        <ele>1053.247437</ele>
        <time>2011-09-10T18:24:54Z</time>
      </trkpt>
      <trkpt lat="45.67248" lon="6.19906">
        <ele>1052.752563</ele>
        <time>2011-09-10T18:24:59Z</time>
      </trkpt>
      <trkpt lat="45.67244" lon="6.199">
        <ele>1051.755005</ele>
        <time>2011-09-10T18:25:04Z</time>
      </trkpt>
      <trkpt lat="45.67239" lon="6.19894">
        <ele>1050.867432</ele>
        <time>2011-09-10T18:25:09Z</time>
      </trkpt>
      <trkpt lat="45.67234" lon="6.19888">
        <ele>1049.662476</ele>
        <time>2011-09-10T18:25:14Z</time>
      </trkpt>
      <trkpt lat="45.67229" lon="6.19883">
        <ele>1049.096558</ele>
        <time>2011-09-10T18:25:19Z</time>
      </trkpt>
      <trkpt lat="45.67225" lon="6.19878">
        <ele>1048.494995</ele>
        <time>2011-09-10T18:25:24Z</time>
      </trkpt>
      <trkpt lat="45.67221" lon="6.19875">
        <ele>1048.33252</ele>
        <time>2011-09-10T18:25:29Z</time>
      </trkpt>
      <trkpt lat="45.67221" lon="6.19874">
        <ele>1048.11499</ele>
        <time>2011-09-10T18:25:34Z</time>
      </trkpt>
      <trkpt lat="45.67221" lon="6.19874">
        <ele>1048.015015</ele>
        <time>2011-09-10T18:25:39Z</time>
      </trkpt>
      <trkpt lat="45.67221" lon="6.19874">
        <ele>1047.939941</ele>
        <time>2011-09-10T18:25:44Z</time>
      </trkpt>
      <trkpt lat="45.67226" lon="6.19856">
        <ele>1041.5625</ele>
        <time>2011-09-11T08:09:07Z</time>
      </trkpt>
      <trkpt lat="45.67181" lon="6.19868">
        <ele>1055.075195</ele>
        <time>2011-09-11T08:09:12Z</time>
      </trkpt>
      <trkpt lat="45.67172" lon="6.19865">
        <ele>1056.67688</ele>
        <time>2011-09-11T08:09:17Z</time>
      </trkpt>
      <trkpt lat="45.6717" lon="6.19858">
        <ele>1054.755371</ele>
        <time>2011-09-11T08:09:22Z</time>
      </trkpt>
      <trkpt lat="45.67168" lon="6.19852">
        <ele>1053.611328</ele>
        <time>2011-09-11T08:09:27Z</time>
      </trkpt>
      <trkpt lat="45.67164" lon="6.19847">
        <ele>1053.182861</ele>
        <time>2011-09-11T08:09:32Z</time>
      </trkpt>
      <trkpt lat="45.6716" lon="6.19843">
        <ele>1052.555542</ele>
        <time>2011-09-11T08:09:37Z</time>
      </trkpt>
      <trkpt lat="45.67159" lon="6.19839">
        <ele>1051.65686</ele>
        <time>2011-09-11T08:09:42Z</time>
      </trkpt>
      <trkpt lat="45.67157" lon="6.19836">
        <ele>1051.193481</ele>
        <time>2011-09-11T08:09:47Z</time>
      </trkpt>
      <trkpt lat="45.67154" lon="6.19832">
        <ele>1050.388794</ele>
        <time>2011-09-11T08:09:52Z</time>
      </trkpt>
      <trkpt lat="45.67153" lon="6.19827">
        <ele>1048.907837</ele>
        <time>2011-09-11T08:09:57Z</time>
      </trkpt>
      <trkpt lat="45.67149" lon="6.19825">
        <ele>1049.158203</ele>
        <time>2011-09-11T08:10:02Z</time>
      </trkpt>
      <trkpt lat="45.67148" lon="6.19824">
        <ele>1049.216309</ele>
        <time>2011-09-11T08:10:07Z</time>
      </trkpt>
      <trkpt lat="45.67146" lon="6.19821">
        <ele>1048.991455</ele>
        <time>2011-09-11T08:10:12Z</time>
      </trkpt>
      <trkpt lat="45.67143" lon="6.1982">
        <ele>1049.078125</ele>
        <time>2011-09-11T08:10:17Z</time>
      </trkpt>
      <trkpt lat="45.6714" lon="6.19818">
        <ele>1049.109863</ele>
        <time>2011-09-11T08:10:22Z</time>
      </trkpt>
      <trkpt lat="45.67136" lon="6.19816">
        <ele>1048.854004</ele>
        <time>2011-09-11T08:10:27Z</time>
      </trkpt>
      <trkpt lat="45.67133" lon="6.19814">
        <ele>1048.698242</ele>
        <time>2011-09-11T08:10:32Z</time>
      </trkpt>
      <trkpt lat="45.67131" lon="6.19812">
        <ele>1048.135376</ele>
        <time>2011-09-11T08:10:37Z</time>
      </trkpt>
      <trkpt lat="45.67126" lon="6.19808">
        <ele>1047.368042</ele>
        <time>2011-09-11T08:10:42Z</time>
      </trkpt>
      <trkpt lat="45.67123" lon="6.19804">
        <ele>1046.364258</ele>
        <time>2011-09-11T08:10:47Z</time>
      </trkpt>
      <trkpt lat="45.67119" lon="6.198">
        <ele>1045.06543</ele>
        <time>2011-09-11T08:10:52Z</time>
      </trkpt>
      <trkpt lat="45.67119" lon="6.19796">
        <ele>1043.680786</ele>
        <time>2011-09-11T08:10:57Z</time>
      </trkpt>
      <trkpt lat="45.67119" lon="6.19796">
        <ele>1043.764404</ele>
        <time>2011-09-11T08:11:02Z</time>
      </trkpt>
      <trkpt lat="45.6712" lon="6.19797">
        <ele>1043.959717</ele>
        <time>2011-09-11T08:11:07Z</time>
      </trkpt>
      <trkpt lat="45.6712" lon="6.19798">
        <ele>1044.253418</ele>
        <time>2011-09-11T08:11:12Z</time>
      </trkpt>
      <trkpt lat="45.67122" lon="6.19802">
        <ele>1045.503662</ele>
        <time>2011-09-11T08:11:17Z</time>
      </trkpt>
      <trkpt lat="45.67121" lon="6.19801">
        <ele>1045.229736</ele>
        <time>2011-09-11T08:11:22Z</time>
      </trkpt>
      <trkpt lat="45.67118" lon="6.19793">
        <ele>1042.785889</ele>
        <time>2011-09-11T08:11:27Z</time>
      </trkpt>
      <trkpt lat="45.67114" lon="6.19789">
        <ele>1041.516235</ele>
        <time>2011-09-11T08:11:32Z</time>
      </trkpt>
      <trkpt lat="45.67111" lon="6.19785">
        <ele>1040.528931</ele>
        <time>2011-09-11T08:11:37Z</time>
      </trkpt>
      <trkpt lat="45.67107" lon="6.19781">
        <ele>1039.942139</ele>
        <time>2011-09-11T08:11:42Z</time>
      </trkpt>
      <trkpt lat="45.67103" lon="6.19778">
        <ele>1039.310181</ele>
        <time>2011-09-11T08:11:47Z</time>
      </trkpt>
      <trkpt lat="45.671" lon="6.19774">
        <ele>1038.134155</ele>
        <time>2011-09-11T08:11:52Z</time>
      </trkpt>
      <trkpt lat="45.67096" lon="6.1977">
        <ele>1037.34436</ele>
        <time>2011-09-11T08:11:57Z</time>
      </trkpt>
      <trkpt lat="45.67092" lon="6.19766">
        <ele>1036.799072</ele>
        <time>2011-09-11T08:12:02Z</time>
      </trkpt>
      <trkpt lat="45.67089" lon="6.19761">
        <ele>1036.013062</ele>
        <time>2011-09-11T08:12:07Z</time>
      </trkpt>
      <trkpt lat="45.67086" lon="6.19757">
        <ele>1035.072388</ele>
        <time>2011-09-11T08:12:12Z</time>
      </trkpt>
      <trkpt lat="45.67083" lon="6.19751">
        <ele>1033.827881</ele>
        <time>2011-09-11T08:12:17Z</time>
      </trkpt>
      <trkpt lat="45.6708" lon="6.19746">
        <ele>1032.698486</ele>
        <time>2011-09-11T08:12:22Z</time>
      </trkpt>
      <trkpt lat="45.67077" lon="6.19741">
        <ele>1031.766724</ele>
        <time>2011-09-11T08:12:27Z</time>
      </trkpt>
      <trkpt lat="45.67075" lon="6.19735">
        <ele>1030.630249</ele>
        <time>2011-09-11T08:12:32Z</time>
      </trkpt>
      <trkpt lat="45.67073" lon="6.19729">
        <ele>1029.285156</ele>
        <time>2011-09-11T08:12:37Z</time>
      </trkpt>
      <trkpt lat="45.67069" lon="6.19723">
        <ele>1028.553589</ele>
        <time>2011-09-11T08:12:42Z</time>
      </trkpt>
      <trkpt lat="45.67065" lon="6.19718">
        <ele>1028.109497</ele>
        <time>2011-09-11T08:12:47Z</time>
      </trkpt>
      <trkpt lat="45.67061" lon="6.19712">
        <ele>1027.488281</ele>
        <time>2011-09-11T08:12:52Z</time>
      </trkpt>
      <trkpt lat="45.67058" lon="6.19707">
        <ele>1026.879761</ele>
        <time>2011-09-11T08:12:57Z</time>
      </trkpt>
      <trkpt lat="45.67054" lon="6.19702">
        <ele>1026.327515</ele>
        <time>2011-09-11T08:13:02Z</time>
      </trkpt>
      <trkpt lat="45.67051" lon="6.19698">
        <ele>1026.164795</ele>
        <time>2011-09-11T08:13:07Z</time>
      </trkpt>
      <trkpt lat="45.67046" lon="6.19694">
        <ele>1025.960571</ele>
        <time>2011-09-11T08:13:12Z</time>
      </trkpt>
      <trkpt lat="45.67043" lon="6.19689">
        <ele>1025.603882</ele>
        <time>2011-09-11T08:13:17Z</time>
      </trkpt>
      <trkpt lat="45.67038" lon="6.19685">
        <ele>1025.374756</ele>
        <time>2011-09-11T08:13:22Z</time>
      </trkpt>
      <trkpt lat="45.67035" lon="6.19681">
        <ele>1024.897217</ele>
        <time>2011-09-11T08:13:27Z</time>
      </trkpt>
      <trkpt lat="45.67031" lon="6.19676">
        <ele>1024.683594</ele>
        <time>2011-09-11T08:13:32Z</time>
      </trkpt>
      <trkpt lat="45.67027" lon="6.19672">
        <ele>1024.253174</ele>
        <time>2011-09-11T08:13:37Z</time>
      </trkpt>
      <trkpt lat="45.67024" lon="6.19668">
        <ele>1023.79895</ele>
        <time>2011-09-11T08:13:42Z</time>
      </trkpt>
      <trkpt lat="45.67019" lon="6.19664">
        <ele>1023.860046</ele>
        <time>2011-09-11T08:13:47Z</time>
      </trkpt>
      <trkpt lat="45.67015" lon="6.19661">
        <ele>1023.877747</ele>
        <time>2011-09-11T08:13:52Z</time>
      </trkpt>
      <trkpt lat="45.67012" lon="6.19657">
        <ele>1023.370544</ele>
        <time>2011-09-11T08:13:57Z</time>
      </trkpt>
      <trkpt lat="45.67009" lon="6.19652">
        <ele>1022.472351</ele>
        <time>2011-09-11T08:14:02Z</time>
      </trkpt>
      <trkpt lat="45.67004" lon="6.19647">
        <ele>1021.306458</ele>
        <time>2011-09-11T08:14:07Z</time>
      </trkpt>
      <trkpt lat="45.66998" lon="6.19643">
        <ele>1020.996033</ele>
        <time>2011-09-11T08:14:12Z</time>
      </trkpt>
      <trkpt lat="45.66991" lon="6.19639">
        <ele>1020.606079</ele>
        <time>2011-09-11T08:14:17Z</time>
      </trkpt>
      <trkpt lat="45.66982" lon="6.19632">
        <ele>1019.573792</ele>
        <time>2011-09-11T08:14:22Z</time>
      </trkpt>
      <trkpt lat="45.66976" lon="6.1963">
        <ele>1019.628723</ele>
        <time>2011-09-11T08:14:27Z</time>
      </trkpt>
      <trkpt lat="45.66973" lon="6.19629">
        <ele>1019.910217</ele>
        <time>2011-09-11T08:14:32Z</time>
      </trkpt>
      <trkpt lat="45.66968" lon="6.19626">
        <ele>1019.65509</ele>
        <time>2011-09-11T08:14:37Z</time>
      </trkpt>
      <trkpt lat="45.66964" lon="6.19623">
        <ele>1019.11792</ele>
        <time>2011-09-11T08:14:42Z</time>
      </trkpt>
      <trkpt lat="45.6696" lon="6.19618">
        <ele>1018.135071</ele>
        <time>2011-09-11T08:14:47Z</time>
      </trkpt>
      <trkpt lat="45.66958" lon="6.19614">
        <ele>1017.131836</ele>
        <time>2011-09-11T08:14:52Z</time>
      </trkpt>
      <trkpt lat="45.66955" lon="6.19609">
        <ele>1016.017273</ele>
        <time>2011-09-11T08:14:57Z</time>
      </trkpt>
      <trkpt lat="45.66952" lon="6.19603">
        <ele>1014.758301</ele>
        <time>2011-09-11T08:15:02Z</time>
      </trkpt>
      <trkpt lat="45.6695" lon="6.19597">
        <ele>1013.724487</ele>
        <time>2011-09-11T08:15:07Z</time>
      </trkpt>
      <trkpt lat="45.66946" lon="6.19592">
        <ele>1012.867432</ele>
        <time>2011-09-11T08:15:12Z</time>
      </trkpt>
      <trkpt lat="45.66943" lon="6.19588">
        <ele>1012.203064</ele>
        <time>2011-09-11T08:15:17Z</time>
      </trkpt>
      <trkpt lat="45.66938" lon="6.19584">
        <ele>1011.826538</ele>
        <time>2011-09-11T08:15:22Z</time>
      </trkpt>
      <trkpt lat="45.66934" lon="6.19581">
        <ele>1011.635132</ele>
        <time>2011-09-11T08:15:27Z</time>
      </trkpt>
      <trkpt lat="45.6693" lon="6.19578">
        <ele>1011.367493</ele>
        <time>2011-09-11T08:15:32Z</time>
      </trkpt>
      <trkpt lat="45.66924" lon="6.19575">
        <ele>1011.487854</ele>
        <time>2011-09-11T08:15:37Z</time>
      </trkpt>
      <trkpt lat="45.66919" lon="6.19572">
        <ele>1011.233765</ele>
        <time>2011-09-11T08:15:42Z</time>
      </trkpt>
      <trkpt lat="45.66914" lon="6.19568">
        <ele>1010.887512</ele>
        <time>2011-09-11T08:15:47Z</time>
      </trkpt>
      <trkpt lat="45.66909" lon="6.19564">
        <ele>1010.474976</ele>
        <time>2011-09-11T08:15:52Z</time>
      </trkpt>
      <trkpt lat="45.66905" lon="6.1956">
        <ele>1010.022522</ele>
        <time>2011-09-11T08:15:57Z</time>
      </trkpt>
      <trkpt lat="45.669" lon="6.19556">
        <ele>1009.601257</ele>
        <time>2011-09-11T08:16:02Z</time>
      </trkpt>
      <trkpt lat="45.66895" lon="6.19551">
        <ele>1009.09375</ele>
        <time>2011-09-11T08:16:07Z</time>
      </trkpt>
      <trkpt lat="45.6689" lon="6.19547">
        <ele>1008.566284</ele>
        <time>2011-09-11T08:16:12Z</time>
      </trkpt>
      <trkpt lat="45.66885" lon="6.19543">
        <ele>1008.126221</ele>
        <time>2011-09-11T08:16:17Z</time>
      </trkpt>
      <trkpt lat="45.66881" lon="6.19539">
        <ele>1007.669556</ele>
        <time>2011-09-11T08:16:22Z</time>
      </trkpt>
      <trkpt lat="45.66877" lon="6.19535">
        <ele>1007.094788</ele>
        <time>2011-09-11T08:16:27Z</time>
      </trkpt>
      <trkpt lat="45.66872" lon="6.19531">
        <ele>1006.839111</ele>
        <time>2011-09-11T08:16:32Z</time>
      </trkpt>
      <trkpt lat="45.66867" lon="6.19529">
        <ele>1006.875671</ele>
        <time>2011-09-11T08:16:37Z</time>
      </trkpt>
      <trkpt lat="45.66862" lon="6.19526">
        <ele>1006.709839</ele>
        <time>2011-09-11T08:16:42Z</time>
      </trkpt>
      <trkpt lat="45.66857" lon="6.19524">
        <ele>1006.616821</ele>
        <time>2011-09-11T08:16:47Z</time>
      </trkpt>
      <trkpt lat="45.66852" lon="6.19522">
        <ele>1006.701965</ele>
        <time>2011-09-11T08:16:52Z</time>
      </trkpt>
      <trkpt lat="45.66848" lon="6.19519">
        <ele>1006.515198</ele>
        <time>2011-09-11T08:16:57Z</time>
      </trkpt>
      <trkpt lat="45.66843" lon="6.19517">
        <ele>1006.415344</ele>
        <time>2011-09-11T08:17:02Z</time>
      </trkpt>
      <trkpt lat="45.66838" lon="6.19515">
        <ele>1006.301208</ele>
        <time>2011-09-11T08:17:07Z</time>
      </trkpt>
      <trkpt lat="45.66833" lon="6.1951">
        <ele>1005.53186</ele>
        <time>2011-09-11T08:17:12Z</time>
      </trkpt>
      <trkpt lat="45.66829" lon="6.19507">
        <ele>1004.97052</ele>
        <time>2011-09-11T08:17:17Z</time>
      </trkpt>
      <trkpt lat="45.66824" lon="6.19503">
        <ele>1004.184509</ele>
        <time>2011-09-11T08:17:22Z</time>
      </trkpt>
      <trkpt lat="45.6682" lon="6.19499">
        <ele>1003.212158</ele>
        <time>2011-09-11T08:17:27Z</time>
      </trkpt>
      <trkpt lat="45.66816" lon="6.19496">
        <ele>1002.490356</ele>
        <time>2011-09-11T08:17:32Z</time>
      </trkpt>
      <trkpt lat="45.66811" lon="6.19492">
        <ele>1001.734375</ele>
        <time>2011-09-11T08:17:37Z</time>
      </trkpt>
      <trkpt lat="45.66806" lon="6.19489">
        <ele>1001.049255</ele>
        <time>2011-09-11T08:17:42Z</time>
      </trkpt>
      <trkpt lat="45.66802" lon="6.19486">
        <ele>1000.224854</ele>
        <time>2011-09-11T08:17:47Z</time>
      </trkpt>
      <trkpt lat="45.66797" lon="6.19482">
        <ele>999.295105</ele>
        <time>2011-09-11T08:17:52Z</time>
      </trkpt>
      <trkpt lat="45.66792" lon="6.19479">
        <ele>998.27478</ele>
        <time>2011-09-11T08:17:57Z</time>
      </trkpt>
      <trkpt lat="45.66788" lon="6.19475">
        <ele>997.77002</ele>
        <time>2011-09-11T08:18:02Z</time>
      </trkpt>
      <trkpt lat="45.66783" lon="6.19471">
        <ele>997.38501</ele>
        <time>2011-09-11T08:18:07Z</time>
      </trkpt>
      <trkpt lat="45.66778" lon="6.19467">
        <ele>997.124207</ele>
        <time>2011-09-11T08:18:12Z</time>
      </trkpt>
      <trkpt lat="45.66774" lon="6.19462">
        <ele>996.230042</ele>
        <time>2011-09-11T08:18:17Z</time>
      </trkpt>
      <trkpt lat="45.66769" lon="6.19457">
        <ele>995.626953</ele>
        <time>2011-09-11T08:18:22Z</time>
      </trkpt>
      <trkpt lat="45.66764" lon="6.19453">
        <ele>995.212463</ele>
        <time>2011-09-11T08:18:27Z</time>
      </trkpt>
      <trkpt lat="45.6676" lon="6.19448">
        <ele>994.72998</ele>
        <time>2011-09-11T08:18:32Z</time>
      </trkpt>
      <trkpt lat="45.66756" lon="6.19442">
        <ele>993.980408</ele>
        <time>2011-09-11T08:18:37Z</time>
      </trkpt>
      <trkpt lat="45.66752" lon="6.19437">
        <ele>993.447876</ele>
        <time>2011-09-11T08:18:42Z</time>
      </trkpt>
      <trkpt lat="45.66747" lon="6.19432">
        <ele>992.955383</ele>
        <time>2011-09-11T08:18:47Z</time>
      </trkpt>
      <trkpt lat="45.66743" lon="6.19426">
        <ele>992.544312</ele>
        <time>2011-09-11T08:18:52Z</time>
      </trkpt>
      <trkpt lat="45.66738" lon="6.19422">
        <ele>992.4328</ele>
        <time>2011-09-11T08:18:57Z</time>
      </trkpt>
      <trkpt lat="45.66734" lon="6.19417">
        <ele>992.168335</ele>
        <time>2011-09-11T08:19:02Z</time>
      </trkpt>
      <trkpt lat="45.66729" lon="6.19413">
        <ele>992.006348</ele>
        <time>2011-09-11T08:19:07Z</time>
      </trkpt>
      <trkpt lat="45.66725" lon="6.19408">
        <ele>991.84906</ele>
        <time>2011-09-11T08:19:12Z</time>
      </trkpt>
      <trkpt lat="45.66721" lon="6.19403">
        <ele>991.429749</ele>
        <time>2011-09-11T08:19:17Z</time>
      </trkpt>
      <trkpt lat="45.66717" lon="6.19398">
        <ele>991.534668</ele>
        <time>2011-09-11T08:19:22Z</time>
      </trkpt>
      <trkpt lat="45.66712" lon="6.19393">
        <ele>991.751648</ele>
        <time>2011-09-11T08:19:27Z</time>
      </trkpt>
      <trkpt lat="45.66708" lon="6.19388">
        <ele>991.89209</ele>
        <time>2011-09-11T08:19:32Z</time>
      </trkpt>
      <trkpt lat="45.66703" lon="6.19384">
        <ele>992.244995</ele>
        <time>2011-09-11T08:19:37Z</time>
      </trkpt>
      <trkpt lat="45.66699" lon="6.19379">
        <ele>992.252502</ele>
        <time>2011-09-11T08:19:42Z</time>
      </trkpt>
      <trkpt lat="45.66694" lon="6.19375">
        <ele>992.155029</ele>
        <time>2011-09-11T08:19:47Z</time>
      </trkpt>
      <trkpt lat="45.6669" lon="6.1937">
        <ele>992.182495</ele>
        <time>2011-09-11T08:19:52Z</time>
      </trkpt>
      <trkpt lat="45.66686" lon="6.19366">
        <ele>992.150024</ele>
        <time>2011-09-11T08:19:57Z</time>
      </trkpt>
      <trkpt lat="45.66681" lon="6.19361">
        <ele>991.983765</ele>
        <time>2011-09-11T08:20:02Z</time>
      </trkpt>
      <trkpt lat="45.66677" lon="6.19357">
        <ele>991.963745</ele>
        <time>2011-09-11T08:20:07Z</time>
      </trkpt>
      <trkpt lat="45.66673" lon="6.19353">
        <ele>991.902527</ele>
        <time>2011-09-11T08:20:12Z</time>
      </trkpt>
      <trkpt lat="45.66668" lon="6.19349">
        <ele>992.056274</ele>
        <time>2011-09-11T08:20:17Z</time>
      </trkpt>
      <trkpt lat="45.66664" lon="6.19345">
        <ele>992.13623</ele>
        <time>2011-09-11T08:20:22Z</time>
      </trkpt>
      <trkpt lat="45.66658" lon="6.1934">
        <ele>992.05127</ele>
        <time>2011-09-11T08:20:27Z</time>
      </trkpt>
      <trkpt lat="45.66654" lon="6.19335">
        <ele>991.658752</ele>
        <time>2011-09-11T08:20:32Z</time>
      </trkpt>
      <trkpt lat="45.66649" lon="6.1933">
        <ele>991.298279</ele>
        <time>2011-09-11T08:20:37Z</time>
      </trkpt>
      <trkpt lat="45.66645" lon="6.19326">
        <ele>991.200012</ele>
        <time>2011-09-11T08:20:42Z</time>
      </trkpt>
      <trkpt lat="45.66641" lon="6.19321">
        <ele>990.870178</ele>
        <time>2011-09-11T08:20:47Z</time>
      </trkpt>
      <trkpt lat="45.66636" lon="6.19317">
        <ele>990.797241</ele>
        <time>2011-09-11T08:20:52Z</time>
      </trkpt>
      <trkpt lat="45.66631" lon="6.19313">
        <ele>990.648376</ele>
        <time>2011-09-11T08:20:57Z</time>
      </trkpt>
      <trkpt lat="45.66627" lon="6.19308">
        <ele>990.384827</ele>
        <time>2011-09-11T08:21:02Z</time>
      </trkpt>
      <trkpt lat="45.66623" lon="6.19304">
        <ele>990.133789</ele>
        <time>2011-09-11T08:21:07Z</time>
      </trkpt>
      <trkpt lat="45.66619" lon="6.19299">
        <ele>989.881348</ele>
        <time>2011-09-11T08:21:12Z</time>
      </trkpt>
      <trkpt lat="45.66614" lon="6.19295">
        <ele>989.580078</ele>
        <time>2011-09-11T08:21:17Z</time>
      </trkpt>
      <trkpt lat="45.6661" lon="6.1929">
        <ele>989.214722</ele>
        <time>2011-09-11T08:21:22Z</time>
      </trkpt>
      <trkpt lat="45.66605" lon="6.19286">
        <ele>988.859192</ele>
        <time>2011-09-11T08:21:27Z</time>
      </trkpt>
      <trkpt lat="45.66601" lon="6.19281">
        <ele>988.472412</ele>
        <time>2011-09-11T08:21:32Z</time>
      </trkpt>
      <trkpt lat="45.66597" lon="6.19275">
        <ele>987.971375</ele>
        <time>2011-09-11T08:21:37Z</time>
      </trkpt>
      <trkpt lat="45.66592" lon="6.1927">
        <ele>987.541016</ele>
        <time>2011-09-11T08:21:42Z</time>
      </trkpt>
      <trkpt lat="45.66588" lon="6.19265">
        <ele>987.187439</ele>
        <time>2011-09-11T08:21:47Z</time>
      </trkpt>
      <trkpt lat="45.66584" lon="6.1926">
        <ele>986.777527</ele>
        <time>2011-09-11T08:21:52Z</time>
      </trkpt>
      <trkpt lat="45.6658" lon="6.19254">
        <ele>986.42627</ele>
        <time>2011-09-11T08:21:57Z</time>
      </trkpt>
      <trkpt lat="45.66576" lon="6.19249">
        <ele>986.182495</ele>
        <time>2011-09-11T08:22:02Z</time>
      </trkpt>
      <trkpt lat="45.66572" lon="6.19245">
        <ele>986.080017</ele>
        <time>2011-09-11T08:22:07Z</time>
      </trkpt>
      <trkpt lat="45.66568" lon="6.19239">
        <ele>985.866272</ele>
        <time>2011-09-11T08:22:12Z</time>
      </trkpt>
      <trkpt lat="45.66563" lon="6.19234">
        <ele>985.757507</ele>
        <time>2011-09-11T08:22:17Z</time>
      </trkpt>
      <trkpt lat="45.66559" lon="6.19229">
        <ele>985.757507</ele>
        <time>2011-09-11T08:22:22Z</time>
      </trkpt>
      <trkpt lat="45.66555" lon="6.19224">
        <ele>985.686279</ele>
        <time>2011-09-11T08:22:27Z</time>
      </trkpt>
      <trkpt lat="45.66551" lon="6.19219">
        <ele>985.5625</ele>
        <time>2011-09-11T08:22:32Z</time>
      </trkpt>
      <trkpt lat="45.66547" lon="6.19214">
        <ele>985.47998</ele>
        <time>2011-09-11T08:22:37Z</time>
      </trkpt>
      <trkpt lat="45.66543" lon="6.19209">
        <ele>985.378723</ele>
        <time>2011-09-11T08:22:42Z</time>
      </trkpt>
      <trkpt lat="45.66539" lon="6.19204">
        <ele>985.217468</ele>
        <time>2011-09-11T08:22:47Z</time>
      </trkpt>
      <trkpt lat="45.66536" lon="6.19201">
        <ele>985.198792</ele>
        <time>2011-09-11T08:22:52Z</time>
      </trkpt>
      <trkpt lat="45.66532" lon="6.19196">
        <ele>985.119995</ele>
        <time>2011-09-11T08:22:57Z</time>
      </trkpt>
      <trkpt lat="45.66527" lon="6.19189">
        <ele>985.106262</ele>
        <time>2011-09-11T08:23:02Z</time>
      </trkpt>
      <trkpt lat="45.66523" lon="6.19185">
        <ele>985.243774</ele>
        <time>2011-09-11T08:23:07Z</time>
      </trkpt>
      <trkpt lat="45.66518" lon="6.19179">
        <ele>985.418762</ele>
        <time>2011-09-11T08:23:12Z</time>
      </trkpt>
      <trkpt lat="45.66513" lon="6.19173">
        <ele>985.549988</ele>
        <time>2011-09-11T08:23:17Z</time>
      </trkpt>
      <trkpt lat="45.66509" lon="6.19167">
        <ele>985.618774</ele>
        <time>2011-09-11T08:23:22Z</time>
      </trkpt>
      <trkpt lat="45.66504" lon="6.19162">
        <ele>985.731262</ele>
        <time>2011-09-11T08:23:27Z</time>
      </trkpt>
      <trkpt lat="45.665" lon="6.19156">
        <ele>985.8125</ele>
        <time>2011-09-11T08:23:32Z</time>
      </trkpt>
      <trkpt lat="45.66498" lon="6.19155">
        <ele>986.006226</ele>
        <time>2011-09-11T08:23:37Z</time>
      </trkpt>
      <trkpt lat="45.66498" lon="6.19155">
        <ele>985.981262</ele>
        <time>2011-09-11T08:23:42Z</time>
      </trkpt>
      <trkpt lat="45.66498" lon="6.19155">
        <ele>985.981262</ele>
        <time>2011-09-11T08:23:47Z</time>
      </trkpt>
      <trkpt lat="45.66498" lon="6.19155">
        <ele>985.956238</ele>
        <time>2011-09-11T08:23:52Z</time>
      </trkpt>
      <trkpt lat="45.66498" lon="6.19155">
        <ele>985.956238</ele>
        <time>2011-09-11T08:23:57Z</time>
      </trkpt>
      <trkpt lat="45.66499" lon="6.19155">
        <ele>985.918762</ele>
        <time>2011-09-11T08:24:02Z</time>
      </trkpt>
      <trkpt lat="45.66499" lon="6.19155">
        <ele>985.918762</ele>
        <time>2011-09-11T08:24:07Z</time>
      </trkpt>
      <trkpt lat="45.66499" lon="6.19155">
        <ele>985.931274</ele>
        <time>2011-09-11T08:24:12Z</time>
      </trkpt>
      <trkpt lat="45.66499" lon="6.19155">
        <ele>985.875</ele>
        <time>2011-09-11T08:24:17Z</time>
      </trkpt>
      <trkpt lat="45.66499" lon="6.19156">
        <ele>985.893738</ele>
        <time>2011-09-11T08:24:22Z</time>
      </trkpt>
      <trkpt lat="45.66499" lon="6.19156">
        <ele>986.006287</ele>
        <time>2011-09-11T08:24:27Z</time>
      </trkpt>
      <trkpt lat="45.66499" lon="6.19156">
        <ele>985.893738</ele>
        <time>2011-09-11T08:24:32Z</time>
      </trkpt>
      <trkpt lat="45.66499" lon="6.19156">
        <ele>985.893738</ele>
        <time>2011-09-11T08:24:37Z</time>
      </trkpt>
      <trkpt lat="45.66498" lon="6.19155">
        <ele>985.96875</ele>
        <time>2011-09-11T08:24:42Z</time>
      </trkpt>
      <trkpt lat="45.66499" lon="6.19155">
        <ele>985.931274</ele>
        <time>2011-09-11T08:24:47Z</time>
      </trkpt>
      <trkpt lat="45.66499" lon="6.19155">
        <ele>985.931274</ele>
        <time>2011-09-11T08:24:52Z</time>
      </trkpt>
      <trkpt lat="45.66499" lon="6.19155">
        <ele>985.787476</ele>
        <time>2011-09-11T08:24:57Z</time>
      </trkpt>
      <trkpt lat="45.665" lon="6.19156">
        <ele>985.775024</ele>
        <time>2011-09-11T08:25:02Z</time>
      </trkpt>
      <trkpt lat="45.665" lon="6.19156">
        <ele>985.862488</ele>
        <time>2011-09-11T08:25:07Z</time>
      </trkpt>
      <trkpt lat="45.66498" lon="6.19157">
        <ele>986.112488</ele>
        <time>2011-09-11T08:25:12Z</time>
      </trkpt>
      <trkpt lat="45.66498" lon="6.19157">
        <ele>986.193726</ele>
        <time>2011-09-11T08:25:17Z</time>
      </trkpt>
      <trkpt lat="45.66497" lon="6.19157">
        <ele>986.256226</ele>
        <time>2011-09-11T08:25:22Z</time>
      </trkpt>
      <trkpt lat="45.66497" lon="6.19158">
        <ele>986.325012</ele>
        <time>2011-09-11T08:25:27Z</time>
      </trkpt>
      <trkpt lat="45.66497" lon="6.19158">
        <ele>986.350037</ele>
        <time>2011-09-11T08:25:32Z</time>
      </trkpt>
      <trkpt lat="45.66497" lon="6.19158">
        <ele>986.337524</ele>
        <time>2011-09-11T08:25:37Z</time>
      </trkpt>
      <trkpt lat="45.66496" lon="6.19158">
        <ele>986.362488</ele>
        <time>2011-09-11T08:25:42Z</time>
      </trkpt>
      <trkpt lat="45.66496" lon="6.19158">
        <ele>986.424988</ele>
        <time>2011-09-11T08:25:47Z</time>
      </trkpt>
      <trkpt lat="45.66495" lon="6.19156">
        <ele>986.375</ele>
        <time>2011-09-11T08:25:52Z</time>
      </trkpt>
      <trkpt lat="45.66491" lon="6.19151">
        <ele>986.456238</ele>
        <time>2011-09-11T08:25:57Z</time>
      </trkpt>
      <trkpt lat="45.66488" lon="6.19146">
        <ele>986.393738</ele>
        <time>2011-09-11T08:26:02Z</time>
      </trkpt>
      <trkpt lat="45.66485" lon="6.1914">
        <ele>986.182495</ele>
        <time>2011-09-11T08:26:07Z</time>
      </trkpt>
      <trkpt lat="45.66483" lon="6.19134">
        <ele>985.828735</ele>
        <time>2011-09-11T08:26:12Z</time>
      </trkpt>
      <trkpt lat="45.66481" lon="6.19129">
        <ele>985.566223</ele>
        <time>2011-09-11T08:26:17Z</time>
      </trkpt>
      <trkpt lat="45.66478" lon="6.19124">
        <ele>985.41571</ele>
        <time>2011-09-11T08:26:22Z</time>
      </trkpt>
      <trkpt lat="45.66476" lon="6.19118">
        <ele>985.410828</ele>
        <time>2011-09-11T08:26:27Z</time>
      </trkpt>
      <trkpt lat="45.66475" lon="6.19113">
        <ele>985.361633</ele>
        <time>2011-09-11T08:26:32Z</time>
      </trkpt>
      <trkpt lat="45.66477" lon="6.19106">
        <ele>985.155762</ele>
        <time>2011-09-11T08:26:37Z</time>
      </trkpt>
      <trkpt lat="45.66477" lon="6.19105">
        <ele>985.142395</ele>
        <time>2011-09-11T08:26:42Z</time>
      </trkpt>
      <trkpt lat="45.66476" lon="6.19105">
        <ele>985.166809</ele>
        <time>2011-09-11T08:26:47Z</time>
      </trkpt>
      <trkpt lat="45.66475" lon="6.19105">
        <ele>985.179382</ele>
        <time>2011-09-11T08:26:52Z</time>
      </trkpt>
      <trkpt lat="45.66475" lon="6.19105">
        <ele>985.205139</ele>
        <time>2011-09-11T08:26:57Z</time>
      </trkpt>
      <trkpt lat="45.66475" lon="6.19105">
        <ele>985.217712</ele>
        <time>2011-09-11T08:27:02Z</time>
      </trkpt>
      <trkpt lat="45.66474" lon="6.19103">
        <ele>985.195313</ele>
        <time>2011-09-11T08:27:07Z</time>
      </trkpt>
      <trkpt lat="45.66471" lon="6.19099">
        <ele>985.237061</ele>
        <time>2011-09-11T08:27:12Z</time>
      </trkpt>
      <trkpt lat="45.6647" lon="6.19098">
        <ele>985.252258</ele>
        <time>2011-09-11T08:27:17Z</time>
      </trkpt>
      <trkpt lat="45.6647" lon="6.19098">
        <ele>985.252258</ele>
        <time>2011-09-11T08:27:22Z</time>
      </trkpt>
      <trkpt lat="45.6647" lon="6.19098">
        <ele>985.242249</ele>
        <time>2011-09-11T08:27:27Z</time>
      </trkpt>
      <trkpt lat="45.66469" lon="6.19098">
        <ele>985.2771</ele>
        <time>2011-09-11T08:27:32Z</time>
      </trkpt>
      <trkpt lat="45.66469" lon="6.19097">
        <ele>985.273438</ele>
        <time>2011-09-11T08:27:37Z</time>
      </trkpt>
      <trkpt lat="45.66468" lon="6.19098">
        <ele>985.327332</ele>
        <time>2011-09-11T08:27:42Z</time>
      </trkpt>
      <trkpt lat="45.66463" lon="6.19093">
        <ele>985.375488</ele>
        <time>2011-09-11T08:27:47Z</time>
      </trkpt>
      <trkpt lat="45.66458" lon="6.19086">
        <ele>985.38678</ele>
        <time>2011-09-11T08:27:52Z</time>
      </trkpt>
      <trkpt lat="45.66452" lon="6.1908">
        <ele>985.410706</ele>
        <time>2011-09-11T08:27:57Z</time>
      </trkpt>
      <trkpt lat="45.66447" lon="6.19074">
        <ele>985.390625</ele>
        <time>2011-09-11T08:28:02Z</time>
      </trkpt>
      <trkpt lat="45.66441" lon="6.19067">
        <ele>985.654724</ele>
        <time>2011-09-11T08:28:07Z</time>
      </trkpt>
      <trkpt lat="45.66437" lon="6.19059">
        <ele>985.967773</ele>
        <time>2011-09-11T08:28:12Z</time>
      </trkpt>
      <trkpt lat="45.66433" lon="6.19049">
        <ele>985.673523</ele>
        <time>2011-09-11T08:28:17Z</time>
      </trkpt>
      <trkpt lat="45.6643" lon="6.19039">
        <ele>985.160156</ele>
        <time>2011-09-11T08:28:22Z</time>
      </trkpt>
      <trkpt lat="45.66427" lon="6.19029">
        <ele>984.642395</ele>
        <time>2011-09-11T08:28:27Z</time>
      </trkpt>
      <trkpt lat="45.66424" lon="6.19018">
        <ele>984.139038</ele>
        <time>2011-09-11T08:28:32Z</time>
      </trkpt>
      <trkpt lat="45.66422" lon="6.19009">
        <ele>983.674866</ele>
        <time>2011-09-11T08:28:37Z</time>
      </trkpt>
      <trkpt lat="45.6642" lon="6.18999">
        <ele>983.151733</ele>
        <time>2011-09-11T08:28:42Z</time>
      </trkpt>
      <trkpt lat="45.66417" lon="6.18988">
        <ele>982.626343</ele>
        <time>2011-09-11T08:28:47Z</time>
      </trkpt>
      <trkpt lat="45.66415" lon="6.18979">
        <ele>982.048279</ele>
        <time>2011-09-11T08:28:52Z</time>
      </trkpt>
      <trkpt lat="45.66414" lon="6.18969">
        <ele>981.309753</ele>
        <time>2011-09-11T08:28:57Z</time>
      </trkpt>
      <trkpt lat="45.66412" lon="6.1896">
        <ele>980.611084</ele>
        <time>2011-09-11T08:29:02Z</time>
      </trkpt>
      <trkpt lat="45.66412" lon="6.1895">
        <ele>979.702332</ele>
        <time>2011-09-11T08:29:07Z</time>
      </trkpt>
      <trkpt lat="45.66409" lon="6.18941">
        <ele>978.955688</ele>
        <time>2011-09-11T08:29:12Z</time>
      </trkpt>
      <trkpt lat="45.66408" lon="6.18933">
        <ele>978.289856</ele>
        <time>2011-09-11T08:29:17Z</time>
      </trkpt>
      <trkpt lat="45.66407" lon="6.18927">
        <ele>977.736267</ele>
        <time>2011-09-11T08:29:22Z</time>
      </trkpt>
      <trkpt lat="45.66403" lon="6.18921">
        <ele>977.620361</ele>
        <time>2011-09-11T08:29:27Z</time>
      </trkpt>
      <trkpt lat="45.66399" lon="6.18916">
        <ele>977.486694</ele>
        <time>2011-09-11T08:29:32Z</time>
      </trkpt>
      <trkpt lat="45.66395" lon="6.18912">
        <ele>977.382202</ele>
        <time>2011-09-11T08:29:37Z</time>
      </trkpt>
      <trkpt lat="45.66391" lon="6.18907">
        <ele>977.10199</ele>
        <time>2011-09-11T08:29:42Z</time>
      </trkpt>
      <trkpt lat="45.66386" lon="6.18902">
        <ele>976.829163</ele>
        <time>2011-09-11T08:29:47Z</time>
      </trkpt>
      <trkpt lat="45.66382" lon="6.18898">
        <ele>976.452515</ele>
        <time>2011-09-11T08:29:52Z</time>
      </trkpt>
      <trkpt lat="45.66378" lon="6.18894">
        <ele>976.02887</ele>
        <time>2011-09-11T08:29:57Z</time>
      </trkpt>
      <trkpt lat="45.66374" lon="6.18888">
        <ele>975.275391</ele>
        <time>2011-09-11T08:30:02Z</time>
      </trkpt>
      <trkpt lat="45.6637" lon="6.18882">
        <ele>974.5354</ele>
        <time>2011-09-11T08:30:07Z</time>
      </trkpt>
      <trkpt lat="45.66366" lon="6.18878">
        <ele>973.928955</ele>
        <time>2011-09-11T08:30:12Z</time>
      </trkpt>
      <trkpt lat="45.66362" lon="6.18874">
        <ele>973.256897</ele>
        <time>2011-09-11T08:30:17Z</time>
      </trkpt>
      <trkpt lat="45.66358" lon="6.1887">
        <ele>972.861877</ele>
        <time>2011-09-11T08:30:22Z</time>
      </trkpt>
      <trkpt lat="45.66353" lon="6.18866">
        <ele>972.580017</ele>
        <time>2011-09-11T08:30:27Z</time>
      </trkpt>
      <trkpt lat="45.6635" lon="6.18862">
        <ele>972.213135</ele>
        <time>2011-09-11T08:30:32Z</time>
      </trkpt>
      <trkpt lat="45.66347" lon="6.18858">
        <ele>971.663269</ele>
        <time>2011-09-11T08:30:37Z</time>
      </trkpt>
      <trkpt lat="45.66346" lon="6.18851">
        <ele>970.573975</ele>
        <time>2011-09-11T08:30:42Z</time>
      </trkpt>
      <trkpt lat="45.66344" lon="6.18848">
        <ele>970.198914</ele>
        <time>2011-09-11T08:30:47Z</time>
      </trkpt>
      <trkpt lat="45.66341" lon="6.18842">
        <ele>969.227905</ele>
        <time>2011-09-11T08:30:52Z</time>
      </trkpt>
      <trkpt lat="45.66338" lon="6.18836">
        <ele>968.358765</ele>
        <time>2011-09-11T08:30:57Z</time>
      </trkpt>
      <trkpt lat="45.66336" lon="6.1883">
        <ele>967.385498</ele>
        <time>2011-09-11T08:31:02Z</time>
      </trkpt>
      <trkpt lat="45.66332" lon="6.18824">
        <ele>966.577698</ele>
        <time>2011-09-11T08:31:07Z</time>
      </trkpt>
      <trkpt lat="45.66329" lon="6.18819">
        <ele>965.756653</ele>
        <time>2011-09-11T08:31:12Z</time>
      </trkpt>
      <trkpt lat="45.66325" lon="6.18815">
        <ele>965.101807</ele>
        <time>2011-09-11T08:31:17Z</time>
      </trkpt>
      <trkpt lat="45.66324" lon="6.18811">
        <ele>964.413147</ele>
        <time>2011-09-11T08:31:22Z</time>
      </trkpt>
      <trkpt lat="45.66322" lon="6.18807">
        <ele>963.616638</ele>
        <time>2011-09-11T08:31:27Z</time>
      </trkpt>
      <trkpt lat="45.6632" lon="6.18804">
        <ele>962.9953</ele>
        <time>2011-09-11T08:31:32Z</time>
      </trkpt>
      <trkpt lat="45.66317" lon="6.18798">
        <ele>962.315308</ele>
        <time>2011-09-11T08:31:37Z</time>
      </trkpt>
      <trkpt lat="45.66314" lon="6.18794">
        <ele>961.840576</ele>
        <time>2011-09-11T08:31:42Z</time>
      </trkpt>
      <trkpt lat="45.6631" lon="6.18788">
        <ele>960.912781</ele>
        <time>2011-09-11T08:31:47Z</time>
      </trkpt>
      <trkpt lat="45.66308" lon="6.18782">
        <ele>959.770996</ele>
        <time>2011-09-11T08:31:52Z</time>
      </trkpt>
      <trkpt lat="45.66304" lon="6.18777">
        <ele>958.733521</ele>
        <time>2011-09-11T08:31:57Z</time>
      </trkpt>
      <trkpt lat="45.66301" lon="6.18772">
        <ele>958.095215</ele>
        <time>2011-09-11T08:32:02Z</time>
      </trkpt>
      <trkpt lat="45.66297" lon="6.18768">
        <ele>957.460754</ele>
        <time>2011-09-11T08:32:07Z</time>
      </trkpt>
      <trkpt lat="45.66293" lon="6.18764">
        <ele>957.08313</ele>
        <time>2011-09-11T08:32:12Z</time>
      </trkpt>
      <trkpt lat="45.66289" lon="6.18761">
        <ele>956.670654</ele>
        <time>2011-09-11T08:32:17Z</time>
      </trkpt>
      <trkpt lat="45.66285" lon="6.18758">
        <ele>956.485779</ele>
        <time>2011-09-11T08:32:22Z</time>
      </trkpt>
      <trkpt lat="45.66282" lon="6.18755">
        <ele>956.01178</ele>
        <time>2011-09-11T08:32:27Z</time>
      </trkpt>
      <trkpt lat="45.66279" lon="6.18752">
        <ele>955.790833</ele>
        <time>2011-09-11T08:32:32Z</time>
      </trkpt>
      <trkpt lat="45.66275" lon="6.1875">
        <ele>955.538391</ele>
        <time>2011-09-11T08:32:37Z</time>
      </trkpt>
      <trkpt lat="45.66271" lon="6.18747">
        <ele>954.788635</ele>
        <time>2011-09-11T08:32:42Z</time>
      </trkpt>
      <trkpt lat="45.66267" lon="6.18745">
        <ele>954.382996</ele>
        <time>2011-09-11T08:32:47Z</time>
      </trkpt>
      <trkpt lat="45.66265" lon="6.18745">
        <ele>954.278381</ele>
        <time>2011-09-11T08:32:52Z</time>
      </trkpt>
      <trkpt lat="45.66266" lon="6.18744">
        <ele>953.994995</ele>
        <time>2011-09-11T08:32:57Z</time>
      </trkpt>
      <trkpt lat="45.66264" lon="6.18743">
        <ele>953.87439</ele>
        <time>2011-09-11T08:33:02Z</time>
      </trkpt>
      <trkpt lat="45.66259" lon="6.1874">
        <ele>953.116943</ele>
        <time>2011-09-11T08:33:07Z</time>
      </trkpt>
      <trkpt lat="45.66256" lon="6.18739">
        <ele>952.686035</ele>
        <time>2011-09-11T08:33:12Z</time>
      </trkpt>
      <trkpt lat="45.66253" lon="6.18736">
        <ele>951.972046</ele>
        <time>2011-09-11T08:33:17Z</time>
      </trkpt>
      <trkpt lat="45.6625" lon="6.18733">
        <ele>951.328918</ele>
        <time>2011-09-11T08:33:22Z</time>
      </trkpt>
      <trkpt lat="45.66245" lon="6.1873">
        <ele>950.512878</ele>
        <time>2011-09-11T08:33:27Z</time>
      </trkpt>
      <trkpt lat="45.66239" lon="6.18726">
        <ele>949.428833</ele>
        <time>2011-09-11T08:33:32Z</time>
      </trkpt>
      <trkpt lat="45.66232" lon="6.18722">
        <ele>948.524658</ele>
        <time>2011-09-11T08:33:37Z</time>
      </trkpt>
      <trkpt lat="45.66227" lon="6.18719">
        <ele>948.118103</ele>
        <time>2011-09-11T08:33:42Z</time>
      </trkpt>
      <trkpt lat="45.66223" lon="6.18717">
        <ele>947.743469</ele>
        <time>2011-09-11T08:33:47Z</time>
      </trkpt>
      <trkpt lat="45.66219" lon="6.18714">
        <ele>947.289673</ele>
        <time>2011-09-11T08:33:52Z</time>
      </trkpt>
      <trkpt lat="45.66214" lon="6.18712">
        <ele>947.107727</ele>
        <time>2011-09-11T08:33:57Z</time>
      </trkpt>
      <trkpt lat="45.66212" lon="6.18709">
        <ele>946.702393</ele>
        <time>2011-09-11T08:34:02Z</time>
      </trkpt>
      <trkpt lat="45.66209" lon="6.18706">
        <ele>946.134094</ele>
        <time>2011-09-11T08:34:07Z</time>
      </trkpt>
      <trkpt lat="45.66204" lon="6.18702">
        <ele>945.221985</ele>
        <time>2011-09-11T08:34:12Z</time>
      </trkpt>
      <trkpt lat="45.66199" lon="6.18697">
        <ele>944.466248</ele>
        <time>2011-09-11T08:34:17Z</time>
      </trkpt>
      <trkpt lat="45.66195" lon="6.18694">
        <ele>943.804993</ele>
        <time>2011-09-11T08:34:22Z</time>
      </trkpt>
      <trkpt lat="45.66191" lon="6.1869">
        <ele>943.102539</ele>
        <time>2011-09-11T08:34:27Z</time>
      </trkpt>
      <trkpt lat="45.66186" lon="6.18685">
        <ele>942.387512</ele>
        <time>2011-09-11T08:34:32Z</time>
      </trkpt>
      <trkpt lat="45.66182" lon="6.18681">
        <ele>941.652527</ele>
        <time>2011-09-11T08:34:37Z</time>
      </trkpt>
      <trkpt lat="45.66178" lon="6.18677">
        <ele>940.859985</ele>
        <time>2011-09-11T08:34:42Z</time>
      </trkpt>
      <trkpt lat="45.66174" lon="6.18672">
        <ele>939.945007</ele>
        <time>2011-09-11T08:34:47Z</time>
      </trkpt>
      <trkpt lat="45.66171" lon="6.18667">
        <ele>938.974976</ele>
        <time>2011-09-11T08:34:52Z</time>
      </trkpt>
      <trkpt lat="45.66168" lon="6.18662">
        <ele>938.002502</ele>
        <time>2011-09-11T08:34:57Z</time>
      </trkpt>
      <trkpt lat="45.66164" lon="6.18658">
        <ele>937.304993</ele>
        <time>2011-09-11T08:35:02Z</time>
      </trkpt>
      <trkpt lat="45.6616" lon="6.18654">
        <ele>936.493408</ele>
        <time>2011-09-11T08:35:07Z</time>
      </trkpt>
      <trkpt lat="45.66158" lon="6.18653">
        <ele>936.367737</ele>
        <time>2011-09-11T08:35:12Z</time>
      </trkpt>
      <trkpt lat="45.66159" lon="6.18653">
        <ele>936.386475</ele>
        <time>2011-09-11T08:35:17Z</time>
      </trkpt>
      <trkpt lat="45.66159" lon="6.1865">
        <ele>935.740051</ele>
        <time>2011-09-11T08:35:22Z</time>
      </trkpt>
      <trkpt lat="45.66158" lon="6.18648">
        <ele>935.161499</ele>
        <time>2011-09-11T08:35:27Z</time>
      </trkpt>
      <trkpt lat="45.66159" lon="6.18647">
        <ele>934.897217</ele>
        <time>2011-09-11T08:35:32Z</time>
      </trkpt>
      <trkpt lat="45.66161" lon="6.18648">
        <ele>935.113281</ele>
        <time>2011-09-11T08:35:37Z</time>
      </trkpt>
      <trkpt lat="45.6616" lon="6.18648">
        <ele>935.132751</ele>
        <time>2011-09-11T08:35:42Z</time>
      </trkpt>
      <trkpt lat="45.6616" lon="6.18648">
        <ele>935.044495</ele>
        <time>2011-09-11T08:35:47Z</time>
      </trkpt>
      <trkpt lat="45.66158" lon="6.18645">
        <ele>934.699829</ele>
        <time>2011-09-11T08:35:52Z</time>
      </trkpt>
      <trkpt lat="45.66157" lon="6.18645">
        <ele>934.570923</ele>
        <time>2011-09-11T08:35:57Z</time>
      </trkpt>
      <trkpt lat="45.66158" lon="6.18647">
        <ele>934.97467</ele>
        <time>2011-09-11T08:36:02Z</time>
      </trkpt>
      <trkpt lat="45.66158" lon="6.18647">
        <ele>935.053162</ele>
        <time>2011-09-11T08:36:07Z</time>
      </trkpt>
      <trkpt lat="45.66158" lon="6.18647">
        <ele>935.013916</ele>
        <time>2011-09-11T08:36:12Z</time>
      </trkpt>
      <trkpt lat="45.66157" lon="6.18647">
        <ele>935.209717</ele>
        <time>2011-09-11T08:36:17Z</time>
      </trkpt>
      <trkpt lat="45.66157" lon="6.18647">
        <ele>935.238953</ele>
        <time>2011-09-11T08:36:22Z</time>
      </trkpt>
      <trkpt lat="45.66157" lon="6.18647">
        <ele>935.120972</ele>
        <time>2011-09-11T08:36:27Z</time>
      </trkpt>
      <trkpt lat="45.66157" lon="6.18646">
        <ele>934.924377</ele>
        <time>2011-09-11T08:36:32Z</time>
      </trkpt>
      <trkpt lat="45.66156" lon="6.18646">
        <ele>934.962524</ele>
        <time>2011-09-11T08:36:37Z</time>
      </trkpt>
      <trkpt lat="45.66156" lon="6.18645">
        <ele>934.912781</ele>
        <time>2011-09-11T08:36:42Z</time>
      </trkpt>
      <trkpt lat="45.66155" lon="6.18645">
        <ele>934.881836</ele>
        <time>2011-09-11T08:36:47Z</time>
      </trkpt>
      <trkpt lat="45.66155" lon="6.18644">
        <ele>934.79248</ele>
        <time>2011-09-11T08:36:52Z</time>
      </trkpt>
      <trkpt lat="45.66154" lon="6.18644">
        <ele>934.663452</ele>
        <time>2011-09-11T08:36:57Z</time>
      </trkpt>
      <trkpt lat="45.66154" lon="6.18643">
        <ele>934.554626</ele>
        <time>2011-09-11T08:37:02Z</time>
      </trkpt>
      <trkpt lat="45.66152" lon="6.18642">
        <ele>934.509521</ele>
        <time>2011-09-11T08:37:07Z</time>
      </trkpt>
      <trkpt lat="45.6615" lon="6.1864">
        <ele>934.29303</ele>
        <time>2011-09-11T08:37:12Z</time>
      </trkpt>
      <trkpt lat="45.66148" lon="6.18639">
        <ele>934.144165</ele>
        <time>2011-09-11T08:37:17Z</time>
      </trkpt>
      <trkpt lat="45.66146" lon="6.18637">
        <ele>933.934387</ele>
        <time>2011-09-11T08:37:22Z</time>
      </trkpt>
      <trkpt lat="45.66143" lon="6.18634">
        <ele>933.369995</ele>
        <time>2011-09-11T08:37:27Z</time>
      </trkpt>
      <trkpt lat="45.66137" lon="6.1863">
        <ele>932.532471</ele>
        <time>2011-09-11T08:37:32Z</time>
      </trkpt>
      <trkpt lat="45.66133" lon="6.18625">
        <ele>931.52002</ele>
        <time>2011-09-11T08:37:37Z</time>
      </trkpt>
      <trkpt lat="45.66129" lon="6.18621">
        <ele>930.724976</ele>
        <time>2011-09-11T08:37:42Z</time>
      </trkpt>
      <trkpt lat="45.66125" lon="6.18617">
        <ele>929.752502</ele>
        <time>2011-09-11T08:37:47Z</time>
      </trkpt>
      <trkpt lat="45.66121" lon="6.18613">
        <ele>928.882507</ele>
        <time>2011-09-11T08:37:52Z</time>
      </trkpt>
      <trkpt lat="45.66116" lon="6.18607">
        <ele>927.657471</ele>
        <time>2011-09-11T08:37:57Z</time>
      </trkpt>
      <trkpt lat="45.66112" lon="6.18601">
        <ele>926.340027</ele>
        <time>2011-09-11T08:38:02Z</time>
      </trkpt>
      <trkpt lat="45.66106" lon="6.18596">
        <ele>925.327515</ele>
        <time>2011-09-11T08:38:07Z</time>
      </trkpt>
      <trkpt lat="45.66102" lon="6.18591">
        <ele>924.32251</ele>
        <time>2011-09-11T08:38:12Z</time>
      </trkpt>
      <trkpt lat="45.66099" lon="6.18586">
        <ele>922.940002</ele>
        <time>2011-09-11T08:38:17Z</time>
      </trkpt>
      <trkpt lat="45.66094" lon="6.18581">
        <ele>921.486145</ele>
        <time>2011-09-11T08:38:22Z</time>
      </trkpt>
      <trkpt lat="45.66089" lon="6.18576">
        <ele>920.167664</ele>
        <time>2011-09-11T08:38:27Z</time>
      </trkpt>
      <trkpt lat="45.66086" lon="6.18572">
        <ele>919.097961</ele>
        <time>2011-09-11T08:38:32Z</time>
      </trkpt>
      <trkpt lat="45.66081" lon="6.18568">
        <ele>917.887878</ele>
        <time>2011-09-11T08:38:37Z</time>
      </trkpt>
      <trkpt lat="45.66078" lon="6.18564">
        <ele>917.052429</ele>
        <time>2011-09-11T08:38:42Z</time>
      </trkpt>
      <trkpt lat="45.66074" lon="6.18559">
        <ele>915.832092</ele>
        <time>2011-09-11T08:38:47Z</time>
      </trkpt>
      <trkpt lat="45.6607" lon="6.18555">
        <ele>914.664978</ele>
        <time>2011-09-11T08:38:52Z</time>
      </trkpt>
      <trkpt lat="45.66066" lon="6.1855">
        <ele>913.679321</ele>
        <time>2011-09-11T08:38:57Z</time>
      </trkpt>
      <trkpt lat="45.66063" lon="6.18546">
        <ele>912.73114</ele>
        <time>2011-09-11T08:39:02Z</time>
      </trkpt>
      <trkpt lat="45.66058" lon="6.18543">
        <ele>911.834961</ele>
        <time>2011-09-11T08:39:07Z</time>
      </trkpt>
      <trkpt lat="45.66055" lon="6.18538">
        <ele>910.825012</ele>
        <time>2011-09-11T08:39:12Z</time>
      </trkpt>
      <trkpt lat="45.66051" lon="6.18533">
        <ele>909.78125</ele>
        <time>2011-09-11T08:39:17Z</time>
      </trkpt>
      <trkpt lat="45.66049" lon="6.18528">
        <ele>908.808777</ele>
        <time>2011-09-11T08:39:22Z</time>
      </trkpt>
      <trkpt lat="45.66045" lon="6.18525">
        <ele>908.078735</ele>
        <time>2011-09-11T08:39:27Z</time>
      </trkpt>
      <trkpt lat="45.6604" lon="6.18522">
        <ele>907.460022</ele>
        <time>2011-09-11T08:39:32Z</time>
      </trkpt>
      <trkpt lat="45.66036" lon="6.18518">
        <ele>906.608765</ele>
        <time>2011-09-11T08:39:37Z</time>
      </trkpt>
      <trkpt lat="45.66031" lon="6.18515">
        <ele>906.097534</ele>
        <time>2011-09-11T08:39:42Z</time>
      </trkpt>
      <trkpt lat="45.66027" lon="6.18512">
        <ele>905.455017</ele>
        <time>2011-09-11T08:39:47Z</time>
      </trkpt>
      <trkpt lat="45.66023" lon="6.18508">
        <ele>904.744934</ele>
        <time>2011-09-11T08:39:52Z</time>
      </trkpt>
      <trkpt lat="45.66018" lon="6.18504">
        <ele>904.035889</ele>
        <time>2011-09-11T08:39:57Z</time>
      </trkpt>
      <trkpt lat="45.66013" lon="6.18499">
        <ele>903.218445</ele>
        <time>2011-09-11T08:40:02Z</time>
      </trkpt>
      <trkpt lat="45.6601" lon="6.18495">
        <ele>902.654236</ele>
        <time>2011-09-11T08:40:07Z</time>
      </trkpt>
      <trkpt lat="45.66006" lon="6.18491">
        <ele>902.099609</ele>
        <time>2011-09-11T08:40:12Z</time>
      </trkpt>
      <trkpt lat="45.66005" lon="6.18489">
        <ele>901.755005</ele>
        <time>2011-09-11T08:40:17Z</time>
      </trkpt>
      <trkpt lat="45.66002" lon="6.18485">
        <ele>901.284851</ele>
        <time>2011-09-11T08:40:22Z</time>
      </trkpt>
      <trkpt lat="45.66" lon="6.1848">
        <ele>900.355896</ele>
        <time>2011-09-11T08:40:27Z</time>
      </trkpt>
      <trkpt lat="45.65998" lon="6.18475">
        <ele>899.610901</ele>
        <time>2011-09-11T08:40:32Z</time>
      </trkpt>
      <trkpt lat="45.65997" lon="6.18475">
        <ele>899.519226</ele>
        <time>2011-09-11T08:40:37Z</time>
      </trkpt>
      <trkpt lat="45.65996" lon="6.18474">
        <ele>899.443726</ele>
        <time>2011-09-11T08:40:42Z</time>
      </trkpt>
      <trkpt lat="45.65995" lon="6.1847">
        <ele>898.726563</ele>
        <time>2011-09-11T08:40:47Z</time>
      </trkpt>
      <trkpt lat="45.65993" lon="6.18466">
        <ele>898.015015</ele>
        <time>2011-09-11T08:40:52Z</time>
      </trkpt>
      <trkpt lat="45.65992" lon="6.18463">
        <ele>897.489441</ele>
        <time>2011-09-11T08:40:57Z</time>
      </trkpt>
      <trkpt lat="45.65991" lon="6.18462">
        <ele>897.255493</ele>
        <time>2011-09-11T08:41:02Z</time>
      </trkpt>
      <trkpt lat="45.65991" lon="6.18462">
        <ele>897.227966</ele>
        <time>2011-09-11T08:41:07Z</time>
      </trkpt>
      <trkpt lat="45.65991" lon="6.18461">
        <ele>897.104126</ele>
        <time>2011-09-11T08:41:12Z</time>
      </trkpt>
      <trkpt lat="45.65991" lon="6.18461">
        <ele>897.046082</ele>
        <time>2011-09-11T08:41:17Z</time>
      </trkpt>
      <trkpt lat="45.6599" lon="6.18459">
        <ele>896.80957</ele>
        <time>2011-09-11T08:41:22Z</time>
      </trkpt>
      <trkpt lat="45.65989" lon="6.18457">
        <ele>896.311523</ele>
        <time>2011-09-11T08:41:27Z</time>
      </trkpt>
      <trkpt lat="45.65987" lon="6.18452">
        <ele>895.492432</ele>
        <time>2011-09-11T08:41:32Z</time>
      </trkpt>
      <trkpt lat="45.65987" lon="6.18452">
        <ele>895.46106</ele>
        <time>2011-09-11T08:41:37Z</time>
      </trkpt>
      <trkpt lat="45.65987" lon="6.1845">
        <ele>895.046143</ele>
        <time>2011-09-11T08:41:42Z</time>
      </trkpt>
      <trkpt lat="45.65987" lon="6.1845">
        <ele>895.015381</ele>
        <time>2011-09-11T08:41:47Z</time>
      </trkpt>
      <trkpt lat="45.65986" lon="6.18447">
        <ele>894.708618</ele>
        <time>2011-09-11T08:41:52Z</time>
      </trkpt>
      <trkpt lat="45.65986" lon="6.18447">
        <ele>894.615417</ele>
        <time>2011-09-11T08:41:57Z</time>
      </trkpt>
      <trkpt lat="45.65985" lon="6.18444">
        <ele>894.163452</ele>
        <time>2011-09-11T08:42:02Z</time>
      </trkpt>
      <trkpt lat="45.65986" lon="6.18447">
        <ele>894.662048</ele>
        <time>2011-09-11T08:42:07Z</time>
      </trkpt>
      <trkpt lat="45.65987" lon="6.1845">
        <ele>895.046082</ele>
        <time>2011-09-11T08:42:12Z</time>
      </trkpt>
      <trkpt lat="45.65989" lon="6.18454">
        <ele>895.764038</ele>
        <time>2011-09-11T08:42:17Z</time>
      </trkpt>
      <trkpt lat="45.65989" lon="6.18455">
        <ele>896.096619</ele>
        <time>2011-09-11T08:42:22Z</time>
      </trkpt>
      <trkpt lat="45.65989" lon="6.18455">
        <ele>896.066162</ele>
        <time>2011-09-11T08:42:27Z</time>
      </trkpt>
      <trkpt lat="45.65989" lon="6.18454">
        <ele>895.777771</ele>
        <time>2011-09-11T08:42:32Z</time>
      </trkpt>
      <trkpt lat="45.65988" lon="6.18451">
        <ele>895.352356</ele>
        <time>2011-09-11T08:42:37Z</time>
      </trkpt>
      <trkpt lat="45.65988" lon="6.18451">
        <ele>895.199219</ele>
        <time>2011-09-11T08:42:42Z</time>
      </trkpt>
      <trkpt lat="45.65987" lon="6.1845">
        <ele>895.107483</ele>
        <time>2011-09-11T08:42:47Z</time>
      </trkpt>
      <trkpt lat="45.65988" lon="6.1845">
        <ele>895.153076</ele>
        <time>2011-09-11T08:42:52Z</time>
      </trkpt>
      <trkpt lat="45.65988" lon="6.18451">
        <ele>895.290833</ele>
        <time>2011-09-11T08:42:57Z</time>
      </trkpt>
      <trkpt lat="45.65988" lon="6.1845">
        <ele>895.030579</ele>
        <time>2011-09-11T08:43:02Z</time>
      </trkpt>
      <trkpt lat="45.65989" lon="6.18451">
        <ele>895.24408</ele>
        <time>2011-09-11T08:43:07Z</time>
      </trkpt>
      <trkpt lat="45.6599" lon="6.18452">
        <ele>895.395691</ele>
        <time>2011-09-11T08:43:12Z</time>
      </trkpt>
      <trkpt lat="45.65988" lon="6.1845">
        <ele>895</ele>
        <time>2011-09-11T08:43:17Z</time>
      </trkpt>
      <trkpt lat="45.65985" lon="6.18444">
        <ele>894.232117</ele>
        <time>2011-09-11T08:43:22Z</time>
      </trkpt>
      <trkpt lat="45.65982" lon="6.18437">
        <ele>893.293823</ele>
        <time>2011-09-11T08:43:27Z</time>
      </trkpt>
      <trkpt lat="45.65979" lon="6.1843">
        <ele>892.334351</ele>
        <time>2011-09-11T08:43:32Z</time>
      </trkpt>
      <trkpt lat="45.65976" lon="6.18424">
        <ele>891.516541</ele>
        <time>2011-09-11T08:43:37Z</time>
      </trkpt>
      <trkpt lat="45.65974" lon="6.18418">
        <ele>890.661987</ele>
        <time>2011-09-11T08:43:42Z</time>
      </trkpt>
      <trkpt lat="45.65973" lon="6.18413">
        <ele>889.969849</ele>
        <time>2011-09-11T08:43:47Z</time>
      </trkpt>
      <trkpt lat="45.65972" lon="6.18407">
        <ele>889.162354</ele>
        <time>2011-09-11T08:43:52Z</time>
      </trkpt>
      <trkpt lat="45.65972" lon="6.18401">
        <ele>888.413452</ele>
        <time>2011-09-11T08:43:57Z</time>
      </trkpt>
      <trkpt lat="45.65972" lon="6.18396">
        <ele>887.708252</ele>
        <time>2011-09-11T08:44:02Z</time>
      </trkpt>
      <trkpt lat="45.6597" lon="6.18389">
        <ele>886.84314</ele>
        <time>2011-09-11T08:44:07Z</time>
      </trkpt>
      <trkpt lat="45.65968" lon="6.18383">
        <ele>885.944092</ele>
        <time>2011-09-11T08:44:12Z</time>
      </trkpt>
      <trkpt lat="45.65968" lon="6.18376">
        <ele>885.009399</ele>
        <time>2011-09-11T08:44:17Z</time>
      </trkpt>
      <trkpt lat="45.65968" lon="6.18369">
        <ele>884.02832</ele>
        <time>2011-09-11T08:44:22Z</time>
      </trkpt>
      <trkpt lat="45.65966" lon="6.18362">
        <ele>883.066956</ele>
        <time>2011-09-11T08:44:27Z</time>
      </trkpt>
      <trkpt lat="45.65966" lon="6.18355">
        <ele>882.026062</ele>
        <time>2011-09-11T08:44:32Z</time>
      </trkpt>
      <trkpt lat="45.65966" lon="6.18347">
        <ele>880.967529</ele>
        <time>2011-09-11T08:44:37Z</time>
      </trkpt>
      <trkpt lat="45.65965" lon="6.1834">
        <ele>879.952026</ele>
        <time>2011-09-11T08:44:42Z</time>
      </trkpt>
      <trkpt lat="45.65963" lon="6.18334">
        <ele>879.052673</ele>
        <time>2011-09-11T08:44:47Z</time>
      </trkpt>
      <trkpt lat="45.6596" lon="6.18327">
        <ele>878.143555</ele>
        <time>2011-09-11T08:44:52Z</time>
      </trkpt>
      <trkpt lat="45.65958" lon="6.18321">
        <ele>877.234924</ele>
        <time>2011-09-11T08:44:57Z</time>
      </trkpt>
      <trkpt lat="45.65955" lon="6.18314">
        <ele>876.381226</ele>
        <time>2011-09-11T08:45:02Z</time>
      </trkpt>
      <trkpt lat="45.65952" lon="6.18309">
        <ele>875.638733</ele>
        <time>2011-09-11T08:45:07Z</time>
      </trkpt>
      <trkpt lat="45.65949" lon="6.18304">
        <ele>875.02002</ele>
        <time>2011-09-11T08:45:12Z</time>
      </trkpt>
      <trkpt lat="45.65945" lon="6.18298">
        <ele>874.243774</ele>
        <time>2011-09-11T08:45:17Z</time>
      </trkpt>
      <trkpt lat="45.65942" lon="6.18293">
        <ele>873.445007</ele>
        <time>2011-09-11T08:45:22Z</time>
      </trkpt>
      <trkpt lat="45.65939" lon="6.18287">
        <ele>872.668762</ele>
        <time>2011-09-11T08:45:27Z</time>
      </trkpt>
      <trkpt lat="45.65937" lon="6.18283">
        <ele>872.21875</ele>
        <time>2011-09-11T08:45:32Z</time>
      </trkpt>
      <trkpt lat="45.65935" lon="6.18278">
        <ele>871.487488</ele>
        <time>2011-09-11T08:45:37Z</time>
      </trkpt>
      <trkpt lat="45.65932" lon="6.18273">
        <ele>870.74884</ele>
        <time>2011-09-11T08:45:42Z</time>
      </trkpt>
      <trkpt lat="45.65929" lon="6.18266">
        <ele>869.839722</ele>
        <time>2011-09-11T08:45:47Z</time>
      </trkpt>
      <trkpt lat="45.65926" lon="6.18259">
        <ele>868.949036</ele>
        <time>2011-09-11T08:45:52Z</time>
      </trkpt>
      <trkpt lat="45.65923" lon="6.18253">
        <ele>868.08075</ele>
        <time>2011-09-11T08:45:57Z</time>
      </trkpt>
      <trkpt lat="45.6592" lon="6.18246">
        <ele>867.282471</ele>
        <time>2011-09-11T08:46:02Z</time>
      </trkpt>
      <trkpt lat="45.65917" lon="6.18239">
        <ele>866.547485</ele>
        <time>2011-09-11T08:46:07Z</time>
      </trkpt>
      <trkpt lat="45.65913" lon="6.18232">
        <ele>865.86499</ele>
        <time>2011-09-11T08:46:12Z</time>
      </trkpt>
      <trkpt lat="45.65909" lon="6.18227">
        <ele>865.331238</ele>
        <time>2011-09-11T08:46:17Z</time>
      </trkpt>
      <trkpt lat="45.65905" lon="6.18221">
        <ele>864.710022</ele>
        <time>2011-09-11T08:46:22Z</time>
      </trkpt>
      <trkpt lat="45.65901" lon="6.18215">
        <ele>864.123779</ele>
        <time>2011-09-11T08:46:27Z</time>
      </trkpt>
      <trkpt lat="45.65897" lon="6.1821">
        <ele>863.607483</ele>
        <time>2011-09-11T08:46:32Z</time>
      </trkpt>
      <trkpt lat="45.65893" lon="6.18205">
        <ele>863.038757</ele>
        <time>2011-09-11T08:46:37Z</time>
      </trkpt>
      <trkpt lat="45.65889" lon="6.18201">
        <ele>862.619019</ele>
        <time>2011-09-11T08:46:42Z</time>
      </trkpt>
      <trkpt lat="45.65884" lon="6.18198">
        <ele>862.220642</ele>
        <time>2011-09-11T08:46:47Z</time>
      </trkpt>
      <trkpt lat="45.65878" lon="6.18195">
        <ele>861.895325</ele>
        <time>2011-09-11T08:46:52Z</time>
      </trkpt>
      <trkpt lat="45.65873" lon="6.18193">
        <ele>861.609802</ele>
        <time>2011-09-11T08:46:57Z</time>
      </trkpt>
      <trkpt lat="45.65867" lon="6.18191">
        <ele>861.271423</ele>
        <time>2011-09-11T08:47:02Z</time>
      </trkpt>
      <trkpt lat="45.65864" lon="6.1819">
        <ele>861.116211</ele>
        <time>2011-09-11T08:47:07Z</time>
      </trkpt>
      <trkpt lat="45.6586" lon="6.18188">
        <ele>860.823853</ele>
        <time>2011-09-11T08:47:12Z</time>
      </trkpt>
      <trkpt lat="45.65855" lon="6.18185">
        <ele>860.356079</ele>
        <time>2011-09-11T08:47:17Z</time>
      </trkpt>
      <trkpt lat="45.6585" lon="6.18181">
        <ele>859.920044</ele>
        <time>2011-09-11T08:47:22Z</time>
      </trkpt>
      <trkpt lat="45.65845" lon="6.18176">
        <ele>859.348999</ele>
        <time>2011-09-11T08:47:27Z</time>
      </trkpt>
      <trkpt lat="45.65841" lon="6.18172">
        <ele>859.116333</ele>
        <time>2011-09-11T08:47:32Z</time>
      </trkpt>
      <trkpt lat="45.65837" lon="6.18167">
        <ele>858.817261</ele>
        <time>2011-09-11T08:47:37Z</time>
      </trkpt>
      <trkpt lat="45.65832" lon="6.18161">
        <ele>858.484314</ele>
        <time>2011-09-11T08:47:42Z</time>
      </trkpt>
      <trkpt lat="45.65827" lon="6.18156">
        <ele>858.165649</ele>
        <time>2011-09-11T08:47:47Z</time>
      </trkpt>
      <trkpt lat="45.65822" lon="6.18151">
        <ele>857.852478</ele>
        <time>2011-09-11T08:47:52Z</time>
      </trkpt>
      <trkpt lat="45.65817" lon="6.18147">
        <ele>857.525391</ele>
        <time>2011-09-11T08:47:57Z</time>
      </trkpt>
      <trkpt lat="45.65812" lon="6.18142">
        <ele>857.183167</ele>
        <time>2011-09-11T08:48:02Z</time>
      </trkpt>
      <trkpt lat="45.65807" lon="6.18138">
        <ele>856.895447</ele>
        <time>2011-09-11T08:48:07Z</time>
      </trkpt>
      <trkpt lat="45.65802" lon="6.18134">
        <ele>856.571777</ele>
        <time>2011-09-11T08:48:12Z</time>
      </trkpt>
      <trkpt lat="45.65798" lon="6.1813">
        <ele>856.439026</ele>
        <time>2011-09-11T08:48:17Z</time>
      </trkpt>
      <trkpt lat="45.65793" lon="6.18127">
        <ele>856.405823</ele>
        <time>2011-09-11T08:48:22Z</time>
      </trkpt>
      <trkpt lat="45.65788" lon="6.18123">
        <ele>856.217468</ele>
        <time>2011-09-11T08:48:27Z</time>
      </trkpt>
      <trkpt lat="45.65783" lon="6.18119">
        <ele>855.997437</ele>
        <time>2011-09-11T08:48:32Z</time>
      </trkpt>
      <trkpt lat="45.65778" lon="6.18115">
        <ele>855.767944</ele>
        <time>2011-09-11T08:48:37Z</time>
      </trkpt>
      <trkpt lat="45.65773" lon="6.18112">
        <ele>855.854126</ele>
        <time>2011-09-11T08:48:42Z</time>
      </trkpt>
      <trkpt lat="45.65768" lon="6.1811">
        <ele>855.996521</ele>
        <time>2011-09-11T08:48:47Z</time>
      </trkpt>
      <trkpt lat="45.65763" lon="6.18106">
        <ele>855.887939</ele>
        <time>2011-09-11T08:48:52Z</time>
      </trkpt>
      <trkpt lat="45.65757" lon="6.18103">
        <ele>856.064514</ele>
        <time>2011-09-11T08:48:57Z</time>
      </trkpt>
      <trkpt lat="45.65756" lon="6.18103">
        <ele>856.099609</ele>
        <time>2011-09-11T08:49:02Z</time>
      </trkpt>
      <trkpt lat="45.65756" lon="6.18102">
        <ele>856.060608</ele>
        <time>2011-09-11T08:49:07Z</time>
      </trkpt>
      <trkpt lat="45.65755" lon="6.18103">
        <ele>856.161743</ele>
        <time>2011-09-11T08:49:12Z</time>
      </trkpt>
      <trkpt lat="45.65754" lon="6.181">
        <ele>856.013123</ele>
        <time>2011-09-11T08:49:17Z</time>
      </trkpt>
      <trkpt lat="45.6575" lon="6.18097">
        <ele>855.910645</ele>
        <time>2011-09-11T08:49:22Z</time>
      </trkpt>
      <trkpt lat="45.65746" lon="6.18094">
        <ele>855.87439</ele>
        <time>2011-09-11T08:49:27Z</time>
      </trkpt>
      <trkpt lat="45.65741" lon="6.1809">
        <ele>855.670288</ele>
        <time>2011-09-11T08:49:32Z</time>
      </trkpt>
      <trkpt lat="45.65741" lon="6.18089">
        <ele>855.617859</ele>
        <time>2011-09-11T08:49:37Z</time>
      </trkpt>
      <trkpt lat="45.65738" lon="6.18086">
        <ele>855.464966</ele>
        <time>2011-09-11T08:49:42Z</time>
      </trkpt>
      <trkpt lat="45.65732" lon="6.1808">
        <ele>855.158447</ele>
        <time>2011-09-11T08:49:47Z</time>
      </trkpt>
      <trkpt lat="45.65727" lon="6.18074">
        <ele>854.742432</ele>
        <time>2011-09-11T08:49:52Z</time>
      </trkpt>
      <trkpt lat="45.65722" lon="6.18069">
        <ele>854.4729</ele>
        <time>2011-09-11T08:49:57Z</time>
      </trkpt>
      <trkpt lat="45.65718" lon="6.18065">
        <ele>854.303467</ele>
        <time>2011-09-11T08:50:02Z</time>
      </trkpt>
      <trkpt lat="45.65714" lon="6.18064">
        <ele>854.433228</ele>
        <time>2011-09-11T08:50:07Z</time>
      </trkpt>
      <trkpt lat="45.65709" lon="6.18061">
        <ele>854.471497</ele>
        <time>2011-09-11T08:50:12Z</time>
      </trkpt>
      <trkpt lat="45.65704" lon="6.1806">
        <ele>854.701782</ele>
        <time>2011-09-11T08:50:17Z</time>
      </trkpt>
      <trkpt lat="45.65703" lon="6.18059">
        <ele>854.695496</ele>
        <time>2011-09-11T08:50:22Z</time>
      </trkpt>
      <trkpt lat="45.65703" lon="6.18059">
        <ele>854.677368</ele>
        <time>2011-09-11T08:50:27Z</time>
      </trkpt>
      <trkpt lat="45.65703" lon="6.18059">
        <ele>854.720215</ele>
        <time>2011-09-11T08:50:32Z</time>
      </trkpt>
      <trkpt lat="45.65703" lon="6.18059">
        <ele>854.665955</ele>
        <time>2011-09-11T08:50:37Z</time>
      </trkpt>
      <trkpt lat="45.65702" lon="6.18058">
        <ele>854.678467</ele>
        <time>2011-09-11T08:50:42Z</time>
      </trkpt>
      <trkpt lat="45.65701" lon="6.18058">
        <ele>854.666199</ele>
        <time>2011-09-11T08:50:47Z</time>
      </trkpt>
      <trkpt lat="45.657" lon="6.18056">
        <ele>854.617859</ele>
        <time>2011-09-11T08:50:52Z</time>
      </trkpt>
      <trkpt lat="45.65699" lon="6.18055">
        <ele>854.564087</ele>
        <time>2011-09-11T08:50:57Z</time>
      </trkpt>
      <trkpt lat="45.65696" lon="6.18052">
        <ele>854.451172</ele>
        <time>2011-09-11T08:54:12Z</time>
      </trkpt>
      <trkpt lat="45.65698" lon="6.18048">
        <ele>853.958252</ele>
        <time>2011-09-11T08:54:17Z</time>
      </trkpt>
      <trkpt lat="45.65701" lon="6.1804">
        <ele>852.952576</ele>
        <time>2011-09-11T08:54:22Z</time>
      </trkpt>
      <trkpt lat="45.65705" lon="6.18032">
        <ele>852.114197</ele>
        <time>2011-09-11T08:54:27Z</time>
      </trkpt>
      <trkpt lat="45.65708" lon="6.18024">
        <ele>851.333923</ele>
        <time>2011-09-11T08:54:32Z</time>
      </trkpt>
      <trkpt lat="45.65711" lon="6.18019">
        <ele>850.819153</ele>
        <time>2011-09-11T08:54:37Z</time>
      </trkpt>
      <trkpt lat="45.65713" lon="6.18018">
        <ele>850.566711</ele>
        <time>2011-09-11T08:58:07Z</time>
      </trkpt>
      <trkpt lat="45.65716" lon="6.18008">
        <ele>849.690002</ele>
        <time>2011-09-11T08:58:12Z</time>
      </trkpt>
      <trkpt lat="45.6572" lon="6.17999">
        <ele>848.945007</ele>
        <time>2011-09-11T08:58:17Z</time>
      </trkpt>
      <trkpt lat="45.65724" lon="6.1799">
        <ele>848.195007</ele>
        <time>2011-09-11T08:58:22Z</time>
      </trkpt>
      <trkpt lat="45.65727" lon="6.1798">
        <ele>847.422607</ele>
        <time>2011-09-11T08:58:27Z</time>
      </trkpt>
      <trkpt lat="45.65731" lon="6.1797">
        <ele>846.738464</ele>
        <time>2011-09-11T08:58:32Z</time>
      </trkpt>
      <trkpt lat="45.65733" lon="6.1796">
        <ele>846.043091</ele>
        <time>2011-09-11T08:58:37Z</time>
      </trkpt>
      <trkpt lat="45.65736" lon="6.17949">
        <ele>845.345215</ele>
        <time>2011-09-11T08:58:42Z</time>
      </trkpt>
      <trkpt lat="45.6574" lon="6.1794">
        <ele>844.698242</ele>
        <time>2011-09-11T08:58:47Z</time>
      </trkpt>
      <trkpt lat="45.65744" lon="6.17931">
        <ele>844.085266</ele>
        <time>2011-09-11T08:58:52Z</time>
      </trkpt>
      <trkpt lat="45.65748" lon="6.17922">
        <ele>843.505432</ele>
        <time>2011-09-11T08:58:57Z</time>
      </trkpt>
      <trkpt lat="45.65752" lon="6.17912">
        <ele>842.857483</ele>
        <time>2011-09-11T08:59:02Z</time>
      </trkpt>
      <trkpt lat="45.65757" lon="6.17905">
        <ele>842.22998</ele>
        <time>2011-09-11T08:59:07Z</time>
      </trkpt>
      <trkpt lat="45.65763" lon="6.17899">
        <ele>841.734985</ele>
        <time>2011-09-11T08:59:12Z</time>
      </trkpt>
      <trkpt lat="45.65768" lon="6.17891">
        <ele>841.109802</ele>
        <time>2011-09-11T08:59:17Z</time>
      </trkpt>
      <trkpt lat="45.65772" lon="6.17882">
        <ele>840.394775</ele>
        <time>2011-09-11T08:59:22Z</time>
      </trkpt>
      <trkpt lat="45.65775" lon="6.17873">
        <ele>839.734375</ele>
        <time>2011-09-11T08:59:27Z</time>
      </trkpt>
      <trkpt lat="45.65778" lon="6.17863">
        <ele>839.093384</ele>
        <time>2011-09-11T08:59:32Z</time>
      </trkpt>
      <trkpt lat="45.65783" lon="6.1785">
        <ele>838.322083</ele>
        <time>2011-09-11T09:00:32Z</time>
      </trkpt>
      <trkpt lat="45.65786" lon="6.17849">
        <ele>838.223022</ele>
        <time>2011-09-11T09:00:37Z</time>
      </trkpt>
      <trkpt lat="45.65787" lon="6.17848">
        <ele>838.194092</ele>
        <time>2011-09-11T09:00:42Z</time>
      </trkpt>
      <trkpt lat="45.65786" lon="6.17848">
        <ele>838.181335</ele>
        <time>2011-09-11T09:00:47Z</time>
      </trkpt>
      <trkpt lat="45.65788" lon="6.17848">
        <ele>838.144165</ele>
        <time>2011-09-11T09:00:52Z</time>
      </trkpt>
      <trkpt lat="45.65787" lon="6.17845">
        <ele>838.064636</ele>
        <time>2011-09-11T09:00:57Z</time>
      </trkpt>
      <trkpt lat="45.65786" lon="6.17841">
        <ele>837.912781</ele>
        <time>2011-09-11T09:01:02Z</time>
      </trkpt>
      <trkpt lat="45.65785" lon="6.17832">
        <ele>837.556763</ele>
        <time>2011-09-11T09:01:07Z</time>
      </trkpt>
      <trkpt lat="45.6578" lon="6.17822">
        <ele>837.235352</ele>
        <time>2011-09-11T09:01:12Z</time>
      </trkpt>
      <trkpt lat="45.65773" lon="6.17816">
        <ele>837.069275</ele>
        <time>2011-09-11T09:01:17Z</time>
      </trkpt>
      <trkpt lat="45.65765" lon="6.17813">
        <ele>837.059998</ele>
        <time>2011-09-11T09:01:22Z</time>
      </trkpt>
      <trkpt lat="45.65757" lon="6.1781">
        <ele>837.116272</ele>
        <time>2011-09-11T09:01:27Z</time>
      </trkpt>
      <trkpt lat="45.6575" lon="6.17807">
        <ele>837.140015</ele>
        <time>2011-09-11T09:01:32Z</time>
      </trkpt>
      <trkpt lat="45.65744" lon="6.17803">
        <ele>837.130005</ele>
        <time>2011-09-11T09:01:37Z</time>
      </trkpt>
      <trkpt lat="45.65737" lon="6.17799">
        <ele>837.112488</ele>
        <time>2011-09-11T09:01:42Z</time>
      </trkpt>
      <trkpt lat="45.6573" lon="6.17794">
        <ele>837.08252</ele>
        <time>2011-09-11T09:01:47Z</time>
      </trkpt>
      <trkpt lat="45.65725" lon="6.1779">
        <ele>837</ele>
        <time>2011-09-11T09:01:52Z</time>
      </trkpt>
      <trkpt lat="45.65725" lon="6.1779">
        <ele>837.027527</ele>
        <time>2011-09-11T09:01:57Z</time>
      </trkpt>
      <trkpt lat="45.65725" lon="6.1779">
        <ele>837.007507</ele>
        <time>2011-09-11T09:02:02Z</time>
      </trkpt>
      <trkpt lat="45.65723" lon="6.17788">
        <ele>836.962341</ele>
        <time>2011-09-11T09:02:07Z</time>
      </trkpt>
      <trkpt lat="45.65717" lon="6.17784">
        <ele>836.688782</ele>
        <time>2011-09-11T09:02:12Z</time>
      </trkpt>
      <trkpt lat="45.65711" lon="6.17781">
        <ele>836.438293</ele>
        <time>2011-09-11T09:02:17Z</time>
      </trkpt>
      <trkpt lat="45.65705" lon="6.17775">
        <ele>836.077942</ele>
        <time>2011-09-11T09:02:22Z</time>
      </trkpt>
      <trkpt lat="45.65699" lon="6.1777">
        <ele>835.745667</ele>
        <time>2011-09-11T09:02:27Z</time>
      </trkpt>
      <trkpt lat="45.65693" lon="6.17766">
        <ele>835.429504</ele>
        <time>2011-09-11T09:02:32Z</time>
      </trkpt>
      <trkpt lat="45.65688" lon="6.17763">
        <ele>835.171387</ele>
        <time>2011-09-11T09:02:37Z</time>
      </trkpt>
      <trkpt lat="45.65683" lon="6.1776">
        <ele>834.894043</ele>
        <time>2011-09-11T09:02:42Z</time>
      </trkpt>
      <trkpt lat="45.65679" lon="6.17756">
        <ele>834.596985</ele>
        <time>2011-09-11T09:02:47Z</time>
      </trkpt>
      <trkpt lat="45.65674" lon="6.17753">
        <ele>834.228149</ele>
        <time>2011-09-11T09:02:52Z</time>
      </trkpt>
      <trkpt lat="45.65669" lon="6.1775">
        <ele>833.805481</ele>
        <time>2011-09-11T09:02:57Z</time>
      </trkpt>
      <trkpt lat="45.65664" lon="6.17747">
        <ele>833.345947</ele>
        <time>2011-09-11T09:03:02Z</time>
      </trkpt>
      <trkpt lat="45.65659" lon="6.17743">
        <ele>832.838928</ele>
        <time>2011-09-11T09:03:07Z</time>
      </trkpt>
      <trkpt lat="45.65655" lon="6.17741">
        <ele>832.43634</ele>
        <time>2011-09-11T09:03:12Z</time>
      </trkpt>
      <trkpt lat="45.6565" lon="6.17736">
        <ele>831.760071</ele>
        <time>2011-09-11T09:03:17Z</time>
      </trkpt>
      <trkpt lat="45.65646" lon="6.1773">
        <ele>830.914124</ele>
        <time>2011-09-11T09:03:22Z</time>
      </trkpt>
      <trkpt lat="45.65641" lon="6.17725">
        <ele>830.131165</ele>
        <time>2011-09-11T09:03:27Z</time>
      </trkpt>
      <trkpt lat="45.65637" lon="6.17721">
        <ele>829.348145</ele>
        <time>2011-09-11T09:03:32Z</time>
      </trkpt>
      <trkpt lat="45.65633" lon="6.17717">
        <ele>828.63623</ele>
        <time>2011-09-11T09:03:37Z</time>
      </trkpt>
      <trkpt lat="45.65627" lon="6.17715">
        <ele>828.088745</ele>
        <time>2011-09-11T09:03:42Z</time>
      </trkpt>
      <trkpt lat="45.65622" lon="6.17714">
        <ele>827.588745</ele>
        <time>2011-09-11T09:03:47Z</time>
      </trkpt>
      <trkpt lat="45.65617" lon="6.17714">
        <ele>827.131226</ele>
        <time>2011-09-11T09:03:52Z</time>
      </trkpt>
      <trkpt lat="45.65612" lon="6.17714">
        <ele>826.717529</ele>
        <time>2011-09-11T09:03:57Z</time>
      </trkpt>
      <trkpt lat="45.65607" lon="6.17717">
        <ele>826.399597</ele>
        <time>2011-09-11T09:04:02Z</time>
      </trkpt>
      <trkpt lat="45.65601" lon="6.17719">
        <ele>826.259949</ele>
        <time>2011-09-11T09:04:07Z</time>
      </trkpt>
      <trkpt lat="45.65596" lon="6.17722">
        <ele>826.238647</ele>
        <time>2011-09-11T09:04:12Z</time>
      </trkpt>
      <trkpt lat="45.65591" lon="6.17724">
        <ele>826.034363</ele>
        <time>2011-09-11T09:04:17Z</time>
      </trkpt>
      <trkpt lat="45.65586" lon="6.17727">
        <ele>826.219299</ele>
        <time>2011-09-11T09:04:22Z</time>
      </trkpt>
      <trkpt lat="45.65581" lon="6.17729">
        <ele>826.213745</ele>
        <time>2011-09-11T09:04:27Z</time>
      </trkpt>
      <trkpt lat="45.65576" lon="6.17731">
        <ele>826.270203</ele>
        <time>2011-09-11T09:04:32Z</time>
      </trkpt>
      <trkpt lat="45.65571" lon="6.17734">
        <ele>826.393799</ele>
        <time>2011-09-11T09:04:37Z</time>
      </trkpt>
      <trkpt lat="45.65565" lon="6.17736">
        <ele>826.253601</ele>
        <time>2011-09-11T09:04:42Z</time>
      </trkpt>
      <trkpt lat="45.65559" lon="6.17736">
        <ele>825.985168</ele>
        <time>2011-09-11T09:04:47Z</time>
      </trkpt>
      <trkpt lat="45.65555" lon="6.17735">
        <ele>825.606689</ele>
        <time>2011-09-11T09:04:52Z</time>
      </trkpt>
      <trkpt lat="45.65554" lon="6.17735">
        <ele>825.567627</ele>
        <time>2011-09-11T09:04:57Z</time>
      </trkpt>
      <trkpt lat="45.65554" lon="6.17735">
        <ele>825.567627</ele>
        <time>2011-09-11T09:05:02Z</time>
      </trkpt>
      <trkpt lat="45.65554" lon="6.17735">
        <ele>825.567627</ele>
        <time>2011-09-11T09:05:07Z</time>
      </trkpt>
      <trkpt lat="45.65556" lon="6.17737">
        <ele>825.956238</ele>
        <time>2011-09-11T09:05:12Z</time>
      </trkpt>
      <trkpt lat="45.65557" lon="6.17738">
        <ele>826.044067</ele>
        <time>2011-09-11T09:05:17Z</time>
      </trkpt>
      <trkpt lat="45.65557" lon="6.17738">
        <ele>826.060364</ele>
        <time>2011-09-11T09:05:22Z</time>
      </trkpt>
      <trkpt lat="45.65557" lon="6.17738">
        <ele>826.076721</ele>
        <time>2011-09-11T09:05:27Z</time>
      </trkpt>
      <trkpt lat="45.65557" lon="6.17738">
        <ele>826.0896</ele>
        <time>2011-09-11T09:05:32Z</time>
      </trkpt>
      <trkpt lat="45.65557" lon="6.17739">
        <ele>826.122131</ele>
        <time>2011-09-11T09:05:37Z</time>
      </trkpt>
      <trkpt lat="45.65556" lon="6.1774">
        <ele>826.250183</ele>
        <time>2011-09-11T09:05:42Z</time>
      </trkpt>
      <trkpt lat="45.65551" lon="6.17744">
        <ele>826.334839</ele>
        <time>2011-09-11T09:05:47Z</time>
      </trkpt>
      <trkpt lat="45.65548" lon="6.17747">
        <ele>826.440063</ele>
        <time>2011-09-11T09:05:52Z</time>
      </trkpt>
      <trkpt lat="45.65544" lon="6.17748">
        <ele>826.37677</ele>
        <time>2011-09-11T09:05:57Z</time>
      </trkpt>
      <trkpt lat="45.65542" lon="6.1775">
        <ele>826.63324</ele>
        <time>2011-09-11T09:06:02Z</time>
      </trkpt>
      <trkpt lat="45.65537" lon="6.1775">
        <ele>826.7901</ele>
        <time>2011-09-11T09:06:07Z</time>
      </trkpt>
      <trkpt lat="45.65532" lon="6.17751">
        <ele>827.023132</ele>
        <time>2011-09-11T09:06:12Z</time>
      </trkpt>
      <trkpt lat="45.65528" lon="6.1775">
        <ele>827.115173</ele>
        <time>2011-09-11T09:06:17Z</time>
      </trkpt>
      <trkpt lat="45.65523" lon="6.17748">
        <ele>827.074524</ele>
        <time>2011-09-11T09:06:22Z</time>
      </trkpt>
      <trkpt lat="45.65519" lon="6.17745">
        <ele>826.863708</ele>
        <time>2011-09-11T09:06:27Z</time>
      </trkpt>
      <trkpt lat="45.65514" lon="6.17741">
        <ele>826.570068</ele>
        <time>2011-09-11T09:06:32Z</time>
      </trkpt>
      <trkpt lat="45.6551" lon="6.17737">
        <ele>826.194092</ele>
        <time>2011-09-11T09:06:37Z</time>
      </trkpt>
      <trkpt lat="45.65507" lon="6.17731">
        <ele>825.616882</ele>
        <time>2011-09-11T09:06:42Z</time>
      </trkpt>
      <trkpt lat="45.65504" lon="6.17725">
        <ele>824.942871</ele>
        <time>2011-09-11T09:06:47Z</time>
      </trkpt>
      <trkpt lat="45.65502" lon="6.1772">
        <ele>824.300171</ele>
        <time>2011-09-11T09:06:52Z</time>
      </trkpt>
      <trkpt lat="45.65499" lon="6.17714">
        <ele>823.746033</ele>
        <time>2011-09-11T09:06:57Z</time>
      </trkpt>
      <trkpt lat="45.65496" lon="6.17711">
        <ele>823.717163</ele>
        <time>2011-09-11T09:07:02Z</time>
      </trkpt>
      <trkpt lat="45.65496" lon="6.1771">
        <ele>823.613647</ele>
        <time>2011-09-11T09:07:07Z</time>
      </trkpt>
      <trkpt lat="45.65496" lon="6.1771">
        <ele>823.562866</ele>
        <time>2011-09-11T09:07:12Z</time>
      </trkpt>
      <trkpt lat="45.65497" lon="6.17709">
        <ele>823.430237</ele>
        <time>2011-09-11T09:07:17Z</time>
      </trkpt>
      <trkpt lat="45.65497" lon="6.17709">
        <ele>823.392151</ele>
        <time>2011-09-11T09:07:22Z</time>
      </trkpt>
      <trkpt lat="45.65497" lon="6.17708">
        <ele>823.299438</ele>
        <time>2011-09-11T09:07:27Z</time>
      </trkpt>
      <trkpt lat="45.65497" lon="6.17708">
        <ele>823.336548</ele>
        <time>2011-09-11T09:07:32Z</time>
      </trkpt>
      <trkpt lat="45.65497" lon="6.17708">
        <ele>823.336548</ele>
        <time>2011-09-11T09:07:37Z</time>
      </trkpt>
      <trkpt lat="45.65495" lon="6.17703">
        <ele>822.899109</ele>
        <time>2011-09-11T09:07:42Z</time>
      </trkpt>
      <trkpt lat="45.65496" lon="6.17702">
        <ele>822.6745</ele>
        <time>2011-09-11T09:07:47Z</time>
      </trkpt>
      <trkpt lat="45.65495" lon="6.17701">
        <ele>822.625793</ele>
        <time>2011-09-11T09:07:52Z</time>
      </trkpt>
      <trkpt lat="45.65495" lon="6.17701">
        <ele>822.682312</ele>
        <time>2011-09-11T09:07:57Z</time>
      </trkpt>
      <trkpt lat="45.65495" lon="6.17702">
        <ele>822.794067</ele>
        <time>2011-09-11T09:08:02Z</time>
      </trkpt>
      <trkpt lat="45.65496" lon="6.17703">
        <ele>822.843506</ele>
        <time>2011-09-11T09:08:07Z</time>
      </trkpt>
      <trkpt lat="45.65495" lon="6.17704">
        <ele>823.040222</ele>
        <time>2011-09-11T09:08:12Z</time>
      </trkpt>
      <trkpt lat="45.65495" lon="6.17706">
        <ele>823.257996</ele>
        <time>2011-09-11T09:08:17Z</time>
      </trkpt>
      <trkpt lat="45.65494" lon="6.17706">
        <ele>823.343872</ele>
        <time>2011-09-11T09:08:22Z</time>
      </trkpt>
      <trkpt lat="45.65494" lon="6.17705">
        <ele>823.248474</ele>
        <time>2011-09-11T09:08:27Z</time>
      </trkpt>
      <trkpt lat="45.65495" lon="6.17705">
        <ele>823.181946</ele>
        <time>2011-09-11T09:08:32Z</time>
      </trkpt>
      <trkpt lat="45.65494" lon="6.17705">
        <ele>823.191162</ele>
        <time>2011-09-11T09:08:37Z</time>
      </trkpt>
      <trkpt lat="45.65492" lon="6.17705">
        <ele>823.331665</ele>
        <time>2011-09-11T09:08:42Z</time>
      </trkpt>
      <trkpt lat="45.65486" lon="6.17703">
        <ele>823.723755</ele>
        <time>2011-09-11T09:08:47Z</time>
      </trkpt>
      <trkpt lat="45.65479" lon="6.17701">
        <ele>824.061768</ele>
        <time>2011-09-11T09:08:52Z</time>
      </trkpt>
      <trkpt lat="45.65473" lon="6.17699">
        <ele>824.380127</ele>
        <time>2011-09-11T09:08:57Z</time>
      </trkpt>
      <trkpt lat="45.65467" lon="6.17698">
        <ele>824.660767</ele>
        <time>2011-09-11T09:09:02Z</time>
      </trkpt>
      <trkpt lat="45.6546" lon="6.17697">
        <ele>825.09137</ele>
        <time>2011-09-11T09:09:07Z</time>
      </trkpt>
      <trkpt lat="45.65454" lon="6.17695">
        <ele>825.212524</ele>
        <time>2011-09-11T09:09:12Z</time>
      </trkpt>
      <trkpt lat="45.65448" lon="6.17693">
        <ele>824.882507</ele>
        <time>2011-09-11T09:09:17Z</time>
      </trkpt>
      <trkpt lat="45.65443" lon="6.1769">
        <ele>824.428772</ele>
        <time>2011-09-11T09:09:22Z</time>
      </trkpt>
      <trkpt lat="45.65437" lon="6.17687">
        <ele>823.90625</ele>
        <time>2011-09-11T09:09:27Z</time>
      </trkpt>
      <trkpt lat="45.65431" lon="6.17684">
        <ele>823.493774</ele>
        <time>2011-09-11T09:09:32Z</time>
      </trkpt>
      <trkpt lat="45.65428" lon="6.17683">
        <ele>823.411255</ele>
        <time>2011-09-11T09:09:37Z</time>
      </trkpt>
      <trkpt lat="45.65427" lon="6.17683">
        <ele>823.424988</ele>
        <time>2011-09-11T09:09:42Z</time>
      </trkpt>
      <trkpt lat="45.65427" lon="6.17683">
        <ele>823.424988</ele>
        <time>2011-09-11T09:09:47Z</time>
      </trkpt>
      <trkpt lat="45.65427" lon="6.17683">
        <ele>823.424988</ele>
        <time>2011-09-11T09:09:52Z</time>
      </trkpt>
      <trkpt lat="45.65427" lon="6.17682">
        <ele>823.287476</ele>
        <time>2011-09-11T09:09:57Z</time>
      </trkpt>
      <trkpt lat="45.65426" lon="6.17681">
        <ele>823.150024</ele>
        <time>2011-09-11T09:10:02Z</time>
      </trkpt>
      <trkpt lat="45.65426" lon="6.17681">
        <ele>823.150024</ele>
        <time>2011-09-11T09:10:07Z</time>
      </trkpt>
      <trkpt lat="45.65426" lon="6.17681">
        <ele>823.122498</ele>
        <time>2011-09-11T09:10:12Z</time>
      </trkpt>
      <trkpt lat="45.65426" lon="6.17681">
        <ele>823.094971</ele>
        <time>2011-09-11T09:10:17Z</time>
      </trkpt>
      <trkpt lat="45.65426" lon="6.17682">
        <ele>823.205017</ele>
        <time>2011-09-11T09:10:22Z</time>
      </trkpt>
      <trkpt lat="45.65423" lon="6.17681">
        <ele>823.067505</ele>
        <time>2011-09-11T09:10:27Z</time>
      </trkpt>
      <trkpt lat="45.65419" lon="6.17679">
        <ele>822.888733</ele>
        <time>2011-09-11T09:10:32Z</time>
      </trkpt>
      <trkpt lat="45.65414" lon="6.17679">
        <ele>822.861267</ele>
        <time>2011-09-11T09:10:37Z</time>
      </trkpt>
      <trkpt lat="45.65408" lon="6.17678">
        <ele>822.642883</ele>
        <time>2011-09-11T09:10:42Z</time>
      </trkpt>
      <trkpt lat="45.65402" lon="6.17678">
        <ele>822.435242</ele>
        <time>2011-09-11T09:10:47Z</time>
      </trkpt>
      <trkpt lat="45.65395" lon="6.17677">
        <ele>822.133972</ele>
        <time>2011-09-11T09:10:52Z</time>
      </trkpt>
      <trkpt lat="45.65389" lon="6.17676">
        <ele>821.886902</ele>
        <time>2011-09-11T09:10:57Z</time>
      </trkpt>
      <trkpt lat="45.65382" lon="6.17677">
        <ele>821.760437</ele>
        <time>2011-09-11T09:11:02Z</time>
      </trkpt>
      <trkpt lat="45.65375" lon="6.17676">
        <ele>821.462097</ele>
        <time>2011-09-11T09:11:07Z</time>
      </trkpt>
      <trkpt lat="45.65368" lon="6.17676">
        <ele>821.390869</ele>
        <time>2011-09-11T09:11:12Z</time>
      </trkpt>
      <trkpt lat="45.65361" lon="6.17676">
        <ele>821.090637</ele>
        <time>2011-09-11T09:11:17Z</time>
      </trkpt>
      <trkpt lat="45.65355" lon="6.17675">
        <ele>820.703369</ele>
        <time>2011-09-11T09:11:22Z</time>
      </trkpt>
      <trkpt lat="45.65347" lon="6.17676">
        <ele>820.465454</ele>
        <time>2011-09-11T09:11:27Z</time>
      </trkpt>
      <trkpt lat="45.6534" lon="6.17676">
        <ele>820.156189</ele>
        <time>2011-09-11T09:11:32Z</time>
      </trkpt>
      <trkpt lat="45.65333" lon="6.17675">
        <ele>819.811157</ele>
        <time>2011-09-11T09:11:37Z</time>
      </trkpt>
      <trkpt lat="45.65326" lon="6.17675">
        <ele>819.512756</ele>
        <time>2011-09-11T09:11:42Z</time>
      </trkpt>
      <trkpt lat="45.6532" lon="6.17676">
        <ele>819.488159</ele>
        <time>2011-09-11T09:11:47Z</time>
      </trkpt>
      <trkpt lat="45.65313" lon="6.17676">
        <ele>819.800293</ele>
        <time>2011-09-11T09:11:52Z</time>
      </trkpt>
      <trkpt lat="45.65306" lon="6.17676">
        <ele>820.090088</ele>
        <time>2011-09-11T09:11:57Z</time>
      </trkpt>
      <trkpt lat="45.65299" lon="6.17678">
        <ele>820.532288</ele>
        <time>2011-09-11T09:12:02Z</time>
      </trkpt>
      <trkpt lat="45.65293" lon="6.17678">
        <ele>820.835327</ele>
        <time>2011-09-11T09:12:07Z</time>
      </trkpt>
      <trkpt lat="45.65286" lon="6.17676">
        <ele>820.93811</ele>
        <time>2011-09-11T09:12:12Z</time>
      </trkpt>
      <trkpt lat="45.65279" lon="6.17672">
        <ele>820.922546</ele>
        <time>2011-09-11T09:12:17Z</time>
      </trkpt>
      <trkpt lat="45.65273" lon="6.17669">
        <ele>821.044006</ele>
        <time>2011-09-11T09:12:22Z</time>
      </trkpt>
      <trkpt lat="45.65267" lon="6.17664">
        <ele>821.083984</ele>
        <time>2011-09-11T09:12:27Z</time>
      </trkpt>
      <trkpt lat="45.6526" lon="6.1766">
        <ele>821.17749</ele>
        <time>2011-09-11T09:12:32Z</time>
      </trkpt>
      <trkpt lat="45.65254" lon="6.17657">
        <ele>821.190979</ele>
        <time>2011-09-11T09:12:37Z</time>
      </trkpt>
      <trkpt lat="45.65247" lon="6.17654">
        <ele>821.368347</ele>
        <time>2011-09-11T09:12:42Z</time>
      </trkpt>
      <trkpt lat="45.65241" lon="6.17652">
        <ele>821.463623</ele>
        <time>2011-09-11T09:12:47Z</time>
      </trkpt>
      <trkpt lat="45.65234" lon="6.1765">
        <ele>821.600891</ele>
        <time>2011-09-11T09:12:52Z</time>
      </trkpt>
      <trkpt lat="45.65228" lon="6.17649">
        <ele>821.821777</ele>
        <time>2011-09-11T09:12:57Z</time>
      </trkpt>
      <trkpt lat="45.65222" lon="6.17647">
        <ele>821.95813</ele>
        <time>2011-09-11T09:13:02Z</time>
      </trkpt>
      <trkpt lat="45.65216" lon="6.17646">
        <ele>822.257019</ele>
        <time>2011-09-11T09:13:07Z</time>
      </trkpt>
      <trkpt lat="45.6521" lon="6.17645">
        <ele>822.526062</ele>
        <time>2011-09-11T09:13:12Z</time>
      </trkpt>
      <trkpt lat="45.65206" lon="6.17644">
        <ele>822.663635</ele>
        <time>2011-09-11T09:13:17Z</time>
      </trkpt>
      <trkpt lat="45.65201" lon="6.17643">
        <ele>822.872009</ele>
        <time>2011-09-11T09:13:22Z</time>
      </trkpt>
      <trkpt lat="45.65196" lon="6.17643">
        <ele>823.080261</ele>
        <time>2011-09-11T09:13:27Z</time>
      </trkpt>
      <trkpt lat="45.65192" lon="6.17641">
        <ele>823.114807</ele>
        <time>2011-09-11T09:13:32Z</time>
      </trkpt>
      <trkpt lat="45.65188" lon="6.17641">
        <ele>823.30249</ele>
        <time>2011-09-11T09:13:37Z</time>
      </trkpt>
      <trkpt lat="45.65184" lon="6.1764">
        <ele>823.282471</ele>
        <time>2011-09-11T09:13:42Z</time>
      </trkpt>
      <trkpt lat="45.65181" lon="6.17639">
        <ele>823.289978</ele>
        <time>2011-09-11T09:13:47Z</time>
      </trkpt>
      <trkpt lat="45.65176" lon="6.17639">
        <ele>823.342529</ele>
        <time>2011-09-11T09:13:52Z</time>
      </trkpt>
      <trkpt lat="45.65173" lon="6.17638">
        <ele>823.400024</ele>
        <time>2011-09-11T09:13:57Z</time>
      </trkpt>
      <trkpt lat="45.65169" lon="6.17639">
        <ele>823.612488</ele>
        <time>2011-09-11T09:14:02Z</time>
      </trkpt>
      <trkpt lat="45.65165" lon="6.1764">
        <ele>824.067505</ele>
        <time>2011-09-11T09:14:07Z</time>
      </trkpt>
      <trkpt lat="45.65161" lon="6.17643">
        <ele>824.672485</ele>
        <time>2011-09-11T09:14:12Z</time>
      </trkpt>
      <trkpt lat="45.65157" lon="6.17647">
        <ele>825.467468</ele>
        <time>2011-09-11T09:14:17Z</time>
      </trkpt>
      <trkpt lat="45.65154" lon="6.1765">
        <ele>826.132507</ele>
        <time>2011-09-11T09:14:22Z</time>
      </trkpt>
      <trkpt lat="45.65152" lon="6.17653">
        <ele>826.907471</ele>
        <time>2011-09-11T09:14:27Z</time>
      </trkpt>
      <trkpt lat="45.65148" lon="6.17656">
        <ele>827.547485</ele>
        <time>2011-09-11T09:14:32Z</time>
      </trkpt>
      <trkpt lat="45.65144" lon="6.17658">
        <ele>828.140015</ele>
        <time>2011-09-11T09:14:37Z</time>
      </trkpt>
      <trkpt lat="45.65139" lon="6.17661">
        <ele>828.679016</ele>
        <time>2011-09-11T09:14:42Z</time>
      </trkpt>
      <trkpt lat="45.65135" lon="6.17663">
        <ele>829.29071</ele>
        <time>2011-09-11T09:14:47Z</time>
      </trkpt>
      <trkpt lat="45.6513" lon="6.17667">
        <ele>829.950195</ele>
        <time>2011-09-11T09:14:52Z</time>
      </trkpt>
      <trkpt lat="45.65126" lon="6.1767">
        <ele>830.628357</ele>
        <time>2011-09-11T09:14:57Z</time>
      </trkpt>
      <trkpt lat="45.65122" lon="6.17673">
        <ele>831.31189</ele>
        <time>2011-09-11T09:15:02Z</time>
      </trkpt>
      <trkpt lat="45.65118" lon="6.17677">
        <ele>832.111877</ele>
        <time>2011-09-11T09:15:07Z</time>
      </trkpt>
      <trkpt lat="45.65114" lon="6.1768">
        <ele>832.701355</ele>
        <time>2011-09-11T09:15:12Z</time>
      </trkpt>
      <trkpt lat="45.6511" lon="6.17685">
        <ele>833.591187</ele>
        <time>2011-09-11T09:15:17Z</time>
      </trkpt>
      <trkpt lat="45.65106" lon="6.17689">
        <ele>834.574524</ele>
        <time>2011-09-11T09:15:22Z</time>
      </trkpt>
      <trkpt lat="45.65102" lon="6.17692">
        <ele>835.371277</ele>
        <time>2011-09-11T09:15:27Z</time>
      </trkpt>
      <trkpt lat="45.65098" lon="6.17695">
        <ele>836.133118</ele>
        <time>2011-09-11T09:15:32Z</time>
      </trkpt>
      <trkpt lat="45.65093" lon="6.17698">
        <ele>836.783142</ele>
        <time>2011-09-11T09:15:37Z</time>
      </trkpt>
      <trkpt lat="45.65089" lon="6.17699">
        <ele>837.266174</ele>
        <time>2011-09-11T09:15:42Z</time>
      </trkpt>
      <trkpt lat="45.65085" lon="6.17701">
        <ele>837.880066</ele>
        <time>2011-09-11T09:15:47Z</time>
      </trkpt>
      <trkpt lat="45.65081" lon="6.17704">
        <ele>838.478149</ele>
        <time>2011-09-11T09:15:52Z</time>
      </trkpt>
      <trkpt lat="45.65078" lon="6.17706">
        <ele>839.083801</ele>
        <time>2011-09-11T09:15:57Z</time>
      </trkpt>
      <trkpt lat="45.65074" lon="6.17708">
        <ele>839.582214</ele>
        <time>2011-09-11T09:16:02Z</time>
      </trkpt>
      <trkpt lat="45.6507" lon="6.1771">
        <ele>840.036438</ele>
        <time>2011-09-11T09:16:07Z</time>
      </trkpt>
      <trkpt lat="45.65067" lon="6.17713">
        <ele>840.701538</ele>
        <time>2011-09-11T09:16:12Z</time>
      </trkpt>
      <trkpt lat="45.65063" lon="6.17715">
        <ele>841.236694</ele>
        <time>2011-09-11T09:16:17Z</time>
      </trkpt>
      <trkpt lat="45.65059" lon="6.17717">
        <ele>841.607727</ele>
        <time>2011-09-11T09:16:22Z</time>
      </trkpt>
      <trkpt lat="45.65053" lon="6.17717">
        <ele>841.616455</ele>
        <time>2011-09-11T09:16:27Z</time>
      </trkpt>
      <trkpt lat="45.65049" lon="6.17716">
        <ele>841.580139</ele>
        <time>2011-09-11T09:16:32Z</time>
      </trkpt>
      <trkpt lat="45.65044" lon="6.17715">
        <ele>841.75293</ele>
        <time>2011-09-11T09:16:37Z</time>
      </trkpt>
      <trkpt lat="45.65039" lon="6.17715">
        <ele>842.036926</ele>
        <time>2011-09-11T09:16:42Z</time>
      </trkpt>
      <trkpt lat="45.65036" lon="6.17713">
        <ele>841.937805</ele>
        <time>2011-09-11T09:16:47Z</time>
      </trkpt>
      <trkpt lat="45.6503" lon="6.17713">
        <ele>842.268127</ele>
        <time>2011-09-11T09:16:52Z</time>
      </trkpt>
      <trkpt lat="45.65025" lon="6.17712">
        <ele>842.382813</ele>
        <time>2011-09-11T09:16:57Z</time>
      </trkpt>
      <trkpt lat="45.6502" lon="6.17711">
        <ele>842.483276</ele>
        <time>2011-09-11T09:17:02Z</time>
      </trkpt>
      <trkpt lat="45.65016" lon="6.1771">
        <ele>842.536316</ele>
        <time>2011-09-11T09:17:07Z</time>
      </trkpt>
      <trkpt lat="45.65011" lon="6.17709">
        <ele>842.625732</ele>
        <time>2011-09-11T09:17:12Z</time>
      </trkpt>
      <trkpt lat="45.65006" lon="6.17708">
        <ele>842.743774</ele>
        <time>2011-09-11T09:17:17Z</time>
      </trkpt>
      <trkpt lat="45.65001" lon="6.17707">
        <ele>842.140076</ele>
        <time>2011-09-11T09:17:22Z</time>
      </trkpt>
      <trkpt lat="45.64996" lon="6.17706">
        <ele>841.597961</ele>
        <time>2011-09-11T09:17:27Z</time>
      </trkpt>
      <trkpt lat="45.64991" lon="6.17707">
        <ele>841.375366</ele>
        <time>2011-09-11T09:17:32Z</time>
      </trkpt>
      <trkpt lat="45.64986" lon="6.17708">
        <ele>841.48291</ele>
        <time>2011-09-11T09:17:37Z</time>
      </trkpt>
      <trkpt lat="45.64982" lon="6.17711">
        <ele>841.937317</ele>
        <time>2011-09-11T09:17:42Z</time>
      </trkpt>
      <trkpt lat="45.64978" lon="6.17714">
        <ele>842.55127</ele>
        <time>2011-09-11T09:17:47Z</time>
      </trkpt>
      <trkpt lat="45.64974" lon="6.17717">
        <ele>843.175476</ele>
        <time>2011-09-11T09:17:52Z</time>
      </trkpt>
      <trkpt lat="45.6497" lon="6.17721">
        <ele>843.9646</ele>
        <time>2011-09-11T09:17:57Z</time>
      </trkpt>
      <trkpt lat="45.64966" lon="6.17725">
        <ele>844.862793</ele>
        <time>2011-09-11T09:18:02Z</time>
      </trkpt>
      <trkpt lat="45.64962" lon="6.17728">
        <ele>845.839966</ele>
        <time>2011-09-11T09:18:07Z</time>
      </trkpt>
      <trkpt lat="45.64959" lon="6.17731">
        <ele>846.490601</ele>
        <time>2011-09-11T09:18:12Z</time>
      </trkpt>
      <trkpt lat="45.64956" lon="6.17735">
        <ele>846.845337</ele>
        <time>2011-09-11T09:18:17Z</time>
      </trkpt>
      <trkpt lat="45.64952" lon="6.17739">
        <ele>846.771423</ele>
        <time>2011-09-11T09:18:22Z</time>
      </trkpt>
      <trkpt lat="45.64948" lon="6.17743">
        <ele>846.641541</ele>
        <time>2011-09-11T09:18:27Z</time>
      </trkpt>
      <trkpt lat="45.64945" lon="6.17747">
        <ele>846.748108</ele>
        <time>2011-09-11T09:18:32Z</time>
      </trkpt>
      <trkpt lat="45.64942" lon="6.17751">
        <ele>846.772278</ele>
        <time>2011-09-11T09:18:37Z</time>
      </trkpt>
      <trkpt lat="45.64938" lon="6.17755">
        <ele>846.851135</ele>
        <time>2011-09-11T09:18:42Z</time>
      </trkpt>
      <trkpt lat="45.64935" lon="6.1776">
        <ele>846.93103</ele>
        <time>2011-09-11T09:18:47Z</time>
      </trkpt>
      <trkpt lat="45.64931" lon="6.17764">
        <ele>847.14447</ele>
        <time>2011-09-11T09:18:52Z</time>
      </trkpt>
      <trkpt lat="45.64927" lon="6.17768">
        <ele>847.151855</ele>
        <time>2011-09-11T09:18:57Z</time>
      </trkpt>
      <trkpt lat="45.64924" lon="6.17772">
        <ele>847.427856</ele>
        <time>2011-09-11T09:19:02Z</time>
      </trkpt>
      <trkpt lat="45.6492" lon="6.17776">
        <ele>847.539734</ele>
        <time>2011-09-11T09:19:07Z</time>
      </trkpt>
      <trkpt lat="45.64916" lon="6.17781">
        <ele>847.829163</ele>
        <time>2011-09-11T09:19:12Z</time>
      </trkpt>
      <trkpt lat="45.64912" lon="6.17785">
        <ele>848.054077</ele>
        <time>2011-09-11T09:19:17Z</time>
      </trkpt>
      <trkpt lat="45.64909" lon="6.1779">
        <ele>847.744019</ele>
        <time>2011-09-11T09:19:22Z</time>
      </trkpt>
      <trkpt lat="45.64906" lon="6.17795">
        <ele>847.494812</ele>
        <time>2011-09-11T09:19:27Z</time>
      </trkpt>
      <trkpt lat="45.64903" lon="6.17802">
        <ele>847.407532</ele>
        <time>2011-09-11T09:19:32Z</time>
      </trkpt>
      <trkpt lat="45.64899" lon="6.17808">
        <ele>847.085022</ele>
        <time>2011-09-11T09:19:37Z</time>
      </trkpt>
      <trkpt lat="45.64895" lon="6.17813">
        <ele>846.140015</ele>
        <time>2011-09-11T09:19:42Z</time>
      </trkpt>
      <trkpt lat="45.64892" lon="6.17817">
        <ele>845.652527</ele>
        <time>2011-09-11T09:19:47Z</time>
      </trkpt>
      <trkpt lat="45.64889" lon="6.17822">
        <ele>845.502502</ele>
        <time>2011-09-11T09:19:52Z</time>
      </trkpt>
      <trkpt lat="45.64886" lon="6.17827">
        <ele>845.225037</ele>
        <time>2011-09-11T09:19:57Z</time>
      </trkpt>
      <trkpt lat="45.64883" lon="6.17833">
        <ele>844.902527</ele>
        <time>2011-09-11T09:20:02Z</time>
      </trkpt>
      <trkpt lat="45.64881" lon="6.17838">
        <ele>845</ele>
        <time>2011-09-11T09:20:07Z</time>
      </trkpt>
      <trkpt lat="45.64878" lon="6.17844">
        <ele>844.970032</ele>
        <time>2011-09-11T09:20:12Z</time>
      </trkpt>
      <trkpt lat="45.64875" lon="6.17851">
        <ele>845.202515</ele>
        <time>2011-09-11T09:20:17Z</time>
      </trkpt>
      <trkpt lat="45.64872" lon="6.17857">
        <ele>844.984985</ele>
        <time>2011-09-11T09:20:22Z</time>
      </trkpt>
      <trkpt lat="45.6487" lon="6.17863">
        <ele>844.327087</ele>
        <time>2011-09-11T09:20:27Z</time>
      </trkpt>
      <trkpt lat="45.64866" lon="6.17867">
        <ele>843.15155</ele>
        <time>2011-09-11T09:20:32Z</time>
      </trkpt>
      <trkpt lat="45.64863" lon="6.17872">
        <ele>841.438904</ele>
        <time>2011-09-11T09:20:37Z</time>
      </trkpt>
      <trkpt lat="45.6486" lon="6.17878">
        <ele>839.673645</ele>
        <time>2011-09-11T09:20:42Z</time>
      </trkpt>
      <trkpt lat="45.64858" lon="6.17885">
        <ele>838.309998</ele>
        <time>2011-09-11T09:20:47Z</time>
      </trkpt>
      <trkpt lat="45.64856" lon="6.17892">
        <ele>837.620667</ele>
        <time>2011-09-11T09:20:52Z</time>
      </trkpt>
      <trkpt lat="45.64853" lon="6.17899">
        <ele>836.785522</ele>
        <time>2011-09-11T09:20:57Z</time>
      </trkpt>
      <trkpt lat="45.64851" lon="6.17906">
        <ele>835.836853</ele>
        <time>2011-09-11T09:21:02Z</time>
      </trkpt>
      <trkpt lat="45.64849" lon="6.17913">
        <ele>835.364075</ele>
        <time>2011-09-11T09:21:07Z</time>
      </trkpt>
      <trkpt lat="45.64848" lon="6.17921">
        <ele>835.138245</ele>
        <time>2011-09-11T09:21:12Z</time>
      </trkpt>
      <trkpt lat="45.64846" lon="6.17928">
        <ele>835.071167</ele>
        <time>2011-09-11T09:21:17Z</time>
      </trkpt>
      <trkpt lat="45.64844" lon="6.17936">
        <ele>835.089478</ele>
        <time>2011-09-11T09:21:22Z</time>
      </trkpt>
      <trkpt lat="45.64842" lon="6.17943">
        <ele>834.933533</ele>
        <time>2011-09-11T09:21:27Z</time>
      </trkpt>
      <trkpt lat="45.6484" lon="6.17949">
        <ele>834.955139</ele>
        <time>2011-09-11T09:21:32Z</time>
      </trkpt>
      <trkpt lat="45.64838" lon="6.17956">
        <ele>834.998108</ele>
        <time>2011-09-11T09:21:37Z</time>
      </trkpt>
      <trkpt lat="45.64837" lon="6.17963">
        <ele>835.287354</ele>
        <time>2011-09-11T09:21:42Z</time>
      </trkpt>
      <trkpt lat="45.64835" lon="6.1797">
        <ele>835.25</ele>
        <time>2011-09-11T09:21:47Z</time>
      </trkpt>
      <trkpt lat="45.64833" lon="6.17978">
        <ele>835.627686</ele>
        <time>2011-09-11T09:21:52Z</time>
      </trkpt>
      <trkpt lat="45.64831" lon="6.17985">
        <ele>835.632874</ele>
        <time>2011-09-11T09:21:57Z</time>
      </trkpt>
      <trkpt lat="45.64828" lon="6.17992">
        <ele>834.927673</ele>
        <time>2011-09-11T09:22:02Z</time>
      </trkpt>
      <trkpt lat="45.64826" lon="6.17998">
        <ele>834.373779</ele>
        <time>2011-09-11T09:22:07Z</time>
      </trkpt>
      <trkpt lat="45.64823" lon="6.18005">
        <ele>833.591431</ele>
        <time>2011-09-11T09:22:12Z</time>
      </trkpt>
      <trkpt lat="45.64821" lon="6.18011">
        <ele>832.723389</ele>
        <time>2011-09-11T09:22:17Z</time>
      </trkpt>
      <trkpt lat="45.64818" lon="6.18017">
        <ele>832.13562</ele>
        <time>2011-09-11T09:22:22Z</time>
      </trkpt>
      <trkpt lat="45.64816" lon="6.18024">
        <ele>831.491577</ele>
        <time>2011-09-11T09:22:27Z</time>
      </trkpt>
      <trkpt lat="45.64814" lon="6.18031">
        <ele>831.242981</ele>
        <time>2011-09-11T09:22:32Z</time>
      </trkpt>
      <trkpt lat="45.64812" lon="6.18038">
        <ele>830.886108</ele>
        <time>2011-09-11T09:22:37Z</time>
      </trkpt>
      <trkpt lat="45.64811" lon="6.18047">
        <ele>831.189209</ele>
        <time>2011-09-11T09:22:42Z</time>
      </trkpt>
      <trkpt lat="45.64809" lon="6.18054">
        <ele>831.054626</ele>
        <time>2011-09-11T09:22:47Z</time>
      </trkpt>
      <trkpt lat="45.64807" lon="6.18061">
        <ele>830.816589</ele>
        <time>2011-09-11T09:22:52Z</time>
      </trkpt>
      <trkpt lat="45.64805" lon="6.18068">
        <ele>830.607056</ele>
        <time>2011-09-11T09:22:57Z</time>
      </trkpt>
      <trkpt lat="45.64803" lon="6.18074">
        <ele>830.46698</ele>
        <time>2011-09-11T09:23:02Z</time>
      </trkpt>
      <trkpt lat="45.64804" lon="6.18081">
        <ele>831.55426</ele>
        <time>2011-09-11T09:23:07Z</time>
      </trkpt>
      <trkpt lat="45.64805" lon="6.18088">
        <ele>832.750671</ele>
        <time>2011-09-11T09:23:12Z</time>
      </trkpt>
      <trkpt lat="45.64804" lon="6.18094">
        <ele>832.899231</ele>
        <time>2011-09-11T09:23:17Z</time>
      </trkpt>
      <trkpt lat="45.64804" lon="6.18101">
        <ele>833.627441</ele>
        <time>2011-09-11T09:23:22Z</time>
      </trkpt>
      <trkpt lat="45.64804" lon="6.18107">
        <ele>834.329651</ele>
        <time>2011-09-11T09:23:27Z</time>
      </trkpt>
      <trkpt lat="45.64802" lon="6.18114">
        <ele>833.721375</ele>
        <time>2011-09-11T09:23:32Z</time>
      </trkpt>
      <trkpt lat="45.64801" lon="6.18121">
        <ele>833.745117</ele>
        <time>2011-09-11T09:23:37Z</time>
      </trkpt>
      <trkpt lat="45.648" lon="6.18127">
        <ele>833.511963</ele>
        <time>2011-09-11T09:23:42Z</time>
      </trkpt>
      <trkpt lat="45.64798" lon="6.18134">
        <ele>833.188965</ele>
        <time>2011-09-11T09:23:47Z</time>
      </trkpt>
      <trkpt lat="45.64796" lon="6.18141">
        <ele>832.28418</ele>
        <time>2011-09-11T09:23:52Z</time>
      </trkpt>
      <trkpt lat="45.64794" lon="6.18148">
        <ele>831.706787</ele>
        <time>2011-09-11T09:23:57Z</time>
      </trkpt>
      <trkpt lat="45.64791" lon="6.18155">
        <ele>830.798218</ele>
        <time>2011-09-11T09:24:02Z</time>
      </trkpt>
      <trkpt lat="45.64789" lon="6.18161">
        <ele>829.836182</ele>
        <time>2011-09-11T09:24:07Z</time>
      </trkpt>
      <trkpt lat="45.64785" lon="6.18167">
        <ele>828.614258</ele>
        <time>2011-09-11T09:24:12Z</time>
      </trkpt>
      <trkpt lat="45.64784" lon="6.18174">
        <ele>828.465637</ele>
        <time>2011-09-11T09:24:17Z</time>
      </trkpt>
      <trkpt lat="45.64782" lon="6.1818">
        <ele>828.012817</ele>
        <time>2011-09-11T09:24:22Z</time>
      </trkpt>
      <trkpt lat="45.64779" lon="6.18186">
        <ele>826.961365</ele>
        <time>2011-09-11T09:24:27Z</time>
      </trkpt>
      <trkpt lat="45.64776" lon="6.18191">
        <ele>826.062683</ele>
        <time>2011-09-11T09:24:32Z</time>
      </trkpt>
      <trkpt lat="45.64772" lon="6.18195">
        <ele>824.773438</ele>
        <time>2011-09-11T09:24:37Z</time>
      </trkpt>
      <trkpt lat="45.64769" lon="6.18198">
        <ele>823.400513</ele>
        <time>2011-09-11T09:24:42Z</time>
      </trkpt>
      <trkpt lat="45.64766" lon="6.18202">
        <ele>822.468262</ele>
        <time>2011-09-11T09:24:47Z</time>
      </trkpt>
      <trkpt lat="45.64763" lon="6.18207">
        <ele>821.471313</ele>
        <time>2011-09-11T09:24:52Z</time>
      </trkpt>
      <trkpt lat="45.64759" lon="6.18214">
        <ele>820.812195</ele>
        <time>2011-09-11T09:24:57Z</time>
      </trkpt>
      <trkpt lat="45.64755" lon="6.18221">
        <ele>820.330994</ele>
        <time>2011-09-11T09:25:02Z</time>
      </trkpt>
      <trkpt lat="45.64753" lon="6.18228">
        <ele>820.5578</ele>
        <time>2011-09-11T09:25:07Z</time>
      </trkpt>
      <trkpt lat="45.64751" lon="6.18235">
        <ele>820.619751</ele>
        <time>2011-09-11T09:25:12Z</time>
      </trkpt>
      <trkpt lat="45.64748" lon="6.18243">
        <ele>820.607849</ele>
        <time>2011-09-11T09:25:17Z</time>
      </trkpt>
      <trkpt lat="45.64746" lon="6.1825">
        <ele>820.712524</ele>
        <time>2011-09-11T09:25:22Z</time>
      </trkpt>
      <trkpt lat="45.64742" lon="6.18257">
        <ele>820.585999</ele>
        <time>2011-09-11T09:25:27Z</time>
      </trkpt>
      <trkpt lat="45.64739" lon="6.18264">
        <ele>820.400452</ele>
        <time>2011-09-11T09:25:32Z</time>
      </trkpt>
      <trkpt lat="45.64735" lon="6.18269">
        <ele>819.856873</ele>
        <time>2011-09-11T09:25:37Z</time>
      </trkpt>
      <trkpt lat="45.64729" lon="6.18273">
        <ele>818.745605</ele>
        <time>2011-09-11T09:25:42Z</time>
      </trkpt>
      <trkpt lat="45.64724" lon="6.18271">
        <ele>816.913635</ele>
        <time>2011-09-11T09:25:47Z</time>
      </trkpt>
      <trkpt lat="45.64719" lon="6.18272">
        <ele>815.53363</ele>
        <time>2011-09-11T09:25:52Z</time>
      </trkpt>
      <trkpt lat="45.64715" lon="6.18275">
        <ele>814.822754</ele>
        <time>2011-09-11T09:25:57Z</time>
      </trkpt>
      <trkpt lat="45.6471" lon="6.18279">
        <ele>814.302002</ele>
        <time>2011-09-11T09:26:02Z</time>
      </trkpt>
      <trkpt lat="45.64705" lon="6.18284">
        <ele>814.110657</ele>
        <time>2011-09-11T09:26:07Z</time>
      </trkpt>
      <trkpt lat="45.64702" lon="6.1829">
        <ele>814.347656</ele>
        <time>2011-09-11T09:26:12Z</time>
      </trkpt>
      <trkpt lat="45.64698" lon="6.18296">
        <ele>814.547729</ele>
        <time>2011-09-11T09:26:17Z</time>
      </trkpt>
      <trkpt lat="45.64695" lon="6.18304">
        <ele>814.704285</ele>
        <time>2011-09-11T09:26:22Z</time>
      </trkpt>
      <trkpt lat="45.64691" lon="6.1831">
        <ele>814.735168</ele>
        <time>2011-09-11T09:26:27Z</time>
      </trkpt>
      <trkpt lat="45.64689" lon="6.18317">
        <ele>814.93512</ele>
        <time>2011-09-11T09:26:32Z</time>
      </trkpt>
      <trkpt lat="45.64686" lon="6.18323">
        <ele>815.081787</ele>
        <time>2011-09-11T09:26:37Z</time>
      </trkpt>
      <trkpt lat="45.64682" lon="6.1833">
        <ele>815.091309</ele>
        <time>2011-09-11T09:26:42Z</time>
      </trkpt>
      <trkpt lat="45.6468" lon="6.18337">
        <ele>815.317627</ele>
        <time>2011-09-11T09:26:47Z</time>
      </trkpt>
      <trkpt lat="45.64676" lon="6.18343">
        <ele>815.268372</ele>
        <time>2011-09-11T09:26:52Z</time>
      </trkpt>
      <trkpt lat="45.64674" lon="6.1835">
        <ele>815.480652</ele>
        <time>2011-09-11T09:26:57Z</time>
      </trkpt>
      <trkpt lat="45.64671" lon="6.18356">
        <ele>815.628845</ele>
        <time>2011-09-11T09:27:02Z</time>
      </trkpt>
      <trkpt lat="45.64668" lon="6.18363">
        <ele>815.467957</ele>
        <time>2011-09-11T09:27:07Z</time>
      </trkpt>
      <trkpt lat="45.64666" lon="6.1837">
        <ele>815.58313</ele>
        <time>2011-09-11T09:27:12Z</time>
      </trkpt>
      <trkpt lat="45.64663" lon="6.18378">
        <ele>815.476135</ele>
        <time>2011-09-11T09:27:17Z</time>
      </trkpt>
      <trkpt lat="45.64661" lon="6.18386">
        <ele>815.452454</ele>
        <time>2011-09-11T09:27:22Z</time>
      </trkpt>
      <trkpt lat="45.64658" lon="6.18394">
        <ele>815.411499</ele>
        <time>2011-09-11T09:27:27Z</time>
      </trkpt>
      <trkpt lat="45.64657" lon="6.18402">
        <ele>815.903992</ele>
        <time>2011-09-11T09:27:32Z</time>
      </trkpt>
      <trkpt lat="45.64655" lon="6.1841">
        <ele>816.030457</ele>
        <time>2011-09-11T09:27:37Z</time>
      </trkpt>
      <trkpt lat="45.64652" lon="6.18418">
        <ele>816.182495</ele>
        <time>2011-09-11T09:27:42Z</time>
      </trkpt>
      <trkpt lat="45.64652" lon="6.18427">
        <ele>816.756958</ele>
        <time>2011-09-11T09:27:47Z</time>
      </trkpt>
      <trkpt lat="45.64649" lon="6.18435">
        <ele>816.850037</ele>
        <time>2011-09-11T09:27:52Z</time>
      </trkpt>
      <trkpt lat="45.64649" lon="6.18443">
        <ele>817.38031</ele>
        <time>2011-09-11T09:27:57Z</time>
      </trkpt>
      <trkpt lat="45.64645" lon="6.18449">
        <ele>817.060669</ele>
        <time>2011-09-11T09:28:02Z</time>
      </trkpt>
      <trkpt lat="45.64641" lon="6.18452">
        <ele>815.885254</ele>
        <time>2011-09-11T09:28:07Z</time>
      </trkpt>
      <trkpt lat="45.64636" lon="6.18451">
        <ele>814.263428</ele>
        <time>2011-09-11T09:28:12Z</time>
      </trkpt>
      <trkpt lat="45.6463" lon="6.18449">
        <ele>812.445313</ele>
        <time>2011-09-11T09:28:17Z</time>
      </trkpt>
      <trkpt lat="45.64625" lon="6.18449">
        <ele>810.939514</ele>
        <time>2011-09-11T09:28:22Z</time>
      </trkpt>
      <trkpt lat="45.64621" lon="6.18449">
        <ele>809.518066</ele>
        <time>2011-09-11T09:28:27Z</time>
      </trkpt>
      <trkpt lat="45.64616" lon="6.1845">
        <ele>807.497498</ele>
        <time>2011-09-11T09:28:32Z</time>
      </trkpt>
      <trkpt lat="45.64612" lon="6.18453">
        <ele>806.07373</ele>
        <time>2011-09-11T09:28:37Z</time>
      </trkpt>
      <trkpt lat="45.64607" lon="6.18457">
        <ele>804.731262</ele>
        <time>2011-09-11T09:28:42Z</time>
      </trkpt>
      <trkpt lat="45.64604" lon="6.18462">
        <ele>803.723755</ele>
        <time>2011-09-11T09:28:47Z</time>
      </trkpt>
      <trkpt lat="45.646" lon="6.18467">
        <ele>802.625</ele>
        <time>2011-09-11T09:28:52Z</time>
      </trkpt>
      <trkpt lat="45.64596" lon="6.18472">
        <ele>801.787476</ele>
        <time>2011-09-11T09:28:57Z</time>
      </trkpt>
      <trkpt lat="45.64592" lon="6.18478">
        <ele>800.63501</ele>
        <time>2011-09-11T09:29:02Z</time>
      </trkpt>
      <trkpt lat="45.64589" lon="6.18482">
        <ele>799.888611</ele>
        <time>2011-09-11T09:29:07Z</time>
      </trkpt>
      <trkpt lat="45.64586" lon="6.18487">
        <ele>798.781982</ele>
        <time>2011-09-11T09:29:12Z</time>
      </trkpt>
      <trkpt lat="45.64583" lon="6.18493">
        <ele>797.349976</ele>
        <time>2011-09-11T09:29:17Z</time>
      </trkpt>
      <trkpt lat="45.64578" lon="6.18498">
        <ele>795.861084</ele>
        <time>2011-09-11T09:29:22Z</time>
      </trkpt>
      <trkpt lat="45.64575" lon="6.18504">
        <ele>794.829285</ele>
        <time>2011-09-11T09:29:27Z</time>
      </trkpt>
      <trkpt lat="45.64572" lon="6.1851">
        <ele>794.233704</ele>
        <time>2011-09-11T09:29:32Z</time>
      </trkpt>
      <trkpt lat="45.6457" lon="6.18516">
        <ele>793.836609</ele>
        <time>2011-09-11T09:29:37Z</time>
      </trkpt>
      <trkpt lat="45.64568" lon="6.18521">
        <ele>793.639282</ele>
        <time>2011-09-11T09:29:42Z</time>
      </trkpt>
      <trkpt lat="45.64567" lon="6.18526">
        <ele>793.890625</ele>
        <time>2011-09-11T09:29:47Z</time>
      </trkpt>
      <trkpt lat="45.64567" lon="6.18532">
        <ele>794.181519</ele>
        <time>2011-09-11T09:29:52Z</time>
      </trkpt>
      <trkpt lat="45.64567" lon="6.1854">
        <ele>794.691223</ele>
        <time>2011-09-11T09:29:57Z</time>
      </trkpt>
      <trkpt lat="45.64566" lon="6.18546">
        <ele>795.262085</ele>
        <time>2011-09-11T09:30:02Z</time>
      </trkpt>
      <trkpt lat="45.64567" lon="6.18552">
        <ele>796.324829</ele>
        <time>2011-09-11T09:30:07Z</time>
      </trkpt>
      <trkpt lat="45.64564" lon="6.18554">
        <ele>796.15802</ele>
        <time>2011-09-11T09:30:12Z</time>
      </trkpt>
      <trkpt lat="45.64563" lon="6.18556">
        <ele>796.194824</ele>
        <time>2011-09-11T09:30:17Z</time>
      </trkpt>
      <trkpt lat="45.64564" lon="6.18556">
        <ele>796.466675</ele>
        <time>2011-09-11T09:30:22Z</time>
      </trkpt>
      <trkpt lat="45.64564" lon="6.18556">
        <ele>796.45105</ele>
        <time>2011-09-11T09:30:27Z</time>
      </trkpt>
      <trkpt lat="45.6456" lon="6.18554">
        <ele>795.359863</ele>
        <time>2011-09-11T09:30:32Z</time>
      </trkpt>
      <trkpt lat="45.64557" lon="6.1855">
        <ele>793.97229</ele>
        <time>2011-09-11T09:30:37Z</time>
      </trkpt>
      <trkpt lat="45.64556" lon="6.18548">
        <ele>793.639038</ele>
        <time>2011-09-11T09:30:42Z</time>
      </trkpt>
      <trkpt lat="45.64553" lon="6.18545">
        <ele>792.285217</ele>
        <time>2011-09-11T09:30:47Z</time>
      </trkpt>
      <trkpt lat="45.6455" lon="6.18541">
        <ele>791.013916</ele>
        <time>2011-09-11T09:30:52Z</time>
      </trkpt>
      <trkpt lat="45.64547" lon="6.18535">
        <ele>789.734985</ele>
        <time>2011-09-11T09:30:57Z</time>
      </trkpt>
      <trkpt lat="45.64542" lon="6.1853">
        <ele>788.100525</ele>
        <time>2011-09-11T09:31:02Z</time>
      </trkpt>
      <trkpt lat="45.6454" lon="6.18528">
        <ele>787.289185</ele>
        <time>2011-09-11T09:31:07Z</time>
      </trkpt>
      <trkpt lat="45.64534" lon="6.18527">
        <ele>785.804871</ele>
        <time>2011-09-11T09:31:12Z</time>
      </trkpt>
      <trkpt lat="45.64531" lon="6.18525">
        <ele>784.60144</ele>
        <time>2011-09-11T09:31:17Z</time>
      </trkpt>
      <trkpt lat="45.64525" lon="6.18521">
        <ele>783.092163</ele>
        <time>2011-09-11T09:31:22Z</time>
      </trkpt>
      <trkpt lat="45.64521" lon="6.18516">
        <ele>782.003601</ele>
        <time>2011-09-11T09:31:27Z</time>
      </trkpt>
      <trkpt lat="45.64517" lon="6.18514">
        <ele>781.325012</ele>
        <time>2011-09-11T09:31:32Z</time>
      </trkpt>
      <trkpt lat="45.64514" lon="6.18512">
        <ele>780.873779</ele>
        <time>2011-09-11T09:31:37Z</time>
      </trkpt>
      <trkpt lat="45.64512" lon="6.18511">
        <ele>780.596436</ele>
        <time>2011-09-11T09:31:42Z</time>
      </trkpt>
      <trkpt lat="45.64507" lon="6.1851">
        <ele>779.982727</ele>
        <time>2011-09-11T09:31:47Z</time>
      </trkpt>
      <trkpt lat="45.64503" lon="6.18509">
        <ele>779.474976</ele>
        <time>2011-09-11T09:31:52Z</time>
      </trkpt>
      <trkpt lat="45.64498" lon="6.1851">
        <ele>779.160889</ele>
        <time>2011-09-11T09:31:57Z</time>
      </trkpt>
      <trkpt lat="45.64492" lon="6.18514">
        <ele>778.900391</ele>
        <time>2011-09-11T09:32:02Z</time>
      </trkpt>
      <trkpt lat="45.64489" lon="6.18519">
        <ele>778.85437</ele>
        <time>2011-09-11T09:32:07Z</time>
      </trkpt>
      <trkpt lat="45.64485" lon="6.18525">
        <ele>778.779358</ele>
        <time>2011-09-11T09:32:12Z</time>
      </trkpt>
      <trkpt lat="45.64481" lon="6.18531">
        <ele>778.720886</ele>
        <time>2011-09-11T09:32:17Z</time>
      </trkpt>
      <trkpt lat="45.64478" lon="6.18538">
        <ele>779.003113</ele>
        <time>2011-09-11T09:32:22Z</time>
      </trkpt>
      <trkpt lat="45.64474" lon="6.18544">
        <ele>779.608032</ele>
        <time>2011-09-11T09:32:27Z</time>
      </trkpt>
      <trkpt lat="45.6447" lon="6.1855">
        <ele>780.076538</ele>
        <time>2011-09-11T09:32:32Z</time>
      </trkpt>
      <trkpt lat="45.64469" lon="6.18551">
        <ele>780.182068</ele>
        <time>2011-09-11T09:32:37Z</time>
      </trkpt>
      <trkpt lat="45.64466" lon="6.18558">
        <ele>780.560852</ele>
        <time>2011-09-11T09:32:42Z</time>
      </trkpt>
      <trkpt lat="45.64462" lon="6.18564">
        <ele>780.739014</ele>
        <time>2011-09-11T09:32:47Z</time>
      </trkpt>
      <trkpt lat="45.64459" lon="6.18567">
        <ele>780.811401</ele>
        <time>2011-09-11T09:32:52Z</time>
      </trkpt>
      <trkpt lat="45.64456" lon="6.18572">
        <ele>780.813354</ele>
        <time>2011-09-11T09:32:57Z</time>
      </trkpt>
      <trkpt lat="45.64452" lon="6.18577">
        <ele>780.721863</ele>
        <time>2011-09-11T09:33:02Z</time>
      </trkpt>
      <trkpt lat="45.64449" lon="6.18582">
        <ele>780.559082</ele>
        <time>2011-09-11T09:33:07Z</time>
      </trkpt>
      <trkpt lat="45.64444" lon="6.18587">
        <ele>780.193909</ele>
        <time>2011-09-11T09:33:12Z</time>
      </trkpt>
      <trkpt lat="45.6444" lon="6.18592">
        <ele>779.750793</ele>
        <time>2011-09-11T09:33:17Z</time>
      </trkpt>
      <trkpt lat="45.64436" lon="6.18598">
        <ele>779.256958</ele>
        <time>2011-09-11T09:33:22Z</time>
      </trkpt>
      <trkpt lat="45.64432" lon="6.18603">
        <ele>779.424438</ele>
        <time>2011-09-11T09:33:27Z</time>
      </trkpt>
      <trkpt lat="45.64427" lon="6.18607">
        <ele>779.635071</ele>
        <time>2011-09-11T09:33:32Z</time>
      </trkpt>
      <trkpt lat="45.64423" lon="6.18612">
        <ele>779.841309</ele>
        <time>2011-09-11T09:33:37Z</time>
      </trkpt>
      <trkpt lat="45.64419" lon="6.18616">
        <ele>779.933044</ele>
        <time>2011-09-11T09:33:42Z</time>
      </trkpt>
      <trkpt lat="45.64414" lon="6.1862">
        <ele>779.9375</ele>
        <time>2011-09-11T09:33:47Z</time>
      </trkpt>
      <trkpt lat="45.6441" lon="6.18625">
        <ele>779.953125</ele>
        <time>2011-09-11T09:33:52Z</time>
      </trkpt>
      <trkpt lat="45.64405" lon="6.1863">
        <ele>779.84613</ele>
        <time>2011-09-11T09:33:57Z</time>
      </trkpt>
      <trkpt lat="45.64401" lon="6.18634">
        <ele>779.659973</ele>
        <time>2011-09-11T09:34:02Z</time>
      </trkpt>
      <trkpt lat="45.64397" lon="6.1864">
        <ele>779.518066</ele>
        <time>2011-09-11T09:34:07Z</time>
      </trkpt>
      <trkpt lat="45.64395" lon="6.18641">
        <ele>779.384827</ele>
        <time>2011-09-11T09:34:12Z</time>
      </trkpt>
      <trkpt lat="45.64391" lon="6.18645">
        <ele>779.13147</ele>
        <time>2011-09-11T09:34:17Z</time>
      </trkpt>
      <trkpt lat="45.64387" lon="6.18652">
        <ele>778.866211</ele>
        <time>2011-09-11T09:34:22Z</time>
      </trkpt>
      <trkpt lat="45.64381" lon="6.18657">
        <ele>778.843201</ele>
        <time>2011-09-11T09:34:27Z</time>
      </trkpt>
      <trkpt lat="45.64377" lon="6.18662">
        <ele>779.109436</ele>
        <time>2011-09-11T09:34:32Z</time>
      </trkpt>
      <trkpt lat="45.64373" lon="6.18667">
        <ele>779.340454</ele>
        <time>2011-09-11T09:34:37Z</time>
      </trkpt>
      <trkpt lat="45.64368" lon="6.18669">
        <ele>779.283203</ele>
        <time>2011-09-11T09:34:42Z</time>
      </trkpt>
      <trkpt lat="45.64364" lon="6.18672">
        <ele>779.244385</ele>
        <time>2011-09-11T09:34:47Z</time>
      </trkpt>
      <trkpt lat="45.64359" lon="6.18675">
        <ele>779.080383</ele>
        <time>2011-09-11T09:34:52Z</time>
      </trkpt>
      <trkpt lat="45.64355" lon="6.1868">
        <ele>779.006775</ele>
        <time>2011-09-11T09:34:57Z</time>
      </trkpt>
      <trkpt lat="45.6435" lon="6.18685">
        <ele>778.766663</ele>
        <time>2011-09-11T09:35:02Z</time>
      </trkpt>
      <trkpt lat="45.64347" lon="6.18689">
        <ele>778.554688</ele>
        <time>2011-09-11T09:35:07Z</time>
      </trkpt>
      <trkpt lat="45.64344" lon="6.18692">
        <ele>778.274475</ele>
        <time>2011-09-11T09:35:12Z</time>
      </trkpt>
      <trkpt lat="45.64342" lon="6.18694">
        <ele>778.077881</ele>
        <time>2011-09-11T09:35:17Z</time>
      </trkpt>
      <trkpt lat="45.64341" lon="6.18701">
        <ele>777.982361</ele>
        <time>2011-09-11T09:35:22Z</time>
      </trkpt>
      <trkpt lat="45.64338" lon="6.18708">
        <ele>777.87384</ele>
        <time>2011-09-11T09:35:27Z</time>
      </trkpt>
      <trkpt lat="45.64338" lon="6.18709">
        <ele>777.874023</ele>
        <time>2011-09-11T09:35:32Z</time>
      </trkpt>
      <trkpt lat="45.64338" lon="6.18713">
        <ele>777.887024</ele>
        <time>2011-09-11T09:35:37Z</time>
      </trkpt>
      <trkpt lat="45.64338" lon="6.18718">
        <ele>777.862427</ele>
        <time>2011-09-11T09:35:42Z</time>
      </trkpt>
      <trkpt lat="45.64337" lon="6.18725">
        <ele>778.764099</ele>
        <time>2011-09-11T09:35:47Z</time>
      </trkpt>
      <trkpt lat="45.64336" lon="6.1873">
        <ele>779.59552</ele>
        <time>2011-09-11T09:35:52Z</time>
      </trkpt>
      <trkpt lat="45.64333" lon="6.18736">
        <ele>780.504578</ele>
        <time>2011-09-11T09:35:57Z</time>
      </trkpt>
      <trkpt lat="45.64328" lon="6.18741">
        <ele>781.049561</ele>
        <time>2011-09-11T09:36:02Z</time>
      </trkpt>
      <trkpt lat="45.64322" lon="6.18743">
        <ele>781.151367</ele>
        <time>2011-09-11T09:36:07Z</time>
      </trkpt>
      <trkpt lat="45.64316" lon="6.18747">
        <ele>781.491821</ele>
        <time>2011-09-11T09:36:12Z</time>
      </trkpt>
      <trkpt lat="45.64311" lon="6.18751">
        <ele>781.766785</ele>
        <time>2011-09-11T09:36:17Z</time>
      </trkpt>
      <trkpt lat="45.64305" lon="6.18754">
        <ele>781.836182</ele>
        <time>2011-09-11T09:36:22Z</time>
      </trkpt>
      <trkpt lat="45.64299" lon="6.18755">
        <ele>781.643921</ele>
        <time>2011-09-11T09:36:27Z</time>
      </trkpt>
      <trkpt lat="45.64293" lon="6.18755">
        <ele>781.335327</ele>
        <time>2011-09-11T09:36:32Z</time>
      </trkpt>
      <trkpt lat="45.64288" lon="6.18753">
        <ele>781.166199</ele>
        <time>2011-09-11T09:36:37Z</time>
      </trkpt>
      <trkpt lat="45.64282" lon="6.18753">
        <ele>781.113037</ele>
        <time>2011-09-11T09:36:42Z</time>
      </trkpt>
      <trkpt lat="45.64277" lon="6.18751">
        <ele>780.965027</ele>
        <time>2011-09-11T09:36:47Z</time>
      </trkpt>
      <trkpt lat="45.64276" lon="6.18752">
        <ele>780.985596</ele>
        <time>2011-09-11T09:36:52Z</time>
      </trkpt>
      <trkpt lat="45.64274" lon="6.18751">
        <ele>780.914001</ele>
        <time>2011-09-11T09:36:57Z</time>
      </trkpt>
      <trkpt lat="45.64269" lon="6.18748">
        <ele>780.62677</ele>
        <time>2011-09-11T09:37:02Z</time>
      </trkpt>
      <trkpt lat="45.64264" lon="6.18745">
        <ele>780.398743</ele>
        <time>2011-09-11T09:37:07Z</time>
      </trkpt>
      <trkpt lat="45.64258" lon="6.18746">
        <ele>780.457275</ele>
        <time>2011-09-11T09:37:12Z</time>
      </trkpt>
      <trkpt lat="45.64253" lon="6.18749">
        <ele>780.776672</ele>
        <time>2011-09-11T09:37:17Z</time>
      </trkpt>
      <trkpt lat="45.64247" lon="6.18751">
        <ele>780.920349</ele>
        <time>2011-09-11T09:37:22Z</time>
      </trkpt>
      <trkpt lat="45.64241" lon="6.18754">
        <ele>780.955811</ele>
        <time>2011-09-11T09:37:27Z</time>
      </trkpt>
      <trkpt lat="45.64235" lon="6.18753">
        <ele>780.78717</ele>
        <time>2011-09-11T09:37:32Z</time>
      </trkpt>
      <trkpt lat="45.6423" lon="6.18748">
        <ele>780.679016</ele>
        <time>2011-09-11T09:37:37Z</time>
      </trkpt>
      <trkpt lat="45.64225" lon="6.18745">
        <ele>780.726135</ele>
        <time>2011-09-11T09:37:42Z</time>
      </trkpt>
      <trkpt lat="45.64221" lon="6.18743">
        <ele>780.824158</ele>
        <time>2011-09-11T09:37:47Z</time>
      </trkpt>
      <trkpt lat="45.64215" lon="6.18744">
        <ele>780.833069</ele>
        <time>2011-09-11T09:37:52Z</time>
      </trkpt>
      <trkpt lat="45.6421" lon="6.18742">
        <ele>781.010681</ele>
        <time>2011-09-11T09:37:57Z</time>
      </trkpt>
      <trkpt lat="45.64204" lon="6.1874">
        <ele>781.347717</ele>
        <time>2011-09-11T09:38:02Z</time>
      </trkpt>
      <trkpt lat="45.64199" lon="6.18739">
        <ele>782.855225</ele>
        <time>2011-09-11T09:38:07Z</time>
      </trkpt>
      <trkpt lat="45.64193" lon="6.18739">
        <ele>784.076416</ele>
        <time>2011-09-11T09:38:12Z</time>
      </trkpt>
      <trkpt lat="45.64188" lon="6.18741">
        <ele>784.842529</ele>
        <time>2011-09-11T09:38:17Z</time>
      </trkpt>
      <trkpt lat="45.64183" lon="6.18745">
        <ele>785.2854</ele>
        <time>2011-09-11T09:38:22Z</time>
      </trkpt>
      <trkpt lat="45.64178" lon="6.18748">
        <ele>785.650208</ele>
        <time>2011-09-11T09:38:27Z</time>
      </trkpt>
      <trkpt lat="45.64176" lon="6.18749">
        <ele>785.764526</ele>
        <time>2011-09-11T09:38:32Z</time>
      </trkpt>
      <trkpt lat="45.64175" lon="6.18754">
        <ele>784.911499</ele>
        <time>2011-09-11T09:38:37Z</time>
      </trkpt>
      <trkpt lat="45.64169" lon="6.1876">
        <ele>784.401245</ele>
        <time>2011-09-11T09:38:42Z</time>
      </trkpt>
      <trkpt lat="45.64165" lon="6.18763">
        <ele>784.243835</ele>
        <time>2011-09-11T09:38:47Z</time>
      </trkpt>
      <trkpt lat="45.6416" lon="6.18769">
        <ele>783.53595</ele>
        <time>2011-09-11T09:38:52Z</time>
      </trkpt>
      <trkpt lat="45.64159" lon="6.18771">
        <ele>783.015442</ele>
        <time>2011-09-11T09:38:57Z</time>
      </trkpt>
      <trkpt lat="45.64161" lon="6.18775">
        <ele>782.652161</ele>
        <time>2011-09-11T09:39:02Z</time>
      </trkpt>
      <trkpt lat="45.6416" lon="6.18783">
        <ele>782.519653</ele>
        <time>2011-09-11T09:39:07Z</time>
      </trkpt>
      <trkpt lat="45.64158" lon="6.1879">
        <ele>782.609924</ele>
        <time>2011-09-11T09:39:12Z</time>
      </trkpt>
      <trkpt lat="45.64155" lon="6.18798">
        <ele>783.462097</ele>
        <time>2011-09-11T09:39:17Z</time>
      </trkpt>
      <trkpt lat="45.64152" lon="6.18805">
        <ele>783.907959</ele>
        <time>2011-09-11T09:39:22Z</time>
      </trkpt>
      <trkpt lat="45.64151" lon="6.18809">
        <ele>784.021179</ele>
        <time>2011-09-11T09:39:27Z</time>
      </trkpt>
      <trkpt lat="45.6415" lon="6.18814">
        <ele>784.076172</ele>
        <time>2011-09-11T09:39:32Z</time>
      </trkpt>
      <trkpt lat="45.64147" lon="6.1882">
        <ele>784.665161</ele>
        <time>2011-09-11T09:39:37Z</time>
      </trkpt>
      <trkpt lat="45.64144" lon="6.18826">
        <ele>784.857361</ele>
        <time>2011-09-11T09:39:42Z</time>
      </trkpt>
      <trkpt lat="45.6414" lon="6.18835">
        <ele>784.912476</ele>
        <time>2011-09-11T09:39:47Z</time>
      </trkpt>
      <trkpt lat="45.64138" lon="6.1884">
        <ele>785.119751</ele>
        <time>2011-09-11T09:39:52Z</time>
      </trkpt>
      <trkpt lat="45.64137" lon="6.18846">
        <ele>785.157104</ele>
        <time>2011-09-11T09:39:57Z</time>
      </trkpt>
      <trkpt lat="45.64134" lon="6.18854">
        <ele>785.203918</ele>
        <time>2011-09-11T09:40:02Z</time>
      </trkpt>
      <trkpt lat="45.6413" lon="6.18862">
        <ele>785.17511</ele>
        <time>2011-09-11T09:40:07Z</time>
      </trkpt>
      <trkpt lat="45.64127" lon="6.18868">
        <ele>784.880005</ele>
        <time>2011-09-11T09:40:12Z</time>
      </trkpt>
      <trkpt lat="45.64123" lon="6.18876">
        <ele>784.409851</ele>
        <time>2011-09-11T09:40:17Z</time>
      </trkpt>
      <trkpt lat="45.64118" lon="6.18885">
        <ele>783.669617</ele>
        <time>2011-09-11T09:40:22Z</time>
      </trkpt>
      <trkpt lat="45.64115" lon="6.18891">
        <ele>782.901306</ele>
        <time>2011-09-11T09:40:27Z</time>
      </trkpt>
      <trkpt lat="45.64111" lon="6.18897">
        <ele>782.293091</ele>
        <time>2011-09-11T09:40:32Z</time>
      </trkpt>
      <trkpt lat="45.64105" lon="6.18902">
        <ele>784.908508</ele>
        <time>2011-09-11T09:40:37Z</time>
      </trkpt>
      <trkpt lat="45.64102" lon="6.18907">
        <ele>786.848022</ele>
        <time>2011-09-11T09:40:42Z</time>
      </trkpt>
      <trkpt lat="45.64098" lon="6.18911">
        <ele>788.636475</ele>
        <time>2011-09-11T09:40:47Z</time>
      </trkpt>
      <trkpt lat="45.64091" lon="6.18915">
        <ele>790.247437</ele>
        <time>2011-09-11T09:40:52Z</time>
      </trkpt>
      <trkpt lat="45.64085" lon="6.18919">
        <ele>791.178955</ele>
        <time>2011-09-11T09:40:57Z</time>
      </trkpt>
      <trkpt lat="45.64079" lon="6.18923">
        <ele>791.704346</ele>
        <time>2011-09-11T09:41:02Z</time>
      </trkpt>
      <trkpt lat="45.64073" lon="6.18927">
        <ele>791.694153</ele>
        <time>2011-09-11T09:41:07Z</time>
      </trkpt>
      <trkpt lat="45.64068" lon="6.18931">
        <ele>791.197205</ele>
        <time>2011-09-11T09:41:12Z</time>
      </trkpt>
      <trkpt lat="45.64062" lon="6.18935">
        <ele>790.624329</ele>
        <time>2011-09-11T09:41:17Z</time>
      </trkpt>
      <trkpt lat="45.64058" lon="6.18939">
        <ele>791.259644</ele>
        <time>2011-09-11T09:41:22Z</time>
      </trkpt>
      <trkpt lat="45.64053" lon="6.18945">
        <ele>791.388123</ele>
        <time>2011-09-11T09:41:27Z</time>
      </trkpt>
      <trkpt lat="45.64048" lon="6.18949">
        <ele>791.687256</ele>
        <time>2011-09-11T09:41:32Z</time>
      </trkpt>
      <trkpt lat="45.64043" lon="6.18954">
        <ele>791.863037</ele>
        <time>2011-09-11T09:41:37Z</time>
      </trkpt>
      <trkpt lat="45.64039" lon="6.18957">
        <ele>792.136841</ele>
        <time>2011-09-11T09:41:42Z</time>
      </trkpt>
      <trkpt lat="45.64035" lon="6.1896">
        <ele>792.794434</ele>
        <time>2011-09-11T09:41:47Z</time>
      </trkpt>
      <trkpt lat="45.64029" lon="6.18964">
        <ele>793.648987</ele>
        <time>2011-09-11T09:41:52Z</time>
      </trkpt>
      <trkpt lat="45.64023" lon="6.18968">
        <ele>794.365356</ele>
        <time>2011-09-11T09:41:57Z</time>
      </trkpt>
      <trkpt lat="45.64018" lon="6.18972">
        <ele>794.697937</ele>
        <time>2011-09-11T09:42:02Z</time>
      </trkpt>
      <trkpt lat="45.64013" lon="6.18977">
        <ele>796.110229</ele>
        <time>2011-09-11T09:42:07Z</time>
      </trkpt>
      <trkpt lat="45.64008" lon="6.18981">
        <ele>797.403687</ele>
        <time>2011-09-11T09:42:12Z</time>
      </trkpt>
      <trkpt lat="45.64005" lon="6.18986">
        <ele>798.294189</ele>
        <time>2011-09-11T09:42:17Z</time>
      </trkpt>
      <trkpt lat="45.64001" lon="6.18992">
        <ele>798.797913</ele>
        <time>2011-09-11T09:42:22Z</time>
      </trkpt>
      <trkpt lat="45.63998" lon="6.18997">
        <ele>799.452637</ele>
        <time>2011-09-11T09:42:27Z</time>
      </trkpt>
      <trkpt lat="45.63995" lon="6.19001">
        <ele>799.907471</ele>
        <time>2011-09-11T09:42:32Z</time>
      </trkpt>
      <trkpt lat="45.63994" lon="6.19011">
        <ele>798.872192</ele>
        <time>2011-09-11T09:42:37Z</time>
      </trkpt>
      <trkpt lat="45.63994" lon="6.19018">
        <ele>797.986267</ele>
        <time>2011-09-11T09:42:42Z</time>
      </trkpt>
      <trkpt lat="45.63994" lon="6.19026">
        <ele>797.993774</ele>
        <time>2011-09-11T09:42:47Z</time>
      </trkpt>
      <trkpt lat="45.63994" lon="6.19032">
        <ele>797.83252</ele>
        <time>2011-09-11T09:42:52Z</time>
      </trkpt>
      <trkpt lat="45.63993" lon="6.1904">
        <ele>797.875</ele>
        <time>2011-09-11T09:42:57Z</time>
      </trkpt>
      <trkpt lat="45.63992" lon="6.19047">
        <ele>797.89502</ele>
        <time>2011-09-11T09:43:02Z</time>
      </trkpt>
      <trkpt lat="45.63993" lon="6.19051">
        <ele>797.611267</ele>
        <time>2011-09-11T09:43:07Z</time>
      </trkpt>
      <trkpt lat="45.64002" lon="6.19062">
        <ele>794.776245</ele>
        <time>2011-09-11T09:45:02Z</time>
      </trkpt>
      <trkpt lat="45.64003" lon="6.19069">
        <ele>794.241272</ele>
        <time>2011-09-11T09:45:07Z</time>
      </trkpt>
      <trkpt lat="45.64003" lon="6.19077">
        <ele>794.053772</ele>
        <time>2011-09-11T09:45:12Z</time>
      </trkpt>
      <trkpt lat="45.64003" lon="6.19085">
        <ele>794.051147</ele>
        <time>2011-09-11T09:45:17Z</time>
      </trkpt>
      <trkpt lat="45.64005" lon="6.1909">
        <ele>793.578186</ele>
        <time>2011-09-11T09:45:22Z</time>
      </trkpt>
      <trkpt lat="45.64007" lon="6.19098">
        <ele>793.603455</ele>
        <time>2011-09-11T09:45:27Z</time>
      </trkpt>
      <trkpt lat="45.64008" lon="6.19107">
        <ele>794.035583</ele>
        <time>2011-09-11T09:45:32Z</time>
      </trkpt>
      <trkpt lat="45.64007" lon="6.19113">
        <ele>794.683228</ele>
        <time>2011-09-11T09:45:37Z</time>
      </trkpt>
      <trkpt lat="45.64007" lon="6.19118">
        <ele>794.913147</ele>
        <time>2011-09-11T09:45:42Z</time>
      </trkpt>
      <trkpt lat="45.6401" lon="6.19121">
        <ele>794.827148</ele>
        <time>2011-09-11T09:45:47Z</time>
      </trkpt>
      <trkpt lat="45.64011" lon="6.1912">
        <ele>794.650208</ele>
        <time>2011-09-11T09:45:52Z</time>
      </trkpt>
      <trkpt lat="45.64011" lon="6.19118">
        <ele>794.513245</ele>
        <time>2011-09-11T09:45:57Z</time>
      </trkpt>
      <trkpt lat="45.64015" lon="6.19121">
        <ele>795.776001</ele>
        <time>2011-09-11T09:46:02Z</time>
      </trkpt>
      <trkpt lat="45.64013" lon="6.19129">
        <ele>796.156311</ele>
        <time>2011-09-11T09:46:07Z</time>
      </trkpt>
      <trkpt lat="45.64019" lon="6.19123">
        <ele>797.20459</ele>
        <time>2011-09-11T09:48:12Z</time>
      </trkpt>
      <trkpt lat="45.64021" lon="6.19124">
        <ele>798.072266</ele>
        <time>2011-09-11T09:48:17Z</time>
      </trkpt>
      <trkpt lat="45.64022" lon="6.19127">
        <ele>798.855591</ele>
        <time>2011-09-11T09:48:22Z</time>
      </trkpt>
      <trkpt lat="45.64025" lon="6.19132">
        <ele>800.45752</ele>
        <time>2011-09-11T09:48:27Z</time>
      </trkpt>
      <trkpt lat="45.64024" lon="6.19136">
        <ele>800.961853</ele>
        <time>2011-09-11T09:48:32Z</time>
      </trkpt>
      <trkpt lat="45.64023" lon="6.19144">
        <ele>801.299744</ele>
        <time>2011-09-11T09:48:37Z</time>
      </trkpt>
      <trkpt lat="45.64023" lon="6.1915">
        <ele>802.472595</ele>
        <time>2011-09-11T09:48:42Z</time>
      </trkpt>
      <trkpt lat="45.64021" lon="6.19156">
        <ele>803.667175</ele>
        <time>2011-09-11T09:48:47Z</time>
      </trkpt>
      <trkpt lat="45.64021" lon="6.19159">
        <ele>804.573059</ele>
        <time>2011-09-11T09:48:52Z</time>
      </trkpt>
      <trkpt lat="45.6402" lon="6.19162">
        <ele>804.703979</ele>
        <time>2011-09-11T09:50:42Z</time>
      </trkpt>
      <trkpt lat="45.64015" lon="6.19163">
        <ele>802.822083</ele>
        <time>2011-09-11T09:50:47Z</time>
      </trkpt>
      <trkpt lat="45.64012" lon="6.19158">
        <ele>800.495605</ele>
        <time>2011-09-11T09:50:52Z</time>
      </trkpt>
      <trkpt lat="45.64013" lon="6.19157">
        <ele>800.541016</ele>
        <time>2011-09-11T09:50:57Z</time>
      </trkpt>
      <trkpt lat="45.64013" lon="6.19158">
        <ele>800.731018</ele>
        <time>2011-09-11T09:51:02Z</time>
      </trkpt>
      <trkpt lat="45.64012" lon="6.19158">
        <ele>800.430908</ele>
        <time>2011-09-11T09:51:07Z</time>
      </trkpt>
      <trkpt lat="45.64011" lon="6.19159">
        <ele>800.37561</ele>
        <time>2011-09-11T09:51:12Z</time>
      </trkpt>
      <trkpt lat="45.64011" lon="6.19159">
        <ele>800.310181</ele>
        <time>2011-09-11T09:51:17Z</time>
      </trkpt>
      <trkpt lat="45.6401" lon="6.19159">
        <ele>800.037476</ele>
        <time>2011-09-11T09:51:22Z</time>
      </trkpt>
      <trkpt lat="45.6401" lon="6.19158">
        <ele>799.83783</ele>
        <time>2011-09-11T09:51:27Z</time>
      </trkpt>
      <trkpt lat="45.64008" lon="6.19159">
        <ele>799.866028</ele>
        <time>2011-09-11T09:51:32Z</time>
      </trkpt>
      <trkpt lat="45.64006" lon="6.19167">
        <ele>801.582764</ele>
        <time>2011-09-11T09:51:37Z</time>
      </trkpt>
      <trkpt lat="45.64004" lon="6.19175">
        <ele>803.168457</ele>
        <time>2011-09-11T09:51:42Z</time>
      </trkpt>
      <trkpt lat="45.64003" lon="6.19184">
        <ele>804.823547</ele>
        <time>2011-09-11T09:51:47Z</time>
      </trkpt>
      <trkpt lat="45.64002" lon="6.1919">
        <ele>805.837219</ele>
        <time>2011-09-11T09:51:52Z</time>
      </trkpt>
      <trkpt lat="45.64002" lon="6.19194">
        <ele>806.741455</ele>
        <time>2011-09-11T09:51:57Z</time>
      </trkpt>
      <trkpt lat="45.64003" lon="6.19197">
        <ele>807.475769</ele>
        <time>2011-09-11T09:52:02Z</time>
      </trkpt>
      <trkpt lat="45.64004" lon="6.19199">
        <ele>808.278625</ele>
        <time>2011-09-11T09:52:07Z</time>
      </trkpt>
      <trkpt lat="45.64005" lon="6.19197">
        <ele>807.931946</ele>
        <time>2011-09-11T09:52:12Z</time>
      </trkpt>
      <trkpt lat="45.64005" lon="6.19196">
        <ele>807.837219</ele>
        <time>2011-09-11T09:52:17Z</time>
      </trkpt>
      <trkpt lat="45.64007" lon="6.19194">
        <ele>807.720886</ele>
        <time>2011-09-11T09:52:22Z</time>
      </trkpt>
      <trkpt lat="45.6401" lon="6.19192">
        <ele>808.046387</ele>
        <time>2011-09-11T09:52:27Z</time>
      </trkpt>
      <trkpt lat="45.6401" lon="6.192">
        <ele>809.939209</ele>
        <time>2011-09-11T09:52:32Z</time>
      </trkpt>
      <trkpt lat="45.6401" lon="6.19202">
        <ele>810.653503</ele>
        <time>2011-09-11T09:52:37Z</time>
      </trkpt>
      <trkpt lat="45.64011" lon="6.19203">
        <ele>811.244324</ele>
        <time>2011-09-11T09:52:42Z</time>
      </trkpt>
      <trkpt lat="45.6401" lon="6.19208">
        <ele>812.111877</ele>
        <time>2011-09-11T09:52:47Z</time>
      </trkpt>
      <trkpt lat="45.6401" lon="6.19209">
        <ele>812.306396</ele>
        <time>2011-09-11T09:52:52Z</time>
      </trkpt>
      <trkpt lat="45.64009" lon="6.19211">
        <ele>812.427917</ele>
        <time>2011-09-11T09:52:57Z</time>
      </trkpt>
      <trkpt lat="45.6401" lon="6.19214">
        <ele>813.693909</ele>
        <time>2011-09-11T09:53:02Z</time>
      </trkpt>
      <trkpt lat="45.6401" lon="6.19217">
        <ele>814.638306</ele>
        <time>2011-09-11T09:53:07Z</time>
      </trkpt>
      <trkpt lat="45.6401" lon="6.1922">
        <ele>815.500793</ele>
        <time>2011-09-11T09:53:12Z</time>
      </trkpt>
      <trkpt lat="45.64009" lon="6.19222">
        <ele>815.534363</ele>
        <time>2011-09-11T09:53:17Z</time>
      </trkpt>
      <trkpt lat="45.64009" lon="6.19225">
        <ele>816.342957</ele>
        <time>2011-09-11T09:53:22Z</time>
      </trkpt>
      <trkpt lat="45.6401" lon="6.19227">
        <ele>817.115601</ele>
        <time>2011-09-11T09:53:27Z</time>
      </trkpt>
      <trkpt lat="45.6401" lon="6.19228">
        <ele>817.470642</ele>
        <time>2011-09-11T09:53:32Z</time>
      </trkpt>
      <trkpt lat="45.6401" lon="6.19226">
        <ele>817.068604</ele>
        <time>2011-09-11T09:53:37Z</time>
      </trkpt>
      <trkpt lat="45.6401" lon="6.19223">
        <ele>816.25592</ele>
        <time>2011-09-11T09:53:42Z</time>
      </trkpt>
      <trkpt lat="45.64013" lon="6.19225">
        <ele>817.872437</ele>
        <time>2011-09-11T09:53:47Z</time>
      </trkpt>
      <trkpt lat="45.64014" lon="6.19227">
        <ele>818.896667</ele>
        <time>2011-09-11T09:53:52Z</time>
      </trkpt>
      <trkpt lat="45.64014" lon="6.19228">
        <ele>819.272644</ele>
        <time>2011-09-11T09:53:57Z</time>
      </trkpt>
      <trkpt lat="45.64013" lon="6.19232">
        <ele>819.858337</ele>
        <time>2011-09-11T09:54:02Z</time>
      </trkpt>
      <trkpt lat="45.64015" lon="6.19237">
        <ele>821.848267</ele>
        <time>2011-09-11T09:54:07Z</time>
      </trkpt>
      <trkpt lat="45.64018" lon="6.19237">
        <ele>823.050659</ele>
        <time>2011-09-11T09:54:12Z</time>
      </trkpt>
      <trkpt lat="45.64019" lon="6.19236">
        <ele>823.326599</ele>
        <time>2011-09-11T09:54:17Z</time>
      </trkpt>
      <trkpt lat="45.6402" lon="6.19236">
        <ele>823.65033</ele>
        <time>2011-09-11T09:54:22Z</time>
      </trkpt>
      <trkpt lat="45.64021" lon="6.19236">
        <ele>824.212769</ele>
        <time>2011-09-11T09:54:27Z</time>
      </trkpt>
      <trkpt lat="45.64023" lon="6.19237">
        <ele>825.315369</ele>
        <time>2011-09-11T09:54:32Z</time>
      </trkpt>
      <trkpt lat="45.64026" lon="6.19238">
        <ele>826.344238</ele>
        <time>2011-09-11T09:54:37Z</time>
      </trkpt>
      <trkpt lat="45.64025" lon="6.19238">
        <ele>826.024414</ele>
        <time>2011-09-11T09:54:42Z</time>
      </trkpt>
      <trkpt lat="45.64025" lon="6.19238">
        <ele>826.024414</ele>
        <time>2011-09-11T09:54:47Z</time>
      </trkpt>
      <trkpt lat="45.64026" lon="6.19239">
        <ele>826.545227</ele>
        <time>2011-09-11T09:54:52Z</time>
      </trkpt>
      <trkpt lat="45.64029" lon="6.19241">
        <ele>828.166321</ele>
        <time>2011-09-11T09:54:57Z</time>
      </trkpt>
      <trkpt lat="45.64031" lon="6.19242">
        <ele>829.377502</ele>
        <time>2011-09-11T09:55:02Z</time>
      </trkpt>
      <trkpt lat="45.64032" lon="6.19243">
        <ele>830.017395</ele>
        <time>2011-09-11T09:55:07Z</time>
      </trkpt>
      <trkpt lat="45.64035" lon="6.19245">
        <ele>831.477905</ele>
        <time>2011-09-11T09:55:12Z</time>
      </trkpt>
      <trkpt lat="45.64037" lon="6.19247">
        <ele>832.704956</ele>
        <time>2011-09-11T09:55:17Z</time>
      </trkpt>
      <trkpt lat="45.64039" lon="6.1925">
        <ele>833.729858</ele>
        <time>2011-09-11T09:55:22Z</time>
      </trkpt>
      <trkpt lat="45.6404" lon="6.19252">
        <ele>834.483765</ele>
        <time>2011-09-11T09:55:27Z</time>
      </trkpt>
      <trkpt lat="45.64041" lon="6.19255">
        <ele>835.266785</ele>
        <time>2011-09-11T09:55:32Z</time>
      </trkpt>
      <trkpt lat="45.64042" lon="6.19258">
        <ele>836.140076</ele>
        <time>2011-09-11T09:55:37Z</time>
      </trkpt>
      <trkpt lat="45.64042" lon="6.19265">
        <ele>837.1828</ele>
        <time>2011-09-11T09:55:42Z</time>
      </trkpt>
      <trkpt lat="45.64042" lon="6.1927">
        <ele>838.258667</ele>
        <time>2011-09-11T09:55:47Z</time>
      </trkpt>
      <trkpt lat="45.64042" lon="6.19274">
        <ele>838.862061</ele>
        <time>2011-09-11T09:55:52Z</time>
      </trkpt>
      <trkpt lat="45.64043" lon="6.19277">
        <ele>839.505737</ele>
        <time>2011-09-11T09:55:57Z</time>
      </trkpt>
      <trkpt lat="45.64044" lon="6.19278">
        <ele>840.03363</ele>
        <time>2011-09-11T09:56:02Z</time>
      </trkpt>
      <trkpt lat="45.64044" lon="6.19278">
        <ele>840.129517</ele>
        <time>2011-09-11T09:56:07Z</time>
      </trkpt>
      <trkpt lat="45.64044" lon="6.19278">
        <ele>840.173523</ele>
        <time>2011-09-11T09:56:12Z</time>
      </trkpt>
      <trkpt lat="45.64046" lon="6.19282">
        <ele>841.759583</ele>
        <time>2011-09-11T09:56:17Z</time>
      </trkpt>
      <trkpt lat="45.64046" lon="6.19284">
        <ele>842.202698</ele>
        <time>2011-09-11T09:56:22Z</time>
      </trkpt>
      <trkpt lat="45.64048" lon="6.19283">
        <ele>842.585815</ele>
        <time>2011-09-11T09:56:52Z</time>
      </trkpt>
      <trkpt lat="45.64045" lon="6.19287">
        <ele>842.914673</ele>
        <time>2011-09-11T09:56:57Z</time>
      </trkpt>
      <trkpt lat="45.64042" lon="6.19292">
        <ele>843.859131</ele>
        <time>2011-09-11T09:57:02Z</time>
      </trkpt>
      <trkpt lat="45.64038" lon="6.19298">
        <ele>844.822083</ele>
        <time>2011-09-11T09:57:07Z</time>
      </trkpt>
      <trkpt lat="45.64037" lon="6.19302">
        <ele>846.094971</ele>
        <time>2011-09-11T09:57:12Z</time>
      </trkpt>
      <trkpt lat="45.64038" lon="6.19305">
        <ele>847.029785</ele>
        <time>2011-09-11T09:57:17Z</time>
      </trkpt>
      <trkpt lat="45.64036" lon="6.19311">
        <ele>848.601379</ele>
        <time>2011-09-11T09:57:22Z</time>
      </trkpt>
      <trkpt lat="45.64037" lon="6.19314">
        <ele>849.682739</ele>
        <time>2011-09-11T09:57:27Z</time>
      </trkpt>
      <trkpt lat="45.64039" lon="6.19317">
        <ele>850.623901</ele>
        <time>2011-09-11T09:57:32Z</time>
      </trkpt>
      <trkpt lat="45.6404" lon="6.19319">
        <ele>851.403503</ele>
        <time>2011-09-11T09:57:37Z</time>
      </trkpt>
      <trkpt lat="45.64041" lon="6.19321">
        <ele>852.005005</ele>
        <time>2011-09-11T09:57:42Z</time>
      </trkpt>
      <trkpt lat="45.64044" lon="6.19324">
        <ele>852.930786</ele>
        <time>2011-09-11T09:57:47Z</time>
      </trkpt>
      <trkpt lat="45.64045" lon="6.19325">
        <ele>853.095703</ele>
        <time>2011-09-11T09:57:52Z</time>
      </trkpt>
      <trkpt lat="45.64045" lon="6.19329">
        <ele>854.125854</ele>
        <time>2011-09-11T09:57:57Z</time>
      </trkpt>
      <trkpt lat="45.64045" lon="6.19328">
        <ele>854.002563</ele>
        <time>2011-09-11T09:58:02Z</time>
      </trkpt>
      <trkpt lat="45.64046" lon="6.19328">
        <ele>853.840698</ele>
        <time>2011-09-11T09:58:07Z</time>
      </trkpt>
      <trkpt lat="45.64044" lon="6.19325">
        <ele>853.224487</ele>
        <time>2011-09-11T09:58:12Z</time>
      </trkpt>
      <trkpt lat="45.64044" lon="6.19325">
        <ele>853.007751</ele>
        <time>2011-09-11T09:58:17Z</time>
      </trkpt>
      <trkpt lat="45.64043" lon="6.19326">
        <ele>853.40448</ele>
        <time>2011-09-11T09:58:22Z</time>
      </trkpt>
      <trkpt lat="45.64044" lon="6.19327">
        <ele>853.673889</ele>
        <time>2011-09-11T09:58:27Z</time>
      </trkpt>
      <trkpt lat="45.64047" lon="6.19331">
        <ele>854.647522</ele>
        <time>2011-09-11T09:58:32Z</time>
      </trkpt>
      <trkpt lat="45.64048" lon="6.19335">
        <ele>855.600891</ele>
        <time>2011-09-11T09:58:37Z</time>
      </trkpt>
      <trkpt lat="45.64048" lon="6.19336">
        <ele>855.677307</ele>
        <time>2011-09-11T09:58:42Z</time>
      </trkpt>
      <trkpt lat="45.64048" lon="6.19335">
        <ele>855.58429</ele>
        <time>2011-09-11T09:58:47Z</time>
      </trkpt>
      <trkpt lat="45.6405" lon="6.19337">
        <ele>855.978149</ele>
        <time>2011-09-11T09:58:52Z</time>
      </trkpt>
      <trkpt lat="45.6405" lon="6.1934">
        <ele>856.770691</ele>
        <time>2011-09-11T09:58:57Z</time>
      </trkpt>
      <trkpt lat="45.64049" lon="6.19344">
        <ele>858.526245</ele>
        <time>2011-09-11T09:59:37Z</time>
      </trkpt>
      <trkpt lat="45.64045" lon="6.1935">
        <ele>861.600403</ele>
        <time>2011-09-11T09:59:42Z</time>
      </trkpt>
      <trkpt lat="45.64042" lon="6.1935">
        <ele>861.995972</ele>
        <time>2011-09-11T09:59:47Z</time>
      </trkpt>
      <trkpt lat="45.64045" lon="6.19352">
        <ele>862.877197</ele>
        <time>2011-09-11T09:59:52Z</time>
      </trkpt>
      <trkpt lat="45.64049" lon="6.19351">
        <ele>861.905701</ele>
        <time>2011-09-11T09:59:57Z</time>
      </trkpt>
      <trkpt lat="45.64052" lon="6.19352">
        <ele>862.716614</ele>
        <time>2011-09-11T10:00:02Z</time>
      </trkpt>
      <trkpt lat="45.64055" lon="6.19349">
        <ele>861.916992</ele>
        <time>2011-09-11T10:00:07Z</time>
      </trkpt>
      <trkpt lat="45.64058" lon="6.19345">
        <ele>860.421021</ele>
        <time>2011-09-11T10:00:12Z</time>
      </trkpt>
      <trkpt lat="45.64062" lon="6.19349">
        <ele>862.890503</ele>
        <time>2011-09-11T10:00:17Z</time>
      </trkpt>
      <trkpt lat="45.64068" lon="6.19356">
        <ele>866.473022</ele>
        <time>2011-09-11T10:00:22Z</time>
      </trkpt>
      <trkpt lat="45.64069" lon="6.19361">
        <ele>868.683044</ele>
        <time>2011-09-11T10:00:27Z</time>
      </trkpt>
      <trkpt lat="45.64071" lon="6.19364">
        <ele>870.105835</ele>
        <time>2011-09-11T10:00:32Z</time>
      </trkpt>
      <trkpt lat="45.64074" lon="6.19367">
        <ele>871.586609</ele>
        <time>2011-09-11T10:00:37Z</time>
      </trkpt>
      <trkpt lat="45.64078" lon="6.19367">
        <ele>871.734497</ele>
        <time>2011-09-11T10:00:42Z</time>
      </trkpt>
      <trkpt lat="45.64082" lon="6.19368">
        <ele>872.398987</ele>
        <time>2011-09-11T10:00:47Z</time>
      </trkpt>
      <trkpt lat="45.64087" lon="6.19371">
        <ele>873.72113</ele>
        <time>2011-09-11T10:00:52Z</time>
      </trkpt>
      <trkpt lat="45.64088" lon="6.19373">
        <ele>874.351563</ele>
        <time>2011-09-11T10:00:57Z</time>
      </trkpt>
      <trkpt lat="45.64088" lon="6.19374">
        <ele>874.492859</ele>
        <time>2011-09-11T10:01:02Z</time>
      </trkpt>
      <trkpt lat="45.64089" lon="6.19376">
        <ele>875.302002</ele>
        <time>2011-09-11T10:01:07Z</time>
      </trkpt>
      <trkpt lat="45.6409" lon="6.19378">
        <ele>875.761658</ele>
        <time>2011-09-11T10:01:12Z</time>
      </trkpt>
      <trkpt lat="45.64091" lon="6.19382">
        <ele>876.924194</ele>
        <time>2011-09-11T10:01:17Z</time>
      </trkpt>
      <trkpt lat="45.64091" lon="6.19382">
        <ele>876.917786</ele>
        <time>2011-09-11T10:01:22Z</time>
      </trkpt>
      <trkpt lat="45.64092" lon="6.1938">
        <ele>876.372192</ele>
        <time>2011-09-11T10:01:27Z</time>
      </trkpt>
      <trkpt lat="45.64095" lon="6.19378">
        <ele>876.498901</ele>
        <time>2011-09-11T10:01:32Z</time>
      </trkpt>
      <trkpt lat="45.64097" lon="6.19378">
        <ele>876.808044</ele>
        <time>2011-09-11T10:01:37Z</time>
      </trkpt>
      <trkpt lat="45.64097" lon="6.19378">
        <ele>876.709045</ele>
        <time>2011-09-11T10:01:42Z</time>
      </trkpt>
      <trkpt lat="45.64097" lon="6.19377">
        <ele>876.631714</ele>
        <time>2011-09-11T10:01:47Z</time>
      </trkpt>
      <trkpt lat="45.64095" lon="6.19374">
        <ele>875.338074</ele>
        <time>2011-09-11T10:01:52Z</time>
      </trkpt>
      <trkpt lat="45.64093" lon="6.19372">
        <ele>874.256897</ele>
        <time>2011-09-11T10:01:57Z</time>
      </trkpt>
      <trkpt lat="45.64098" lon="6.19372">
        <ele>875.509338</ele>
        <time>2011-09-11T10:02:02Z</time>
      </trkpt>
      <trkpt lat="45.64104" lon="6.19371">
        <ele>876.985901</ele>
        <time>2011-09-11T10:02:07Z</time>
      </trkpt>
      <trkpt lat="45.6411" lon="6.19372">
        <ele>878.922668</ele>
        <time>2011-09-11T10:02:12Z</time>
      </trkpt>
      <trkpt lat="45.64115" lon="6.19373">
        <ele>880.398376</ele>
        <time>2011-09-11T10:02:17Z</time>
      </trkpt>
      <trkpt lat="45.64118" lon="6.1937">
        <ele>880.771606</ele>
        <time>2011-09-11T10:02:22Z</time>
      </trkpt>
      <trkpt lat="45.64119" lon="6.19366">
        <ele>880.685547</ele>
        <time>2011-09-11T10:02:27Z</time>
      </trkpt>
      <trkpt lat="45.6412" lon="6.19362">
        <ele>880.583679</ele>
        <time>2011-09-11T10:02:32Z</time>
      </trkpt>
      <trkpt lat="45.6412" lon="6.19359">
        <ele>880.093384</ele>
        <time>2011-09-11T10:02:37Z</time>
      </trkpt>
      <trkpt lat="45.6412" lon="6.19355">
        <ele>879.802551</ele>
        <time>2011-09-11T10:02:42Z</time>
      </trkpt>
      <trkpt lat="45.64119" lon="6.1935">
        <ele>878.783752</ele>
        <time>2011-09-11T10:02:47Z</time>
      </trkpt>
      <trkpt lat="45.64118" lon="6.19345">
        <ele>877.712952</ele>
        <time>2011-09-11T10:02:52Z</time>
      </trkpt>
      <trkpt lat="45.64118" lon="6.19339">
        <ele>877.822754</ele>
        <time>2011-09-11T10:02:57Z</time>
      </trkpt>
      <trkpt lat="45.64117" lon="6.19331">
        <ele>877.874268</ele>
        <time>2011-09-11T10:03:02Z</time>
      </trkpt>
      <trkpt lat="45.64118" lon="6.19327">
        <ele>878.281067</ele>
        <time>2011-09-11T10:03:07Z</time>
      </trkpt>
      <trkpt lat="45.64118" lon="6.19321">
        <ele>878.85022</ele>
        <time>2011-09-11T10:03:12Z</time>
      </trkpt>
      <trkpt lat="45.64118" lon="6.19317">
        <ele>878.95752</ele>
        <time>2011-09-11T10:03:17Z</time>
      </trkpt>
      <trkpt lat="45.64118" lon="6.19313">
        <ele>879.130127</ele>
        <time>2011-09-11T10:03:22Z</time>
      </trkpt>
      <trkpt lat="45.64118" lon="6.19308">
        <ele>879.337097</ele>
        <time>2011-09-11T10:03:27Z</time>
      </trkpt>
      <trkpt lat="45.64118" lon="6.19305">
        <ele>879.160889</ele>
        <time>2011-09-11T10:03:32Z</time>
      </trkpt>
      <trkpt lat="45.64117" lon="6.19297">
        <ele>879.158691</ele>
        <time>2011-09-11T10:03:37Z</time>
      </trkpt>
      <trkpt lat="45.64117" lon="6.19291">
        <ele>879.240906</ele>
        <time>2011-09-11T10:03:42Z</time>
      </trkpt>
      <trkpt lat="45.64118" lon="6.19283">
        <ele>880.107483</ele>
        <time>2011-09-11T10:03:47Z</time>
      </trkpt>
      <trkpt lat="45.6412" lon="6.19275">
        <ele>880.414551</ele>
        <time>2011-09-11T10:03:52Z</time>
      </trkpt>
      <trkpt lat="45.64124" lon="6.19268">
        <ele>881.339722</ele>
        <time>2011-09-11T10:03:57Z</time>
      </trkpt>
      <trkpt lat="45.64127" lon="6.19264">
        <ele>882.443909</ele>
        <time>2011-09-11T10:04:02Z</time>
      </trkpt>
      <trkpt lat="45.6413" lon="6.19261">
        <ele>883.543884</ele>
        <time>2011-09-11T10:04:07Z</time>
      </trkpt>
      <trkpt lat="45.64132" lon="6.19261">
        <ele>884.844421</ele>
        <time>2011-09-11T10:04:12Z</time>
      </trkpt>
      <trkpt lat="45.64133" lon="6.19264">
        <ele>885.572815</ele>
        <time>2011-09-11T10:04:17Z</time>
      </trkpt>
      <trkpt lat="45.64134" lon="6.19267">
        <ele>886.325623</ele>
        <time>2011-09-11T10:04:22Z</time>
      </trkpt>
      <trkpt lat="45.64135" lon="6.1927">
        <ele>887.413513</ele>
        <time>2011-09-11T10:04:27Z</time>
      </trkpt>
      <trkpt lat="45.64137" lon="6.19273">
        <ele>888.390259</ele>
        <time>2011-09-11T10:04:32Z</time>
      </trkpt>
      <trkpt lat="45.64138" lon="6.19276">
        <ele>889.518494</ele>
        <time>2011-09-11T10:04:37Z</time>
      </trkpt>
      <trkpt lat="45.6414" lon="6.19279">
        <ele>891.108704</ele>
        <time>2011-09-11T10:04:42Z</time>
      </trkpt>
      <trkpt lat="45.64143" lon="6.19283">
        <ele>892.406555</ele>
        <time>2011-09-11T10:04:47Z</time>
      </trkpt>
      <trkpt lat="45.64146" lon="6.19289">
        <ele>892.793457</ele>
        <time>2011-09-11T10:04:52Z</time>
      </trkpt>
      <trkpt lat="45.64148" lon="6.19293">
        <ele>893.039368</ele>
        <time>2011-09-11T10:04:57Z</time>
      </trkpt>
      <trkpt lat="45.6415" lon="6.19297">
        <ele>893.423645</ele>
        <time>2011-09-11T10:05:02Z</time>
      </trkpt>
      <trkpt lat="45.6415" lon="6.193">
        <ele>893.392212</ele>
        <time>2011-09-11T10:05:07Z</time>
      </trkpt>
      <trkpt lat="45.64152" lon="6.19303">
        <ele>893.899719</ele>
        <time>2011-09-11T10:05:12Z</time>
      </trkpt>
      <trkpt lat="45.64154" lon="6.19307">
        <ele>894.407104</ele>
        <time>2011-09-11T10:05:17Z</time>
      </trkpt>
      <trkpt lat="45.64156" lon="6.1931">
        <ele>894.944336</ele>
        <time>2011-09-11T10:05:22Z</time>
      </trkpt>
      <trkpt lat="45.64158" lon="6.19313">
        <ele>895.6651</ele>
        <time>2011-09-11T10:05:27Z</time>
      </trkpt>
      <trkpt lat="45.6416" lon="6.19316">
        <ele>896.475952</ele>
        <time>2011-09-11T10:05:32Z</time>
      </trkpt>
      <trkpt lat="45.64163" lon="6.19321">
        <ele>897.478027</ele>
        <time>2011-09-11T10:05:37Z</time>
      </trkpt>
      <trkpt lat="45.64165" lon="6.19325">
        <ele>898.450012</ele>
        <time>2011-09-11T10:05:42Z</time>
      </trkpt>
      <trkpt lat="45.64167" lon="6.19331">
        <ele>899.220947</ele>
        <time>2011-09-11T10:05:47Z</time>
      </trkpt>
      <trkpt lat="45.64169" lon="6.19334">
        <ele>900.12323</ele>
        <time>2011-09-11T10:05:52Z</time>
      </trkpt>
      <trkpt lat="45.6417" lon="6.19338">
        <ele>900.912842</ele>
        <time>2011-09-11T10:05:57Z</time>
      </trkpt>
      <trkpt lat="45.64172" lon="6.19341">
        <ele>902.108276</ele>
        <time>2011-09-11T10:06:02Z</time>
      </trkpt>
      <trkpt lat="45.64175" lon="6.19344">
        <ele>903.453247</ele>
        <time>2011-09-11T10:06:07Z</time>
      </trkpt>
      <trkpt lat="45.64176" lon="6.19346">
        <ele>903.923523</ele>
        <time>2011-09-11T10:06:12Z</time>
      </trkpt>
      <trkpt lat="45.64179" lon="6.1935">
        <ele>905.672058</ele>
        <time>2011-09-11T10:06:17Z</time>
      </trkpt>
      <trkpt lat="45.64182" lon="6.19355">
        <ele>906.798889</ele>
        <time>2011-09-11T10:06:22Z</time>
      </trkpt>
      <trkpt lat="45.64185" lon="6.19361">
        <ele>907.713745</ele>
        <time>2011-09-11T10:06:27Z</time>
      </trkpt>
      <trkpt lat="45.64187" lon="6.19366">
        <ele>907.941833</ele>
        <time>2011-09-11T10:06:32Z</time>
      </trkpt>
      <trkpt lat="45.64189" lon="6.19371">
        <ele>908.293701</ele>
        <time>2011-09-11T10:06:37Z</time>
      </trkpt>
      <trkpt lat="45.64192" lon="6.19375">
        <ele>908.755859</ele>
        <time>2011-09-11T10:06:42Z</time>
      </trkpt>
      <trkpt lat="45.64194" lon="6.19379">
        <ele>909.2771</ele>
        <time>2011-09-11T10:06:47Z</time>
      </trkpt>
      <trkpt lat="45.64197" lon="6.19383">
        <ele>910.103333</ele>
        <time>2011-09-11T10:06:52Z</time>
      </trkpt>
      <trkpt lat="45.64199" lon="6.19387">
        <ele>910.707214</ele>
        <time>2011-09-11T10:06:57Z</time>
      </trkpt>
      <trkpt lat="45.64201" lon="6.19391">
        <ele>911.575989</ele>
        <time>2011-09-11T10:07:02Z</time>
      </trkpt>
      <trkpt lat="45.64204" lon="6.19396">
        <ele>912.763428</ele>
        <time>2011-09-11T10:07:07Z</time>
      </trkpt>
      <trkpt lat="45.64208" lon="6.19403">
        <ele>914.365479</ele>
        <time>2011-09-11T10:07:12Z</time>
      </trkpt>
      <trkpt lat="45.64208" lon="6.19406">
        <ele>914.77594</ele>
        <time>2011-09-11T10:07:17Z</time>
      </trkpt>
      <trkpt lat="45.64209" lon="6.19407">
        <ele>915.203491</ele>
        <time>2011-09-11T10:07:22Z</time>
      </trkpt>
      <trkpt lat="45.64211" lon="6.19406">
        <ele>915.866211</ele>
        <time>2011-09-11T10:07:27Z</time>
      </trkpt>
      <trkpt lat="45.64211" lon="6.19407">
        <ele>915.907593</ele>
        <time>2011-09-11T10:07:32Z</time>
      </trkpt>
      <trkpt lat="45.64211" lon="6.19407">
        <ele>915.80896</ele>
        <time>2011-09-11T10:07:37Z</time>
      </trkpt>
      <trkpt lat="45.6421" lon="6.19406">
        <ele>915.490112</ele>
        <time>2011-09-11T10:07:42Z</time>
      </trkpt>
      <trkpt lat="45.6421" lon="6.19406">
        <ele>915.285461</ele>
        <time>2011-09-11T10:07:47Z</time>
      </trkpt>
      <trkpt lat="45.64209" lon="6.19406">
        <ele>915.178894</ele>
        <time>2011-09-11T10:07:52Z</time>
      </trkpt>
      <trkpt lat="45.64209" lon="6.19405">
        <ele>914.845886</ele>
        <time>2011-09-11T10:07:57Z</time>
      </trkpt>
      <trkpt lat="45.64208" lon="6.19405">
        <ele>914.678101</ele>
        <time>2011-09-11T10:08:02Z</time>
      </trkpt>
      <trkpt lat="45.64208" lon="6.19405">
        <ele>914.689575</ele>
        <time>2011-09-11T10:08:07Z</time>
      </trkpt>
      <trkpt lat="45.64209" lon="6.19405">
        <ele>914.869507</ele>
        <time>2011-09-11T10:08:12Z</time>
      </trkpt>
      <trkpt lat="45.64209" lon="6.19407">
        <ele>915.010071</ele>
        <time>2011-09-11T10:08:17Z</time>
      </trkpt>
      <trkpt lat="45.64212" lon="6.19408">
        <ele>916.158508</ele>
        <time>2011-09-11T10:08:22Z</time>
      </trkpt>
      <trkpt lat="45.64217" lon="6.19407">
        <ele>917.853394</ele>
        <time>2011-09-11T10:08:27Z</time>
      </trkpt>
      <trkpt lat="45.64222" lon="6.19407">
        <ele>919.591797</ele>
        <time>2011-09-11T10:08:32Z</time>
      </trkpt>
      <trkpt lat="45.64224" lon="6.19407">
        <ele>920.294983</ele>
        <time>2011-09-11T10:08:37Z</time>
      </trkpt>
      <trkpt lat="45.64225" lon="6.19407">
        <ele>920.514771</ele>
        <time>2011-09-11T10:08:42Z</time>
      </trkpt>
      <trkpt lat="45.64228" lon="6.19408">
        <ele>921.606873</ele>
        <time>2011-09-11T10:08:47Z</time>
      </trkpt>
      <trkpt lat="45.64232" lon="6.19413">
        <ele>923.037415</ele>
        <time>2011-09-11T10:08:52Z</time>
      </trkpt>
      <trkpt lat="45.64235" lon="6.19417">
        <ele>924.31958</ele>
        <time>2011-09-11T10:08:57Z</time>
      </trkpt>
      <trkpt lat="45.64238" lon="6.19422">
        <ele>925.532715</ele>
        <time>2011-09-11T10:09:02Z</time>
      </trkpt>
      <trkpt lat="45.64241" lon="6.19427">
        <ele>926.710938</ele>
        <time>2011-09-11T10:09:07Z</time>
      </trkpt>
      <trkpt lat="45.64245" lon="6.1943">
        <ele>927.730713</ele>
        <time>2011-09-11T10:09:12Z</time>
      </trkpt>
      <trkpt lat="45.64248" lon="6.19435">
        <ele>928.875183</ele>
        <time>2011-09-11T10:09:17Z</time>
      </trkpt>
      <trkpt lat="45.6425" lon="6.19438">
        <ele>929.661011</ele>
        <time>2011-09-11T10:09:22Z</time>
      </trkpt>
      <trkpt lat="45.64251" lon="6.19441">
        <ele>930.398804</ele>
        <time>2011-09-11T10:09:27Z</time>
      </trkpt>
      <trkpt lat="45.64254" lon="6.19444">
        <ele>931.191284</ele>
        <time>2011-09-11T10:09:32Z</time>
      </trkpt>
      <trkpt lat="45.64257" lon="6.19446">
        <ele>932.134399</ele>
        <time>2011-09-11T10:09:37Z</time>
      </trkpt>
      <trkpt lat="45.64259" lon="6.19448">
        <ele>932.679749</ele>
        <time>2011-09-11T10:09:42Z</time>
      </trkpt>
      <trkpt lat="45.64262" lon="6.19452">
        <ele>933.836853</ele>
        <time>2011-09-11T10:09:47Z</time>
      </trkpt>
      <trkpt lat="45.64267" lon="6.19454">
        <ele>934.931519</ele>
        <time>2011-09-11T10:09:52Z</time>
      </trkpt>
      <trkpt lat="45.64269" lon="6.19458">
        <ele>935.968811</ele>
        <time>2011-09-11T10:09:57Z</time>
      </trkpt>
      <trkpt lat="45.6427" lon="6.1946">
        <ele>936.535583</ele>
        <time>2011-09-11T10:10:02Z</time>
      </trkpt>
      <trkpt lat="45.64272" lon="6.19461">
        <ele>936.987244</ele>
        <time>2011-09-11T10:10:07Z</time>
      </trkpt>
      <trkpt lat="45.64274" lon="6.19463">
        <ele>937.712341</ele>
        <time>2011-09-11T10:10:12Z</time>
      </trkpt>
      <trkpt lat="45.64277" lon="6.19465">
        <ele>938.636292</ele>
        <time>2011-09-11T10:10:17Z</time>
      </trkpt>
      <trkpt lat="45.6428" lon="6.19466">
        <ele>939.493774</ele>
        <time>2011-09-11T10:10:22Z</time>
      </trkpt>
      <trkpt lat="45.64285" lon="6.19466">
        <ele>940.499512</ele>
        <time>2011-09-11T10:10:27Z</time>
      </trkpt>
      <trkpt lat="45.64288" lon="6.19466">
        <ele>941.334778</ele>
        <time>2011-09-11T10:10:32Z</time>
      </trkpt>
      <trkpt lat="45.64291" lon="6.19466">
        <ele>941.933777</ele>
        <time>2011-09-11T10:10:37Z</time>
      </trkpt>
      <trkpt lat="45.64294" lon="6.19467">
        <ele>942.713989</ele>
        <time>2011-09-11T10:10:42Z</time>
      </trkpt>
      <trkpt lat="45.64296" lon="6.19466">
        <ele>942.929199</ele>
        <time>2011-09-11T10:10:47Z</time>
      </trkpt>
      <trkpt lat="45.64297" lon="6.19465">
        <ele>943.079346</ele>
        <time>2011-09-11T10:10:52Z</time>
      </trkpt>
      <trkpt lat="45.64299" lon="6.19465">
        <ele>943.677979</ele>
        <time>2011-09-11T10:10:57Z</time>
      </trkpt>
      <trkpt lat="45.64303" lon="6.19468">
        <ele>944.667236</ele>
        <time>2011-09-11T10:11:02Z</time>
      </trkpt>
      <trkpt lat="45.64304" lon="6.19468">
        <ele>945.128479</ele>
        <time>2011-09-11T10:11:07Z</time>
      </trkpt>
      <trkpt lat="45.64306" lon="6.19468">
        <ele>945.57312</ele>
        <time>2011-09-11T10:11:12Z</time>
      </trkpt>
      <trkpt lat="45.64311" lon="6.19471">
        <ele>946.757874</ele>
        <time>2011-09-11T10:11:17Z</time>
      </trkpt>
      <trkpt lat="45.64314" lon="6.19472">
        <ele>947.58136</ele>
        <time>2011-09-11T10:11:22Z</time>
      </trkpt>
      <trkpt lat="45.64317" lon="6.19474">
        <ele>948.469788</ele>
        <time>2011-09-11T10:11:27Z</time>
      </trkpt>
      <trkpt lat="45.6432" lon="6.19474">
        <ele>949.208069</ele>
        <time>2011-09-11T10:11:32Z</time>
      </trkpt>
      <trkpt lat="45.64323" lon="6.19474">
        <ele>949.984924</ele>
        <time>2011-09-11T10:11:37Z</time>
      </trkpt>
      <trkpt lat="45.64325" lon="6.19472">
        <ele>950.554443</ele>
        <time>2011-09-11T10:11:42Z</time>
      </trkpt>
      <trkpt lat="45.64328" lon="6.1947">
        <ele>951.209473</ele>
        <time>2011-09-11T10:11:47Z</time>
      </trkpt>
      <trkpt lat="45.64332" lon="6.19469">
        <ele>952.106201</ele>
        <time>2011-09-11T10:11:52Z</time>
      </trkpt>
      <trkpt lat="45.64335" lon="6.1947">
        <ele>952.904846</ele>
        <time>2011-09-11T10:11:57Z</time>
      </trkpt>
      <trkpt lat="45.64336" lon="6.19474">
        <ele>953.524658</ele>
        <time>2011-09-11T10:12:02Z</time>
      </trkpt>
      <trkpt lat="45.64337" lon="6.19476">
        <ele>953.791931</ele>
        <time>2011-09-11T10:12:07Z</time>
      </trkpt>
      <trkpt lat="45.64337" lon="6.19479">
        <ele>953.968323</ele>
        <time>2011-09-11T10:12:12Z</time>
      </trkpt>
      <trkpt lat="45.64337" lon="6.19484">
        <ele>954.262146</ele>
        <time>2011-09-11T10:12:17Z</time>
      </trkpt>
      <trkpt lat="45.64338" lon="6.1949">
        <ele>954.712708</ele>
        <time>2011-09-11T10:12:22Z</time>
      </trkpt>
      <trkpt lat="45.64339" lon="6.19496">
        <ele>956.138</ele>
        <time>2011-09-11T10:12:27Z</time>
      </trkpt>
      <trkpt lat="45.6434" lon="6.19501">
        <ele>957.394653</ele>
        <time>2011-09-11T10:12:32Z</time>
      </trkpt>
      <trkpt lat="45.6434" lon="6.19506">
        <ele>958.398071</ele>
        <time>2011-09-11T10:12:37Z</time>
      </trkpt>
      <trkpt lat="45.64339" lon="6.19509">
        <ele>958.860413</ele>
        <time>2011-09-11T10:12:42Z</time>
      </trkpt>
      <trkpt lat="45.64339" lon="6.19514">
        <ele>959.896973</ele>
        <time>2011-09-11T10:12:47Z</time>
      </trkpt>
      <trkpt lat="45.64339" lon="6.19517">
        <ele>960.620911</ele>
        <time>2011-09-11T10:12:52Z</time>
      </trkpt>
      <trkpt lat="45.64339" lon="6.1952">
        <ele>961.174011</ele>
        <time>2011-09-11T10:12:57Z</time>
      </trkpt>
      <trkpt lat="45.6434" lon="6.19522">
        <ele>961.735657</ele>
        <time>2011-09-11T10:13:02Z</time>
      </trkpt>
      <trkpt lat="45.6434" lon="6.19525">
        <ele>962.385071</ele>
        <time>2011-09-11T10:13:07Z</time>
      </trkpt>
      <trkpt lat="45.6434" lon="6.19526">
        <ele>962.608765</ele>
        <time>2011-09-11T10:13:12Z</time>
      </trkpt>
      <trkpt lat="45.6434" lon="6.19526">
        <ele>962.653442</ele>
        <time>2011-09-11T10:13:17Z</time>
      </trkpt>
      <trkpt lat="45.64339" lon="6.19527">
        <ele>962.692749</ele>
        <time>2011-09-11T10:13:22Z</time>
      </trkpt>
      <trkpt lat="45.64339" lon="6.19528">
        <ele>962.835266</ele>
        <time>2011-09-11T10:13:27Z</time>
      </trkpt>
      <trkpt lat="45.64339" lon="6.19529">
        <ele>962.993652</ele>
        <time>2011-09-11T10:13:32Z</time>
      </trkpt>
      <trkpt lat="45.64339" lon="6.1953">
        <ele>963.252563</ele>
        <time>2011-09-11T10:13:37Z</time>
      </trkpt>
      <trkpt lat="45.64341" lon="6.19531">
        <ele>963.775696</ele>
        <time>2011-09-11T10:13:42Z</time>
      </trkpt>
      <trkpt lat="45.64344" lon="6.19533">
        <ele>964.744934</ele>
        <time>2011-09-11T10:13:47Z</time>
      </trkpt>
      <trkpt lat="45.64347" lon="6.19536">
        <ele>965.731995</ele>
        <time>2011-09-11T10:13:52Z</time>
      </trkpt>
      <trkpt lat="45.64349" lon="6.19536">
        <ele>966.291504</ele>
        <time>2011-09-11T10:13:57Z</time>
      </trkpt>
      <trkpt lat="45.64352" lon="6.19539">
        <ele>967.158081</ele>
        <time>2011-09-11T10:14:02Z</time>
      </trkpt>
      <trkpt lat="45.64353" lon="6.19543">
        <ele>968.153381</ele>
        <time>2011-09-11T10:14:07Z</time>
      </trkpt>
      <trkpt lat="45.64354" lon="6.19547">
        <ele>969.039124</ele>
        <time>2011-09-11T10:14:12Z</time>
      </trkpt>
      <trkpt lat="45.64354" lon="6.19551">
        <ele>969.821289</ele>
        <time>2011-09-11T10:14:17Z</time>
      </trkpt>
      <trkpt lat="45.64355" lon="6.19555">
        <ele>970.612061</ele>
        <time>2011-09-11T10:14:22Z</time>
      </trkpt>
      <trkpt lat="45.64357" lon="6.19558">
        <ele>971.617493</ele>
        <time>2011-09-11T10:14:27Z</time>
      </trkpt>
      <trkpt lat="45.64358" lon="6.1956">
        <ele>972.512512</ele>
        <time>2011-09-11T10:14:32Z</time>
      </trkpt>
      <trkpt lat="45.64357" lon="6.1956">
        <ele>972.3125</ele>
        <time>2011-09-11T10:14:37Z</time>
      </trkpt>
      <trkpt lat="45.64358" lon="6.19563">
        <ele>973.320007</ele>
        <time>2011-09-11T10:14:42Z</time>
      </trkpt>
      <trkpt lat="45.64359" lon="6.19566">
        <ele>974.442505</ele>
        <time>2011-09-11T10:14:47Z</time>
      </trkpt>
      <trkpt lat="45.6436" lon="6.19569">
        <ele>975.45752</ele>
        <time>2011-09-11T10:14:52Z</time>
      </trkpt>
      <trkpt lat="45.64362" lon="6.19571">
        <ele>976.517517</ele>
        <time>2011-09-11T10:14:57Z</time>
      </trkpt>
      <trkpt lat="45.64362" lon="6.19573">
        <ele>977.19751</ele>
        <time>2011-09-11T10:15:02Z</time>
      </trkpt>
      <trkpt lat="45.64361" lon="6.1958">
        <ele>978.902527</ele>
        <time>2011-09-11T10:15:07Z</time>
      </trkpt>
      <trkpt lat="45.64361" lon="6.19586">
        <ele>980.682495</ele>
        <time>2011-09-11T10:15:12Z</time>
      </trkpt>
      <trkpt lat="45.64359" lon="6.19591">
        <ele>981.852478</ele>
        <time>2011-09-11T10:15:17Z</time>
      </trkpt>
      <trkpt lat="45.64357" lon="6.19595">
        <ele>982.58252</ele>
        <time>2011-09-11T10:15:22Z</time>
      </trkpt>
      <trkpt lat="45.64355" lon="6.196">
        <ele>983.407654</ele>
        <time>2011-09-11T10:15:27Z</time>
      </trkpt>
      <trkpt lat="45.64354" lon="6.19603">
        <ele>984.140747</ele>
        <time>2011-09-11T10:15:32Z</time>
      </trkpt>
      <trkpt lat="45.64353" lon="6.19605">
        <ele>984.751343</ele>
        <time>2011-09-11T10:15:37Z</time>
      </trkpt>
      <trkpt lat="45.64353" lon="6.19606">
        <ele>984.897766</ele>
        <time>2011-09-11T10:15:42Z</time>
      </trkpt>
      <trkpt lat="45.6435" lon="6.19609">
        <ele>985.730042</ele>
        <time>2011-09-11T10:15:47Z</time>
      </trkpt>
      <trkpt lat="45.64348" lon="6.19612">
        <ele>986.301331</ele>
        <time>2011-09-11T10:15:52Z</time>
      </trkpt>
      <trkpt lat="45.64345" lon="6.19615">
        <ele>987.008423</ele>
        <time>2011-09-11T10:15:57Z</time>
      </trkpt>
      <trkpt lat="45.64344" lon="6.19619">
        <ele>988.049988</ele>
        <time>2011-09-11T10:16:02Z</time>
      </trkpt>
      <trkpt lat="45.64342" lon="6.19623">
        <ele>989.342346</ele>
        <time>2011-09-11T10:16:07Z</time>
      </trkpt>
      <trkpt lat="45.6434" lon="6.19626">
        <ele>990.409058</ele>
        <time>2011-09-11T10:16:12Z</time>
      </trkpt>
      <trkpt lat="45.6434" lon="6.19628">
        <ele>991.255676</ele>
        <time>2011-09-11T10:16:17Z</time>
      </trkpt>
      <trkpt lat="45.64338" lon="6.1963">
        <ele>992.009583</ele>
        <time>2011-09-11T10:16:22Z</time>
      </trkpt>
      <trkpt lat="45.64338" lon="6.1963">
        <ele>991.966003</ele>
        <time>2011-09-11T10:16:27Z</time>
      </trkpt>
      <trkpt lat="45.64336" lon="6.1963">
        <ele>991.99707</ele>
        <time>2011-09-11T10:16:32Z</time>
      </trkpt>
      <trkpt lat="45.64335" lon="6.19633">
        <ele>993.064514</ele>
        <time>2011-09-11T10:16:37Z</time>
      </trkpt>
      <trkpt lat="45.64333" lon="6.19635">
        <ele>993.756775</ele>
        <time>2011-09-11T10:16:42Z</time>
      </trkpt>
      <trkpt lat="45.6433" lon="6.1964">
        <ele>995.35437</ele>
        <time>2011-09-11T10:16:47Z</time>
      </trkpt>
      <trkpt lat="45.64328" lon="6.19644">
        <ele>997.011902</ele>
        <time>2011-09-11T10:16:52Z</time>
      </trkpt>
      <trkpt lat="45.64327" lon="6.19645">
        <ele>997.412354</ele>
        <time>2011-09-11T10:16:57Z</time>
      </trkpt>
      <trkpt lat="45.64325" lon="6.19646">
        <ele>997.6026</ele>
        <time>2011-09-11T10:17:02Z</time>
      </trkpt>
      <trkpt lat="45.64322" lon="6.19649">
        <ele>998.79895</ele>
        <time>2011-09-11T10:17:07Z</time>
      </trkpt>
      <trkpt lat="45.64319" lon="6.19652">
        <ele>999.945251</ele>
        <time>2011-09-11T10:17:12Z</time>
      </trkpt>
      <trkpt lat="45.64315" lon="6.19655">
        <ele>1000.88446</ele>
        <time>2011-09-11T10:17:17Z</time>
      </trkpt>
      <trkpt lat="45.64311" lon="6.19656">
        <ele>1000.948181</ele>
        <time>2011-09-11T10:17:22Z</time>
      </trkpt>
      <trkpt lat="45.64306" lon="6.19656">
        <ele>1000.986145</ele>
        <time>2011-09-11T10:17:27Z</time>
      </trkpt>
      <trkpt lat="45.64302" lon="6.19659">
        <ele>1002.072571</ele>
        <time>2011-09-11T10:17:32Z</time>
      </trkpt>
      <trkpt lat="45.64296" lon="6.19661">
        <ele>1002.918823</ele>
        <time>2011-09-11T10:17:37Z</time>
      </trkpt>
      <trkpt lat="45.64292" lon="6.19662">
        <ele>1003.657104</ele>
        <time>2011-09-11T10:17:42Z</time>
      </trkpt>
      <trkpt lat="45.64287" lon="6.19663">
        <ele>1004.097229</ele>
        <time>2011-09-11T10:17:47Z</time>
      </trkpt>
      <trkpt lat="45.64284" lon="6.19664">
        <ele>1004.279175</ele>
        <time>2011-09-11T10:17:52Z</time>
      </trkpt>
      <trkpt lat="45.64282" lon="6.19661">
        <ele>1003.064819</ele>
        <time>2011-09-11T10:17:57Z</time>
      </trkpt>
      <trkpt lat="45.6428" lon="6.19659">
        <ele>1002.399292</ele>
        <time>2011-09-11T10:18:02Z</time>
      </trkpt>
      <trkpt lat="45.64277" lon="6.19659">
        <ele>1002.183044</ele>
        <time>2011-09-11T10:18:07Z</time>
      </trkpt>
      <trkpt lat="45.64274" lon="6.19657">
        <ele>1001.601501</ele>
        <time>2011-09-11T10:18:12Z</time>
      </trkpt>
      <trkpt lat="45.6427" lon="6.19655">
        <ele>1000.522705</ele>
        <time>2011-09-11T10:18:17Z</time>
      </trkpt>
      <trkpt lat="45.64268" lon="6.19655">
        <ele>1000.37384</ele>
        <time>2011-09-11T10:18:22Z</time>
      </trkpt>
      <trkpt lat="45.64266" lon="6.19654">
        <ele>999.858521</ele>
        <time>2011-09-11T10:18:27Z</time>
      </trkpt>
      <trkpt lat="45.64265" lon="6.19654">
        <ele>999.907043</ele>
        <time>2011-09-11T10:18:32Z</time>
      </trkpt>
      <trkpt lat="45.64264" lon="6.19653">
        <ele>999.593018</ele>
        <time>2011-09-11T10:18:37Z</time>
      </trkpt>
      <trkpt lat="45.64264" lon="6.19653">
        <ele>999.593018</ele>
        <time>2011-09-11T10:18:42Z</time>
      </trkpt>
      <trkpt lat="45.64263" lon="6.19653">
        <ele>999.710571</ele>
        <time>2011-09-11T10:18:47Z</time>
      </trkpt>
      <trkpt lat="45.6426" lon="6.19657">
        <ele>1001.52478</ele>
        <time>2011-09-11T10:18:52Z</time>
      </trkpt>
      <trkpt lat="45.64257" lon="6.19658">
        <ele>1002.119324</ele>
        <time>2011-09-11T10:18:57Z</time>
      </trkpt>
      <trkpt lat="45.64252" lon="6.19656">
        <ele>1001.188538</ele>
        <time>2011-09-11T10:19:02Z</time>
      </trkpt>
      <trkpt lat="45.64248" lon="6.19653">
        <ele>1000.198303</ele>
        <time>2011-09-11T10:19:07Z</time>
      </trkpt>
      <trkpt lat="45.64243" lon="6.19652">
        <ele>999.45459</ele>
        <time>2011-09-11T10:19:12Z</time>
      </trkpt>
      <trkpt lat="45.64237" lon="6.19649">
        <ele>998.075928</ele>
        <time>2011-09-11T10:19:17Z</time>
      </trkpt>
      <trkpt lat="45.64231" lon="6.19646">
        <ele>996.410706</ele>
        <time>2011-09-11T10:19:22Z</time>
      </trkpt>
      <trkpt lat="45.64225" lon="6.19642">
        <ele>994.084412</ele>
        <time>2011-09-11T10:19:27Z</time>
      </trkpt>
      <trkpt lat="45.64216" lon="6.19642">
        <ele>994.563477</ele>
        <time>2011-09-11T10:19:32Z</time>
      </trkpt>
      <trkpt lat="45.6421" lon="6.19639">
        <ele>993.6026</ele>
        <time>2011-09-11T10:19:37Z</time>
      </trkpt>
      <trkpt lat="45.64204" lon="6.19638">
        <ele>994.101074</ele>
        <time>2011-09-11T10:19:42Z</time>
      </trkpt>
      <trkpt lat="45.64198" lon="6.1964">
        <ele>995.841309</ele>
        <time>2011-09-11T10:19:47Z</time>
      </trkpt>
      <trkpt lat="45.64194" lon="6.19645">
        <ele>999.560974</ele>
        <time>2011-09-11T10:19:52Z</time>
      </trkpt>
      <trkpt lat="45.64193" lon="6.19646">
        <ele>1000.580383</ele>
        <time>2011-09-11T10:19:57Z</time>
      </trkpt>
      <trkpt lat="45.64191" lon="6.19651">
        <ele>1003.582581</ele>
        <time>2011-09-11T10:20:02Z</time>
      </trkpt>
      <trkpt lat="45.6419" lon="6.19653">
        <ele>1005.159363</ele>
        <time>2011-09-11T10:20:07Z</time>
      </trkpt>
      <trkpt lat="45.64188" lon="6.19653">
        <ele>1005.770081</ele>
        <time>2011-09-11T10:20:12Z</time>
      </trkpt>
      <trkpt lat="45.64187" lon="6.19654">
        <ele>1006.235107</ele>
        <time>2011-09-11T10:20:17Z</time>
      </trkpt>
      <trkpt lat="45.64187" lon="6.19653">
        <ele>1005.902039</ele>
        <time>2011-09-11T10:20:22Z</time>
      </trkpt>
      <trkpt lat="45.64187" lon="6.19654">
        <ele>1006.235107</ele>
        <time>2011-09-11T10:20:27Z</time>
      </trkpt>
      <trkpt lat="45.64186" lon="6.19655">
        <ele>1006.840149</ele>
        <time>2011-09-11T10:20:32Z</time>
      </trkpt>
      <trkpt lat="45.64185" lon="6.19656">
        <ele>1007.630066</ele>
        <time>2011-09-11T10:20:37Z</time>
      </trkpt>
      <trkpt lat="45.64185" lon="6.19657">
        <ele>1008.645264</ele>
        <time>2011-09-11T10:20:42Z</time>
      </trkpt>
      <trkpt lat="45.64184" lon="6.19659">
        <ele>1009.561768</ele>
        <time>2011-09-11T10:20:47Z</time>
      </trkpt>
      <trkpt lat="45.64184" lon="6.19658">
        <ele>1009.164124</ele>
        <time>2011-09-11T10:20:52Z</time>
      </trkpt>
      <trkpt lat="45.64184" lon="6.19658">
        <ele>1009.398865</ele>
        <time>2011-09-11T10:20:57Z</time>
      </trkpt>
      <trkpt lat="45.64184" lon="6.1966">
        <ele>1010.406738</ele>
        <time>2011-09-11T10:21:02Z</time>
      </trkpt>
      <trkpt lat="45.64182" lon="6.1965">
        <ele>1004.625793</ele>
        <time>2011-09-11T10:23:32Z</time>
      </trkpt>
      <trkpt lat="45.64177" lon="6.19647">
        <ele>1003.192444</ele>
        <time>2011-09-11T10:23:37Z</time>
      </trkpt>
      <trkpt lat="45.64173" lon="6.19642">
        <ele>1000.934998</ele>
        <time>2011-09-11T10:23:42Z</time>
      </trkpt>
      <trkpt lat="45.64169" lon="6.1964">
        <ele>1000.284973</ele>
        <time>2011-09-11T10:23:47Z</time>
      </trkpt>
      <trkpt lat="45.64163" lon="6.19638">
        <ele>999.974976</ele>
        <time>2011-09-11T10:23:52Z</time>
      </trkpt>
      <trkpt lat="45.64158" lon="6.19633">
        <ele>998.304993</ele>
        <time>2011-09-11T10:23:57Z</time>
      </trkpt>
      <trkpt lat="45.64152" lon="6.19628">
        <ele>996.085022</ele>
        <time>2011-09-11T10:24:02Z</time>
      </trkpt>
      <trkpt lat="45.64148" lon="6.19627">
        <ele>996.10498</ele>
        <time>2011-09-11T10:24:07Z</time>
      </trkpt>
      <trkpt lat="45.64141" lon="6.19626">
        <ele>996.524963</ele>
        <time>2011-09-11T10:24:12Z</time>
      </trkpt>
      <trkpt lat="45.64135" lon="6.19624">
        <ele>996.530029</ele>
        <time>2011-09-11T10:24:17Z</time>
      </trkpt>
      <trkpt lat="45.64127" lon="6.19625">
        <ele>998.594971</ele>
        <time>2011-09-11T10:24:22Z</time>
      </trkpt>
      <trkpt lat="45.64121" lon="6.1962">
        <ele>996.390015</ele>
        <time>2011-09-11T10:24:27Z</time>
      </trkpt>
      <trkpt lat="45.64116" lon="6.19621">
        <ele>997.844971</ele>
        <time>2011-09-11T10:24:32Z</time>
      </trkpt>
      <trkpt lat="45.64111" lon="6.19617">
        <ele>996.174988</ele>
        <time>2011-09-11T10:24:37Z</time>
      </trkpt>
      <trkpt lat="45.64105" lon="6.19613">
        <ele>995.14502</ele>
        <time>2011-09-11T10:24:42Z</time>
      </trkpt>
      <trkpt lat="45.64094" lon="6.19617">
        <ele>999.660034</ele>
        <time>2011-09-11T10:24:47Z</time>
      </trkpt>
      <trkpt lat="45.64085" lon="6.19621">
        <ele>1003.605042</ele>
        <time>2011-09-11T10:24:52Z</time>
      </trkpt>
      <trkpt lat="45.64077" lon="6.19623">
        <ele>1006.498474</ele>
        <time>2011-09-11T10:24:57Z</time>
      </trkpt>
      <trkpt lat="45.6407" lon="6.19625">
        <ele>1008.790649</ele>
        <time>2011-09-11T10:25:02Z</time>
      </trkpt>
      <trkpt lat="45.64063" lon="6.19624">
        <ele>1009.182983</ele>
        <time>2011-09-11T10:25:07Z</time>
      </trkpt>
      <trkpt lat="45.64056" lon="6.19624">
        <ele>1010.79718</ele>
        <time>2011-09-11T10:25:12Z</time>
      </trkpt>
      <trkpt lat="45.6405" lon="6.19622">
        <ele>1010.78125</ele>
        <time>2011-09-11T10:25:17Z</time>
      </trkpt>
      <trkpt lat="45.64043" lon="6.19625">
        <ele>1014.106995</ele>
        <time>2011-09-11T10:25:22Z</time>
      </trkpt>
      <trkpt lat="45.64036" lon="6.19631">
        <ele>1019.573547</ele>
        <time>2011-09-11T10:25:27Z</time>
      </trkpt>
      <trkpt lat="45.64029" lon="6.19632">
        <ele>1020.92804</ele>
        <time>2011-09-11T10:25:32Z</time>
      </trkpt>
      <trkpt lat="45.64022" lon="6.19633">
        <ele>1022.846863</ele>
        <time>2011-09-11T10:25:37Z</time>
      </trkpt>
      <trkpt lat="45.64018" lon="6.19632">
        <ele>1022.330139</ele>
        <time>2011-09-11T10:25:42Z</time>
      </trkpt>
      <trkpt lat="45.64013" lon="6.19629">
        <ele>1020.874329</ele>
        <time>2011-09-11T10:25:47Z</time>
      </trkpt>
      <trkpt lat="45.64006" lon="6.1963">
        <ele>1022.82019</ele>
        <time>2011-09-11T10:25:52Z</time>
      </trkpt>
      <trkpt lat="45.64" lon="6.19631">
        <ele>1023.943176</ele>
        <time>2011-09-11T10:25:57Z</time>
      </trkpt>
      <trkpt lat="45.63999" lon="6.19629">
        <ele>1022.435486</ele>
        <time>2011-09-11T10:26:02Z</time>
      </trkpt>
      <trkpt lat="45.63998" lon="6.19625">
        <ele>1019.775452</ele>
        <time>2011-09-11T10:26:07Z</time>
      </trkpt>
      <trkpt lat="45.63999" lon="6.1962">
        <ele>1015.671265</ele>
        <time>2011-09-11T10:26:12Z</time>
      </trkpt>
      <trkpt lat="45.63998" lon="6.19619">
        <ele>1015.101563</ele>
        <time>2011-09-11T10:26:17Z</time>
      </trkpt>
      <trkpt lat="45.63997" lon="6.19617">
        <ele>1014.22644</ele>
        <time>2011-09-11T10:26:22Z</time>
      </trkpt>
      <trkpt lat="45.63995" lon="6.19617">
        <ele>1014.234314</ele>
        <time>2011-09-11T10:26:27Z</time>
      </trkpt>
      <trkpt lat="45.63994" lon="6.19615">
        <ele>1013.012573</ele>
        <time>2011-09-11T10:26:32Z</time>
      </trkpt>
      <trkpt lat="45.63992" lon="6.19616">
        <ele>1013.181702</ele>
        <time>2011-09-11T10:26:37Z</time>
      </trkpt>
      <trkpt lat="45.6399" lon="6.19617">
        <ele>1014.532166</ele>
        <time>2011-09-11T10:26:42Z</time>
      </trkpt>
      <trkpt lat="45.63987" lon="6.19621">
        <ele>1017.492004</ele>
        <time>2011-09-11T10:26:47Z</time>
      </trkpt>
      <trkpt lat="45.63984" lon="6.19624">
        <ele>1019.492798</ele>
        <time>2011-09-11T10:26:52Z</time>
      </trkpt>
      <trkpt lat="45.63981" lon="6.19627">
        <ele>1022.059937</ele>
        <time>2011-09-11T10:26:57Z</time>
      </trkpt>
      <trkpt lat="45.63978" lon="6.19633">
        <ele>1026.449951</ele>
        <time>2011-09-11T10:27:02Z</time>
      </trkpt>
      <trkpt lat="45.63974" lon="6.19638">
        <ele>1029.977051</ele>
        <time>2011-09-11T10:27:07Z</time>
      </trkpt>
      <trkpt lat="45.6397" lon="6.19638">
        <ele>1030.071045</ele>
        <time>2011-09-11T10:27:12Z</time>
      </trkpt>
      <trkpt lat="45.63965" lon="6.19639">
        <ele>1030.941895</ele>
        <time>2011-09-11T10:27:17Z</time>
      </trkpt>
      <trkpt lat="45.6396" lon="6.19639">
        <ele>1030.62915</ele>
        <time>2011-09-11T10:27:22Z</time>
      </trkpt>
      <trkpt lat="45.63957" lon="6.19637">
        <ele>1028.985718</ele>
        <time>2011-09-11T10:27:27Z</time>
      </trkpt>
      <trkpt lat="45.63953" lon="6.19637">
        <ele>1029.577881</ele>
        <time>2011-09-11T10:27:32Z</time>
      </trkpt>
      <trkpt lat="45.6395" lon="6.19639">
        <ele>1031.06189</ele>
        <time>2011-09-11T10:27:37Z</time>
      </trkpt>
      <trkpt lat="45.63944" lon="6.19642">
        <ele>1032.707031</ele>
        <time>2011-09-11T10:27:42Z</time>
      </trkpt>
      <trkpt lat="45.63941" lon="6.19643">
        <ele>1033.219604</ele>
        <time>2011-09-11T10:27:47Z</time>
      </trkpt>
      <trkpt lat="45.63937" lon="6.19643">
        <ele>1033.417358</ele>
        <time>2011-09-11T10:27:52Z</time>
      </trkpt>
      <trkpt lat="45.63933" lon="6.19643">
        <ele>1033.704346</ele>
        <time>2011-09-11T10:27:57Z</time>
      </trkpt>
      <trkpt lat="45.63928" lon="6.19646">
        <ele>1035.765747</ele>
        <time>2011-09-11T10:28:02Z</time>
      </trkpt>
      <trkpt lat="45.63924" lon="6.19649">
        <ele>1037.736694</ele>
        <time>2011-09-11T10:28:07Z</time>
      </trkpt>
      <trkpt lat="45.63921" lon="6.19648">
        <ele>1036.66272</ele>
        <time>2011-09-11T10:28:12Z</time>
      </trkpt>
      <trkpt lat="45.63918" lon="6.19648">
        <ele>1036.626953</ele>
        <time>2011-09-11T10:28:17Z</time>
      </trkpt>
      <trkpt lat="45.63915" lon="6.19649">
        <ele>1037.834595</ele>
        <time>2011-09-11T10:28:22Z</time>
      </trkpt>
      <trkpt lat="45.63914" lon="6.1965">
        <ele>1038.623169</ele>
        <time>2011-09-11T10:28:27Z</time>
      </trkpt>
      <trkpt lat="45.6391" lon="6.19648">
        <ele>1036.893188</ele>
        <time>2011-09-11T10:28:32Z</time>
      </trkpt>
      <trkpt lat="45.63905" lon="6.19649">
        <ele>1037.561646</ele>
        <time>2011-09-11T10:28:37Z</time>
      </trkpt>
      <trkpt lat="45.63901" lon="6.19651">
        <ele>1038.27124</ele>
        <time>2011-09-11T10:28:42Z</time>
      </trkpt>
      <trkpt lat="45.639" lon="6.19653">
        <ele>1039.299438</ele>
        <time>2011-09-11T10:28:47Z</time>
      </trkpt>
      <trkpt lat="45.63897" lon="6.19657">
        <ele>1039.162598</ele>
        <time>2011-09-11T10:28:52Z</time>
      </trkpt>
      <trkpt lat="45.63894" lon="6.19657">
        <ele>1038.267944</ele>
        <time>2011-09-11T10:28:57Z</time>
      </trkpt>
      <trkpt lat="45.63891" lon="6.19658">
        <ele>1037.449951</ele>
        <time>2011-09-11T10:29:02Z</time>
      </trkpt>
      <trkpt lat="45.63888" lon="6.19656">
        <ele>1036.137573</ele>
        <time>2011-09-11T10:29:07Z</time>
      </trkpt>
      <trkpt lat="45.63885" lon="6.19656">
        <ele>1035.407104</ele>
        <time>2011-09-11T10:29:12Z</time>
      </trkpt>
      <trkpt lat="45.63883" lon="6.19658">
        <ele>1035.027954</ele>
        <time>2011-09-11T10:29:17Z</time>
      </trkpt>
      <trkpt lat="45.63882" lon="6.1966">
        <ele>1034.994507</ele>
        <time>2011-09-11T10:29:22Z</time>
      </trkpt>
      <trkpt lat="45.63881" lon="6.1966">
        <ele>1034.585571</ele>
        <time>2011-09-11T10:29:27Z</time>
      </trkpt>
      <trkpt lat="45.63879" lon="6.19662">
        <ele>1034.454346</ele>
        <time>2011-09-11T10:29:32Z</time>
      </trkpt>
      <trkpt lat="45.63877" lon="6.19663">
        <ele>1033.849487</ele>
        <time>2011-09-11T10:29:37Z</time>
      </trkpt>
      <trkpt lat="45.63877" lon="6.19662">
        <ele>1033.748535</ele>
        <time>2011-09-11T10:29:42Z</time>
      </trkpt>
      <trkpt lat="45.63877" lon="6.19662">
        <ele>1033.960449</ele>
        <time>2011-09-11T10:29:47Z</time>
      </trkpt>
      <trkpt lat="45.63876" lon="6.19665">
        <ele>1034.064331</ele>
        <time>2011-09-11T10:29:52Z</time>
      </trkpt>
      <trkpt lat="45.63876" lon="6.19668">
        <ele>1034.249146</ele>
        <time>2011-09-11T10:29:57Z</time>
      </trkpt>
      <trkpt lat="45.63873" lon="6.19671">
        <ele>1033.939453</ele>
        <time>2011-09-11T10:30:02Z</time>
      </trkpt>
      <trkpt lat="45.63871" lon="6.19674">
        <ele>1033.897339</ele>
        <time>2011-09-11T10:30:07Z</time>
      </trkpt>
      <trkpt lat="45.63872" lon="6.19675">
        <ele>1034.287964</ele>
        <time>2011-09-11T10:30:12Z</time>
      </trkpt>
      <trkpt lat="45.63873" lon="6.19674">
        <ele>1034.394165</ele>
        <time>2011-09-11T10:30:17Z</time>
      </trkpt>
      <trkpt lat="45.63872" lon="6.19674">
        <ele>1034.202515</ele>
        <time>2011-09-11T10:30:22Z</time>
      </trkpt>
      <trkpt lat="45.63871" lon="6.19674">
        <ele>1033.897339</ele>
        <time>2011-09-11T10:30:27Z</time>
      </trkpt>
      <trkpt lat="45.63871" lon="6.19674">
        <ele>1033.778442</ele>
        <time>2011-09-11T10:30:32Z</time>
      </trkpt>
      <trkpt lat="45.63871" lon="6.19674">
        <ele>1033.671265</ele>
        <time>2011-09-11T10:30:37Z</time>
      </trkpt>
      <trkpt lat="45.63871" lon="6.19674">
        <ele>1033.694946</ele>
        <time>2011-09-11T10:30:42Z</time>
      </trkpt>
      <trkpt lat="45.63871" lon="6.19675">
        <ele>1033.996704</ele>
        <time>2011-09-11T10:30:47Z</time>
      </trkpt>
      <trkpt lat="45.63871" lon="6.19675">
        <ele>1033.924438</ele>
        <time>2011-09-11T10:30:52Z</time>
      </trkpt>
      <trkpt lat="45.63871" lon="6.19675">
        <ele>1033.924438</ele>
        <time>2011-09-11T10:30:57Z</time>
      </trkpt>
      <trkpt lat="45.63871" lon="6.19676">
        <ele>1034.054932</ele>
        <time>2011-09-11T10:31:02Z</time>
      </trkpt>
      <trkpt lat="45.63871" lon="6.19677">
        <ele>1034.102295</ele>
        <time>2011-09-11T10:31:07Z</time>
      </trkpt>
      <trkpt lat="45.63871" lon="6.19676">
        <ele>1034.078613</ele>
        <time>2011-09-11T10:31:12Z</time>
      </trkpt>
      <trkpt lat="45.63871" lon="6.19677">
        <ele>1034.355347</ele>
        <time>2011-09-11T10:31:17Z</time>
      </trkpt>
      <trkpt lat="45.63871" lon="6.19677">
        <ele>1034.270508</ele>
        <time>2011-09-11T10:31:22Z</time>
      </trkpt>
      <trkpt lat="45.63871" lon="6.19677">
        <ele>1034.294312</ele>
        <time>2011-09-11T10:31:27Z</time>
      </trkpt>
      <trkpt lat="45.6387" lon="6.19677">
        <ele>1034.071289</ele>
        <time>2011-09-11T10:31:32Z</time>
      </trkpt>
      <trkpt lat="45.6387" lon="6.19678">
        <ele>1033.875977</ele>
        <time>2011-09-11T10:31:37Z</time>
      </trkpt>
      <trkpt lat="45.63869" lon="6.19678">
        <ele>1033.789673</ele>
        <time>2011-09-11T10:31:42Z</time>
      </trkpt>
      <trkpt lat="45.63869" lon="6.19678">
        <ele>1033.743042</ele>
        <time>2011-09-11T10:31:47Z</time>
      </trkpt>
      <trkpt lat="45.63869" lon="6.19677">
        <ele>1033.684814</ele>
        <time>2011-09-11T10:31:52Z</time>
      </trkpt>
      <trkpt lat="45.63869" lon="6.19677">
        <ele>1033.558228</ele>
        <time>2011-09-11T10:31:57Z</time>
      </trkpt>
      <trkpt lat="45.63867" lon="6.19676">
        <ele>1032.822388</ele>
        <time>2011-09-11T10:32:02Z</time>
      </trkpt>
      <trkpt lat="45.63867" lon="6.19677">
        <ele>1032.792603</ele>
        <time>2011-09-11T10:32:07Z</time>
      </trkpt>
      <trkpt lat="45.63868" lon="6.19675">
        <ele>1032.942627</ele>
        <time>2011-09-11T10:32:12Z</time>
      </trkpt>
      <trkpt lat="45.63868" lon="6.19674">
        <ele>1032.803589</ele>
        <time>2011-09-11T10:32:17Z</time>
      </trkpt>
      <trkpt lat="45.63869" lon="6.19673">
        <ele>1033.09729</ele>
        <time>2011-09-11T10:32:22Z</time>
      </trkpt>
      <trkpt lat="45.63871" lon="6.19673">
        <ele>1033.588379</ele>
        <time>2011-09-11T10:32:27Z</time>
      </trkpt>
      <trkpt lat="45.63871" lon="6.19673">
        <ele>1033.80188</ele>
        <time>2011-09-11T10:32:32Z</time>
      </trkpt>
      <trkpt lat="45.63871" lon="6.19673">
        <ele>1033.730225</ele>
        <time>2011-09-11T10:32:37Z</time>
      </trkpt>
      <trkpt lat="45.63871" lon="6.19673">
        <ele>1033.75415</ele>
        <time>2011-09-11T10:32:42Z</time>
      </trkpt>
      <trkpt lat="45.63871" lon="6.19673">
        <ele>1033.777954</ele>
        <time>2011-09-11T10:32:47Z</time>
      </trkpt>
      <trkpt lat="45.63872" lon="6.19674">
        <ele>1034.119629</ele>
        <time>2011-09-11T10:32:52Z</time>
      </trkpt>
      <trkpt lat="45.63871" lon="6.19677">
        <ele>1034.2229</ele>
        <time>2011-09-11T10:32:57Z</time>
      </trkpt>
      <trkpt lat="45.63871" lon="6.19681">
        <ele>1034.736206</ele>
        <time>2011-09-11T10:33:02Z</time>
      </trkpt>
      <trkpt lat="45.6387" lon="6.19684">
        <ele>1035.157471</ele>
        <time>2011-09-11T10:33:07Z</time>
      </trkpt>
      <trkpt lat="45.63871" lon="6.19688">
        <ele>1035.967896</ele>
        <time>2011-09-11T10:33:12Z</time>
      </trkpt>
      <trkpt lat="45.63871" lon="6.19692">
        <ele>1036.85437</ele>
        <time>2011-09-11T10:33:17Z</time>
      </trkpt>
      <trkpt lat="45.63872" lon="6.19696">
        <ele>1037.768311</ele>
        <time>2011-09-11T10:33:22Z</time>
      </trkpt>
      <trkpt lat="45.63873" lon="6.19701">
        <ele>1038.700439</ele>
        <time>2011-09-11T10:33:27Z</time>
      </trkpt>
      <trkpt lat="45.63874" lon="6.19706">
        <ele>1040.158447</ele>
        <time>2011-09-11T10:33:32Z</time>
      </trkpt>
      <trkpt lat="45.63876" lon="6.1971">
        <ele>1041.421387</ele>
        <time>2011-09-11T10:33:37Z</time>
      </trkpt>
      <trkpt lat="45.63876" lon="6.19713">
        <ele>1042.417847</ele>
        <time>2011-09-11T10:33:42Z</time>
      </trkpt>
      <trkpt lat="45.63879" lon="6.19716">
        <ele>1042.834106</ele>
        <time>2011-09-11T10:33:47Z</time>
      </trkpt>
      <trkpt lat="45.63881" lon="6.19721">
        <ele>1041.376465</ele>
        <time>2011-09-11T10:33:52Z</time>
      </trkpt>
      <trkpt lat="45.63884" lon="6.19725">
        <ele>1040.536987</ele>
        <time>2011-09-11T10:33:57Z</time>
      </trkpt>
      <trkpt lat="45.63887" lon="6.19729">
        <ele>1040.626465</ele>
        <time>2011-09-11T10:34:02Z</time>
      </trkpt>
      <trkpt lat="45.63892" lon="6.19733">
        <ele>1040.810791</ele>
        <time>2011-09-11T10:34:07Z</time>
      </trkpt>
      <trkpt lat="45.63895" lon="6.19737">
        <ele>1040.39978</ele>
        <time>2011-09-11T10:34:12Z</time>
      </trkpt>
      <trkpt lat="45.63899" lon="6.19743">
        <ele>1039.11084</ele>
        <time>2011-09-11T10:34:17Z</time>
      </trkpt>
      <trkpt lat="45.63901" lon="6.19749">
        <ele>1037.345337</ele>
        <time>2011-09-11T10:34:22Z</time>
      </trkpt>
      <trkpt lat="45.63905" lon="6.19754">
        <ele>1036.463135</ele>
        <time>2011-09-11T10:34:27Z</time>
      </trkpt>
      <trkpt lat="45.63907" lon="6.19759">
        <ele>1035.237793</ele>
        <time>2011-09-11T10:34:32Z</time>
      </trkpt>
      <trkpt lat="45.6391" lon="6.19763">
        <ele>1034.293945</ele>
        <time>2011-09-11T10:34:37Z</time>
      </trkpt>
      <trkpt lat="45.63914" lon="6.19765">
        <ele>1035.025146</ele>
        <time>2011-09-11T10:34:42Z</time>
      </trkpt>
      <trkpt lat="45.63918" lon="6.19767">
        <ele>1035.561035</ele>
        <time>2011-09-11T10:34:47Z</time>
      </trkpt>
      <trkpt lat="45.63921" lon="6.19769">
        <ele>1036.134033</ele>
        <time>2011-09-11T10:34:52Z</time>
      </trkpt>
      <trkpt lat="45.63924" lon="6.1977">
        <ele>1036.355713</ele>
        <time>2011-09-11T10:34:57Z</time>
      </trkpt>
      <trkpt lat="45.63928" lon="6.19776">
        <ele>1035.467529</ele>
        <time>2011-09-11T10:35:02Z</time>
      </trkpt>
      <trkpt lat="45.63932" lon="6.19782">
        <ele>1034.256104</ele>
        <time>2011-09-11T10:35:07Z</time>
      </trkpt>
      <trkpt lat="45.63936" lon="6.19787">
        <ele>1032.889404</ele>
        <time>2011-09-11T10:35:12Z</time>
      </trkpt>
      <trkpt lat="45.63941" lon="6.19791">
        <ele>1032.3479</ele>
        <time>2011-09-11T10:35:17Z</time>
      </trkpt>
      <trkpt lat="45.63944" lon="6.19796">
        <ele>1031.390503</ele>
        <time>2011-09-11T10:35:22Z</time>
      </trkpt>
      <trkpt lat="45.63949" lon="6.19802">
        <ele>1030.304077</ele>
        <time>2011-09-11T10:35:27Z</time>
      </trkpt>
      <trkpt lat="45.63952" lon="6.19807">
        <ele>1029.895508</ele>
        <time>2011-09-11T10:35:32Z</time>
      </trkpt>
      <trkpt lat="45.63955" lon="6.1981">
        <ele>1029.735962</ele>
        <time>2011-09-11T10:35:37Z</time>
      </trkpt>
      <trkpt lat="45.63957" lon="6.19813">
        <ele>1029.677979</ele>
        <time>2011-09-11T10:35:42Z</time>
      </trkpt>
      <trkpt lat="45.63957" lon="6.19818">
        <ele>1026.791016</ele>
        <time>2011-09-11T10:35:47Z</time>
      </trkpt>
      <trkpt lat="45.63955" lon="6.19822">
        <ele>1023.878845</ele>
        <time>2011-09-11T10:35:52Z</time>
      </trkpt>
      <trkpt lat="45.63959" lon="6.19826">
        <ele>1023.899109</ele>
        <time>2011-09-11T10:35:57Z</time>
      </trkpt>
      <trkpt lat="45.63961" lon="6.1983">
        <ele>1022.922546</ele>
        <time>2011-09-11T10:36:02Z</time>
      </trkpt>
      <trkpt lat="45.63961" lon="6.19834">
        <ele>1021.030518</ele>
        <time>2011-09-11T10:36:07Z</time>
      </trkpt>
      <trkpt lat="45.6396" lon="6.19836">
        <ele>1019.502686</ele>
        <time>2011-09-11T10:36:12Z</time>
      </trkpt>
      <trkpt lat="45.6396" lon="6.19839">
        <ele>1017.757141</ele>
        <time>2011-09-11T10:36:17Z</time>
      </trkpt>
      <trkpt lat="45.63963" lon="6.19842">
        <ele>1018.817078</ele>
        <time>2011-09-11T10:36:22Z</time>
      </trkpt>
      <trkpt lat="45.63965" lon="6.19842">
        <ele>1019.736816</ele>
        <time>2011-09-11T10:36:27Z</time>
      </trkpt>
      <trkpt lat="45.63966" lon="6.19846">
        <ele>1018.713135</ele>
        <time>2011-09-11T10:36:32Z</time>
      </trkpt>
      <trkpt lat="45.6397" lon="6.19848">
        <ele>1020.300964</ele>
        <time>2011-09-11T10:36:37Z</time>
      </trkpt>
      <trkpt lat="45.6397" lon="6.19855">
        <ele>1017.433655</ele>
        <time>2011-09-11T10:36:42Z</time>
      </trkpt>
      <trkpt lat="45.6397" lon="6.19862">
        <ele>1015.023682</ele>
        <time>2011-09-11T10:36:47Z</time>
      </trkpt>
      <trkpt lat="45.63974" lon="6.19866">
        <ele>1016.530212</ele>
        <time>2011-09-11T10:36:52Z</time>
      </trkpt>
      <trkpt lat="45.63976" lon="6.19873">
        <ele>1015.236694</ele>
        <time>2011-09-11T10:36:57Z</time>
      </trkpt>
      <trkpt lat="45.63978" lon="6.19881">
        <ele>1013.937744</ele>
        <time>2011-09-11T10:37:02Z</time>
      </trkpt>
      <trkpt lat="45.6398" lon="6.19889">
        <ele>1013.247314</ele>
        <time>2011-09-11T10:37:07Z</time>
      </trkpt>
      <trkpt lat="45.63982" lon="6.19895">
        <ele>1012.596619</ele>
        <time>2011-09-11T10:37:12Z</time>
      </trkpt>
      <trkpt lat="45.63982" lon="6.19903">
        <ele>1010.196045</ele>
        <time>2011-09-11T10:37:17Z</time>
      </trkpt>
      <trkpt lat="45.63986" lon="6.19909">
        <ele>1011.474792</ele>
        <time>2011-09-11T10:37:22Z</time>
      </trkpt>
      <trkpt lat="45.6399" lon="6.19917">
        <ele>1012.416809</ele>
        <time>2011-09-11T10:37:27Z</time>
      </trkpt>
      <trkpt lat="45.63994" lon="6.19926">
        <ele>1013.443787</ele>
        <time>2011-09-11T10:37:32Z</time>
      </trkpt>
      <trkpt lat="45.63998" lon="6.19933">
        <ele>1015.113281</ele>
        <time>2011-09-11T10:37:37Z</time>
      </trkpt>
      <trkpt lat="45.6401" lon="6.19945">
        <ele>1021.581787</ele>
        <time>2011-09-11T10:37:42Z</time>
      </trkpt>
      <trkpt lat="45.64016" lon="6.19953">
        <ele>1024.439941</ele>
        <time>2011-09-11T10:37:47Z</time>
      </trkpt>
      <trkpt lat="45.64021" lon="6.19959">
        <ele>1026.547852</ele>
        <time>2011-09-11T10:37:52Z</time>
      </trkpt>
      <trkpt lat="45.64023" lon="6.19964">
        <ele>1026.446045</ele>
        <time>2011-09-11T10:37:57Z</time>
      </trkpt>
      <trkpt lat="45.64024" lon="6.19971">
        <ele>1024.978027</ele>
        <time>2011-09-11T10:38:02Z</time>
      </trkpt>
      <trkpt lat="45.64025" lon="6.19978">
        <ele>1023.824524</ele>
        <time>2011-09-11T10:38:07Z</time>
      </trkpt>
      <trkpt lat="45.64026" lon="6.19987">
        <ele>1021.983582</ele>
        <time>2011-09-11T10:38:12Z</time>
      </trkpt>
      <trkpt lat="45.64029" lon="6.19994">
        <ele>1020.99762</ele>
        <time>2011-09-11T10:38:17Z</time>
      </trkpt>
      <trkpt lat="45.64031" lon="6.20002">
        <ele>1019.662476</ele>
        <time>2011-09-11T10:38:22Z</time>
      </trkpt>
      <trkpt lat="45.64033" lon="6.20009">
        <ele>1018.38324</ele>
        <time>2011-09-11T10:38:27Z</time>
      </trkpt>
      <trkpt lat="45.64035" lon="6.20016">
        <ele>1017.460632</ele>
        <time>2011-09-11T10:38:32Z</time>
      </trkpt>
      <trkpt lat="45.64037" lon="6.20022">
        <ele>1016.625793</ele>
        <time>2011-09-11T10:38:37Z</time>
      </trkpt>
      <trkpt lat="45.64039" lon="6.20029">
        <ele>1014.892273</ele>
        <time>2011-09-11T10:38:42Z</time>
      </trkpt>
      <trkpt lat="45.64043" lon="6.20035">
        <ele>1014.967407</ele>
        <time>2011-09-11T10:38:47Z</time>
      </trkpt>
      <trkpt lat="45.64046" lon="6.20043">
        <ele>1014.32489</ele>
        <time>2011-09-11T10:38:52Z</time>
      </trkpt>
      <trkpt lat="45.6405" lon="6.20051">
        <ele>1013.204895</ele>
        <time>2011-09-11T10:38:57Z</time>
      </trkpt>
      <trkpt lat="45.64054" lon="6.20058">
        <ele>1013.867981</ele>
        <time>2011-09-11T10:39:02Z</time>
      </trkpt>
      <trkpt lat="45.64056" lon="6.20065">
        <ele>1012.485229</ele>
        <time>2011-09-11T10:39:07Z</time>
      </trkpt>
      <trkpt lat="45.64057" lon="6.20072">
        <ele>1010.818298</ele>
        <time>2011-09-11T10:39:12Z</time>
      </trkpt>
      <trkpt lat="45.64058" lon="6.20078">
        <ele>1009.530823</ele>
        <time>2011-09-11T10:39:17Z</time>
      </trkpt>
      <trkpt lat="45.64057" lon="6.20083">
        <ele>1007.215027</ele>
        <time>2011-09-11T10:39:22Z</time>
      </trkpt>
      <trkpt lat="45.64058" lon="6.20085">
        <ele>1006.667603</ele>
        <time>2011-09-11T10:39:27Z</time>
      </trkpt>
      <trkpt lat="45.64059" lon="6.20088">
        <ele>1006.733521</ele>
        <time>2011-09-11T10:39:32Z</time>
      </trkpt>
      <trkpt lat="45.64062" lon="6.20092">
        <ele>1007.212524</ele>
        <time>2011-09-11T10:39:37Z</time>
      </trkpt>
      <trkpt lat="45.64066" lon="6.20099">
        <ele>1007.185974</ele>
        <time>2011-09-11T10:39:42Z</time>
      </trkpt>
      <trkpt lat="45.64069" lon="6.20108">
        <ele>1006.515076</ele>
        <time>2011-09-11T10:39:47Z</time>
      </trkpt>
      <trkpt lat="45.64072" lon="6.20112">
        <ele>1006.819153</ele>
        <time>2011-09-11T10:39:52Z</time>
      </trkpt>
      <trkpt lat="45.64076" lon="6.20119">
        <ele>1006.505005</ele>
        <time>2011-09-11T10:39:57Z</time>
      </trkpt>
      <trkpt lat="45.64078" lon="6.20123">
        <ele>1006.433594</ele>
        <time>2011-09-11T10:40:02Z</time>
      </trkpt>
      <trkpt lat="45.64078" lon="6.20127">
        <ele>1005.071899</ele>
        <time>2011-09-11T10:40:07Z</time>
      </trkpt>
      <trkpt lat="45.64081" lon="6.20133">
        <ele>1004.636719</ele>
        <time>2011-09-11T10:40:12Z</time>
      </trkpt>
      <trkpt lat="45.64084" lon="6.20143">
        <ele>1002.733398</ele>
        <time>2011-09-11T10:40:17Z</time>
      </trkpt>
      <trkpt lat="45.64086" lon="6.2015">
        <ele>1001.363892</ele>
        <time>2011-09-11T10:40:22Z</time>
      </trkpt>
      <trkpt lat="45.64087" lon="6.20155">
        <ele>1000.030518</ele>
        <time>2011-09-11T10:40:27Z</time>
      </trkpt>
      <trkpt lat="45.6409" lon="6.2016">
        <ele>1000.203003</ele>
        <time>2011-09-11T10:40:32Z</time>
      </trkpt>
      <trkpt lat="45.6409" lon="6.20166">
        <ele>998.645203</ele>
        <time>2011-09-11T10:40:37Z</time>
      </trkpt>
      <trkpt lat="45.64093" lon="6.20171">
        <ele>998.382141</ele>
        <time>2011-09-11T10:40:42Z</time>
      </trkpt>
      <trkpt lat="45.64097" lon="6.20175">
        <ele>998.831543</ele>
        <time>2011-09-11T10:40:47Z</time>
      </trkpt>
      <trkpt lat="45.64097" lon="6.2018">
        <ele>997.456421</ele>
        <time>2011-09-11T10:40:52Z</time>
      </trkpt>
      <trkpt lat="45.64101" lon="6.20186">
        <ele>997.865234</ele>
        <time>2011-09-11T10:40:57Z</time>
      </trkpt>
      <trkpt lat="45.64102" lon="6.2019">
        <ele>997.417847</ele>
        <time>2011-09-11T10:41:02Z</time>
      </trkpt>
      <trkpt lat="45.64101" lon="6.20194">
        <ele>995.43811</ele>
        <time>2011-09-11T10:41:07Z</time>
      </trkpt>
      <trkpt lat="45.64101" lon="6.20199">
        <ele>993.703796</ele>
        <time>2011-09-11T10:41:12Z</time>
      </trkpt>
      <trkpt lat="45.64102" lon="6.20206">
        <ele>992.117737</ele>
        <time>2011-09-11T10:41:17Z</time>
      </trkpt>
      <trkpt lat="45.64104" lon="6.20213">
        <ele>991.070923</ele>
        <time>2011-09-11T10:41:22Z</time>
      </trkpt>
      <trkpt lat="45.64106" lon="6.2022">
        <ele>990.294006</ele>
        <time>2011-09-11T10:41:27Z</time>
      </trkpt>
      <trkpt lat="45.6411" lon="6.20227">
        <ele>990.64978</ele>
        <time>2011-09-11T10:41:32Z</time>
      </trkpt>
      <trkpt lat="45.64112" lon="6.20232">
        <ele>990.177246</ele>
        <time>2011-09-11T10:41:37Z</time>
      </trkpt>
      <trkpt lat="45.64113" lon="6.2024">
        <ele>988.202209</ele>
        <time>2011-09-11T10:41:42Z</time>
      </trkpt>
      <trkpt lat="45.64113" lon="6.20248">
        <ele>986.07959</ele>
        <time>2011-09-11T10:41:47Z</time>
      </trkpt>
      <trkpt lat="45.64116" lon="6.20255">
        <ele>985.567078</ele>
        <time>2011-09-11T10:41:52Z</time>
      </trkpt>
      <trkpt lat="45.64117" lon="6.20259">
        <ele>985.060547</ele>
        <time>2011-09-11T10:41:57Z</time>
      </trkpt>
      <trkpt lat="45.64119" lon="6.20268">
        <ele>984.04718</ele>
        <time>2011-09-11T10:42:02Z</time>
      </trkpt>
      <trkpt lat="45.64118" lon="6.20276">
        <ele>981.383972</ele>
        <time>2011-09-11T10:42:07Z</time>
      </trkpt>
      <trkpt lat="45.6412" lon="6.20283">
        <ele>980.228333</ele>
        <time>2011-09-11T10:42:12Z</time>
      </trkpt>
      <trkpt lat="45.64121" lon="6.20292">
        <ele>978.585632</ele>
        <time>2011-09-11T10:42:17Z</time>
      </trkpt>
      <trkpt lat="45.64121" lon="6.203">
        <ele>976.069885</ele>
        <time>2011-09-11T10:42:22Z</time>
      </trkpt>
      <trkpt lat="45.64118" lon="6.20305">
        <ele>973.390503</ele>
        <time>2011-09-11T10:42:27Z</time>
      </trkpt>
      <trkpt lat="45.64117" lon="6.2031">
        <ele>971.135559</ele>
        <time>2011-09-11T10:42:32Z</time>
      </trkpt>
      <trkpt lat="45.64116" lon="6.20317">
        <ele>968.913452</ele>
        <time>2011-09-11T10:42:37Z</time>
      </trkpt>
      <trkpt lat="45.64115" lon="6.20325">
        <ele>966.085876</ele>
        <time>2011-09-11T10:42:42Z</time>
      </trkpt>
      <trkpt lat="45.64116" lon="6.20331">
        <ele>965.303589</ele>
        <time>2011-09-11T10:42:47Z</time>
      </trkpt>
      <trkpt lat="45.64118" lon="6.20336">
        <ele>964.96936</ele>
        <time>2011-09-11T10:42:52Z</time>
      </trkpt>
      <trkpt lat="45.64124" lon="6.20344">
        <ele>965.953125</ele>
        <time>2011-09-11T10:42:57Z</time>
      </trkpt>
      <trkpt lat="45.64128" lon="6.20354">
        <ele>966.043396</ele>
        <time>2011-09-11T10:43:02Z</time>
      </trkpt>
      <trkpt lat="45.64131" lon="6.20361">
        <ele>966.312927</ele>
        <time>2011-09-11T10:43:07Z</time>
      </trkpt>
      <trkpt lat="45.64133" lon="6.20368">
        <ele>965.429321</ele>
        <time>2011-09-11T10:43:12Z</time>
      </trkpt>
      <trkpt lat="45.64137" lon="6.20375">
        <ele>966.070313</ele>
        <time>2011-09-11T10:43:17Z</time>
      </trkpt>
      <trkpt lat="45.6414" lon="6.20382">
        <ele>966.681274</ele>
        <time>2011-09-11T10:43:22Z</time>
      </trkpt>
      <trkpt lat="45.64145" lon="6.20388">
        <ele>967.982483</ele>
        <time>2011-09-11T10:43:27Z</time>
      </trkpt>
      <trkpt lat="45.64147" lon="6.20392">
        <ele>968.732483</ele>
        <time>2011-09-11T10:43:32Z</time>
      </trkpt>
      <trkpt lat="45.6415" lon="6.20397">
        <ele>969.273682</ele>
        <time>2011-09-11T10:43:37Z</time>
      </trkpt>
      <trkpt lat="45.64152" lon="6.20404">
        <ele>969.442871</ele>
        <time>2011-09-11T10:43:42Z</time>
      </trkpt>
      <trkpt lat="45.64153" lon="6.20411">
        <ele>968.870361</ele>
        <time>2011-09-11T10:43:47Z</time>
      </trkpt>
      <trkpt lat="45.64153" lon="6.20418">
        <ele>967.530945</ele>
        <time>2011-09-11T10:43:52Z</time>
      </trkpt>
      <trkpt lat="45.64156" lon="6.20428">
        <ele>967.353088</ele>
        <time>2011-09-11T10:43:57Z</time>
      </trkpt>
      <trkpt lat="45.64156" lon="6.20435">
        <ele>966.116455</ele>
        <time>2011-09-11T10:44:02Z</time>
      </trkpt>
      <trkpt lat="45.64156" lon="6.20442">
        <ele>964.452576</ele>
        <time>2011-09-11T10:44:07Z</time>
      </trkpt>
      <trkpt lat="45.64158" lon="6.20452">
        <ele>964.345825</ele>
        <time>2011-09-11T10:44:12Z</time>
      </trkpt>
      <trkpt lat="45.64161" lon="6.20459">
        <ele>965.259705</ele>
        <time>2011-09-11T10:44:17Z</time>
      </trkpt>
      <trkpt lat="45.64164" lon="6.20468">
        <ele>965.830627</ele>
        <time>2011-09-11T10:44:22Z</time>
      </trkpt>
      <trkpt lat="45.64166" lon="6.20475">
        <ele>965.487488</ele>
        <time>2011-09-11T10:44:27Z</time>
      </trkpt>
      <trkpt lat="45.64168" lon="6.20481">
        <ele>966.0672</ele>
        <time>2011-09-11T10:44:32Z</time>
      </trkpt>
      <trkpt lat="45.64167" lon="6.20489">
        <ele>964.347534</ele>
        <time>2011-09-11T10:44:37Z</time>
      </trkpt>
      <trkpt lat="45.64169" lon="6.20497">
        <ele>964.488647</ele>
        <time>2011-09-11T10:44:42Z</time>
      </trkpt>
      <trkpt lat="45.64169" lon="6.20506">
        <ele>963.048889</ele>
        <time>2011-09-11T10:44:47Z</time>
      </trkpt>
      <trkpt lat="45.6417" lon="6.20513">
        <ele>961.958252</ele>
        <time>2011-09-11T10:44:52Z</time>
      </trkpt>
      <trkpt lat="45.64172" lon="6.20521">
        <ele>962.156982</ele>
        <time>2011-09-11T10:44:57Z</time>
      </trkpt>
      <trkpt lat="45.64173" lon="6.2053">
        <ele>961.704468</ele>
        <time>2011-09-11T10:45:02Z</time>
      </trkpt>
      <trkpt lat="45.64173" lon="6.20535">
        <ele>960.864746</ele>
        <time>2011-09-11T10:45:07Z</time>
      </trkpt>
      <trkpt lat="45.64175" lon="6.20543">
        <ele>960.932922</ele>
        <time>2011-09-11T10:45:12Z</time>
      </trkpt>
      <trkpt lat="45.64179" lon="6.20548">
        <ele>962.884399</ele>
        <time>2011-09-11T10:45:17Z</time>
      </trkpt>
      <trkpt lat="45.64177" lon="6.20552">
        <ele>961.095093</ele>
        <time>2011-09-11T10:45:22Z</time>
      </trkpt>
      <trkpt lat="45.64175" lon="6.20557">
        <ele>958.805359</ele>
        <time>2011-09-11T10:45:27Z</time>
      </trkpt>
      <trkpt lat="45.64177" lon="6.20564">
        <ele>958.504883</ele>
        <time>2011-09-11T10:45:32Z</time>
      </trkpt>
      <trkpt lat="45.64179" lon="6.20572">
        <ele>958.794128</ele>
        <time>2011-09-11T10:45:37Z</time>
      </trkpt>
      <trkpt lat="45.64178" lon="6.20579">
        <ele>956.737366</ele>
        <time>2011-09-11T10:45:42Z</time>
      </trkpt>
      <trkpt lat="45.64179" lon="6.20584">
        <ele>956.580322</ele>
        <time>2011-09-11T10:45:47Z</time>
      </trkpt>
      <trkpt lat="45.64179" lon="6.20592">
        <ele>955.362793</ele>
        <time>2011-09-11T10:45:52Z</time>
      </trkpt>
      <trkpt lat="45.6418" lon="6.206">
        <ele>954.59314</ele>
        <time>2011-09-11T10:45:57Z</time>
      </trkpt>
      <trkpt lat="45.64179" lon="6.20607">
        <ele>952.32019</ele>
        <time>2011-09-11T10:46:02Z</time>
      </trkpt>
      <trkpt lat="45.64185" lon="6.20616">
        <ele>955.010742</ele>
        <time>2011-09-11T10:46:07Z</time>
      </trkpt>
      <trkpt lat="45.64192" lon="6.20625">
        <ele>958.666931</ele>
        <time>2011-09-11T10:46:12Z</time>
      </trkpt>
      <trkpt lat="45.64199" lon="6.20632">
        <ele>962.703491</ele>
        <time>2011-09-11T10:46:17Z</time>
      </trkpt>
      <trkpt lat="45.64204" lon="6.2064">
        <ele>964.949402</ele>
        <time>2011-09-11T10:46:22Z</time>
      </trkpt>
      <trkpt lat="45.64211" lon="6.20649">
        <ele>967.475586</ele>
        <time>2011-09-11T10:46:27Z</time>
      </trkpt>
      <trkpt lat="45.64218" lon="6.20655">
        <ele>971.604431</ele>
        <time>2011-09-11T10:46:32Z</time>
      </trkpt>
      <trkpt lat="45.64225" lon="6.20662">
        <ele>975.163818</ele>
        <time>2011-09-11T10:46:37Z</time>
      </trkpt>
      <trkpt lat="45.64237" lon="6.20668">
        <ele>982.342834</ele>
        <time>2011-09-11T10:46:42Z</time>
      </trkpt>
      <trkpt lat="45.64243" lon="6.20675">
        <ele>985.415405</ele>
        <time>2011-09-11T10:46:47Z</time>
      </trkpt>
      <trkpt lat="45.6425" lon="6.20682">
        <ele>988.245239</ele>
        <time>2011-09-11T10:46:52Z</time>
      </trkpt>
      <trkpt lat="45.64259" lon="6.2069">
        <ele>992.948425</ele>
        <time>2011-09-11T10:46:57Z</time>
      </trkpt>
      <trkpt lat="45.64267" lon="6.20701">
        <ele>995.618835</ele>
        <time>2011-09-11T10:47:02Z</time>
      </trkpt>
      <trkpt lat="45.64274" lon="6.20708">
        <ele>998.252502</ele>
        <time>2011-09-11T10:47:07Z</time>
      </trkpt>
      <trkpt lat="45.64277" lon="6.20716">
        <ele>998.161255</ele>
        <time>2011-09-11T10:47:12Z</time>
      </trkpt>
      <trkpt lat="45.64284" lon="6.20721">
        <ele>1002.02124</ele>
        <time>2011-09-11T10:47:17Z</time>
      </trkpt>
      <trkpt lat="45.64287" lon="6.20729">
        <ele>1002.034973</ele>
        <time>2011-09-11T10:47:22Z</time>
      </trkpt>
      <trkpt lat="45.64294" lon="6.20736">
        <ele>1004.472534</ele>
        <time>2011-09-11T10:47:27Z</time>
      </trkpt>
      <trkpt lat="45.64298" lon="6.20743">
        <ele>1005.571228</ele>
        <time>2011-09-11T10:47:32Z</time>
      </trkpt>
      <trkpt lat="45.64303" lon="6.2075">
        <ele>1007.125</ele>
        <time>2011-09-11T10:47:37Z</time>
      </trkpt>
      <trkpt lat="45.64306" lon="6.20758">
        <ele>1006.716248</ele>
        <time>2011-09-11T10:47:42Z</time>
      </trkpt>
      <trkpt lat="45.64303" lon="6.20767">
        <ele>1001.589966</ele>
        <time>2011-09-11T10:47:47Z</time>
      </trkpt>
      <trkpt lat="45.64297" lon="6.20777">
        <ele>994.687988</ele>
        <time>2011-09-11T10:47:52Z</time>
      </trkpt>
      <trkpt lat="45.64295" lon="6.20785">
        <ele>991.192871</ele>
        <time>2011-09-11T10:47:57Z</time>
      </trkpt>
      <trkpt lat="45.64294" lon="6.20793">
        <ele>988.736755</ele>
        <time>2011-09-11T10:48:02Z</time>
      </trkpt>
      <trkpt lat="45.64294" lon="6.208">
        <ele>987.080017</ele>
        <time>2011-09-11T10:48:07Z</time>
      </trkpt>
      <trkpt lat="45.64293" lon="6.20807">
        <ele>985.000793</ele>
        <time>2011-09-11T10:48:12Z</time>
      </trkpt>
      <trkpt lat="45.64287" lon="6.20814">
        <ele>979.49115</ele>
        <time>2011-09-11T10:48:17Z</time>
      </trkpt>
      <trkpt lat="45.64282" lon="6.2082">
        <ele>974.425903</ele>
        <time>2011-09-11T10:48:22Z</time>
      </trkpt>
      <trkpt lat="45.64283" lon="6.20825">
        <ele>973.854919</ele>
        <time>2011-09-11T10:48:27Z</time>
      </trkpt>
      <trkpt lat="45.64278" lon="6.20833">
        <ele>969.227234</ele>
        <time>2011-09-11T10:48:32Z</time>
      </trkpt>
      <trkpt lat="45.64277" lon="6.20839">
        <ele>966.615967</ele>
        <time>2011-09-11T10:48:37Z</time>
      </trkpt>
      <trkpt lat="45.6428" lon="6.20845">
        <ele>967.819275</ele>
        <time>2011-09-11T10:48:42Z</time>
      </trkpt>
      <trkpt lat="45.64282" lon="6.20851">
        <ele>967.938782</ele>
        <time>2011-09-11T10:48:47Z</time>
      </trkpt>
      <trkpt lat="45.64285" lon="6.20857">
        <ele>968.507874</ele>
        <time>2011-09-11T10:48:52Z</time>
      </trkpt>
      <trkpt lat="45.64281" lon="6.20864">
        <ele>964.342957</ele>
        <time>2011-09-11T10:48:57Z</time>
      </trkpt>
      <trkpt lat="45.64285" lon="6.20866">
        <ele>966.943848</ele>
        <time>2011-09-11T10:49:02Z</time>
      </trkpt>
      <trkpt lat="45.64281" lon="6.20872">
        <ele>962.544861</ele>
        <time>2011-09-11T10:49:07Z</time>
      </trkpt>
      <trkpt lat="45.64269" lon="6.20882">
        <ele>952.497375</ele>
        <time>2011-09-11T10:49:12Z</time>
      </trkpt>
      <trkpt lat="45.64267" lon="6.2089">
        <ele>949.789673</ele>
        <time>2011-09-11T10:49:17Z</time>
      </trkpt>
      <trkpt lat="45.64269" lon="6.20897">
        <ele>949.136963</ele>
        <time>2011-09-11T10:49:22Z</time>
      </trkpt>
      <trkpt lat="45.64267" lon="6.20904">
        <ele>946.223511</ele>
        <time>2011-09-11T10:49:27Z</time>
      </trkpt>
      <trkpt lat="45.64261" lon="6.20911">
        <ele>940.327515</ele>
        <time>2011-09-11T10:49:32Z</time>
      </trkpt>
      <trkpt lat="45.64259" lon="6.20916">
        <ele>937.246277</ele>
        <time>2011-09-11T10:49:37Z</time>
      </trkpt>
      <trkpt lat="45.64256" lon="6.20923">
        <ele>933.695007</ele>
        <time>2011-09-11T10:49:42Z</time>
      </trkpt>
      <trkpt lat="45.64255" lon="6.20927">
        <ele>931.411255</ele>
        <time>2011-09-11T10:49:47Z</time>
      </trkpt>
      <trkpt lat="45.6426" lon="6.20933">
        <ele>933.22998</ele>
        <time>2011-09-11T10:49:52Z</time>
      </trkpt>
      <trkpt lat="45.64257" lon="6.2094">
        <ele>929.58374</ele>
        <time>2011-09-11T10:49:57Z</time>
      </trkpt>
      <trkpt lat="45.64251" lon="6.20947">
        <ele>922.844971</ele>
        <time>2011-09-11T10:50:02Z</time>
      </trkpt>
      <trkpt lat="45.64245" lon="6.20953">
        <ele>917.224976</ele>
        <time>2011-09-11T10:50:07Z</time>
      </trkpt>
      <trkpt lat="45.64238" lon="6.20961">
        <ele>910.589111</ele>
        <time>2011-09-11T10:50:12Z</time>
      </trkpt>
      <trkpt lat="45.64243" lon="6.20969">
        <ele>912.15332</ele>
        <time>2011-09-11T10:50:17Z</time>
      </trkpt>
      <trkpt lat="45.64246" lon="6.20976">
        <ele>913.249756</ele>
        <time>2011-09-11T10:50:22Z</time>
      </trkpt>
      <trkpt lat="45.64246" lon="6.2098">
        <ele>912.459473</ele>
        <time>2011-09-11T10:50:27Z</time>
      </trkpt>
      <trkpt lat="45.64245" lon="6.20987">
        <ele>910.275269</ele>
        <time>2011-09-11T10:50:32Z</time>
      </trkpt>
      <trkpt lat="45.64249" lon="6.20993">
        <ele>911.685364</ele>
        <time>2011-09-11T10:50:37Z</time>
      </trkpt>
      <trkpt lat="45.64248" lon="6.20999">
        <ele>909.874817</ele>
        <time>2011-09-11T10:50:42Z</time>
      </trkpt>
      <trkpt lat="45.64254" lon="6.21001">
        <ele>913.156494</ele>
        <time>2011-09-11T10:50:47Z</time>
      </trkpt>
      <trkpt lat="45.64252" lon="6.21009">
        <ele>910.059875</ele>
        <time>2011-09-11T10:50:52Z</time>
      </trkpt>
      <trkpt lat="45.64252" lon="6.21016">
        <ele>908.592468</ele>
        <time>2011-09-11T10:50:57Z</time>
      </trkpt>
      <trkpt lat="45.64252" lon="6.21024">
        <ele>906.989502</ele>
        <time>2011-09-11T10:51:02Z</time>
      </trkpt>
      <trkpt lat="45.6425" lon="6.21031">
        <ele>904.922974</ele>
        <time>2011-09-11T10:51:07Z</time>
      </trkpt>
      <trkpt lat="45.64251" lon="6.21036">
        <ele>905.353027</ele>
        <time>2011-09-11T10:51:12Z</time>
      </trkpt>
      <trkpt lat="45.64251" lon="6.21041">
        <ele>904.781189</ele>
        <time>2011-09-11T10:51:17Z</time>
      </trkpt>
      <trkpt lat="45.64253" lon="6.21048">
        <ele>904.721313</ele>
        <time>2011-09-11T10:51:22Z</time>
      </trkpt>
      <trkpt lat="45.64257" lon="6.21055">
        <ele>906.212463</ele>
        <time>2011-09-11T10:51:27Z</time>
      </trkpt>
      <trkpt lat="45.64259" lon="6.21061">
        <ele>906.665344</ele>
        <time>2011-09-11T10:51:32Z</time>
      </trkpt>
      <trkpt lat="45.64259" lon="6.21065">
        <ele>906.074829</ele>
        <time>2011-09-11T10:51:37Z</time>
      </trkpt>
      <trkpt lat="45.64257" lon="6.21068">
        <ele>904.609558</ele>
        <time>2011-09-11T10:51:42Z</time>
      </trkpt>
      <trkpt lat="45.64256" lon="6.21072">
        <ele>903.381287</ele>
        <time>2011-09-11T10:51:47Z</time>
      </trkpt>
      <trkpt lat="45.6426" lon="6.21075">
        <ele>905.529785</ele>
        <time>2011-09-11T10:51:52Z</time>
      </trkpt>
      <trkpt lat="45.64259" lon="6.21078">
        <ele>904.224731</ele>
        <time>2011-09-11T10:51:57Z</time>
      </trkpt>
      <trkpt lat="45.64255" lon="6.21078">
        <ele>902.561707</ele>
        <time>2011-09-11T10:52:02Z</time>
      </trkpt>
      <trkpt lat="45.64253" lon="6.21077">
        <ele>901.378357</ele>
        <time>2011-09-11T10:52:07Z</time>
      </trkpt>
      <trkpt lat="45.64249" lon="6.21077">
        <ele>899.337646</ele>
        <time>2011-09-11T10:52:12Z</time>
      </trkpt>
      <trkpt lat="45.64246" lon="6.21081">
        <ele>897.298279</ele>
        <time>2011-09-11T10:52:17Z</time>
      </trkpt>
      <trkpt lat="45.64244" lon="6.21084">
        <ele>895.904663</ele>
        <time>2011-09-11T10:52:22Z</time>
      </trkpt>
      <trkpt lat="45.64243" lon="6.21086">
        <ele>894.925476</ele>
        <time>2011-09-11T10:52:27Z</time>
      </trkpt>
      <trkpt lat="45.64243" lon="6.21085">
        <ele>895.443481</ele>
        <time>2011-09-11T10:52:32Z</time>
      </trkpt>
      <trkpt lat="45.64246" lon="6.21084">
        <ele>896.819397</ele>
        <time>2011-09-11T10:52:37Z</time>
      </trkpt>
      <trkpt lat="45.64248" lon="6.21087">
        <ele>897.436707</ele>
        <time>2011-09-11T10:52:42Z</time>
      </trkpt>
      <trkpt lat="45.64248" lon="6.21091">
        <ele>897.242737</ele>
        <time>2011-09-11T10:52:47Z</time>
      </trkpt>
      <trkpt lat="45.64246" lon="6.21093">
        <ele>896.281494</ele>
        <time>2011-09-11T10:52:52Z</time>
      </trkpt>
      <trkpt lat="45.64244" lon="6.21095">
        <ele>894.770569</ele>
        <time>2011-09-11T10:52:57Z</time>
      </trkpt>
      <trkpt lat="45.6424" lon="6.21096">
        <ele>892.860229</ele>
        <time>2011-09-11T10:53:02Z</time>
      </trkpt>
      <trkpt lat="45.64236" lon="6.21096">
        <ele>891.030762</ele>
        <time>2011-09-11T10:53:07Z</time>
      </trkpt>
      <trkpt lat="45.64233" lon="6.21096">
        <ele>889.579224</ele>
        <time>2011-09-11T10:53:12Z</time>
      </trkpt>
      <trkpt lat="45.6423" lon="6.21095">
        <ele>888.022766</ele>
        <time>2011-09-11T10:53:17Z</time>
      </trkpt>
      <trkpt lat="45.64218" lon="6.21095">
        <ele>882.576355</ele>
        <time>2011-09-11T10:53:25Z</time>
      </trkpt>
      <trkpt lat="45.64222" lon="6.21098">
        <ele>884.46344</ele>
        <time>2011-09-11T10:53:30Z</time>
      </trkpt>
      <trkpt lat="45.64224" lon="6.21102">
        <ele>885.492249</ele>
        <time>2011-09-11T10:53:35Z</time>
      </trkpt>
      <trkpt lat="45.64229" lon="6.21105">
        <ele>887.391357</ele>
        <time>2011-09-11T10:53:40Z</time>
      </trkpt>
      <trkpt lat="45.64234" lon="6.21109">
        <ele>889.622681</ele>
        <time>2011-09-11T10:53:45Z</time>
      </trkpt>
      <trkpt lat="45.64235" lon="6.21115">
        <ele>889.691345</ele>
        <time>2011-09-11T10:53:50Z</time>
      </trkpt>
      <trkpt lat="45.64234" lon="6.21121">
        <ele>889.32666</ele>
        <time>2011-09-11T10:53:55Z</time>
      </trkpt>
      <trkpt lat="45.64236" lon="6.21127">
        <ele>889.627991</ele>
        <time>2011-09-11T10:54:00Z</time>
      </trkpt>
      <trkpt lat="45.6424" lon="6.21132">
        <ele>890.829163</ele>
        <time>2011-09-11T10:54:05Z</time>
      </trkpt>
      <trkpt lat="45.64243" lon="6.2114">
        <ele>891.164551</ele>
        <time>2011-09-11T10:54:10Z</time>
      </trkpt>
      <trkpt lat="45.64243" lon="6.21146">
        <ele>890.525269</ele>
        <time>2011-09-11T10:54:15Z</time>
      </trkpt>
      <trkpt lat="45.64248" lon="6.21153">
        <ele>891.078003</ele>
        <time>2011-09-11T10:54:20Z</time>
      </trkpt>
      <trkpt lat="45.64254" lon="6.21158">
        <ele>891.992676</ele>
        <time>2011-09-11T10:54:25Z</time>
      </trkpt>
      <trkpt lat="45.64262" lon="6.21162">
        <ele>895.766724</ele>
        <time>2011-09-11T10:54:30Z</time>
      </trkpt>
      <trkpt lat="45.64264" lon="6.21166">
        <ele>896.809448</ele>
        <time>2011-09-11T10:54:35Z</time>
      </trkpt>
      <trkpt lat="45.64265" lon="6.21172">
        <ele>896.42688</ele>
        <time>2011-09-11T10:54:40Z</time>
      </trkpt>
      <trkpt lat="45.64268" lon="6.21177">
        <ele>898.150208</ele>
        <time>2011-09-11T10:54:45Z</time>
      </trkpt>
      <trkpt lat="45.64269" lon="6.21179">
        <ele>898.340454</ele>
        <time>2011-09-11T10:54:50Z</time>
      </trkpt>
      <trkpt lat="45.64264" lon="6.21183">
        <ele>894.44574</ele>
        <time>2011-09-11T10:54:55Z</time>
      </trkpt>
      <trkpt lat="45.64268" lon="6.21187">
        <ele>896.661926</ele>
        <time>2011-09-11T10:55:00Z</time>
      </trkpt>
      <trkpt lat="45.64326" lon="6.21203">
        <ele>928.606384</ele>
        <time>2011-09-11T10:55:05Z</time>
      </trkpt>
      <trkpt lat="45.6433" lon="6.21206">
        <ele>930.625183</ele>
        <time>2011-09-11T10:55:10Z</time>
      </trkpt>
      <trkpt lat="45.64329" lon="6.21208">
        <ele>929.666931</ele>
        <time>2011-09-11T10:55:15Z</time>
      </trkpt>
      <trkpt lat="45.6433" lon="6.21211">
        <ele>930.07843</ele>
        <time>2011-09-11T10:55:20Z</time>
      </trkpt>
      <trkpt lat="45.6433" lon="6.21212">
        <ele>929.510986</ele>
        <time>2011-09-11T10:55:25Z</time>
      </trkpt>
      <trkpt lat="45.64332" lon="6.21213">
        <ele>930.455872</ele>
        <time>2011-09-11T10:55:30Z</time>
      </trkpt>
      <trkpt lat="45.64323" lon="6.21211">
        <ele>925.991943</ele>
        <time>2011-09-11T10:55:35Z</time>
      </trkpt>
      <trkpt lat="45.64316" lon="6.21209">
        <ele>922.602722</ele>
        <time>2011-09-11T10:55:40Z</time>
      </trkpt>
      <trkpt lat="45.64315" lon="6.21209">
        <ele>922.080505</ele>
        <time>2011-09-11T10:55:45Z</time>
      </trkpt>
      <trkpt lat="45.64318" lon="6.21209">
        <ele>923.526001</ele>
        <time>2011-09-11T10:55:50Z</time>
      </trkpt>
      <trkpt lat="45.64317" lon="6.21209">
        <ele>923.350586</ele>
        <time>2011-09-11T10:55:55Z</time>
      </trkpt>
      <trkpt lat="45.6432" lon="6.21212">
        <ele>924.178101</ele>
        <time>2011-09-11T10:56:00Z</time>
      </trkpt>
      <trkpt lat="45.64327" lon="6.21219">
        <ele>927.046021</ele>
        <time>2011-09-11T10:56:05Z</time>
      </trkpt>
      <trkpt lat="45.64331" lon="6.21225">
        <ele>928.660522</ele>
        <time>2011-09-11T10:56:10Z</time>
      </trkpt>
      <trkpt lat="45.64335" lon="6.2123">
        <ele>930.232422</ele>
        <time>2011-09-11T10:56:15Z</time>
      </trkpt>
      <trkpt lat="45.64339" lon="6.21236">
        <ele>931.191162</ele>
        <time>2011-09-11T10:56:20Z</time>
      </trkpt>
      <trkpt lat="45.64343" lon="6.21241">
        <ele>932.389099</ele>
        <time>2011-09-11T10:56:25Z</time>
      </trkpt>
      <trkpt lat="45.64345" lon="6.21246">
        <ele>932.941284</ele>
        <time>2011-09-11T10:56:30Z</time>
      </trkpt>
      <trkpt lat="45.64349" lon="6.21248">
        <ele>934.016235</ele>
        <time>2011-09-11T10:56:35Z</time>
      </trkpt>
      <trkpt lat="45.64353" lon="6.21251">
        <ele>935.185181</ele>
        <time>2011-09-11T10:56:40Z</time>
      </trkpt>
      <trkpt lat="45.64356" lon="6.21255">
        <ele>935.744568</ele>
        <time>2011-09-11T10:56:45Z</time>
      </trkpt>
      <trkpt lat="45.64359" lon="6.21258">
        <ele>936.281982</ele>
        <time>2011-09-11T10:56:50Z</time>
      </trkpt>
      <trkpt lat="45.64362" lon="6.21262">
        <ele>936.787903</ele>
        <time>2011-09-11T10:56:55Z</time>
      </trkpt>
      <trkpt lat="45.64365" lon="6.21266">
        <ele>937.578552</ele>
        <time>2011-09-11T10:57:00Z</time>
      </trkpt>
      <trkpt lat="45.64367" lon="6.21271">
        <ele>938.034485</ele>
        <time>2011-09-11T10:57:05Z</time>
      </trkpt>
      <trkpt lat="45.6437" lon="6.21275">
        <ele>938.715698</ele>
        <time>2011-09-11T10:57:10Z</time>
      </trkpt>
      <trkpt lat="45.64375" lon="6.21278">
        <ele>940.065613</ele>
        <time>2011-09-11T10:57:15Z</time>
      </trkpt>
      <trkpt lat="45.64379" lon="6.21281">
        <ele>941.575989</ele>
        <time>2011-09-11T10:57:20Z</time>
      </trkpt>
      <trkpt lat="45.64383" lon="6.21282">
        <ele>943.209778</ele>
        <time>2011-09-11T10:57:25Z</time>
      </trkpt>
      <trkpt lat="45.64387" lon="6.21287">
        <ele>944.516235</ele>
        <time>2011-09-11T10:57:30Z</time>
      </trkpt>
      <trkpt lat="45.6439" lon="6.21293">
        <ele>944.930603</ele>
        <time>2011-09-11T10:57:35Z</time>
      </trkpt>
      <trkpt lat="45.64393" lon="6.21298">
        <ele>945.064575</ele>
        <time>2011-09-11T10:57:40Z</time>
      </trkpt>
      <trkpt lat="45.64393" lon="6.213">
        <ele>944.650024</ele>
        <time>2011-09-11T10:57:45Z</time>
      </trkpt>
      <trkpt lat="45.64392" lon="6.21301">
        <ele>944.221619</ele>
        <time>2011-09-11T10:57:50Z</time>
      </trkpt>
      <trkpt lat="45.64392" lon="6.21302">
        <ele>944.171875</ele>
        <time>2011-09-11T10:57:55Z</time>
      </trkpt>
      <trkpt lat="45.64392" lon="6.21303">
        <ele>943.96875</ele>
        <time>2011-09-11T10:58:00Z</time>
      </trkpt>
      <trkpt lat="45.64394" lon="6.21305">
        <ele>944.304443</ele>
        <time>2011-09-11T10:58:05Z</time>
      </trkpt>
      <trkpt lat="45.64398" lon="6.2131">
        <ele>944.904724</ele>
        <time>2011-09-11T10:58:10Z</time>
      </trkpt>
      <trkpt lat="45.64398" lon="6.21313">
        <ele>944.532104</ele>
        <time>2011-09-11T10:58:15Z</time>
      </trkpt>
      <trkpt lat="45.64401" lon="6.21315">
        <ele>945.308716</ele>
        <time>2011-09-11T10:58:20Z</time>
      </trkpt>
      <trkpt lat="45.64399" lon="6.21318">
        <ele>943.946655</ele>
        <time>2011-09-11T10:58:25Z</time>
      </trkpt>
      <trkpt lat="45.64394" lon="6.21322">
        <ele>941.16217</ele>
        <time>2011-09-11T10:58:30Z</time>
      </trkpt>
      <trkpt lat="45.64402" lon="6.21327">
        <ele>944.05011</ele>
        <time>2011-09-11T10:58:35Z</time>
      </trkpt>
      <trkpt lat="45.64407" lon="6.21326">
        <ele>946.084351</ele>
        <time>2011-09-11T10:58:40Z</time>
      </trkpt>
      <trkpt lat="45.64406" lon="6.2133">
        <ele>945.125977</ele>
        <time>2011-09-11T10:58:45Z</time>
      </trkpt>
      <trkpt lat="45.64409" lon="6.21334">
        <ele>946.005981</ele>
        <time>2011-09-11T10:58:50Z</time>
      </trkpt>
      <trkpt lat="45.64417" lon="6.21338">
        <ele>949.008789</ele>
        <time>2011-09-11T10:58:55Z</time>
      </trkpt>
      <trkpt lat="45.6442" lon="6.21341">
        <ele>950.047607</ele>
        <time>2011-09-11T10:59:00Z</time>
      </trkpt>
      <trkpt lat="45.64425" lon="6.21344">
        <ele>951.465027</ele>
        <time>2011-09-11T10:59:05Z</time>
      </trkpt>
      <trkpt lat="45.64428" lon="6.21349">
        <ele>952.181885</ele>
        <time>2011-09-11T10:59:10Z</time>
      </trkpt>
      <trkpt lat="45.6443" lon="6.21355">
        <ele>952.719543</ele>
        <time>2011-09-11T10:59:15Z</time>
      </trkpt>
      <trkpt lat="45.64433" lon="6.21358">
        <ele>953.802673</ele>
        <time>2011-09-11T10:59:20Z</time>
      </trkpt>
      <trkpt lat="45.64436" lon="6.21361">
        <ele>954.9505</ele>
        <time>2011-09-11T10:59:25Z</time>
      </trkpt>
      <trkpt lat="45.64437" lon="6.21367">
        <ele>954.347839</ele>
        <time>2011-09-11T10:59:30Z</time>
      </trkpt>
      <trkpt lat="45.64437" lon="6.21374">
        <ele>953.591187</ele>
        <time>2011-09-11T10:59:35Z</time>
      </trkpt>
      <trkpt lat="45.64438" lon="6.21382">
        <ele>953.247986</ele>
        <time>2011-09-11T10:59:40Z</time>
      </trkpt>
      <trkpt lat="45.6444" lon="6.21389">
        <ele>953.48999</ele>
        <time>2011-09-11T10:59:45Z</time>
      </trkpt>
      <trkpt lat="45.64442" lon="6.21398">
        <ele>953.737</ele>
        <time>2011-09-11T10:59:50Z</time>
      </trkpt>
      <trkpt lat="45.64444" lon="6.21405">
        <ele>953.903931</ele>
        <time>2011-09-11T10:59:55Z</time>
      </trkpt>
      <trkpt lat="45.64446" lon="6.21415">
        <ele>954.134033</ele>
        <time>2011-09-11T11:00:00Z</time>
      </trkpt>
      <trkpt lat="45.64448" lon="6.21421">
        <ele>954.804932</ele>
        <time>2011-09-11T11:00:05Z</time>
      </trkpt>
      <trkpt lat="45.64451" lon="6.21427">
        <ele>955.721191</ele>
        <time>2011-09-11T11:00:10Z</time>
      </trkpt>
      <trkpt lat="45.64452" lon="6.21435">
        <ele>956.252625</ele>
        <time>2011-09-11T11:00:15Z</time>
      </trkpt>
      <trkpt lat="45.64454" lon="6.21442">
        <ele>956.969238</ele>
        <time>2011-09-11T11:00:20Z</time>
      </trkpt>
      <trkpt lat="45.64455" lon="6.2145">
        <ele>957.143738</ele>
        <time>2011-09-11T11:00:25Z</time>
      </trkpt>
      <trkpt lat="45.64455" lon="6.21458">
        <ele>957.065613</ele>
        <time>2011-09-11T11:00:30Z</time>
      </trkpt>
      <trkpt lat="45.64455" lon="6.21466">
        <ele>956.943054</ele>
        <time>2011-09-11T11:00:35Z</time>
      </trkpt>
      <trkpt lat="45.64456" lon="6.21473">
        <ele>957.167297</ele>
        <time>2011-09-11T11:00:40Z</time>
      </trkpt>
      <trkpt lat="45.64459" lon="6.21481">
        <ele>958.50885</ele>
        <time>2011-09-11T11:00:45Z</time>
      </trkpt>
      <trkpt lat="45.64462" lon="6.21487">
        <ele>960.042969</ele>
        <time>2011-09-11T11:00:50Z</time>
      </trkpt>
      <trkpt lat="45.64465" lon="6.21494">
        <ele>961.676208</ele>
        <time>2011-09-11T11:00:55Z</time>
      </trkpt>
      <trkpt lat="45.64467" lon="6.215">
        <ele>962.694885</ele>
        <time>2011-09-11T11:01:00Z</time>
      </trkpt>
      <trkpt lat="45.6447" lon="6.21506">
        <ele>963.892334</ele>
        <time>2011-09-11T11:01:05Z</time>
      </trkpt>
      <trkpt lat="45.64472" lon="6.21513">
        <ele>964.404846</ele>
        <time>2011-09-11T11:01:10Z</time>
      </trkpt>
      <trkpt lat="45.64475" lon="6.21519">
        <ele>964.890686</ele>
        <time>2011-09-11T11:01:15Z</time>
      </trkpt>
      <trkpt lat="45.64478" lon="6.21526">
        <ele>965.360229</ele>
        <time>2011-09-11T11:01:20Z</time>
      </trkpt>
      <trkpt lat="45.6448" lon="6.21532">
        <ele>965.78772</ele>
        <time>2011-09-11T11:01:25Z</time>
      </trkpt>
      <trkpt lat="45.64482" lon="6.21538">
        <ele>966.235291</ele>
        <time>2011-09-11T11:01:30Z</time>
      </trkpt>
      <trkpt lat="45.64485" lon="6.21544">
        <ele>966.748901</ele>
        <time>2011-09-11T11:01:35Z</time>
      </trkpt>
      <trkpt lat="45.64487" lon="6.21551">
        <ele>967.012695</ele>
        <time>2011-09-11T11:01:40Z</time>
      </trkpt>
      <trkpt lat="45.64489" lon="6.21557">
        <ele>967.109863</ele>
        <time>2011-09-11T11:01:45Z</time>
      </trkpt>
      <trkpt lat="45.64492" lon="6.21564">
        <ele>966.397522</ele>
        <time>2011-09-11T11:01:50Z</time>
      </trkpt>
      <trkpt lat="45.64495" lon="6.21569">
        <ele>966.309143</ele>
        <time>2011-09-11T11:01:55Z</time>
      </trkpt>
      <trkpt lat="45.64499" lon="6.21575">
        <ele>966.437317</ele>
        <time>2011-09-11T11:02:00Z</time>
      </trkpt>
      <trkpt lat="45.64499" lon="6.21576">
        <ele>966.47467</ele>
        <time>2011-09-11T11:02:05Z</time>
      </trkpt>
      <trkpt lat="45.64492" lon="6.21572">
        <ele>964.411194</ele>
        <time>2011-09-11T11:02:10Z</time>
      </trkpt>
      <trkpt lat="45.64489" lon="6.2157">
        <ele>963.405396</ele>
        <time>2011-09-11T11:02:15Z</time>
      </trkpt>
      <trkpt lat="45.64487" lon="6.21569">
        <ele>962.848633</ele>
        <time>2011-09-11T11:02:20Z</time>
      </trkpt>
      <trkpt lat="45.6449" lon="6.2157">
        <ele>963.951355</ele>
        <time>2011-09-11T11:02:25Z</time>
      </trkpt>
      <trkpt lat="45.64491" lon="6.21571">
        <ele>964.275391</ele>
        <time>2011-09-11T11:02:30Z</time>
      </trkpt>
      <trkpt lat="45.64486" lon="6.2157">
        <ele>962.321655</ele>
        <time>2011-09-11T11:02:35Z</time>
      </trkpt>
      <trkpt lat="45.64481" lon="6.21567">
        <ele>960.960999</ele>
        <time>2011-09-11T11:02:40Z</time>
      </trkpt>
      <trkpt lat="45.64476" lon="6.21565">
        <ele>959.451111</ele>
        <time>2011-09-11T11:02:45Z</time>
      </trkpt>
      <trkpt lat="45.64476" lon="6.21567">
        <ele>958.930542</ele>
        <time>2011-09-11T11:02:50Z</time>
      </trkpt>
      <trkpt lat="45.6448" lon="6.21572">
        <ele>958.885254</ele>
        <time>2011-09-11T11:02:55Z</time>
      </trkpt>
      <trkpt lat="45.64484" lon="6.21578">
        <ele>959.239319</ele>
        <time>2011-09-11T11:03:00Z</time>
      </trkpt>
      <trkpt lat="45.6449" lon="6.21584">
        <ele>960.122437</ele>
        <time>2011-09-11T11:03:05Z</time>
      </trkpt>
      <trkpt lat="45.64495" lon="6.21591">
        <ele>961.227722</ele>
        <time>2011-09-11T11:03:10Z</time>
      </trkpt>
      <trkpt lat="45.64501" lon="6.216">
        <ele>962.500122</ele>
        <time>2011-09-11T11:03:15Z</time>
      </trkpt>
      <trkpt lat="45.64505" lon="6.21607">
        <ele>963.912048</ele>
        <time>2011-09-11T11:03:20Z</time>
      </trkpt>
      <trkpt lat="45.64507" lon="6.21615">
        <ele>963.861389</ele>
        <time>2011-09-11T11:03:25Z</time>
      </trkpt>
      <trkpt lat="45.64508" lon="6.21623">
        <ele>963.72876</ele>
        <time>2011-09-11T11:03:30Z</time>
      </trkpt>
      <trkpt lat="45.64508" lon="6.2163">
        <ele>962.14502</ele>
        <time>2011-09-11T11:03:35Z</time>
      </trkpt>
      <trkpt lat="45.64507" lon="6.21637">
        <ele>960.255005</ele>
        <time>2011-09-11T11:03:40Z</time>
      </trkpt>
      <trkpt lat="45.64508" lon="6.21645">
        <ele>959.11377</ele>
        <time>2011-09-11T11:03:45Z</time>
      </trkpt>
      <trkpt lat="45.6451" lon="6.21652">
        <ele>958.862732</ele>
        <time>2011-09-11T11:03:50Z</time>
      </trkpt>
      <trkpt lat="45.64513" lon="6.21659">
        <ele>958.807739</ele>
        <time>2011-09-11T11:03:55Z</time>
      </trkpt>
      <trkpt lat="45.64517" lon="6.21665">
        <ele>959.582336</ele>
        <time>2011-09-11T11:04:00Z</time>
      </trkpt>
      <trkpt lat="45.64521" lon="6.21672">
        <ele>960.253296</ele>
        <time>2011-09-11T11:04:05Z</time>
      </trkpt>
      <trkpt lat="45.64525" lon="6.21677">
        <ele>961.214844</ele>
        <time>2011-09-11T11:04:10Z</time>
      </trkpt>
      <trkpt lat="45.64528" lon="6.21684">
        <ele>961.737366</ele>
        <time>2011-09-11T11:04:15Z</time>
      </trkpt>
      <trkpt lat="45.64531" lon="6.21691">
        <ele>962.699097</ele>
        <time>2011-09-11T11:04:20Z</time>
      </trkpt>
      <trkpt lat="45.64534" lon="6.21698">
        <ele>963.828491</ele>
        <time>2011-09-11T11:04:25Z</time>
      </trkpt>
      <trkpt lat="45.64537" lon="6.21705">
        <ele>964.835693</ele>
        <time>2011-09-11T11:04:30Z</time>
      </trkpt>
      <trkpt lat="45.64539" lon="6.21712">
        <ele>965.648132</ele>
        <time>2011-09-11T11:04:35Z</time>
      </trkpt>
      <trkpt lat="45.64542" lon="6.2172">
        <ele>966.759583</ele>
        <time>2011-09-11T11:04:40Z</time>
      </trkpt>
      <trkpt lat="45.64544" lon="6.21727">
        <ele>967.629517</ele>
        <time>2011-09-11T11:04:45Z</time>
      </trkpt>
      <trkpt lat="45.64544" lon="6.21726">
        <ele>967.451416</ele>
        <time>2011-09-11T11:04:50Z</time>
      </trkpt>
      <trkpt lat="45.64545" lon="6.21729">
        <ele>967.995911</ele>
        <time>2011-09-11T11:04:55Z</time>
      </trkpt>
      <trkpt lat="45.64547" lon="6.21736">
        <ele>969.277527</ele>
        <time>2011-09-11T11:05:00Z</time>
      </trkpt>
      <trkpt lat="45.64549" lon="6.21742">
        <ele>969.926514</ele>
        <time>2011-09-11T11:05:05Z</time>
      </trkpt>
      <trkpt lat="45.6455" lon="6.2175">
        <ele>970.57373</ele>
        <time>2011-09-11T11:05:10Z</time>
      </trkpt>
      <trkpt lat="45.64552" lon="6.21757">
        <ele>971.421692</ele>
        <time>2011-09-11T11:05:15Z</time>
      </trkpt>
      <trkpt lat="45.64553" lon="6.21764">
        <ele>971.953613</ele>
        <time>2011-09-11T11:05:20Z</time>
      </trkpt>
      <trkpt lat="45.64554" lon="6.2177">
        <ele>972.429565</ele>
        <time>2011-09-11T11:05:25Z</time>
      </trkpt>
      <trkpt lat="45.64554" lon="6.21773">
        <ele>972.648621</ele>
        <time>2011-09-11T11:05:30Z</time>
      </trkpt>
      <trkpt lat="45.64554" lon="6.21774">
        <ele>972.718445</ele>
        <time>2011-09-11T11:05:35Z</time>
      </trkpt>
      <trkpt lat="45.64556" lon="6.2178">
        <ele>973.364136</ele>
        <time>2011-09-11T11:05:40Z</time>
      </trkpt>
      <trkpt lat="45.64557" lon="6.21786">
        <ele>973.863464</ele>
        <time>2011-09-11T11:05:45Z</time>
      </trkpt>
      <trkpt lat="45.64557" lon="6.21793">
        <ele>974.412537</ele>
        <time>2011-09-11T11:05:50Z</time>
      </trkpt>
      <trkpt lat="45.64558" lon="6.218">
        <ele>974.979675</ele>
        <time>2011-09-11T11:05:55Z</time>
      </trkpt>
      <trkpt lat="45.64559" lon="6.21807">
        <ele>975.499268</ele>
        <time>2011-09-11T11:06:00Z</time>
      </trkpt>
      <trkpt lat="45.6456" lon="6.21813">
        <ele>976.009521</ele>
        <time>2011-09-11T11:06:05Z</time>
      </trkpt>
      <trkpt lat="45.64561" lon="6.2182">
        <ele>976.320984</ele>
        <time>2011-09-11T11:06:10Z</time>
      </trkpt>
      <trkpt lat="45.64562" lon="6.21826">
        <ele>976.386658</ele>
        <time>2011-09-11T11:06:15Z</time>
      </trkpt>
      <trkpt lat="45.64562" lon="6.21832">
        <ele>976.382996</ele>
        <time>2011-09-11T11:06:20Z</time>
      </trkpt>
      <trkpt lat="45.64563" lon="6.21839">
        <ele>976.498047</ele>
        <time>2011-09-11T11:06:25Z</time>
      </trkpt>
      <trkpt lat="45.64565" lon="6.21845">
        <ele>976.604858</ele>
        <time>2011-09-11T11:06:30Z</time>
      </trkpt>
      <trkpt lat="45.64567" lon="6.21851">
        <ele>976.946228</ele>
        <time>2011-09-11T11:06:35Z</time>
      </trkpt>
      <trkpt lat="45.64568" lon="6.21857">
        <ele>977.132629</ele>
        <time>2011-09-11T11:06:40Z</time>
      </trkpt>
      <trkpt lat="45.6457" lon="6.21863">
        <ele>977.46814</ele>
        <time>2011-09-11T11:06:45Z</time>
      </trkpt>
      <trkpt lat="45.64573" lon="6.21869">
        <ele>978.052368</ele>
        <time>2011-09-11T11:06:50Z</time>
      </trkpt>
      <trkpt lat="45.64575" lon="6.21871">
        <ele>978.277527</ele>
        <time>2011-09-11T11:06:55Z</time>
      </trkpt>
      <trkpt lat="45.64574" lon="6.21875">
        <ele>978.000061</ele>
        <time>2011-09-11T11:07:00Z</time>
      </trkpt>
      <trkpt lat="45.64576" lon="6.2188">
        <ele>978.261353</ele>
        <time>2011-09-11T11:07:05Z</time>
      </trkpt>
      <trkpt lat="45.64575" lon="6.21883">
        <ele>977.984985</ele>
        <time>2011-09-11T11:07:10Z</time>
      </trkpt>
      <trkpt lat="45.64575" lon="6.21882">
        <ele>977.961609</ele>
        <time>2011-09-11T11:07:15Z</time>
      </trkpt>
      <trkpt lat="45.64575" lon="6.21882">
        <ele>977.961609</ele>
        <time>2011-09-11T11:07:20Z</time>
      </trkpt>
      <trkpt lat="45.64575" lon="6.21882">
        <ele>977.969727</ele>
        <time>2011-09-11T11:07:25Z</time>
      </trkpt>
      <trkpt lat="45.64575" lon="6.21882">
        <ele>977.977905</ele>
        <time>2011-09-11T11:07:30Z</time>
      </trkpt>
      <trkpt lat="45.64576" lon="6.21882">
        <ele>978.068726</ele>
        <time>2011-09-11T11:07:35Z</time>
      </trkpt>
      <trkpt lat="45.64576" lon="6.21882">
        <ele>978.068726</ele>
        <time>2011-09-11T11:07:40Z</time>
      </trkpt>
      <trkpt lat="45.64576" lon="6.21882">
        <ele>978.210571</ele>
        <time>2011-09-11T11:07:45Z</time>
      </trkpt>
      <trkpt lat="45.64576" lon="6.21882">
        <ele>978.202271</ele>
        <time>2011-09-11T11:07:50Z</time>
      </trkpt>
      <trkpt lat="45.64576" lon="6.21882">
        <ele>978.202271</ele>
        <time>2011-09-11T11:07:55Z</time>
      </trkpt>
      <trkpt lat="45.64577" lon="6.21884">
        <ele>978.47998</ele>
        <time>2011-09-11T11:08:00Z</time>
      </trkpt>
      <trkpt lat="45.64578" lon="6.21887">
        <ele>978.727478</ele>
        <time>2011-09-11T11:08:05Z</time>
      </trkpt>
      <trkpt lat="45.64578" lon="6.21887">
        <ele>978.755005</ele>
        <time>2011-09-11T11:08:10Z</time>
      </trkpt>
      <trkpt lat="45.64579" lon="6.21889">
        <ele>978.94751</ele>
        <time>2011-09-11T11:08:15Z</time>
      </trkpt>
      <trkpt lat="45.6458" lon="6.21895">
        <ele>979.222473</ele>
        <time>2011-09-11T11:08:20Z</time>
      </trkpt>
      <trkpt lat="45.64581" lon="6.21902">
        <ele>979.63501</ele>
        <time>2011-09-11T11:08:25Z</time>
      </trkpt>
      <trkpt lat="45.64583" lon="6.21909">
        <ele>980.075012</ele>
        <time>2011-09-11T11:08:30Z</time>
      </trkpt>
      <trkpt lat="45.64583" lon="6.21917">
        <ele>980.212524</ele>
        <time>2011-09-11T11:08:35Z</time>
      </trkpt>
      <trkpt lat="45.64584" lon="6.21924">
        <ele>980.405029</ele>
        <time>2011-09-11T11:08:40Z</time>
      </trkpt>
      <trkpt lat="45.64583" lon="6.21932">
        <ele>980.349976</ele>
        <time>2011-09-11T11:08:45Z</time>
      </trkpt>
      <trkpt lat="45.64584" lon="6.2194">
        <ele>980.54248</ele>
        <time>2011-09-11T11:08:50Z</time>
      </trkpt>
      <trkpt lat="45.64583" lon="6.21945">
        <ele>980.460022</ele>
        <time>2011-09-11T11:08:55Z</time>
      </trkpt>
      <trkpt lat="45.64584" lon="6.21949">
        <ele>980.703735</ele>
        <time>2011-09-11T11:09:00Z</time>
      </trkpt>
      <trkpt lat="45.64583" lon="6.21954">
        <ele>980.777771</ele>
        <time>2011-09-11T11:09:05Z</time>
      </trkpt>
      <trkpt lat="45.64583" lon="6.2196">
        <ele>980.91156</ele>
        <time>2011-09-11T11:09:10Z</time>
      </trkpt>
      <trkpt lat="45.64579" lon="6.21965">
        <ele>980.250122</ele>
        <time>2011-09-11T11:09:15Z</time>
      </trkpt>
      <trkpt lat="45.64575" lon="6.21968">
        <ele>979.220886</ele>
        <time>2011-09-11T11:09:20Z</time>
      </trkpt>
      <trkpt lat="45.64573" lon="6.21973">
        <ele>979.11731</ele>
        <time>2011-09-11T11:09:25Z</time>
      </trkpt>
      <trkpt lat="45.64574" lon="6.21979">
        <ele>979.440002</ele>
        <time>2011-09-11T11:09:30Z</time>
      </trkpt>
      <trkpt lat="45.64575" lon="6.21984">
        <ele>980.087952</ele>
        <time>2011-09-11T11:09:35Z</time>
      </trkpt>
      <trkpt lat="45.64577" lon="6.21989">
        <ele>980.682922</ele>
        <time>2011-09-11T11:09:40Z</time>
      </trkpt>
      <trkpt lat="45.64577" lon="6.21994">
        <ele>981.090332</ele>
        <time>2011-09-11T11:09:45Z</time>
      </trkpt>
      <trkpt lat="45.64575" lon="6.21996">
        <ele>980.56427</ele>
        <time>2011-09-11T11:09:50Z</time>
      </trkpt>
      <trkpt lat="45.64578" lon="6.21997">
        <ele>981.305176</ele>
        <time>2011-09-11T11:09:55Z</time>
      </trkpt>
      <trkpt lat="45.64581" lon="6.22005">
        <ele>982.856995</ele>
        <time>2011-09-11T11:10:00Z</time>
      </trkpt>
      <trkpt lat="45.6458" lon="6.22013">
        <ele>982.100342</ele>
        <time>2011-09-11T11:10:05Z</time>
      </trkpt>
      <trkpt lat="45.6458" lon="6.2202">
        <ele>979.471008</ele>
        <time>2011-09-11T11:10:10Z</time>
      </trkpt>
      <trkpt lat="45.64582" lon="6.22024">
        <ele>978.442749</ele>
        <time>2011-09-11T11:10:15Z</time>
      </trkpt>
      <trkpt lat="45.64583" lon="6.22026">
        <ele>978.002319</ele>
        <time>2011-09-11T11:10:20Z</time>
      </trkpt>
      <trkpt lat="45.64584" lon="6.22027">
        <ele>978.043152</ele>
        <time>2011-09-11T11:10:25Z</time>
      </trkpt>
      <trkpt lat="45.64587" lon="6.22029">
        <ele>978.167969</ele>
        <time>2011-09-11T11:10:30Z</time>
      </trkpt>
      <trkpt lat="45.64591" lon="6.22031">
        <ele>977.666687</ele>
        <time>2011-09-11T11:10:35Z</time>
      </trkpt>
      <trkpt lat="45.64594" lon="6.22035">
        <ele>976.693298</ele>
        <time>2011-09-11T11:10:40Z</time>
      </trkpt>
      <trkpt lat="45.64597" lon="6.22039">
        <ele>975.694031</ele>
        <time>2011-09-11T11:10:45Z</time>
      </trkpt>
      <trkpt lat="45.646" lon="6.22043">
        <ele>974.893127</ele>
        <time>2011-09-11T11:10:50Z</time>
      </trkpt>
      <trkpt lat="45.64604" lon="6.22046">
        <ele>974.151367</ele>
        <time>2011-09-11T11:10:55Z</time>
      </trkpt>
      <trkpt lat="45.64607" lon="6.22049">
        <ele>973.66925</ele>
        <time>2011-09-11T11:11:00Z</time>
      </trkpt>
      <trkpt lat="45.64609" lon="6.22051">
        <ele>973.204468</ele>
        <time>2011-09-11T11:11:05Z</time>
      </trkpt>
      <trkpt lat="45.64613" lon="6.22055">
        <ele>972.404419</ele>
        <time>2011-09-11T11:11:10Z</time>
      </trkpt>
      <trkpt lat="45.64616" lon="6.22059">
        <ele>971.645752</ele>
        <time>2011-09-11T11:11:15Z</time>
      </trkpt>
      <trkpt lat="45.64621" lon="6.22063">
        <ele>970.932129</ele>
        <time>2011-09-11T11:11:20Z</time>
      </trkpt>
      <trkpt lat="45.64626" lon="6.22066">
        <ele>970.849365</ele>
        <time>2011-09-11T11:11:25Z</time>
      </trkpt>
      <trkpt lat="45.6463" lon="6.22068">
        <ele>970.93158</ele>
        <time>2011-09-11T11:11:30Z</time>
      </trkpt>
      <trkpt lat="45.6463" lon="6.22066">
        <ele>971.575439</ele>
        <time>2011-09-11T11:11:35Z</time>
      </trkpt>
      <trkpt lat="45.64631" lon="6.22066">
        <ele>971.838867</ele>
        <time>2011-09-11T11:11:40Z</time>
      </trkpt>
      <trkpt lat="45.64634" lon="6.22068">
        <ele>971.911987</ele>
        <time>2011-09-11T11:11:45Z</time>
      </trkpt>
      <trkpt lat="45.64633" lon="6.22068">
        <ele>971.86438</ele>
        <time>2011-09-11T11:11:50Z</time>
      </trkpt>
      <trkpt lat="45.64633" lon="6.22071">
        <ele>970.718079</ele>
        <time>2011-09-11T11:11:55Z</time>
      </trkpt>
      <trkpt lat="45.64636" lon="6.22077">
        <ele>969.469482</ele>
        <time>2011-09-11T11:12:00Z</time>
      </trkpt>
      <trkpt lat="45.64632" lon="6.22082">
        <ele>967.132813</ele>
        <time>2011-09-11T11:12:05Z</time>
      </trkpt>
      <trkpt lat="45.64629" lon="6.22083">
        <ele>966.045288</ele>
        <time>2011-09-11T11:12:10Z</time>
      </trkpt>
      <trkpt lat="45.64628" lon="6.22085">
        <ele>965.658508</ele>
        <time>2011-09-11T11:12:15Z</time>
      </trkpt>
      <trkpt lat="45.64624" lon="6.22084">
        <ele>965.159607</ele>
        <time>2011-09-11T11:12:20Z</time>
      </trkpt>
      <trkpt lat="45.6462" lon="6.22085">
        <ele>964.026367</ele>
        <time>2011-09-11T11:12:25Z</time>
      </trkpt>
      <trkpt lat="45.64606" lon="6.22081">
        <ele>962.092651</ele>
        <time>2011-09-11T11:12:30Z</time>
      </trkpt>
      <trkpt lat="45.646" lon="6.22081">
        <ele>960.917297</ele>
        <time>2011-09-11T11:12:35Z</time>
      </trkpt>
      <trkpt lat="45.64596" lon="6.22083">
        <ele>959.737122</ele>
        <time>2011-09-11T11:12:40Z</time>
      </trkpt>
      <trkpt lat="45.64595" lon="6.22086">
        <ele>958.959961</ele>
        <time>2011-09-11T11:12:45Z</time>
      </trkpt>
      <trkpt lat="45.64597" lon="6.2209">
        <ele>958.504211</ele>
        <time>2011-09-11T11:12:50Z</time>
      </trkpt>
      <trkpt lat="45.64597" lon="6.22092">
        <ele>958.114136</ele>
        <time>2011-09-11T11:12:55Z</time>
      </trkpt>
      <trkpt lat="45.64596" lon="6.22091">
        <ele>958.022888</ele>
        <time>2011-09-11T11:13:00Z</time>
      </trkpt>
      <trkpt lat="45.64599" lon="6.22094">
        <ele>958.111023</ele>
        <time>2011-09-11T11:13:05Z</time>
      </trkpt>
      <trkpt lat="45.64601" lon="6.22096">
        <ele>958.086853</ele>
        <time>2011-09-11T11:13:10Z</time>
      </trkpt>
      <trkpt lat="45.64593" lon="6.22093">
        <ele>957.172729</ele>
        <time>2011-09-11T11:13:15Z</time>
      </trkpt>
      <trkpt lat="45.64589" lon="6.22093">
        <ele>956.034912</ele>
        <time>2011-09-11T11:13:20Z</time>
      </trkpt>
      <trkpt lat="45.6458" lon="6.22093">
        <ele>954.544556</ele>
        <time>2011-09-11T11:13:25Z</time>
      </trkpt>
      <trkpt lat="45.64577" lon="6.22095">
        <ele>953.349976</ele>
        <time>2011-09-11T11:13:30Z</time>
      </trkpt>
      <trkpt lat="45.64577" lon="6.22102">
        <ele>952.119507</ele>
        <time>2011-09-11T11:13:35Z</time>
      </trkpt>
      <trkpt lat="45.64575" lon="6.22107">
        <ele>950.815491</ele>
        <time>2011-09-11T11:13:40Z</time>
      </trkpt>
      <trkpt lat="45.64572" lon="6.22112">
        <ele>949.528137</ele>
        <time>2011-09-11T11:13:45Z</time>
      </trkpt>
      <trkpt lat="45.64569" lon="6.22117">
        <ele>948.188171</ele>
        <time>2011-09-11T11:13:50Z</time>
      </trkpt>
      <trkpt lat="45.64566" lon="6.22123">
        <ele>946.875671</ele>
        <time>2011-09-11T11:13:55Z</time>
      </trkpt>
      <trkpt lat="45.64564" lon="6.22129">
        <ele>945.729431</ele>
        <time>2011-09-11T11:14:00Z</time>
      </trkpt>
      <trkpt lat="45.64564" lon="6.22136">
        <ele>944.637268</ele>
        <time>2011-09-11T11:14:05Z</time>
      </trkpt>
      <trkpt lat="45.64565" lon="6.22142">
        <ele>943.587585</ele>
        <time>2011-09-11T11:14:10Z</time>
      </trkpt>
      <trkpt lat="45.64565" lon="6.2215">
        <ele>942.223999</ele>
        <time>2011-09-11T11:14:15Z</time>
      </trkpt>
      <trkpt lat="45.64565" lon="6.22159">
        <ele>940.646301</ele>
        <time>2011-09-11T11:14:20Z</time>
      </trkpt>
      <trkpt lat="45.64565" lon="6.22167">
        <ele>939.108643</ele>
        <time>2011-09-11T11:14:25Z</time>
      </trkpt>
      <trkpt lat="45.64565" lon="6.22175">
        <ele>937.759216</ele>
        <time>2011-09-11T11:14:30Z</time>
      </trkpt>
      <trkpt lat="45.64565" lon="6.22183">
        <ele>936.298157</ele>
        <time>2011-09-11T11:14:35Z</time>
      </trkpt>
      <trkpt lat="45.64561" lon="6.22189">
        <ele>934.774353</ele>
        <time>2011-09-11T11:14:40Z</time>
      </trkpt>
      <trkpt lat="45.64557" lon="6.22193">
        <ele>933.479248</ele>
        <time>2011-09-11T11:14:45Z</time>
      </trkpt>
      <trkpt lat="45.64552" lon="6.22195">
        <ele>932.567627</ele>
        <time>2011-09-11T11:14:50Z</time>
      </trkpt>
      <trkpt lat="45.64548" lon="6.22197">
        <ele>931.528137</ele>
        <time>2011-09-11T11:14:55Z</time>
      </trkpt>
      <trkpt lat="45.64542" lon="6.22199">
        <ele>930.404602</ele>
        <time>2011-09-11T11:15:00Z</time>
      </trkpt>
      <trkpt lat="45.64538" lon="6.22202">
        <ele>929.456665</ele>
        <time>2011-09-11T11:15:05Z</time>
      </trkpt>
      <trkpt lat="45.64532" lon="6.22204">
        <ele>929.946594</ele>
        <time>2011-09-11T11:15:10Z</time>
      </trkpt>
      <trkpt lat="45.64529" lon="6.2221">
        <ele>931.429688</ele>
        <time>2011-09-11T11:15:15Z</time>
      </trkpt>
      <trkpt lat="45.64528" lon="6.22218">
        <ele>932.76709</ele>
        <time>2011-09-11T11:15:20Z</time>
      </trkpt>
      <trkpt lat="45.6453" lon="6.22226">
        <ele>933.542725</ele>
        <time>2011-09-11T11:15:25Z</time>
      </trkpt>
      <trkpt lat="45.64532" lon="6.22233">
        <ele>934.171509</ele>
        <time>2011-09-11T11:15:30Z</time>
      </trkpt>
      <trkpt lat="45.64534" lon="6.22242">
        <ele>934.870361</ele>
        <time>2011-09-11T11:15:35Z</time>
      </trkpt>
      <trkpt lat="45.64534" lon="6.22246">
        <ele>935.30426</ele>
        <time>2011-09-11T11:15:40Z</time>
      </trkpt>
      <trkpt lat="45.64534" lon="6.22246">
        <ele>935.371094</ele>
        <time>2011-09-11T11:15:45Z</time>
      </trkpt>
      <trkpt lat="45.64534" lon="6.22247">
        <ele>935.415649</ele>
        <time>2011-09-11T11:15:50Z</time>
      </trkpt>
      <trkpt lat="45.64534" lon="6.22247">
        <ele>935.504761</ele>
        <time>2011-09-11T11:15:55Z</time>
      </trkpt>
      <trkpt lat="45.64532" lon="6.22246">
        <ele>936.006775</ele>
        <time>2011-09-11T11:16:00Z</time>
      </trkpt>
      <trkpt lat="45.64534" lon="6.2225">
        <ele>935.921875</ele>
        <time>2011-09-11T11:16:05Z</time>
      </trkpt>
      <trkpt lat="45.64544" lon="6.22259">
        <ele>935.968811</ele>
        <time>2011-09-11T11:16:10Z</time>
      </trkpt>
      <trkpt lat="45.64546" lon="6.22261">
        <ele>935.906616</ele>
        <time>2011-09-11T11:16:15Z</time>
      </trkpt>
      <trkpt lat="45.64547" lon="6.22261">
        <ele>935.808472</ele>
        <time>2011-09-11T11:16:20Z</time>
      </trkpt>
      <trkpt lat="45.64547" lon="6.22267">
        <ele>936.314392</ele>
        <time>2011-09-11T11:16:25Z</time>
      </trkpt>
      <trkpt lat="45.64547" lon="6.22274">
        <ele>937.680054</ele>
        <time>2011-09-11T11:16:30Z</time>
      </trkpt>
      <trkpt lat="45.64549" lon="6.22281">
        <ele>938.78186</ele>
        <time>2011-09-11T11:16:35Z</time>
      </trkpt>
      <trkpt lat="45.6455" lon="6.22288">
        <ele>939.711792</ele>
        <time>2011-09-11T11:16:40Z</time>
      </trkpt>
      <trkpt lat="45.64552" lon="6.22296">
        <ele>940.488159</ele>
        <time>2011-09-11T11:16:45Z</time>
      </trkpt>
      <trkpt lat="45.64554" lon="6.22303">
        <ele>940.957458</ele>
        <time>2011-09-11T11:16:50Z</time>
      </trkpt>
      <trkpt lat="45.64556" lon="6.2231">
        <ele>941.370361</ele>
        <time>2011-09-11T11:16:55Z</time>
      </trkpt>
      <trkpt lat="45.64559" lon="6.22317">
        <ele>940.949158</ele>
        <time>2011-09-11T11:17:00Z</time>
      </trkpt>
      <trkpt lat="45.64561" lon="6.22325">
        <ele>941.091919</ele>
        <time>2011-09-11T11:17:05Z</time>
      </trkpt>
      <trkpt lat="45.64563" lon="6.22333">
        <ele>940.987671</ele>
        <time>2011-09-11T11:17:10Z</time>
      </trkpt>
      <trkpt lat="45.64565" lon="6.22341">
        <ele>941.423218</ele>
        <time>2011-09-11T11:17:15Z</time>
      </trkpt>
      <trkpt lat="45.64567" lon="6.22349">
        <ele>941.281616</ele>
        <time>2011-09-11T11:17:20Z</time>
      </trkpt>
      <trkpt lat="45.6457" lon="6.22358">
        <ele>940.942505</ele>
        <time>2011-09-11T11:17:25Z</time>
      </trkpt>
      <trkpt lat="45.6457" lon="6.22366">
        <ele>941.467468</ele>
        <time>2011-09-11T11:17:30Z</time>
      </trkpt>
      <trkpt lat="45.64571" lon="6.22372">
        <ele>941.910583</ele>
        <time>2011-09-11T11:17:35Z</time>
      </trkpt>
      <trkpt lat="45.64571" lon="6.22379">
        <ele>942.388489</ele>
        <time>2011-09-11T11:17:40Z</time>
      </trkpt>
      <trkpt lat="45.64572" lon="6.22385">
        <ele>942.205322</ele>
        <time>2011-09-11T11:17:45Z</time>
      </trkpt>
      <trkpt lat="45.64573" lon="6.22392">
        <ele>942.076111</ele>
        <time>2011-09-11T11:17:50Z</time>
      </trkpt>
      <trkpt lat="45.64575" lon="6.22399">
        <ele>942.373718</ele>
        <time>2011-09-11T11:17:55Z</time>
      </trkpt>
      <trkpt lat="45.64576" lon="6.22404">
        <ele>943.151794</ele>
        <time>2011-09-11T11:18:00Z</time>
      </trkpt>
      <trkpt lat="45.64578" lon="6.2241">
        <ele>944.129883</ele>
        <time>2011-09-11T11:18:05Z</time>
      </trkpt>
      <trkpt lat="45.64581" lon="6.22414">
        <ele>944.655334</ele>
        <time>2011-09-11T11:18:10Z</time>
      </trkpt>
      <trkpt lat="45.64584" lon="6.22417">
        <ele>944.934448</ele>
        <time>2011-09-11T11:18:15Z</time>
      </trkpt>
      <trkpt lat="45.64586" lon="6.22422">
        <ele>945.599976</ele>
        <time>2011-09-11T11:18:20Z</time>
      </trkpt>
      <trkpt lat="45.64587" lon="6.22428">
        <ele>946.497803</ele>
        <time>2011-09-11T11:18:25Z</time>
      </trkpt>
      <trkpt lat="45.64586" lon="6.22435">
        <ele>947.792847</ele>
        <time>2011-09-11T11:18:30Z</time>
      </trkpt>
      <trkpt lat="45.64586" lon="6.22444">
        <ele>949.156677</ele>
        <time>2011-09-11T11:18:35Z</time>
      </trkpt>
      <trkpt lat="45.64586" lon="6.22452">
        <ele>950.478027</ele>
        <time>2011-09-11T11:18:40Z</time>
      </trkpt>
      <trkpt lat="45.64586" lon="6.22459">
        <ele>951.68988</ele>
        <time>2011-09-11T11:18:45Z</time>
      </trkpt>
      <trkpt lat="45.64584" lon="6.22465">
        <ele>952.468079</ele>
        <time>2011-09-11T11:18:50Z</time>
      </trkpt>
      <trkpt lat="45.64581" lon="6.22471">
        <ele>953.036987</ele>
        <time>2011-09-11T11:18:55Z</time>
      </trkpt>
      <trkpt lat="45.6458" lon="6.22478">
        <ele>953.589355</ele>
        <time>2011-09-11T11:19:00Z</time>
      </trkpt>
      <trkpt lat="45.64579" lon="6.22485">
        <ele>954.122131</ele>
        <time>2011-09-11T11:19:05Z</time>
      </trkpt>
      <trkpt lat="45.64578" lon="6.22493">
        <ele>954.691223</ele>
        <time>2011-09-11T11:19:10Z</time>
      </trkpt>
      <trkpt lat="45.64577" lon="6.22501">
        <ele>955.223389</ele>
        <time>2011-09-11T11:19:15Z</time>
      </trkpt>
      <trkpt lat="45.64577" lon="6.22509">
        <ele>955.769653</ele>
        <time>2011-09-11T11:19:20Z</time>
      </trkpt>
      <trkpt lat="45.64577" lon="6.22517">
        <ele>956.322449</ele>
        <time>2011-09-11T11:19:25Z</time>
      </trkpt>
      <trkpt lat="45.64576" lon="6.22525">
        <ele>956.830383</ele>
        <time>2011-09-11T11:19:30Z</time>
      </trkpt>
      <trkpt lat="45.64576" lon="6.22533">
        <ele>956.614197</ele>
        <time>2011-09-11T11:19:35Z</time>
      </trkpt>
      <trkpt lat="45.64575" lon="6.22541">
        <ele>956.349243</ele>
        <time>2011-09-11T11:19:40Z</time>
      </trkpt>
      <trkpt lat="45.64575" lon="6.22549">
        <ele>956.105286</ele>
        <time>2011-09-11T11:19:45Z</time>
      </trkpt>
      <trkpt lat="45.64573" lon="6.22556">
        <ele>955.737061</ele>
        <time>2011-09-11T11:19:50Z</time>
      </trkpt>
      <trkpt lat="45.64572" lon="6.22563">
        <ele>955.259583</ele>
        <time>2011-09-11T11:19:55Z</time>
      </trkpt>
      <trkpt lat="45.6457" lon="6.22569">
        <ele>954.722839</ele>
        <time>2011-09-11T11:20:00Z</time>
      </trkpt>
      <trkpt lat="45.64568" lon="6.22573">
        <ele>954.116028</ele>
        <time>2011-09-11T11:20:05Z</time>
      </trkpt>
      <trkpt lat="45.64564" lon="6.22579">
        <ele>954.789978</ele>
        <time>2011-09-11T11:20:10Z</time>
      </trkpt>
      <trkpt lat="45.6456" lon="6.22584">
        <ele>956.044983</ele>
        <time>2011-09-11T11:20:15Z</time>
      </trkpt>
      <trkpt lat="45.64554" lon="6.22588">
        <ele>957.719177</ele>
        <time>2011-09-11T11:20:20Z</time>
      </trkpt>
      <trkpt lat="45.64547" lon="6.22592">
        <ele>959.626648</ele>
        <time>2011-09-11T11:20:25Z</time>
      </trkpt>
      <trkpt lat="45.64543" lon="6.22595">
        <ele>960.714172</ele>
        <time>2011-09-11T11:20:30Z</time>
      </trkpt>
      <trkpt lat="45.64536" lon="6.22599">
        <ele>962.440918</ele>
        <time>2011-09-11T11:20:35Z</time>
      </trkpt>
      <trkpt lat="45.64533" lon="6.22605">
        <ele>962.965759</ele>
        <time>2011-09-11T11:20:40Z</time>
      </trkpt>
      <trkpt lat="45.64536" lon="6.22618">
        <ele>960.322754</ele>
        <time>2011-09-11T11:20:45Z</time>
      </trkpt>
      <trkpt lat="45.64533" lon="6.22624">
        <ele>960.455444</ele>
        <time>2011-09-11T11:20:50Z</time>
      </trkpt>
      <trkpt lat="45.6453" lon="6.2263">
        <ele>960.650024</ele>
        <time>2011-09-11T11:20:55Z</time>
      </trkpt>
      <trkpt lat="45.64525" lon="6.22633">
        <ele>961.220581</ele>
        <time>2011-09-11T11:21:00Z</time>
      </trkpt>
      <trkpt lat="45.64527" lon="6.22642">
        <ele>959.539734</ele>
        <time>2011-09-11T11:21:05Z</time>
      </trkpt>
      <trkpt lat="45.64525" lon="6.22648">
        <ele>959.213318</ele>
        <time>2011-09-11T11:21:10Z</time>
      </trkpt>
      <trkpt lat="45.64522" lon="6.22653">
        <ele>959.327087</ele>
        <time>2011-09-11T11:21:15Z</time>
      </trkpt>
      <trkpt lat="45.64518" lon="6.22657">
        <ele>960.168762</ele>
        <time>2011-09-11T11:21:20Z</time>
      </trkpt>
      <trkpt lat="45.64517" lon="6.22663">
        <ele>960.231262</ele>
        <time>2011-09-11T11:21:25Z</time>
      </trkpt>
      <trkpt lat="45.64515" lon="6.2267">
        <ele>960.224976</ele>
        <time>2011-09-11T11:21:30Z</time>
      </trkpt>
      <trkpt lat="45.64514" lon="6.22677">
        <ele>959.956238</ele>
        <time>2011-09-11T11:21:35Z</time>
      </trkpt>
      <trkpt lat="45.64514" lon="6.22684">
        <ele>959.325012</ele>
        <time>2011-09-11T11:21:40Z</time>
      </trkpt>
      <trkpt lat="45.64515" lon="6.22691">
        <ele>958.331238</ele>
        <time>2011-09-11T11:21:45Z</time>
      </trkpt>
      <trkpt lat="45.64516" lon="6.22698">
        <ele>957.362488</ele>
        <time>2011-09-11T11:21:50Z</time>
      </trkpt>
      <trkpt lat="45.64518" lon="6.22706">
        <ele>955.724976</ele>
        <time>2011-09-11T11:21:55Z</time>
      </trkpt>
      <trkpt lat="45.64518" lon="6.22714">
        <ele>955.037659</ele>
        <time>2011-09-11T11:22:00Z</time>
      </trkpt>
      <trkpt lat="45.64518" lon="6.22722">
        <ele>955.305176</ele>
        <time>2011-09-11T11:22:05Z</time>
      </trkpt>
      <trkpt lat="45.64518" lon="6.2273">
        <ele>955.645996</ele>
        <time>2011-09-11T11:22:10Z</time>
      </trkpt>
      <trkpt lat="45.64518" lon="6.22738">
        <ele>955.889404</ele>
        <time>2011-09-11T11:22:15Z</time>
      </trkpt>
      <trkpt lat="45.64519" lon="6.22746">
        <ele>956.28363</ele>
        <time>2011-09-11T11:22:20Z</time>
      </trkpt>
      <trkpt lat="45.64518" lon="6.22753">
        <ele>956.504517</ele>
        <time>2011-09-11T11:22:25Z</time>
      </trkpt>
      <trkpt lat="45.64519" lon="6.2276">
        <ele>956.846191</ele>
        <time>2011-09-11T11:22:30Z</time>
      </trkpt>
      <trkpt lat="45.64519" lon="6.22767">
        <ele>957.202148</ele>
        <time>2011-09-11T11:22:35Z</time>
      </trkpt>
      <trkpt lat="45.6452" lon="6.22773">
        <ele>957.583008</ele>
        <time>2011-09-11T11:22:40Z</time>
      </trkpt>
      <trkpt lat="45.64518" lon="6.22781">
        <ele>957.654419</ele>
        <time>2011-09-11T11:22:45Z</time>
      </trkpt>
      <trkpt lat="45.64519" lon="6.22788">
        <ele>958.097717</ele>
        <time>2011-09-11T11:22:50Z</time>
      </trkpt>
      <trkpt lat="45.64519" lon="6.22796">
        <ele>958.364868</ele>
        <time>2011-09-11T11:22:55Z</time>
      </trkpt>
      <trkpt lat="45.64518" lon="6.22804">
        <ele>958.676697</ele>
        <time>2011-09-11T11:23:00Z</time>
      </trkpt>
      <trkpt lat="45.64518" lon="6.22812">
        <ele>958.966797</ele>
        <time>2011-09-11T11:23:05Z</time>
      </trkpt>
      <trkpt lat="45.64517" lon="6.22819">
        <ele>959.025818</ele>
        <time>2011-09-11T11:23:10Z</time>
      </trkpt>
      <trkpt lat="45.64517" lon="6.22827">
        <ele>959.309021</ele>
        <time>2011-09-11T11:23:15Z</time>
      </trkpt>
      <trkpt lat="45.64518" lon="6.22832">
        <ele>959.947693</ele>
        <time>2011-09-11T11:23:20Z</time>
      </trkpt>
      <trkpt lat="45.64517" lon="6.2284">
        <ele>959.925537</ele>
        <time>2011-09-11T11:23:25Z</time>
      </trkpt>
      <trkpt lat="45.64515" lon="6.22847">
        <ele>959.627197</ele>
        <time>2011-09-11T11:23:30Z</time>
      </trkpt>
      <trkpt lat="45.64514" lon="6.22854">
        <ele>959.710693</ele>
        <time>2011-09-11T11:23:35Z</time>
      </trkpt>
      <trkpt lat="45.64512" lon="6.22862">
        <ele>960.039063</ele>
        <time>2011-09-11T11:23:40Z</time>
      </trkpt>
      <trkpt lat="45.6451" lon="6.2287">
        <ele>961.274048</ele>
        <time>2011-09-11T11:23:45Z</time>
      </trkpt>
      <trkpt lat="45.64508" lon="6.22878">
        <ele>962.317871</ele>
        <time>2011-09-11T11:23:50Z</time>
      </trkpt>
      <trkpt lat="45.64506" lon="6.22886">
        <ele>963.216858</ele>
        <time>2011-09-11T11:23:55Z</time>
      </trkpt>
      <trkpt lat="45.64506" lon="6.22892">
        <ele>963.314819</ele>
        <time>2011-09-11T11:24:00Z</time>
      </trkpt>
      <trkpt lat="45.64506" lon="6.22902">
        <ele>963.67041</ele>
        <time>2011-09-11T11:24:05Z</time>
      </trkpt>
      <trkpt lat="45.64506" lon="6.22913">
        <ele>964.193726</ele>
        <time>2011-09-11T11:24:10Z</time>
      </trkpt>
      <trkpt lat="45.64507" lon="6.22922">
        <ele>963.97998</ele>
        <time>2011-09-11T11:24:15Z</time>
      </trkpt>
      <trkpt lat="45.64509" lon="6.2293">
        <ele>963.710022</ele>
        <time>2011-09-11T11:24:20Z</time>
      </trkpt>
      <trkpt lat="45.64512" lon="6.22937">
        <ele>964.400635</ele>
        <time>2011-09-11T11:24:25Z</time>
      </trkpt>
      <trkpt lat="45.64514" lon="6.22942">
        <ele>966.027954</ele>
        <time>2011-09-11T11:24:30Z</time>
      </trkpt>
      <trkpt lat="45.64512" lon="6.22944">
        <ele>964.864624</ele>
        <time>2011-09-11T11:24:35Z</time>
      </trkpt>
      <trkpt lat="45.64512" lon="6.22943">
        <ele>965.21521</ele>
        <time>2011-09-11T11:24:40Z</time>
      </trkpt>
      <trkpt lat="45.64516" lon="6.22948">
        <ele>967.526001</ele>
        <time>2011-09-11T11:24:45Z</time>
      </trkpt>
      <trkpt lat="45.64518" lon="6.22955">
        <ele>969.374817</ele>
        <time>2011-09-11T11:24:50Z</time>
      </trkpt>
      <trkpt lat="45.64521" lon="6.22961">
        <ele>971.647461</ele>
        <time>2011-09-11T11:24:55Z</time>
      </trkpt>
      <trkpt lat="45.64522" lon="6.22967">
        <ele>972.833374</ele>
        <time>2011-09-11T11:25:00Z</time>
      </trkpt>
      <trkpt lat="45.64523" lon="6.22974">
        <ele>974.401306</ele>
        <time>2011-09-11T11:25:05Z</time>
      </trkpt>
      <trkpt lat="45.64523" lon="6.22982">
        <ele>975.603577</ele>
        <time>2011-09-11T11:25:10Z</time>
      </trkpt>
      <trkpt lat="45.64523" lon="6.22989">
        <ele>976.208191</ele>
        <time>2011-09-11T11:25:15Z</time>
      </trkpt>
      <trkpt lat="45.64521" lon="6.22996">
        <ele>976.600586</ele>
        <time>2011-09-11T11:25:20Z</time>
      </trkpt>
      <trkpt lat="45.64521" lon="6.23003">
        <ele>977.392517</ele>
        <time>2011-09-11T11:25:25Z</time>
      </trkpt>
      <trkpt lat="45.64521" lon="6.23011">
        <ele>978.582581</ele>
        <time>2011-09-11T11:25:30Z</time>
      </trkpt>
      <trkpt lat="45.64523" lon="6.23018">
        <ele>980.430969</ele>
        <time>2011-09-11T11:25:35Z</time>
      </trkpt>
      <trkpt lat="45.64521" lon="6.2302">
        <ele>979.574219</ele>
        <time>2011-09-11T11:25:40Z</time>
      </trkpt>
      <trkpt lat="45.64522" lon="6.23028">
        <ele>981.347351</ele>
        <time>2011-09-11T11:25:45Z</time>
      </trkpt>
      <trkpt lat="45.64523" lon="6.23035">
        <ele>982.402771</ele>
        <time>2011-09-11T11:25:50Z</time>
      </trkpt>
      <trkpt lat="45.64521" lon="6.23041">
        <ele>981.981995</ele>
        <time>2011-09-11T11:25:55Z</time>
      </trkpt>
      <trkpt lat="45.64522" lon="6.23049">
        <ele>982.316101</ele>
        <time>2011-09-11T11:26:00Z</time>
      </trkpt>
      <trkpt lat="45.64522" lon="6.23056">
        <ele>982.499023</ele>
        <time>2011-09-11T11:26:05Z</time>
      </trkpt>
      <trkpt lat="45.64522" lon="6.23064">
        <ele>982.810791</ele>
        <time>2011-09-11T11:26:10Z</time>
      </trkpt>
      <trkpt lat="45.64521" lon="6.23071">
        <ele>982.529114</ele>
        <time>2011-09-11T11:26:15Z</time>
      </trkpt>
      <trkpt lat="45.64521" lon="6.23079">
        <ele>982.293457</ele>
        <time>2011-09-11T11:26:20Z</time>
      </trkpt>
      <trkpt lat="45.64521" lon="6.23087">
        <ele>982.689819</ele>
        <time>2011-09-11T11:26:25Z</time>
      </trkpt>
      <trkpt lat="45.64519" lon="6.23094">
        <ele>981.77887</ele>
        <time>2011-09-11T11:26:30Z</time>
      </trkpt>
      <trkpt lat="45.64516" lon="6.231">
        <ele>979.804993</ele>
        <time>2011-09-11T11:26:35Z</time>
      </trkpt>
      <trkpt lat="45.64515" lon="6.23107">
        <ele>979.898193</ele>
        <time>2011-09-11T11:26:40Z</time>
      </trkpt>
      <trkpt lat="45.64514" lon="6.23114">
        <ele>979.855957</ele>
        <time>2011-09-11T11:26:45Z</time>
      </trkpt>
      <trkpt lat="45.64513" lon="6.23122">
        <ele>979.81842</ele>
        <time>2011-09-11T11:26:50Z</time>
      </trkpt>
      <trkpt lat="45.64513" lon="6.23129">
        <ele>980.254272</ele>
        <time>2011-09-11T11:26:55Z</time>
      </trkpt>
      <trkpt lat="45.64513" lon="6.23136">
        <ele>980.214478</ele>
        <time>2011-09-11T11:27:00Z</time>
      </trkpt>
      <trkpt lat="45.64511" lon="6.23144">
        <ele>979.641663</ele>
        <time>2011-09-11T11:27:05Z</time>
      </trkpt>
      <trkpt lat="45.64505" lon="6.23149">
        <ele>975.521729</ele>
        <time>2011-09-11T11:27:10Z</time>
      </trkpt>
      <trkpt lat="45.64505" lon="6.23156">
        <ele>975.585266</ele>
        <time>2011-09-11T11:27:15Z</time>
      </trkpt>
      <trkpt lat="45.64503" lon="6.23166">
        <ele>975.029175</ele>
        <time>2011-09-11T11:27:20Z</time>
      </trkpt>
      <trkpt lat="45.64503" lon="6.23175">
        <ele>975.721802</ele>
        <time>2011-09-11T11:27:25Z</time>
      </trkpt>
      <trkpt lat="45.64504" lon="6.23184">
        <ele>976.547058</ele>
        <time>2011-09-11T11:27:30Z</time>
      </trkpt>
      <trkpt lat="45.64506" lon="6.23193">
        <ele>978.862122</ele>
        <time>2011-09-11T11:27:35Z</time>
      </trkpt>
      <trkpt lat="45.64507" lon="6.23202">
        <ele>980.513855</ele>
        <time>2011-09-11T11:27:40Z</time>
      </trkpt>
      <trkpt lat="45.64507" lon="6.2321">
        <ele>980.682068</ele>
        <time>2011-09-11T11:27:45Z</time>
      </trkpt>
      <trkpt lat="45.64506" lon="6.23218">
        <ele>980.458557</ele>
        <time>2011-09-11T11:27:50Z</time>
      </trkpt>
      <trkpt lat="45.64503" lon="6.23226">
        <ele>979.166504</ele>
        <time>2011-09-11T11:27:55Z</time>
      </trkpt>
      <trkpt lat="45.64502" lon="6.23233">
        <ele>978.768982</ele>
        <time>2011-09-11T11:28:00Z</time>
      </trkpt>
      <trkpt lat="45.64498" lon="6.2324">
        <ele>978.703613</ele>
        <time>2011-09-11T11:28:05Z</time>
      </trkpt>
      <trkpt lat="45.64499" lon="6.23248">
        <ele>979.07489</ele>
        <time>2011-09-11T11:28:10Z</time>
      </trkpt>
      <trkpt lat="45.64502" lon="6.23257">
        <ele>981.483337</ele>
        <time>2011-09-11T11:28:15Z</time>
      </trkpt>
      <trkpt lat="45.64504" lon="6.23267">
        <ele>983.298462</ele>
        <time>2011-09-11T11:28:20Z</time>
      </trkpt>
      <trkpt lat="45.64507" lon="6.23277">
        <ele>985.616577</ele>
        <time>2011-09-11T11:28:25Z</time>
      </trkpt>
      <trkpt lat="45.6451" lon="6.23285">
        <ele>987.42572</ele>
        <time>2011-09-11T11:28:30Z</time>
      </trkpt>
      <trkpt lat="45.64511" lon="6.23292">
        <ele>988.282471</ele>
        <time>2011-09-11T11:28:35Z</time>
      </trkpt>
      <trkpt lat="45.64513" lon="6.23299">
        <ele>989.101379</ele>
        <time>2011-09-11T11:28:40Z</time>
      </trkpt>
      <trkpt lat="45.64513" lon="6.23305">
        <ele>989.242676</ele>
        <time>2011-09-11T11:28:45Z</time>
      </trkpt>
      <trkpt lat="45.64515" lon="6.23311">
        <ele>989.909973</ele>
        <time>2011-09-11T11:28:50Z</time>
      </trkpt>
      <trkpt lat="45.64514" lon="6.23317">
        <ele>989.489868</ele>
        <time>2011-09-11T11:28:55Z</time>
      </trkpt>
      <trkpt lat="45.64514" lon="6.23324">
        <ele>989.293213</ele>
        <time>2011-09-11T11:29:00Z</time>
      </trkpt>
      <trkpt lat="45.64515" lon="6.23331">
        <ele>989.448547</ele>
        <time>2011-09-11T11:29:05Z</time>
      </trkpt>
      <trkpt lat="45.64516" lon="6.2334">
        <ele>989.715027</ele>
        <time>2011-09-11T11:29:10Z</time>
      </trkpt>
      <trkpt lat="45.64516" lon="6.23349">
        <ele>989.50824</ele>
        <time>2011-09-11T11:29:15Z</time>
      </trkpt>
      <trkpt lat="45.64518" lon="6.23356">
        <ele>990.043762</ele>
        <time>2011-09-11T11:29:20Z</time>
      </trkpt>
      <trkpt lat="45.64521" lon="6.23363">
        <ele>991.004944</ele>
        <time>2011-09-11T11:29:25Z</time>
      </trkpt>
      <trkpt lat="45.64523" lon="6.2337">
        <ele>991.833435</ele>
        <time>2011-09-11T11:29:30Z</time>
      </trkpt>
      <trkpt lat="45.64525" lon="6.23378">
        <ele>992.420044</ele>
        <time>2011-09-11T11:29:35Z</time>
      </trkpt>
      <trkpt lat="45.64525" lon="6.23386">
        <ele>992.772217</ele>
        <time>2011-09-11T11:29:40Z</time>
      </trkpt>
      <trkpt lat="45.64527" lon="6.23396">
        <ele>993.273499</ele>
        <time>2011-09-11T11:29:45Z</time>
      </trkpt>
      <trkpt lat="45.64528" lon="6.23404">
        <ele>993.615723</ele>
        <time>2011-09-11T11:29:50Z</time>
      </trkpt>
      <trkpt lat="45.64528" lon="6.23411">
        <ele>993.669556</ele>
        <time>2011-09-11T11:29:55Z</time>
      </trkpt>
      <trkpt lat="45.64528" lon="6.23417">
        <ele>993.861694</ele>
        <time>2011-09-11T11:30:00Z</time>
      </trkpt>
      <trkpt lat="45.64531" lon="6.23425">
        <ele>993.975586</ele>
        <time>2011-09-11T11:30:05Z</time>
      </trkpt>
      <trkpt lat="45.64534" lon="6.23434">
        <ele>993.872131</ele>
        <time>2011-09-11T11:30:10Z</time>
      </trkpt>
      <trkpt lat="45.64538" lon="6.23444">
        <ele>993.60614</ele>
        <time>2011-09-11T11:30:15Z</time>
      </trkpt>
      <trkpt lat="45.64539" lon="6.23452">
        <ele>993.783936</ele>
        <time>2011-09-11T11:30:20Z</time>
      </trkpt>
      <trkpt lat="45.64541" lon="6.2346">
        <ele>994.760132</ele>
        <time>2011-09-11T11:30:25Z</time>
      </trkpt>
      <trkpt lat="45.64544" lon="6.23468">
        <ele>995.607971</ele>
        <time>2011-09-11T11:30:30Z</time>
      </trkpt>
      <trkpt lat="45.64547" lon="6.23476">
        <ele>996.476563</ele>
        <time>2011-09-11T11:30:35Z</time>
      </trkpt>
      <trkpt lat="45.6455" lon="6.23482">
        <ele>997.664551</ele>
        <time>2011-09-11T11:30:40Z</time>
      </trkpt>
      <trkpt lat="45.64553" lon="6.23489">
        <ele>998.326172</ele>
        <time>2011-09-11T11:30:45Z</time>
      </trkpt>
      <trkpt lat="45.64554" lon="6.23497">
        <ele>998.621582</ele>
        <time>2011-09-11T11:30:50Z</time>
      </trkpt>
      <trkpt lat="45.64552" lon="6.23502">
        <ele>997.732605</ele>
        <time>2011-09-11T11:30:55Z</time>
      </trkpt>
      <trkpt lat="45.64553" lon="6.23511">
        <ele>997.735291</ele>
        <time>2011-09-11T11:31:00Z</time>
      </trkpt>
      <trkpt lat="45.64554" lon="6.2352">
        <ele>997.88623</ele>
        <time>2011-09-11T11:31:05Z</time>
      </trkpt>
      <trkpt lat="45.64554" lon="6.23528">
        <ele>997.763184</ele>
        <time>2011-09-11T11:31:10Z</time>
      </trkpt>
      <trkpt lat="45.64554" lon="6.23535">
        <ele>997.40863</ele>
        <time>2011-09-11T11:31:15Z</time>
      </trkpt>
      <trkpt lat="45.64557" lon="6.23543">
        <ele>997.924377</ele>
        <time>2011-09-11T11:31:20Z</time>
      </trkpt>
      <trkpt lat="45.64557" lon="6.23551">
        <ele>997.66217</ele>
        <time>2011-09-11T11:31:25Z</time>
      </trkpt>
      <trkpt lat="45.64558" lon="6.2356">
        <ele>997.995972</ele>
        <time>2011-09-11T11:31:30Z</time>
      </trkpt>
      <trkpt lat="45.64558" lon="6.23569">
        <ele>998.062378</ele>
        <time>2011-09-11T11:31:35Z</time>
      </trkpt>
      <trkpt lat="45.64558" lon="6.23578">
        <ele>998.094299</ele>
        <time>2011-09-11T11:31:40Z</time>
      </trkpt>
      <trkpt lat="45.64558" lon="6.23586">
        <ele>998.311157</ele>
        <time>2011-09-11T11:31:45Z</time>
      </trkpt>
      <trkpt lat="45.64562" lon="6.23597">
        <ele>999.046326</ele>
        <time>2011-09-11T11:31:50Z</time>
      </trkpt>
      <trkpt lat="45.64564" lon="6.23607">
        <ele>999.52301</ele>
        <time>2011-09-11T11:31:55Z</time>
      </trkpt>
      <trkpt lat="45.64564" lon="6.23616">
        <ele>999.546143</ele>
        <time>2011-09-11T11:32:00Z</time>
      </trkpt>
      <trkpt lat="45.64563" lon="6.23624">
        <ele>999.259888</ele>
        <time>2011-09-11T11:32:05Z</time>
      </trkpt>
      <trkpt lat="45.64564" lon="6.23633">
        <ele>999.428101</ele>
        <time>2011-09-11T11:32:10Z</time>
      </trkpt>
      <trkpt lat="45.64565" lon="6.23643">
        <ele>999.495911</ele>
        <time>2011-09-11T11:32:15Z</time>
      </trkpt>
      <trkpt lat="45.64565" lon="6.23651">
        <ele>999.40155</ele>
        <time>2011-09-11T11:32:20Z</time>
      </trkpt>
      <trkpt lat="45.64562" lon="6.23658">
        <ele>999.14624</ele>
        <time>2011-09-11T11:32:25Z</time>
      </trkpt>
      <trkpt lat="45.64563" lon="6.23659">
        <ele>999.175903</ele>
        <time>2011-09-11T11:32:30Z</time>
      </trkpt>
      <trkpt lat="45.64563" lon="6.2366">
        <ele>999.212402</ele>
        <time>2011-09-11T11:32:35Z</time>
      </trkpt>
      <trkpt lat="45.64562" lon="6.23658">
        <ele>999.122192</ele>
        <time>2011-09-11T11:32:40Z</time>
      </trkpt>
      <trkpt lat="45.64564" lon="6.23663">
        <ele>999.228577</ele>
        <time>2011-09-11T11:32:45Z</time>
      </trkpt>
      <trkpt lat="45.64575" lon="6.23672">
        <ele>999.393738</ele>
        <time>2011-09-11T11:32:50Z</time>
      </trkpt>
      <trkpt lat="45.64573" lon="6.23671">
        <ele>999.388794</ele>
        <time>2011-09-11T11:32:55Z</time>
      </trkpt>
      <trkpt lat="45.64573" lon="6.23669">
        <ele>999.464478</ele>
        <time>2011-09-11T11:33:00Z</time>
      </trkpt>
      <trkpt lat="45.64571" lon="6.23666">
        <ele>999.510742</ele>
        <time>2011-09-11T11:33:05Z</time>
      </trkpt>
      <trkpt lat="45.64569" lon="6.23662">
        <ele>999.504517</ele>
        <time>2011-09-11T11:33:10Z</time>
      </trkpt>
    </trkseg>
  </trk>
</gpx>